<?xml version="1.0" encoding="UTF-8" standalone="no" ?>
<gpx xmlns="http://www.topografix.com/GPX/1/1" xmlns:xsi="http://www.w3.org/2001/XMLSchema-instance" xsi:schemaLocation="http://www.topografix.com/GPX/1/1 http://www.topografix.com/GPX/1/1/gpx.xsd" version="1.1" creator="VisuGPX - https://www.visugpx.com">
  <metadata>
    <name>Haldern-Budapest - Day 6: FrankfurtAirport-Aschaffenburg</name>
  </metadata>
  <trk>
    <name><![CDATA[Haldern-Budapest - Day 6: FrankfurtAirport-Aschaffenburg]]></name>
    <extensions>
      <line xmlns="http://www.topografix.com/GPX/gpx_style/0/2">
        <color>0000FF</color>
        <width>4</width>
      </line>
    </extensions>
    <trkseg>
      <trkpt lat="50.01509" lon="8.46083">
        <ele>136.85734</ele>
        <time>2023-07-03T07:34:54.883Z</time>
      </trkpt>
      <trkpt lat="50.01516" lon="8.46074">
        <ele>136.85734</ele>
        <time>2023-07-03T07:35:33.646Z</time>
      </trkpt>
      <trkpt lat="50.01522" lon="8.46089">
        <ele>136.85734</ele>
        <time>2023-07-03T07:35:40.631Z</time>
      </trkpt>
      <trkpt lat="50.01523" lon="8.46107">
        <ele>136.85734</ele>
        <time>2023-07-03T07:35:44.645Z</time>
      </trkpt>
      <trkpt lat="50.01522" lon="8.46121">
        <ele>136.85734</ele>
        <time>2023-07-03T07:35:47.662Z</time>
      </trkpt>
      <trkpt lat="50.01522" lon="8.46138">
        <ele>136.85734</ele>
        <time>2023-07-03T07:35:50.644Z</time>
      </trkpt>
      <trkpt lat="50.01521" lon="8.46152">
        <ele>136.85734</ele>
        <time>2023-07-03T07:35:53.647Z</time>
      </trkpt>
      <trkpt lat="50.01521" lon="8.4617">
        <ele>136.85734</ele>
        <time>2023-07-03T07:35:57.649Z</time>
      </trkpt>
      <trkpt lat="50.01521" lon="8.46186">
        <ele>136.85734</ele>
        <time>2023-07-03T07:36:01.653Z</time>
      </trkpt>
      <trkpt lat="50.01521" lon="8.46205">
        <ele>136.989243</ele>
        <time>2023-07-03T07:36:05.650Z</time>
      </trkpt>
      <trkpt lat="50.01521" lon="8.46221">
        <ele>137.249319</ele>
        <time>2023-07-03T07:36:09.655Z</time>
      </trkpt>
      <trkpt lat="50.01522" lon="8.46238">
        <ele>137.510272</ele>
        <time>2023-07-03T07:36:13.658Z</time>
      </trkpt>
      <trkpt lat="50.01524" lon="8.46256">
        <ele>137.793712</ele>
        <time>2023-07-03T07:36:17.646Z</time>
      </trkpt>
      <trkpt lat="50.01526" lon="8.4627">
        <ele>138.021514</ele>
        <time>2023-07-03T07:36:20.659Z</time>
      </trkpt>
      <trkpt lat="50.0153" lon="8.46284">
        <ele>138.265819</ele>
        <time>2023-07-03T07:36:23.652Z</time>
      </trkpt>
      <trkpt lat="50.01534" lon="8.46299">
        <ele>138.526171</ele>
        <time>2023-07-03T07:36:26.645Z</time>
      </trkpt>
      <trkpt lat="50.0154" lon="8.46315">
        <ele>138.805117</ele>
        <time>2023-07-03T07:36:29.639Z</time>
      </trkpt>
      <trkpt lat="50.01546" lon="8.46328">
        <ele>139.064642</ele>
        <time>2023-07-03T07:36:32.683Z</time>
      </trkpt>
      <trkpt lat="50.01553" lon="8.46343">
        <ele>139.361541</ele>
        <time>2023-07-03T07:36:35.665Z</time>
      </trkpt>
      <trkpt lat="50.01561" lon="8.46359">
        <ele>139.676373</ele>
        <time>2023-07-03T07:36:38.655Z</time>
      </trkpt>
      <trkpt lat="50.01571" lon="8.46373">
        <ele>139.990705</ele>
        <time>2023-07-03T07:36:41.652Z</time>
      </trkpt>
      <trkpt lat="50.0158" lon="8.46386">
        <ele>140.299349</ele>
        <time>2023-07-03T07:36:44.698Z</time>
      </trkpt>
      <trkpt lat="50.0159" lon="8.46398">
        <ele>140.604291</ele>
        <time>2023-07-03T07:36:47.659Z</time>
      </trkpt>
      <trkpt lat="50.01599" lon="8.46409">
        <ele>140.887114</ele>
        <time>2023-07-03T07:36:50.654Z</time>
      </trkpt>
      <trkpt lat="50.01606" lon="8.46419">
        <ele>141.117027</ele>
        <time>2023-07-03T07:36:53.653Z</time>
      </trkpt>
      <trkpt lat="50.01614" lon="8.46427">
        <ele>141.252887</ele>
        <time>2023-07-03T07:36:58.650Z</time>
      </trkpt>
      <trkpt lat="50.01623" lon="8.46422">
        <ele>141.277678</ele>
        <time>2023-07-03T07:37:03.635Z</time>
      </trkpt>
      <trkpt lat="50.01628" lon="8.46408">
        <ele>141.303598</ele>
        <time>2023-07-03T07:37:06.644Z</time>
      </trkpt>
      <trkpt lat="50.01635" lon="8.4639">
        <ele>141.33737</ele>
        <time>2023-07-03T07:37:09.655Z</time>
      </trkpt>
      <trkpt lat="50.01641" lon="8.46379">
        <ele>141.360843</ele>
        <time>2023-07-03T07:37:11.632Z</time>
      </trkpt>
      <trkpt lat="50.01648" lon="8.4637">
        <ele>141.383797</ele>
        <time>2023-07-03T07:37:13.644Z</time>
      </trkpt>
      <trkpt lat="50.01655" lon="8.46362">
        <ele>141.40698</ele>
        <time>2023-07-03T07:37:15.652Z</time>
      </trkpt>
      <trkpt lat="50.01663" lon="8.46352">
        <ele>141.433152</ele>
        <time>2023-07-03T07:37:17.647Z</time>
      </trkpt>
      <trkpt lat="50.01672" lon="8.46342">
        <ele>141.459608</ele>
        <time>2023-07-03T07:37:19.667Z</time>
      </trkpt>
      <trkpt lat="50.0168" lon="8.46331">
        <ele>141.486396</ele>
        <time>2023-07-03T07:37:21.663Z</time>
      </trkpt>
      <trkpt lat="50.01687" lon="8.46321">
        <ele>141.512479</ele>
        <time>2023-07-03T07:37:23.659Z</time>
      </trkpt>
      <trkpt lat="50.01695" lon="8.4631">
        <ele>141.538846</ele>
        <time>2023-07-03T07:37:25.655Z</time>
      </trkpt>
      <trkpt lat="50.01704" lon="8.46301">
        <ele>141.566013</ele>
        <time>2023-07-03T07:37:27.645Z</time>
      </trkpt>
      <trkpt lat="50.01716" lon="8.46295">
        <ele>141.598389</ele>
        <time>2023-07-03T07:37:29.653Z</time>
      </trkpt>
      <trkpt lat="50.01725" lon="8.46285">
        <ele>141.625402</ele>
        <time>2023-07-03T07:37:31.660Z</time>
      </trkpt>
      <trkpt lat="50.01734" lon="8.46276">
        <ele>141.651882</ele>
        <time>2023-07-03T07:37:33.653Z</time>
      </trkpt>
      <trkpt lat="50.01741" lon="8.46267">
        <ele>141.675833</ele>
        <time>2023-07-03T07:37:35.645Z</time>
      </trkpt>
      <trkpt lat="50.01752" lon="8.46256">
        <ele>141.803822</ele>
        <time>2023-07-03T07:37:38.647Z</time>
      </trkpt>
      <trkpt lat="50.01762" lon="8.46245">
        <ele>142.121214</ele>
        <time>2023-07-03T07:37:41.645Z</time>
      </trkpt>
      <trkpt lat="50.01769" lon="8.46233">
        <ele>142.411736</ele>
        <time>2023-07-03T07:37:44.653Z</time>
      </trkpt>
      <trkpt lat="50.01777" lon="8.46221">
        <ele>142.704761</ele>
        <time>2023-07-03T07:37:48.656Z</time>
      </trkpt>
      <trkpt lat="50.01785" lon="8.4621">
        <ele>142.996693</ele>
        <time>2023-07-03T07:37:52.642Z</time>
      </trkpt>
      <trkpt lat="50.01793" lon="8.46197">
        <ele>143.308275</ele>
        <time>2023-07-03T07:37:55.639Z</time>
      </trkpt>
      <trkpt lat="50.01805" lon="8.46188">
        <ele>143.657928</ele>
        <time>2023-07-03T07:37:58.661Z</time>
      </trkpt>
      <trkpt lat="50.01813" lon="8.46182">
        <ele>143.905935</ele>
        <time>2023-07-03T07:38:00.657Z</time>
      </trkpt>
      <trkpt lat="50.01823" lon="8.46167">
        <ele>144.267293</ele>
        <time>2023-07-03T07:38:03.642Z</time>
      </trkpt>
      <trkpt lat="50.01829" lon="8.46156">
        <ele>144.517305</ele>
        <time>2023-07-03T07:38:05.668Z</time>
      </trkpt>
      <trkpt lat="50.01834" lon="8.46143">
        <ele>144.779986</ele>
        <time>2023-07-03T07:38:07.680Z</time>
      </trkpt>
      <trkpt lat="50.0184" lon="8.4613">
        <ele>145.045704</ele>
        <time>2023-07-03T07:38:09.670Z</time>
      </trkpt>
      <trkpt lat="50.01846" lon="8.4612">
        <ele>145.29388</ele>
        <time>2023-07-03T07:38:11.654Z</time>
      </trkpt>
      <trkpt lat="50.01855" lon="8.46113">
        <ele>145.552133</ele>
        <time>2023-07-03T07:38:13.636Z</time>
      </trkpt>
      <trkpt lat="50.01863" lon="8.46105">
        <ele>145.807705</ele>
        <time>2023-07-03T07:38:15.657Z</time>
      </trkpt>
      <trkpt lat="50.01871" lon="8.46097">
        <ele>146.062402</ele>
        <time>2023-07-03T07:38:17.652Z</time>
      </trkpt>
      <trkpt lat="50.01883" lon="8.46085">
        <ele>146.437628</ele>
        <time>2023-07-03T07:38:20.659Z</time>
      </trkpt>
      <trkpt lat="50.01891" lon="8.46077">
        <ele>146.278037</ele>
        <time>2023-07-03T07:38:22.649Z</time>
      </trkpt>
      <trkpt lat="50.01899" lon="8.46067">
        <ele>145.940139</ele>
        <time>2023-07-03T07:38:24.666Z</time>
      </trkpt>
      <trkpt lat="50.01906" lon="8.46057">
        <ele>145.607106</ele>
        <time>2023-07-03T07:38:26.628Z</time>
      </trkpt>
      <trkpt lat="50.01916" lon="8.46043">
        <ele>145.168971</ele>
        <time>2023-07-03T07:38:29.735Z</time>
      </trkpt>
      <trkpt lat="50.01922" lon="8.46032">
        <ele>144.84732</ele>
        <time>2023-07-03T07:38:31.667Z</time>
      </trkpt>
      <trkpt lat="50.01929" lon="8.46023">
        <ele>144.542973</ele>
        <time>2023-07-03T07:38:33.654Z</time>
      </trkpt>
      <trkpt lat="50.01936" lon="8.46014">
        <ele>144.239457</ele>
        <time>2023-07-03T07:38:35.658Z</time>
      </trkpt>
      <trkpt lat="50.01941" lon="8.45998">
        <ele>143.848746</ele>
        <time>2023-07-03T07:38:38.647Z</time>
      </trkpt>
      <trkpt lat="50.01945" lon="8.45984">
        <ele>143.536265</ele>
        <time>2023-07-03T07:38:41.658Z</time>
      </trkpt>
      <trkpt lat="50.01954" lon="8.45985">
        <ele>143.213445</ele>
        <time>2023-07-03T07:38:48.653Z</time>
      </trkpt>
      <trkpt lat="50.01965" lon="8.45979">
        <ele>142.832982</ele>
        <time>2023-07-03T07:38:53.686Z</time>
      </trkpt>
      <trkpt lat="50.01973" lon="8.4597">
        <ele>142.49639</ele>
        <time>2023-07-03T07:38:56.646Z</time>
      </trkpt>
      <trkpt lat="50.01984" lon="8.4596">
        <ele>142.071854</ele>
        <time>2023-07-03T07:38:59.633Z</time>
      </trkpt>
      <trkpt lat="50.01993" lon="8.45958">
        <ele>141.769255</ele>
        <time>2023-07-03T07:39:01.648Z</time>
      </trkpt>
      <trkpt lat="50.02004" lon="8.45963">
        <ele>141.381948</ele>
        <time>2023-07-03T07:39:03.659Z</time>
      </trkpt>
      <trkpt lat="50.02014" lon="8.45975">
        <ele>140.951295</ele>
        <time>2023-07-03T07:39:05.653Z</time>
      </trkpt>
      <trkpt lat="50.02025" lon="8.45978">
        <ele>140.559388</ele>
        <time>2023-07-03T07:39:07.647Z</time>
      </trkpt>
      <trkpt lat="50.02038" lon="8.45971">
        <ele>140.299484</ele>
        <time>2023-07-03T07:39:09.661Z</time>
      </trkpt>
      <trkpt lat="50.02048" lon="8.45962">
        <ele>140.096351</ele>
        <time>2023-07-03T07:39:11.647Z</time>
      </trkpt>
      <trkpt lat="50.02059" lon="8.45953">
        <ele>139.891263</ele>
        <time>2023-07-03T07:39:13.654Z</time>
      </trkpt>
      <trkpt lat="50.02068" lon="8.45954">
        <ele>139.728488</ele>
        <time>2023-07-03T07:39:15.638Z</time>
      </trkpt>
      <trkpt lat="50.02078" lon="8.45964">
        <ele>139.520041</ele>
        <time>2023-07-03T07:39:18.647Z</time>
      </trkpt>
      <trkpt lat="50.02085" lon="8.45975">
        <ele>139.351878</ele>
        <time>2023-07-03T07:39:20.676Z</time>
      </trkpt>
      <trkpt lat="50.02094" lon="8.4599">
        <ele>139.137019</ele>
        <time>2023-07-03T07:39:23.641Z</time>
      </trkpt>
      <trkpt lat="50.02103" lon="8.46005">
        <ele>138.910356</ele>
        <time>2023-07-03T07:39:26.665Z</time>
      </trkpt>
      <trkpt lat="50.0211" lon="8.46016">
        <ele>138.742974</ele>
        <time>2023-07-03T07:39:28.653Z</time>
      </trkpt>
      <trkpt lat="50.02116" lon="8.46028">
        <ele>138.577836</ele>
        <time>2023-07-03T07:39:30.658Z</time>
      </trkpt>
      <trkpt lat="50.02122" lon="8.46038">
        <ele>138.421558</ele>
        <time>2023-07-03T07:39:32.652Z</time>
      </trkpt>
      <trkpt lat="50.02128" lon="8.46049">
        <ele>138.267429</ele>
        <time>2023-07-03T07:39:34.673Z</time>
      </trkpt>
      <trkpt lat="50.02135" lon="8.46066">
        <ele>138.053752</ele>
        <time>2023-07-03T07:39:37.639Z</time>
      </trkpt>
      <trkpt lat="50.0214" lon="8.46083">
        <ele>137.850951</ele>
        <time>2023-07-03T07:39:40.657Z</time>
      </trkpt>
      <trkpt lat="50.02145" lon="8.46096">
        <ele>137.682131</ele>
        <time>2023-07-03T07:39:43.636Z</time>
      </trkpt>
      <trkpt lat="50.02148" lon="8.4611">
        <ele>137.525882</ele>
        <time>2023-07-03T07:39:48.676Z</time>
      </trkpt>
      <trkpt lat="50.02155" lon="8.46119">
        <ele>137.433955</ele>
        <time>2023-07-03T07:41:18.653Z</time>
      </trkpt>
      <trkpt lat="50.0216" lon="8.46135">
        <ele>137.454555</ele>
        <time>2023-07-03T07:41:22.647Z</time>
      </trkpt>
      <trkpt lat="50.02167" lon="8.46148">
        <ele>137.474229</ele>
        <time>2023-07-03T07:41:25.640Z</time>
      </trkpt>
      <trkpt lat="50.02173" lon="8.46164">
        <ele>137.495735</ele>
        <time>2023-07-03T07:41:28.655Z</time>
      </trkpt>
      <trkpt lat="50.0218" lon="8.4618">
        <ele>137.518628</ele>
        <time>2023-07-03T07:41:31.646Z</time>
      </trkpt>
      <trkpt lat="50.02187" lon="8.46197">
        <ele>137.542513</ele>
        <time>2023-07-03T07:41:34.674Z</time>
      </trkpt>
      <trkpt lat="50.02193" lon="8.46208">
        <ele>137.559551</ele>
        <time>2023-07-03T07:41:36.653Z</time>
      </trkpt>
      <trkpt lat="50.022" lon="8.46218">
        <ele>137.576444</ele>
        <time>2023-07-03T07:41:38.655Z</time>
      </trkpt>
      <trkpt lat="50.02206" lon="8.4623">
        <ele>137.594146</ele>
        <time>2023-07-03T07:41:40.673Z</time>
      </trkpt>
      <trkpt lat="50.02212" lon="8.46242">
        <ele>137.612758</ele>
        <time>2023-07-03T07:41:42.665Z</time>
      </trkpt>
      <trkpt lat="50.0222" lon="8.46254">
        <ele>137.632147</ele>
        <time>2023-07-03T07:41:44.672Z</time>
      </trkpt>
      <trkpt lat="50.02228" lon="8.46266">
        <ele>137.652801</ele>
        <time>2023-07-03T07:41:46.646Z</time>
      </trkpt>
      <trkpt lat="50.02236" lon="8.46279">
        <ele>137.674143</ele>
        <time>2023-07-03T07:41:48.654Z</time>
      </trkpt>
      <trkpt lat="50.02245" lon="8.46292">
        <ele>137.696259</ele>
        <time>2023-07-03T07:41:50.650Z</time>
      </trkpt>
      <trkpt lat="50.02255" lon="8.46304">
        <ele>137.718737</ele>
        <time>2023-07-03T07:41:52.657Z</time>
      </trkpt>
      <trkpt lat="50.02264" lon="8.46317">
        <ele>137.741473</ele>
        <time>2023-07-03T07:41:54.663Z</time>
      </trkpt>
      <trkpt lat="50.02273" lon="8.46331">
        <ele>137.912424</ele>
        <time>2023-07-03T07:41:56.636Z</time>
      </trkpt>
      <trkpt lat="50.02281" lon="8.46347">
        <ele>138.308103</ele>
        <time>2023-07-03T07:41:58.654Z</time>
      </trkpt>
      <trkpt lat="50.02289" lon="8.46363">
        <ele>138.713741</ele>
        <time>2023-07-03T07:42:00.653Z</time>
      </trkpt>
      <trkpt lat="50.02298" lon="8.4638">
        <ele>139.137047</ele>
        <time>2023-07-03T07:42:02.641Z</time>
      </trkpt>
      <trkpt lat="50.02305" lon="8.464">
        <ele>139.590577</ele>
        <time>2023-07-03T07:42:04.654Z</time>
      </trkpt>
      <trkpt lat="50.02312" lon="8.46418">
        <ele>140.002361</ele>
        <time>2023-07-03T07:42:06.648Z</time>
      </trkpt>
      <trkpt lat="50.02319" lon="8.46434">
        <ele>140.380973</ele>
        <time>2023-07-03T07:42:08.658Z</time>
      </trkpt>
      <trkpt lat="50.02325" lon="8.46448">
        <ele>140.713279</ele>
        <time>2023-07-03T07:42:10.661Z</time>
      </trkpt>
      <trkpt lat="50.0233" lon="8.46462">
        <ele>141.019334</ele>
        <time>2023-07-03T07:42:12.653Z</time>
      </trkpt>
      <trkpt lat="50.02338" lon="8.46478">
        <ele>141.419623</ele>
        <time>2023-07-03T07:42:15.658Z</time>
      </trkpt>
      <trkpt lat="50.02344" lon="8.46494">
        <ele>141.795008</ele>
        <time>2023-07-03T07:42:18.654Z</time>
      </trkpt>
      <trkpt lat="50.02352" lon="8.46508">
        <ele>142.145868</ele>
        <time>2023-07-03T07:42:21.655Z</time>
      </trkpt>
      <trkpt lat="50.0236" lon="8.4652">
        <ele>142.490641</ele>
        <time>2023-07-03T07:42:24.658Z</time>
      </trkpt>
      <trkpt lat="50.02368" lon="8.4653">
        <ele>142.803501</ele>
        <time>2023-07-03T07:42:27.668Z</time>
      </trkpt>
      <trkpt lat="50.02377" lon="8.46542">
        <ele>143.15965</ele>
        <time>2023-07-03T07:42:31.645Z</time>
      </trkpt>
      <trkpt lat="50.02384" lon="8.46552">
        <ele>143.096725</ele>
        <time>2023-07-03T07:42:35.670Z</time>
      </trkpt>
      <trkpt lat="50.02392" lon="8.46562">
        <ele>142.859971</ele>
        <time>2023-07-03T07:42:40.657Z</time>
      </trkpt>
      <trkpt lat="50.02399" lon="8.46575">
        <ele>142.609227</ele>
        <time>2023-07-03T07:42:46.638Z</time>
      </trkpt>
      <trkpt lat="50.02406" lon="8.46587">
        <ele>142.354641</ele>
        <time>2023-07-03T07:42:51.647Z</time>
      </trkpt>
      <trkpt lat="50.02411" lon="8.46599">
        <ele>142.140255</ele>
        <time>2023-07-03T07:42:54.656Z</time>
      </trkpt>
      <trkpt lat="50.02418" lon="8.46611">
        <ele>141.884916</ele>
        <time>2023-07-03T07:42:57.661Z</time>
      </trkpt>
      <trkpt lat="50.02428" lon="8.46614">
        <ele>141.645202</ele>
        <time>2023-07-03T07:43:00.661Z</time>
      </trkpt>
      <trkpt lat="50.02434" lon="8.46601">
        <ele>141.39436</ele>
        <time>2023-07-03T07:43:03.649Z</time>
      </trkpt>
      <trkpt lat="50.02428" lon="8.46585">
        <ele>141.120863</ele>
        <time>2023-07-03T07:43:06.667Z</time>
      </trkpt>
      <trkpt lat="50.02417" lon="8.4659">
        <ele>140.844953</ele>
        <time>2023-07-03T07:43:09.648Z</time>
      </trkpt>
      <trkpt lat="50.02417" lon="8.46611">
        <ele>140.537963</ele>
        <time>2023-07-03T07:43:12.648Z</time>
      </trkpt>
      <trkpt lat="50.02423" lon="8.46622">
        <ele>140.304151</ele>
        <time>2023-07-03T07:43:14.656Z</time>
      </trkpt>
      <trkpt lat="50.02435" lon="8.46632">
        <ele>139.977445</ele>
        <time>2023-07-03T07:43:16.642Z</time>
      </trkpt>
      <trkpt lat="50.02447" lon="8.46642">
        <ele>139.665021</ele>
        <time>2023-07-03T07:43:18.631Z</time>
      </trkpt>
      <trkpt lat="50.02459" lon="8.46651">
        <ele>139.344314</ele>
        <time>2023-07-03T07:43:20.662Z</time>
      </trkpt>
      <trkpt lat="50.02473" lon="8.46661">
        <ele>138.999401</ele>
        <time>2023-07-03T07:43:22.687Z</time>
      </trkpt>
      <trkpt lat="50.02485" lon="8.46675">
        <ele>138.836049</ele>
        <time>2023-07-03T07:43:24.657Z</time>
      </trkpt>
      <trkpt lat="50.02496" lon="8.4669">
        <ele>138.682173</ele>
        <time>2023-07-03T07:43:26.638Z</time>
      </trkpt>
      <trkpt lat="50.02506" lon="8.46704">
        <ele>138.532412</ele>
        <time>2023-07-03T07:43:28.660Z</time>
      </trkpt>
      <trkpt lat="50.02516" lon="8.46718">
        <ele>138.389058</ele>
        <time>2023-07-03T07:43:30.663Z</time>
      </trkpt>
      <trkpt lat="50.02526" lon="8.4673">
        <ele>138.250047</ele>
        <time>2023-07-03T07:43:32.652Z</time>
      </trkpt>
      <trkpt lat="50.02537" lon="8.46742">
        <ele>138.1118</ele>
        <time>2023-07-03T07:43:34.652Z</time>
      </trkpt>
      <trkpt lat="50.02547" lon="8.46752">
        <ele>137.976968</ele>
        <time>2023-07-03T07:43:36.653Z</time>
      </trkpt>
      <trkpt lat="50.02558" lon="8.46763">
        <ele>137.840995</ele>
        <time>2023-07-03T07:43:38.650Z</time>
      </trkpt>
      <trkpt lat="50.02568" lon="8.46773">
        <ele>137.711856</ele>
        <time>2023-07-03T07:43:40.695Z</time>
      </trkpt>
      <trkpt lat="50.02577" lon="8.46783">
        <ele>137.587644</ele>
        <time>2023-07-03T07:43:42.677Z</time>
      </trkpt>
      <trkpt lat="50.02588" lon="8.46793">
        <ele>137.456653</ele>
        <time>2023-07-03T07:43:44.666Z</time>
      </trkpt>
      <trkpt lat="50.02598" lon="8.46803">
        <ele>137.324589</ele>
        <time>2023-07-03T07:43:46.648Z</time>
      </trkpt>
      <trkpt lat="50.02608" lon="8.46813">
        <ele>137.198372</ele>
        <time>2023-07-03T07:43:48.667Z</time>
      </trkpt>
      <trkpt lat="50.02619" lon="8.46822">
        <ele>137.066677</ele>
        <time>2023-07-03T07:43:50.662Z</time>
      </trkpt>
      <trkpt lat="50.0263" lon="8.4683">
        <ele>137.193296</ele>
        <time>2023-07-03T07:43:52.658Z</time>
      </trkpt>
      <trkpt lat="50.02641" lon="8.46837">
        <ele>137.315726</ele>
        <time>2023-07-03T07:43:54.670Z</time>
      </trkpt>
      <trkpt lat="50.02651" lon="8.46845">
        <ele>137.432743</ele>
        <time>2023-07-03T07:43:56.644Z</time>
      </trkpt>
      <trkpt lat="50.02662" lon="8.46852">
        <ele>137.555434</ele>
        <time>2023-07-03T07:43:58.664Z</time>
      </trkpt>
      <trkpt lat="50.02672" lon="8.46859">
        <ele>137.673393</ele>
        <time>2023-07-03T07:44:00.673Z</time>
      </trkpt>
      <trkpt lat="50.02682" lon="8.46866">
        <ele>137.785011</ele>
        <time>2023-07-03T07:44:02.673Z</time>
      </trkpt>
      <trkpt lat="50.02692" lon="8.46873">
        <ele>137.895282</ele>
        <time>2023-07-03T07:44:04.669Z</time>
      </trkpt>
      <trkpt lat="50.02701" lon="8.4688">
        <ele>138.001162</ele>
        <time>2023-07-03T07:44:06.655Z</time>
      </trkpt>
      <trkpt lat="50.02711" lon="8.46887">
        <ele>138.110216</ele>
        <time>2023-07-03T07:44:08.646Z</time>
      </trkpt>
      <trkpt lat="50.0272" lon="8.46894">
        <ele>138.218209</ele>
        <time>2023-07-03T07:44:10.661Z</time>
      </trkpt>
      <trkpt lat="50.02728" lon="8.46904">
        <ele>138.323073</ele>
        <time>2023-07-03T07:44:12.645Z</time>
      </trkpt>
      <trkpt lat="50.02735" lon="8.46913">
        <ele>138.418967</ele>
        <time>2023-07-03T07:44:14.657Z</time>
      </trkpt>
      <trkpt lat="50.02743" lon="8.46925">
        <ele>138.537458</ele>
        <time>2023-07-03T07:44:17.684Z</time>
      </trkpt>
      <trkpt lat="50.02751" lon="8.46936">
        <ele>138.641133</ele>
        <time>2023-07-03T07:44:20.656Z</time>
      </trkpt>
      <trkpt lat="50.02759" lon="8.46946">
        <ele>138.749249</ele>
        <time>2023-07-03T07:44:23.654Z</time>
      </trkpt>
      <trkpt lat="50.02768" lon="8.46957">
        <ele>138.866779</ele>
        <time>2023-07-03T07:44:26.647Z</time>
      </trkpt>
      <trkpt lat="50.02777" lon="8.46967">
        <ele>138.931163</ele>
        <time>2023-07-03T07:44:29.646Z</time>
      </trkpt>
      <trkpt lat="50.02787" lon="8.46971">
        <ele>138.939425</ele>
        <time>2023-07-03T07:44:32.633Z</time>
      </trkpt>
      <trkpt lat="50.02796" lon="8.46973">
        <ele>138.947573</ele>
        <time>2023-07-03T07:44:36.624Z</time>
      </trkpt>
      <trkpt lat="50.02809" lon="8.46973">
        <ele>138.958103</ele>
        <time>2023-07-03T07:44:41.643Z</time>
      </trkpt>
      <trkpt lat="50.02823" lon="8.46984">
        <ele>138.971731</ele>
        <time>2023-07-03T07:44:43.641Z</time>
      </trkpt>
      <trkpt lat="50.02832" lon="8.46993">
        <ele>138.980926</ele>
        <time>2023-07-03T07:44:44.654Z</time>
      </trkpt>
      <trkpt lat="50.02839" lon="8.47003">
        <ele>138.989292</ele>
        <time>2023-07-03T07:44:45.669Z</time>
      </trkpt>
      <trkpt lat="50.02853" lon="8.47014">
        <ele>139.002385</ele>
        <time>2023-07-03T07:44:47.638Z</time>
      </trkpt>
      <trkpt lat="50.02864" lon="8.47023">
        <ele>139.012543</ele>
        <time>2023-07-03T07:44:49.648Z</time>
      </trkpt>
      <trkpt lat="50.02873" lon="8.47032">
        <ele>139.021917</ele>
        <time>2023-07-03T07:44:51.629Z</time>
      </trkpt>
      <trkpt lat="50.02882" lon="8.47041">
        <ele>139.031102</ele>
        <time>2023-07-03T07:44:53.665Z</time>
      </trkpt>
      <trkpt lat="50.02892" lon="8.47048">
        <ele>139.040428</ele>
        <time>2023-07-03T07:44:55.656Z</time>
      </trkpt>
      <trkpt lat="50.02903" lon="8.4705">
        <ele>139.049432</ele>
        <time>2023-07-03T07:44:57.641Z</time>
      </trkpt>
      <trkpt lat="50.02913" lon="8.47054">
        <ele>139.058729</ele>
        <time>2023-07-03T07:44:59.651Z</time>
      </trkpt>
      <trkpt lat="50.02923" lon="8.47059">
        <ele>139.067717</ele>
        <time>2023-07-03T07:45:01.652Z</time>
      </trkpt>
      <trkpt lat="50.02933" lon="8.47065">
        <ele>139.076484</ele>
        <time>2023-07-03T07:45:03.647Z</time>
      </trkpt>
      <trkpt lat="50.02943" lon="8.4707">
        <ele>139.112878</ele>
        <time>2023-07-03T07:45:05.654Z</time>
      </trkpt>
      <trkpt lat="50.02953" lon="8.47076">
        <ele>139.161527</ele>
        <time>2023-07-03T07:45:07.666Z</time>
      </trkpt>
      <trkpt lat="50.02963" lon="8.47082">
        <ele>139.20945</ele>
        <time>2023-07-03T07:45:09.648Z</time>
      </trkpt>
      <trkpt lat="50.02973" lon="8.47088">
        <ele>139.258001</ele>
        <time>2023-07-03T07:45:11.665Z</time>
      </trkpt>
      <trkpt lat="50.02982" lon="8.47093">
        <ele>139.30579</ele>
        <time>2023-07-03T07:45:13.655Z</time>
      </trkpt>
      <trkpt lat="50.02993" lon="8.471">
        <ele>139.356469</ele>
        <time>2023-07-03T07:45:15.649Z</time>
      </trkpt>
      <trkpt lat="50.03003" lon="8.47107">
        <ele>139.408757</ele>
        <time>2023-07-03T07:45:17.652Z</time>
      </trkpt>
      <trkpt lat="50.03014" lon="8.47114">
        <ele>139.462512</ele>
        <time>2023-07-03T07:45:19.664Z</time>
      </trkpt>
      <trkpt lat="50.03025" lon="8.47121">
        <ele>139.516801</ele>
        <time>2023-07-03T07:45:21.648Z</time>
      </trkpt>
      <trkpt lat="50.03036" lon="8.47127">
        <ele>139.570767</ele>
        <time>2023-07-03T07:45:23.661Z</time>
      </trkpt>
      <trkpt lat="50.03048" lon="8.47132">
        <ele>139.62527</ele>
        <time>2023-07-03T07:45:25.668Z</time>
      </trkpt>
      <trkpt lat="50.03059" lon="8.47137">
        <ele>139.678148</ele>
        <time>2023-07-03T07:45:27.654Z</time>
      </trkpt>
      <trkpt lat="50.03069" lon="8.47146">
        <ele>139.730536</ele>
        <time>2023-07-03T07:45:29.644Z</time>
      </trkpt>
      <trkpt lat="50.03077" lon="8.47158">
        <ele>139.783661</ele>
        <time>2023-07-03T07:45:31.638Z</time>
      </trkpt>
      <trkpt lat="50.03086" lon="8.4717">
        <ele>139.837122</ele>
        <time>2023-07-03T07:45:33.646Z</time>
      </trkpt>
      <trkpt lat="50.03095" lon="8.47181">
        <ele>139.889864</ele>
        <time>2023-07-03T07:45:35.670Z</time>
      </trkpt>
      <trkpt lat="50.03105" lon="8.47191">
        <ele>139.884445</ele>
        <time>2023-07-03T07:45:37.644Z</time>
      </trkpt>
      <trkpt lat="50.03115" lon="8.47199">
        <ele>139.860432</ele>
        <time>2023-07-03T07:45:39.657Z</time>
      </trkpt>
      <trkpt lat="50.03126" lon="8.47205">
        <ele>139.835752</ele>
        <time>2023-07-03T07:45:41.652Z</time>
      </trkpt>
      <trkpt lat="50.03137" lon="8.47208">
        <ele>139.81214</ele>
        <time>2023-07-03T07:45:43.647Z</time>
      </trkpt>
      <trkpt lat="50.0315" lon="8.47207">
        <ele>139.787137</ele>
        <time>2023-07-03T07:45:45.639Z</time>
      </trkpt>
      <trkpt lat="50.03161" lon="8.47205">
        <ele>139.763083</ele>
        <time>2023-07-03T07:45:47.638Z</time>
      </trkpt>
      <trkpt lat="50.03172" lon="8.47208">
        <ele>139.74021</ele>
        <time>2023-07-03T07:45:49.656Z</time>
      </trkpt>
      <trkpt lat="50.03182" lon="8.47215">
        <ele>139.717646</ele>
        <time>2023-07-03T07:45:51.662Z</time>
      </trkpt>
      <trkpt lat="50.03191" lon="8.47223">
        <ele>139.696192</ele>
        <time>2023-07-03T07:45:53.652Z</time>
      </trkpt>
      <trkpt lat="50.032" lon="8.4723">
        <ele>139.675225</ele>
        <time>2023-07-03T07:45:55.654Z</time>
      </trkpt>
      <trkpt lat="50.0321" lon="8.47236">
        <ele>139.653342</ele>
        <time>2023-07-03T07:45:57.654Z</time>
      </trkpt>
      <trkpt lat="50.03221" lon="8.47241">
        <ele>139.631079</ele>
        <time>2023-07-03T07:45:59.643Z</time>
      </trkpt>
      <trkpt lat="50.03231" lon="8.47245">
        <ele>139.609511</ele>
        <time>2023-07-03T07:46:01.669Z</time>
      </trkpt>
      <trkpt lat="50.03241" lon="8.47247">
        <ele>139.587075</ele>
        <time>2023-07-03T07:46:03.652Z</time>
      </trkpt>
      <trkpt lat="50.03252" lon="8.47245">
        <ele>139.564622</ele>
        <time>2023-07-03T07:46:05.648Z</time>
      </trkpt>
      <trkpt lat="50.03263" lon="8.47241">
        <ele>139.542755</ele>
        <time>2023-07-03T07:46:07.639Z</time>
      </trkpt>
      <trkpt lat="50.03273" lon="8.47237">
        <ele>139.49935</ele>
        <time>2023-07-03T07:46:09.656Z</time>
      </trkpt>
      <trkpt lat="50.03284" lon="8.47232">
        <ele>139.432809</ele>
        <time>2023-07-03T07:46:11.661Z</time>
      </trkpt>
      <trkpt lat="50.03295" lon="8.47227">
        <ele>139.363624</ele>
        <time>2023-07-03T07:46:13.658Z</time>
      </trkpt>
      <trkpt lat="50.03307" lon="8.47223">
        <ele>139.292818</ele>
        <time>2023-07-03T07:46:15.660Z</time>
      </trkpt>
      <trkpt lat="50.03319" lon="8.47221">
        <ele>139.219666</ele>
        <time>2023-07-03T07:46:17.655Z</time>
      </trkpt>
      <trkpt lat="50.03331" lon="8.47223">
        <ele>139.148688</ele>
        <time>2023-07-03T07:46:19.650Z</time>
      </trkpt>
      <trkpt lat="50.03343" lon="8.47226">
        <ele>139.076673</ele>
        <time>2023-07-03T07:46:21.676Z</time>
      </trkpt>
      <trkpt lat="50.03355" lon="8.4723">
        <ele>139.005239</ele>
        <time>2023-07-03T07:46:23.666Z</time>
      </trkpt>
      <trkpt lat="50.03366" lon="8.47236">
        <ele>138.933401</ele>
        <time>2023-07-03T07:46:25.659Z</time>
      </trkpt>
      <trkpt lat="50.03377" lon="8.47244">
        <ele>138.860352</ele>
        <time>2023-07-03T07:46:27.655Z</time>
      </trkpt>
      <trkpt lat="50.03388" lon="8.47253">
        <ele>138.787011</ele>
        <time>2023-07-03T07:46:29.643Z</time>
      </trkpt>
      <trkpt lat="50.03399" lon="8.47263">
        <ele>138.71153</ele>
        <time>2023-07-03T07:46:31.661Z</time>
      </trkpt>
      <trkpt lat="50.0341" lon="8.47273">
        <ele>138.637123</ele>
        <time>2023-07-03T07:46:33.664Z</time>
      </trkpt>
      <trkpt lat="50.03422" lon="8.47282">
        <ele>138.561159</ele>
        <time>2023-07-03T07:46:35.673Z</time>
      </trkpt>
      <trkpt lat="50.03433" lon="8.47291">
        <ele>138.484505</ele>
        <time>2023-07-03T07:46:37.661Z</time>
      </trkpt>
      <trkpt lat="50.03445" lon="8.47301">
        <ele>138.546023</ele>
        <time>2023-07-03T07:46:39.672Z</time>
      </trkpt>
      <trkpt lat="50.03456" lon="8.47311">
        <ele>138.644858</ele>
        <time>2023-07-03T07:46:41.659Z</time>
      </trkpt>
      <trkpt lat="50.03467" lon="8.4732">
        <ele>138.74249</ele>
        <time>2023-07-03T07:46:43.653Z</time>
      </trkpt>
      <trkpt lat="50.03478" lon="8.47329">
        <ele>138.83876</ele>
        <time>2023-07-03T07:46:45.650Z</time>
      </trkpt>
      <trkpt lat="50.03488" lon="8.4734">
        <ele>138.936724</ele>
        <time>2023-07-03T07:46:47.651Z</time>
      </trkpt>
      <trkpt lat="50.03499" lon="8.4735">
        <ele>139.033275</ele>
        <time>2023-07-03T07:46:49.654Z</time>
      </trkpt>
      <trkpt lat="50.03509" lon="8.47362">
        <ele>139.130191</ele>
        <time>2023-07-03T07:46:51.668Z</time>
      </trkpt>
      <trkpt lat="50.03519" lon="8.47374">
        <ele>139.225542</ele>
        <time>2023-07-03T07:46:53.673Z</time>
      </trkpt>
      <trkpt lat="50.03528" lon="8.47385">
        <ele>139.320592</ele>
        <time>2023-07-03T07:46:55.661Z</time>
      </trkpt>
      <trkpt lat="50.03538" lon="8.47397">
        <ele>139.416245</ele>
        <time>2023-07-03T07:46:57.654Z</time>
      </trkpt>
      <trkpt lat="50.03549" lon="8.47408">
        <ele>139.513347</ele>
        <time>2023-07-03T07:46:59.654Z</time>
      </trkpt>
      <trkpt lat="50.03558" lon="8.47419">
        <ele>139.609</ele>
        <time>2023-07-03T07:47:01.659Z</time>
      </trkpt>
      <trkpt lat="50.03569" lon="8.47431">
        <ele>139.705623</ele>
        <time>2023-07-03T07:47:03.653Z</time>
      </trkpt>
      <trkpt lat="50.03579" lon="8.47442">
        <ele>139.801091</ele>
        <time>2023-07-03T07:47:05.668Z</time>
      </trkpt>
      <trkpt lat="50.03589" lon="8.47453">
        <ele>139.897556</ele>
        <time>2023-07-03T07:47:07.659Z</time>
      </trkpt>
      <trkpt lat="50.03598" lon="8.47465">
        <ele>139.991719</ele>
        <time>2023-07-03T07:47:09.656Z</time>
      </trkpt>
      <trkpt lat="50.03608" lon="8.47475">
        <ele>140.085122</ele>
        <time>2023-07-03T07:47:11.667Z</time>
      </trkpt>
      <trkpt lat="50.03618" lon="8.47487">
        <ele>140.179601</ele>
        <time>2023-07-03T07:47:13.653Z</time>
      </trkpt>
      <trkpt lat="50.03627" lon="8.47497">
        <ele>140.27046</ele>
        <time>2023-07-03T07:47:15.667Z</time>
      </trkpt>
      <trkpt lat="50.03638" lon="8.47509">
        <ele>140.369246</ele>
        <time>2023-07-03T07:47:17.688Z</time>
      </trkpt>
      <trkpt lat="50.03648" lon="8.4752">
        <ele>140.465302</ele>
        <time>2023-07-03T07:47:19.680Z</time>
      </trkpt>
      <trkpt lat="50.03658" lon="8.47532">
        <ele>140.561025</ele>
        <time>2023-07-03T07:47:21.659Z</time>
      </trkpt>
      <trkpt lat="50.03667" lon="8.47544">
        <ele>140.656419</ele>
        <time>2023-07-03T07:47:23.647Z</time>
      </trkpt>
      <trkpt lat="50.03677" lon="8.47555">
        <ele>140.751193</ele>
        <time>2023-07-03T07:47:25.653Z</time>
      </trkpt>
      <trkpt lat="50.03687" lon="8.47566">
        <ele>140.8473</ele>
        <time>2023-07-03T07:47:27.662Z</time>
      </trkpt>
      <trkpt lat="50.03696" lon="8.47578">
        <ele>140.940847</ele>
        <time>2023-07-03T07:47:29.670Z</time>
      </trkpt>
      <trkpt lat="50.03705" lon="8.4759">
        <ele>141.032649</ele>
        <time>2023-07-03T07:47:31.675Z</time>
      </trkpt>
      <trkpt lat="50.03712" lon="8.47604">
        <ele>141.120131</ele>
        <time>2023-07-03T07:47:33.676Z</time>
      </trkpt>
      <trkpt lat="50.03721" lon="8.47616">
        <ele>141.214556</ele>
        <time>2023-07-03T07:47:35.654Z</time>
      </trkpt>
      <trkpt lat="50.0373" lon="8.4763">
        <ele>141.324211</ele>
        <time>2023-07-03T07:47:37.653Z</time>
      </trkpt>
      <trkpt lat="50.03738" lon="8.47644">
        <ele>141.444945</ele>
        <time>2023-07-03T07:47:39.664Z</time>
      </trkpt>
      <trkpt lat="50.03746" lon="8.47659">
        <ele>141.562621</ele>
        <time>2023-07-03T07:47:41.657Z</time>
      </trkpt>
      <trkpt lat="50.03753" lon="8.47673">
        <ele>141.675472</ele>
        <time>2023-07-03T07:47:43.670Z</time>
      </trkpt>
      <trkpt lat="50.03761" lon="8.47686">
        <ele>141.788854</ele>
        <time>2023-07-03T07:47:45.672Z</time>
      </trkpt>
      <trkpt lat="50.03768" lon="8.47699">
        <ele>141.901772</ele>
        <time>2023-07-03T07:47:47.666Z</time>
      </trkpt>
      <trkpt lat="50.03776" lon="8.47713">
        <ele>142.020215</ele>
        <time>2023-07-03T07:47:49.658Z</time>
      </trkpt>
      <trkpt lat="50.03784" lon="8.47727">
        <ele>142.136907</ele>
        <time>2023-07-03T07:47:51.654Z</time>
      </trkpt>
      <trkpt lat="50.0379" lon="8.47741">
        <ele>142.249421</ele>
        <time>2023-07-03T07:47:53.665Z</time>
      </trkpt>
      <trkpt lat="50.03798" lon="8.47755">
        <ele>142.364405</ele>
        <time>2023-07-03T07:47:55.656Z</time>
      </trkpt>
      <trkpt lat="50.03806" lon="8.47768">
        <ele>142.477787</ele>
        <time>2023-07-03T07:47:57.649Z</time>
      </trkpt>
      <trkpt lat="50.03814" lon="8.47781">
        <ele>142.590921</ele>
        <time>2023-07-03T07:47:59.652Z</time>
      </trkpt>
      <trkpt lat="50.03822" lon="8.47794">
        <ele>142.706178</ele>
        <time>2023-07-03T07:48:01.655Z</time>
      </trkpt>
      <trkpt lat="50.0383" lon="8.47806">
        <ele>142.816094</ele>
        <time>2023-07-03T07:48:03.654Z</time>
      </trkpt>
      <trkpt lat="50.03839" lon="8.47817">
        <ele>142.930342</ele>
        <time>2023-07-03T07:48:05.655Z</time>
      </trkpt>
      <trkpt lat="50.03848" lon="8.47828">
        <ele>143.036994</ele>
        <time>2023-07-03T07:48:07.676Z</time>
      </trkpt>
      <trkpt lat="50.03857" lon="8.4784">
        <ele>143.039057</ele>
        <time>2023-07-03T07:48:09.656Z</time>
      </trkpt>
      <trkpt lat="50.03866" lon="8.47851">
        <ele>143.041121</ele>
        <time>2023-07-03T07:48:11.654Z</time>
      </trkpt>
      <trkpt lat="50.03875" lon="8.47863">
        <ele>143.043271</ele>
        <time>2023-07-03T07:48:13.657Z</time>
      </trkpt>
      <trkpt lat="50.03885" lon="8.47873">
        <ele>143.045446</ele>
        <time>2023-07-03T07:48:15.666Z</time>
      </trkpt>
      <trkpt lat="50.03895" lon="8.47885">
        <ele>143.047625</ele>
        <time>2023-07-03T07:48:17.651Z</time>
      </trkpt>
      <trkpt lat="50.03905" lon="8.47896">
        <ele>143.049816</ele>
        <time>2023-07-03T07:48:19.652Z</time>
      </trkpt>
      <trkpt lat="50.03915" lon="8.47907">
        <ele>143.051954</ele>
        <time>2023-07-03T07:48:21.655Z</time>
      </trkpt>
      <trkpt lat="50.03924" lon="8.47918">
        <ele>143.054119</ele>
        <time>2023-07-03T07:48:23.663Z</time>
      </trkpt>
      <trkpt lat="50.03934" lon="8.47929">
        <ele>143.056286</ele>
        <time>2023-07-03T07:48:25.640Z</time>
      </trkpt>
      <trkpt lat="50.03945" lon="8.47939">
        <ele>143.058482</ele>
        <time>2023-07-03T07:48:27.664Z</time>
      </trkpt>
      <trkpt lat="50.03955" lon="8.4795">
        <ele>143.060692</ele>
        <time>2023-07-03T07:48:29.670Z</time>
      </trkpt>
      <trkpt lat="50.03965" lon="8.47961">
        <ele>143.062943</ele>
        <time>2023-07-03T07:48:31.659Z</time>
      </trkpt>
      <trkpt lat="50.03975" lon="8.47972">
        <ele>143.065121</ele>
        <time>2023-07-03T07:48:33.658Z</time>
      </trkpt>
      <trkpt lat="50.03986" lon="8.47982">
        <ele>143.067343</ele>
        <time>2023-07-03T07:48:35.661Z</time>
      </trkpt>
      <trkpt lat="50.03996" lon="8.47993">
        <ele>143.056452</ele>
        <time>2023-07-03T07:48:37.655Z</time>
      </trkpt>
      <trkpt lat="50.04006" lon="8.48006">
        <ele>143.008862</ele>
        <time>2023-07-03T07:48:39.666Z</time>
      </trkpt>
      <trkpt lat="50.04015" lon="8.48018">
        <ele>142.959638</ele>
        <time>2023-07-03T07:48:41.654Z</time>
      </trkpt>
      <trkpt lat="50.04025" lon="8.48032">
        <ele>142.910423</ele>
        <time>2023-07-03T07:48:43.655Z</time>
      </trkpt>
      <trkpt lat="50.04034" lon="8.48045">
        <ele>142.860413</ele>
        <time>2023-07-03T07:48:45.658Z</time>
      </trkpt>
      <trkpt lat="50.04043" lon="8.48059">
        <ele>142.811198</ele>
        <time>2023-07-03T07:48:47.667Z</time>
      </trkpt>
      <trkpt lat="50.04052" lon="8.48072">
        <ele>142.762097</ele>
        <time>2023-07-03T07:48:49.670Z</time>
      </trkpt>
      <trkpt lat="50.04062" lon="8.48086">
        <ele>142.712234</ele>
        <time>2023-07-03T07:48:51.667Z</time>
      </trkpt>
      <trkpt lat="50.0407" lon="8.48101">
        <ele>142.663408</ele>
        <time>2023-07-03T07:48:53.663Z</time>
      </trkpt>
      <trkpt lat="50.04078" lon="8.48115">
        <ele>142.616246</ele>
        <time>2023-07-03T07:48:55.662Z</time>
      </trkpt>
      <trkpt lat="50.04086" lon="8.4813">
        <ele>142.567608</ele>
        <time>2023-07-03T07:48:57.654Z</time>
      </trkpt>
      <trkpt lat="50.04095" lon="8.48144">
        <ele>142.519157</ele>
        <time>2023-07-03T07:48:59.663Z</time>
      </trkpt>
      <trkpt lat="50.04103" lon="8.48158">
        <ele>142.470815</ele>
        <time>2023-07-03T07:49:01.657Z</time>
      </trkpt>
      <trkpt lat="50.04112" lon="8.48174">
        <ele>142.419909</ele>
        <time>2023-07-03T07:49:03.672Z</time>
      </trkpt>
      <trkpt lat="50.0412" lon="8.4819">
        <ele>142.367611</ele>
        <time>2023-07-03T07:49:05.655Z</time>
      </trkpt>
      <trkpt lat="50.04128" lon="8.48205">
        <ele>142.246049</ele>
        <time>2023-07-03T07:49:07.660Z</time>
      </trkpt>
      <trkpt lat="50.04136" lon="8.48222">
        <ele>142.122864</ele>
        <time>2023-07-03T07:49:09.653Z</time>
      </trkpt>
      <trkpt lat="50.04144" lon="8.48239">
        <ele>142.002969</ele>
        <time>2023-07-03T07:49:11.649Z</time>
      </trkpt>
      <trkpt lat="50.04152" lon="8.48255">
        <ele>141.875509</ele>
        <time>2023-07-03T07:49:13.653Z</time>
      </trkpt>
      <trkpt lat="50.04161" lon="8.48272">
        <ele>141.749676</ele>
        <time>2023-07-03T07:49:15.649Z</time>
      </trkpt>
      <trkpt lat="50.04169" lon="8.48288">
        <ele>141.623594</ele>
        <time>2023-07-03T07:49:17.656Z</time>
      </trkpt>
      <trkpt lat="50.04179" lon="8.48304">
        <ele>141.497341</ele>
        <time>2023-07-03T07:49:19.674Z</time>
      </trkpt>
      <trkpt lat="50.04186" lon="8.4832">
        <ele>141.380529</ele>
        <time>2023-07-03T07:49:21.656Z</time>
      </trkpt>
      <trkpt lat="50.04194" lon="8.48334">
        <ele>141.263031</ele>
        <time>2023-07-03T07:49:23.656Z</time>
      </trkpt>
      <trkpt lat="50.04202" lon="8.4835">
        <ele>141.145673</ele>
        <time>2023-07-03T07:49:25.653Z</time>
      </trkpt>
      <trkpt lat="50.0421" lon="8.48366">
        <ele>141.022736</ele>
        <time>2023-07-03T07:49:27.662Z</time>
      </trkpt>
      <trkpt lat="50.04218" lon="8.48382">
        <ele>140.905126</ele>
        <time>2023-07-03T07:49:29.671Z</time>
      </trkpt>
      <trkpt lat="50.04226" lon="8.48398">
        <ele>140.784499</ele>
        <time>2023-07-03T07:49:31.652Z</time>
      </trkpt>
      <trkpt lat="50.04234" lon="8.48414">
        <ele>140.667833</ele>
        <time>2023-07-03T07:49:33.653Z</time>
      </trkpt>
      <trkpt lat="50.04242" lon="8.4843">
        <ele>140.558733</ele>
        <time>2023-07-03T07:49:35.652Z</time>
      </trkpt>
      <trkpt lat="50.0425" lon="8.48446">
        <ele>140.450311</ele>
        <time>2023-07-03T07:49:37.658Z</time>
      </trkpt>
      <trkpt lat="50.04259" lon="8.48461">
        <ele>140.343053</ele>
        <time>2023-07-03T07:49:39.657Z</time>
      </trkpt>
      <trkpt lat="50.04267" lon="8.48477">
        <ele>140.238578</ele>
        <time>2023-07-03T07:49:41.672Z</time>
      </trkpt>
      <trkpt lat="50.04275" lon="8.48492">
        <ele>140.13172</ele>
        <time>2023-07-03T07:49:43.665Z</time>
      </trkpt>
      <trkpt lat="50.04284" lon="8.48507">
        <ele>140.024462</ele>
        <time>2023-07-03T07:49:45.665Z</time>
      </trkpt>
      <trkpt lat="50.04293" lon="8.48523">
        <ele>139.913018</ele>
        <time>2023-07-03T07:49:47.652Z</time>
      </trkpt>
      <trkpt lat="50.04302" lon="8.48538">
        <ele>139.801421</ele>
        <time>2023-07-03T07:49:49.670Z</time>
      </trkpt>
      <trkpt lat="50.04311" lon="8.48554">
        <ele>139.687528</ele>
        <time>2023-07-03T07:49:51.658Z</time>
      </trkpt>
      <trkpt lat="50.0432" lon="8.48569">
        <ele>139.57924</ele>
        <time>2023-07-03T07:49:53.652Z</time>
      </trkpt>
      <trkpt lat="50.04328" lon="8.48585">
        <ele>139.468955</ele>
        <time>2023-07-03T07:49:55.661Z</time>
      </trkpt>
      <trkpt lat="50.04336" lon="8.48601">
        <ele>139.360625</ele>
        <time>2023-07-03T07:49:57.664Z</time>
      </trkpt>
      <trkpt lat="50.04344" lon="8.48617">
        <ele>139.250648</ele>
        <time>2023-07-03T07:49:59.664Z</time>
      </trkpt>
      <trkpt lat="50.04353" lon="8.48633">
        <ele>139.203666</ele>
        <time>2023-07-03T07:50:01.650Z</time>
      </trkpt>
      <trkpt lat="50.04361" lon="8.48649">
        <ele>139.187866</ele>
        <time>2023-07-03T07:50:03.675Z</time>
      </trkpt>
      <trkpt lat="50.04369" lon="8.48665">
        <ele>139.172559</ele>
        <time>2023-07-03T07:50:05.653Z</time>
      </trkpt>
      <trkpt lat="50.04377" lon="8.48679">
        <ele>139.158006</ele>
        <time>2023-07-03T07:50:07.654Z</time>
      </trkpt>
      <trkpt lat="50.04386" lon="8.48693">
        <ele>139.14266</ele>
        <time>2023-07-03T07:50:09.672Z</time>
      </trkpt>
      <trkpt lat="50.04395" lon="8.48708">
        <ele>139.127495</ele>
        <time>2023-07-03T07:50:11.649Z</time>
      </trkpt>
      <trkpt lat="50.04403" lon="8.48723">
        <ele>139.112931</ele>
        <time>2023-07-03T07:50:13.654Z</time>
      </trkpt>
      <trkpt lat="50.0441" lon="8.48739">
        <ele>139.09801</ele>
        <time>2023-07-03T07:50:15.651Z</time>
      </trkpt>
      <trkpt lat="50.04417" lon="8.48754">
        <ele>139.083082</ele>
        <time>2023-07-03T07:50:17.640Z</time>
      </trkpt>
      <trkpt lat="50.04424" lon="8.4877">
        <ele>139.068615</ele>
        <time>2023-07-03T07:50:19.656Z</time>
      </trkpt>
      <trkpt lat="50.04432" lon="8.48786">
        <ele>139.053793</ele>
        <time>2023-07-03T07:50:21.653Z</time>
      </trkpt>
      <trkpt lat="50.04439" lon="8.48802">
        <ele>139.038734</ele>
        <time>2023-07-03T07:50:23.669Z</time>
      </trkpt>
      <trkpt lat="50.04447" lon="8.48817">
        <ele>139.0235</ele>
        <time>2023-07-03T07:50:25.709Z</time>
      </trkpt>
      <trkpt lat="50.04454" lon="8.48833">
        <ele>139.008448</ele>
        <time>2023-07-03T07:50:27.712Z</time>
      </trkpt>
      <trkpt lat="50.04462" lon="8.4885">
        <ele>138.967923</ele>
        <time>2023-07-03T07:50:29.673Z</time>
      </trkpt>
      <trkpt lat="50.0447" lon="8.48866">
        <ele>138.90106</ele>
        <time>2023-07-03T07:50:31.684Z</time>
      </trkpt>
      <trkpt lat="50.04478" lon="8.48881">
        <ele>138.835794</ele>
        <time>2023-07-03T07:50:33.653Z</time>
      </trkpt>
      <trkpt lat="50.04485" lon="8.48898">
        <ele>138.770422</ele>
        <time>2023-07-03T07:50:35.663Z</time>
      </trkpt>
      <trkpt lat="50.04492" lon="8.48914">
        <ele>138.705082</ele>
        <time>2023-07-03T07:50:37.667Z</time>
      </trkpt>
      <trkpt lat="50.04499" lon="8.48931">
        <ele>138.640013</ele>
        <time>2023-07-03T07:50:39.651Z</time>
      </trkpt>
      <trkpt lat="50.04506" lon="8.48947">
        <ele>138.575769</ele>
        <time>2023-07-03T07:50:41.657Z</time>
      </trkpt>
      <trkpt lat="50.04512" lon="8.48964">
        <ele>138.513114</ele>
        <time>2023-07-03T07:50:43.661Z</time>
      </trkpt>
      <trkpt lat="50.04518" lon="8.48981">
        <ele>138.449088</ele>
        <time>2023-07-03T07:50:45.667Z</time>
      </trkpt>
      <trkpt lat="50.04522" lon="8.48998">
        <ele>138.386492</ele>
        <time>2023-07-03T07:50:47.651Z</time>
      </trkpt>
      <trkpt lat="50.04527" lon="8.49015">
        <ele>138.325734</ele>
        <time>2023-07-03T07:50:49.658Z</time>
      </trkpt>
      <trkpt lat="50.04532" lon="8.49032">
        <ele>138.263348</ele>
        <time>2023-07-03T07:50:51.661Z</time>
      </trkpt>
      <trkpt lat="50.04537" lon="8.49049">
        <ele>138.204029</ele>
        <time>2023-07-03T07:50:53.664Z</time>
      </trkpt>
      <trkpt lat="50.04542" lon="8.49065">
        <ele>138.143</ele>
        <time>2023-07-03T07:50:55.658Z</time>
      </trkpt>
      <trkpt lat="50.04547" lon="8.49082">
        <ele>138.081729</ele>
        <time>2023-07-03T07:50:57.668Z</time>
      </trkpt>
      <trkpt lat="50.04552" lon="8.49099">
        <ele>138.112853</ele>
        <time>2023-07-03T07:50:59.671Z</time>
      </trkpt>
      <trkpt lat="50.04557" lon="8.49116">
        <ele>138.155337</ele>
        <time>2023-07-03T07:51:01.650Z</time>
      </trkpt>
      <trkpt lat="50.04562" lon="8.49132">
        <ele>138.198888</ele>
        <time>2023-07-03T07:51:03.659Z</time>
      </trkpt>
      <trkpt lat="50.04567" lon="8.49149">
        <ele>138.241523</ele>
        <time>2023-07-03T07:51:05.660Z</time>
      </trkpt>
      <trkpt lat="50.04573" lon="8.49166">
        <ele>138.285736</ele>
        <time>2023-07-03T07:51:07.674Z</time>
      </trkpt>
      <trkpt lat="50.04578" lon="8.49183">
        <ele>138.328928</ele>
        <time>2023-07-03T07:51:09.650Z</time>
      </trkpt>
      <trkpt lat="50.04582" lon="8.492">
        <ele>138.373335</ele>
        <time>2023-07-03T07:51:11.647Z</time>
      </trkpt>
      <trkpt lat="50.04588" lon="8.49217">
        <ele>138.416646</ele>
        <time>2023-07-03T07:51:13.661Z</time>
      </trkpt>
      <trkpt lat="50.04593" lon="8.49233">
        <ele>138.459699</ele>
        <time>2023-07-03T07:51:15.671Z</time>
      </trkpt>
      <trkpt lat="50.04598" lon="8.4925">
        <ele>138.503463</ele>
        <time>2023-07-03T07:51:17.674Z</time>
      </trkpt>
      <trkpt lat="50.04603" lon="8.49267">
        <ele>138.546673</ele>
        <time>2023-07-03T07:51:19.650Z</time>
      </trkpt>
      <trkpt lat="50.04608" lon="8.49284">
        <ele>138.589883</ele>
        <time>2023-07-03T07:51:21.657Z</time>
      </trkpt>
      <trkpt lat="50.04612" lon="8.49301">
        <ele>138.632793</ele>
        <time>2023-07-03T07:51:23.663Z</time>
      </trkpt>
      <trkpt lat="50.04617" lon="8.49318">
        <ele>138.676272</ele>
        <time>2023-07-03T07:51:25.650Z</time>
      </trkpt>
      <trkpt lat="50.04623" lon="8.49335">
        <ele>138.721814</ele>
        <time>2023-07-03T07:51:27.664Z</time>
      </trkpt>
      <trkpt lat="50.04628" lon="8.49353">
        <ele>138.752415</ele>
        <time>2023-07-03T07:51:29.653Z</time>
      </trkpt>
      <trkpt lat="50.04633" lon="8.4937">
        <ele>138.779776</ele>
        <time>2023-07-03T07:51:31.649Z</time>
      </trkpt>
      <trkpt lat="50.04638" lon="8.49388">
        <ele>138.808675</ele>
        <time>2023-07-03T07:51:33.658Z</time>
      </trkpt>
      <trkpt lat="50.04643" lon="8.49405">
        <ele>138.836491</ele>
        <time>2023-07-03T07:51:35.656Z</time>
      </trkpt>
      <trkpt lat="50.04649" lon="8.49422">
        <ele>138.864105</ele>
        <time>2023-07-03T07:51:37.647Z</time>
      </trkpt>
      <trkpt lat="50.04654" lon="8.4944">
        <ele>138.892628</ele>
        <time>2023-07-03T07:51:39.659Z</time>
      </trkpt>
      <trkpt lat="50.04659" lon="8.49457">
        <ele>138.919818</ele>
        <time>2023-07-03T07:51:41.650Z</time>
      </trkpt>
      <trkpt lat="50.04664" lon="8.49474">
        <ele>138.947767</ele>
        <time>2023-07-03T07:51:43.640Z</time>
      </trkpt>
      <trkpt lat="50.04668" lon="8.49492">
        <ele>138.975263</ele>
        <time>2023-07-03T07:51:45.649Z</time>
      </trkpt>
      <trkpt lat="50.04673" lon="8.49509">
        <ele>139.002577</ele>
        <time>2023-07-03T07:51:47.652Z</time>
      </trkpt>
      <trkpt lat="50.04678" lon="8.49526">
        <ele>139.030718</ele>
        <time>2023-07-03T07:51:49.637Z</time>
      </trkpt>
      <trkpt lat="50.04683" lon="8.49544">
        <ele>139.058666</ele>
        <time>2023-07-03T07:51:51.658Z</time>
      </trkpt>
      <trkpt lat="50.04689" lon="8.49562">
        <ele>139.087565</ele>
        <time>2023-07-03T07:51:53.679Z</time>
      </trkpt>
      <trkpt lat="50.04694" lon="8.4958">
        <ele>139.116693</ele>
        <time>2023-07-03T07:51:55.655Z</time>
      </trkpt>
      <trkpt lat="50.047" lon="8.49597">
        <ele>139.146664</ele>
        <time>2023-07-03T07:51:57.659Z</time>
      </trkpt>
      <trkpt lat="50.04706" lon="8.49615">
        <ele>139.180262</ele>
        <time>2023-07-03T07:51:59.648Z</time>
      </trkpt>
      <trkpt lat="50.04712" lon="8.49632">
        <ele>139.213796</ele>
        <time>2023-07-03T07:52:01.661Z</time>
      </trkpt>
      <trkpt lat="50.04718" lon="8.49649">
        <ele>139.247491</ele>
        <time>2023-07-03T07:52:03.633Z</time>
      </trkpt>
      <trkpt lat="50.04724" lon="8.49665">
        <ele>139.279603</ele>
        <time>2023-07-03T07:52:05.649Z</time>
      </trkpt>
      <trkpt lat="50.0473" lon="8.49682">
        <ele>139.312615</ele>
        <time>2023-07-03T07:52:07.651Z</time>
      </trkpt>
      <trkpt lat="50.04737" lon="8.49699">
        <ele>139.346027</ele>
        <time>2023-07-03T07:52:09.648Z</time>
      </trkpt>
      <trkpt lat="50.04743" lon="8.49715">
        <ele>139.379423</ele>
        <time>2023-07-03T07:52:11.654Z</time>
      </trkpt>
      <trkpt lat="50.0475" lon="8.49731">
        <ele>139.412539</ele>
        <time>2023-07-03T07:52:13.652Z</time>
      </trkpt>
      <trkpt lat="50.04757" lon="8.49748">
        <ele>139.445787</ele>
        <time>2023-07-03T07:52:15.664Z</time>
      </trkpt>
      <trkpt lat="50.04764" lon="8.49763">
        <ele>139.478179</ele>
        <time>2023-07-03T07:52:17.652Z</time>
      </trkpt>
      <trkpt lat="50.04771" lon="8.49779">
        <ele>139.51058</ele>
        <time>2023-07-03T07:52:19.652Z</time>
      </trkpt>
      <trkpt lat="50.04778" lon="8.49794">
        <ele>139.543321</ele>
        <time>2023-07-03T07:52:21.656Z</time>
      </trkpt>
      <trkpt lat="50.04786" lon="8.4981">
        <ele>139.576245</ele>
        <time>2023-07-03T07:52:23.666Z</time>
      </trkpt>
      <trkpt lat="50.04794" lon="8.49825">
        <ele>139.609693</ele>
        <time>2023-07-03T07:52:25.653Z</time>
      </trkpt>
      <trkpt lat="50.04802" lon="8.49838">
        <ele>139.591358</ele>
        <time>2023-07-03T07:52:27.665Z</time>
      </trkpt>
      <trkpt lat="50.04812" lon="8.4985">
        <ele>139.559323</ele>
        <time>2023-07-03T07:52:29.641Z</time>
      </trkpt>
      <trkpt lat="50.04818" lon="8.49866">
        <ele>139.527923</ele>
        <time>2023-07-03T07:52:31.637Z</time>
      </trkpt>
      <trkpt lat="50.04823" lon="8.49885">
        <ele>139.495147</ele>
        <time>2023-07-03T07:52:33.644Z</time>
      </trkpt>
      <trkpt lat="50.04829" lon="8.49903">
        <ele>139.46148</ele>
        <time>2023-07-03T07:52:35.664Z</time>
      </trkpt>
      <trkpt lat="50.04836" lon="8.49919">
        <ele>139.428109</ele>
        <time>2023-07-03T07:52:37.653Z</time>
      </trkpt>
      <trkpt lat="50.04844" lon="8.49936">
        <ele>139.393589</ele>
        <time>2023-07-03T07:52:39.638Z</time>
      </trkpt>
      <trkpt lat="50.04851" lon="8.49952">
        <ele>139.359724</ele>
        <time>2023-07-03T07:52:41.661Z</time>
      </trkpt>
      <trkpt lat="50.04859" lon="8.49968">
        <ele>139.327369</ele>
        <time>2023-07-03T07:52:43.651Z</time>
      </trkpt>
      <trkpt lat="50.04866" lon="8.49984">
        <ele>139.294368</ele>
        <time>2023-07-03T07:52:45.655Z</time>
      </trkpt>
      <trkpt lat="50.04873" lon="8.5">
        <ele>139.262528</ele>
        <time>2023-07-03T07:52:47.628Z</time>
      </trkpt>
      <trkpt lat="50.0488" lon="8.50016">
        <ele>139.230272</ele>
        <time>2023-07-03T07:52:49.667Z</time>
      </trkpt>
      <trkpt lat="50.04886" lon="8.50033">
        <ele>139.19764</ele>
        <time>2023-07-03T07:52:51.655Z</time>
      </trkpt>
      <trkpt lat="50.04891" lon="8.50051">
        <ele>139.165929</ele>
        <time>2023-07-03T07:52:53.661Z</time>
      </trkpt>
      <trkpt lat="50.04896" lon="8.50069">
        <ele>139.140376</ele>
        <time>2023-07-03T07:52:55.658Z</time>
      </trkpt>
      <trkpt lat="50.04901" lon="8.50087">
        <ele>139.121853</ele>
        <time>2023-07-03T07:52:57.652Z</time>
      </trkpt>
      <trkpt lat="50.04906" lon="8.50105">
        <ele>139.102974</ele>
        <time>2023-07-03T07:52:59.646Z</time>
      </trkpt>
      <trkpt lat="50.04911" lon="8.50123">
        <ele>139.084475</ele>
        <time>2023-07-03T07:53:01.653Z</time>
      </trkpt>
      <trkpt lat="50.04916" lon="8.5014">
        <ele>139.066444</ele>
        <time>2023-07-03T07:53:03.658Z</time>
      </trkpt>
      <trkpt lat="50.04921" lon="8.50158">
        <ele>139.047781</ele>
        <time>2023-07-03T07:53:05.634Z</time>
      </trkpt>
      <trkpt lat="50.04926" lon="8.50176">
        <ele>139.029539</ele>
        <time>2023-07-03T07:53:07.637Z</time>
      </trkpt>
      <trkpt lat="50.04931" lon="8.50194">
        <ele>139.010552</ele>
        <time>2023-07-03T07:53:09.658Z</time>
      </trkpt>
      <trkpt lat="50.04937" lon="8.50212">
        <ele>138.992247</ele>
        <time>2023-07-03T07:53:11.649Z</time>
      </trkpt>
      <trkpt lat="50.04942" lon="8.50229">
        <ele>138.973425</ele>
        <time>2023-07-03T07:53:13.658Z</time>
      </trkpt>
      <trkpt lat="50.04948" lon="8.50247">
        <ele>138.954264</ele>
        <time>2023-07-03T07:53:15.647Z</time>
      </trkpt>
      <trkpt lat="50.04954" lon="8.50265">
        <ele>138.935554</ele>
        <time>2023-07-03T07:53:17.653Z</time>
      </trkpt>
      <trkpt lat="50.04959" lon="8.50284">
        <ele>138.916335</ele>
        <time>2023-07-03T07:53:19.663Z</time>
      </trkpt>
      <trkpt lat="50.04962" lon="8.50304">
        <ele>138.896792</ele>
        <time>2023-07-03T07:53:21.646Z</time>
      </trkpt>
      <trkpt lat="50.04964" lon="8.50325">
        <ele>138.926968</ele>
        <time>2023-07-03T07:53:23.663Z</time>
      </trkpt>
      <trkpt lat="50.04968" lon="8.50343">
        <ele>139.026973</ele>
        <time>2023-07-03T07:53:25.669Z</time>
      </trkpt>
      <trkpt lat="50.04972" lon="8.50361">
        <ele>139.126717</ele>
        <time>2023-07-03T07:53:27.679Z</time>
      </trkpt>
      <trkpt lat="50.04977" lon="8.50378">
        <ele>139.220887</ele>
        <time>2023-07-03T07:53:29.672Z</time>
      </trkpt>
      <trkpt lat="50.04982" lon="8.50395">
        <ele>139.316212</ele>
        <time>2023-07-03T07:53:31.655Z</time>
      </trkpt>
      <trkpt lat="50.04986" lon="8.50412">
        <ele>139.412439</ele>
        <time>2023-07-03T07:53:33.670Z</time>
      </trkpt>
      <trkpt lat="50.04986" lon="8.50429">
        <ele>139.498969</ele>
        <time>2023-07-03T07:53:35.663Z</time>
      </trkpt>
      <trkpt lat="50.04982" lon="8.50442">
        <ele>139.577632</ele>
        <time>2023-07-03T07:53:37.653Z</time>
      </trkpt>
      <trkpt lat="50.04974" lon="8.50457">
        <ele>139.678235</ele>
        <time>2023-07-03T07:53:40.676Z</time>
      </trkpt>
      <trkpt lat="50.04968" lon="8.5047">
        <ele>139.758492</ele>
        <time>2023-07-03T07:53:43.673Z</time>
      </trkpt>
      <trkpt lat="50.04967" lon="8.50486">
        <ele>139.840784</ele>
        <time>2023-07-03T07:53:47.645Z</time>
      </trkpt>
      <trkpt lat="50.0497" lon="8.505">
        <ele>139.9211</ele>
        <time>2023-07-03T07:53:50.667Z</time>
      </trkpt>
      <trkpt lat="50.04974" lon="8.50516">
        <ele>140.005125</ele>
        <time>2023-07-03T07:53:53.652Z</time>
      </trkpt>
      <trkpt lat="50.04979" lon="8.50531">
        <ele>140.092402</ele>
        <time>2023-07-03T07:53:56.669Z</time>
      </trkpt>
      <trkpt lat="50.04985" lon="8.50544">
        <ele>140.179998</ele>
        <time>2023-07-03T07:53:59.641Z</time>
      </trkpt>
      <trkpt lat="50.04993" lon="8.50557">
        <ele>140.272444</ele>
        <time>2023-07-03T07:54:02.645Z</time>
      </trkpt>
      <trkpt lat="50.05002" lon="8.50573">
        <ele>140.304628</ele>
        <time>2023-07-03T07:54:05.656Z</time>
      </trkpt>
      <trkpt lat="50.05008" lon="8.50589">
        <ele>140.243176</ele>
        <time>2023-07-03T07:54:08.630Z</time>
      </trkpt>
      <trkpt lat="50.05014" lon="8.50605">
        <ele>140.18173</ele>
        <time>2023-07-03T07:54:11.653Z</time>
      </trkpt>
      <trkpt lat="50.05022" lon="8.5062">
        <ele>140.115563</ele>
        <time>2023-07-03T07:54:14.644Z</time>
      </trkpt>
      <trkpt lat="50.05031" lon="8.50636">
        <ele>140.047041</ele>
        <time>2023-07-03T07:54:17.653Z</time>
      </trkpt>
      <trkpt lat="50.05037" lon="8.50647">
        <ele>140.000189</ele>
        <time>2023-07-03T07:54:19.652Z</time>
      </trkpt>
      <trkpt lat="50.05043" lon="8.50657">
        <ele>139.953426</ele>
        <time>2023-07-03T07:54:21.645Z</time>
      </trkpt>
      <trkpt lat="50.0505" lon="8.50667">
        <ele>139.903616</ele>
        <time>2023-07-03T07:54:23.647Z</time>
      </trkpt>
      <trkpt lat="50.05059" lon="8.50677">
        <ele>139.850023</ele>
        <time>2023-07-03T07:54:25.635Z</time>
      </trkpt>
      <trkpt lat="50.05067" lon="8.50688">
        <ele>139.793121</ele>
        <time>2023-07-03T07:54:27.658Z</time>
      </trkpt>
      <trkpt lat="50.05074" lon="8.50703">
        <ele>139.731719</ele>
        <time>2023-07-03T07:54:29.642Z</time>
      </trkpt>
      <trkpt lat="50.05081" lon="8.50718">
        <ele>139.67191</ele>
        <time>2023-07-03T07:54:31.635Z</time>
      </trkpt>
      <trkpt lat="50.05089" lon="8.50732">
        <ele>139.610916</ele>
        <time>2023-07-03T07:54:33.658Z</time>
      </trkpt>
      <trkpt lat="50.05098" lon="8.50743">
        <ele>139.551011</ele>
        <time>2023-07-03T07:54:35.646Z</time>
      </trkpt>
      <trkpt lat="50.05107" lon="8.50753">
        <ele>139.491211</ele>
        <time>2023-07-03T07:54:37.675Z</time>
      </trkpt>
      <trkpt lat="50.0512" lon="8.50753">
        <ele>139.4238</ele>
        <time>2023-07-03T07:54:39.658Z</time>
      </trkpt>
      <trkpt lat="50.05134" lon="8.50751">
        <ele>139.421362</ele>
        <time>2023-07-03T07:54:41.654Z</time>
      </trkpt>
      <trkpt lat="50.05147" lon="8.50757">
        <ele>139.437285</ele>
        <time>2023-07-03T07:54:43.658Z</time>
      </trkpt>
      <trkpt lat="50.05159" lon="8.50769">
        <ele>139.454153</ele>
        <time>2023-07-03T07:54:45.633Z</time>
      </trkpt>
      <trkpt lat="50.0517" lon="8.50783">
        <ele>139.47082</ele>
        <time>2023-07-03T07:54:47.651Z</time>
      </trkpt>
      <trkpt lat="50.05181" lon="8.50797">
        <ele>139.487477</ele>
        <time>2023-07-03T07:54:49.652Z</time>
      </trkpt>
      <trkpt lat="50.05192" lon="8.50811">
        <ele>139.50386</ele>
        <time>2023-07-03T07:54:51.652Z</time>
      </trkpt>
      <trkpt lat="50.05203" lon="8.50823">
        <ele>139.5201</ele>
        <time>2023-07-03T07:54:53.659Z</time>
      </trkpt>
      <trkpt lat="50.05213" lon="8.50837">
        <ele>139.536339</ele>
        <time>2023-07-03T07:54:55.651Z</time>
      </trkpt>
      <trkpt lat="50.05224" lon="8.5085">
        <ele>139.552156</ele>
        <time>2023-07-03T07:54:57.653Z</time>
      </trkpt>
      <trkpt lat="50.05234" lon="8.50862">
        <ele>139.56765</ele>
        <time>2023-07-03T07:54:59.653Z</time>
      </trkpt>
      <trkpt lat="50.05245" lon="8.50873">
        <ele>139.583211</ele>
        <time>2023-07-03T07:55:01.654Z</time>
      </trkpt>
      <trkpt lat="50.05256" lon="8.50884">
        <ele>139.598234</ele>
        <time>2023-07-03T07:55:03.663Z</time>
      </trkpt>
      <trkpt lat="50.05267" lon="8.50896">
        <ele>139.613688</ele>
        <time>2023-07-03T07:55:05.674Z</time>
      </trkpt>
      <trkpt lat="50.05277" lon="8.50908">
        <ele>139.571637</ele>
        <time>2023-07-03T07:55:07.673Z</time>
      </trkpt>
      <trkpt lat="50.05287" lon="8.5092">
        <ele>139.479621</ele>
        <time>2023-07-03T07:55:09.657Z</time>
      </trkpt>
      <trkpt lat="50.05297" lon="8.50931">
        <ele>139.388836</ele>
        <time>2023-07-03T07:55:11.673Z</time>
      </trkpt>
      <trkpt lat="50.05308" lon="8.50942">
        <ele>139.2999</ele>
        <time>2023-07-03T07:55:13.652Z</time>
      </trkpt>
      <trkpt lat="50.05318" lon="8.50953">
        <ele>139.212404</ele>
        <time>2023-07-03T07:55:15.667Z</time>
      </trkpt>
      <trkpt lat="50.05328" lon="8.50963">
        <ele>139.123937</ele>
        <time>2023-07-03T07:55:17.683Z</time>
      </trkpt>
      <trkpt lat="50.05338" lon="8.50974">
        <ele>139.038499</ele>
        <time>2023-07-03T07:55:19.654Z</time>
      </trkpt>
      <trkpt lat="50.05349" lon="8.50984">
        <ele>138.949051</ele>
        <time>2023-07-03T07:55:21.653Z</time>
      </trkpt>
      <trkpt lat="50.05359" lon="8.50994">
        <ele>138.859245</ele>
        <time>2023-07-03T07:55:23.657Z</time>
      </trkpt>
      <trkpt lat="50.05371" lon="8.51004">
        <ele>138.765498</ele>
        <time>2023-07-03T07:55:25.652Z</time>
      </trkpt>
      <trkpt lat="50.05383" lon="8.51013">
        <ele>138.670485</ele>
        <time>2023-07-03T07:55:27.651Z</time>
      </trkpt>
      <trkpt lat="50.05394" lon="8.51023">
        <ele>138.578652</ele>
        <time>2023-07-03T07:55:29.659Z</time>
      </trkpt>
      <trkpt lat="50.05404" lon="8.51033">
        <ele>138.490407</ele>
        <time>2023-07-03T07:55:31.657Z</time>
      </trkpt>
      <trkpt lat="50.05414" lon="8.51044">
        <ele>138.404665</ele>
        <time>2023-07-03T07:55:33.645Z</time>
      </trkpt>
      <trkpt lat="50.05424" lon="8.51055">
        <ele>138.336906</ele>
        <time>2023-07-03T07:55:35.642Z</time>
      </trkpt>
      <trkpt lat="50.05433" lon="8.51065">
        <ele>138.371902</ele>
        <time>2023-07-03T07:55:37.676Z</time>
      </trkpt>
      <trkpt lat="50.05443" lon="8.51075">
        <ele>138.407867</ele>
        <time>2023-07-03T07:55:39.656Z</time>
      </trkpt>
      <trkpt lat="50.05453" lon="8.51084">
        <ele>138.443407</ele>
        <time>2023-07-03T07:55:41.648Z</time>
      </trkpt>
      <trkpt lat="50.05462" lon="8.51094">
        <ele>138.47724</ele>
        <time>2023-07-03T07:55:43.671Z</time>
      </trkpt>
      <trkpt lat="50.05468" lon="8.51109">
        <ele>138.510512</ele>
        <time>2023-07-03T07:55:45.644Z</time>
      </trkpt>
      <trkpt lat="50.0547" lon="8.51124">
        <ele>138.540728</ele>
        <time>2023-07-03T07:55:47.643Z</time>
      </trkpt>
      <trkpt lat="50.05477" lon="8.51135">
        <ele>138.56952</ele>
        <time>2023-07-03T07:55:49.652Z</time>
      </trkpt>
      <trkpt lat="50.05489" lon="8.51144">
        <ele>138.609926</ele>
        <time>2023-07-03T07:55:52.679Z</time>
      </trkpt>
      <trkpt lat="50.05497" lon="8.51153">
        <ele>138.642121</ele>
        <time>2023-07-03T07:55:54.656Z</time>
      </trkpt>
      <trkpt lat="50.05506" lon="8.51163">
        <ele>138.675312</ele>
        <time>2023-07-03T07:55:56.641Z</time>
      </trkpt>
      <trkpt lat="50.05514" lon="8.51175">
        <ele>138.707882</ele>
        <time>2023-07-03T07:55:58.654Z</time>
      </trkpt>
      <trkpt lat="50.05521" lon="8.51188">
        <ele>138.741192</ele>
        <time>2023-07-03T07:56:00.659Z</time>
      </trkpt>
      <trkpt lat="50.05529" lon="8.512">
        <ele>138.776467</ele>
        <time>2023-07-03T07:56:02.661Z</time>
      </trkpt>
      <trkpt lat="50.05537" lon="8.51213">
        <ele>138.810811</ele>
        <time>2023-07-03T07:56:04.657Z</time>
      </trkpt>
      <trkpt lat="50.05545" lon="8.51225">
        <ele>138.845275</ele>
        <time>2023-07-03T07:56:06.652Z</time>
      </trkpt>
      <trkpt lat="50.05553" lon="8.51239">
        <ele>138.896978</ele>
        <time>2023-07-03T07:56:08.666Z</time>
      </trkpt>
      <trkpt lat="50.05561" lon="8.51251">
        <ele>139.209483</ele>
        <time>2023-07-03T07:56:10.667Z</time>
      </trkpt>
      <trkpt lat="50.05569" lon="8.51265">
        <ele>139.541263</ele>
        <time>2023-07-03T07:56:12.651Z</time>
      </trkpt>
      <trkpt lat="50.05578" lon="8.51277">
        <ele>139.867764</ele>
        <time>2023-07-03T07:56:14.660Z</time>
      </trkpt>
      <trkpt lat="50.05587" lon="8.51289">
        <ele>140.193364</ele>
        <time>2023-07-03T07:56:16.642Z</time>
      </trkpt>
      <trkpt lat="50.05596" lon="8.51303">
        <ele>140.536244</ele>
        <time>2023-07-03T07:56:18.655Z</time>
      </trkpt>
      <trkpt lat="50.05603" lon="8.51317">
        <ele>140.871143</ele>
        <time>2023-07-03T07:56:20.656Z</time>
      </trkpt>
      <trkpt lat="50.0561" lon="8.51334">
        <ele>141.223586</ele>
        <time>2023-07-03T07:56:22.654Z</time>
      </trkpt>
      <trkpt lat="50.05616" lon="8.51348">
        <ele>141.516275</ele>
        <time>2023-07-03T07:56:24.648Z</time>
      </trkpt>
      <trkpt lat="50.05622" lon="8.51364">
        <ele>141.849251</ele>
        <time>2023-07-03T07:56:27.660Z</time>
      </trkpt>
      <trkpt lat="50.05628" lon="8.51378">
        <ele>142.148122</ele>
        <time>2023-07-03T07:56:30.668Z</time>
      </trkpt>
      <trkpt lat="50.05636" lon="8.51391">
        <ele>142.450088</ele>
        <time>2023-07-03T07:56:33.651Z</time>
      </trkpt>
      <trkpt lat="50.05641" lon="8.51406">
        <ele>142.749985</ele>
        <time>2023-07-03T07:56:36.644Z</time>
      </trkpt>
      <trkpt lat="50.05645" lon="8.5142">
        <ele>143.035008</ele>
        <time>2023-07-03T07:56:39.649Z</time>
      </trkpt>
      <trkpt lat="50.05652" lon="8.51433">
        <ele>143.326175</ele>
        <time>2023-07-03T07:56:42.633Z</time>
      </trkpt>
      <trkpt lat="50.05659" lon="8.51446">
        <ele>143.63762</ele>
        <time>2023-07-03T07:56:45.652Z</time>
      </trkpt>
      <trkpt lat="50.05668" lon="8.51459">
        <ele>143.832068</ele>
        <time>2023-07-03T07:56:48.666Z</time>
      </trkpt>
      <trkpt lat="50.05676" lon="8.51474">
        <ele>143.779197</ele>
        <time>2023-07-03T07:56:51.666Z</time>
      </trkpt>
      <trkpt lat="50.05683" lon="8.51484">
        <ele>143.741241</ele>
        <time>2023-07-03T07:56:53.653Z</time>
      </trkpt>
      <trkpt lat="50.0569" lon="8.51495">
        <ele>143.697419</ele>
        <time>2023-07-03T07:56:55.666Z</time>
      </trkpt>
      <trkpt lat="50.05697" lon="8.51507">
        <ele>143.653837</ele>
        <time>2023-07-03T07:56:57.650Z</time>
      </trkpt>
      <trkpt lat="50.05704" lon="8.51519">
        <ele>143.609214</ele>
        <time>2023-07-03T07:56:59.674Z</time>
      </trkpt>
      <trkpt lat="50.05711" lon="8.51531">
        <ele>143.56693</ele>
        <time>2023-07-03T07:57:01.657Z</time>
      </trkpt>
      <trkpt lat="50.05719" lon="8.51543">
        <ele>143.522319</ele>
        <time>2023-07-03T07:57:03.643Z</time>
      </trkpt>
      <trkpt lat="50.05726" lon="8.51555">
        <ele>143.477497</ele>
        <time>2023-07-03T07:57:05.684Z</time>
      </trkpt>
      <trkpt lat="50.05733" lon="8.51567">
        <ele>143.432785</ele>
        <time>2023-07-03T07:57:07.641Z</time>
      </trkpt>
      <trkpt lat="50.0574" lon="8.5158">
        <ele>143.386403</ele>
        <time>2023-07-03T07:57:09.663Z</time>
      </trkpt>
      <trkpt lat="50.05748" lon="8.51593">
        <ele>143.339076</ele>
        <time>2023-07-03T07:57:11.669Z</time>
      </trkpt>
      <trkpt lat="50.05756" lon="8.51605">
        <ele>143.291264</ele>
        <time>2023-07-03T07:57:13.656Z</time>
      </trkpt>
      <trkpt lat="50.05764" lon="8.51618">
        <ele>143.243258</ele>
        <time>2023-07-03T07:57:15.643Z</time>
      </trkpt>
      <trkpt lat="50.05772" lon="8.51631">
        <ele>143.196512</ele>
        <time>2023-07-03T07:57:17.656Z</time>
      </trkpt>
      <trkpt lat="50.0578" lon="8.51642">
        <ele>143.148796</ele>
        <time>2023-07-03T07:57:19.657Z</time>
      </trkpt>
      <trkpt lat="50.05789" lon="8.51654">
        <ele>143.099563</ele>
        <time>2023-07-03T07:57:21.658Z</time>
      </trkpt>
      <trkpt lat="50.05798" lon="8.51667">
        <ele>142.901326</ele>
        <time>2023-07-03T07:57:23.656Z</time>
      </trkpt>
      <trkpt lat="50.05807" lon="8.51679">
        <ele>142.694893</ele>
        <time>2023-07-03T07:57:25.648Z</time>
      </trkpt>
      <trkpt lat="50.05816" lon="8.51691">
        <ele>142.479994</ele>
        <time>2023-07-03T07:57:27.657Z</time>
      </trkpt>
      <trkpt lat="50.05825" lon="8.51703">
        <ele>142.273562</ele>
        <time>2023-07-03T07:57:29.653Z</time>
      </trkpt>
      <trkpt lat="50.05834" lon="8.51716">
        <ele>142.057577</ele>
        <time>2023-07-03T07:57:31.652Z</time>
      </trkpt>
      <trkpt lat="50.05843" lon="8.51731">
        <ele>141.825166</ele>
        <time>2023-07-03T07:57:33.655Z</time>
      </trkpt>
      <trkpt lat="50.05852" lon="8.51746">
        <ele>141.59035</ele>
        <time>2023-07-03T07:57:35.659Z</time>
      </trkpt>
      <trkpt lat="50.05861" lon="8.51762">
        <ele>141.356413</ele>
        <time>2023-07-03T07:57:37.652Z</time>
      </trkpt>
      <trkpt lat="50.05871" lon="8.51778">
        <ele>141.109005</ele>
        <time>2023-07-03T07:57:39.678Z</time>
      </trkpt>
      <trkpt lat="50.0588" lon="8.51794">
        <ele>140.864195</ele>
        <time>2023-07-03T07:57:41.652Z</time>
      </trkpt>
      <trkpt lat="50.05888" lon="8.5181">
        <ele>140.634259</ele>
        <time>2023-07-03T07:57:43.648Z</time>
      </trkpt>
      <trkpt lat="50.05897" lon="8.51825">
        <ele>140.410036</ele>
        <time>2023-07-03T07:57:45.666Z</time>
      </trkpt>
      <trkpt lat="50.05905" lon="8.51839">
        <ele>140.191067</ele>
        <time>2023-07-03T07:57:47.648Z</time>
      </trkpt>
      <trkpt lat="50.05914" lon="8.51853">
        <ele>139.970253</ele>
        <time>2023-07-03T07:57:49.647Z</time>
      </trkpt>
      <trkpt lat="50.05923" lon="8.51866">
        <ele>139.826309</ele>
        <time>2023-07-03T07:57:51.667Z</time>
      </trkpt>
      <trkpt lat="50.05932" lon="8.5188">
        <ele>139.693945</ele>
        <time>2023-07-03T07:57:53.660Z</time>
      </trkpt>
      <trkpt lat="50.0594" lon="8.51894">
        <ele>139.563164</ele>
        <time>2023-07-03T07:57:55.647Z</time>
      </trkpt>
      <trkpt lat="50.05948" lon="8.51908">
        <ele>139.430206</ele>
        <time>2023-07-03T07:57:57.646Z</time>
      </trkpt>
      <trkpt lat="50.05957" lon="8.5192">
        <ele>139.30143</ele>
        <time>2023-07-03T07:57:59.646Z</time>
      </trkpt>
      <trkpt lat="50.05967" lon="8.51932">
        <ele>139.172122</ele>
        <time>2023-07-03T07:58:01.654Z</time>
      </trkpt>
      <trkpt lat="50.05976" lon="8.51945">
        <ele>139.040671</ele>
        <time>2023-07-03T07:58:03.666Z</time>
      </trkpt>
      <trkpt lat="50.05985" lon="8.51957">
        <ele>138.915786</ele>
        <time>2023-07-03T07:58:05.649Z</time>
      </trkpt>
      <trkpt lat="50.05994" lon="8.5197">
        <ele>138.781701</ele>
        <time>2023-07-03T07:58:07.649Z</time>
      </trkpt>
      <trkpt lat="50.06003" lon="8.51982">
        <ele>138.65556</ele>
        <time>2023-07-03T07:58:09.647Z</time>
      </trkpt>
      <trkpt lat="50.06011" lon="8.51994">
        <ele>138.533188</ele>
        <time>2023-07-03T07:58:11.651Z</time>
      </trkpt>
      <trkpt lat="50.0602" lon="8.52006">
        <ele>138.412718</ele>
        <time>2023-07-03T07:58:13.655Z</time>
      </trkpt>
      <trkpt lat="50.06027" lon="8.52019">
        <ele>138.29017</ele>
        <time>2023-07-03T07:58:15.635Z</time>
      </trkpt>
      <trkpt lat="50.06033" lon="8.52032">
        <ele>138.177558</ele>
        <time>2023-07-03T07:58:17.645Z</time>
      </trkpt>
      <trkpt lat="50.0604" lon="8.52046">
        <ele>138.057115</ele>
        <time>2023-07-03T07:58:19.644Z</time>
      </trkpt>
      <trkpt lat="50.06046" lon="8.52061">
        <ele>138.002659</ele>
        <time>2023-07-03T07:58:21.650Z</time>
      </trkpt>
      <trkpt lat="50.06055" lon="8.52074">
        <ele>137.989216</ele>
        <time>2023-07-03T07:58:23.649Z</time>
      </trkpt>
      <trkpt lat="50.06061" lon="8.52088">
        <ele>137.976426</ele>
        <time>2023-07-03T07:58:25.646Z</time>
      </trkpt>
      <trkpt lat="50.06068" lon="8.52101">
        <ele>137.963964</ele>
        <time>2023-07-03T07:58:27.657Z</time>
      </trkpt>
      <trkpt lat="50.06076" lon="8.52115">
        <ele>137.95132</ele>
        <time>2023-07-03T07:58:29.645Z</time>
      </trkpt>
      <trkpt lat="50.06083" lon="8.52128">
        <ele>137.938328</ele>
        <time>2023-07-03T07:58:31.648Z</time>
      </trkpt>
      <trkpt lat="50.06091" lon="8.52142">
        <ele>137.92537</ele>
        <time>2023-07-03T07:58:33.652Z</time>
      </trkpt>
      <trkpt lat="50.06098" lon="8.52155">
        <ele>137.912759</ele>
        <time>2023-07-03T07:58:35.645Z</time>
      </trkpt>
      <trkpt lat="50.06106" lon="8.52168">
        <ele>137.899576</ele>
        <time>2023-07-03T07:58:37.648Z</time>
      </trkpt>
      <trkpt lat="50.06114" lon="8.52181">
        <ele>137.886474</ele>
        <time>2023-07-03T07:58:39.651Z</time>
      </trkpt>
      <trkpt lat="50.06122" lon="8.52194">
        <ele>137.873657</ele>
        <time>2023-07-03T07:58:41.652Z</time>
      </trkpt>
      <trkpt lat="50.06128" lon="8.52209">
        <ele>137.860887</ele>
        <time>2023-07-03T07:58:43.646Z</time>
      </trkpt>
      <trkpt lat="50.06135" lon="8.52222">
        <ele>137.848552</ele>
        <time>2023-07-03T07:58:45.656Z</time>
      </trkpt>
      <trkpt lat="50.06141" lon="8.52234">
        <ele>137.837048</ele>
        <time>2023-07-03T07:58:47.668Z</time>
      </trkpt>
      <trkpt lat="50.06149" lon="8.52248">
        <ele>137.824146</ele>
        <time>2023-07-03T07:58:49.647Z</time>
      </trkpt>
      <trkpt lat="50.06157" lon="8.52261">
        <ele>137.811297</ele>
        <time>2023-07-03T07:58:51.648Z</time>
      </trkpt>
      <trkpt lat="50.06164" lon="8.52274">
        <ele>137.928796</ele>
        <time>2023-07-03T07:58:53.639Z</time>
      </trkpt>
      <trkpt lat="50.06172" lon="8.52287">
        <ele>138.116028</ele>
        <time>2023-07-03T07:58:55.649Z</time>
      </trkpt>
      <trkpt lat="50.06179" lon="8.523">
        <ele>138.296694</ele>
        <time>2023-07-03T07:58:57.649Z</time>
      </trkpt>
      <trkpt lat="50.06186" lon="8.52313">
        <ele>138.482142</ele>
        <time>2023-07-03T07:58:59.649Z</time>
      </trkpt>
      <trkpt lat="50.06193" lon="8.52326">
        <ele>138.661778</ele>
        <time>2023-07-03T07:59:01.648Z</time>
      </trkpt>
      <trkpt lat="50.062" lon="8.5234">
        <ele>138.848263</ele>
        <time>2023-07-03T07:59:03.668Z</time>
      </trkpt>
      <trkpt lat="50.06208" lon="8.52353">
        <ele>139.036383</ele>
        <time>2023-07-03T07:59:05.648Z</time>
      </trkpt>
      <trkpt lat="50.06215" lon="8.52367">
        <ele>139.219949</ele>
        <time>2023-07-03T07:59:07.665Z</time>
      </trkpt>
      <trkpt lat="50.06222" lon="8.52379">
        <ele>139.400547</ele>
        <time>2023-07-03T07:59:09.647Z</time>
      </trkpt>
      <trkpt lat="50.0623" lon="8.52393">
        <ele>139.590772</ele>
        <time>2023-07-03T07:59:11.667Z</time>
      </trkpt>
      <trkpt lat="50.06237" lon="8.52406">
        <ele>139.772169</ele>
        <time>2023-07-03T07:59:13.645Z</time>
      </trkpt>
      <trkpt lat="50.06244" lon="8.52419">
        <ele>139.959822</ele>
        <time>2023-07-03T07:59:15.652Z</time>
      </trkpt>
      <trkpt lat="50.06252" lon="8.52432">
        <ele>140.145269</ele>
        <time>2023-07-03T07:59:17.650Z</time>
      </trkpt>
      <trkpt lat="50.06259" lon="8.52445">
        <ele>140.317844</ele>
        <time>2023-07-03T07:59:19.657Z</time>
      </trkpt>
      <trkpt lat="50.06265" lon="8.52457">
        <ele>140.486401</ele>
        <time>2023-07-03T07:59:21.676Z</time>
      </trkpt>
      <trkpt lat="50.06273" lon="8.52468">
        <ele>140.662691</ele>
        <time>2023-07-03T07:59:23.644Z</time>
      </trkpt>
      <trkpt lat="50.06281" lon="8.5248">
        <ele>140.775333</ele>
        <time>2023-07-03T07:59:25.659Z</time>
      </trkpt>
      <trkpt lat="50.06288" lon="8.52493">
        <ele>140.795153</ele>
        <time>2023-07-03T07:59:27.650Z</time>
      </trkpt>
      <trkpt lat="50.06296" lon="8.52505">
        <ele>140.814095</ele>
        <time>2023-07-03T07:59:29.649Z</time>
      </trkpt>
      <trkpt lat="50.06303" lon="8.52518">
        <ele>140.832625</ele>
        <time>2023-07-03T07:59:31.650Z</time>
      </trkpt>
      <trkpt lat="50.0631" lon="8.52531">
        <ele>140.851615</ele>
        <time>2023-07-03T07:59:33.653Z</time>
      </trkpt>
      <trkpt lat="50.06317" lon="8.52543">
        <ele>140.870206</ele>
        <time>2023-07-03T07:59:35.647Z</time>
      </trkpt>
      <trkpt lat="50.06324" lon="8.52554">
        <ele>140.888336</ele>
        <time>2023-07-03T07:59:37.635Z</time>
      </trkpt>
      <trkpt lat="50.06331" lon="8.52567">
        <ele>140.907499</ele>
        <time>2023-07-03T07:59:39.647Z</time>
      </trkpt>
      <trkpt lat="50.06339" lon="8.52578">
        <ele>140.926059</ele>
        <time>2023-07-03T07:59:41.654Z</time>
      </trkpt>
      <trkpt lat="50.06347" lon="8.5259">
        <ele>140.945009</ele>
        <time>2023-07-03T07:59:43.663Z</time>
      </trkpt>
      <trkpt lat="50.06354" lon="8.52601">
        <ele>140.963505</ele>
        <time>2023-07-03T07:59:45.665Z</time>
      </trkpt>
      <trkpt lat="50.06361" lon="8.52612">
        <ele>140.980913</ele>
        <time>2023-07-03T07:59:47.650Z</time>
      </trkpt>
      <trkpt lat="50.06369" lon="8.5262">
        <ele>140.997784</ele>
        <time>2023-07-03T07:59:49.643Z</time>
      </trkpt>
      <trkpt lat="50.06377" lon="8.52628">
        <ele>141.014124</ele>
        <time>2023-07-03T07:59:51.652Z</time>
      </trkpt>
      <trkpt lat="50.06385" lon="8.52637">
        <ele>141.031797</ele>
        <time>2023-07-03T07:59:53.649Z</time>
      </trkpt>
      <trkpt lat="50.06394" lon="8.52646">
        <ele>141.050039</ele>
        <time>2023-07-03T07:59:55.654Z</time>
      </trkpt>
      <trkpt lat="50.06402" lon="8.52655">
        <ele>141.067416</ele>
        <time>2023-07-03T07:59:57.654Z</time>
      </trkpt>
      <trkpt lat="50.06411" lon="8.52664">
        <ele>141.077666</ele>
        <time>2023-07-03T07:59:59.657Z</time>
      </trkpt>
      <trkpt lat="50.0642" lon="8.52673">
        <ele>141.005523</ele>
        <time>2023-07-03T08:00:01.659Z</time>
      </trkpt>
      <trkpt lat="50.06428" lon="8.52682">
        <ele>140.939092</ele>
        <time>2023-07-03T08:00:03.656Z</time>
      </trkpt>
      <trkpt lat="50.06437" lon="8.52691">
        <ele>140.871152</ele>
        <time>2023-07-03T08:00:05.646Z</time>
      </trkpt>
      <trkpt lat="50.06446" lon="8.527">
        <ele>140.800987</ele>
        <time>2023-07-03T08:00:07.668Z</time>
      </trkpt>
      <trkpt lat="50.06454" lon="8.5271">
        <ele>140.731676</ele>
        <time>2023-07-03T08:00:09.668Z</time>
      </trkpt>
      <trkpt lat="50.06464" lon="8.52719">
        <ele>140.658156</ele>
        <time>2023-07-03T08:00:11.653Z</time>
      </trkpt>
      <trkpt lat="50.06473" lon="8.52729">
        <ele>140.58565</ele>
        <time>2023-07-03T08:00:13.648Z</time>
      </trkpt>
      <trkpt lat="50.06482" lon="8.52738">
        <ele>140.514705</ele>
        <time>2023-07-03T08:00:15.652Z</time>
      </trkpt>
      <trkpt lat="50.06491" lon="8.52747">
        <ele>140.442665</ele>
        <time>2023-07-03T08:00:17.678Z</time>
      </trkpt>
      <trkpt lat="50.065" lon="8.52755">
        <ele>140.375985</ele>
        <time>2023-07-03T08:00:19.652Z</time>
      </trkpt>
      <trkpt lat="50.06509" lon="8.52763">
        <ele>140.306603</ele>
        <time>2023-07-03T08:00:21.667Z</time>
      </trkpt>
      <trkpt lat="50.06518" lon="8.52771">
        <ele>140.24186</ele>
        <time>2023-07-03T08:00:23.664Z</time>
      </trkpt>
      <trkpt lat="50.06526" lon="8.52779">
        <ele>140.176276</ele>
        <time>2023-07-03T08:00:25.662Z</time>
      </trkpt>
      <trkpt lat="50.06536" lon="8.52785">
        <ele>140.108937</ele>
        <time>2023-07-03T08:00:27.650Z</time>
      </trkpt>
      <trkpt lat="50.06545" lon="8.5279">
        <ele>140.042507</ele>
        <time>2023-07-03T08:00:29.634Z</time>
      </trkpt>
      <trkpt lat="50.06555" lon="8.52795">
        <ele>139.976404</ele>
        <time>2023-07-03T08:00:31.764Z</time>
      </trkpt>
      <trkpt lat="50.06565" lon="8.528">
        <ele>139.909288</ele>
        <time>2023-07-03T08:00:33.651Z</time>
      </trkpt>
      <trkpt lat="50.06575" lon="8.52804">
        <ele>140.005166</ele>
        <time>2023-07-03T08:00:35.666Z</time>
      </trkpt>
      <trkpt lat="50.06585" lon="8.5281">
        <ele>140.115978</ele>
        <time>2023-07-03T08:00:37.665Z</time>
      </trkpt>
      <trkpt lat="50.06595" lon="8.52816">
        <ele>140.22679</ele>
        <time>2023-07-03T08:00:39.649Z</time>
      </trkpt>
      <trkpt lat="50.06605" lon="8.52821">
        <ele>140.338296</ele>
        <time>2023-07-03T08:00:41.650Z</time>
      </trkpt>
      <trkpt lat="50.06615" lon="8.52826">
        <ele>140.442028</ele>
        <time>2023-07-03T08:00:43.674Z</time>
      </trkpt>
      <trkpt lat="50.06625" lon="8.52831">
        <ele>140.551145</ele>
        <time>2023-07-03T08:00:45.663Z</time>
      </trkpt>
      <trkpt lat="50.06635" lon="8.52836">
        <ele>140.66546</ele>
        <time>2023-07-03T08:00:47.656Z</time>
      </trkpt>
      <trkpt lat="50.06645" lon="8.5284">
        <ele>140.771275</ele>
        <time>2023-07-03T08:00:49.630Z</time>
      </trkpt>
      <trkpt lat="50.06653" lon="8.52845">
        <ele>140.866997</ele>
        <time>2023-07-03T08:00:51.645Z</time>
      </trkpt>
      <trkpt lat="50.06665" lon="8.52853">
        <ele>140.996302</ele>
        <time>2023-07-03T08:00:54.676Z</time>
      </trkpt>
      <trkpt lat="50.06676" lon="8.52859">
        <ele>141.122892</ele>
        <time>2023-07-03T08:00:57.669Z</time>
      </trkpt>
      <trkpt lat="50.06685" lon="8.52865">
        <ele>141.22299</ele>
        <time>2023-07-03T08:01:00.668Z</time>
      </trkpt>
      <trkpt lat="50.06695" lon="8.52873">
        <ele>141.342698</ele>
        <time>2023-07-03T08:01:04.658Z</time>
      </trkpt>
      <trkpt lat="50.06703" lon="8.52882">
        <ele>141.443583</ele>
        <time>2023-07-03T08:01:08.675Z</time>
      </trkpt>
      <trkpt lat="50.06712" lon="8.52885">
        <ele>141.537815</ele>
        <time>2023-07-03T08:01:11.654Z</time>
      </trkpt>
      <trkpt lat="50.06722" lon="8.52883">
        <ele>141.638645</ele>
        <time>2023-07-03T08:01:14.664Z</time>
      </trkpt>
      <trkpt lat="50.06734" lon="8.5288">
        <ele>141.770057</ele>
        <time>2023-07-03T08:01:17.655Z</time>
      </trkpt>
      <trkpt lat="50.06747" lon="8.52877">
        <ele>141.898947</ele>
        <time>2023-07-03T08:01:20.653Z</time>
      </trkpt>
      <trkpt lat="50.06756" lon="8.52875">
        <ele>141.990654</ele>
        <time>2023-07-03T08:01:22.659Z</time>
      </trkpt>
      <trkpt lat="50.06765" lon="8.52873">
        <ele>142.084628</ele>
        <time>2023-07-03T08:01:24.653Z</time>
      </trkpt>
      <trkpt lat="50.06774" lon="8.52871">
        <ele>142.178511</ele>
        <time>2023-07-03T08:01:26.676Z</time>
      </trkpt>
      <trkpt lat="50.06783" lon="8.52871">
        <ele>142.272559</ele>
        <time>2023-07-03T08:01:28.652Z</time>
      </trkpt>
      <trkpt lat="50.06793" lon="8.52868">
        <ele>142.373538</ele>
        <time>2023-07-03T08:01:30.665Z</time>
      </trkpt>
      <trkpt lat="50.06803" lon="8.52867">
        <ele>142.474006</ele>
        <time>2023-07-03T08:01:32.652Z</time>
      </trkpt>
      <trkpt lat="50.06813" lon="8.52865">
        <ele>142.570727</ele>
        <time>2023-07-03T08:01:34.658Z</time>
      </trkpt>
      <trkpt lat="50.06822" lon="8.52862">
        <ele>142.667451</ele>
        <time>2023-07-03T08:01:36.634Z</time>
      </trkpt>
      <trkpt lat="50.06832" lon="8.5286">
        <ele>142.765339</ele>
        <time>2023-07-03T08:01:38.659Z</time>
      </trkpt>
      <trkpt lat="50.06842" lon="8.52859">
        <ele>142.868159</ele>
        <time>2023-07-03T08:01:40.650Z</time>
      </trkpt>
      <trkpt lat="50.06851" lon="8.52856">
        <ele>142.96389</ele>
        <time>2023-07-03T08:01:42.671Z</time>
      </trkpt>
      <trkpt lat="50.06861" lon="8.52853">
        <ele>143.064255</ele>
        <time>2023-07-03T08:01:44.653Z</time>
      </trkpt>
      <trkpt lat="50.06871" lon="8.52851">
        <ele>143.164233</ele>
        <time>2023-07-03T08:01:46.644Z</time>
      </trkpt>
      <trkpt lat="50.0688" lon="8.52849">
        <ele>143.264302</ele>
        <time>2023-07-03T08:01:48.651Z</time>
      </trkpt>
      <trkpt lat="50.06889" lon="8.52845">
        <ele>143.357132</ele>
        <time>2023-07-03T08:01:50.652Z</time>
      </trkpt>
      <trkpt lat="50.06899" lon="8.52841">
        <ele>143.4592</ele>
        <time>2023-07-03T08:01:52.653Z</time>
      </trkpt>
      <trkpt lat="50.06908" lon="8.52837">
        <ele>143.554939</ele>
        <time>2023-07-03T08:01:54.653Z</time>
      </trkpt>
      <trkpt lat="50.06917" lon="8.52832">
        <ele>143.64206</ele>
        <time>2023-07-03T08:01:56.664Z</time>
      </trkpt>
      <trkpt lat="50.06926" lon="8.52828">
        <ele>143.72331</ele>
        <time>2023-07-03T08:01:58.656Z</time>
      </trkpt>
      <trkpt lat="50.06936" lon="8.52825">
        <ele>143.804536</ele>
        <time>2023-07-03T08:02:00.664Z</time>
      </trkpt>
      <trkpt lat="50.06946" lon="8.52822">
        <ele>143.894416</ele>
        <time>2023-07-03T08:02:02.663Z</time>
      </trkpt>
      <trkpt lat="50.06956" lon="8.5282">
        <ele>143.978255</ele>
        <time>2023-07-03T08:02:04.666Z</time>
      </trkpt>
      <trkpt lat="50.06966" lon="8.52818">
        <ele>144.059928</ele>
        <time>2023-07-03T08:02:06.648Z</time>
      </trkpt>
      <trkpt lat="50.06977" lon="8.52816">
        <ele>144.149345</ele>
        <time>2023-07-03T08:02:08.662Z</time>
      </trkpt>
      <trkpt lat="50.06987" lon="8.52813">
        <ele>144.236253</ele>
        <time>2023-07-03T08:02:10.649Z</time>
      </trkpt>
      <trkpt lat="50.06997" lon="8.52812">
        <ele>144.322818</ele>
        <time>2023-07-03T08:02:12.675Z</time>
      </trkpt>
      <trkpt lat="50.07007" lon="8.52812">
        <ele>144.403375</ele>
        <time>2023-07-03T08:02:14.650Z</time>
      </trkpt>
      <trkpt lat="50.07016" lon="8.52813">
        <ele>144.485616</ele>
        <time>2023-07-03T08:02:16.647Z</time>
      </trkpt>
      <trkpt lat="50.07026" lon="8.52813">
        <ele>144.567097</ele>
        <time>2023-07-03T08:02:18.654Z</time>
      </trkpt>
      <trkpt lat="50.07036" lon="8.52814">
        <ele>144.647681</ele>
        <time>2023-07-03T08:02:20.652Z</time>
      </trkpt>
      <trkpt lat="50.07049" lon="8.52815">
        <ele>144.762126</ele>
        <time>2023-07-03T08:02:23.663Z</time>
      </trkpt>
      <trkpt lat="50.07059" lon="8.52816">
        <ele>144.844536</ele>
        <time>2023-07-03T08:02:25.673Z</time>
      </trkpt>
      <trkpt lat="50.07069" lon="8.52818">
        <ele>144.928172</ele>
        <time>2023-07-03T08:02:27.659Z</time>
      </trkpt>
      <trkpt lat="50.07079" lon="8.52819">
        <ele>145.011386</ele>
        <time>2023-07-03T08:02:29.655Z</time>
      </trkpt>
      <trkpt lat="50.07089" lon="8.5282">
        <ele>145.097059</ele>
        <time>2023-07-03T08:02:31.665Z</time>
      </trkpt>
      <trkpt lat="50.071" lon="8.5282">
        <ele>144.945484</ele>
        <time>2023-07-03T08:02:33.654Z</time>
      </trkpt>
      <trkpt lat="50.0711" lon="8.52819">
        <ele>144.766825</ele>
        <time>2023-07-03T08:02:35.650Z</time>
      </trkpt>
      <trkpt lat="50.07121" lon="8.5282">
        <ele>144.593028</ele>
        <time>2023-07-03T08:02:37.665Z</time>
      </trkpt>
      <trkpt lat="50.07132" lon="8.52821">
        <ele>144.414369</ele>
        <time>2023-07-03T08:02:39.666Z</time>
      </trkpt>
      <trkpt lat="50.07142" lon="8.52821">
        <ele>144.235967</ele>
        <time>2023-07-03T08:02:41.660Z</time>
      </trkpt>
      <trkpt lat="50.07152" lon="8.52821">
        <ele>144.070902</ele>
        <time>2023-07-03T08:02:43.659Z</time>
      </trkpt>
      <trkpt lat="50.07162" lon="8.52821">
        <ele>143.904119</ele>
        <time>2023-07-03T08:02:45.671Z</time>
      </trkpt>
      <trkpt lat="50.07172" lon="8.52822">
        <ele>143.735506</ele>
        <time>2023-07-03T08:02:47.663Z</time>
      </trkpt>
      <trkpt lat="50.07183" lon="8.52828">
        <ele>143.548891</ele>
        <time>2023-07-03T08:02:49.632Z</time>
      </trkpt>
      <trkpt lat="50.0719" lon="8.5284">
        <ele>143.371083</ele>
        <time>2023-07-03T08:02:51.652Z</time>
      </trkpt>
      <trkpt lat="50.07192" lon="8.52858">
        <ele>143.17888</ele>
        <time>2023-07-03T08:02:53.663Z</time>
      </trkpt>
      <trkpt lat="50.07193" lon="8.52876">
        <ele>142.988235</ele>
        <time>2023-07-03T08:02:55.672Z</time>
      </trkpt>
      <trkpt lat="50.07194" lon="8.52894">
        <ele>142.796876</ele>
        <time>2023-07-03T08:02:57.668Z</time>
      </trkpt>
      <trkpt lat="50.07195" lon="8.52911">
        <ele>142.61114</ele>
        <time>2023-07-03T08:02:59.656Z</time>
      </trkpt>
      <trkpt lat="50.07195" lon="8.52929">
        <ele>142.421373</ele>
        <time>2023-07-03T08:03:01.653Z</time>
      </trkpt>
      <trkpt lat="50.07195" lon="8.52946">
        <ele>142.237315</ele>
        <time>2023-07-03T08:03:03.653Z</time>
      </trkpt>
      <trkpt lat="50.07195" lon="8.52963">
        <ele>142.108763</ele>
        <time>2023-07-03T08:03:05.651Z</time>
      </trkpt>
      <trkpt lat="50.07197" lon="8.52979">
        <ele>142.116</ele>
        <time>2023-07-03T08:03:07.665Z</time>
      </trkpt>
      <trkpt lat="50.07199" lon="8.52995">
        <ele>142.123116</ele>
        <time>2023-07-03T08:03:09.664Z</time>
      </trkpt>
      <trkpt lat="50.07203" lon="8.5301">
        <ele>142.130681</ele>
        <time>2023-07-03T08:03:11.644Z</time>
      </trkpt>
      <trkpt lat="50.07208" lon="8.53025">
        <ele>142.137955</ele>
        <time>2023-07-03T08:03:13.652Z</time>
      </trkpt>
      <trkpt lat="50.07214" lon="8.5304">
        <ele>142.145664</ele>
        <time>2023-07-03T08:03:15.663Z</time>
      </trkpt>
      <trkpt lat="50.07219" lon="8.53056">
        <ele>142.153379</ele>
        <time>2023-07-03T08:03:17.656Z</time>
      </trkpt>
      <trkpt lat="50.07224" lon="8.53071">
        <ele>142.161089</ele>
        <time>2023-07-03T08:03:19.675Z</time>
      </trkpt>
      <trkpt lat="50.0723" lon="8.53087">
        <ele>142.169207</ele>
        <time>2023-07-03T08:03:21.647Z</time>
      </trkpt>
      <trkpt lat="50.07236" lon="8.53102">
        <ele>142.176754</ele>
        <time>2023-07-03T08:03:23.660Z</time>
      </trkpt>
      <trkpt lat="50.07241" lon="8.53117">
        <ele>142.184359</ele>
        <time>2023-07-03T08:03:25.658Z</time>
      </trkpt>
      <trkpt lat="50.07247" lon="8.53131">
        <ele>142.191866</ele>
        <time>2023-07-03T08:03:27.659Z</time>
      </trkpt>
      <trkpt lat="50.07254" lon="8.53145">
        <ele>142.199736</ele>
        <time>2023-07-03T08:03:29.629Z</time>
      </trkpt>
      <trkpt lat="50.0726" lon="8.5316">
        <ele>142.20728</ele>
        <time>2023-07-03T08:03:31.655Z</time>
      </trkpt>
      <trkpt lat="50.07265" lon="8.53174">
        <ele>142.214861</ele>
        <time>2023-07-03T08:03:33.652Z</time>
      </trkpt>
      <trkpt lat="50.07271" lon="8.53188">
        <ele>142.222002</ele>
        <time>2023-07-03T08:03:35.656Z</time>
      </trkpt>
      <trkpt lat="50.07275" lon="8.53204">
        <ele>142.22962</ele>
        <time>2023-07-03T08:03:37.664Z</time>
      </trkpt>
      <trkpt lat="50.07279" lon="8.5322">
        <ele>142.284624</ele>
        <time>2023-07-03T08:03:39.648Z</time>
      </trkpt>
      <trkpt lat="50.07284" lon="8.53235">
        <ele>142.345268</ele>
        <time>2023-07-03T08:03:41.666Z</time>
      </trkpt>
      <trkpt lat="50.0729" lon="8.53249">
        <ele>142.406751</ele>
        <time>2023-07-03T08:03:43.630Z</time>
      </trkpt>
      <trkpt lat="50.07296" lon="8.53263">
        <ele>142.466748</ele>
        <time>2023-07-03T08:03:45.667Z</time>
      </trkpt>
      <trkpt lat="50.07301" lon="8.53277">
        <ele>142.525203</ele>
        <time>2023-07-03T08:03:47.659Z</time>
      </trkpt>
      <trkpt lat="50.07307" lon="8.53291">
        <ele>142.583054</ele>
        <time>2023-07-03T08:03:49.657Z</time>
      </trkpt>
      <trkpt lat="50.07311" lon="8.53304">
        <ele>142.637694</ele>
        <time>2023-07-03T08:03:51.655Z</time>
      </trkpt>
      <trkpt lat="50.07316" lon="8.53318">
        <ele>142.696155</ele>
        <time>2023-07-03T08:03:53.663Z</time>
      </trkpt>
      <trkpt lat="50.07321" lon="8.53333">
        <ele>142.755511</ele>
        <time>2023-07-03T08:03:55.656Z</time>
      </trkpt>
      <trkpt lat="50.07326" lon="8.53346">
        <ele>142.813058</ele>
        <time>2023-07-03T08:03:57.664Z</time>
      </trkpt>
      <trkpt lat="50.07332" lon="8.5336">
        <ele>142.871513</ele>
        <time>2023-07-03T08:03:59.658Z</time>
      </trkpt>
      <trkpt lat="50.07338" lon="8.53374">
        <ele>142.929361</ele>
        <time>2023-07-03T08:04:01.651Z</time>
      </trkpt>
      <trkpt lat="50.07344" lon="8.53387">
        <ele>142.987547</ele>
        <time>2023-07-03T08:04:03.655Z</time>
      </trkpt>
      <trkpt lat="50.07349" lon="8.534">
        <ele>143.043349</ele>
        <time>2023-07-03T08:04:05.655Z</time>
      </trkpt>
      <trkpt lat="50.07355" lon="8.53413">
        <ele>143.100609</ele>
        <time>2023-07-03T08:04:07.656Z</time>
      </trkpt>
      <trkpt lat="50.07361" lon="8.53426">
        <ele>143.158235</ele>
        <time>2023-07-03T08:04:09.670Z</time>
      </trkpt>
      <trkpt lat="50.07367" lon="8.5344">
        <ele>143.21827</ele>
        <time>2023-07-03T08:04:11.662Z</time>
      </trkpt>
      <trkpt lat="50.07373" lon="8.53453">
        <ele>143.242286</ele>
        <time>2023-07-03T08:04:13.661Z</time>
      </trkpt>
      <trkpt lat="50.07379" lon="8.53467">
        <ele>143.247526</ele>
        <time>2023-07-03T08:04:15.648Z</time>
      </trkpt>
      <trkpt lat="50.07386" lon="8.5348">
        <ele>143.25285</ele>
        <time>2023-07-03T08:04:17.653Z</time>
      </trkpt>
      <trkpt lat="50.07392" lon="8.53494">
        <ele>143.258019</ele>
        <time>2023-07-03T08:04:19.657Z</time>
      </trkpt>
      <trkpt lat="50.07398" lon="8.53507">
        <ele>143.263267</ele>
        <time>2023-07-03T08:04:21.662Z</time>
      </trkpt>
      <trkpt lat="50.07405" lon="8.5352">
        <ele>143.268591</ele>
        <time>2023-07-03T08:04:23.664Z</time>
      </trkpt>
      <trkpt lat="50.07411" lon="8.53535">
        <ele>143.274034</ele>
        <time>2023-07-03T08:04:25.657Z</time>
      </trkpt>
      <trkpt lat="50.07418" lon="8.53548">
        <ele>143.279362</ele>
        <time>2023-07-03T08:04:27.663Z</time>
      </trkpt>
      <trkpt lat="50.07424" lon="8.53562">
        <ele>143.28482</ele>
        <time>2023-07-03T08:04:29.665Z</time>
      </trkpt>
      <trkpt lat="50.07431" lon="8.53576">
        <ele>143.290238</ele>
        <time>2023-07-03T08:04:31.653Z</time>
      </trkpt>
      <trkpt lat="50.07438" lon="8.53589">
        <ele>143.295662</ele>
        <time>2023-07-03T08:04:33.658Z</time>
      </trkpt>
      <trkpt lat="50.07445" lon="8.53604">
        <ele>143.301333</ele>
        <time>2023-07-03T08:04:35.656Z</time>
      </trkpt>
      <trkpt lat="50.07453" lon="8.53617">
        <ele>143.307051</ele>
        <time>2023-07-03T08:04:37.632Z</time>
      </trkpt>
      <trkpt lat="50.0746" lon="8.53632">
        <ele>143.312812</ele>
        <time>2023-07-03T08:04:39.657Z</time>
      </trkpt>
      <trkpt lat="50.07467" lon="8.53646">
        <ele>143.318458</ele>
        <time>2023-07-03T08:04:41.648Z</time>
      </trkpt>
      <trkpt lat="50.07475" lon="8.5366">
        <ele>143.324219</ele>
        <time>2023-07-03T08:04:43.657Z</time>
      </trkpt>
      <trkpt lat="50.07482" lon="8.53675">
        <ele>143.463103</ele>
        <time>2023-07-03T08:04:45.652Z</time>
      </trkpt>
      <trkpt lat="50.07488" lon="8.5369">
        <ele>143.71203</ele>
        <time>2023-07-03T08:04:47.654Z</time>
      </trkpt>
      <trkpt lat="50.07494" lon="8.53706">
        <ele>143.957358</ele>
        <time>2023-07-03T08:04:49.673Z</time>
      </trkpt>
      <trkpt lat="50.07499" lon="8.53721">
        <ele>144.190825</ele>
        <time>2023-07-03T08:04:51.665Z</time>
      </trkpt>
      <trkpt lat="50.07504" lon="8.53734">
        <ele>144.398261</ele>
        <time>2023-07-03T08:04:53.668Z</time>
      </trkpt>
      <trkpt lat="50.07508" lon="8.53748">
        <ele>144.60299</ele>
        <time>2023-07-03T08:04:55.654Z</time>
      </trkpt>
      <trkpt lat="50.07513" lon="8.53762">
        <ele>144.828923</ele>
        <time>2023-07-03T08:04:57.666Z</time>
      </trkpt>
      <trkpt lat="50.07517" lon="8.53778">
        <ele>145.062576</ele>
        <time>2023-07-03T08:04:59.676Z</time>
      </trkpt>
      <trkpt lat="50.07521" lon="8.53794">
        <ele>145.303903</ele>
        <time>2023-07-03T08:05:01.665Z</time>
      </trkpt>
      <trkpt lat="50.07524" lon="8.53811">
        <ele>145.544346</ele>
        <time>2023-07-03T08:05:03.654Z</time>
      </trkpt>
      <trkpt lat="50.07526" lon="8.53827">
        <ele>145.762016</ele>
        <time>2023-07-03T08:05:05.658Z</time>
      </trkpt>
      <trkpt lat="50.07528" lon="8.53841">
        <ele>145.960695</ele>
        <time>2023-07-03T08:05:07.657Z</time>
      </trkpt>
      <trkpt lat="50.07527" lon="8.53862">
        <ele>146.239886</ele>
        <time>2023-07-03T08:05:10.647Z</time>
      </trkpt>
      <trkpt lat="50.07526" lon="8.53882">
        <ele>146.515569</ele>
        <time>2023-07-03T08:05:13.649Z</time>
      </trkpt>
      <trkpt lat="50.07524" lon="8.53898">
        <ele>146.746662</ele>
        <time>2023-07-03T08:05:16.644Z</time>
      </trkpt>
      <trkpt lat="50.07522" lon="8.53914">
        <ele>146.962526</ele>
        <time>2023-07-03T08:05:19.649Z</time>
      </trkpt>
      <trkpt lat="50.07519" lon="8.53929">
        <ele>147.166957</ele>
        <time>2023-07-03T08:05:22.677Z</time>
      </trkpt>
      <trkpt lat="50.07516" lon="8.53945">
        <ele>147.216805</ele>
        <time>2023-07-03T08:05:25.648Z</time>
      </trkpt>
      <trkpt lat="50.07515" lon="8.53961">
        <ele>147.265162</ele>
        <time>2023-07-03T08:05:28.658Z</time>
      </trkpt>
      <trkpt lat="50.07513" lon="8.53976">
        <ele>147.313779</ele>
        <time>2023-07-03T08:05:31.676Z</time>
      </trkpt>
      <trkpt lat="50.07512" lon="8.53992">
        <ele>147.360885</ele>
        <time>2023-07-03T08:05:34.668Z</time>
      </trkpt>
      <trkpt lat="50.07511" lon="8.54008">
        <ele>147.410844</ele>
        <time>2023-07-03T08:05:37.673Z</time>
      </trkpt>
      <trkpt lat="50.07511" lon="8.54026">
        <ele>147.465295</ele>
        <time>2023-07-03T08:05:40.667Z</time>
      </trkpt>
      <trkpt lat="50.07512" lon="8.54043">
        <ele>147.518988</ele>
        <time>2023-07-03T08:05:43.659Z</time>
      </trkpt>
      <trkpt lat="50.07516" lon="8.5406">
        <ele>147.571657</ele>
        <time>2023-07-03T08:05:46.647Z</time>
      </trkpt>
      <trkpt lat="50.07518" lon="8.54076">
        <ele>147.62358</ele>
        <time>2023-07-03T08:05:49.671Z</time>
      </trkpt>
      <trkpt lat="50.07522" lon="8.54093">
        <ele>147.678795</ele>
        <time>2023-07-03T08:05:52.655Z</time>
      </trkpt>
      <trkpt lat="50.07528" lon="8.54111">
        <ele>147.73916</ele>
        <time>2023-07-03T08:05:55.650Z</time>
      </trkpt>
      <trkpt lat="50.07535" lon="8.54129">
        <ele>147.80278</ele>
        <time>2023-07-03T08:05:58.673Z</time>
      </trkpt>
      <trkpt lat="50.0754" lon="8.54141">
        <ele>147.84651</ele>
        <time>2023-07-03T08:06:00.669Z</time>
      </trkpt>
      <trkpt lat="50.07546" lon="8.54153">
        <ele>147.893872</ele>
        <time>2023-07-03T08:06:02.658Z</time>
      </trkpt>
      <trkpt lat="50.07552" lon="8.54167">
        <ele>147.943805</ele>
        <time>2023-07-03T08:06:04.655Z</time>
      </trkpt>
      <trkpt lat="50.07558" lon="8.54179">
        <ele>147.991123</ele>
        <time>2023-07-03T08:06:06.678Z</time>
      </trkpt>
      <trkpt lat="50.07563" lon="8.54192">
        <ele>147.931247</ele>
        <time>2023-07-03T08:06:08.637Z</time>
      </trkpt>
      <trkpt lat="50.07569" lon="8.54207">
        <ele>147.687756</ele>
        <time>2023-07-03T08:06:10.656Z</time>
      </trkpt>
      <trkpt lat="50.07576" lon="8.54225">
        <ele>147.399923</ele>
        <time>2023-07-03T08:06:12.676Z</time>
      </trkpt>
      <trkpt lat="50.07584" lon="8.54248">
        <ele>147.062807</ele>
        <time>2023-07-03T08:06:14.646Z</time>
      </trkpt>
      <trkpt lat="50.0759" lon="8.54273">
        <ele>146.698667</ele>
        <time>2023-07-03T08:06:16.640Z</time>
      </trkpt>
      <trkpt lat="50.07593" lon="8.54287">
        <ele>146.498667</ele>
        <time>2023-07-03T08:06:17.652Z</time>
      </trkpt>
      <trkpt lat="50.07595" lon="8.54301">
        <ele>146.296371</ele>
        <time>2023-07-03T08:06:18.637Z</time>
      </trkpt>
      <trkpt lat="50.07597" lon="8.54316">
        <ele>146.0967</ele>
        <time>2023-07-03T08:06:19.664Z</time>
      </trkpt>
      <trkpt lat="50.07598" lon="8.54331">
        <ele>145.897551</ele>
        <time>2023-07-03T08:06:20.653Z</time>
      </trkpt>
      <trkpt lat="50.07599" lon="8.54345">
        <ele>145.703054</ele>
        <time>2023-07-03T08:06:21.657Z</time>
      </trkpt>
      <trkpt lat="50.076" lon="8.54359">
        <ele>145.51156</ele>
        <time>2023-07-03T08:06:22.644Z</time>
      </trkpt>
      <trkpt lat="50.076" lon="8.54387">
        <ele>145.144051</ele>
        <time>2023-07-03T08:06:24.675Z</time>
      </trkpt>
      <trkpt lat="50.07601" lon="8.5441">
        <ele>144.822959</ele>
        <time>2023-07-03T08:06:26.645Z</time>
      </trkpt>
      <trkpt lat="50.07601" lon="8.54432">
        <ele>144.536338</ele>
        <time>2023-07-03T08:06:28.651Z</time>
      </trkpt>
      <trkpt lat="50.07601" lon="8.54452">
        <ele>144.264447</ele>
        <time>2023-07-03T08:06:30.669Z</time>
      </trkpt>
      <trkpt lat="50.07603" lon="8.54471">
        <ele>144.552735</ele>
        <time>2023-07-03T08:06:32.647Z</time>
      </trkpt>
      <trkpt lat="50.07604" lon="8.54488">
        <ele>144.84219</ele>
        <time>2023-07-03T08:06:34.655Z</time>
      </trkpt>
      <trkpt lat="50.07606" lon="8.54504">
        <ele>145.124993</ele>
        <time>2023-07-03T08:06:36.654Z</time>
      </trkpt>
      <trkpt lat="50.07608" lon="8.54518">
        <ele>145.371459</ele>
        <time>2023-07-03T08:06:38.654Z</time>
      </trkpt>
      <trkpt lat="50.07612" lon="8.54538">
        <ele>145.728149</ele>
        <time>2023-07-03T08:06:41.652Z</time>
      </trkpt>
      <trkpt lat="50.07617" lon="8.54557">
        <ele>146.075618</ele>
        <time>2023-07-03T08:06:44.648Z</time>
      </trkpt>
      <trkpt lat="50.07623" lon="8.54575">
        <ele>146.423962</ele>
        <time>2023-07-03T08:06:47.666Z</time>
      </trkpt>
      <trkpt lat="50.07628" lon="8.54593">
        <ele>146.766132</ele>
        <time>2023-07-03T08:06:50.650Z</time>
      </trkpt>
      <trkpt lat="50.07635" lon="8.5461">
        <ele>147.113903</ele>
        <time>2023-07-03T08:06:53.650Z</time>
      </trkpt>
      <trkpt lat="50.07642" lon="8.54627">
        <ele>147.448693</ele>
        <time>2023-07-03T08:06:56.646Z</time>
      </trkpt>
      <trkpt lat="50.0765" lon="8.54642">
        <ele>147.796466</ele>
        <time>2023-07-03T08:06:59.648Z</time>
      </trkpt>
      <trkpt lat="50.07656" lon="8.54653">
        <ele>148.037474</ele>
        <time>2023-07-03T08:07:01.660Z</time>
      </trkpt>
      <trkpt lat="50.07666" lon="8.54666">
        <ele>148.388661</ele>
        <time>2023-07-03T08:07:04.638Z</time>
      </trkpt>
      <trkpt lat="50.07673" lon="8.54676">
        <ele>148.631452</ele>
        <time>2023-07-03T08:07:06.655Z</time>
      </trkpt>
      <trkpt lat="50.07683" lon="8.54687">
        <ele>148.974812</ele>
        <time>2023-07-03T08:07:09.650Z</time>
      </trkpt>
      <trkpt lat="50.07695" lon="8.54698">
        <ele>148.790339</ele>
        <time>2023-07-03T08:07:12.655Z</time>
      </trkpt>
      <trkpt lat="50.07707" lon="8.54707">
        <ele>148.446909</ele>
        <time>2023-07-03T08:07:15.653Z</time>
      </trkpt>
      <trkpt lat="50.07716" lon="8.54713">
        <ele>148.204391</ele>
        <time>2023-07-03T08:07:17.651Z</time>
      </trkpt>
      <trkpt lat="50.07725" lon="8.54719">
        <ele>147.963143</ele>
        <time>2023-07-03T08:07:19.648Z</time>
      </trkpt>
      <trkpt lat="50.07735" lon="8.54724">
        <ele>147.704071</ele>
        <time>2023-07-03T08:07:21.658Z</time>
      </trkpt>
      <trkpt lat="50.07745" lon="8.54729">
        <ele>147.427098</ele>
        <time>2023-07-03T08:07:23.668Z</time>
      </trkpt>
      <trkpt lat="50.07756" lon="8.54735">
        <ele>147.144861</ele>
        <time>2023-07-03T08:07:25.638Z</time>
      </trkpt>
      <trkpt lat="50.07767" lon="8.54742">
        <ele>146.846383</ele>
        <time>2023-07-03T08:07:27.724Z</time>
      </trkpt>
      <trkpt lat="50.07778" lon="8.5475">
        <ele>146.526321</ele>
        <time>2023-07-03T08:07:29.665Z</time>
      </trkpt>
      <trkpt lat="50.0779" lon="8.54762">
        <ele>146.190882</ele>
        <time>2023-07-03T08:07:31.659Z</time>
      </trkpt>
      <trkpt lat="50.07799" lon="8.54777">
        <ele>145.842392</ele>
        <time>2023-07-03T08:07:33.643Z</time>
      </trkpt>
      <trkpt lat="50.07807" lon="8.54797">
        <ele>145.473899</ele>
        <time>2023-07-03T08:07:35.635Z</time>
      </trkpt>
      <trkpt lat="50.07813" lon="8.54819">
        <ele>145.091181</ele>
        <time>2023-07-03T08:07:37.636Z</time>
      </trkpt>
      <trkpt lat="50.07816" lon="8.54842">
        <ele>144.697712</ele>
        <time>2023-07-03T08:07:39.648Z</time>
      </trkpt>
      <trkpt lat="50.0782" lon="8.54867">
        <ele>144.401215</ele>
        <time>2023-07-03T08:07:41.649Z</time>
      </trkpt>
      <trkpt lat="50.07823" lon="8.54892">
        <ele>144.178488</ele>
        <time>2023-07-03T08:07:43.656Z</time>
      </trkpt>
      <trkpt lat="50.07827" lon="8.54915">
        <ele>143.96269</ele>
        <time>2023-07-03T08:07:45.661Z</time>
      </trkpt>
      <trkpt lat="50.07833" lon="8.54933">
        <ele>143.778501</ele>
        <time>2023-07-03T08:07:47.667Z</time>
      </trkpt>
      <trkpt lat="50.07842" lon="8.54946">
        <ele>143.610537</ele>
        <time>2023-07-03T08:07:49.669Z</time>
      </trkpt>
      <trkpt lat="50.07852" lon="8.54957">
        <ele>143.43241</ele>
        <time>2023-07-03T08:07:51.639Z</time>
      </trkpt>
      <trkpt lat="50.07864" lon="8.54962">
        <ele>143.267904</ele>
        <time>2023-07-03T08:07:53.664Z</time>
      </trkpt>
      <trkpt lat="50.07876" lon="8.54961">
        <ele>143.09513</ele>
        <time>2023-07-03T08:07:55.655Z</time>
      </trkpt>
      <trkpt lat="50.07888" lon="8.54959">
        <ele>142.921621</ele>
        <time>2023-07-03T08:07:57.650Z</time>
      </trkpt>
      <trkpt lat="50.079" lon="8.54959">
        <ele>142.755839</ele>
        <time>2023-07-03T08:07:59.665Z</time>
      </trkpt>
      <trkpt lat="50.0791" lon="8.54965">
        <ele>142.610509</ele>
        <time>2023-07-03T08:08:01.647Z</time>
      </trkpt>
      <trkpt lat="50.07917" lon="8.54978">
        <ele>142.45701</ele>
        <time>2023-07-03T08:08:03.646Z</time>
      </trkpt>
      <trkpt lat="50.07922" lon="8.54992">
        <ele>142.313508</ele>
        <time>2023-07-03T08:08:05.636Z</time>
      </trkpt>
      <trkpt lat="50.07928" lon="8.55005">
        <ele>142.168402</ele>
        <time>2023-07-03T08:08:07.644Z</time>
      </trkpt>
      <trkpt lat="50.07934" lon="8.55019">
        <ele>142.036817</ele>
        <time>2023-07-03T08:08:09.652Z</time>
      </trkpt>
      <trkpt lat="50.07941" lon="8.55032">
        <ele>142.029647</ele>
        <time>2023-07-03T08:08:11.668Z</time>
      </trkpt>
      <trkpt lat="50.07948" lon="8.55045">
        <ele>142.022276</ele>
        <time>2023-07-03T08:08:13.651Z</time>
      </trkpt>
      <trkpt lat="50.07954" lon="8.55058">
        <ele>142.015166</ele>
        <time>2023-07-03T08:08:15.654Z</time>
      </trkpt>
      <trkpt lat="50.07961" lon="8.55071">
        <ele>142.008138</ele>
        <time>2023-07-03T08:08:17.647Z</time>
      </trkpt>
      <trkpt lat="50.07967" lon="8.55084">
        <ele>142.001129</ele>
        <time>2023-07-03T08:08:19.648Z</time>
      </trkpt>
      <trkpt lat="50.07974" lon="8.55097">
        <ele>141.993895</ele>
        <time>2023-07-03T08:08:21.655Z</time>
      </trkpt>
      <trkpt lat="50.07981" lon="8.5511">
        <ele>141.986538</ele>
        <time>2023-07-03T08:08:23.652Z</time>
      </trkpt>
      <trkpt lat="50.07988" lon="8.55124">
        <ele>141.979167</ele>
        <time>2023-07-03T08:08:25.651Z</time>
      </trkpt>
      <trkpt lat="50.07994" lon="8.55137">
        <ele>141.97175</ele>
        <time>2023-07-03T08:08:27.669Z</time>
      </trkpt>
      <trkpt lat="50.08001" lon="8.55151">
        <ele>141.96416</ele>
        <time>2023-07-03T08:08:29.663Z</time>
      </trkpt>
      <trkpt lat="50.08008" lon="8.55165">
        <ele>141.956571</ele>
        <time>2023-07-03T08:08:31.646Z</time>
      </trkpt>
      <trkpt lat="50.08016" lon="8.55178">
        <ele>141.949006</ele>
        <time>2023-07-03T08:08:33.654Z</time>
      </trkpt>
      <trkpt lat="50.08023" lon="8.55191">
        <ele>141.941581</ele>
        <time>2023-07-03T08:08:35.660Z</time>
      </trkpt>
      <trkpt lat="50.0803" lon="8.55206">
        <ele>141.933686</ele>
        <time>2023-07-03T08:08:37.654Z</time>
      </trkpt>
      <trkpt lat="50.08037" lon="8.5522">
        <ele>141.926071</ele>
        <time>2023-07-03T08:08:39.661Z</time>
      </trkpt>
      <trkpt lat="50.08045" lon="8.55234">
        <ele>141.918102</ele>
        <time>2023-07-03T08:08:41.652Z</time>
      </trkpt>
      <trkpt lat="50.08052" lon="8.55248">
        <ele>141.915564</ele>
        <time>2023-07-03T08:08:43.650Z</time>
      </trkpt>
      <trkpt lat="50.08059" lon="8.55262">
        <ele>141.913971</ele>
        <time>2023-07-03T08:08:45.657Z</time>
      </trkpt>
      <trkpt lat="50.08067" lon="8.55276">
        <ele>141.912338</ele>
        <time>2023-07-03T08:08:47.653Z</time>
      </trkpt>
      <trkpt lat="50.08074" lon="8.5529">
        <ele>141.910729</ele>
        <time>2023-07-03T08:08:49.662Z</time>
      </trkpt>
      <trkpt lat="50.08081" lon="8.55304">
        <ele>141.909143</ele>
        <time>2023-07-03T08:08:51.670Z</time>
      </trkpt>
      <trkpt lat="50.08089" lon="8.55318">
        <ele>141.907539</ele>
        <time>2023-07-03T08:08:53.650Z</time>
      </trkpt>
      <trkpt lat="50.08096" lon="8.55331">
        <ele>141.905967</ele>
        <time>2023-07-03T08:08:55.653Z</time>
      </trkpt>
      <trkpt lat="50.08103" lon="8.55345">
        <ele>141.9044</ele>
        <time>2023-07-03T08:08:57.672Z</time>
      </trkpt>
      <trkpt lat="50.0811" lon="8.55358">
        <ele>141.902852</ele>
        <time>2023-07-03T08:08:59.652Z</time>
      </trkpt>
      <trkpt lat="50.08117" lon="8.55372">
        <ele>141.901323</ele>
        <time>2023-07-03T08:09:01.648Z</time>
      </trkpt>
      <trkpt lat="50.08124" lon="8.55385">
        <ele>141.899777</ele>
        <time>2023-07-03T08:09:03.660Z</time>
      </trkpt>
      <trkpt lat="50.08131" lon="8.55398">
        <ele>141.898301</ele>
        <time>2023-07-03T08:09:05.653Z</time>
      </trkpt>
      <trkpt lat="50.08138" lon="8.55409">
        <ele>141.896919</ele>
        <time>2023-07-03T08:09:07.628Z</time>
      </trkpt>
      <trkpt lat="50.08144" lon="8.5542">
        <ele>141.895637</ele>
        <time>2023-07-03T08:09:09.667Z</time>
      </trkpt>
      <trkpt lat="50.08153" lon="8.55435">
        <ele>141.893782</ele>
        <time>2023-07-03T08:09:12.666Z</time>
      </trkpt>
      <trkpt lat="50.08162" lon="8.55449">
        <ele>141.892071</ele>
        <time>2023-07-03T08:09:15.655Z</time>
      </trkpt>
      <trkpt lat="50.0817" lon="8.55457">
        <ele>141.886016</ele>
        <time>2023-07-03T08:09:18.653Z</time>
      </trkpt>
      <trkpt lat="50.0818" lon="8.55477">
        <ele>141.875703</ele>
        <time>2023-07-03T08:09:46.658Z</time>
      </trkpt>
      <trkpt lat="50.08187" lon="8.55488">
        <ele>141.869217</ele>
        <time>2023-07-03T08:09:49.676Z</time>
      </trkpt>
      <trkpt lat="50.08194" lon="8.55498">
        <ele>141.86287</ele>
        <time>2023-07-03T08:09:52.669Z</time>
      </trkpt>
      <trkpt lat="50.08202" lon="8.55511">
        <ele>141.855524</ele>
        <time>2023-07-03T08:09:55.661Z</time>
      </trkpt>
      <trkpt lat="50.08211" lon="8.55525">
        <ele>141.84736</ele>
        <time>2023-07-03T08:09:58.658Z</time>
      </trkpt>
      <trkpt lat="50.0822" lon="8.55539">
        <ele>141.839137</ele>
        <time>2023-07-03T08:10:01.654Z</time>
      </trkpt>
      <trkpt lat="50.08229" lon="8.55553">
        <ele>141.83088</ele>
        <time>2023-07-03T08:10:04.659Z</time>
      </trkpt>
      <trkpt lat="50.08235" lon="8.55565">
        <ele>141.824929</ele>
        <time>2023-07-03T08:10:06.663Z</time>
      </trkpt>
      <trkpt lat="50.08241" lon="8.55575">
        <ele>141.818897</ele>
        <time>2023-07-03T08:10:08.670Z</time>
      </trkpt>
      <trkpt lat="50.08248" lon="8.55586">
        <ele>141.812745</ele>
        <time>2023-07-03T08:10:10.667Z</time>
      </trkpt>
      <trkpt lat="50.08255" lon="8.55597">
        <ele>141.806414</ele>
        <time>2023-07-03T08:10:12.657Z</time>
      </trkpt>
      <trkpt lat="50.08262" lon="8.55607">
        <ele>141.800124</ele>
        <time>2023-07-03T08:10:14.660Z</time>
      </trkpt>
      <trkpt lat="50.08268" lon="8.55619">
        <ele>141.793663</ele>
        <time>2023-07-03T08:10:16.659Z</time>
      </trkpt>
      <trkpt lat="50.08275" lon="8.55631">
        <ele>141.787211</ele>
        <time>2023-07-03T08:10:18.650Z</time>
      </trkpt>
      <trkpt lat="50.08281" lon="8.55644">
        <ele>141.780623</ele>
        <time>2023-07-03T08:10:20.660Z</time>
      </trkpt>
      <trkpt lat="50.08288" lon="8.55655">
        <ele>141.788083</ele>
        <time>2023-07-03T08:10:22.666Z</time>
      </trkpt>
      <trkpt lat="50.08296" lon="8.55668">
        <ele>141.826343</ele>
        <time>2023-07-03T08:10:24.652Z</time>
      </trkpt>
      <trkpt lat="50.08303" lon="8.55681">
        <ele>141.865874</ele>
        <time>2023-07-03T08:10:26.641Z</time>
      </trkpt>
      <trkpt lat="50.08309" lon="8.55695">
        <ele>141.90578</ele>
        <time>2023-07-03T08:10:28.654Z</time>
      </trkpt>
      <trkpt lat="50.08316" lon="8.55709">
        <ele>141.944825</ele>
        <time>2023-07-03T08:10:30.663Z</time>
      </trkpt>
      <trkpt lat="50.08322" lon="8.55722">
        <ele>141.982646</ele>
        <time>2023-07-03T08:10:32.659Z</time>
      </trkpt>
      <trkpt lat="50.08328" lon="8.55736">
        <ele>142.021187</ele>
        <time>2023-07-03T08:10:34.678Z</time>
      </trkpt>
      <trkpt lat="50.08334" lon="8.5575">
        <ele>142.060277</ele>
        <time>2023-07-03T08:10:36.654Z</time>
      </trkpt>
      <trkpt lat="50.0834" lon="8.55765">
        <ele>142.098996</ele>
        <time>2023-07-03T08:10:38.649Z</time>
      </trkpt>
      <trkpt lat="50.08345" lon="8.5578">
        <ele>142.137771</ele>
        <time>2023-07-03T08:10:40.661Z</time>
      </trkpt>
      <trkpt lat="50.08351" lon="8.55795">
        <ele>142.178802</ele>
        <time>2023-07-03T08:10:42.728Z</time>
      </trkpt>
      <trkpt lat="50.08357" lon="8.55809">
        <ele>142.218477</ele>
        <time>2023-07-03T08:10:44.657Z</time>
      </trkpt>
      <trkpt lat="50.08363" lon="8.55824">
        <ele>142.258347</ele>
        <time>2023-07-03T08:10:46.673Z</time>
      </trkpt>
      <trkpt lat="50.08369" lon="8.55839">
        <ele>142.298397</ele>
        <time>2023-07-03T08:10:48.657Z</time>
      </trkpt>
      <trkpt lat="50.08375" lon="8.55855">
        <ele>142.340615</ele>
        <time>2023-07-03T08:10:50.655Z</time>
      </trkpt>
      <trkpt lat="50.08381" lon="8.55871">
        <ele>142.383319</ele>
        <time>2023-07-03T08:10:52.644Z</time>
      </trkpt>
      <trkpt lat="50.08387" lon="8.55888">
        <ele>142.412503</ele>
        <time>2023-07-03T08:10:54.641Z</time>
      </trkpt>
      <trkpt lat="50.08392" lon="8.55904">
        <ele>142.388516</ele>
        <time>2023-07-03T08:10:56.661Z</time>
      </trkpt>
      <trkpt lat="50.08399" lon="8.55921">
        <ele>142.364203</ele>
        <time>2023-07-03T08:10:58.653Z</time>
      </trkpt>
      <trkpt lat="50.08405" lon="8.55936">
        <ele>142.340965</ele>
        <time>2023-07-03T08:11:00.662Z</time>
      </trkpt>
      <trkpt lat="50.08412" lon="8.55951">
        <ele>142.318272</ele>
        <time>2023-07-03T08:11:02.660Z</time>
      </trkpt>
      <trkpt lat="50.08419" lon="8.55964">
        <ele>142.295597</ele>
        <time>2023-07-03T08:11:04.667Z</time>
      </trkpt>
      <trkpt lat="50.08426" lon="8.55978">
        <ele>142.273502</ele>
        <time>2023-07-03T08:11:06.646Z</time>
      </trkpt>
      <trkpt lat="50.08433" lon="8.55992">
        <ele>142.251817</ele>
        <time>2023-07-03T08:11:08.651Z</time>
      </trkpt>
      <trkpt lat="50.0844" lon="8.56004">
        <ele>142.231031</ele>
        <time>2023-07-03T08:11:10.666Z</time>
      </trkpt>
      <trkpt lat="50.08447" lon="8.56017">
        <ele>142.209549</ele>
        <time>2023-07-03T08:11:12.660Z</time>
      </trkpt>
      <trkpt lat="50.08454" lon="8.56031">
        <ele>142.186785</ele>
        <time>2023-07-03T08:11:14.660Z</time>
      </trkpt>
      <trkpt lat="50.08461" lon="8.56045">
        <ele>142.164518</ele>
        <time>2023-07-03T08:11:16.654Z</time>
      </trkpt>
      <trkpt lat="50.08468" lon="8.56059">
        <ele>142.141509</ele>
        <time>2023-07-03T08:11:18.662Z</time>
      </trkpt>
      <trkpt lat="50.08475" lon="8.56073">
        <ele>142.119761</ele>
        <time>2023-07-03T08:11:20.663Z</time>
      </trkpt>
      <trkpt lat="50.08482" lon="8.56087">
        <ele>142.097371</ele>
        <time>2023-07-03T08:11:22.658Z</time>
      </trkpt>
      <trkpt lat="50.0849" lon="8.561">
        <ele>142.075149</ele>
        <time>2023-07-03T08:11:24.675Z</time>
      </trkpt>
      <trkpt lat="50.08497" lon="8.56113">
        <ele>142.059052</ele>
        <time>2023-07-03T08:11:26.667Z</time>
      </trkpt>
      <trkpt lat="50.08503" lon="8.56128">
        <ele>142.050872</ele>
        <time>2023-07-03T08:11:28.657Z</time>
      </trkpt>
      <trkpt lat="50.0851" lon="8.56143">
        <ele>142.04202</ele>
        <time>2023-07-03T08:11:30.652Z</time>
      </trkpt>
      <trkpt lat="50.08517" lon="8.5616">
        <ele>142.033062</ele>
        <time>2023-07-03T08:11:32.657Z</time>
      </trkpt>
      <trkpt lat="50.08524" lon="8.56176">
        <ele>142.023814</ele>
        <time>2023-07-03T08:11:34.671Z</time>
      </trkpt>
      <trkpt lat="50.08532" lon="8.5619">
        <ele>142.014958</ele>
        <time>2023-07-03T08:11:36.653Z</time>
      </trkpt>
      <trkpt lat="50.08538" lon="8.56206">
        <ele>142.006508</ele>
        <time>2023-07-03T08:11:38.681Z</time>
      </trkpt>
      <trkpt lat="50.08544" lon="8.56221">
        <ele>141.9982</ele>
        <time>2023-07-03T08:11:40.655Z</time>
      </trkpt>
      <trkpt lat="50.08549" lon="8.56237">
        <ele>141.989838</ele>
        <time>2023-07-03T08:11:42.666Z</time>
      </trkpt>
      <trkpt lat="50.08554" lon="8.56253">
        <ele>141.981866</ele>
        <time>2023-07-03T08:11:44.665Z</time>
      </trkpt>
      <trkpt lat="50.08559" lon="8.56269">
        <ele>141.973657</ele>
        <time>2023-07-03T08:11:46.655Z</time>
      </trkpt>
      <trkpt lat="50.08563" lon="8.56285">
        <ele>141.965509</ele>
        <time>2023-07-03T08:11:48.665Z</time>
      </trkpt>
      <trkpt lat="50.08567" lon="8.56301">
        <ele>141.957388</ele>
        <time>2023-07-03T08:11:50.657Z</time>
      </trkpt>
      <trkpt lat="50.08572" lon="8.56316">
        <ele>141.949722</ele>
        <time>2023-07-03T08:11:52.657Z</time>
      </trkpt>
      <trkpt lat="50.08577" lon="8.56332">
        <ele>141.941584</ele>
        <time>2023-07-03T08:11:54.666Z</time>
      </trkpt>
      <trkpt lat="50.08581" lon="8.56348">
        <ele>141.933294</ele>
        <time>2023-07-03T08:11:56.637Z</time>
      </trkpt>
      <trkpt lat="50.08585" lon="8.56364">
        <ele>142.083528</ele>
        <time>2023-07-03T08:11:58.664Z</time>
      </trkpt>
      <trkpt lat="50.0859" lon="8.56381">
        <ele>142.258385</ele>
        <time>2023-07-03T08:12:00.657Z</time>
      </trkpt>
      <trkpt lat="50.08594" lon="8.56399">
        <ele>142.448828</ele>
        <time>2023-07-03T08:12:02.646Z</time>
      </trkpt>
      <trkpt lat="50.08598" lon="8.56416">
        <ele>142.634959</ele>
        <time>2023-07-03T08:12:04.673Z</time>
      </trkpt>
      <trkpt lat="50.08603" lon="8.56434">
        <ele>142.824098</ele>
        <time>2023-07-03T08:12:06.665Z</time>
      </trkpt>
      <trkpt lat="50.08607" lon="8.56451">
        <ele>143.012992</ele>
        <time>2023-07-03T08:12:08.659Z</time>
      </trkpt>
      <trkpt lat="50.08612" lon="8.5647">
        <ele>143.20836</ele>
        <time>2023-07-03T08:12:10.654Z</time>
      </trkpt>
      <trkpt lat="50.08616" lon="8.5649">
        <ele>143.417211</ele>
        <time>2023-07-03T08:12:12.670Z</time>
      </trkpt>
      <trkpt lat="50.08619" lon="8.56511">
        <ele>143.632094</ele>
        <time>2023-07-03T08:12:14.659Z</time>
      </trkpt>
      <trkpt lat="50.08622" lon="8.56531">
        <ele>143.838903</ele>
        <time>2023-07-03T08:12:16.644Z</time>
      </trkpt>
      <trkpt lat="50.08626" lon="8.56549">
        <ele>144.020938</ele>
        <time>2023-07-03T08:12:18.657Z</time>
      </trkpt>
      <trkpt lat="50.08627" lon="8.56565">
        <ele>144.178196</ele>
        <time>2023-07-03T08:12:20.658Z</time>
      </trkpt>
      <trkpt lat="50.08628" lon="8.56579">
        <ele>144.325165</ele>
        <time>2023-07-03T08:12:22.633Z</time>
      </trkpt>
      <trkpt lat="50.08629" lon="8.56598">
        <ele>144.514439</ele>
        <time>2023-07-03T08:12:25.652Z</time>
      </trkpt>
      <trkpt lat="50.08628" lon="8.56616">
        <ele>144.685201</ele>
        <time>2023-07-03T08:12:28.634Z</time>
      </trkpt>
      <trkpt lat="50.08628" lon="8.56634">
        <ele>144.696115</ele>
        <time>2023-07-03T08:12:31.656Z</time>
      </trkpt>
      <trkpt lat="50.08627" lon="8.56651">
        <ele>144.676621</ele>
        <time>2023-07-03T08:12:34.654Z</time>
      </trkpt>
      <trkpt lat="50.08626" lon="8.56668">
        <ele>144.656995</ele>
        <time>2023-07-03T08:12:37.657Z</time>
      </trkpt>
      <trkpt lat="50.08624" lon="8.56685">
        <ele>144.636896</ele>
        <time>2023-07-03T08:12:40.656Z</time>
      </trkpt>
      <trkpt lat="50.08623" lon="8.56701">
        <ele>144.618744</ele>
        <time>2023-07-03T08:12:43.663Z</time>
      </trkpt>
      <trkpt lat="50.08621" lon="8.56716">
        <ele>144.601217</ele>
        <time>2023-07-03T08:12:46.655Z</time>
      </trkpt>
      <trkpt lat="50.0862" lon="8.56731">
        <ele>144.5835</ele>
        <time>2023-07-03T08:12:49.664Z</time>
      </trkpt>
      <trkpt lat="50.08619" lon="8.56747">
        <ele>144.565326</ele>
        <time>2023-07-03T08:12:52.661Z</time>
      </trkpt>
      <trkpt lat="50.08616" lon="8.56764">
        <ele>144.545807</ele>
        <time>2023-07-03T08:12:55.668Z</time>
      </trkpt>
      <trkpt lat="50.08612" lon="8.56782">
        <ele>144.52386</ele>
        <time>2023-07-03T08:12:58.677Z</time>
      </trkpt>
      <trkpt lat="50.0861" lon="8.56797">
        <ele>144.506793</ele>
        <time>2023-07-03T08:13:00.660Z</time>
      </trkpt>
      <trkpt lat="50.08607" lon="8.56813">
        <ele>144.487336</ele>
        <time>2023-07-03T08:13:02.663Z</time>
      </trkpt>
      <trkpt lat="50.08604" lon="8.56832">
        <ele>144.465319</ele>
        <time>2023-07-03T08:13:04.679Z</time>
      </trkpt>
      <trkpt lat="50.086" lon="8.56852">
        <ele>144.441758</ele>
        <time>2023-07-03T08:13:06.656Z</time>
      </trkpt>
      <trkpt lat="50.08597" lon="8.56872">
        <ele>144.41751</ele>
        <time>2023-07-03T08:13:08.661Z</time>
      </trkpt>
      <trkpt lat="50.08593" lon="8.56894">
        <ele>144.388045</ele>
        <time>2023-07-03T08:13:10.657Z</time>
      </trkpt>
      <trkpt lat="50.0859" lon="8.56911">
        <ele>144.345753</ele>
        <time>2023-07-03T08:13:12.664Z</time>
      </trkpt>
      <trkpt lat="50.08586" lon="8.5693">
        <ele>144.299828</ele>
        <time>2023-07-03T08:13:15.663Z</time>
      </trkpt>
      <trkpt lat="50.08591" lon="8.56943">
        <ele>144.26402</ele>
        <time>2023-07-03T08:13:18.643Z</time>
      </trkpt>
      <trkpt lat="50.08599" lon="8.56954">
        <ele>144.222982</ele>
        <time>2023-07-03T08:13:21.633Z</time>
      </trkpt>
      <trkpt lat="50.08609" lon="8.5696">
        <ele>144.182665</ele>
        <time>2023-07-03T08:13:24.676Z</time>
      </trkpt>
      <trkpt lat="50.0862" lon="8.56966">
        <ele>144.138926</ele>
        <time>2023-07-03T08:13:27.653Z</time>
      </trkpt>
      <trkpt lat="50.08632" lon="8.56972">
        <ele>144.09463</ele>
        <time>2023-07-03T08:13:30.676Z</time>
      </trkpt>
      <trkpt lat="50.08642" lon="8.56979">
        <ele>144.051601</ele>
        <time>2023-07-03T08:13:33.651Z</time>
      </trkpt>
      <trkpt lat="50.08653" lon="8.56985">
        <ele>144.008684</ele>
        <time>2023-07-03T08:13:36.648Z</time>
      </trkpt>
      <trkpt lat="50.08662" lon="8.5699">
        <ele>143.975127</ele>
        <time>2023-07-03T08:13:38.653Z</time>
      </trkpt>
      <trkpt lat="50.08674" lon="8.56996">
        <ele>143.925634</ele>
        <time>2023-07-03T08:13:41.664Z</time>
      </trkpt>
      <trkpt lat="50.08687" lon="8.57004">
        <ele>143.874464</ele>
        <time>2023-07-03T08:13:44.650Z</time>
      </trkpt>
      <trkpt lat="50.08696" lon="8.57008">
        <ele>143.839286</ele>
        <time>2023-07-03T08:13:46.648Z</time>
      </trkpt>
      <trkpt lat="50.08705" lon="8.57012">
        <ele>143.805293</ele>
        <time>2023-07-03T08:13:48.657Z</time>
      </trkpt>
      <trkpt lat="50.08713" lon="8.57018">
        <ele>143.771091</ele>
        <time>2023-07-03T08:13:50.656Z</time>
      </trkpt>
      <trkpt lat="50.0872" lon="8.57027">
        <ele>143.737399</ele>
        <time>2023-07-03T08:13:52.644Z</time>
      </trkpt>
      <trkpt lat="50.08725" lon="8.57039">
        <ele>143.693661</ele>
        <time>2023-07-03T08:13:54.641Z</time>
      </trkpt>
      <trkpt lat="50.0873" lon="8.57059">
        <ele>143.618632</ele>
        <time>2023-07-03T08:13:57.649Z</time>
      </trkpt>
      <trkpt lat="50.08738" lon="8.57076">
        <ele>143.544287</ele>
        <time>2023-07-03T08:14:00.675Z</time>
      </trkpt>
      <trkpt lat="50.08746" lon="8.57091">
        <ele>143.474341</ele>
        <time>2023-07-03T08:14:03.656Z</time>
      </trkpt>
      <trkpt lat="50.08757" lon="8.57101">
        <ele>143.403239</ele>
        <time>2023-07-03T08:14:06.664Z</time>
      </trkpt>
      <trkpt lat="50.08769" lon="8.57111">
        <ele>143.327994</ele>
        <time>2023-07-03T08:14:09.652Z</time>
      </trkpt>
      <trkpt lat="50.08778" lon="8.57126">
        <ele>143.253668</ele>
        <time>2023-07-03T08:14:12.654Z</time>
      </trkpt>
      <trkpt lat="50.08782" lon="8.57139">
        <ele>143.204079</ele>
        <time>2023-07-03T08:14:14.651Z</time>
      </trkpt>
      <trkpt lat="50.08778" lon="8.57158">
        <ele>143.130988</ele>
        <time>2023-07-03T08:14:17.653Z</time>
      </trkpt>
      <trkpt lat="50.08775" lon="8.57172">
        <ele>143.078666</ele>
        <time>2023-07-03T08:14:19.660Z</time>
      </trkpt>
      <trkpt lat="50.08771" lon="8.57193">
        <ele>143.002214</ele>
        <time>2023-07-03T08:14:22.654Z</time>
      </trkpt>
      <trkpt lat="50.08768" lon="8.57206">
        <ele>142.951076</ele>
        <time>2023-07-03T08:14:24.659Z</time>
      </trkpt>
      <trkpt lat="50.08765" lon="8.5722">
        <ele>142.899246</ele>
        <time>2023-07-03T08:14:26.659Z</time>
      </trkpt>
      <trkpt lat="50.08761" lon="8.57241">
        <ele>142.823906</ele>
        <time>2023-07-03T08:14:29.665Z</time>
      </trkpt>
      <trkpt lat="50.08759" lon="8.57256">
        <ele>142.769237</ele>
        <time>2023-07-03T08:14:31.657Z</time>
      </trkpt>
      <trkpt lat="50.08757" lon="8.57271">
        <ele>142.745426</ele>
        <time>2023-07-03T08:14:33.655Z</time>
      </trkpt>
      <trkpt lat="50.08755" lon="8.57285">
        <ele>142.805948</ele>
        <time>2023-07-03T08:14:35.656Z</time>
      </trkpt>
      <trkpt lat="50.08753" lon="8.573">
        <ele>142.868798</ele>
        <time>2023-07-03T08:14:37.649Z</time>
      </trkpt>
      <trkpt lat="50.08752" lon="8.57314">
        <ele>142.930078</ele>
        <time>2023-07-03T08:14:39.644Z</time>
      </trkpt>
      <trkpt lat="50.0875" lon="8.57329">
        <ele>142.99177</ele>
        <time>2023-07-03T08:14:41.654Z</time>
      </trkpt>
      <trkpt lat="50.08754" lon="8.57348">
        <ele>143.075678</ele>
        <time>2023-07-03T08:14:44.645Z</time>
      </trkpt>
      <trkpt lat="50.08764" lon="8.57359">
        <ele>143.159122</ele>
        <time>2023-07-03T08:14:47.655Z</time>
      </trkpt>
      <trkpt lat="50.08773" lon="8.57365">
        <ele>143.219384</ele>
        <time>2023-07-03T08:14:49.634Z</time>
      </trkpt>
      <trkpt lat="50.08781" lon="8.57371">
        <ele>143.281943</ele>
        <time>2023-07-03T08:14:51.668Z</time>
      </trkpt>
      <trkpt lat="50.0879" lon="8.57378">
        <ele>143.345092</ele>
        <time>2023-07-03T08:14:53.676Z</time>
      </trkpt>
      <trkpt lat="50.08799" lon="8.57383">
        <ele>143.406143</ele>
        <time>2023-07-03T08:14:55.655Z</time>
      </trkpt>
      <trkpt lat="50.08808" lon="8.57389">
        <ele>143.470071</ele>
        <time>2023-07-03T08:14:57.655Z</time>
      </trkpt>
      <trkpt lat="50.08817" lon="8.57395">
        <ele>143.534324</ele>
        <time>2023-07-03T08:14:59.666Z</time>
      </trkpt>
      <trkpt lat="50.08827" lon="8.57401">
        <ele>143.60342</ele>
        <time>2023-07-03T08:15:01.664Z</time>
      </trkpt>
      <trkpt lat="50.08836" lon="8.57407">
        <ele>143.664953</ele>
        <time>2023-07-03T08:15:03.665Z</time>
      </trkpt>
      <trkpt lat="50.08845" lon="8.57412">
        <ele>143.726946</ele>
        <time>2023-07-03T08:15:05.629Z</time>
      </trkpt>
      <trkpt lat="50.08855" lon="8.57416">
        <ele>143.794712</ele>
        <time>2023-07-03T08:15:07.646Z</time>
      </trkpt>
      <trkpt lat="50.08864" lon="8.57421">
        <ele>143.859858</ele>
        <time>2023-07-03T08:15:09.642Z</time>
      </trkpt>
      <trkpt lat="50.08873" lon="8.57426">
        <ele>143.932774</ele>
        <time>2023-07-03T08:15:11.665Z</time>
      </trkpt>
      <trkpt lat="50.08883" lon="8.5743">
        <ele>144.042821</ele>
        <time>2023-07-03T08:15:13.665Z</time>
      </trkpt>
      <trkpt lat="50.08889" lon="8.57446">
        <ele>144.177918</ele>
        <time>2023-07-03T08:15:16.655Z</time>
      </trkpt>
      <trkpt lat="50.08884" lon="8.57463">
        <ele>144.303773</ele>
        <time>2023-07-03T08:15:18.648Z</time>
      </trkpt>
      <trkpt lat="50.0888" lon="8.57478">
        <ele>144.418545</ele>
        <time>2023-07-03T08:15:20.647Z</time>
      </trkpt>
      <trkpt lat="50.08878" lon="8.57494">
        <ele>144.530181</ele>
        <time>2023-07-03T08:15:22.671Z</time>
      </trkpt>
      <trkpt lat="50.08876" lon="8.57509">
        <ele>144.636498</ele>
        <time>2023-07-03T08:15:24.652Z</time>
      </trkpt>
      <trkpt lat="50.08877" lon="8.57524">
        <ele>144.741648</ele>
        <time>2023-07-03T08:15:26.679Z</time>
      </trkpt>
      <trkpt lat="50.08883" lon="8.57537">
        <ele>144.85103</ele>
        <time>2023-07-03T08:15:28.684Z</time>
      </trkpt>
      <trkpt lat="50.08889" lon="8.57549">
        <ele>144.960365</ele>
        <time>2023-07-03T08:15:30.627Z</time>
      </trkpt>
      <trkpt lat="50.08895" lon="8.57562">
        <ele>145.069369</ele>
        <time>2023-07-03T08:15:32.654Z</time>
      </trkpt>
      <trkpt lat="50.08901" lon="8.57573">
        <ele>145.169896</ele>
        <time>2023-07-03T08:15:34.666Z</time>
      </trkpt>
      <trkpt lat="50.08907" lon="8.57584">
        <ele>145.268663</ele>
        <time>2023-07-03T08:15:36.656Z</time>
      </trkpt>
      <trkpt lat="50.08913" lon="8.57594">
        <ele>145.372591</ele>
        <time>2023-07-03T08:15:38.667Z</time>
      </trkpt>
      <trkpt lat="50.08924" lon="8.57606">
        <ele>145.511411</ele>
        <time>2023-07-03T08:15:41.644Z</time>
      </trkpt>
      <trkpt lat="50.08934" lon="8.57615">
        <ele>145.641446</ele>
        <time>2023-07-03T08:15:44.669Z</time>
      </trkpt>
      <trkpt lat="50.08943" lon="8.57622">
        <ele>145.748846</ele>
        <time>2023-07-03T08:15:46.638Z</time>
      </trkpt>
      <trkpt lat="50.08951" lon="8.57631">
        <ele>145.833968</ele>
        <time>2023-07-03T08:15:48.651Z</time>
      </trkpt>
      <trkpt lat="50.08959" lon="8.57648">
        <ele>145.592465</ele>
        <time>2023-07-03T08:15:51.663Z</time>
      </trkpt>
      <trkpt lat="50.08958" lon="8.57662">
        <ele>145.420567</ele>
        <time>2023-07-03T08:15:53.649Z</time>
      </trkpt>
      <trkpt lat="50.08953" lon="8.57676">
        <ele>145.229276</ele>
        <time>2023-07-03T08:15:55.651Z</time>
      </trkpt>
      <trkpt lat="50.08948" lon="8.57689">
        <ele>145.049996</ele>
        <time>2023-07-03T08:15:57.662Z</time>
      </trkpt>
      <trkpt lat="50.08942" lon="8.57701">
        <ele>144.869414</ele>
        <time>2023-07-03T08:15:59.659Z</time>
      </trkpt>
      <trkpt lat="50.08937" lon="8.57714">
        <ele>144.698031</ele>
        <time>2023-07-03T08:16:01.687Z</time>
      </trkpt>
      <trkpt lat="50.08931" lon="8.57726">
        <ele>144.518247</ele>
        <time>2023-07-03T08:16:03.654Z</time>
      </trkpt>
      <trkpt lat="50.08926" lon="8.57738">
        <ele>144.346894</ele>
        <time>2023-07-03T08:16:05.654Z</time>
      </trkpt>
      <trkpt lat="50.08921" lon="8.5775">
        <ele>144.18148</ele>
        <time>2023-07-03T08:16:07.673Z</time>
      </trkpt>
      <trkpt lat="50.08917" lon="8.5777">
        <ele>143.93314</ele>
        <time>2023-07-03T08:16:10.635Z</time>
      </trkpt>
      <trkpt lat="50.08914" lon="8.57787">
        <ele>143.727924</ele>
        <time>2023-07-03T08:16:12.653Z</time>
      </trkpt>
      <trkpt lat="50.0891" lon="8.57804">
        <ele>143.519254</ele>
        <time>2023-07-03T08:16:14.654Z</time>
      </trkpt>
      <trkpt lat="50.08905" lon="8.5782">
        <ele>143.30025</ele>
        <time>2023-07-03T08:16:16.647Z</time>
      </trkpt>
      <trkpt lat="50.08901" lon="8.57837">
        <ele>143.091025</ele>
        <time>2023-07-03T08:16:18.651Z</time>
      </trkpt>
      <trkpt lat="50.08896" lon="8.57854">
        <ele>142.872105</ele>
        <time>2023-07-03T08:16:20.654Z</time>
      </trkpt>
      <trkpt lat="50.08891" lon="8.57871">
        <ele>142.650641</ele>
        <time>2023-07-03T08:16:22.653Z</time>
      </trkpt>
      <trkpt lat="50.08886" lon="8.57888">
        <ele>142.472906</ele>
        <time>2023-07-03T08:16:24.663Z</time>
      </trkpt>
      <trkpt lat="50.08881" lon="8.57903">
        <ele>142.346798</ele>
        <time>2023-07-03T08:16:26.634Z</time>
      </trkpt>
      <trkpt lat="50.08876" lon="8.57918">
        <ele>142.221031</ele>
        <time>2023-07-03T08:16:28.666Z</time>
      </trkpt>
      <trkpt lat="50.08872" lon="8.57933">
        <ele>142.098964</ele>
        <time>2023-07-03T08:16:30.664Z</time>
      </trkpt>
      <trkpt lat="50.08866" lon="8.57947">
        <ele>141.967942</ele>
        <time>2023-07-03T08:16:32.657Z</time>
      </trkpt>
      <trkpt lat="50.0886" lon="8.57963">
        <ele>141.832368</ele>
        <time>2023-07-03T08:16:34.654Z</time>
      </trkpt>
      <trkpt lat="50.08855" lon="8.57979">
        <ele>141.69719</ele>
        <time>2023-07-03T08:16:36.647Z</time>
      </trkpt>
      <trkpt lat="50.08848" lon="8.57994">
        <ele>141.563627</ele>
        <time>2023-07-03T08:16:38.654Z</time>
      </trkpt>
      <trkpt lat="50.08843" lon="8.58009">
        <ele>141.431529</ele>
        <time>2023-07-03T08:16:40.660Z</time>
      </trkpt>
      <trkpt lat="50.08838" lon="8.58024">
        <ele>141.306357</ele>
        <time>2023-07-03T08:16:42.665Z</time>
      </trkpt>
      <trkpt lat="50.08833" lon="8.58039">
        <ele>141.17986</ele>
        <time>2023-07-03T08:16:44.662Z</time>
      </trkpt>
      <trkpt lat="50.08827" lon="8.58054">
        <ele>141.05057</ele>
        <time>2023-07-03T08:16:46.635Z</time>
      </trkpt>
      <trkpt lat="50.08822" lon="8.58068">
        <ele>140.928326</ele>
        <time>2023-07-03T08:16:48.677Z</time>
      </trkpt>
      <trkpt lat="50.08818" lon="8.58081">
        <ele>140.822732</ele>
        <time>2023-07-03T08:16:50.658Z</time>
      </trkpt>
      <trkpt lat="50.08813" lon="8.58096">
        <ele>140.696096</ele>
        <time>2023-07-03T08:16:53.654Z</time>
      </trkpt>
      <trkpt lat="50.08809" lon="8.5811">
        <ele>140.579762</ele>
        <time>2023-07-03T08:16:56.649Z</time>
      </trkpt>
      <trkpt lat="50.08805" lon="8.58123">
        <ele>140.474216</ele>
        <time>2023-07-03T08:16:59.649Z</time>
      </trkpt>
      <trkpt lat="50.08818" lon="8.5814">
        <ele>140.429653</ele>
        <time>2023-07-03T08:17:21.664Z</time>
      </trkpt>
      <trkpt lat="50.08827" lon="8.58148">
        <ele>140.416344</ele>
        <time>2023-07-03T08:17:25.651Z</time>
      </trkpt>
      <trkpt lat="50.08825" lon="8.58163">
        <ele>140.403108</ele>
        <time>2023-07-03T08:17:28.640Z</time>
      </trkpt>
      <trkpt lat="50.08826" lon="8.58181">
        <ele>140.387726</ele>
        <time>2023-07-03T08:17:31.650Z</time>
      </trkpt>
      <trkpt lat="50.08829" lon="8.58197">
        <ele>140.373657</ele>
        <time>2023-07-03T08:17:33.668Z</time>
      </trkpt>
      <trkpt lat="50.08833" lon="8.58214">
        <ele>140.358731</ele>
        <time>2023-07-03T08:17:35.658Z</time>
      </trkpt>
      <trkpt lat="50.08838" lon="8.58228">
        <ele>140.344945</ele>
        <time>2023-07-03T08:17:37.655Z</time>
      </trkpt>
      <trkpt lat="50.08841" lon="8.58244">
        <ele>140.330959</ele>
        <time>2023-07-03T08:17:39.652Z</time>
      </trkpt>
      <trkpt lat="50.08842" lon="8.58261">
        <ele>140.316601</ele>
        <time>2023-07-03T08:17:41.645Z</time>
      </trkpt>
      <trkpt lat="50.0884" lon="8.58278">
        <ele>140.301912</ele>
        <time>2023-07-03T08:17:43.659Z</time>
      </trkpt>
      <trkpt lat="50.08837" lon="8.58295">
        <ele>140.28754</ele>
        <time>2023-07-03T08:17:45.642Z</time>
      </trkpt>
      <trkpt lat="50.08835" lon="8.5831">
        <ele>140.274075</ele>
        <time>2023-07-03T08:17:47.689Z</time>
      </trkpt>
      <trkpt lat="50.08833" lon="8.58326">
        <ele>140.260511</ele>
        <time>2023-07-03T08:17:49.658Z</time>
      </trkpt>
      <trkpt lat="50.08831" lon="8.58341">
        <ele>140.247166</ele>
        <time>2023-07-03T08:17:51.656Z</time>
      </trkpt>
      <trkpt lat="50.08828" lon="8.58356">
        <ele>140.234261</ele>
        <time>2023-07-03T08:17:53.647Z</time>
      </trkpt>
      <trkpt lat="50.08824" lon="8.58371">
        <ele>140.220577</ele>
        <time>2023-07-03T08:17:55.658Z</time>
      </trkpt>
      <trkpt lat="50.08822" lon="8.58386">
        <ele>140.217567</ele>
        <time>2023-07-03T08:17:57.666Z</time>
      </trkpt>
      <trkpt lat="50.08819" lon="8.58402">
        <ele>140.229643</ele>
        <time>2023-07-03T08:17:59.638Z</time>
      </trkpt>
      <trkpt lat="50.08818" lon="8.58417">
        <ele>140.241626</ele>
        <time>2023-07-03T08:18:01.656Z</time>
      </trkpt>
      <trkpt lat="50.08816" lon="8.58433">
        <ele>140.253504</ele>
        <time>2023-07-03T08:18:03.650Z</time>
      </trkpt>
      <trkpt lat="50.08814" lon="8.58449">
        <ele>140.265828</ele>
        <time>2023-07-03T08:18:05.653Z</time>
      </trkpt>
      <trkpt lat="50.08811" lon="8.58464">
        <ele>140.27785</ele>
        <time>2023-07-03T08:18:07.655Z</time>
      </trkpt>
      <trkpt lat="50.08808" lon="8.58479">
        <ele>140.289816</ele>
        <time>2023-07-03T08:18:09.650Z</time>
      </trkpt>
      <trkpt lat="50.08805" lon="8.58494">
        <ele>140.301838</ele>
        <time>2023-07-03T08:18:11.654Z</time>
      </trkpt>
      <trkpt lat="50.08802" lon="8.58508">
        <ele>140.313176</ele>
        <time>2023-07-03T08:18:13.652Z</time>
      </trkpt>
      <trkpt lat="50.08798" lon="8.58523">
        <ele>140.324833</ele>
        <time>2023-07-03T08:18:15.666Z</time>
      </trkpt>
      <trkpt lat="50.08794" lon="8.58536">
        <ele>140.336117</ele>
        <time>2023-07-03T08:18:17.654Z</time>
      </trkpt>
      <trkpt lat="50.08791" lon="8.5855">
        <ele>140.347494</ele>
        <time>2023-07-03T08:18:19.665Z</time>
      </trkpt>
      <trkpt lat="50.08788" lon="8.58566">
        <ele>140.359374</ele>
        <time>2023-07-03T08:18:21.654Z</time>
      </trkpt>
      <trkpt lat="50.08787" lon="8.58581">
        <ele>140.371283</ele>
        <time>2023-07-03T08:18:23.652Z</time>
      </trkpt>
      <trkpt lat="50.08785" lon="8.58602">
        <ele>140.387165</ele>
        <time>2023-07-03T08:18:26.653Z</time>
      </trkpt>
      <trkpt lat="50.08784" lon="8.58617">
        <ele>140.398376</ele>
        <time>2023-07-03T08:18:28.655Z</time>
      </trkpt>
      <trkpt lat="50.08784" lon="8.58631">
        <ele>140.409264</ele>
        <time>2023-07-03T08:18:30.661Z</time>
      </trkpt>
      <trkpt lat="50.08784" lon="8.58646">
        <ele>140.420757</ele>
        <time>2023-07-03T08:18:32.653Z</time>
      </trkpt>
      <trkpt lat="50.08783" lon="8.58661">
        <ele>140.395668</ele>
        <time>2023-07-03T08:18:34.653Z</time>
      </trkpt>
      <trkpt lat="50.08782" lon="8.58675">
        <ele>140.350262</ele>
        <time>2023-07-03T08:18:36.644Z</time>
      </trkpt>
      <trkpt lat="50.08781" lon="8.58689">
        <ele>140.305442</ele>
        <time>2023-07-03T08:18:38.666Z</time>
      </trkpt>
      <trkpt lat="50.08781" lon="8.58704">
        <ele>140.258529</ele>
        <time>2023-07-03T08:18:40.657Z</time>
      </trkpt>
      <trkpt lat="50.08781" lon="8.5872">
        <ele>140.207869</ele>
        <time>2023-07-03T08:18:42.659Z</time>
      </trkpt>
      <trkpt lat="50.0878" lon="8.58735">
        <ele>140.159954</ele>
        <time>2023-07-03T08:18:44.661Z</time>
      </trkpt>
      <trkpt lat="50.08779" lon="8.5875">
        <ele>140.113378</ele>
        <time>2023-07-03T08:18:46.648Z</time>
      </trkpt>
      <trkpt lat="50.08779" lon="8.58765">
        <ele>140.068059</ele>
        <time>2023-07-03T08:18:48.658Z</time>
      </trkpt>
      <trkpt lat="50.08779" lon="8.58779">
        <ele>140.021816</ele>
        <time>2023-07-03T08:18:50.646Z</time>
      </trkpt>
      <trkpt lat="50.08778" lon="8.58795">
        <ele>139.973863</ele>
        <time>2023-07-03T08:18:52.671Z</time>
      </trkpt>
      <trkpt lat="50.08778" lon="8.5881">
        <ele>139.925757</ele>
        <time>2023-07-03T08:18:54.669Z</time>
      </trkpt>
      <trkpt lat="50.08779" lon="8.58828">
        <ele>139.868009</ele>
        <time>2023-07-03T08:18:56.649Z</time>
      </trkpt>
      <trkpt lat="50.08779" lon="8.58845">
        <ele>139.813612</ele>
        <time>2023-07-03T08:18:58.657Z</time>
      </trkpt>
      <trkpt lat="50.08778" lon="8.5886">
        <ele>139.766599</ele>
        <time>2023-07-03T08:19:00.637Z</time>
      </trkpt>
      <trkpt lat="50.08779" lon="8.58876">
        <ele>139.715826</ele>
        <time>2023-07-03T08:19:02.628Z</time>
      </trkpt>
      <trkpt lat="50.08779" lon="8.58892">
        <ele>139.667365</ele>
        <time>2023-07-03T08:19:04.649Z</time>
      </trkpt>
      <trkpt lat="50.08779" lon="8.58908">
        <ele>139.615171</ele>
        <time>2023-07-03T08:19:06.649Z</time>
      </trkpt>
      <trkpt lat="50.08779" lon="8.58925">
        <ele>139.56266</ele>
        <time>2023-07-03T08:19:08.671Z</time>
      </trkpt>
      <trkpt lat="50.08779" lon="8.58942">
        <ele>139.584569</ele>
        <time>2023-07-03T08:19:10.642Z</time>
      </trkpt>
      <trkpt lat="50.08779" lon="8.58958">
        <ele>139.648742</ele>
        <time>2023-07-03T08:19:12.657Z</time>
      </trkpt>
      <trkpt lat="50.08779" lon="8.58973">
        <ele>139.711323</ele>
        <time>2023-07-03T08:19:14.662Z</time>
      </trkpt>
      <trkpt lat="50.08779" lon="8.58989">
        <ele>139.77428</ele>
        <time>2023-07-03T08:19:16.651Z</time>
      </trkpt>
      <trkpt lat="50.08779" lon="8.59004">
        <ele>139.832062</ele>
        <time>2023-07-03T08:19:18.657Z</time>
      </trkpt>
      <trkpt lat="50.0878" lon="8.59019">
        <ele>139.893825</ele>
        <time>2023-07-03T08:19:20.652Z</time>
      </trkpt>
      <trkpt lat="50.0878" lon="8.59035">
        <ele>139.956508</ele>
        <time>2023-07-03T08:19:22.652Z</time>
      </trkpt>
      <trkpt lat="50.0878" lon="8.5905">
        <ele>140.017077</ele>
        <time>2023-07-03T08:19:24.655Z</time>
      </trkpt>
      <trkpt lat="50.0878" lon="8.59065">
        <ele>140.075638</ele>
        <time>2023-07-03T08:19:26.642Z</time>
      </trkpt>
      <trkpt lat="50.0878" lon="8.5908">
        <ele>140.136589</ele>
        <time>2023-07-03T08:19:28.655Z</time>
      </trkpt>
      <trkpt lat="50.08781" lon="8.59095">
        <ele>140.196016</ele>
        <time>2023-07-03T08:19:30.649Z</time>
      </trkpt>
      <trkpt lat="50.08781" lon="8.5911">
        <ele>140.255917</ele>
        <time>2023-07-03T08:19:32.653Z</time>
      </trkpt>
      <trkpt lat="50.08782" lon="8.5913">
        <ele>140.335332</ele>
        <time>2023-07-03T08:19:35.651Z</time>
      </trkpt>
      <trkpt lat="50.08782" lon="8.59144">
        <ele>140.392699</ele>
        <time>2023-07-03T08:19:37.654Z</time>
      </trkpt>
      <trkpt lat="50.08782" lon="8.59159">
        <ele>140.451251</ele>
        <time>2023-07-03T08:19:39.651Z</time>
      </trkpt>
      <trkpt lat="50.08784" lon="8.5918">
        <ele>140.534827</ele>
        <time>2023-07-03T08:19:42.667Z</time>
      </trkpt>
      <trkpt lat="50.08784" lon="8.59194">
        <ele>140.592582</ele>
        <time>2023-07-03T08:19:44.668Z</time>
      </trkpt>
      <trkpt lat="50.08784" lon="8.59209">
        <ele>140.649939</ele>
        <time>2023-07-03T08:19:46.647Z</time>
      </trkpt>
      <trkpt lat="50.08784" lon="8.59224">
        <ele>140.669421</ele>
        <time>2023-07-03T08:19:48.659Z</time>
      </trkpt>
      <trkpt lat="50.08784" lon="8.59239">
        <ele>140.680945</ele>
        <time>2023-07-03T08:19:50.664Z</time>
      </trkpt>
      <trkpt lat="50.08785" lon="8.59254">
        <ele>140.692478</ele>
        <time>2023-07-03T08:19:52.655Z</time>
      </trkpt>
      <trkpt lat="50.08785" lon="8.59269">
        <ele>140.704384</ele>
        <time>2023-07-03T08:19:54.662Z</time>
      </trkpt>
      <trkpt lat="50.08785" lon="8.59284">
        <ele>140.715995</ele>
        <time>2023-07-03T08:19:56.645Z</time>
      </trkpt>
      <trkpt lat="50.08786" lon="8.59299">
        <ele>140.727861</ele>
        <time>2023-07-03T08:19:58.655Z</time>
      </trkpt>
      <trkpt lat="50.08786" lon="8.5932">
        <ele>140.744172</ele>
        <time>2023-07-03T08:20:01.656Z</time>
      </trkpt>
      <trkpt lat="50.08786" lon="8.59335">
        <ele>140.755384</ele>
        <time>2023-07-03T08:20:03.659Z</time>
      </trkpt>
      <trkpt lat="50.08786" lon="8.5935">
        <ele>140.767057</ele>
        <time>2023-07-03T08:20:05.629Z</time>
      </trkpt>
      <trkpt lat="50.08786" lon="8.59365">
        <ele>140.778655</ele>
        <time>2023-07-03T08:20:07.657Z</time>
      </trkpt>
      <trkpt lat="50.08786" lon="8.5938">
        <ele>140.790562</ele>
        <time>2023-07-03T08:20:09.657Z</time>
      </trkpt>
      <trkpt lat="50.08786" lon="8.59395">
        <ele>140.802237</ele>
        <time>2023-07-03T08:20:11.643Z</time>
      </trkpt>
      <trkpt lat="50.08787" lon="8.59411">
        <ele>140.814472</ele>
        <time>2023-07-03T08:20:13.654Z</time>
      </trkpt>
      <trkpt lat="50.08789" lon="8.59427">
        <ele>140.826895</ele>
        <time>2023-07-03T08:20:15.641Z</time>
      </trkpt>
      <trkpt lat="50.0879" lon="8.59442">
        <ele>140.83835</ele>
        <time>2023-07-03T08:20:17.657Z</time>
      </trkpt>
      <trkpt lat="50.08788" lon="8.59457">
        <ele>140.850009</ele>
        <time>2023-07-03T08:20:19.646Z</time>
      </trkpt>
      <trkpt lat="50.08787" lon="8.59472">
        <ele>140.862056</ele>
        <time>2023-07-03T08:20:21.642Z</time>
      </trkpt>
      <trkpt lat="50.08785" lon="8.59487">
        <ele>140.87388</ele>
        <time>2023-07-03T08:20:23.654Z</time>
      </trkpt>
      <trkpt lat="50.08786" lon="8.59502">
        <ele>140.966429</ele>
        <time>2023-07-03T08:20:25.653Z</time>
      </trkpt>
      <trkpt lat="50.08787" lon="8.59516">
        <ele>141.088799</ele>
        <time>2023-07-03T08:20:27.636Z</time>
      </trkpt>
      <trkpt lat="50.08788" lon="8.59532">
        <ele>141.21855</ele>
        <time>2023-07-03T08:20:29.659Z</time>
      </trkpt>
      <trkpt lat="50.08791" lon="8.59547">
        <ele>141.344766</ele>
        <time>2023-07-03T08:20:31.642Z</time>
      </trkpt>
      <trkpt lat="50.08792" lon="8.59563">
        <ele>141.470749</ele>
        <time>2023-07-03T08:20:33.655Z</time>
      </trkpt>
      <trkpt lat="50.08793" lon="8.59578">
        <ele>141.595003</ele>
        <time>2023-07-03T08:20:35.666Z</time>
      </trkpt>
      <trkpt lat="50.08794" lon="8.59594">
        <ele>141.72244</ele>
        <time>2023-07-03T08:20:37.627Z</time>
      </trkpt>
      <trkpt lat="50.08794" lon="8.59609">
        <ele>141.8477</ele>
        <time>2023-07-03T08:20:39.657Z</time>
      </trkpt>
      <trkpt lat="50.08794" lon="8.59626">
        <ele>141.984216</ele>
        <time>2023-07-03T08:20:41.653Z</time>
      </trkpt>
      <trkpt lat="50.08794" lon="8.59641">
        <ele>142.104355</ele>
        <time>2023-07-03T08:20:43.660Z</time>
      </trkpt>
      <trkpt lat="50.08794" lon="8.59656">
        <ele>142.226082</ele>
        <time>2023-07-03T08:20:45.653Z</time>
      </trkpt>
      <trkpt lat="50.08794" lon="8.5967">
        <ele>142.344565</ele>
        <time>2023-07-03T08:20:47.657Z</time>
      </trkpt>
      <trkpt lat="50.08794" lon="8.59686">
        <ele>142.4687</ele>
        <time>2023-07-03T08:20:49.658Z</time>
      </trkpt>
      <trkpt lat="50.08794" lon="8.59701">
        <ele>142.592031</ele>
        <time>2023-07-03T08:20:51.659Z</time>
      </trkpt>
      <trkpt lat="50.08794" lon="8.59716">
        <ele>142.713837</ele>
        <time>2023-07-03T08:20:53.665Z</time>
      </trkpt>
      <trkpt lat="50.08794" lon="8.59732">
        <ele>142.842847</ele>
        <time>2023-07-03T08:20:55.667Z</time>
      </trkpt>
      <trkpt lat="50.08794" lon="8.59747">
        <ele>142.971039</ele>
        <time>2023-07-03T08:20:57.655Z</time>
      </trkpt>
      <trkpt lat="50.08794" lon="8.59763">
        <ele>143.100098</ele>
        <time>2023-07-03T08:20:59.671Z</time>
      </trkpt>
      <trkpt lat="50.08794" lon="8.59778">
        <ele>143.124137</ele>
        <time>2023-07-03T08:21:01.661Z</time>
      </trkpt>
      <trkpt lat="50.08795" lon="8.59794">
        <ele>143.07608</ele>
        <time>2023-07-03T08:21:03.652Z</time>
      </trkpt>
      <trkpt lat="50.08795" lon="8.59809">
        <ele>143.029881</ele>
        <time>2023-07-03T08:21:05.669Z</time>
      </trkpt>
      <trkpt lat="50.08795" lon="8.59823">
        <ele>142.984311</ele>
        <time>2023-07-03T08:21:07.644Z</time>
      </trkpt>
      <trkpt lat="50.08795" lon="8.59838">
        <ele>142.938123</ele>
        <time>2023-07-03T08:21:09.645Z</time>
      </trkpt>
      <trkpt lat="50.08795" lon="8.59853">
        <ele>142.892841</ele>
        <time>2023-07-03T08:21:11.647Z</time>
      </trkpt>
      <trkpt lat="50.08795" lon="8.59868">
        <ele>142.846961</ele>
        <time>2023-07-03T08:21:13.669Z</time>
      </trkpt>
      <trkpt lat="50.08795" lon="8.59884">
        <ele>142.796743</ele>
        <time>2023-07-03T08:21:15.669Z</time>
      </trkpt>
      <trkpt lat="50.08796" lon="8.59899">
        <ele>142.750204</ele>
        <time>2023-07-03T08:21:17.649Z</time>
      </trkpt>
      <trkpt lat="50.08796" lon="8.59914">
        <ele>142.703583</ele>
        <time>2023-07-03T08:21:19.654Z</time>
      </trkpt>
      <trkpt lat="50.08796" lon="8.59931">
        <ele>142.65145</ele>
        <time>2023-07-03T08:21:21.653Z</time>
      </trkpt>
      <trkpt lat="50.08796" lon="8.59948">
        <ele>142.598743</ele>
        <time>2023-07-03T08:21:23.662Z</time>
      </trkpt>
      <trkpt lat="50.08796" lon="8.59965">
        <ele>142.546353</ele>
        <time>2023-07-03T08:21:25.650Z</time>
      </trkpt>
      <trkpt lat="50.08796" lon="8.59981">
        <ele>142.494219</ele>
        <time>2023-07-03T08:21:27.652Z</time>
      </trkpt>
      <trkpt lat="50.08795" lon="8.59998">
        <ele>142.443324</ele>
        <time>2023-07-03T08:21:29.665Z</time>
      </trkpt>
      <trkpt lat="50.08795" lon="8.60014">
        <ele>142.392787</ele>
        <time>2023-07-03T08:21:31.667Z</time>
      </trkpt>
      <trkpt lat="50.08796" lon="8.60031">
        <ele>142.340836</ele>
        <time>2023-07-03T08:21:33.656Z</time>
      </trkpt>
      <trkpt lat="50.08796" lon="8.60047">
        <ele>142.291858</ele>
        <time>2023-07-03T08:21:35.656Z</time>
      </trkpt>
      <trkpt lat="50.08796" lon="8.60063">
        <ele>142.256435</ele>
        <time>2023-07-03T08:21:37.658Z</time>
      </trkpt>
      <trkpt lat="50.08797" lon="8.60078">
        <ele>142.225577</ele>
        <time>2023-07-03T08:21:39.654Z</time>
      </trkpt>
      <trkpt lat="50.08797" lon="8.60094">
        <ele>142.194367</ele>
        <time>2023-07-03T08:21:41.656Z</time>
      </trkpt>
      <trkpt lat="50.08797" lon="8.60111">
        <ele>142.161941</ele>
        <time>2023-07-03T08:21:43.631Z</time>
      </trkpt>
      <trkpt lat="50.08797" lon="8.60128">
        <ele>142.128585</ele>
        <time>2023-07-03T08:21:45.653Z</time>
      </trkpt>
      <trkpt lat="50.08797" lon="8.60144">
        <ele>142.096406</ele>
        <time>2023-07-03T08:21:47.651Z</time>
      </trkpt>
      <trkpt lat="50.08797" lon="8.60161">
        <ele>142.064419</ele>
        <time>2023-07-03T08:21:49.649Z</time>
      </trkpt>
      <trkpt lat="50.08797" lon="8.60176">
        <ele>142.034571</ele>
        <time>2023-07-03T08:21:51.645Z</time>
      </trkpt>
      <trkpt lat="50.08798" lon="8.60191">
        <ele>142.003889</ele>
        <time>2023-07-03T08:21:53.656Z</time>
      </trkpt>
      <trkpt lat="50.08799" lon="8.60207">
        <ele>141.972988</ele>
        <time>2023-07-03T08:21:55.663Z</time>
      </trkpt>
      <trkpt lat="50.08799" lon="8.60223">
        <ele>141.941914</ele>
        <time>2023-07-03T08:21:57.658Z</time>
      </trkpt>
      <trkpt lat="50.088" lon="8.6024">
        <ele>141.908357</ele>
        <time>2023-07-03T08:21:59.675Z</time>
      </trkpt>
      <trkpt lat="50.08798" lon="8.60256">
        <ele>141.875569</ele>
        <time>2023-07-03T08:22:01.667Z</time>
      </trkpt>
      <trkpt lat="50.08797" lon="8.60274">
        <ele>141.841097</ele>
        <time>2023-07-03T08:22:03.657Z</time>
      </trkpt>
      <trkpt lat="50.08796" lon="8.6029">
        <ele>141.809681</ele>
        <time>2023-07-03T08:22:05.653Z</time>
      </trkpt>
      <trkpt lat="50.08796" lon="8.60306">
        <ele>141.778584</ele>
        <time>2023-07-03T08:22:07.667Z</time>
      </trkpt>
      <trkpt lat="50.08795" lon="8.60322">
        <ele>141.747571</ele>
        <time>2023-07-03T08:22:09.658Z</time>
      </trkpt>
      <trkpt lat="50.08795" lon="8.60338">
        <ele>141.718795</ele>
        <time>2023-07-03T08:22:11.648Z</time>
      </trkpt>
      <trkpt lat="50.08794" lon="8.60354">
        <ele>141.694419</ele>
        <time>2023-07-03T08:22:13.671Z</time>
      </trkpt>
      <trkpt lat="50.08795" lon="8.6037">
        <ele>141.670169</ele>
        <time>2023-07-03T08:22:15.652Z</time>
      </trkpt>
      <trkpt lat="50.08795" lon="8.60385">
        <ele>141.646869</ele>
        <time>2023-07-03T08:22:17.651Z</time>
      </trkpt>
      <trkpt lat="50.08795" lon="8.60401">
        <ele>141.62266</ele>
        <time>2023-07-03T08:22:19.654Z</time>
      </trkpt>
      <trkpt lat="50.08796" lon="8.60418">
        <ele>141.596688</ele>
        <time>2023-07-03T08:22:21.668Z</time>
      </trkpt>
      <trkpt lat="50.08796" lon="8.60436">
        <ele>141.569586</ele>
        <time>2023-07-03T08:22:23.654Z</time>
      </trkpt>
      <trkpt lat="50.08795" lon="8.60453">
        <ele>141.543685</ele>
        <time>2023-07-03T08:22:25.647Z</time>
      </trkpt>
      <trkpt lat="50.08796" lon="8.60471">
        <ele>141.515873</ele>
        <time>2023-07-03T08:22:27.670Z</time>
      </trkpt>
      <trkpt lat="50.08797" lon="8.60488">
        <ele>141.489516</ele>
        <time>2023-07-03T08:22:29.653Z</time>
      </trkpt>
      <trkpt lat="50.08798" lon="8.60506">
        <ele>141.462602</ele>
        <time>2023-07-03T08:22:31.661Z</time>
      </trkpt>
      <trkpt lat="50.08799" lon="8.60524">
        <ele>141.435159</ele>
        <time>2023-07-03T08:22:33.673Z</time>
      </trkpt>
      <trkpt lat="50.088" lon="8.60541">
        <ele>141.408712</ele>
        <time>2023-07-03T08:22:35.662Z</time>
      </trkpt>
      <trkpt lat="50.08801" lon="8.60559">
        <ele>141.382285</ele>
        <time>2023-07-03T08:22:37.668Z</time>
      </trkpt>
      <trkpt lat="50.08802" lon="8.60576">
        <ele>141.355664</ele>
        <time>2023-07-03T08:22:39.671Z</time>
      </trkpt>
      <trkpt lat="50.08804" lon="8.60593">
        <ele>141.32928</ele>
        <time>2023-07-03T08:22:41.660Z</time>
      </trkpt>
      <trkpt lat="50.08804" lon="8.60609">
        <ele>141.304528</ele>
        <time>2023-07-03T08:22:43.650Z</time>
      </trkpt>
      <trkpt lat="50.08804" lon="8.60626">
        <ele>141.274875</ele>
        <time>2023-07-03T08:22:45.654Z</time>
      </trkpt>
      <trkpt lat="50.08805" lon="8.60642">
        <ele>141.245471</ele>
        <time>2023-07-03T08:22:47.654Z</time>
      </trkpt>
      <trkpt lat="50.08804" lon="8.60659">
        <ele>141.215635</ele>
        <time>2023-07-03T08:22:49.665Z</time>
      </trkpt>
      <trkpt lat="50.08804" lon="8.60677">
        <ele>141.184738</ele>
        <time>2023-07-03T08:22:51.656Z</time>
      </trkpt>
      <trkpt lat="50.08804" lon="8.60695">
        <ele>141.152954</ele>
        <time>2023-07-03T08:22:53.656Z</time>
      </trkpt>
      <trkpt lat="50.08805" lon="8.60711">
        <ele>141.122818</ele>
        <time>2023-07-03T08:22:55.653Z</time>
      </trkpt>
      <trkpt lat="50.08807" lon="8.6073">
        <ele>141.089856</ele>
        <time>2023-07-03T08:22:57.660Z</time>
      </trkpt>
      <trkpt lat="50.08809" lon="8.60747">
        <ele>141.058683</ele>
        <time>2023-07-03T08:22:59.660Z</time>
      </trkpt>
      <trkpt lat="50.08809" lon="8.60765">
        <ele>141.027387</ele>
        <time>2023-07-03T08:23:01.653Z</time>
      </trkpt>
      <trkpt lat="50.0881" lon="8.60783">
        <ele>140.995407</ele>
        <time>2023-07-03T08:23:03.667Z</time>
      </trkpt>
      <trkpt lat="50.0881" lon="8.60801">
        <ele>140.962855</ele>
        <time>2023-07-03T08:23:05.652Z</time>
      </trkpt>
      <trkpt lat="50.08812" lon="8.60819">
        <ele>140.931251</ele>
        <time>2023-07-03T08:23:07.653Z</time>
      </trkpt>
      <trkpt lat="50.08813" lon="8.60837">
        <ele>140.898493</ele>
        <time>2023-07-03T08:23:09.655Z</time>
      </trkpt>
      <trkpt lat="50.08815" lon="8.60855">
        <ele>140.866439</ele>
        <time>2023-07-03T08:23:11.653Z</time>
      </trkpt>
      <trkpt lat="50.08815" lon="8.60873">
        <ele>140.833589</ele>
        <time>2023-07-03T08:23:13.649Z</time>
      </trkpt>
      <trkpt lat="50.08815" lon="8.60892">
        <ele>140.797942</ele>
        <time>2023-07-03T08:23:15.655Z</time>
      </trkpt>
      <trkpt lat="50.08815" lon="8.60909">
        <ele>140.756688</ele>
        <time>2023-07-03T08:23:17.653Z</time>
      </trkpt>
      <trkpt lat="50.08814" lon="8.60928">
        <ele>140.712048</ele>
        <time>2023-07-03T08:23:19.666Z</time>
      </trkpt>
      <trkpt lat="50.08814" lon="8.60946">
        <ele>140.668159</ele>
        <time>2023-07-03T08:23:21.652Z</time>
      </trkpt>
      <trkpt lat="50.08815" lon="8.60965">
        <ele>140.622079</ele>
        <time>2023-07-03T08:23:23.648Z</time>
      </trkpt>
      <trkpt lat="50.08818" lon="8.60984">
        <ele>140.576676</ele>
        <time>2023-07-03T08:23:25.644Z</time>
      </trkpt>
      <trkpt lat="50.0882" lon="8.61002">
        <ele>140.532919</ele>
        <time>2023-07-03T08:23:27.654Z</time>
      </trkpt>
      <trkpt lat="50.08823" lon="8.61019">
        <ele>140.489172</ele>
        <time>2023-07-03T08:23:29.652Z</time>
      </trkpt>
      <trkpt lat="50.08826" lon="8.61037">
        <ele>140.445094</ele>
        <time>2023-07-03T08:23:31.650Z</time>
      </trkpt>
      <trkpt lat="50.0883" lon="8.61054">
        <ele>140.402756</ele>
        <time>2023-07-03T08:23:33.672Z</time>
      </trkpt>
      <trkpt lat="50.08833" lon="8.61072">
        <ele>140.35804</ele>
        <time>2023-07-03T08:23:35.657Z</time>
      </trkpt>
      <trkpt lat="50.08835" lon="8.61091">
        <ele>140.312165</ele>
        <time>2023-07-03T08:23:37.650Z</time>
      </trkpt>
      <trkpt lat="50.08838" lon="8.61109">
        <ele>140.266428</ele>
        <time>2023-07-03T08:23:39.655Z</time>
      </trkpt>
      <trkpt lat="50.0884" lon="8.61127">
        <ele>140.222671</ele>
        <time>2023-07-03T08:23:41.635Z</time>
      </trkpt>
      <trkpt lat="50.08842" lon="8.61144">
        <ele>140.181782</ele>
        <time>2023-07-03T08:23:43.652Z</time>
      </trkpt>
      <trkpt lat="50.08843" lon="8.6116">
        <ele>140.1436</ele>
        <time>2023-07-03T08:23:45.665Z</time>
      </trkpt>
      <trkpt lat="50.08845" lon="8.61176">
        <ele>140.151647</ele>
        <time>2023-07-03T08:23:47.673Z</time>
      </trkpt>
      <trkpt lat="50.08847" lon="8.61192">
        <ele>140.172747</ele>
        <time>2023-07-03T08:23:49.629Z</time>
      </trkpt>
      <trkpt lat="50.08849" lon="8.61208">
        <ele>140.193688</ele>
        <time>2023-07-03T08:23:51.680Z</time>
      </trkpt>
      <trkpt lat="50.0885" lon="8.61225">
        <ele>140.214847</ele>
        <time>2023-07-03T08:23:53.647Z</time>
      </trkpt>
      <trkpt lat="50.08852" lon="8.61241">
        <ele>140.235948</ele>
        <time>2023-07-03T08:23:55.670Z</time>
      </trkpt>
      <trkpt lat="50.08854" lon="8.61258">
        <ele>140.257987</ele>
        <time>2023-07-03T08:23:57.650Z</time>
      </trkpt>
      <trkpt lat="50.08855" lon="8.61275">
        <ele>140.279825</ele>
        <time>2023-07-03T08:23:59.660Z</time>
      </trkpt>
      <trkpt lat="50.08856" lon="8.61293">
        <ele>140.302114</ele>
        <time>2023-07-03T08:24:01.661Z</time>
      </trkpt>
      <trkpt lat="50.08855" lon="8.6131">
        <ele>140.324672</ele>
        <time>2023-07-03T08:24:03.645Z</time>
      </trkpt>
      <trkpt lat="50.08856" lon="8.61328">
        <ele>140.34658</ele>
        <time>2023-07-03T08:24:05.647Z</time>
      </trkpt>
      <trkpt lat="50.08857" lon="8.61346">
        <ele>140.369719</ele>
        <time>2023-07-03T08:24:07.650Z</time>
      </trkpt>
      <trkpt lat="50.08857" lon="8.61363">
        <ele>140.392285</ele>
        <time>2023-07-03T08:24:09.658Z</time>
      </trkpt>
      <trkpt lat="50.08858" lon="8.61381">
        <ele>140.414999</ele>
        <time>2023-07-03T08:24:11.653Z</time>
      </trkpt>
      <trkpt lat="50.08859" lon="8.61399">
        <ele>140.437956</ele>
        <time>2023-07-03T08:24:13.651Z</time>
      </trkpt>
      <trkpt lat="50.08859" lon="8.61417">
        <ele>140.460759</ele>
        <time>2023-07-03T08:24:15.653Z</time>
      </trkpt>
      <trkpt lat="50.0886" lon="8.61434">
        <ele>140.482755</ele>
        <time>2023-07-03T08:24:17.653Z</time>
      </trkpt>
      <trkpt lat="50.08861" lon="8.61452">
        <ele>140.432054</ele>
        <time>2023-07-03T08:24:19.654Z</time>
      </trkpt>
      <trkpt lat="50.08862" lon="8.61469">
        <ele>140.327366</ele>
        <time>2023-07-03T08:24:21.650Z</time>
      </trkpt>
      <trkpt lat="50.08863" lon="8.61487">
        <ele>140.217368</ele>
        <time>2023-07-03T08:24:23.656Z</time>
      </trkpt>
      <trkpt lat="50.08865" lon="8.61505">
        <ele>140.110684</ele>
        <time>2023-07-03T08:24:25.674Z</time>
      </trkpt>
      <trkpt lat="50.08866" lon="8.61523">
        <ele>139.999811</ele>
        <time>2023-07-03T08:24:27.662Z</time>
      </trkpt>
      <trkpt lat="50.08867" lon="8.61541">
        <ele>139.89182</ele>
        <time>2023-07-03T08:24:29.653Z</time>
      </trkpt>
      <trkpt lat="50.08867" lon="8.61559">
        <ele>139.783411</ele>
        <time>2023-07-03T08:24:31.660Z</time>
      </trkpt>
      <trkpt lat="50.08867" lon="8.61577">
        <ele>139.676206</ele>
        <time>2023-07-03T08:24:33.647Z</time>
      </trkpt>
      <trkpt lat="50.08867" lon="8.61594">
        <ele>139.571426</ele>
        <time>2023-07-03T08:24:35.657Z</time>
      </trkpt>
      <trkpt lat="50.08867" lon="8.61611">
        <ele>139.46964</ele>
        <time>2023-07-03T08:24:37.654Z</time>
      </trkpt>
      <trkpt lat="50.08866" lon="8.61627">
        <ele>139.373218</ele>
        <time>2023-07-03T08:24:39.656Z</time>
      </trkpt>
      <trkpt lat="50.08866" lon="8.61644">
        <ele>139.271445</ele>
        <time>2023-07-03T08:24:41.656Z</time>
      </trkpt>
      <trkpt lat="50.08866" lon="8.61661">
        <ele>139.170863</ele>
        <time>2023-07-03T08:24:43.657Z</time>
      </trkpt>
      <trkpt lat="50.08866" lon="8.61677">
        <ele>139.07079</ele>
        <time>2023-07-03T08:24:45.645Z</time>
      </trkpt>
      <trkpt lat="50.08863" lon="8.61693">
        <ele>138.975715</ele>
        <time>2023-07-03T08:24:47.667Z</time>
      </trkpt>
      <trkpt lat="50.08856" lon="8.61703">
        <ele>138.88525</ele>
        <time>2023-07-03T08:24:49.646Z</time>
      </trkpt>
      <trkpt lat="50.08847" lon="8.61713">
        <ele>138.799142</ele>
        <time>2023-07-03T08:24:51.642Z</time>
      </trkpt>
      <trkpt lat="50.0884" lon="8.61725">
        <ele>138.774857</ele>
        <time>2023-07-03T08:24:53.655Z</time>
      </trkpt>
      <trkpt lat="50.08834" lon="8.61738">
        <ele>138.752358</ele>
        <time>2023-07-03T08:24:55.649Z</time>
      </trkpt>
      <trkpt lat="50.08833" lon="8.61753">
        <ele>138.730139</ele>
        <time>2023-07-03T08:24:57.627Z</time>
      </trkpt>
      <trkpt lat="50.08835" lon="8.61769">
        <ele>138.707235</ele>
        <time>2023-07-03T08:24:59.637Z</time>
      </trkpt>
      <trkpt lat="50.08836" lon="8.61785">
        <ele>138.684192</ele>
        <time>2023-07-03T08:25:01.639Z</time>
      </trkpt>
      <trkpt lat="50.08834" lon="8.61802">
        <ele>138.660021</ele>
        <time>2023-07-03T08:25:03.652Z</time>
      </trkpt>
      <trkpt lat="50.08833" lon="8.61816">
        <ele>138.639</ele>
        <time>2023-07-03T08:25:05.658Z</time>
      </trkpt>
      <trkpt lat="50.08833" lon="8.61831">
        <ele>138.616987</ele>
        <time>2023-07-03T08:25:07.654Z</time>
      </trkpt>
      <trkpt lat="50.08831" lon="8.61846">
        <ele>138.59528</ele>
        <time>2023-07-03T08:25:09.647Z</time>
      </trkpt>
      <trkpt lat="50.08829" lon="8.61863">
        <ele>138.570522</ele>
        <time>2023-07-03T08:25:11.648Z</time>
      </trkpt>
      <trkpt lat="50.08829" lon="8.61879">
        <ele>138.54778</ele>
        <time>2023-07-03T08:25:13.672Z</time>
      </trkpt>
      <trkpt lat="50.08828" lon="8.61895">
        <ele>138.524824</ele>
        <time>2023-07-03T08:25:15.655Z</time>
      </trkpt>
      <trkpt lat="50.08827" lon="8.6191">
        <ele>138.503826</ele>
        <time>2023-07-03T08:25:17.657Z</time>
      </trkpt>
      <trkpt lat="50.08827" lon="8.61925">
        <ele>138.482388</ele>
        <time>2023-07-03T08:25:19.663Z</time>
      </trkpt>
      <trkpt lat="50.08826" lon="8.61939">
        <ele>138.461207</ele>
        <time>2023-07-03T08:25:21.654Z</time>
      </trkpt>
      <trkpt lat="50.08825" lon="8.61955">
        <ele>138.439007</ele>
        <time>2023-07-03T08:25:23.652Z</time>
      </trkpt>
      <trkpt lat="50.08825" lon="8.61969">
        <ele>138.418218</ele>
        <time>2023-07-03T08:25:25.656Z</time>
      </trkpt>
      <trkpt lat="50.08824" lon="8.6199">
        <ele>138.410265</ele>
        <time>2023-07-03T08:25:28.651Z</time>
      </trkpt>
      <trkpt lat="50.08823" lon="8.62005">
        <ele>138.423698</ele>
        <time>2023-07-03T08:25:30.653Z</time>
      </trkpt>
      <trkpt lat="50.08822" lon="8.6202">
        <ele>138.437592</ele>
        <time>2023-07-03T08:25:32.672Z</time>
      </trkpt>
      <trkpt lat="50.08821" lon="8.62036">
        <ele>138.451499</ele>
        <time>2023-07-03T08:25:34.658Z</time>
      </trkpt>
      <trkpt lat="50.0882" lon="8.62051">
        <ele>138.465406</ele>
        <time>2023-07-03T08:25:36.646Z</time>
      </trkpt>
      <trkpt lat="50.08819" lon="8.62066">
        <ele>138.479466</ele>
        <time>2023-07-03T08:25:38.664Z</time>
      </trkpt>
      <trkpt lat="50.08818" lon="8.62082">
        <ele>138.493621</ele>
        <time>2023-07-03T08:25:40.655Z</time>
      </trkpt>
      <trkpt lat="50.08817" lon="8.62097">
        <ele>138.507483</ele>
        <time>2023-07-03T08:25:42.673Z</time>
      </trkpt>
      <trkpt lat="50.08815" lon="8.62114">
        <ele>138.523003</ele>
        <time>2023-07-03T08:25:44.660Z</time>
      </trkpt>
      <trkpt lat="50.08812" lon="8.62129">
        <ele>138.537279</ele>
        <time>2023-07-03T08:25:46.672Z</time>
      </trkpt>
      <trkpt lat="50.0881" lon="8.62143">
        <ele>138.550221</ele>
        <time>2023-07-03T08:25:48.644Z</time>
      </trkpt>
      <trkpt lat="50.08809" lon="8.62157">
        <ele>138.562906</ele>
        <time>2023-07-03T08:25:50.636Z</time>
      </trkpt>
      <trkpt lat="50.08809" lon="8.62172">
        <ele>138.576219</ele>
        <time>2023-07-03T08:25:52.648Z</time>
      </trkpt>
      <trkpt lat="50.08808" lon="8.62187">
        <ele>138.589849</ele>
        <time>2023-07-03T08:25:54.661Z</time>
      </trkpt>
      <trkpt lat="50.08807" lon="8.62202">
        <ele>138.6035</ele>
        <time>2023-07-03T08:25:56.638Z</time>
      </trkpt>
      <trkpt lat="50.08807" lon="8.62216">
        <ele>138.616451</ele>
        <time>2023-07-03T08:25:58.672Z</time>
      </trkpt>
      <trkpt lat="50.08806" lon="8.62233">
        <ele>138.632331</ele>
        <time>2023-07-03T08:26:00.673Z</time>
      </trkpt>
      <trkpt lat="50.08806" lon="8.6225">
        <ele>138.647561</ele>
        <time>2023-07-03T08:26:02.639Z</time>
      </trkpt>
      <trkpt lat="50.08804" lon="8.62267">
        <ele>138.693102</ele>
        <time>2023-07-03T08:26:04.639Z</time>
      </trkpt>
      <trkpt lat="50.08803" lon="8.62284">
        <ele>138.769699</ele>
        <time>2023-07-03T08:26:06.660Z</time>
      </trkpt>
      <trkpt lat="50.08803" lon="8.62299">
        <ele>138.840836</ele>
        <time>2023-07-03T08:26:08.660Z</time>
      </trkpt>
      <trkpt lat="50.08802" lon="8.62315">
        <ele>138.909349</ele>
        <time>2023-07-03T08:26:10.670Z</time>
      </trkpt>
      <trkpt lat="50.08801" lon="8.62329">
        <ele>138.972956</ele>
        <time>2023-07-03T08:26:12.659Z</time>
      </trkpt>
      <trkpt lat="50.08801" lon="8.62343">
        <ele>139.037465</ele>
        <time>2023-07-03T08:26:14.654Z</time>
      </trkpt>
      <trkpt lat="50.088" lon="8.62357">
        <ele>139.102769</ele>
        <time>2023-07-03T08:26:16.640Z</time>
      </trkpt>
      <trkpt lat="50.088" lon="8.62371">
        <ele>139.167066</ele>
        <time>2023-07-03T08:26:18.657Z</time>
      </trkpt>
      <trkpt lat="50.08799" lon="8.62387">
        <ele>139.237047</ele>
        <time>2023-07-03T08:26:20.661Z</time>
      </trkpt>
      <trkpt lat="50.08799" lon="8.62402">
        <ele>139.304491</ele>
        <time>2023-07-03T08:26:22.666Z</time>
      </trkpt>
      <trkpt lat="50.08798" lon="8.62416">
        <ele>139.369139</ele>
        <time>2023-07-03T08:26:24.656Z</time>
      </trkpt>
      <trkpt lat="50.08798" lon="8.62431">
        <ele>139.436149</ele>
        <time>2023-07-03T08:26:26.646Z</time>
      </trkpt>
      <trkpt lat="50.08797" lon="8.62445">
        <ele>139.502011</ele>
        <time>2023-07-03T08:26:28.662Z</time>
      </trkpt>
      <trkpt lat="50.08797" lon="8.6246">
        <ele>139.569908</ele>
        <time>2023-07-03T08:26:30.663Z</time>
      </trkpt>
      <trkpt lat="50.08797" lon="8.62481">
        <ele>139.664501</ele>
        <time>2023-07-03T08:26:33.645Z</time>
      </trkpt>
      <trkpt lat="50.08797" lon="8.62495">
        <ele>139.729683</ele>
        <time>2023-07-03T08:26:35.634Z</time>
      </trkpt>
      <trkpt lat="50.08797" lon="8.62516">
        <ele>139.823403</ele>
        <time>2023-07-03T08:26:38.658Z</time>
      </trkpt>
      <trkpt lat="50.08796" lon="8.62531">
        <ele>139.889569</ele>
        <time>2023-07-03T08:26:40.655Z</time>
      </trkpt>
      <trkpt lat="50.08796" lon="8.62546">
        <ele>139.98088</ele>
        <time>2023-07-03T08:26:42.676Z</time>
      </trkpt>
      <trkpt lat="50.08797" lon="8.6256">
        <ele>140.085798</ele>
        <time>2023-07-03T08:26:44.659Z</time>
      </trkpt>
      <trkpt lat="50.08797" lon="8.62575">
        <ele>140.192098</ele>
        <time>2023-07-03T08:26:46.648Z</time>
      </trkpt>
      <trkpt lat="50.08796" lon="8.62589">
        <ele>140.297073</ele>
        <time>2023-07-03T08:26:48.665Z</time>
      </trkpt>
      <trkpt lat="50.08796" lon="8.62605">
        <ele>140.413842</ele>
        <time>2023-07-03T08:26:50.649Z</time>
      </trkpt>
      <trkpt lat="50.08797" lon="8.6262">
        <ele>140.527154</ele>
        <time>2023-07-03T08:26:52.674Z</time>
      </trkpt>
      <trkpt lat="50.08797" lon="8.62636">
        <ele>140.644519</ele>
        <time>2023-07-03T08:26:54.655Z</time>
      </trkpt>
      <trkpt lat="50.08796" lon="8.62651">
        <ele>140.755534</ele>
        <time>2023-07-03T08:26:56.635Z</time>
      </trkpt>
      <trkpt lat="50.08796" lon="8.62665">
        <ele>140.863359</ele>
        <time>2023-07-03T08:26:58.652Z</time>
      </trkpt>
      <trkpt lat="50.08796" lon="8.6268">
        <ele>140.97263</ele>
        <time>2023-07-03T08:27:00.670Z</time>
      </trkpt>
      <trkpt lat="50.08796" lon="8.62696">
        <ele>141.085567</ele>
        <time>2023-07-03T08:27:02.665Z</time>
      </trkpt>
      <trkpt lat="50.08796" lon="8.62716">
        <ele>141.239141</ele>
        <time>2023-07-03T08:27:05.650Z</time>
      </trkpt>
      <trkpt lat="50.08797" lon="8.62736">
        <ele>141.383305</ele>
        <time>2023-07-03T08:27:08.653Z</time>
      </trkpt>
      <trkpt lat="50.08797" lon="8.62754">
        <ele>141.519144</ele>
        <time>2023-07-03T08:27:11.658Z</time>
      </trkpt>
      <trkpt lat="50.08797" lon="8.62772">
        <ele>141.651398</ele>
        <time>2023-07-03T08:27:14.646Z</time>
      </trkpt>
      <trkpt lat="50.08799" lon="8.62788">
        <ele>141.771947</ele>
        <time>2023-07-03T08:27:17.659Z</time>
      </trkpt>
      <trkpt lat="50.088" lon="8.62807">
        <ele>141.908989</ele>
        <time>2023-07-03T08:27:20.649Z</time>
      </trkpt>
      <trkpt lat="50.088" lon="8.62823">
        <ele>142.008373</ele>
        <time>2023-07-03T08:27:23.666Z</time>
      </trkpt>
      <trkpt lat="50.08801" lon="8.6284">
        <ele>142.056768</ele>
        <time>2023-07-03T08:27:26.651Z</time>
      </trkpt>
      <trkpt lat="50.08797" lon="8.62856">
        <ele>142.10792</ele>
        <time>2023-07-03T08:27:29.646Z</time>
      </trkpt>
      <trkpt lat="50.08797" lon="8.62877">
        <ele>142.166699</ele>
        <time>2023-07-03T08:27:32.650Z</time>
      </trkpt>
      <trkpt lat="50.08798" lon="8.62896">
        <ele>142.222446</ele>
        <time>2023-07-03T08:27:35.653Z</time>
      </trkpt>
      <trkpt lat="50.088" lon="8.62915">
        <ele>142.280467</ele>
        <time>2023-07-03T08:27:38.653Z</time>
      </trkpt>
      <trkpt lat="50.08803" lon="8.62935">
        <ele>142.338513</ele>
        <time>2023-07-03T08:27:41.656Z</time>
      </trkpt>
      <trkpt lat="50.08805" lon="8.62955">
        <ele>142.398275</ele>
        <time>2023-07-03T08:27:44.655Z</time>
      </trkpt>
      <trkpt lat="50.08807" lon="8.62969">
        <ele>142.440851</ele>
        <time>2023-07-03T08:27:46.667Z</time>
      </trkpt>
      <trkpt lat="50.08809" lon="8.62984">
        <ele>142.483814</ele>
        <time>2023-07-03T08:27:48.653Z</time>
      </trkpt>
      <trkpt lat="50.08811" lon="8.62999">
        <ele>142.528678</ele>
        <time>2023-07-03T08:27:50.648Z</time>
      </trkpt>
      <trkpt lat="50.08813" lon="8.63014">
        <ele>142.573624</ele>
        <time>2023-07-03T08:27:52.660Z</time>
      </trkpt>
      <trkpt lat="50.08815" lon="8.63029">
        <ele>142.618871</ele>
        <time>2023-07-03T08:27:54.656Z</time>
      </trkpt>
      <trkpt lat="50.08817" lon="8.63044">
        <ele>142.662977</ele>
        <time>2023-07-03T08:27:56.637Z</time>
      </trkpt>
      <trkpt lat="50.08819" lon="8.63059">
        <ele>142.705744</ele>
        <time>2023-07-03T08:27:58.669Z</time>
      </trkpt>
      <trkpt lat="50.08821" lon="8.63073">
        <ele>142.748888</ele>
        <time>2023-07-03T08:28:00.658Z</time>
      </trkpt>
      <trkpt lat="50.08823" lon="8.63087">
        <ele>142.789746</ele>
        <time>2023-07-03T08:28:02.648Z</time>
      </trkpt>
      <trkpt lat="50.08825" lon="8.63101">
        <ele>142.706963</ele>
        <time>2023-07-03T08:28:04.677Z</time>
      </trkpt>
      <trkpt lat="50.08829" lon="8.63121">
        <ele>142.450258</ele>
        <time>2023-07-03T08:28:07.633Z</time>
      </trkpt>
      <trkpt lat="50.08832" lon="8.63141">
        <ele>142.199728</ele>
        <time>2023-07-03T08:28:10.675Z</time>
      </trkpt>
      <trkpt lat="50.08834" lon="8.6316">
        <ele>141.962873</ele>
        <time>2023-07-03T08:28:13.674Z</time>
      </trkpt>
      <trkpt lat="50.08834" lon="8.63178">
        <ele>141.736157</ele>
        <time>2023-07-03T08:28:16.633Z</time>
      </trkpt>
      <trkpt lat="50.08833" lon="8.63195">
        <ele>141.517958</ele>
        <time>2023-07-03T08:28:20.656Z</time>
      </trkpt>
      <trkpt lat="50.08839" lon="8.63209">
        <ele>141.312082</ele>
        <time>2023-07-03T08:28:25.640Z</time>
      </trkpt>
      <trkpt lat="50.08847" lon="8.63216">
        <ele>141.130398</ele>
        <time>2023-07-03T08:28:29.646Z</time>
      </trkpt>
      <trkpt lat="50.08851" lon="8.63233">
        <ele>140.909998</ele>
        <time>2023-07-03T08:28:32.645Z</time>
      </trkpt>
      <trkpt lat="50.08853" lon="8.63248">
        <ele>140.719722</ele>
        <time>2023-07-03T08:28:34.660Z</time>
      </trkpt>
      <trkpt lat="50.08854" lon="8.63263">
        <ele>140.532179</ele>
        <time>2023-07-03T08:28:36.638Z</time>
      </trkpt>
      <trkpt lat="50.08856" lon="8.63278">
        <ele>140.349072</ele>
        <time>2023-07-03T08:28:38.656Z</time>
      </trkpt>
      <trkpt lat="50.08858" lon="8.63292">
        <ele>140.166342</ele>
        <time>2023-07-03T08:28:40.650Z</time>
      </trkpt>
      <trkpt lat="50.08861" lon="8.63306">
        <ele>139.987337</ele>
        <time>2023-07-03T08:28:42.655Z</time>
      </trkpt>
      <trkpt lat="50.08865" lon="8.6332">
        <ele>139.801638</ele>
        <time>2023-07-03T08:28:44.649Z</time>
      </trkpt>
      <trkpt lat="50.0887" lon="8.63339">
        <ele>139.539951</ele>
        <time>2023-07-03T08:28:47.654Z</time>
      </trkpt>
      <trkpt lat="50.08875" lon="8.63352">
        <ele>139.357701</ele>
        <time>2023-07-03T08:28:49.646Z</time>
      </trkpt>
      <trkpt lat="50.08881" lon="8.63363">
        <ele>139.248205</ele>
        <time>2023-07-03T08:28:51.649Z</time>
      </trkpt>
      <trkpt lat="50.08885" lon="8.63376">
        <ele>139.152123</ele>
        <time>2023-07-03T08:28:53.650Z</time>
      </trkpt>
      <trkpt lat="50.08889" lon="8.63392">
        <ele>139.032616</ele>
        <time>2023-07-03T08:28:56.643Z</time>
      </trkpt>
      <trkpt lat="50.08895" lon="8.6341">
        <ele>138.898725</ele>
        <time>2023-07-03T08:28:59.651Z</time>
      </trkpt>
      <trkpt lat="50.08902" lon="8.63427">
        <ele>138.762516</ele>
        <time>2023-07-03T08:29:02.664Z</time>
      </trkpt>
      <trkpt lat="50.08908" lon="8.63444">
        <ele>138.63142</ele>
        <time>2023-07-03T08:29:05.652Z</time>
      </trkpt>
      <trkpt lat="50.08914" lon="8.63462">
        <ele>138.493871</ele>
        <time>2023-07-03T08:29:08.669Z</time>
      </trkpt>
      <trkpt lat="50.08919" lon="8.63474">
        <ele>138.395546</ele>
        <time>2023-07-03T08:29:10.639Z</time>
      </trkpt>
      <trkpt lat="50.08923" lon="8.63487">
        <ele>138.295231</ele>
        <time>2023-07-03T08:29:12.652Z</time>
      </trkpt>
      <trkpt lat="50.08927" lon="8.635">
        <ele>138.193339</ele>
        <time>2023-07-03T08:29:14.655Z</time>
      </trkpt>
      <trkpt lat="50.08932" lon="8.63514">
        <ele>138.087412</ele>
        <time>2023-07-03T08:29:16.649Z</time>
      </trkpt>
      <trkpt lat="50.08937" lon="8.63528">
        <ele>137.981197</ele>
        <time>2023-07-03T08:29:18.666Z</time>
      </trkpt>
      <trkpt lat="50.08941" lon="8.63541">
        <ele>137.883074</ele>
        <time>2023-07-03T08:29:20.655Z</time>
      </trkpt>
      <trkpt lat="50.08948" lon="8.63557">
        <ele>137.756163</ele>
        <time>2023-07-03T08:29:23.652Z</time>
      </trkpt>
      <trkpt lat="50.08953" lon="8.63569">
        <ele>137.656126</ele>
        <time>2023-07-03T08:29:25.650Z</time>
      </trkpt>
      <trkpt lat="50.08959" lon="8.63589">
        <ele>137.505904</ele>
        <time>2023-07-03T08:29:28.660Z</time>
      </trkpt>
      <trkpt lat="50.08965" lon="8.63605">
        <ele>137.456699</ele>
        <time>2023-07-03T08:29:30.672Z</time>
      </trkpt>
      <trkpt lat="50.0897" lon="8.63622">
        <ele>137.503317</ele>
        <time>2023-07-03T08:29:32.668Z</time>
      </trkpt>
      <trkpt lat="50.08975" lon="8.6364">
        <ele>137.550835</ele>
        <time>2023-07-03T08:29:34.653Z</time>
      </trkpt>
      <trkpt lat="50.0898" lon="8.63659">
        <ele>137.60091</ele>
        <time>2023-07-03T08:29:36.639Z</time>
      </trkpt>
      <trkpt lat="50.08985" lon="8.63677">
        <ele>137.649184</ele>
        <time>2023-07-03T08:29:38.656Z</time>
      </trkpt>
      <trkpt lat="50.08989" lon="8.63695">
        <ele>137.696172</ele>
        <time>2023-07-03T08:29:40.655Z</time>
      </trkpt>
      <trkpt lat="50.08993" lon="8.63713">
        <ele>137.742549</ele>
        <time>2023-07-03T08:29:42.653Z</time>
      </trkpt>
      <trkpt lat="50.08998" lon="8.6373">
        <ele>137.789399</ele>
        <time>2023-07-03T08:29:44.659Z</time>
      </trkpt>
      <trkpt lat="50.09003" lon="8.63747">
        <ele>137.834741</ele>
        <time>2023-07-03T08:29:46.649Z</time>
      </trkpt>
      <trkpt lat="50.09007" lon="8.63763">
        <ele>137.876698</ele>
        <time>2023-07-03T08:29:48.653Z</time>
      </trkpt>
      <trkpt lat="50.09011" lon="8.63779">
        <ele>137.918737</ele>
        <time>2023-07-03T08:29:50.657Z</time>
      </trkpt>
      <trkpt lat="50.09016" lon="8.63794">
        <ele>137.960079</ele>
        <time>2023-07-03T08:29:52.650Z</time>
      </trkpt>
      <trkpt lat="50.0902" lon="8.63809">
        <ele>138.001474</ele>
        <time>2023-07-03T08:29:54.674Z</time>
      </trkpt>
      <trkpt lat="50.09024" lon="8.63823">
        <ele>138.037509</ele>
        <time>2023-07-03T08:29:56.638Z</time>
      </trkpt>
      <trkpt lat="50.09031" lon="8.63841">
        <ele>138.08939</ele>
        <time>2023-07-03T08:29:59.658Z</time>
      </trkpt>
      <trkpt lat="50.09037" lon="8.63859">
        <ele>138.187282</ele>
        <time>2023-07-03T08:30:02.653Z</time>
      </trkpt>
      <trkpt lat="50.0904" lon="8.63873">
        <ele>138.345724</ele>
        <time>2023-07-03T08:30:05.660Z</time>
      </trkpt>
      <trkpt lat="50.09046" lon="8.63888">
        <ele>138.520004</ele>
        <time>2023-07-03T08:30:10.656Z</time>
      </trkpt>
      <trkpt lat="50.09052" lon="8.63904">
        <ele>138.714771</ele>
        <time>2023-07-03T08:30:14.655Z</time>
      </trkpt>
      <trkpt lat="50.09058" lon="8.6392">
        <ele>138.902982</ele>
        <time>2023-07-03T08:30:17.654Z</time>
      </trkpt>
      <trkpt lat="50.09064" lon="8.63935">
        <ele>139.088828</ele>
        <time>2023-07-03T08:30:20.663Z</time>
      </trkpt>
      <trkpt lat="50.0907" lon="8.6395">
        <ele>139.266577</ele>
        <time>2023-07-03T08:30:23.650Z</time>
      </trkpt>
      <trkpt lat="50.09077" lon="8.63967">
        <ele>139.475689</ele>
        <time>2023-07-03T08:30:26.649Z</time>
      </trkpt>
      <trkpt lat="50.09083" lon="8.63984">
        <ele>139.686655</ele>
        <time>2023-07-03T08:30:29.658Z</time>
      </trkpt>
      <trkpt lat="50.09088" lon="8.63997">
        <ele>139.841031</ele>
        <time>2023-07-03T08:30:31.653Z</time>
      </trkpt>
      <trkpt lat="50.09093" lon="8.64009">
        <ele>139.98931</ele>
        <time>2023-07-03T08:30:33.650Z</time>
      </trkpt>
      <trkpt lat="50.09098" lon="8.64021">
        <ele>140.135489</ele>
        <time>2023-07-03T08:30:35.671Z</time>
      </trkpt>
      <trkpt lat="50.09104" lon="8.64032">
        <ele>140.280393</ele>
        <time>2023-07-03T08:30:37.650Z</time>
      </trkpt>
      <trkpt lat="50.09111" lon="8.64049">
        <ele>140.497443</ele>
        <time>2023-07-03T08:30:40.653Z</time>
      </trkpt>
      <trkpt lat="50.09119" lon="8.64067">
        <ele>140.713549</ele>
        <time>2023-07-03T08:30:43.650Z</time>
      </trkpt>
      <trkpt lat="50.09126" lon="8.64084">
        <ele>140.934866</ele>
        <time>2023-07-03T08:30:46.649Z</time>
      </trkpt>
      <trkpt lat="50.09132" lon="8.64096">
        <ele>141.00118</ele>
        <time>2023-07-03T08:30:48.649Z</time>
      </trkpt>
      <trkpt lat="50.09139" lon="8.64106">
        <ele>140.937537</ele>
        <time>2023-07-03T08:30:50.639Z</time>
      </trkpt>
      <trkpt lat="50.09144" lon="8.64118">
        <ele>140.874521</ele>
        <time>2023-07-03T08:30:52.656Z</time>
      </trkpt>
      <trkpt lat="50.09149" lon="8.6413">
        <ele>140.811691</ele>
        <time>2023-07-03T08:30:54.654Z</time>
      </trkpt>
      <trkpt lat="50.09154" lon="8.64142">
        <ele>140.747783</ele>
        <time>2023-07-03T08:30:56.630Z</time>
      </trkpt>
      <trkpt lat="50.09159" lon="8.64154">
        <ele>140.686127</ele>
        <time>2023-07-03T08:30:58.653Z</time>
      </trkpt>
      <trkpt lat="50.09169" lon="8.6417">
        <ele>140.592638</ele>
        <time>2023-07-03T08:31:01.660Z</time>
      </trkpt>
      <trkpt lat="50.09176" lon="8.6418">
        <ele>140.526809</ele>
        <time>2023-07-03T08:31:03.653Z</time>
      </trkpt>
      <trkpt lat="50.09183" lon="8.64191">
        <ele>140.456993</ele>
        <time>2023-07-03T08:31:05.656Z</time>
      </trkpt>
      <trkpt lat="50.09191" lon="8.64202">
        <ele>140.384705</ele>
        <time>2023-07-03T08:31:07.673Z</time>
      </trkpt>
      <trkpt lat="50.09199" lon="8.64213">
        <ele>140.315017</ele>
        <time>2023-07-03T08:31:09.649Z</time>
      </trkpt>
      <trkpt lat="50.09206" lon="8.64225">
        <ele>140.243336</ele>
        <time>2023-07-03T08:31:11.669Z</time>
      </trkpt>
      <trkpt lat="50.09213" lon="8.64238">
        <ele>140.169264</ele>
        <time>2023-07-03T08:31:13.653Z</time>
      </trkpt>
      <trkpt lat="50.09219" lon="8.6425">
        <ele>140.10079</ele>
        <time>2023-07-03T08:31:15.638Z</time>
      </trkpt>
      <trkpt lat="50.09226" lon="8.64263">
        <ele>140.027126</ele>
        <time>2023-07-03T08:31:17.653Z</time>
      </trkpt>
      <trkpt lat="50.09233" lon="8.64276">
        <ele>139.953589</ele>
        <time>2023-07-03T08:31:19.656Z</time>
      </trkpt>
      <trkpt lat="50.09237" lon="8.64292">
        <ele>139.881296</ele>
        <time>2023-07-03T08:31:21.647Z</time>
      </trkpt>
      <trkpt lat="50.09239" lon="8.64308">
        <ele>139.807099</ele>
        <time>2023-07-03T08:31:23.652Z</time>
      </trkpt>
      <trkpt lat="50.09241" lon="8.64326">
        <ele>139.830768</ele>
        <time>2023-07-03T08:31:25.647Z</time>
      </trkpt>
      <trkpt lat="50.09244" lon="8.64343">
        <ele>139.856639</ele>
        <time>2023-07-03T08:31:27.676Z</time>
      </trkpt>
      <trkpt lat="50.09247" lon="8.64359">
        <ele>139.882884</ele>
        <time>2023-07-03T08:31:29.650Z</time>
      </trkpt>
      <trkpt lat="50.0925" lon="8.64376">
        <ele>139.909211</ele>
        <time>2023-07-03T08:31:31.655Z</time>
      </trkpt>
      <trkpt lat="50.09253" lon="8.64391">
        <ele>139.932089</ele>
        <time>2023-07-03T08:31:33.670Z</time>
      </trkpt>
      <trkpt lat="50.09255" lon="8.64407">
        <ele>139.956892</ele>
        <time>2023-07-03T08:31:35.659Z</time>
      </trkpt>
      <trkpt lat="50.09257" lon="8.64422">
        <ele>139.980972</ele>
        <time>2023-07-03T08:31:37.649Z</time>
      </trkpt>
      <trkpt lat="50.0926" lon="8.64438">
        <ele>140.005969</ele>
        <time>2023-07-03T08:31:39.647Z</time>
      </trkpt>
      <trkpt lat="50.09263" lon="8.64453">
        <ele>140.031041</ele>
        <time>2023-07-03T08:31:41.652Z</time>
      </trkpt>
      <trkpt lat="50.09266" lon="8.6447">
        <ele>140.057196</ele>
        <time>2023-07-03T08:31:43.663Z</time>
      </trkpt>
      <trkpt lat="50.0927" lon="8.64484">
        <ele>140.080546</ele>
        <time>2023-07-03T08:31:45.662Z</time>
      </trkpt>
      <trkpt lat="50.09272" lon="8.64502">
        <ele>140.107639</ele>
        <time>2023-07-03T08:31:48.672Z</time>
      </trkpt>
      <trkpt lat="50.09263" lon="8.6451">
        <ele>140.131068</ele>
        <time>2023-07-03T08:31:52.647Z</time>
      </trkpt>
      <trkpt lat="50.09255" lon="8.64518">
        <ele>140.154459</ele>
        <time>2023-07-03T08:31:57.641Z</time>
      </trkpt>
      <trkpt lat="50.09251" lon="8.64531">
        <ele>140.177184</ele>
        <time>2023-07-03T08:32:04.703Z</time>
      </trkpt>
      <trkpt lat="50.09255" lon="8.64544">
        <ele>140.199529</ele>
        <time>2023-07-03T08:32:09.648Z</time>
      </trkpt>
      <trkpt lat="50.0926" lon="8.64561">
        <ele>140.227377</ele>
        <time>2023-07-03T08:32:13.652Z</time>
      </trkpt>
      <trkpt lat="50.09263" lon="8.64575">
        <ele>140.457515</ele>
        <time>2023-07-03T08:32:16.645Z</time>
      </trkpt>
      <trkpt lat="50.09267" lon="8.64591">
        <ele>140.74031</ele>
        <time>2023-07-03T08:32:19.651Z</time>
      </trkpt>
      <trkpt lat="50.09272" lon="8.64612">
        <ele>141.111396</ele>
        <time>2023-07-03T08:32:22.646Z</time>
      </trkpt>
      <trkpt lat="50.09275" lon="8.64625">
        <ele>141.355357</ele>
        <time>2023-07-03T08:32:24.655Z</time>
      </trkpt>
      <trkpt lat="50.09278" lon="8.6464">
        <ele>141.620897</ele>
        <time>2023-07-03T08:32:26.655Z</time>
      </trkpt>
      <trkpt lat="50.09281" lon="8.64655">
        <ele>141.88418</ele>
        <time>2023-07-03T08:32:28.657Z</time>
      </trkpt>
      <trkpt lat="50.09283" lon="8.6467">
        <ele>142.13602</ele>
        <time>2023-07-03T08:32:30.662Z</time>
      </trkpt>
      <trkpt lat="50.09284" lon="8.64684">
        <ele>142.377914</ele>
        <time>2023-07-03T08:32:32.649Z</time>
      </trkpt>
      <trkpt lat="50.09286" lon="8.647">
        <ele>142.653659</ele>
        <time>2023-07-03T08:32:34.653Z</time>
      </trkpt>
      <trkpt lat="50.09289" lon="8.64715">
        <ele>142.920926</ele>
        <time>2023-07-03T08:32:36.715Z</time>
      </trkpt>
      <trkpt lat="50.09293" lon="8.64728">
        <ele>143.171613</ele>
        <time>2023-07-03T08:32:38.652Z</time>
      </trkpt>
      <trkpt lat="50.09296" lon="8.64743">
        <ele>143.441964</ele>
        <time>2023-07-03T08:32:40.675Z</time>
      </trkpt>
      <trkpt lat="50.09299" lon="8.64758">
        <ele>143.701106</ele>
        <time>2023-07-03T08:32:42.662Z</time>
      </trkpt>
      <trkpt lat="50.09303" lon="8.64772">
        <ele>143.952309</ele>
        <time>2023-07-03T08:32:44.666Z</time>
      </trkpt>
      <trkpt lat="50.09306" lon="8.64786">
        <ele>144.212314</ele>
        <time>2023-07-03T08:32:46.651Z</time>
      </trkpt>
      <trkpt lat="50.09312" lon="8.648">
        <ele>144.484045</ele>
        <time>2023-07-03T08:32:48.649Z</time>
      </trkpt>
      <trkpt lat="50.09319" lon="8.64813">
        <ele>144.765722</ele>
        <time>2023-07-03T08:32:50.638Z</time>
      </trkpt>
      <trkpt lat="50.09323" lon="8.64827">
        <ele>144.960729</ele>
        <time>2023-07-03T08:32:52.678Z</time>
      </trkpt>
      <trkpt lat="50.09327" lon="8.6484">
        <ele>144.931941</ele>
        <time>2023-07-03T08:32:54.664Z</time>
      </trkpt>
      <trkpt lat="50.09331" lon="8.64854">
        <ele>144.902601</ele>
        <time>2023-07-03T08:32:56.642Z</time>
      </trkpt>
      <trkpt lat="50.09335" lon="8.64867">
        <ele>144.873594</ele>
        <time>2023-07-03T08:32:58.654Z</time>
      </trkpt>
      <trkpt lat="50.09339" lon="8.64882">
        <ele>144.842064</ele>
        <time>2023-07-03T08:33:00.673Z</time>
      </trkpt>
      <trkpt lat="50.09342" lon="8.64896">
        <ele>144.812299</ele>
        <time>2023-07-03T08:33:02.654Z</time>
      </trkpt>
      <trkpt lat="50.09346" lon="8.6491">
        <ele>144.782136</ele>
        <time>2023-07-03T08:33:04.664Z</time>
      </trkpt>
      <trkpt lat="50.09348" lon="8.64924">
        <ele>144.7529</ele>
        <time>2023-07-03T08:33:06.636Z</time>
      </trkpt>
      <trkpt lat="50.09351" lon="8.6494">
        <ele>144.720036</ele>
        <time>2023-07-03T08:33:08.644Z</time>
      </trkpt>
      <trkpt lat="50.09355" lon="8.64955">
        <ele>144.688332</ele>
        <time>2023-07-03T08:33:10.683Z</time>
      </trkpt>
      <trkpt lat="50.09359" lon="8.6497">
        <ele>144.656251</ele>
        <time>2023-07-03T08:33:12.664Z</time>
      </trkpt>
      <trkpt lat="50.09362" lon="8.64985">
        <ele>144.625929</ele>
        <time>2023-07-03T08:33:14.657Z</time>
      </trkpt>
      <trkpt lat="50.09365" lon="8.64998">
        <ele>144.597569</ele>
        <time>2023-07-03T08:33:16.650Z</time>
      </trkpt>
      <trkpt lat="50.09368" lon="8.65013">
        <ele>144.566776</ele>
        <time>2023-07-03T08:33:18.657Z</time>
      </trkpt>
      <trkpt lat="50.09372" lon="8.65028">
        <ele>144.534729</ele>
        <time>2023-07-03T08:33:20.661Z</time>
      </trkpt>
      <trkpt lat="50.09376" lon="8.65043">
        <ele>144.502868</ele>
        <time>2023-07-03T08:33:22.663Z</time>
      </trkpt>
      <trkpt lat="50.0938" lon="8.65058">
        <ele>144.470784</ele>
        <time>2023-07-03T08:33:24.654Z</time>
      </trkpt>
      <trkpt lat="50.09384" lon="8.65073">
        <ele>144.439438</ele>
        <time>2023-07-03T08:33:26.638Z</time>
      </trkpt>
      <trkpt lat="50.09387" lon="8.65087">
        <ele>144.407881</ele>
        <time>2023-07-03T08:33:28.663Z</time>
      </trkpt>
      <trkpt lat="50.09391" lon="8.65102">
        <ele>144.365507</ele>
        <time>2023-07-03T08:33:30.683Z</time>
      </trkpt>
      <trkpt lat="50.09396" lon="8.65116">
        <ele>144.32576</ele>
        <time>2023-07-03T08:33:32.658Z</time>
      </trkpt>
      <trkpt lat="50.09399" lon="8.65131">
        <ele>144.283078</ele>
        <time>2023-07-03T08:33:34.674Z</time>
      </trkpt>
      <trkpt lat="50.09403" lon="8.65145">
        <ele>144.242478</ele>
        <time>2023-07-03T08:33:36.653Z</time>
      </trkpt>
      <trkpt lat="50.09407" lon="8.65159">
        <ele>144.204439</ele>
        <time>2023-07-03T08:33:38.655Z</time>
      </trkpt>
      <trkpt lat="50.09412" lon="8.65171">
        <ele>144.166719</ele>
        <time>2023-07-03T08:33:40.652Z</time>
      </trkpt>
      <trkpt lat="50.09416" lon="8.65184">
        <ele>144.129514</ele>
        <time>2023-07-03T08:33:42.663Z</time>
      </trkpt>
      <trkpt lat="50.09421" lon="8.65197">
        <ele>144.088998</ele>
        <time>2023-07-03T08:33:44.664Z</time>
      </trkpt>
      <trkpt lat="50.09425" lon="8.65211">
        <ele>144.049149</ele>
        <time>2023-07-03T08:33:46.631Z</time>
      </trkpt>
      <trkpt lat="50.0943" lon="8.65224">
        <ele>144.01222</ele>
        <time>2023-07-03T08:33:48.667Z</time>
      </trkpt>
      <trkpt lat="50.09434" lon="8.65237">
        <ele>143.973658</ele>
        <time>2023-07-03T08:33:50.669Z</time>
      </trkpt>
      <trkpt lat="50.09439" lon="8.65249">
        <ele>143.935175</ele>
        <time>2023-07-03T08:33:52.660Z</time>
      </trkpt>
      <trkpt lat="50.09443" lon="8.65262">
        <ele>143.898562</ele>
        <time>2023-07-03T08:33:54.651Z</time>
      </trkpt>
      <trkpt lat="50.09448" lon="8.65275">
        <ele>143.860276</ele>
        <time>2023-07-03T08:33:56.657Z</time>
      </trkpt>
      <trkpt lat="50.09452" lon="8.65287">
        <ele>143.823974</ele>
        <time>2023-07-03T08:33:58.658Z</time>
      </trkpt>
      <trkpt lat="50.09458" lon="8.65306">
        <ele>143.771368</ele>
        <time>2023-07-03T08:34:01.652Z</time>
      </trkpt>
      <trkpt lat="50.09463" lon="8.65325">
        <ele>143.716416</ele>
        <time>2023-07-03T08:34:04.659Z</time>
      </trkpt>
      <trkpt lat="50.09466" lon="8.65338">
        <ele>143.675962</ele>
        <time>2023-07-03T08:34:06.653Z</time>
      </trkpt>
      <trkpt lat="50.0947" lon="8.65351">
        <ele>143.612687</ele>
        <time>2023-07-03T08:34:08.653Z</time>
      </trkpt>
      <trkpt lat="50.09472" lon="8.65366">
        <ele>143.545381</ele>
        <time>2023-07-03T08:34:10.676Z</time>
      </trkpt>
      <trkpt lat="50.09475" lon="8.65381">
        <ele>143.476298</ele>
        <time>2023-07-03T08:34:12.653Z</time>
      </trkpt>
      <trkpt lat="50.09478" lon="8.65395">
        <ele>143.408258</ele>
        <time>2023-07-03T08:34:14.663Z</time>
      </trkpt>
      <trkpt lat="50.09481" lon="8.6541">
        <ele>143.340441</ele>
        <time>2023-07-03T08:34:16.655Z</time>
      </trkpt>
      <trkpt lat="50.09484" lon="8.65425">
        <ele>143.26899</ele>
        <time>2023-07-03T08:34:18.658Z</time>
      </trkpt>
      <trkpt lat="50.09487" lon="8.6544">
        <ele>143.199269</ele>
        <time>2023-07-03T08:34:20.651Z</time>
      </trkpt>
      <trkpt lat="50.0949" lon="8.65458">
        <ele>143.116143</ele>
        <time>2023-07-03T08:34:23.660Z</time>
      </trkpt>
      <trkpt lat="50.09493" lon="8.65473">
        <ele>143.048407</ele>
        <time>2023-07-03T08:34:26.649Z</time>
      </trkpt>
      <trkpt lat="50.09497" lon="8.65489">
        <ele>142.974116</ele>
        <time>2023-07-03T08:34:29.658Z</time>
      </trkpt>
      <trkpt lat="50.095" lon="8.65506">
        <ele>142.893817</ele>
        <time>2023-07-03T08:34:31.652Z</time>
      </trkpt>
      <trkpt lat="50.09503" lon="8.65525">
        <ele>142.8079</ele>
        <time>2023-07-03T08:34:33.652Z</time>
      </trkpt>
      <trkpt lat="50.09506" lon="8.65542">
        <ele>142.729238</ele>
        <time>2023-07-03T08:34:35.653Z</time>
      </trkpt>
      <trkpt lat="50.09509" lon="8.65557">
        <ele>142.657543</ele>
        <time>2023-07-03T08:34:37.650Z</time>
      </trkpt>
      <trkpt lat="50.09511" lon="8.65573">
        <ele>142.586627</ele>
        <time>2023-07-03T08:34:39.652Z</time>
      </trkpt>
      <trkpt lat="50.09514" lon="8.65587">
        <ele>142.519822</ele>
        <time>2023-07-03T08:34:41.659Z</time>
      </trkpt>
      <trkpt lat="50.09516" lon="8.65603">
        <ele>142.448475</ele>
        <time>2023-07-03T08:34:43.647Z</time>
      </trkpt>
      <trkpt lat="50.09519" lon="8.6562">
        <ele>142.494654</ele>
        <time>2023-07-03T08:34:45.642Z</time>
      </trkpt>
      <trkpt lat="50.09523" lon="8.65636">
        <ele>142.552556</ele>
        <time>2023-07-03T08:34:47.663Z</time>
      </trkpt>
      <trkpt lat="50.09526" lon="8.65651">
        <ele>142.606667</ele>
        <time>2023-07-03T08:34:49.658Z</time>
      </trkpt>
      <trkpt lat="50.09529" lon="8.65666">
        <ele>142.660186</ele>
        <time>2023-07-03T08:34:51.650Z</time>
      </trkpt>
      <trkpt lat="50.09531" lon="8.65682">
        <ele>142.714237</ele>
        <time>2023-07-03T08:34:53.667Z</time>
      </trkpt>
      <trkpt lat="50.09535" lon="8.65696">
        <ele>142.766627</ele>
        <time>2023-07-03T08:34:55.654Z</time>
      </trkpt>
      <trkpt lat="50.09537" lon="8.6571">
        <ele>142.816599</ele>
        <time>2023-07-03T08:34:57.663Z</time>
      </trkpt>
      <trkpt lat="50.0954" lon="8.65724">
        <ele>142.866423</ele>
        <time>2023-07-03T08:34:59.666Z</time>
      </trkpt>
      <trkpt lat="50.09544" lon="8.65738">
        <ele>142.916566</ele>
        <time>2023-07-03T08:35:01.636Z</time>
      </trkpt>
      <trkpt lat="50.09547" lon="8.65752">
        <ele>142.966539</ele>
        <time>2023-07-03T08:35:03.654Z</time>
      </trkpt>
      <trkpt lat="50.09549" lon="8.65766">
        <ele>143.014887</ele>
        <time>2023-07-03T08:35:05.634Z</time>
      </trkpt>
      <trkpt lat="50.09554" lon="8.65786">
        <ele>143.085671</ele>
        <time>2023-07-03T08:35:08.667Z</time>
      </trkpt>
      <trkpt lat="50.09557" lon="8.65799">
        <ele>143.134544</ele>
        <time>2023-07-03T08:35:10.658Z</time>
      </trkpt>
      <trkpt lat="50.09561" lon="8.65812">
        <ele>143.183106</ele>
        <time>2023-07-03T08:35:12.658Z</time>
      </trkpt>
      <trkpt lat="50.09566" lon="8.65831">
        <ele>143.254513</ele>
        <time>2023-07-03T08:35:15.654Z</time>
      </trkpt>
      <trkpt lat="50.09571" lon="8.65845">
        <ele>143.304702</ele>
        <time>2023-07-03T08:35:17.651Z</time>
      </trkpt>
      <trkpt lat="50.09576" lon="8.65856">
        <ele>143.352314</ele>
        <time>2023-07-03T08:35:19.654Z</time>
      </trkpt>
      <trkpt lat="50.09581" lon="8.6587">
        <ele>143.341382</ele>
        <time>2023-07-03T08:35:22.660Z</time>
      </trkpt>
      <trkpt lat="50.09589" lon="8.6588">
        <ele>143.177357</ele>
        <time>2023-07-03T08:35:26.663Z</time>
      </trkpt>
      <trkpt lat="50.09602" lon="8.65898">
        <ele>142.903408</ele>
        <time>2023-07-03T08:35:44.648Z</time>
      </trkpt>
      <trkpt lat="50.09607" lon="8.65914">
        <ele>142.719872</ele>
        <time>2023-07-03T08:35:47.638Z</time>
      </trkpt>
      <trkpt lat="50.09613" lon="8.65927">
        <ele>142.551964</ele>
        <time>2023-07-03T08:35:49.649Z</time>
      </trkpt>
      <trkpt lat="50.09621" lon="8.65941">
        <ele>142.361739</ele>
        <time>2023-07-03T08:35:51.648Z</time>
      </trkpt>
      <trkpt lat="50.0963" lon="8.65955">
        <ele>142.150491</ele>
        <time>2023-07-03T08:35:53.655Z</time>
      </trkpt>
      <trkpt lat="50.09641" lon="8.65969">
        <ele>141.935394</ele>
        <time>2023-07-03T08:35:55.651Z</time>
      </trkpt>
      <trkpt lat="50.09649" lon="8.65986">
        <ele>141.704894</ele>
        <time>2023-07-03T08:35:57.657Z</time>
      </trkpt>
      <trkpt lat="50.09657" lon="8.66004">
        <ele>141.485722</ele>
        <time>2023-07-03T08:35:59.650Z</time>
      </trkpt>
      <trkpt lat="50.09665" lon="8.66021">
        <ele>141.265802</ele>
        <time>2023-07-03T08:36:01.665Z</time>
      </trkpt>
      <trkpt lat="50.09672" lon="8.66038">
        <ele>141.056131</ele>
        <time>2023-07-03T08:36:03.659Z</time>
      </trkpt>
      <trkpt lat="50.0968" lon="8.66056">
        <ele>140.839695</ele>
        <time>2023-07-03T08:36:05.652Z</time>
      </trkpt>
      <trkpt lat="50.09687" lon="8.66072">
        <ele>140.631706</ele>
        <time>2023-07-03T08:36:07.653Z</time>
      </trkpt>
      <trkpt lat="50.09695" lon="8.66089">
        <ele>140.511447</ele>
        <time>2023-07-03T08:36:09.657Z</time>
      </trkpt>
      <trkpt lat="50.09703" lon="8.66106">
        <ele>140.521896</ele>
        <time>2023-07-03T08:36:11.653Z</time>
      </trkpt>
      <trkpt lat="50.0971" lon="8.66124">
        <ele>140.532548</ele>
        <time>2023-07-03T08:36:13.649Z</time>
      </trkpt>
      <trkpt lat="50.09718" lon="8.66141">
        <ele>140.54317</ele>
        <time>2023-07-03T08:36:15.656Z</time>
      </trkpt>
      <trkpt lat="50.09725" lon="8.66158">
        <ele>140.553567</ele>
        <time>2023-07-03T08:36:17.656Z</time>
      </trkpt>
      <trkpt lat="50.09732" lon="8.66176">
        <ele>140.563923</ele>
        <time>2023-07-03T08:36:19.656Z</time>
      </trkpt>
      <trkpt lat="50.09739" lon="8.66193">
        <ele>140.574029</ele>
        <time>2023-07-03T08:36:21.669Z</time>
      </trkpt>
      <trkpt lat="50.09747" lon="8.66209">
        <ele>140.584132</ele>
        <time>2023-07-03T08:36:23.637Z</time>
      </trkpt>
      <trkpt lat="50.09754" lon="8.66226">
        <ele>140.594276</ele>
        <time>2023-07-03T08:36:25.676Z</time>
      </trkpt>
      <trkpt lat="50.09761" lon="8.66242">
        <ele>140.604152</ele>
        <time>2023-07-03T08:36:27.652Z</time>
      </trkpt>
      <trkpt lat="50.09767" lon="8.66258">
        <ele>140.613667</ele>
        <time>2023-07-03T08:36:29.651Z</time>
      </trkpt>
      <trkpt lat="50.09774" lon="8.66274">
        <ele>140.622966</ele>
        <time>2023-07-03T08:36:31.655Z</time>
      </trkpt>
      <trkpt lat="50.0978" lon="8.66289">
        <ele>140.631799</ele>
        <time>2023-07-03T08:36:33.664Z</time>
      </trkpt>
      <trkpt lat="50.09787" lon="8.66302">
        <ele>140.640443</ele>
        <time>2023-07-03T08:36:35.670Z</time>
      </trkpt>
      <trkpt lat="50.09792" lon="8.66317">
        <ele>140.653018</ele>
        <time>2023-07-03T08:36:37.652Z</time>
      </trkpt>
      <trkpt lat="50.09798" lon="8.66331">
        <ele>140.684682</ele>
        <time>2023-07-03T08:36:39.654Z</time>
      </trkpt>
      <trkpt lat="50.09804" lon="8.66344">
        <ele>140.717146</ele>
        <time>2023-07-03T08:36:41.651Z</time>
      </trkpt>
      <trkpt lat="50.0981" lon="8.66357">
        <ele>140.747312</ele>
        <time>2023-07-03T08:36:43.651Z</time>
      </trkpt>
      <trkpt lat="50.09815" lon="8.6637">
        <ele>140.776832</ele>
        <time>2023-07-03T08:36:45.665Z</time>
      </trkpt>
      <trkpt lat="50.09823" lon="8.66382">
        <ele>140.810503</ele>
        <time>2023-07-03T08:36:48.648Z</time>
      </trkpt>
      <trkpt lat="50.09827" lon="8.66389">
        <ele>140.830494</ele>
        <time>2023-07-03T08:37:04.910Z</time>
      </trkpt>
      <trkpt lat="50.09841" lon="8.66411">
        <ele>140.889757</ele>
        <time>2023-07-03T08:59:32.647Z</time>
      </trkpt>
      <trkpt lat="50.09846" lon="8.66423">
        <ele>140.917619</ele>
        <time>2023-07-03T08:59:39.653Z</time>
      </trkpt>
      <trkpt lat="50.0985" lon="8.66437">
        <ele>140.948633</ele>
        <time>2023-07-03T08:59:47.655Z</time>
      </trkpt>
      <trkpt lat="50.09853" lon="8.66451">
        <ele>140.976363</ele>
        <time>2023-07-03T08:59:51.666Z</time>
      </trkpt>
      <trkpt lat="50.09856" lon="8.66468">
        <ele>141.011329</ele>
        <time>2023-07-03T08:59:55.642Z</time>
      </trkpt>
      <trkpt lat="50.0986" lon="8.66481">
        <ele>141.039397</ele>
        <time>2023-07-03T08:59:58.649Z</time>
      </trkpt>
      <trkpt lat="50.09868" lon="8.66495">
        <ele>141.074768</ele>
        <time>2023-07-03T09:00:01.660Z</time>
      </trkpt>
      <trkpt lat="50.09877" lon="8.66509">
        <ele>141.114418</ele>
        <time>2023-07-03T09:00:04.668Z</time>
      </trkpt>
      <trkpt lat="50.09883" lon="8.6652">
        <ele>141.142394</ele>
        <time>2023-07-03T09:00:06.644Z</time>
      </trkpt>
      <trkpt lat="50.09889" lon="8.66531">
        <ele>141.170172</ele>
        <time>2023-07-03T09:00:08.655Z</time>
      </trkpt>
      <trkpt lat="50.09896" lon="8.66549">
        <ele>141.151222</ele>
        <time>2023-07-03T09:00:11.648Z</time>
      </trkpt>
      <trkpt lat="50.09904" lon="8.66564">
        <ele>141.033312</ele>
        <time>2023-07-03T09:00:14.638Z</time>
      </trkpt>
      <trkpt lat="50.09913" lon="8.66579">
        <ele>140.912026</ele>
        <time>2023-07-03T09:00:17.657Z</time>
      </trkpt>
      <trkpt lat="50.09922" lon="8.66594">
        <ele>140.7871</ele>
        <time>2023-07-03T09:00:20.675Z</time>
      </trkpt>
      <trkpt lat="50.09929" lon="8.66604">
        <ele>140.697974</ele>
        <time>2023-07-03T09:00:22.657Z</time>
      </trkpt>
      <trkpt lat="50.09936" lon="8.66615">
        <ele>140.606945</ele>
        <time>2023-07-03T09:00:24.670Z</time>
      </trkpt>
      <trkpt lat="50.09943" lon="8.66627">
        <ele>140.509539</ele>
        <time>2023-07-03T09:00:26.643Z</time>
      </trkpt>
      <trkpt lat="50.0995" lon="8.66639">
        <ele>140.413713</ele>
        <time>2023-07-03T09:00:28.643Z</time>
      </trkpt>
      <trkpt lat="50.09958" lon="8.66649">
        <ele>140.31707</ele>
        <time>2023-07-03T09:00:30.645Z</time>
      </trkpt>
      <trkpt lat="50.09966" lon="8.66661">
        <ele>140.217471</ele>
        <time>2023-07-03T09:00:32.669Z</time>
      </trkpt>
      <trkpt lat="50.09973" lon="8.66672">
        <ele>140.12502</ele>
        <time>2023-07-03T09:00:34.662Z</time>
      </trkpt>
      <trkpt lat="50.09979" lon="8.66684">
        <ele>140.032328</ele>
        <time>2023-07-03T09:00:36.660Z</time>
      </trkpt>
      <trkpt lat="50.09986" lon="8.66695">
        <ele>139.937302</ele>
        <time>2023-07-03T09:00:38.656Z</time>
      </trkpt>
      <trkpt lat="50.09993" lon="8.66708">
        <ele>139.840567</ele>
        <time>2023-07-03T09:00:40.651Z</time>
      </trkpt>
      <trkpt lat="50.1" lon="8.6672">
        <ele>139.74033</ele>
        <time>2023-07-03T09:00:42.677Z</time>
      </trkpt>
      <trkpt lat="50.10006" lon="8.66732">
        <ele>139.648394</ele>
        <time>2023-07-03T09:00:44.641Z</time>
      </trkpt>
      <trkpt lat="50.10014" lon="8.66745">
        <ele>139.545917</ele>
        <time>2023-07-03T09:00:46.652Z</time>
      </trkpt>
      <trkpt lat="50.1002" lon="8.66759">
        <ele>139.533019</ele>
        <time>2023-07-03T09:00:48.650Z</time>
      </trkpt>
      <trkpt lat="50.10028" lon="8.66769">
        <ele>139.54386</ele>
        <time>2023-07-03T09:00:50.659Z</time>
      </trkpt>
      <trkpt lat="50.10038" lon="8.66777">
        <ele>139.55532</ele>
        <time>2023-07-03T09:00:52.663Z</time>
      </trkpt>
      <trkpt lat="50.10046" lon="8.66789">
        <ele>139.56675</ele>
        <time>2023-07-03T09:00:54.647Z</time>
      </trkpt>
      <trkpt lat="50.10054" lon="8.668">
        <ele>139.578191</ele>
        <time>2023-07-03T09:00:56.658Z</time>
      </trkpt>
      <trkpt lat="50.10062" lon="8.6681">
        <ele>139.588817</ele>
        <time>2023-07-03T09:00:58.659Z</time>
      </trkpt>
      <trkpt lat="50.10071" lon="8.66818">
        <ele>139.59976</ele>
        <time>2023-07-03T09:01:00.670Z</time>
      </trkpt>
      <trkpt lat="50.1008" lon="8.66826">
        <ele>139.610518</ele>
        <time>2023-07-03T09:01:02.659Z</time>
      </trkpt>
      <trkpt lat="50.10089" lon="8.66836">
        <ele>139.621448</ele>
        <time>2023-07-03T09:01:04.675Z</time>
      </trkpt>
      <trkpt lat="50.10096" lon="8.66845">
        <ele>139.631621</ele>
        <time>2023-07-03T09:01:06.671Z</time>
      </trkpt>
      <trkpt lat="50.10103" lon="8.66856">
        <ele>139.641951</ele>
        <time>2023-07-03T09:01:08.667Z</time>
      </trkpt>
      <trkpt lat="50.1011" lon="8.66869">
        <ele>139.652952</ele>
        <time>2023-07-03T09:01:10.642Z</time>
      </trkpt>
      <trkpt lat="50.10115" lon="8.66884">
        <ele>139.66452</ele>
        <time>2023-07-03T09:01:12.673Z</time>
      </trkpt>
      <trkpt lat="50.10119" lon="8.66899">
        <ele>139.675286</ele>
        <time>2023-07-03T09:01:14.672Z</time>
      </trkpt>
      <trkpt lat="50.10124" lon="8.66911">
        <ele>139.685118</ele>
        <time>2023-07-03T09:01:16.648Z</time>
      </trkpt>
      <trkpt lat="50.10131" lon="8.66923">
        <ele>139.695232</ele>
        <time>2023-07-03T09:01:18.649Z</time>
      </trkpt>
      <trkpt lat="50.10136" lon="8.66935">
        <ele>139.705235</ele>
        <time>2023-07-03T09:01:20.638Z</time>
      </trkpt>
      <trkpt lat="50.10142" lon="8.66948">
        <ele>139.716476</ele>
        <time>2023-07-03T09:01:22.666Z</time>
      </trkpt>
      <trkpt lat="50.10148" lon="8.66959">
        <ele>139.72803</ele>
        <time>2023-07-03T09:01:24.661Z</time>
      </trkpt>
      <trkpt lat="50.10154" lon="8.6697">
        <ele>139.739554</ele>
        <time>2023-07-03T09:01:26.648Z</time>
      </trkpt>
      <trkpt lat="50.10161" lon="8.6698">
        <ele>139.751684</ele>
        <time>2023-07-03T09:01:28.660Z</time>
      </trkpt>
      <trkpt lat="50.10169" lon="8.6699">
        <ele>139.764276</ele>
        <time>2023-07-03T09:01:30.653Z</time>
      </trkpt>
      <trkpt lat="50.10177" lon="8.67001">
        <ele>139.776513</ele>
        <time>2023-07-03T09:01:32.655Z</time>
      </trkpt>
      <trkpt lat="50.10183" lon="8.67012">
        <ele>139.788692</ele>
        <time>2023-07-03T09:01:34.658Z</time>
      </trkpt>
      <trkpt lat="50.1019" lon="8.67023">
        <ele>139.800584</ele>
        <time>2023-07-03T09:01:36.635Z</time>
      </trkpt>
      <trkpt lat="50.10196" lon="8.67034">
        <ele>139.812193</ele>
        <time>2023-07-03T09:01:38.656Z</time>
      </trkpt>
      <trkpt lat="50.10203" lon="8.67045">
        <ele>139.824256</ele>
        <time>2023-07-03T09:01:40.678Z</time>
      </trkpt>
      <trkpt lat="50.10211" lon="8.67057">
        <ele>139.836977</ele>
        <time>2023-07-03T09:01:42.656Z</time>
      </trkpt>
      <trkpt lat="50.10218" lon="8.67068">
        <ele>139.849841</ele>
        <time>2023-07-03T09:01:44.653Z</time>
      </trkpt>
      <trkpt lat="50.10225" lon="8.6708">
        <ele>139.862418</ele>
        <time>2023-07-03T09:01:46.668Z</time>
      </trkpt>
      <trkpt lat="50.10232" lon="8.67091">
        <ele>139.874574</ele>
        <time>2023-07-03T09:01:48.653Z</time>
      </trkpt>
      <trkpt lat="50.10239" lon="8.67101">
        <ele>139.8866</ele>
        <time>2023-07-03T09:01:50.663Z</time>
      </trkpt>
      <trkpt lat="50.10249" lon="8.67107">
        <ele>139.899301</ele>
        <time>2023-07-03T09:01:52.658Z</time>
      </trkpt>
      <trkpt lat="50.10259" lon="8.67111">
        <ele>139.91198</ele>
        <time>2023-07-03T09:01:54.663Z</time>
      </trkpt>
      <trkpt lat="50.10267" lon="8.6712">
        <ele>139.92505</ele>
        <time>2023-07-03T09:01:56.676Z</time>
      </trkpt>
      <trkpt lat="50.10276" lon="8.67133">
        <ele>139.9657</ele>
        <time>2023-07-03T09:01:58.661Z</time>
      </trkpt>
      <trkpt lat="50.10284" lon="8.67146">
        <ele>140.037668</ele>
        <time>2023-07-03T09:02:00.652Z</time>
      </trkpt>
      <trkpt lat="50.10291" lon="8.67158">
        <ele>140.10577</ele>
        <time>2023-07-03T09:02:02.658Z</time>
      </trkpt>
      <trkpt lat="50.10299" lon="8.67171">
        <ele>140.175014</ele>
        <time>2023-07-03T09:02:04.663Z</time>
      </trkpt>
      <trkpt lat="50.10307" lon="8.67182">
        <ele>140.241607</ele>
        <time>2023-07-03T09:02:06.644Z</time>
      </trkpt>
      <trkpt lat="50.10315" lon="8.67195">
        <ele>140.312011</ele>
        <time>2023-07-03T09:02:08.659Z</time>
      </trkpt>
      <trkpt lat="50.10322" lon="8.67207">
        <ele>140.379265</ele>
        <time>2023-07-03T09:02:10.667Z</time>
      </trkpt>
      <trkpt lat="50.1033" lon="8.67219">
        <ele>140.44631</ele>
        <time>2023-07-03T09:02:12.665Z</time>
      </trkpt>
      <trkpt lat="50.10338" lon="8.67231">
        <ele>140.515412</ele>
        <time>2023-07-03T09:02:14.675Z</time>
      </trkpt>
      <trkpt lat="50.10345" lon="8.67244">
        <ele>140.5828</ele>
        <time>2023-07-03T09:02:16.656Z</time>
      </trkpt>
      <trkpt lat="50.10352" lon="8.67256">
        <ele>140.64983</ele>
        <time>2023-07-03T09:02:18.665Z</time>
      </trkpt>
      <trkpt lat="50.1036" lon="8.6727">
        <ele>140.720607</ele>
        <time>2023-07-03T09:02:20.664Z</time>
      </trkpt>
      <trkpt lat="50.10367" lon="8.67282">
        <ele>140.784263</ele>
        <time>2023-07-03T09:02:22.657Z</time>
      </trkpt>
      <trkpt lat="50.10374" lon="8.67293">
        <ele>140.848213</ele>
        <time>2023-07-03T09:02:24.667Z</time>
      </trkpt>
      <trkpt lat="50.10381" lon="8.67305">
        <ele>140.912163</ele>
        <time>2023-07-03T09:02:26.642Z</time>
      </trkpt>
      <trkpt lat="50.10388" lon="8.67317">
        <ele>140.975694</ele>
        <time>2023-07-03T09:02:28.656Z</time>
      </trkpt>
      <trkpt lat="50.10394" lon="8.67329">
        <ele>141.038286</ele>
        <time>2023-07-03T09:02:30.653Z</time>
      </trkpt>
      <trkpt lat="50.10401" lon="8.67341">
        <ele>141.022255</ele>
        <time>2023-07-03T09:02:32.642Z</time>
      </trkpt>
      <trkpt lat="50.10408" lon="8.67354">
        <ele>140.991124</ele>
        <time>2023-07-03T09:02:34.659Z</time>
      </trkpt>
      <trkpt lat="50.10415" lon="8.67366">
        <ele>140.960609</ele>
        <time>2023-07-03T09:02:36.652Z</time>
      </trkpt>
      <trkpt lat="50.10422" lon="8.67379">
        <ele>140.929241</ele>
        <time>2023-07-03T09:02:38.647Z</time>
      </trkpt>
      <trkpt lat="50.10429" lon="8.67391">
        <ele>140.899012</ele>
        <time>2023-07-03T09:02:40.645Z</time>
      </trkpt>
      <trkpt lat="50.10435" lon="8.67404">
        <ele>140.868201</ele>
        <time>2023-07-03T09:02:42.664Z</time>
      </trkpt>
      <trkpt lat="50.10442" lon="8.67417">
        <ele>140.836178</ele>
        <time>2023-07-03T09:02:44.656Z</time>
      </trkpt>
      <trkpt lat="50.10448" lon="8.67431">
        <ele>140.8044</ele>
        <time>2023-07-03T09:02:46.666Z</time>
      </trkpt>
      <trkpt lat="50.10454" lon="8.67445">
        <ele>140.773908</ele>
        <time>2023-07-03T09:02:48.670Z</time>
      </trkpt>
      <trkpt lat="50.10461" lon="8.67458">
        <ele>140.741914</ele>
        <time>2023-07-03T09:02:50.677Z</time>
      </trkpt>
      <trkpt lat="50.10467" lon="8.67472">
        <ele>140.710644</ele>
        <time>2023-07-03T09:02:52.661Z</time>
      </trkpt>
      <trkpt lat="50.10472" lon="8.67486">
        <ele>140.679536</ele>
        <time>2023-07-03T09:02:54.661Z</time>
      </trkpt>
      <trkpt lat="50.10479" lon="8.67499">
        <ele>140.647548</ele>
        <time>2023-07-03T09:02:56.653Z</time>
      </trkpt>
      <trkpt lat="50.10485" lon="8.67515">
        <ele>140.614596</ele>
        <time>2023-07-03T09:02:58.661Z</time>
      </trkpt>
      <trkpt lat="50.1049" lon="8.6753">
        <ele>140.582747</ele>
        <time>2023-07-03T09:03:00.661Z</time>
      </trkpt>
      <trkpt lat="50.10496" lon="8.67544">
        <ele>140.550529</ele>
        <time>2023-07-03T09:03:02.675Z</time>
      </trkpt>
      <trkpt lat="50.10501" lon="8.67558">
        <ele>140.527629</ele>
        <time>2023-07-03T09:03:04.645Z</time>
      </trkpt>
      <trkpt lat="50.10508" lon="8.67572">
        <ele>140.590125</ele>
        <time>2023-07-03T09:03:06.649Z</time>
      </trkpt>
      <trkpt lat="50.10513" lon="8.67585">
        <ele>140.651597</ele>
        <time>2023-07-03T09:03:08.667Z</time>
      </trkpt>
      <trkpt lat="50.10519" lon="8.676">
        <ele>140.716866</ele>
        <time>2023-07-03T09:03:10.661Z</time>
      </trkpt>
      <trkpt lat="50.10525" lon="8.67614">
        <ele>140.778648</ele>
        <time>2023-07-03T09:03:12.663Z</time>
      </trkpt>
      <trkpt lat="50.10531" lon="8.67627">
        <ele>140.839275</ele>
        <time>2023-07-03T09:03:14.672Z</time>
      </trkpt>
      <trkpt lat="50.10537" lon="8.6764">
        <ele>140.899523</ele>
        <time>2023-07-03T09:03:16.659Z</time>
      </trkpt>
      <trkpt lat="50.10542" lon="8.67653">
        <ele>140.958769</ele>
        <time>2023-07-03T09:03:18.672Z</time>
      </trkpt>
      <trkpt lat="50.10548" lon="8.67667">
        <ele>141.021264</ele>
        <time>2023-07-03T09:03:20.657Z</time>
      </trkpt>
      <trkpt lat="50.10554" lon="8.67681">
        <ele>141.085264</ele>
        <time>2023-07-03T09:03:22.655Z</time>
      </trkpt>
      <trkpt lat="50.10559" lon="8.67695">
        <ele>141.145293</ele>
        <time>2023-07-03T09:03:24.662Z</time>
      </trkpt>
      <trkpt lat="50.10565" lon="8.6771">
        <ele>141.209295</ele>
        <time>2023-07-03T09:03:26.648Z</time>
      </trkpt>
      <trkpt lat="50.10571" lon="8.67724">
        <ele>141.273664</ele>
        <time>2023-07-03T09:03:28.669Z</time>
      </trkpt>
      <trkpt lat="50.10577" lon="8.67737">
        <ele>141.332934</ele>
        <time>2023-07-03T09:03:30.651Z</time>
      </trkpt>
      <trkpt lat="50.10582" lon="8.67752">
        <ele>141.399173</ele>
        <time>2023-07-03T09:03:32.667Z</time>
      </trkpt>
      <trkpt lat="50.10586" lon="8.67768">
        <ele>141.463081</ele>
        <time>2023-07-03T09:03:34.664Z</time>
      </trkpt>
      <trkpt lat="50.10592" lon="8.67782">
        <ele>141.527077</ele>
        <time>2023-07-03T09:03:36.652Z</time>
      </trkpt>
      <trkpt lat="50.106" lon="8.67797">
        <ele>141.55244</ele>
        <time>2023-07-03T09:03:38.675Z</time>
      </trkpt>
      <trkpt lat="50.10606" lon="8.67812">
        <ele>141.472989</ele>
        <time>2023-07-03T09:03:40.662Z</time>
      </trkpt>
      <trkpt lat="50.10612" lon="8.67827">
        <ele>141.397501</ele>
        <time>2023-07-03T09:03:42.665Z</time>
      </trkpt>
      <trkpt lat="50.10617" lon="8.6784">
        <ele>141.325164</ele>
        <time>2023-07-03T09:03:44.657Z</time>
      </trkpt>
      <trkpt lat="50.10623" lon="8.67854">
        <ele>141.250585</ele>
        <time>2023-07-03T09:03:46.652Z</time>
      </trkpt>
      <trkpt lat="50.10628" lon="8.67868">
        <ele>141.179726</ele>
        <time>2023-07-03T09:03:48.682Z</time>
      </trkpt>
      <trkpt lat="50.10634" lon="8.67882">
        <ele>141.106298</ele>
        <time>2023-07-03T09:03:50.662Z</time>
      </trkpt>
      <trkpt lat="50.10639" lon="8.67896">
        <ele>141.031325</ele>
        <time>2023-07-03T09:03:52.684Z</time>
      </trkpt>
      <trkpt lat="50.10645" lon="8.6791">
        <ele>140.957894</ele>
        <time>2023-07-03T09:03:54.675Z</time>
      </trkpt>
      <trkpt lat="50.10651" lon="8.67924">
        <ele>140.883714</ele>
        <time>2023-07-03T09:03:56.653Z</time>
      </trkpt>
      <trkpt lat="50.10656" lon="8.67938">
        <ele>140.808</ele>
        <time>2023-07-03T09:03:58.673Z</time>
      </trkpt>
      <trkpt lat="50.10662" lon="8.67953">
        <ele>140.731158</ele>
        <time>2023-07-03T09:04:00.658Z</time>
      </trkpt>
      <trkpt lat="50.10668" lon="8.67968">
        <ele>140.652446</ele>
        <time>2023-07-03T09:04:02.677Z</time>
      </trkpt>
      <trkpt lat="50.10675" lon="8.67981">
        <ele>140.575904</ele>
        <time>2023-07-03T09:04:04.663Z</time>
      </trkpt>
      <trkpt lat="50.10682" lon="8.67996">
        <ele>140.494418</ele>
        <time>2023-07-03T09:04:06.669Z</time>
      </trkpt>
      <trkpt lat="50.10687" lon="8.68012">
        <ele>140.413937</ele>
        <time>2023-07-03T09:04:08.662Z</time>
      </trkpt>
      <trkpt lat="50.10692" lon="8.68028">
        <ele>140.337421</ele>
        <time>2023-07-03T09:04:10.645Z</time>
      </trkpt>
      <trkpt lat="50.10697" lon="8.68043">
        <ele>140.281079</ele>
        <time>2023-07-03T09:04:12.659Z</time>
      </trkpt>
      <trkpt lat="50.10702" lon="8.68058">
        <ele>140.229237</ele>
        <time>2023-07-03T09:04:14.652Z</time>
      </trkpt>
      <trkpt lat="50.10706" lon="8.68073">
        <ele>140.177532</ele>
        <time>2023-07-03T09:04:16.647Z</time>
      </trkpt>
      <trkpt lat="50.10711" lon="8.68088">
        <ele>140.126584</ele>
        <time>2023-07-03T09:04:18.659Z</time>
      </trkpt>
      <trkpt lat="50.10714" lon="8.68104">
        <ele>140.074701</ele>
        <time>2023-07-03T09:04:20.654Z</time>
      </trkpt>
      <trkpt lat="50.10718" lon="8.68119">
        <ele>140.024619</ele>
        <time>2023-07-03T09:04:22.659Z</time>
      </trkpt>
      <trkpt lat="50.10723" lon="8.68135">
        <ele>139.972182</ele>
        <time>2023-07-03T09:04:24.654Z</time>
      </trkpt>
      <trkpt lat="50.10726" lon="8.6815">
        <ele>139.922149</ele>
        <time>2023-07-03T09:04:26.655Z</time>
      </trkpt>
      <trkpt lat="50.10729" lon="8.68166">
        <ele>139.871591</ele>
        <time>2023-07-03T09:04:28.658Z</time>
      </trkpt>
      <trkpt lat="50.10732" lon="8.68182">
        <ele>139.821139</ele>
        <time>2023-07-03T09:04:30.660Z</time>
      </trkpt>
      <trkpt lat="50.10734" lon="8.68198">
        <ele>139.769871</ele>
        <time>2023-07-03T09:04:32.649Z</time>
      </trkpt>
      <trkpt lat="50.10737" lon="8.68214">
        <ele>139.719839</ele>
        <time>2023-07-03T09:04:34.651Z</time>
      </trkpt>
      <trkpt lat="50.1074" lon="8.6823">
        <ele>139.671112</ele>
        <time>2023-07-03T09:04:36.667Z</time>
      </trkpt>
      <trkpt lat="50.10741" lon="8.68246">
        <ele>139.62126</ele>
        <time>2023-07-03T09:04:38.658Z</time>
      </trkpt>
      <trkpt lat="50.10743" lon="8.68262">
        <ele>139.569394</ele>
        <time>2023-07-03T09:04:40.671Z</time>
      </trkpt>
      <trkpt lat="50.10746" lon="8.68278">
        <ele>139.519066</ele>
        <time>2023-07-03T09:04:42.665Z</time>
      </trkpt>
      <trkpt lat="50.10749" lon="8.68295">
        <ele>139.466126</ele>
        <time>2023-07-03T09:04:44.660Z</time>
      </trkpt>
      <trkpt lat="50.10751" lon="8.68312">
        <ele>139.52842</ele>
        <time>2023-07-03T09:04:46.643Z</time>
      </trkpt>
      <trkpt lat="50.10753" lon="8.68328">
        <ele>139.591331</ele>
        <time>2023-07-03T09:04:48.669Z</time>
      </trkpt>
      <trkpt lat="50.10755" lon="8.68344">
        <ele>139.652252</ele>
        <time>2023-07-03T09:04:50.674Z</time>
      </trkpt>
      <trkpt lat="50.10757" lon="8.6836">
        <ele>139.711953</ele>
        <time>2023-07-03T09:04:52.660Z</time>
      </trkpt>
      <trkpt lat="50.1076" lon="8.68376">
        <ele>139.775447</ele>
        <time>2023-07-03T09:04:54.657Z</time>
      </trkpt>
      <trkpt lat="50.10762" lon="8.68392">
        <ele>139.835151</ele>
        <time>2023-07-03T09:04:56.648Z</time>
      </trkpt>
      <trkpt lat="50.10764" lon="8.68408">
        <ele>139.897865</ele>
        <time>2023-07-03T09:04:58.676Z</time>
      </trkpt>
      <trkpt lat="50.10765" lon="8.68424">
        <ele>139.957988</ele>
        <time>2023-07-03T09:05:00.670Z</time>
      </trkpt>
      <trkpt lat="50.10767" lon="8.68441">
        <ele>140.021637</ele>
        <time>2023-07-03T09:05:02.661Z</time>
      </trkpt>
      <trkpt lat="50.10768" lon="8.68457">
        <ele>140.082534</ele>
        <time>2023-07-03T09:05:04.665Z</time>
      </trkpt>
      <trkpt lat="50.10769" lon="8.68473">
        <ele>140.144257</ele>
        <time>2023-07-03T09:05:06.655Z</time>
      </trkpt>
      <trkpt lat="50.10769" lon="8.6849">
        <ele>140.206177</ele>
        <time>2023-07-03T09:05:08.652Z</time>
      </trkpt>
      <trkpt lat="50.1077" lon="8.68506">
        <ele>140.267392</ele>
        <time>2023-07-03T09:05:10.647Z</time>
      </trkpt>
      <trkpt lat="50.1077" lon="8.68522">
        <ele>140.32631</ele>
        <time>2023-07-03T09:05:12.664Z</time>
      </trkpt>
      <trkpt lat="50.10769" lon="8.68538">
        <ele>140.386162</ele>
        <time>2023-07-03T09:05:14.652Z</time>
      </trkpt>
      <trkpt lat="50.10768" lon="8.68553">
        <ele>140.445185</ele>
        <time>2023-07-03T09:05:16.641Z</time>
      </trkpt>
      <trkpt lat="50.10768" lon="8.6857">
        <ele>140.508299</ele>
        <time>2023-07-03T09:05:18.670Z</time>
      </trkpt>
      <trkpt lat="50.10765" lon="8.68586">
        <ele>140.514491</ele>
        <time>2023-07-03T09:05:20.665Z</time>
      </trkpt>
      <trkpt lat="50.10763" lon="8.68601">
        <ele>140.510741</ele>
        <time>2023-07-03T09:05:22.659Z</time>
      </trkpt>
      <trkpt lat="50.10763" lon="8.68617">
        <ele>140.506857</ele>
        <time>2023-07-03T09:05:24.666Z</time>
      </trkpt>
      <trkpt lat="50.10762" lon="8.68633">
        <ele>140.502949</ele>
        <time>2023-07-03T09:05:26.659Z</time>
      </trkpt>
      <trkpt lat="50.1076" lon="8.68649">
        <ele>140.499133</ele>
        <time>2023-07-03T09:05:28.659Z</time>
      </trkpt>
      <trkpt lat="50.10757" lon="8.68664">
        <ele>140.495166</ele>
        <time>2023-07-03T09:05:30.678Z</time>
      </trkpt>
      <trkpt lat="50.10755" lon="8.68681">
        <ele>140.491074</ele>
        <time>2023-07-03T09:05:32.664Z</time>
      </trkpt>
      <trkpt lat="50.10751" lon="8.68696">
        <ele>140.487215</ele>
        <time>2023-07-03T09:05:34.657Z</time>
      </trkpt>
      <trkpt lat="50.10748" lon="8.68711">
        <ele>140.483357</ele>
        <time>2023-07-03T09:05:36.653Z</time>
      </trkpt>
      <trkpt lat="50.10746" lon="8.68725">
        <ele>140.479842</ele>
        <time>2023-07-03T09:05:38.660Z</time>
      </trkpt>
      <trkpt lat="50.10745" lon="8.68741">
        <ele>140.476161</ele>
        <time>2023-07-03T09:05:40.652Z</time>
      </trkpt>
      <trkpt lat="50.10745" lon="8.68757">
        <ele>140.472274</ele>
        <time>2023-07-03T09:05:42.657Z</time>
      </trkpt>
      <trkpt lat="50.10744" lon="8.68772">
        <ele>140.468488</ele>
        <time>2023-07-03T09:05:44.663Z</time>
      </trkpt>
      <trkpt lat="50.10746" lon="8.68789">
        <ele>140.464487</ele>
        <time>2023-07-03T09:05:46.651Z</time>
      </trkpt>
      <trkpt lat="50.10748" lon="8.68805">
        <ele>140.460553</ele>
        <time>2023-07-03T09:05:48.653Z</time>
      </trkpt>
      <trkpt lat="50.10749" lon="8.68821">
        <ele>140.456759</ele>
        <time>2023-07-03T09:05:50.669Z</time>
      </trkpt>
      <trkpt lat="50.10751" lon="8.68836">
        <ele>140.452875</ele>
        <time>2023-07-03T09:05:52.666Z</time>
      </trkpt>
      <trkpt lat="50.10752" lon="8.68853">
        <ele>140.506455</ele>
        <time>2023-07-03T09:05:54.648Z</time>
      </trkpt>
      <trkpt lat="50.10752" lon="8.68869">
        <ele>140.69832</ele>
        <time>2023-07-03T09:05:56.649Z</time>
      </trkpt>
      <trkpt lat="50.10751" lon="8.68886">
        <ele>140.890489</ele>
        <time>2023-07-03T09:05:58.648Z</time>
      </trkpt>
      <trkpt lat="50.10749" lon="8.68902">
        <ele>141.075911</ele>
        <time>2023-07-03T09:06:00.651Z</time>
      </trkpt>
      <trkpt lat="50.10748" lon="8.68917">
        <ele>141.255216</ele>
        <time>2023-07-03T09:06:02.675Z</time>
      </trkpt>
      <trkpt lat="50.10746" lon="8.68932">
        <ele>141.431825</ele>
        <time>2023-07-03T09:06:04.673Z</time>
      </trkpt>
      <trkpt lat="50.10745" lon="8.68947">
        <ele>141.611</ele>
        <time>2023-07-03T09:06:06.667Z</time>
      </trkpt>
      <trkpt lat="50.10743" lon="8.68963">
        <ele>141.792752</ele>
        <time>2023-07-03T09:06:08.660Z</time>
      </trkpt>
      <trkpt lat="50.10741" lon="8.68978">
        <ele>141.974504</ele>
        <time>2023-07-03T09:06:10.680Z</time>
      </trkpt>
      <trkpt lat="50.1074" lon="8.68994">
        <ele>142.159982</ele>
        <time>2023-07-03T09:06:12.663Z</time>
      </trkpt>
      <trkpt lat="50.10738" lon="8.6901">
        <ele>142.34258</ele>
        <time>2023-07-03T09:06:14.670Z</time>
      </trkpt>
      <trkpt lat="50.10737" lon="8.69025">
        <ele>142.52418</ele>
        <time>2023-07-03T09:06:16.663Z</time>
      </trkpt>
      <trkpt lat="50.10735" lon="8.69041">
        <ele>142.705359</ele>
        <time>2023-07-03T09:06:18.687Z</time>
      </trkpt>
      <trkpt lat="50.10734" lon="8.69056">
        <ele>142.878271</ele>
        <time>2023-07-03T09:06:20.656Z</time>
      </trkpt>
      <trkpt lat="50.10733" lon="8.69071">
        <ele>143.062166</ele>
        <time>2023-07-03T09:06:22.660Z</time>
      </trkpt>
      <trkpt lat="50.10731" lon="8.69087">
        <ele>143.243086</ele>
        <time>2023-07-03T09:06:24.676Z</time>
      </trkpt>
      <trkpt lat="50.1073" lon="8.69103">
        <ele>143.427743</ele>
        <time>2023-07-03T09:06:26.657Z</time>
      </trkpt>
      <trkpt lat="50.10727" lon="8.69118">
        <ele>143.614848</ele>
        <time>2023-07-03T09:06:28.660Z</time>
      </trkpt>
      <trkpt lat="50.10725" lon="8.69134">
        <ele>143.665652</ele>
        <time>2023-07-03T09:06:30.660Z</time>
      </trkpt>
      <trkpt lat="50.10724" lon="8.69151">
        <ele>143.620156</ele>
        <time>2023-07-03T09:06:32.643Z</time>
      </trkpt>
      <trkpt lat="50.10723" lon="8.69168">
        <ele>143.573614</ele>
        <time>2023-07-03T09:06:34.658Z</time>
      </trkpt>
      <trkpt lat="50.10721" lon="8.69184">
        <ele>143.5296</ele>
        <time>2023-07-03T09:06:36.642Z</time>
      </trkpt>
      <trkpt lat="50.1072" lon="8.692">
        <ele>143.483414</ele>
        <time>2023-07-03T09:06:38.667Z</time>
      </trkpt>
      <trkpt lat="50.1072" lon="8.69218">
        <ele>143.436559</ele>
        <time>2023-07-03T09:06:40.655Z</time>
      </trkpt>
      <trkpt lat="50.10718" lon="8.69235">
        <ele>143.389476</ele>
        <time>2023-07-03T09:06:42.656Z</time>
      </trkpt>
      <trkpt lat="50.10717" lon="8.69252">
        <ele>143.341852</ele>
        <time>2023-07-03T09:06:44.661Z</time>
      </trkpt>
      <trkpt lat="50.10715" lon="8.69269">
        <ele>143.294123</ele>
        <time>2023-07-03T09:06:46.658Z</time>
      </trkpt>
      <trkpt lat="50.10712" lon="8.69287">
        <ele>143.244792</ele>
        <time>2023-07-03T09:06:48.653Z</time>
      </trkpt>
      <trkpt lat="50.10711" lon="8.69305">
        <ele>143.195548</ele>
        <time>2023-07-03T09:06:50.658Z</time>
      </trkpt>
      <trkpt lat="50.10709" lon="8.69323">
        <ele>143.145714</ele>
        <time>2023-07-03T09:06:52.654Z</time>
      </trkpt>
      <trkpt lat="50.10708" lon="8.69341">
        <ele>143.096944</ele>
        <time>2023-07-03T09:06:54.656Z</time>
      </trkpt>
      <trkpt lat="50.10706" lon="8.69358">
        <ele>143.048897</ele>
        <time>2023-07-03T09:06:56.651Z</time>
      </trkpt>
      <trkpt lat="50.10704" lon="8.69377">
        <ele>142.999115</ele>
        <time>2023-07-03T09:06:58.674Z</time>
      </trkpt>
      <trkpt lat="50.10703" lon="8.69394">
        <ele>142.949989</ele>
        <time>2023-07-03T09:07:00.650Z</time>
      </trkpt>
      <trkpt lat="50.10701" lon="8.69412">
        <ele>142.956295</ele>
        <time>2023-07-03T09:07:02.654Z</time>
      </trkpt>
      <trkpt lat="50.10698" lon="8.69429">
        <ele>143.003364</ele>
        <time>2023-07-03T09:07:04.650Z</time>
      </trkpt>
      <trkpt lat="50.10696" lon="8.69446">
        <ele>143.050212</ele>
        <time>2023-07-03T09:07:06.651Z</time>
      </trkpt>
      <trkpt lat="50.10694" lon="8.69463">
        <ele>143.096814</ele>
        <time>2023-07-03T09:07:08.649Z</time>
      </trkpt>
      <trkpt lat="50.10692" lon="8.6948">
        <ele>143.144373</ele>
        <time>2023-07-03T09:07:10.654Z</time>
      </trkpt>
      <trkpt lat="50.1069" lon="8.69497">
        <ele>143.190044</ele>
        <time>2023-07-03T09:07:12.663Z</time>
      </trkpt>
      <trkpt lat="50.10689" lon="8.69514">
        <ele>143.237349</ele>
        <time>2023-07-03T09:07:14.658Z</time>
      </trkpt>
      <trkpt lat="50.10688" lon="8.69532">
        <ele>143.28544</ele>
        <time>2023-07-03T09:07:16.644Z</time>
      </trkpt>
      <trkpt lat="50.10686" lon="8.69549">
        <ele>143.332163</ele>
        <time>2023-07-03T09:07:18.674Z</time>
      </trkpt>
      <trkpt lat="50.10685" lon="8.69566">
        <ele>143.377622</ele>
        <time>2023-07-03T09:07:20.664Z</time>
      </trkpt>
      <trkpt lat="50.10683" lon="8.69583">
        <ele>143.424906</ele>
        <time>2023-07-03T09:07:22.660Z</time>
      </trkpt>
      <trkpt lat="50.10682" lon="8.696">
        <ele>143.471439</ele>
        <time>2023-07-03T09:07:24.659Z</time>
      </trkpt>
      <trkpt lat="50.10679" lon="8.69616">
        <ele>143.516303</ele>
        <time>2023-07-03T09:07:26.658Z</time>
      </trkpt>
      <trkpt lat="50.10678" lon="8.69632">
        <ele>143.560397</ele>
        <time>2023-07-03T09:07:28.669Z</time>
      </trkpt>
      <trkpt lat="50.10677" lon="8.69648">
        <ele>143.603951</ele>
        <time>2023-07-03T09:07:30.666Z</time>
      </trkpt>
      <trkpt lat="50.10676" lon="8.69664">
        <ele>143.647799</ele>
        <time>2023-07-03T09:07:32.661Z</time>
      </trkpt>
      <trkpt lat="50.10675" lon="8.6968">
        <ele>143.692277</ele>
        <time>2023-07-03T09:07:34.666Z</time>
      </trkpt>
      <trkpt lat="50.10674" lon="8.69697">
        <ele>143.744344</ele>
        <time>2023-07-03T09:07:36.658Z</time>
      </trkpt>
      <trkpt lat="50.10672" lon="8.69713">
        <ele>143.79646</ele>
        <time>2023-07-03T09:07:38.660Z</time>
      </trkpt>
      <trkpt lat="50.1067" lon="8.69729">
        <ele>143.848731</ele>
        <time>2023-07-03T09:07:40.665Z</time>
      </trkpt>
      <trkpt lat="50.10669" lon="8.69746">
        <ele>143.900022</ele>
        <time>2023-07-03T09:07:42.664Z</time>
      </trkpt>
      <trkpt lat="50.10667" lon="8.69762">
        <ele>143.952456</ele>
        <time>2023-07-03T09:07:44.672Z</time>
      </trkpt>
      <trkpt lat="50.10665" lon="8.69778">
        <ele>144.003097</ele>
        <time>2023-07-03T09:07:46.648Z</time>
      </trkpt>
      <trkpt lat="50.10663" lon="8.69795">
        <ele>144.057387</ele>
        <time>2023-07-03T09:07:48.640Z</time>
      </trkpt>
      <trkpt lat="50.10661" lon="8.69812">
        <ele>144.1116</ele>
        <time>2023-07-03T09:07:50.657Z</time>
      </trkpt>
      <trkpt lat="50.1066" lon="8.69828">
        <ele>144.162634</ele>
        <time>2023-07-03T09:07:52.664Z</time>
      </trkpt>
      <trkpt lat="50.10658" lon="8.69845">
        <ele>144.217043</ele>
        <time>2023-07-03T09:07:54.660Z</time>
      </trkpt>
      <trkpt lat="50.10657" lon="8.69862">
        <ele>144.270722</ele>
        <time>2023-07-03T09:07:56.668Z</time>
      </trkpt>
      <trkpt lat="50.10656" lon="8.6988">
        <ele>144.327528</ele>
        <time>2023-07-03T09:07:58.694Z</time>
      </trkpt>
      <trkpt lat="50.10655" lon="8.69898">
        <ele>144.38484</ele>
        <time>2023-07-03T09:08:00.667Z</time>
      </trkpt>
      <trkpt lat="50.10654" lon="8.69916">
        <ele>144.441241</ele>
        <time>2023-07-03T09:08:02.654Z</time>
      </trkpt>
      <trkpt lat="50.10651" lon="8.69933">
        <ele>144.496132</ele>
        <time>2023-07-03T09:08:04.670Z</time>
      </trkpt>
      <trkpt lat="50.10649" lon="8.6995">
        <ele>144.549511</ele>
        <time>2023-07-03T09:08:06.666Z</time>
      </trkpt>
      <trkpt lat="50.10646" lon="8.69966">
        <ele>144.531449</ele>
        <time>2023-07-03T09:08:08.660Z</time>
      </trkpt>
      <trkpt lat="50.10645" lon="8.69982">
        <ele>144.465981</ele>
        <time>2023-07-03T09:08:10.670Z</time>
      </trkpt>
      <trkpt lat="50.10644" lon="8.7">
        <ele>144.397973</ele>
        <time>2023-07-03T09:08:12.665Z</time>
      </trkpt>
      <trkpt lat="50.10643" lon="8.70017">
        <ele>144.332118</ele>
        <time>2023-07-03T09:08:14.657Z</time>
      </trkpt>
      <trkpt lat="50.10641" lon="8.70034">
        <ele>144.264891</ele>
        <time>2023-07-03T09:08:16.659Z</time>
      </trkpt>
      <trkpt lat="50.1064" lon="8.7005">
        <ele>144.20065</ele>
        <time>2023-07-03T09:08:18.672Z</time>
      </trkpt>
      <trkpt lat="50.10638" lon="8.70067">
        <ele>144.134006</ele>
        <time>2023-07-03T09:08:20.655Z</time>
      </trkpt>
      <trkpt lat="50.10636" lon="8.70083">
        <ele>144.069352</ele>
        <time>2023-07-03T09:08:22.646Z</time>
      </trkpt>
      <trkpt lat="50.10634" lon="8.70098">
        <ele>144.008745</ele>
        <time>2023-07-03T09:08:24.666Z</time>
      </trkpt>
      <trkpt lat="50.10632" lon="8.70114">
        <ele>143.947531</ele>
        <time>2023-07-03T09:08:26.666Z</time>
      </trkpt>
      <trkpt lat="50.1063" lon="8.70128">
        <ele>143.891272</ele>
        <time>2023-07-03T09:08:28.657Z</time>
      </trkpt>
      <trkpt lat="50.10625" lon="8.70141">
        <ele>143.831883</ele>
        <time>2023-07-03T09:08:30.657Z</time>
      </trkpt>
      <trkpt lat="50.1062" lon="8.70154">
        <ele>143.771406</ele>
        <time>2023-07-03T09:08:32.671Z</time>
      </trkpt>
      <trkpt lat="50.10618" lon="8.70171">
        <ele>143.707247</ele>
        <time>2023-07-03T09:08:34.668Z</time>
      </trkpt>
      <trkpt lat="50.10617" lon="8.70187">
        <ele>143.643949</ele>
        <time>2023-07-03T09:08:36.660Z</time>
      </trkpt>
      <trkpt lat="50.10615" lon="8.70202">
        <ele>143.58442</ele>
        <time>2023-07-03T09:08:38.652Z</time>
      </trkpt>
      <trkpt lat="50.10614" lon="8.70217">
        <ele>143.524293</ele>
        <time>2023-07-03T09:08:40.673Z</time>
      </trkpt>
      <trkpt lat="50.10613" lon="8.70232">
        <ele>143.478193</ele>
        <time>2023-07-03T09:08:42.668Z</time>
      </trkpt>
      <trkpt lat="50.10611" lon="8.70247">
        <ele>143.482343</ele>
        <time>2023-07-03T09:08:44.661Z</time>
      </trkpt>
      <trkpt lat="50.10609" lon="8.70263">
        <ele>143.486976</ele>
        <time>2023-07-03T09:08:46.644Z</time>
      </trkpt>
      <trkpt lat="50.10608" lon="8.70279">
        <ele>143.491712</ele>
        <time>2023-07-03T09:08:48.659Z</time>
      </trkpt>
      <trkpt lat="50.10606" lon="8.70295">
        <ele>143.49628</ele>
        <time>2023-07-03T09:08:50.661Z</time>
      </trkpt>
      <trkpt lat="50.10605" lon="8.70311">
        <ele>143.500876</ele>
        <time>2023-07-03T09:08:52.666Z</time>
      </trkpt>
      <trkpt lat="50.10603" lon="8.70326">
        <ele>143.505085</ele>
        <time>2023-07-03T09:08:54.660Z</time>
      </trkpt>
      <trkpt lat="50.10602" lon="8.70341">
        <ele>143.509277</ele>
        <time>2023-07-03T09:08:56.660Z</time>
      </trkpt>
      <trkpt lat="50.10601" lon="8.70356">
        <ele>143.513571</ele>
        <time>2023-07-03T09:08:58.661Z</time>
      </trkpt>
      <trkpt lat="50.106" lon="8.70371">
        <ele>143.517855</ele>
        <time>2023-07-03T09:09:00.662Z</time>
      </trkpt>
      <trkpt lat="50.10599" lon="8.70387">
        <ele>143.522252</ele>
        <time>2023-07-03T09:09:02.668Z</time>
      </trkpt>
      <trkpt lat="50.10598" lon="8.70402">
        <ele>143.526701</ele>
        <time>2023-07-03T09:09:04.655Z</time>
      </trkpt>
      <trkpt lat="50.10599" lon="8.70418">
        <ele>143.531175</ele>
        <time>2023-07-03T09:09:06.684Z</time>
      </trkpt>
      <trkpt lat="50.10601" lon="8.70433">
        <ele>143.535476</ele>
        <time>2023-07-03T09:09:08.675Z</time>
      </trkpt>
      <trkpt lat="50.10604" lon="8.70449">
        <ele>143.540041</ele>
        <time>2023-07-03T09:09:10.739Z</time>
      </trkpt>
      <trkpt lat="50.10607" lon="8.70464">
        <ele>143.544563</ele>
        <time>2023-07-03T09:09:12.663Z</time>
      </trkpt>
      <trkpt lat="50.10608" lon="8.7048">
        <ele>143.549263</ele>
        <time>2023-07-03T09:09:14.646Z</time>
      </trkpt>
      <trkpt lat="50.10608" lon="8.70495">
        <ele>143.553507</ele>
        <time>2023-07-03T09:09:16.664Z</time>
      </trkpt>
      <trkpt lat="50.10609" lon="8.70518">
        <ele>143.583244</ele>
        <time>2023-07-03T09:09:19.654Z</time>
      </trkpt>
      <trkpt lat="50.10609" lon="8.70534">
        <ele>143.62005</ele>
        <time>2023-07-03T09:09:21.638Z</time>
      </trkpt>
      <trkpt lat="50.10608" lon="8.70551">
        <ele>143.656598</ele>
        <time>2023-07-03T09:09:23.657Z</time>
      </trkpt>
      <trkpt lat="50.10609" lon="8.70566">
        <ele>143.691132</ele>
        <time>2023-07-03T09:09:25.655Z</time>
      </trkpt>
      <trkpt lat="50.10609" lon="8.70582">
        <ele>143.726092</ele>
        <time>2023-07-03T09:09:27.669Z</time>
      </trkpt>
      <trkpt lat="50.10609" lon="8.70597">
        <ele>143.76038</ele>
        <time>2023-07-03T09:09:29.656Z</time>
      </trkpt>
      <trkpt lat="50.10608" lon="8.70612">
        <ele>143.794249</ele>
        <time>2023-07-03T09:09:31.653Z</time>
      </trkpt>
      <trkpt lat="50.10606" lon="8.70633">
        <ele>143.840881</ele>
        <time>2023-07-03T09:09:34.656Z</time>
      </trkpt>
      <trkpt lat="50.10605" lon="8.70647">
        <ele>143.874225</ele>
        <time>2023-07-03T09:09:36.652Z</time>
      </trkpt>
      <trkpt lat="50.10604" lon="8.70662">
        <ele>143.907726</ele>
        <time>2023-07-03T09:09:38.664Z</time>
      </trkpt>
      <trkpt lat="50.10603" lon="8.70678">
        <ele>143.944227</ele>
        <time>2023-07-03T09:09:40.661Z</time>
      </trkpt>
      <trkpt lat="50.10603" lon="8.70695">
        <ele>143.982332</ele>
        <time>2023-07-03T09:09:42.670Z</time>
      </trkpt>
      <trkpt lat="50.10602" lon="8.70712">
        <ele>144.020053</ele>
        <time>2023-07-03T09:09:44.652Z</time>
      </trkpt>
      <trkpt lat="50.10602" lon="8.70728">
        <ele>144.05456</ele>
        <time>2023-07-03T09:09:46.653Z</time>
      </trkpt>
      <trkpt lat="50.10601" lon="8.70743">
        <ele>144.088207</ele>
        <time>2023-07-03T09:09:48.668Z</time>
      </trkpt>
      <trkpt lat="50.106" lon="8.70758">
        <ele>144.122703</ele>
        <time>2023-07-03T09:09:50.653Z</time>
      </trkpt>
      <trkpt lat="50.10599" lon="8.70772">
        <ele>144.155535</ele>
        <time>2023-07-03T09:09:52.662Z</time>
      </trkpt>
      <trkpt lat="50.10598" lon="8.70789">
        <ele>144.186086</ele>
        <time>2023-07-03T09:09:54.662Z</time>
      </trkpt>
      <trkpt lat="50.10597" lon="8.70804">
        <ele>144.192246</ele>
        <time>2023-07-03T09:09:56.658Z</time>
      </trkpt>
      <trkpt lat="50.10597" lon="8.70819">
        <ele>144.198123</ele>
        <time>2023-07-03T09:09:58.647Z</time>
      </trkpt>
      <trkpt lat="50.10596" lon="8.70834">
        <ele>144.204306</ele>
        <time>2023-07-03T09:10:00.638Z</time>
      </trkpt>
      <trkpt lat="50.10596" lon="8.7085">
        <ele>144.210829</ele>
        <time>2023-07-03T09:10:02.661Z</time>
      </trkpt>
      <trkpt lat="50.10595" lon="8.70866">
        <ele>144.216994</ele>
        <time>2023-07-03T09:10:04.673Z</time>
      </trkpt>
      <trkpt lat="50.10594" lon="8.70881">
        <ele>144.223229</ele>
        <time>2023-07-03T09:10:06.648Z</time>
      </trkpt>
      <trkpt lat="50.10593" lon="8.70897">
        <ele>144.229584</ele>
        <time>2023-07-03T09:10:08.656Z</time>
      </trkpt>
      <trkpt lat="50.10593" lon="8.70914">
        <ele>144.236242</ele>
        <time>2023-07-03T09:10:10.678Z</time>
      </trkpt>
      <trkpt lat="50.10593" lon="8.7093">
        <ele>144.242742</ele>
        <time>2023-07-03T09:10:12.659Z</time>
      </trkpt>
      <trkpt lat="50.10593" lon="8.70946">
        <ele>144.24905</ele>
        <time>2023-07-03T09:10:14.674Z</time>
      </trkpt>
      <trkpt lat="50.10591" lon="8.70963">
        <ele>144.25571</ele>
        <time>2023-07-03T09:10:16.660Z</time>
      </trkpt>
      <trkpt lat="50.10591" lon="8.70979">
        <ele>144.262034</ele>
        <time>2023-07-03T09:10:18.680Z</time>
      </trkpt>
      <trkpt lat="50.1059" lon="8.70994">
        <ele>144.268341</ele>
        <time>2023-07-03T09:10:20.646Z</time>
      </trkpt>
      <trkpt lat="50.10589" lon="8.71011">
        <ele>144.274916</ele>
        <time>2023-07-03T09:10:22.664Z</time>
      </trkpt>
      <trkpt lat="50.10588" lon="8.71027">
        <ele>144.281465</ele>
        <time>2023-07-03T09:10:24.662Z</time>
      </trkpt>
      <trkpt lat="50.10588" lon="8.71044">
        <ele>144.288018</ele>
        <time>2023-07-03T09:10:26.660Z</time>
      </trkpt>
      <trkpt lat="50.10587" lon="8.71061">
        <ele>144.294865</ele>
        <time>2023-07-03T09:10:28.659Z</time>
      </trkpt>
      <trkpt lat="50.10586" lon="8.71077">
        <ele>144.337509</ele>
        <time>2023-07-03T09:10:30.666Z</time>
      </trkpt>
      <trkpt lat="50.10585" lon="8.71094">
        <ele>144.396792</ele>
        <time>2023-07-03T09:10:32.656Z</time>
      </trkpt>
      <trkpt lat="50.10584" lon="8.71109">
        <ele>144.447034</ele>
        <time>2023-07-03T09:10:34.662Z</time>
      </trkpt>
      <trkpt lat="50.10584" lon="8.71129">
        <ele>144.518911</ele>
        <time>2023-07-03T09:10:37.657Z</time>
      </trkpt>
      <trkpt lat="50.10582" lon="8.71149">
        <ele>144.586641</ele>
        <time>2023-07-03T09:10:39.677Z</time>
      </trkpt>
      <trkpt lat="50.10581" lon="8.71166">
        <ele>144.644848</ele>
        <time>2023-07-03T09:10:41.653Z</time>
      </trkpt>
      <trkpt lat="50.10581" lon="8.71183">
        <ele>144.706697</ele>
        <time>2023-07-03T09:10:43.667Z</time>
      </trkpt>
      <trkpt lat="50.10581" lon="8.71199">
        <ele>144.760609</ele>
        <time>2023-07-03T09:10:45.666Z</time>
      </trkpt>
      <trkpt lat="50.1058" lon="8.71215">
        <ele>144.815811</ele>
        <time>2023-07-03T09:10:47.643Z</time>
      </trkpt>
      <trkpt lat="50.10579" lon="8.71231">
        <ele>144.872733</ele>
        <time>2023-07-03T09:10:49.660Z</time>
      </trkpt>
      <trkpt lat="50.10579" lon="8.71248">
        <ele>144.931593</ele>
        <time>2023-07-03T09:10:51.660Z</time>
      </trkpt>
      <trkpt lat="50.10579" lon="8.71265">
        <ele>144.98835</ele>
        <time>2023-07-03T09:10:53.658Z</time>
      </trkpt>
      <trkpt lat="50.10578" lon="8.7128">
        <ele>145.041833</ele>
        <time>2023-07-03T09:10:55.655Z</time>
      </trkpt>
      <trkpt lat="50.10577" lon="8.71297">
        <ele>145.09921</ele>
        <time>2023-07-03T09:10:57.664Z</time>
      </trkpt>
      <trkpt lat="50.10576" lon="8.71313">
        <ele>145.156033</ele>
        <time>2023-07-03T09:10:59.655Z</time>
      </trkpt>
      <trkpt lat="50.10575" lon="8.71329">
        <ele>145.210982</ele>
        <time>2023-07-03T09:11:01.657Z</time>
      </trkpt>
      <trkpt lat="50.10575" lon="8.71344">
        <ele>145.26182</ele>
        <time>2023-07-03T09:11:03.664Z</time>
      </trkpt>
      <trkpt lat="50.10574" lon="8.71359">
        <ele>145.236379</ele>
        <time>2023-07-03T09:11:05.663Z</time>
      </trkpt>
      <trkpt lat="50.10574" lon="8.71374">
        <ele>145.20591</ele>
        <time>2023-07-03T09:11:07.658Z</time>
      </trkpt>
      <trkpt lat="50.10573" lon="8.71389">
        <ele>145.175387</ele>
        <time>2023-07-03T09:11:09.665Z</time>
      </trkpt>
      <trkpt lat="50.10573" lon="8.71406">
        <ele>145.142285</ele>
        <time>2023-07-03T09:11:11.652Z</time>
      </trkpt>
      <trkpt lat="50.10572" lon="8.71422">
        <ele>145.109702</ele>
        <time>2023-07-03T09:11:13.657Z</time>
      </trkpt>
      <trkpt lat="50.10572" lon="8.71437">
        <ele>145.078855</ele>
        <time>2023-07-03T09:11:15.669Z</time>
      </trkpt>
      <trkpt lat="50.10571" lon="8.71453">
        <ele>145.046542</ele>
        <time>2023-07-03T09:11:17.659Z</time>
      </trkpt>
      <trkpt lat="50.10571" lon="8.71468">
        <ele>145.016072</ele>
        <time>2023-07-03T09:11:19.664Z</time>
      </trkpt>
      <trkpt lat="50.1057" lon="8.71485">
        <ele>144.982887</ele>
        <time>2023-07-03T09:11:21.657Z</time>
      </trkpt>
      <trkpt lat="50.1057" lon="8.71503">
        <ele>144.946776</ele>
        <time>2023-07-03T09:11:23.667Z</time>
      </trkpt>
      <trkpt lat="50.10569" lon="8.71518">
        <ele>144.916028</ele>
        <time>2023-07-03T09:11:25.671Z</time>
      </trkpt>
      <trkpt lat="50.10568" lon="8.71533">
        <ele>144.884764</ele>
        <time>2023-07-03T09:11:27.653Z</time>
      </trkpt>
      <trkpt lat="50.10569" lon="8.71549">
        <ele>144.853085</ele>
        <time>2023-07-03T09:11:29.656Z</time>
      </trkpt>
      <trkpt lat="50.10568" lon="8.71567">
        <ele>144.817489</ele>
        <time>2023-07-03T09:11:31.646Z</time>
      </trkpt>
      <trkpt lat="50.10567" lon="8.71584">
        <ele>144.782559</ele>
        <time>2023-07-03T09:11:33.667Z</time>
      </trkpt>
      <trkpt lat="50.10567" lon="8.716">
        <ele>144.750881</ele>
        <time>2023-07-03T09:11:35.664Z</time>
      </trkpt>
      <trkpt lat="50.10567" lon="8.71614">
        <ele>144.72084</ele>
        <time>2023-07-03T09:11:37.665Z</time>
      </trkpt>
      <trkpt lat="50.10567" lon="8.71629">
        <ele>144.702452</ele>
        <time>2023-07-03T09:11:39.658Z</time>
      </trkpt>
      <trkpt lat="50.10567" lon="8.71648">
        <ele>144.713341</ele>
        <time>2023-07-03T09:11:42.662Z</time>
      </trkpt>
      <trkpt lat="50.10565" lon="8.71664">
        <ele>144.722356</ele>
        <time>2023-07-03T09:11:46.645Z</time>
      </trkpt>
      <trkpt lat="50.10569" lon="8.71682">
        <ele>144.732526</ele>
        <time>2023-07-03T09:11:51.652Z</time>
      </trkpt>
      <trkpt lat="50.10567" lon="8.717">
        <ele>144.742978</ele>
        <time>2023-07-03T09:11:55.654Z</time>
      </trkpt>
      <trkpt lat="50.10568" lon="8.71719">
        <ele>144.753622</ele>
        <time>2023-07-03T09:11:58.655Z</time>
      </trkpt>
      <trkpt lat="50.10569" lon="8.71737">
        <ele>144.763855</ele>
        <time>2023-07-03T09:12:01.661Z</time>
      </trkpt>
      <trkpt lat="50.10572" lon="8.71755">
        <ele>144.773723</ele>
        <time>2023-07-03T09:12:04.665Z</time>
      </trkpt>
      <trkpt lat="50.10575" lon="8.71773">
        <ele>144.784345</ele>
        <time>2023-07-03T09:12:07.664Z</time>
      </trkpt>
      <trkpt lat="50.10578" lon="8.71792">
        <ele>144.795032</ele>
        <time>2023-07-03T09:12:10.666Z</time>
      </trkpt>
      <trkpt lat="50.1058" lon="8.7181">
        <ele>144.805665</ele>
        <time>2023-07-03T09:12:13.656Z</time>
      </trkpt>
      <trkpt lat="50.10582" lon="8.71826">
        <ele>144.814353</ele>
        <time>2023-07-03T09:12:15.661Z</time>
      </trkpt>
      <trkpt lat="50.10584" lon="8.71847">
        <ele>144.826125</ele>
        <time>2023-07-03T09:12:18.666Z</time>
      </trkpt>
      <trkpt lat="50.10585" lon="8.71861">
        <ele>144.834053</ele>
        <time>2023-07-03T09:12:20.660Z</time>
      </trkpt>
      <trkpt lat="50.10587" lon="8.71875">
        <ele>144.842271</ele>
        <time>2023-07-03T09:12:22.664Z</time>
      </trkpt>
      <trkpt lat="50.10589" lon="8.7189">
        <ele>144.850709</ele>
        <time>2023-07-03T09:12:24.672Z</time>
      </trkpt>
      <trkpt lat="50.10591" lon="8.71911">
        <ele>144.758008</ele>
        <time>2023-07-03T09:12:27.663Z</time>
      </trkpt>
      <trkpt lat="50.10594" lon="8.71932">
        <ele>144.572155</ele>
        <time>2023-07-03T09:12:30.666Z</time>
      </trkpt>
      <trkpt lat="50.10595" lon="8.71946">
        <ele>144.440803</ele>
        <time>2023-07-03T09:12:32.665Z</time>
      </trkpt>
      <trkpt lat="50.10597" lon="8.71962">
        <ele>144.297206</ele>
        <time>2023-07-03T09:12:34.657Z</time>
      </trkpt>
      <trkpt lat="50.10599" lon="8.71977">
        <ele>144.160145</ele>
        <time>2023-07-03T09:12:36.653Z</time>
      </trkpt>
      <trkpt lat="50.10601" lon="8.71991">
        <ele>144.023632</ele>
        <time>2023-07-03T09:12:38.672Z</time>
      </trkpt>
      <trkpt lat="50.10602" lon="8.72006">
        <ele>143.893064</ele>
        <time>2023-07-03T09:12:40.673Z</time>
      </trkpt>
      <trkpt lat="50.10603" lon="8.72021">
        <ele>143.758369</ele>
        <time>2023-07-03T09:12:42.663Z</time>
      </trkpt>
      <trkpt lat="50.10604" lon="8.72037">
        <ele>143.613758</ele>
        <time>2023-07-03T09:12:44.673Z</time>
      </trkpt>
      <trkpt lat="50.10606" lon="8.72052">
        <ele>143.476404</ele>
        <time>2023-07-03T09:12:46.644Z</time>
      </trkpt>
      <trkpt lat="50.10608" lon="8.72065">
        <ele>143.350456</ele>
        <time>2023-07-03T09:12:48.678Z</time>
      </trkpt>
      <trkpt lat="50.10615" lon="8.72078">
        <ele>143.202753</ele>
        <time>2023-07-03T09:12:51.646Z</time>
      </trkpt>
      <trkpt lat="50.10621" lon="8.72094">
        <ele>143.033673</ele>
        <time>2023-07-03T09:12:54.655Z</time>
      </trkpt>
      <trkpt lat="50.10622" lon="8.7211">
        <ele>142.890757</ele>
        <time>2023-07-03T09:12:56.647Z</time>
      </trkpt>
      <trkpt lat="50.10626" lon="8.72124">
        <ele>142.755703</ele>
        <time>2023-07-03T09:12:58.648Z</time>
      </trkpt>
      <trkpt lat="50.10628" lon="8.72139">
        <ele>142.621218</ele>
        <time>2023-07-03T09:13:00.662Z</time>
      </trkpt>
      <trkpt lat="50.1063" lon="8.72152">
        <ele>142.492314</ele>
        <time>2023-07-03T09:13:02.669Z</time>
      </trkpt>
      <trkpt lat="50.10632" lon="8.72172">
        <ele>142.355535</ele>
        <time>2023-07-03T09:13:05.664Z</time>
      </trkpt>
      <trkpt lat="50.1063" lon="8.72193">
        <ele>142.61941</ele>
        <time>2023-07-03T09:13:08.662Z</time>
      </trkpt>
      <trkpt lat="50.10626" lon="8.72211">
        <ele>142.867201</ele>
        <time>2023-07-03T09:13:11.650Z</time>
      </trkpt>
      <trkpt lat="50.10628" lon="8.72225">
        <ele>143.052162</ele>
        <time>2023-07-03T09:13:13.653Z</time>
      </trkpt>
      <trkpt lat="50.10631" lon="8.72239">
        <ele>143.232244</ele>
        <time>2023-07-03T09:13:15.658Z</time>
      </trkpt>
      <trkpt lat="50.10633" lon="8.72253">
        <ele>143.411985</ele>
        <time>2023-07-03T09:13:17.646Z</time>
      </trkpt>
      <trkpt lat="50.10638" lon="8.72266">
        <ele>143.606217</ele>
        <time>2023-07-03T09:13:19.657Z</time>
      </trkpt>
      <trkpt lat="50.10641" lon="8.72281">
        <ele>143.800302</ele>
        <time>2023-07-03T09:13:21.645Z</time>
      </trkpt>
      <trkpt lat="50.10646" lon="8.72301">
        <ele>144.073473</ele>
        <time>2023-07-03T09:13:24.665Z</time>
      </trkpt>
      <trkpt lat="50.1065" lon="8.72316">
        <ele>144.285981</ele>
        <time>2023-07-03T09:13:26.653Z</time>
      </trkpt>
      <trkpt lat="50.10653" lon="8.72333">
        <ele>144.505983</ele>
        <time>2023-07-03T09:13:28.675Z</time>
      </trkpt>
      <trkpt lat="50.10657" lon="8.72348">
        <ele>144.706189</ele>
        <time>2023-07-03T09:13:30.668Z</time>
      </trkpt>
      <trkpt lat="50.10659" lon="8.72363">
        <ele>144.910572</ele>
        <time>2023-07-03T09:13:32.660Z</time>
      </trkpt>
      <trkpt lat="50.10663" lon="8.72378">
        <ele>145.108908</ele>
        <time>2023-07-03T09:13:34.661Z</time>
      </trkpt>
      <trkpt lat="50.10665" lon="8.72392">
        <ele>145.298974</ele>
        <time>2023-07-03T09:13:36.656Z</time>
      </trkpt>
      <trkpt lat="50.10669" lon="8.72411">
        <ele>145.555197</ele>
        <time>2023-07-03T09:13:39.674Z</time>
      </trkpt>
      <trkpt lat="50.10672" lon="8.72425">
        <ele>145.7371</ele>
        <time>2023-07-03T09:13:41.661Z</time>
      </trkpt>
      <trkpt lat="50.10677" lon="8.72438">
        <ele>145.886098</ele>
        <time>2023-07-03T09:13:43.658Z</time>
      </trkpt>
      <trkpt lat="50.10681" lon="8.72452">
        <ele>145.86291</ele>
        <time>2023-07-03T09:13:45.660Z</time>
      </trkpt>
      <trkpt lat="50.10686" lon="8.72466">
        <ele>145.836762</ele>
        <time>2023-07-03T09:13:47.657Z</time>
      </trkpt>
      <trkpt lat="50.10691" lon="8.7248">
        <ele>145.811172</ele>
        <time>2023-07-03T09:13:49.660Z</time>
      </trkpt>
      <trkpt lat="50.10695" lon="8.72495">
        <ele>145.785014</ele>
        <time>2023-07-03T09:13:51.633Z</time>
      </trkpt>
      <trkpt lat="50.10699" lon="8.7251">
        <ele>145.758531</ele>
        <time>2023-07-03T09:13:53.673Z</time>
      </trkpt>
      <trkpt lat="50.10704" lon="8.72525">
        <ele>145.732333</ele>
        <time>2023-07-03T09:13:55.664Z</time>
      </trkpt>
      <trkpt lat="50.10708" lon="8.72541">
        <ele>145.705703</ele>
        <time>2023-07-03T09:13:57.662Z</time>
      </trkpt>
      <trkpt lat="50.10712" lon="8.72556">
        <ele>145.679361</ele>
        <time>2023-07-03T09:13:59.656Z</time>
      </trkpt>
      <trkpt lat="50.10716" lon="8.72571">
        <ele>145.653266</ele>
        <time>2023-07-03T09:14:01.677Z</time>
      </trkpt>
      <trkpt lat="50.10721" lon="8.72587">
        <ele>145.625425</ele>
        <time>2023-07-03T09:14:03.693Z</time>
      </trkpt>
      <trkpt lat="50.10726" lon="8.72603">
        <ele>145.597431</ele>
        <time>2023-07-03T09:14:05.684Z</time>
      </trkpt>
      <trkpt lat="50.10731" lon="8.72619">
        <ele>145.569376</ele>
        <time>2023-07-03T09:14:07.662Z</time>
      </trkpt>
      <trkpt lat="50.10733" lon="8.72636">
        <ele>145.542247</ele>
        <time>2023-07-03T09:14:09.676Z</time>
      </trkpt>
      <trkpt lat="50.10727" lon="8.72651">
        <ele>145.512834</ele>
        <time>2023-07-03T09:14:11.655Z</time>
      </trkpt>
      <trkpt lat="50.10717" lon="8.72662">
        <ele>145.484416</ele>
        <time>2023-07-03T09:14:13.670Z</time>
      </trkpt>
      <trkpt lat="50.10711" lon="8.72674">
        <ele>145.460152</ele>
        <time>2023-07-03T09:14:15.661Z</time>
      </trkpt>
      <trkpt lat="50.10709" lon="8.72694">
        <ele>145.455519</ele>
        <time>2023-07-03T09:14:18.650Z</time>
      </trkpt>
      <trkpt lat="50.10713" lon="8.72707">
        <ele>145.468431</ele>
        <time>2023-07-03T09:14:20.652Z</time>
      </trkpt>
      <trkpt lat="50.10721" lon="8.72716">
        <ele>145.481457</ele>
        <time>2023-07-03T09:14:22.655Z</time>
      </trkpt>
      <trkpt lat="50.1073" lon="8.72731">
        <ele>145.499976</ele>
        <time>2023-07-03T09:14:25.678Z</time>
      </trkpt>
      <trkpt lat="50.10738" lon="8.7274">
        <ele>145.513712</ele>
        <time>2023-07-03T09:14:27.657Z</time>
      </trkpt>
      <trkpt lat="50.10745" lon="8.72751">
        <ele>145.527783</ele>
        <time>2023-07-03T09:14:29.668Z</time>
      </trkpt>
      <trkpt lat="50.10753" lon="8.72763">
        <ele>145.542351</ele>
        <time>2023-07-03T09:14:31.655Z</time>
      </trkpt>
      <trkpt lat="50.10759" lon="8.72778">
        <ele>145.557509</ele>
        <time>2023-07-03T09:14:33.657Z</time>
      </trkpt>
      <trkpt lat="50.10762" lon="8.72794">
        <ele>145.572639</ele>
        <time>2023-07-03T09:14:35.653Z</time>
      </trkpt>
      <trkpt lat="50.10764" lon="8.7281">
        <ele>145.586825</ele>
        <time>2023-07-03T09:14:37.637Z</time>
      </trkpt>
      <trkpt lat="50.10766" lon="8.72827">
        <ele>145.602194</ele>
        <time>2023-07-03T09:14:39.663Z</time>
      </trkpt>
      <trkpt lat="50.10768" lon="8.72843">
        <ele>145.616379</ele>
        <time>2023-07-03T09:14:41.666Z</time>
      </trkpt>
      <trkpt lat="50.1077" lon="8.72858">
        <ele>145.630487</ele>
        <time>2023-07-03T09:14:43.657Z</time>
      </trkpt>
      <trkpt lat="50.10773" lon="8.72874">
        <ele>145.644971</ele>
        <time>2023-07-03T09:14:45.645Z</time>
      </trkpt>
      <trkpt lat="50.10775" lon="8.72889">
        <ele>145.658908</ele>
        <time>2023-07-03T09:14:47.662Z</time>
      </trkpt>
      <trkpt lat="50.10778" lon="8.72904">
        <ele>145.672093</ele>
        <time>2023-07-03T09:14:49.656Z</time>
      </trkpt>
      <trkpt lat="50.10783" lon="8.72916">
        <ele>145.685112</ele>
        <time>2023-07-03T09:14:51.663Z</time>
      </trkpt>
      <trkpt lat="50.10793" lon="8.72924">
        <ele>145.678405</ele>
        <time>2023-07-03T09:14:53.662Z</time>
      </trkpt>
      <trkpt lat="50.10802" lon="8.7293">
        <ele>145.648922</ele>
        <time>2023-07-03T09:14:55.647Z</time>
      </trkpt>
      <trkpt lat="50.1081" lon="8.72937">
        <ele>145.621075</ele>
        <time>2023-07-03T09:14:57.682Z</time>
      </trkpt>
      <trkpt lat="50.1082" lon="8.72951">
        <ele>145.581522</ele>
        <time>2023-07-03T09:15:00.666Z</time>
      </trkpt>
      <trkpt lat="50.10828" lon="8.72964">
        <ele>145.548377</ele>
        <time>2023-07-03T09:15:02.658Z</time>
      </trkpt>
      <trkpt lat="50.10834" lon="8.72978">
        <ele>145.515622</ele>
        <time>2023-07-03T09:15:04.659Z</time>
      </trkpt>
      <trkpt lat="50.10839" lon="8.72993">
        <ele>145.482804</ele>
        <time>2023-07-03T09:15:06.644Z</time>
      </trkpt>
      <trkpt lat="50.10843" lon="8.7301">
        <ele>145.448504</ele>
        <time>2023-07-03T09:15:08.632Z</time>
      </trkpt>
      <trkpt lat="50.10845" lon="8.73027">
        <ele>145.41653</ele>
        <time>2023-07-03T09:15:10.647Z</time>
      </trkpt>
      <trkpt lat="50.10847" lon="8.73044">
        <ele>145.383262</ele>
        <time>2023-07-03T09:15:12.654Z</time>
      </trkpt>
      <trkpt lat="50.10852" lon="8.73059">
        <ele>145.350396</ele>
        <time>2023-07-03T09:15:14.659Z</time>
      </trkpt>
      <trkpt lat="50.10857" lon="8.73074">
        <ele>145.319292</ele>
        <time>2023-07-03T09:15:16.646Z</time>
      </trkpt>
      <trkpt lat="50.10861" lon="8.73089">
        <ele>145.288824</ele>
        <time>2023-07-03T09:15:18.663Z</time>
      </trkpt>
      <trkpt lat="50.10865" lon="8.73103">
        <ele>145.258594</ele>
        <time>2023-07-03T09:15:20.657Z</time>
      </trkpt>
      <trkpt lat="50.10869" lon="8.73118">
        <ele>145.227722</ele>
        <time>2023-07-03T09:15:22.672Z</time>
      </trkpt>
      <trkpt lat="50.10874" lon="8.73133">
        <ele>145.196749</ele>
        <time>2023-07-03T09:15:24.658Z</time>
      </trkpt>
      <trkpt lat="50.10878" lon="8.73148">
        <ele>145.165001</ele>
        <time>2023-07-03T09:15:26.648Z</time>
      </trkpt>
      <trkpt lat="50.10882" lon="8.73163">
        <ele>145.066503</ele>
        <time>2023-07-03T09:15:28.665Z</time>
      </trkpt>
      <trkpt lat="50.10886" lon="8.73179">
        <ele>144.955409</ele>
        <time>2023-07-03T09:15:30.632Z</time>
      </trkpt>
      <trkpt lat="50.10891" lon="8.73194">
        <ele>144.839251</ele>
        <time>2023-07-03T09:15:32.660Z</time>
      </trkpt>
      <trkpt lat="50.10896" lon="8.73209">
        <ele>144.72943</ele>
        <time>2023-07-03T09:15:34.656Z</time>
      </trkpt>
      <trkpt lat="50.10901" lon="8.73224">
        <ele>144.619801</ele>
        <time>2023-07-03T09:15:36.643Z</time>
      </trkpt>
      <trkpt lat="50.10906" lon="8.73239">
        <ele>144.502203</ele>
        <time>2023-07-03T09:15:38.658Z</time>
      </trkpt>
      <trkpt lat="50.10911" lon="8.73254">
        <ele>144.385944</ele>
        <time>2023-07-03T09:15:40.673Z</time>
      </trkpt>
      <trkpt lat="50.10916" lon="8.7327">
        <ele>144.266031</ele>
        <time>2023-07-03T09:15:42.660Z</time>
      </trkpt>
      <trkpt lat="50.10921" lon="8.73286">
        <ele>144.153508</ele>
        <time>2023-07-03T09:15:44.659Z</time>
      </trkpt>
      <trkpt lat="50.10925" lon="8.73303">
        <ele>144.029041</ele>
        <time>2023-07-03T09:15:46.653Z</time>
      </trkpt>
      <trkpt lat="50.10928" lon="8.73318">
        <ele>143.92224</ele>
        <time>2023-07-03T09:15:48.664Z</time>
      </trkpt>
      <trkpt lat="50.10932" lon="8.73334">
        <ele>143.809763</ele>
        <time>2023-07-03T09:15:50.657Z</time>
      </trkpt>
      <trkpt lat="50.10937" lon="8.73349">
        <ele>143.696101</ele>
        <time>2023-07-03T09:15:52.646Z</time>
      </trkpt>
      <trkpt lat="50.10942" lon="8.73365">
        <ele>143.578002</ele>
        <time>2023-07-03T09:15:54.660Z</time>
      </trkpt>
      <trkpt lat="50.10947" lon="8.73379">
        <ele>143.470721</ele>
        <time>2023-07-03T09:15:56.651Z</time>
      </trkpt>
      <trkpt lat="50.10953" lon="8.73394">
        <ele>143.353297</ele>
        <time>2023-07-03T09:15:58.667Z</time>
      </trkpt>
      <trkpt lat="50.10959" lon="8.73408">
        <ele>143.304389</ele>
        <time>2023-07-03T09:16:00.649Z</time>
      </trkpt>
      <trkpt lat="50.10964" lon="8.73423">
        <ele>143.360687</ele>
        <time>2023-07-03T09:16:02.663Z</time>
      </trkpt>
      <trkpt lat="50.10968" lon="8.73439">
        <ele>143.420224</ele>
        <time>2023-07-03T09:16:04.665Z</time>
      </trkpt>
      <trkpt lat="50.10974" lon="8.73455">
        <ele>143.483123</ele>
        <time>2023-07-03T09:16:06.653Z</time>
      </trkpt>
      <trkpt lat="50.10979" lon="8.73471">
        <ele>143.546568</ele>
        <time>2023-07-03T09:16:08.661Z</time>
      </trkpt>
      <trkpt lat="50.10984" lon="8.7349">
        <ele>143.615799</ele>
        <time>2023-07-03T09:16:10.670Z</time>
      </trkpt>
      <trkpt lat="50.1099" lon="8.73507">
        <ele>143.683634</ele>
        <time>2023-07-03T09:16:12.662Z</time>
      </trkpt>
      <trkpt lat="50.10997" lon="8.73524">
        <ele>143.74993</ele>
        <time>2023-07-03T09:16:14.657Z</time>
      </trkpt>
      <trkpt lat="50.11002" lon="8.7354">
        <ele>143.812556</ele>
        <time>2023-07-03T09:16:16.660Z</time>
      </trkpt>
      <trkpt lat="50.11008" lon="8.73555">
        <ele>143.875444</ele>
        <time>2023-07-03T09:16:18.667Z</time>
      </trkpt>
      <trkpt lat="50.11014" lon="8.73573">
        <ele>143.942203</ele>
        <time>2023-07-03T09:16:20.656Z</time>
      </trkpt>
      <trkpt lat="50.1102" lon="8.73587">
        <ele>144.002127</ele>
        <time>2023-07-03T09:16:22.657Z</time>
      </trkpt>
      <trkpt lat="50.11024" lon="8.73602">
        <ele>144.056502</ele>
        <time>2023-07-03T09:16:24.658Z</time>
      </trkpt>
      <trkpt lat="50.11028" lon="8.73619">
        <ele>144.118053</ele>
        <time>2023-07-03T09:16:26.675Z</time>
      </trkpt>
      <trkpt lat="50.11033" lon="8.73634">
        <ele>144.176548</ele>
        <time>2023-07-03T09:16:28.663Z</time>
      </trkpt>
      <trkpt lat="50.11039" lon="8.73648">
        <ele>144.23712</ele>
        <time>2023-07-03T09:16:30.658Z</time>
      </trkpt>
      <trkpt lat="50.11049" lon="8.7366">
        <ele>144.376252</ele>
        <time>2023-07-03T09:16:32.652Z</time>
      </trkpt>
      <trkpt lat="50.11056" lon="8.73673">
        <ele>144.514733</ele>
        <time>2023-07-03T09:16:34.635Z</time>
      </trkpt>
      <trkpt lat="50.11063" lon="8.73686">
        <ele>144.653907</ele>
        <time>2023-07-03T09:16:36.651Z</time>
      </trkpt>
      <trkpt lat="50.11069" lon="8.737">
        <ele>144.793977</ele>
        <time>2023-07-03T09:16:38.675Z</time>
      </trkpt>
      <trkpt lat="50.11075" lon="8.73715">
        <ele>144.938002</ele>
        <time>2023-07-03T09:16:40.655Z</time>
      </trkpt>
      <trkpt lat="50.11082" lon="8.7373">
        <ele>145.084864</ele>
        <time>2023-07-03T09:16:42.660Z</time>
      </trkpt>
      <trkpt lat="50.11089" lon="8.73745">
        <ele>145.230408</ele>
        <time>2023-07-03T09:16:44.659Z</time>
      </trkpt>
      <trkpt lat="50.11095" lon="8.73759">
        <ele>145.369094</ele>
        <time>2023-07-03T09:16:46.654Z</time>
      </trkpt>
      <trkpt lat="50.11101" lon="8.73774">
        <ele>145.510397</ele>
        <time>2023-07-03T09:16:48.665Z</time>
      </trkpt>
      <trkpt lat="50.11108" lon="8.73789">
        <ele>145.654497</ele>
        <time>2023-07-03T09:16:50.660Z</time>
      </trkpt>
      <trkpt lat="50.11115" lon="8.73803">
        <ele>145.804835</ele>
        <time>2023-07-03T09:16:52.651Z</time>
      </trkpt>
      <trkpt lat="50.11121" lon="8.73818">
        <ele>145.952251</ele>
        <time>2023-07-03T09:16:54.675Z</time>
      </trkpt>
      <trkpt lat="50.11128" lon="8.73833">
        <ele>146.095593</ele>
        <time>2023-07-03T09:16:56.663Z</time>
      </trkpt>
      <trkpt lat="50.11133" lon="8.73849">
        <ele>146.236997</ele>
        <time>2023-07-03T09:16:58.659Z</time>
      </trkpt>
      <trkpt lat="50.11138" lon="8.73864">
        <ele>146.374606</ele>
        <time>2023-07-03T09:17:00.657Z</time>
      </trkpt>
      <trkpt lat="50.11144" lon="8.73878">
        <ele>146.50997</ele>
        <time>2023-07-03T09:17:02.679Z</time>
      </trkpt>
      <trkpt lat="50.11148" lon="8.73895">
        <ele>146.633425</ele>
        <time>2023-07-03T09:17:04.677Z</time>
      </trkpt>
      <trkpt lat="50.11153" lon="8.7391">
        <ele>146.751278</ele>
        <time>2023-07-03T09:17:06.656Z</time>
      </trkpt>
      <trkpt lat="50.11158" lon="8.73926">
        <ele>146.87286</ele>
        <time>2023-07-03T09:17:08.675Z</time>
      </trkpt>
      <trkpt lat="50.11162" lon="8.73942">
        <ele>146.987987</ele>
        <time>2023-07-03T09:17:10.658Z</time>
      </trkpt>
      <trkpt lat="50.11165" lon="8.73957">
        <ele>147.103043</ele>
        <time>2023-07-03T09:17:12.649Z</time>
      </trkpt>
      <trkpt lat="50.11167" lon="8.73975">
        <ele>147.225208</ele>
        <time>2023-07-03T09:17:14.670Z</time>
      </trkpt>
      <trkpt lat="50.1117" lon="8.73994">
        <ele>147.359482</ele>
        <time>2023-07-03T09:17:16.661Z</time>
      </trkpt>
      <trkpt lat="50.11173" lon="8.74012">
        <ele>147.484465</ele>
        <time>2023-07-03T09:17:18.677Z</time>
      </trkpt>
      <trkpt lat="50.11175" lon="8.7403">
        <ele>147.611468</ele>
        <time>2023-07-03T09:17:20.665Z</time>
      </trkpt>
      <trkpt lat="50.11177" lon="8.74048">
        <ele>147.738748</ele>
        <time>2023-07-03T09:17:22.663Z</time>
      </trkpt>
      <trkpt lat="50.11179" lon="8.74067">
        <ele>147.868599</ele>
        <time>2023-07-03T09:17:24.646Z</time>
      </trkpt>
      <trkpt lat="50.1118" lon="8.74085">
        <ele>147.994357</ele>
        <time>2023-07-03T09:17:26.657Z</time>
      </trkpt>
      <trkpt lat="50.11183" lon="8.74102">
        <ele>148.117531</ele>
        <time>2023-07-03T09:17:28.684Z</time>
      </trkpt>
      <trkpt lat="50.11187" lon="8.74119">
        <ele>148.238492</ele>
        <time>2023-07-03T09:17:30.682Z</time>
      </trkpt>
      <trkpt lat="50.11192" lon="8.74134">
        <ele>148.355348</ele>
        <time>2023-07-03T09:17:32.667Z</time>
      </trkpt>
      <trkpt lat="50.11198" lon="8.74146">
        <ele>148.4288</ele>
        <time>2023-07-03T09:17:34.634Z</time>
      </trkpt>
      <trkpt lat="50.11207" lon="8.74154">
        <ele>148.389204</ele>
        <time>2023-07-03T09:17:36.649Z</time>
      </trkpt>
      <trkpt lat="50.11216" lon="8.74158">
        <ele>148.348288</ele>
        <time>2023-07-03T09:17:38.658Z</time>
      </trkpt>
      <trkpt lat="50.11226" lon="8.74158">
        <ele>148.307587</ele>
        <time>2023-07-03T09:17:40.659Z</time>
      </trkpt>
      <trkpt lat="50.11236" lon="8.74153">
        <ele>148.264631</ele>
        <time>2023-07-03T09:17:42.667Z</time>
      </trkpt>
      <trkpt lat="50.11245" lon="8.74148">
        <ele>148.223096</ele>
        <time>2023-07-03T09:17:44.659Z</time>
      </trkpt>
      <trkpt lat="50.11255" lon="8.74146">
        <ele>148.181508</ele>
        <time>2023-07-03T09:17:46.646Z</time>
      </trkpt>
      <trkpt lat="50.11265" lon="8.74148">
        <ele>148.141231</ele>
        <time>2023-07-03T09:17:48.648Z</time>
      </trkpt>
      <trkpt lat="50.11273" lon="8.74158">
        <ele>148.099821</ele>
        <time>2023-07-03T09:17:50.638Z</time>
      </trkpt>
      <trkpt lat="50.11278" lon="8.74171">
        <ele>148.05635</ele>
        <time>2023-07-03T09:17:52.655Z</time>
      </trkpt>
      <trkpt lat="50.1128" lon="8.74189">
        <ele>148.010512</ele>
        <time>2023-07-03T09:17:54.673Z</time>
      </trkpt>
      <trkpt lat="50.11281" lon="8.74206">
        <ele>147.964458</ele>
        <time>2023-07-03T09:17:56.664Z</time>
      </trkpt>
      <trkpt lat="50.11283" lon="8.74222">
        <ele>147.920104</ele>
        <time>2023-07-03T09:17:58.665Z</time>
      </trkpt>
      <trkpt lat="50.11285" lon="8.74239">
        <ele>147.874952</ele>
        <time>2023-07-03T09:18:00.666Z</time>
      </trkpt>
      <trkpt lat="50.11287" lon="8.74255">
        <ele>147.830925</ele>
        <time>2023-07-03T09:18:02.667Z</time>
      </trkpt>
      <trkpt lat="50.11289" lon="8.74272">
        <ele>147.785848</ele>
        <time>2023-07-03T09:18:04.661Z</time>
      </trkpt>
      <trkpt lat="50.11291" lon="8.74288">
        <ele>147.740466</ele>
        <time>2023-07-03T09:18:06.660Z</time>
      </trkpt>
      <trkpt lat="50.11294" lon="8.74305">
        <ele>147.693572</ele>
        <time>2023-07-03T09:18:08.658Z</time>
      </trkpt>
      <trkpt lat="50.11297" lon="8.74321">
        <ele>147.751532</ele>
        <time>2023-07-03T09:18:10.665Z</time>
      </trkpt>
      <trkpt lat="50.113" lon="8.74339">
        <ele>147.813668</ele>
        <time>2023-07-03T09:18:12.662Z</time>
      </trkpt>
      <trkpt lat="50.11301" lon="8.74356">
        <ele>147.8764</ele>
        <time>2023-07-03T09:18:14.649Z</time>
      </trkpt>
      <trkpt lat="50.11303" lon="8.74374">
        <ele>147.9401</ele>
        <time>2023-07-03T09:18:16.657Z</time>
      </trkpt>
      <trkpt lat="50.11304" lon="8.74393">
        <ele>148.004778</ele>
        <time>2023-07-03T09:18:18.739Z</time>
      </trkpt>
      <trkpt lat="50.11306" lon="8.7441">
        <ele>148.065696</ele>
        <time>2023-07-03T09:18:20.668Z</time>
      </trkpt>
      <trkpt lat="50.11307" lon="8.74427">
        <ele>148.125919</ele>
        <time>2023-07-03T09:18:22.649Z</time>
      </trkpt>
      <trkpt lat="50.11309" lon="8.74444">
        <ele>148.187184</ele>
        <time>2023-07-03T09:18:24.662Z</time>
      </trkpt>
      <trkpt lat="50.1131" lon="8.74461">
        <ele>148.247334</ele>
        <time>2023-07-03T09:18:26.653Z</time>
      </trkpt>
      <trkpt lat="50.11311" lon="8.74478">
        <ele>148.307766</ele>
        <time>2023-07-03T09:18:28.663Z</time>
      </trkpt>
      <trkpt lat="50.11312" lon="8.74496">
        <ele>148.369824</ele>
        <time>2023-07-03T09:18:30.671Z</time>
      </trkpt>
      <trkpt lat="50.11313" lon="8.74513">
        <ele>148.431359</ele>
        <time>2023-07-03T09:18:32.658Z</time>
      </trkpt>
      <trkpt lat="50.11315" lon="8.74532">
        <ele>148.496946</ele>
        <time>2023-07-03T09:18:34.660Z</time>
      </trkpt>
      <trkpt lat="50.11316" lon="8.74551">
        <ele>148.565174</ele>
        <time>2023-07-03T09:18:36.647Z</time>
      </trkpt>
      <trkpt lat="50.11318" lon="8.74568">
        <ele>148.62339</ele>
        <time>2023-07-03T09:18:38.655Z</time>
      </trkpt>
      <trkpt lat="50.11321" lon="8.74585">
        <ele>148.675352</ele>
        <time>2023-07-03T09:18:40.651Z</time>
      </trkpt>
      <trkpt lat="50.11323" lon="8.74603">
        <ele>148.662298</ele>
        <time>2023-07-03T09:18:42.658Z</time>
      </trkpt>
      <trkpt lat="50.11325" lon="8.74621">
        <ele>148.649677</ele>
        <time>2023-07-03T09:18:44.659Z</time>
      </trkpt>
      <trkpt lat="50.11326" lon="8.74639">
        <ele>148.637043</ele>
        <time>2023-07-03T09:18:46.662Z</time>
      </trkpt>
      <trkpt lat="50.11328" lon="8.74656">
        <ele>148.625225</ele>
        <time>2023-07-03T09:18:48.659Z</time>
      </trkpt>
      <trkpt lat="50.11331" lon="8.74671">
        <ele>148.613754</ele>
        <time>2023-07-03T09:18:50.659Z</time>
      </trkpt>
      <trkpt lat="50.11333" lon="8.74688">
        <ele>148.601757</ele>
        <time>2023-07-03T09:18:52.672Z</time>
      </trkpt>
      <trkpt lat="50.11334" lon="8.74705">
        <ele>148.589673</ele>
        <time>2023-07-03T09:18:54.668Z</time>
      </trkpt>
      <trkpt lat="50.11336" lon="8.74722">
        <ele>148.577529</ele>
        <time>2023-07-03T09:18:56.648Z</time>
      </trkpt>
      <trkpt lat="50.11337" lon="8.74739">
        <ele>148.565661</ele>
        <time>2023-07-03T09:18:58.668Z</time>
      </trkpt>
      <trkpt lat="50.11339" lon="8.74756">
        <ele>148.55332</ele>
        <time>2023-07-03T09:19:00.664Z</time>
      </trkpt>
      <trkpt lat="50.1134" lon="8.74774">
        <ele>148.54081</ele>
        <time>2023-07-03T09:19:02.661Z</time>
      </trkpt>
      <trkpt lat="50.11341" lon="8.74792">
        <ele>148.528273</ele>
        <time>2023-07-03T09:19:04.660Z</time>
      </trkpt>
      <trkpt lat="50.11342" lon="8.7481">
        <ele>148.515448</ele>
        <time>2023-07-03T09:19:06.650Z</time>
      </trkpt>
      <trkpt lat="50.11342" lon="8.74828">
        <ele>148.502778</ele>
        <time>2023-07-03T09:19:08.673Z</time>
      </trkpt>
      <trkpt lat="50.11343" lon="8.74846">
        <ele>148.490194</ele>
        <time>2023-07-03T09:19:10.651Z</time>
      </trkpt>
      <trkpt lat="50.11343" lon="8.74863">
        <ele>148.4625</ele>
        <time>2023-07-03T09:19:12.658Z</time>
      </trkpt>
      <trkpt lat="50.11343" lon="8.74881">
        <ele>148.363958</ele>
        <time>2023-07-03T09:19:14.659Z</time>
      </trkpt>
      <trkpt lat="50.11343" lon="8.749">
        <ele>148.263775</ele>
        <time>2023-07-03T09:19:16.643Z</time>
      </trkpt>
      <trkpt lat="50.11343" lon="8.74917">
        <ele>148.167343</ele>
        <time>2023-07-03T09:19:18.662Z</time>
      </trkpt>
      <trkpt lat="50.11342" lon="8.74934">
        <ele>148.073899</ele>
        <time>2023-07-03T09:19:20.655Z</time>
      </trkpt>
      <trkpt lat="50.11341" lon="8.74951">
        <ele>147.982091</ele>
        <time>2023-07-03T09:19:22.678Z</time>
      </trkpt>
      <trkpt lat="50.1134" lon="8.74967">
        <ele>147.890827</ele>
        <time>2023-07-03T09:19:24.659Z</time>
      </trkpt>
      <trkpt lat="50.11338" lon="8.74985">
        <ele>147.793944</ele>
        <time>2023-07-03T09:19:26.642Z</time>
      </trkpt>
      <trkpt lat="50.11336" lon="8.75002">
        <ele>147.70116</ele>
        <time>2023-07-03T09:19:28.660Z</time>
      </trkpt>
      <trkpt lat="50.11333" lon="8.75018">
        <ele>147.609617</ele>
        <time>2023-07-03T09:19:30.655Z</time>
      </trkpt>
      <trkpt lat="50.11331" lon="8.75035">
        <ele>147.512702</ele>
        <time>2023-07-03T09:19:32.654Z</time>
      </trkpt>
      <trkpt lat="50.1133" lon="8.75051">
        <ele>147.427848</ele>
        <time>2023-07-03T09:19:34.665Z</time>
      </trkpt>
      <trkpt lat="50.11328" lon="8.75067">
        <ele>147.33577</ele>
        <time>2023-07-03T09:19:36.646Z</time>
      </trkpt>
      <trkpt lat="50.11324" lon="8.75083">
        <ele>147.243507</ele>
        <time>2023-07-03T09:19:38.666Z</time>
      </trkpt>
      <trkpt lat="50.11322" lon="8.75099">
        <ele>147.155355</ele>
        <time>2023-07-03T09:19:40.666Z</time>
      </trkpt>
      <trkpt lat="50.11319" lon="8.75115">
        <ele>147.064634</ele>
        <time>2023-07-03T09:19:42.668Z</time>
      </trkpt>
      <trkpt lat="50.11317" lon="8.7513">
        <ele>146.977679</ele>
        <time>2023-07-03T09:19:44.659Z</time>
      </trkpt>
      <trkpt lat="50.11314" lon="8.75145">
        <ele>146.944934</ele>
        <time>2023-07-03T09:19:46.651Z</time>
      </trkpt>
      <trkpt lat="50.1131" lon="8.7516">
        <ele>146.945162</ele>
        <time>2023-07-03T09:19:48.663Z</time>
      </trkpt>
      <trkpt lat="50.11305" lon="8.75173">
        <ele>146.945378</ele>
        <time>2023-07-03T09:19:50.665Z</time>
      </trkpt>
      <trkpt lat="50.11297" lon="8.75188">
        <ele>146.945675</ele>
        <time>2023-07-03T09:19:53.643Z</time>
      </trkpt>
      <trkpt lat="50.11294" lon="8.75204">
        <ele>146.945909</ele>
        <time>2023-07-03T09:19:55.638Z</time>
      </trkpt>
      <trkpt lat="50.11292" lon="8.75218">
        <ele>146.946122</ele>
        <time>2023-07-03T09:19:57.661Z</time>
      </trkpt>
      <trkpt lat="50.11291" lon="8.75234">
        <ele>146.94635</ele>
        <time>2023-07-03T09:19:59.661Z</time>
      </trkpt>
      <trkpt lat="50.11289" lon="8.75249">
        <ele>146.946583</ele>
        <time>2023-07-03T09:20:01.669Z</time>
      </trkpt>
      <trkpt lat="50.11286" lon="8.75265">
        <ele>146.946824</ele>
        <time>2023-07-03T09:20:03.665Z</time>
      </trkpt>
      <trkpt lat="50.11283" lon="8.75279">
        <ele>146.947041</ele>
        <time>2023-07-03T09:20:05.658Z</time>
      </trkpt>
      <trkpt lat="50.11279" lon="8.75295">
        <ele>146.947284</ele>
        <time>2023-07-03T09:20:07.654Z</time>
      </trkpt>
      <trkpt lat="50.11277" lon="8.7531">
        <ele>146.947511</ele>
        <time>2023-07-03T09:20:09.649Z</time>
      </trkpt>
      <trkpt lat="50.11274" lon="8.75326">
        <ele>146.947752</ele>
        <time>2023-07-03T09:20:11.667Z</time>
      </trkpt>
      <trkpt lat="50.11271" lon="8.75341">
        <ele>146.947987</ele>
        <time>2023-07-03T09:20:13.684Z</time>
      </trkpt>
      <trkpt lat="50.1127" lon="8.75357">
        <ele>146.948223</ele>
        <time>2023-07-03T09:20:15.676Z</time>
      </trkpt>
      <trkpt lat="50.11269" lon="8.75373">
        <ele>146.948447</ele>
        <time>2023-07-03T09:20:17.650Z</time>
      </trkpt>
      <trkpt lat="50.11267" lon="8.75387">
        <ele>146.948654</ele>
        <time>2023-07-03T09:20:19.658Z</time>
      </trkpt>
      <trkpt lat="50.11267" lon="8.75404">
        <ele>146.947312</ele>
        <time>2023-07-03T09:20:22.665Z</time>
      </trkpt>
      <trkpt lat="50.11267" lon="8.75418">
        <ele>146.934905</ele>
        <time>2023-07-03T09:20:25.676Z</time>
      </trkpt>
      <trkpt lat="50.11268" lon="8.75438">
        <ele>146.918217</ele>
        <time>2023-07-03T09:20:29.652Z</time>
      </trkpt>
      <trkpt lat="50.11268" lon="8.75454">
        <ele>146.903632</ele>
        <time>2023-07-03T09:20:32.661Z</time>
      </trkpt>
      <trkpt lat="50.11266" lon="8.75472">
        <ele>146.888479</ele>
        <time>2023-07-03T09:20:35.663Z</time>
      </trkpt>
      <trkpt lat="50.11265" lon="8.75489">
        <ele>146.873704</ele>
        <time>2023-07-03T09:20:38.648Z</time>
      </trkpt>
      <trkpt lat="50.11263" lon="8.75507">
        <ele>146.857427</ele>
        <time>2023-07-03T09:20:41.655Z</time>
      </trkpt>
      <trkpt lat="50.1126" lon="8.75526">
        <ele>146.840666</ele>
        <time>2023-07-03T09:20:44.658Z</time>
      </trkpt>
      <trkpt lat="50.11257" lon="8.75541">
        <ele>146.826549</ele>
        <time>2023-07-03T09:20:47.655Z</time>
      </trkpt>
      <trkpt lat="50.11258" lon="8.75556">
        <ele>146.813789</ele>
        <time>2023-07-03T09:20:51.653Z</time>
      </trkpt>
      <trkpt lat="50.11257" lon="8.75571">
        <ele>146.800856</ele>
        <time>2023-07-03T09:20:55.645Z</time>
      </trkpt>
      <trkpt lat="50.11255" lon="8.75587">
        <ele>146.786896</ele>
        <time>2023-07-03T09:20:58.667Z</time>
      </trkpt>
      <trkpt lat="50.11253" lon="8.75605">
        <ele>146.770676</ele>
        <time>2023-07-03T09:21:01.653Z</time>
      </trkpt>
      <trkpt lat="50.11252" lon="8.7562">
        <ele>146.757542</ele>
        <time>2023-07-03T09:21:03.658Z</time>
      </trkpt>
      <trkpt lat="50.11251" lon="8.75638">
        <ele>146.741771</ele>
        <time>2023-07-03T09:21:05.656Z</time>
      </trkpt>
      <trkpt lat="50.11249" lon="8.75658">
        <ele>146.724631</ele>
        <time>2023-07-03T09:21:07.656Z</time>
      </trkpt>
      <trkpt lat="50.11242" lon="8.75675">
        <ele>146.70719</ele>
        <time>2023-07-03T09:21:09.636Z</time>
      </trkpt>
      <trkpt lat="50.11232" lon="8.75687">
        <ele>146.542179</ele>
        <time>2023-07-03T09:21:11.639Z</time>
      </trkpt>
      <trkpt lat="50.11222" lon="8.757">
        <ele>146.361907</ele>
        <time>2023-07-03T09:21:13.661Z</time>
      </trkpt>
      <trkpt lat="50.11213" lon="8.75715">
        <ele>146.171558</ele>
        <time>2023-07-03T09:21:15.666Z</time>
      </trkpt>
      <trkpt lat="50.11203" lon="8.7573">
        <ele>145.976662</ele>
        <time>2023-07-03T09:21:17.663Z</time>
      </trkpt>
      <trkpt lat="50.11194" lon="8.75744">
        <ele>145.797029</ele>
        <time>2023-07-03T09:21:19.677Z</time>
      </trkpt>
      <trkpt lat="50.11182" lon="8.75754">
        <ele>145.611058</ele>
        <time>2023-07-03T09:21:21.657Z</time>
      </trkpt>
      <trkpt lat="50.11173" lon="8.75767">
        <ele>145.437144</ele>
        <time>2023-07-03T09:21:23.669Z</time>
      </trkpt>
      <trkpt lat="50.11163" lon="8.75781">
        <ele>145.254386</ele>
        <time>2023-07-03T09:21:25.668Z</time>
      </trkpt>
      <trkpt lat="50.11154" lon="8.75792">
        <ele>145.08917</ele>
        <time>2023-07-03T09:21:27.657Z</time>
      </trkpt>
      <trkpt lat="50.11145" lon="8.75802">
        <ele>144.927039</ele>
        <time>2023-07-03T09:21:29.671Z</time>
      </trkpt>
      <trkpt lat="50.11135" lon="8.75812">
        <ele>144.769583</ele>
        <time>2023-07-03T09:21:31.651Z</time>
      </trkpt>
      <trkpt lat="50.11127" lon="8.75823">
        <ele>144.617119</ele>
        <time>2023-07-03T09:21:33.658Z</time>
      </trkpt>
      <trkpt lat="50.11119" lon="8.75835">
        <ele>144.458914</ele>
        <time>2023-07-03T09:21:35.692Z</time>
      </trkpt>
      <trkpt lat="50.11112" lon="8.75849">
        <ele>144.302703</ele>
        <time>2023-07-03T09:21:37.647Z</time>
      </trkpt>
      <trkpt lat="50.11104" lon="8.75862">
        <ele>144.195261</ele>
        <time>2023-07-03T09:21:39.659Z</time>
      </trkpt>
      <trkpt lat="50.11099" lon="8.75878">
        <ele>144.270262</ele>
        <time>2023-07-03T09:21:41.656Z</time>
      </trkpt>
      <trkpt lat="50.11093" lon="8.75893">
        <ele>144.34707</ele>
        <time>2023-07-03T09:21:43.647Z</time>
      </trkpt>
      <trkpt lat="50.11087" lon="8.75907">
        <ele>144.419191</ele>
        <time>2023-07-03T09:21:45.658Z</time>
      </trkpt>
      <trkpt lat="50.1108" lon="8.75922">
        <ele>144.495706</ele>
        <time>2023-07-03T09:21:47.656Z</time>
      </trkpt>
      <trkpt lat="50.11073" lon="8.75936">
        <ele>144.571323</ele>
        <time>2023-07-03T09:21:49.663Z</time>
      </trkpt>
      <trkpt lat="50.11066" lon="8.7595">
        <ele>144.648096</ele>
        <time>2023-07-03T09:21:51.658Z</time>
      </trkpt>
      <trkpt lat="50.11059" lon="8.75964">
        <ele>144.724612</ele>
        <time>2023-07-03T09:21:53.651Z</time>
      </trkpt>
      <trkpt lat="50.11053" lon="8.75978">
        <ele>144.797114</ele>
        <time>2023-07-03T09:21:55.661Z</time>
      </trkpt>
      <trkpt lat="50.11046" lon="8.75993">
        <ele>144.875744</ele>
        <time>2023-07-03T09:21:57.659Z</time>
      </trkpt>
      <trkpt lat="50.11039" lon="8.76007">
        <ele>144.948531</ele>
        <time>2023-07-03T09:21:59.658Z</time>
      </trkpt>
      <trkpt lat="50.11032" lon="8.76021">
        <ele>145.024019</ele>
        <time>2023-07-03T09:22:01.657Z</time>
      </trkpt>
      <trkpt lat="50.11026" lon="8.76036">
        <ele>145.10004</ele>
        <time>2023-07-03T09:22:03.658Z</time>
      </trkpt>
      <trkpt lat="50.11021" lon="8.7605">
        <ele>145.170393</ele>
        <time>2023-07-03T09:22:05.641Z</time>
      </trkpt>
      <trkpt lat="50.11014" lon="8.76065">
        <ele>145.244981</ele>
        <time>2023-07-03T09:22:07.654Z</time>
      </trkpt>
      <trkpt lat="50.11008" lon="8.7608">
        <ele>145.320646</ele>
        <time>2023-07-03T09:22:09.660Z</time>
      </trkpt>
      <trkpt lat="50.11001" lon="8.76093">
        <ele>145.350213</ele>
        <time>2023-07-03T09:22:11.657Z</time>
      </trkpt>
      <trkpt lat="50.10994" lon="8.76107">
        <ele>145.274954</ele>
        <time>2023-07-03T09:22:13.660Z</time>
      </trkpt>
      <trkpt lat="50.10988" lon="8.76121">
        <ele>145.201457</ele>
        <time>2023-07-03T09:22:15.659Z</time>
      </trkpt>
      <trkpt lat="50.10981" lon="8.76135">
        <ele>145.126299</ele>
        <time>2023-07-03T09:22:17.658Z</time>
      </trkpt>
      <trkpt lat="50.10975" lon="8.76149">
        <ele>145.054037</ele>
        <time>2023-07-03T09:22:19.656Z</time>
      </trkpt>
      <trkpt lat="50.10968" lon="8.76164">
        <ele>144.976084</ele>
        <time>2023-07-03T09:22:21.661Z</time>
      </trkpt>
      <trkpt lat="50.10961" lon="8.76177">
        <ele>144.902519</ele>
        <time>2023-07-03T09:22:23.654Z</time>
      </trkpt>
      <trkpt lat="50.10954" lon="8.76191">
        <ele>144.827515</ele>
        <time>2023-07-03T09:22:25.658Z</time>
      </trkpt>
      <trkpt lat="50.10947" lon="8.76205">
        <ele>144.752121</ele>
        <time>2023-07-03T09:22:27.674Z</time>
      </trkpt>
      <trkpt lat="50.1094" lon="8.76218">
        <ele>144.677972</ele>
        <time>2023-07-03T09:22:29.659Z</time>
      </trkpt>
      <trkpt lat="50.10932" lon="8.76229">
        <ele>144.605037</ele>
        <time>2023-07-03T09:22:31.653Z</time>
      </trkpt>
      <trkpt lat="50.10922" lon="8.76239">
        <ele>144.528661</ele>
        <time>2023-07-03T09:22:33.658Z</time>
      </trkpt>
      <trkpt lat="50.10915" lon="8.76252">
        <ele>144.45711</ele>
        <time>2023-07-03T09:22:35.646Z</time>
      </trkpt>
      <trkpt lat="50.1091" lon="8.76267">
        <ele>144.383029</ele>
        <time>2023-07-03T09:22:37.656Z</time>
      </trkpt>
      <trkpt lat="50.10905" lon="8.76282">
        <ele>144.311427</ele>
        <time>2023-07-03T09:22:39.640Z</time>
      </trkpt>
      <trkpt lat="50.109" lon="8.76297">
        <ele>144.239754</ele>
        <time>2023-07-03T09:22:41.658Z</time>
      </trkpt>
      <trkpt lat="50.10895" lon="8.76313">
        <ele>144.172162</ele>
        <time>2023-07-03T09:22:43.653Z</time>
      </trkpt>
      <trkpt lat="50.1089" lon="8.76328">
        <ele>144.141712</ele>
        <time>2023-07-03T09:22:45.657Z</time>
      </trkpt>
      <trkpt lat="50.10885" lon="8.76342">
        <ele>144.112906</ele>
        <time>2023-07-03T09:22:47.654Z</time>
      </trkpt>
      <trkpt lat="50.10881" lon="8.76357">
        <ele>144.083394</ele>
        <time>2023-07-03T09:22:49.663Z</time>
      </trkpt>
      <trkpt lat="50.10876" lon="8.76373">
        <ele>144.052981</ele>
        <time>2023-07-03T09:22:51.657Z</time>
      </trkpt>
      <trkpt lat="50.10873" lon="8.76388">
        <ele>144.024189</ele>
        <time>2023-07-03T09:22:53.634Z</time>
      </trkpt>
      <trkpt lat="50.10868" lon="8.76403">
        <ele>143.994996</ele>
        <time>2023-07-03T09:22:55.637Z</time>
      </trkpt>
      <trkpt lat="50.10863" lon="8.76419">
        <ele>143.963347</ele>
        <time>2023-07-03T09:22:57.656Z</time>
      </trkpt>
      <trkpt lat="50.10857" lon="8.76433">
        <ele>143.933123</ele>
        <time>2023-07-03T09:22:59.655Z</time>
      </trkpt>
      <trkpt lat="50.10852" lon="8.76448">
        <ele>143.902621</ele>
        <time>2023-07-03T09:23:01.658Z</time>
      </trkpt>
      <trkpt lat="50.10846" lon="8.76463">
        <ele>143.872438</ele>
        <time>2023-07-03T09:23:03.661Z</time>
      </trkpt>
      <trkpt lat="50.1084" lon="8.76477">
        <ele>143.842254</ele>
        <time>2023-07-03T09:23:05.650Z</time>
      </trkpt>
      <trkpt lat="50.10834" lon="8.76491">
        <ele>143.812504</ele>
        <time>2023-07-03T09:23:07.651Z</time>
      </trkpt>
      <trkpt lat="50.10829" lon="8.76506">
        <ele>143.782238</ele>
        <time>2023-07-03T09:23:09.657Z</time>
      </trkpt>
      <trkpt lat="50.10825" lon="8.76522">
        <ele>143.75149</ele>
        <time>2023-07-03T09:23:11.665Z</time>
      </trkpt>
      <trkpt lat="50.10821" lon="8.7654">
        <ele>143.71868</ele>
        <time>2023-07-03T09:23:13.654Z</time>
      </trkpt>
      <trkpt lat="50.10817" lon="8.76556">
        <ele>143.687821</ele>
        <time>2023-07-03T09:23:15.666Z</time>
      </trkpt>
      <trkpt lat="50.10814" lon="8.76573">
        <ele>143.752288</ele>
        <time>2023-07-03T09:23:17.655Z</time>
      </trkpt>
      <trkpt lat="50.10811" lon="8.76589">
        <ele>143.857178</ele>
        <time>2023-07-03T09:23:19.656Z</time>
      </trkpt>
      <trkpt lat="50.10807" lon="8.76606">
        <ele>143.960903</ele>
        <time>2023-07-03T09:23:21.655Z</time>
      </trkpt>
      <trkpt lat="50.10804" lon="8.76622">
        <ele>144.067262</ele>
        <time>2023-07-03T09:23:23.651Z</time>
      </trkpt>
      <trkpt lat="50.10801" lon="8.7664">
        <ele>144.176897</ele>
        <time>2023-07-03T09:23:25.655Z</time>
      </trkpt>
      <trkpt lat="50.10798" lon="8.76657">
        <ele>144.288885</ele>
        <time>2023-07-03T09:23:27.683Z</time>
      </trkpt>
      <trkpt lat="50.10794" lon="8.76675">
        <ele>144.400134</ele>
        <time>2023-07-03T09:23:29.696Z</time>
      </trkpt>
      <trkpt lat="50.10791" lon="8.76692">
        <ele>144.511447</ele>
        <time>2023-07-03T09:23:31.670Z</time>
      </trkpt>
      <trkpt lat="50.10788" lon="8.7671">
        <ele>144.619321</ele>
        <time>2023-07-03T09:23:33.636Z</time>
      </trkpt>
      <trkpt lat="50.10785" lon="8.76727">
        <ele>144.728032</ele>
        <time>2023-07-03T09:23:35.656Z</time>
      </trkpt>
      <trkpt lat="50.10782" lon="8.76744">
        <ele>144.836692</ele>
        <time>2023-07-03T09:23:37.648Z</time>
      </trkpt>
      <trkpt lat="50.10778" lon="8.76761">
        <ele>144.947448</ele>
        <time>2023-07-03T09:23:39.646Z</time>
      </trkpt>
      <trkpt lat="50.10774" lon="8.76778">
        <ele>145.058414</ele>
        <time>2023-07-03T09:23:41.657Z</time>
      </trkpt>
      <trkpt lat="50.10771" lon="8.76796">
        <ele>145.172329</ele>
        <time>2023-07-03T09:23:43.655Z</time>
      </trkpt>
      <trkpt lat="50.10767" lon="8.76814">
        <ele>145.285328</ele>
        <time>2023-07-03T09:23:45.658Z</time>
      </trkpt>
      <trkpt lat="50.10764" lon="8.76831">
        <ele>145.379829</ele>
        <time>2023-07-03T09:23:47.659Z</time>
      </trkpt>
      <trkpt lat="50.10761" lon="8.76849">
        <ele>145.322849</ele>
        <time>2023-07-03T09:23:49.664Z</time>
      </trkpt>
      <trkpt lat="50.10758" lon="8.76866">
        <ele>145.265512</ele>
        <time>2023-07-03T09:23:51.661Z</time>
      </trkpt>
      <trkpt lat="50.10755" lon="8.76883">
        <ele>145.208563</ele>
        <time>2023-07-03T09:23:53.657Z</time>
      </trkpt>
      <trkpt lat="50.10752" lon="8.76901">
        <ele>145.150186</ele>
        <time>2023-07-03T09:23:55.662Z</time>
      </trkpt>
      <trkpt lat="50.10749" lon="8.76918">
        <ele>145.095417</ele>
        <time>2023-07-03T09:23:57.668Z</time>
      </trkpt>
      <trkpt lat="50.10747" lon="8.76936">
        <ele>145.03638</ele>
        <time>2023-07-03T09:23:59.657Z</time>
      </trkpt>
      <trkpt lat="50.10745" lon="8.76954">
        <ele>144.978653</ele>
        <time>2023-07-03T09:24:01.669Z</time>
      </trkpt>
      <trkpt lat="50.10742" lon="8.76972">
        <ele>144.922906</ele>
        <time>2023-07-03T09:24:03.657Z</time>
      </trkpt>
      <trkpt lat="50.10739" lon="8.76989">
        <ele>144.866302</ele>
        <time>2023-07-03T09:24:05.651Z</time>
      </trkpt>
      <trkpt lat="50.10736" lon="8.77007">
        <ele>144.80945</ele>
        <time>2023-07-03T09:24:07.647Z</time>
      </trkpt>
      <trkpt lat="50.10735" lon="8.77024">
        <ele>144.754611</ele>
        <time>2023-07-03T09:24:09.643Z</time>
      </trkpt>
      <trkpt lat="50.10734" lon="8.77042">
        <ele>144.697771</ele>
        <time>2023-07-03T09:24:11.644Z</time>
      </trkpt>
      <trkpt lat="50.10733" lon="8.77059">
        <ele>144.641468</ele>
        <time>2023-07-03T09:24:13.665Z</time>
      </trkpt>
      <trkpt lat="50.10731" lon="8.77077">
        <ele>144.584941</ele>
        <time>2023-07-03T09:24:15.679Z</time>
      </trkpt>
      <trkpt lat="50.1073" lon="8.77094">
        <ele>144.53035</ele>
        <time>2023-07-03T09:24:17.654Z</time>
      </trkpt>
      <trkpt lat="50.1073" lon="8.77112">
        <ele>144.506374</ele>
        <time>2023-07-03T09:24:19.657Z</time>
      </trkpt>
      <trkpt lat="50.10729" lon="8.77129">
        <ele>144.5221</ele>
        <time>2023-07-03T09:24:21.649Z</time>
      </trkpt>
      <trkpt lat="50.10728" lon="8.77146">
        <ele>144.53793</ele>
        <time>2023-07-03T09:24:23.672Z</time>
      </trkpt>
      <trkpt lat="50.10727" lon="8.77164">
        <ele>144.554645</ele>
        <time>2023-07-03T09:24:25.660Z</time>
      </trkpt>
      <trkpt lat="50.10727" lon="8.77181">
        <ele>144.571087</ele>
        <time>2023-07-03T09:24:27.655Z</time>
      </trkpt>
      <trkpt lat="50.10727" lon="8.77198">
        <ele>144.586615</ele>
        <time>2023-07-03T09:24:29.661Z</time>
      </trkpt>
      <trkpt lat="50.10728" lon="8.77215">
        <ele>144.602382</ele>
        <time>2023-07-03T09:24:31.652Z</time>
      </trkpt>
      <trkpt lat="50.10731" lon="8.77232">
        <ele>144.618134</ele>
        <time>2023-07-03T09:24:33.649Z</time>
      </trkpt>
      <trkpt lat="50.10733" lon="8.77248">
        <ele>144.633941</ele>
        <time>2023-07-03T09:24:35.653Z</time>
      </trkpt>
      <trkpt lat="50.10735" lon="8.77265">
        <ele>144.649451</ele>
        <time>2023-07-03T09:24:37.652Z</time>
      </trkpt>
      <trkpt lat="50.10738" lon="8.77281">
        <ele>144.664841</ele>
        <time>2023-07-03T09:24:39.668Z</time>
      </trkpt>
      <trkpt lat="50.1074" lon="8.77297">
        <ele>144.680256</ele>
        <time>2023-07-03T09:24:41.644Z</time>
      </trkpt>
      <trkpt lat="50.10742" lon="8.77313">
        <ele>144.695312</ele>
        <time>2023-07-03T09:24:43.651Z</time>
      </trkpt>
      <trkpt lat="50.10744" lon="8.77329">
        <ele>144.710397</ele>
        <time>2023-07-03T09:24:45.657Z</time>
      </trkpt>
      <trkpt lat="50.10747" lon="8.77345">
        <ele>144.725663</ele>
        <time>2023-07-03T09:24:47.656Z</time>
      </trkpt>
      <trkpt lat="50.10751" lon="8.77361">
        <ele>144.741214</ele>
        <time>2023-07-03T09:24:49.654Z</time>
      </trkpt>
      <trkpt lat="50.10755" lon="8.77377">
        <ele>144.757248</ele>
        <time>2023-07-03T09:24:51.668Z</time>
      </trkpt>
      <trkpt lat="50.10758" lon="8.77393">
        <ele>144.816524</ele>
        <time>2023-07-03T09:24:53.654Z</time>
      </trkpt>
      <trkpt lat="50.10763" lon="8.7741">
        <ele>144.885265</ele>
        <time>2023-07-03T09:24:55.656Z</time>
      </trkpt>
      <trkpt lat="50.10766" lon="8.77426">
        <ele>144.949505</ele>
        <time>2023-07-03T09:24:57.668Z</time>
      </trkpt>
      <trkpt lat="50.1077" lon="8.77442">
        <ele>145.012342</ele>
        <time>2023-07-03T09:24:59.675Z</time>
      </trkpt>
      <trkpt lat="50.10774" lon="8.77457">
        <ele>145.076958</ele>
        <time>2023-07-03T09:25:01.653Z</time>
      </trkpt>
      <trkpt lat="50.10778" lon="8.77473">
        <ele>145.139227</ele>
        <time>2023-07-03T09:25:03.671Z</time>
      </trkpt>
      <trkpt lat="50.10782" lon="8.77488">
        <ele>145.201147</ele>
        <time>2023-07-03T09:25:05.652Z</time>
      </trkpt>
      <trkpt lat="50.10788" lon="8.77504">
        <ele>145.268013</ele>
        <time>2023-07-03T09:25:07.652Z</time>
      </trkpt>
      <trkpt lat="50.10793" lon="8.77518">
        <ele>145.331896</ele>
        <time>2023-07-03T09:25:09.632Z</time>
      </trkpt>
      <trkpt lat="50.10799" lon="8.77534">
        <ele>145.399854</ele>
        <time>2023-07-03T09:25:11.655Z</time>
      </trkpt>
      <trkpt lat="50.10805" lon="8.77549">
        <ele>145.467172</ele>
        <time>2023-07-03T09:25:13.673Z</time>
      </trkpt>
      <trkpt lat="50.10812" lon="8.77564">
        <ele>145.536967</ele>
        <time>2023-07-03T09:25:15.670Z</time>
      </trkpt>
      <trkpt lat="50.10819" lon="8.77579">
        <ele>145.606458</ele>
        <time>2023-07-03T09:25:17.664Z</time>
      </trkpt>
      <trkpt lat="50.10825" lon="8.77594">
        <ele>145.67344</ele>
        <time>2023-07-03T09:25:19.650Z</time>
      </trkpt>
      <trkpt lat="50.10831" lon="8.77606">
        <ele>145.732337</ele>
        <time>2023-07-03T09:25:21.632Z</time>
      </trkpt>
      <trkpt lat="50.10838" lon="8.77619">
        <ele>145.794234</ele>
        <time>2023-07-03T09:25:23.655Z</time>
      </trkpt>
      <trkpt lat="50.10845" lon="8.77633">
        <ele>145.804398</ele>
        <time>2023-07-03T09:25:25.664Z</time>
      </trkpt>
      <trkpt lat="50.10852" lon="8.77646">
        <ele>145.788112</ele>
        <time>2023-07-03T09:25:27.669Z</time>
      </trkpt>
      <trkpt lat="50.1086" lon="8.77659">
        <ele>145.771989</ele>
        <time>2023-07-03T09:25:29.678Z</time>
      </trkpt>
      <trkpt lat="50.10867" lon="8.77673">
        <ele>145.755845</ele>
        <time>2023-07-03T09:25:31.660Z</time>
      </trkpt>
      <trkpt lat="50.10873" lon="8.77687">
        <ele>145.739574</ele>
        <time>2023-07-03T09:25:33.658Z</time>
      </trkpt>
      <trkpt lat="50.10881" lon="8.77701">
        <ele>145.723074</ele>
        <time>2023-07-03T09:25:35.674Z</time>
      </trkpt>
      <trkpt lat="50.10888" lon="8.77715">
        <ele>145.706645</ele>
        <time>2023-07-03T09:25:37.656Z</time>
      </trkpt>
      <trkpt lat="50.10895" lon="8.77729">
        <ele>145.689838</ele>
        <time>2023-07-03T09:25:39.652Z</time>
      </trkpt>
      <trkpt lat="50.10903" lon="8.77744">
        <ele>145.672381</ele>
        <time>2023-07-03T09:25:41.651Z</time>
      </trkpt>
      <trkpt lat="50.10911" lon="8.77756">
        <ele>145.656073</ele>
        <time>2023-07-03T09:25:43.668Z</time>
      </trkpt>
      <trkpt lat="50.10918" lon="8.77768">
        <ele>145.640432</ele>
        <time>2023-07-03T09:25:45.668Z</time>
      </trkpt>
      <trkpt lat="50.10926" lon="8.7778">
        <ele>145.624974</ele>
        <time>2023-07-03T09:25:47.655Z</time>
      </trkpt>
      <trkpt lat="50.10933" lon="8.77791">
        <ele>145.61</ele>
        <time>2023-07-03T09:25:49.662Z</time>
      </trkpt>
      <trkpt lat="50.1094" lon="8.77806">
        <ele>145.593708</ele>
        <time>2023-07-03T09:25:51.640Z</time>
      </trkpt>
      <trkpt lat="50.10948" lon="8.77818">
        <ele>145.577667</ele>
        <time>2023-07-03T09:25:53.666Z</time>
      </trkpt>
      <trkpt lat="50.10955" lon="8.77831">
        <ele>145.562082</ele>
        <time>2023-07-03T09:25:55.656Z</time>
      </trkpt>
      <trkpt lat="50.10961" lon="8.77844">
        <ele>145.505825</ele>
        <time>2023-07-03T09:25:57.660Z</time>
      </trkpt>
      <trkpt lat="50.10966" lon="8.77856">
        <ele>145.428904</ele>
        <time>2023-07-03T09:25:59.670Z</time>
      </trkpt>
      <trkpt lat="50.10971" lon="8.77868">
        <ele>145.354148</ele>
        <time>2023-07-03T09:26:01.636Z</time>
      </trkpt>
      <trkpt lat="50.10976" lon="8.77883">
        <ele>145.271107</ele>
        <time>2023-07-03T09:26:03.658Z</time>
      </trkpt>
      <trkpt lat="50.10981" lon="8.77898">
        <ele>145.186431</ele>
        <time>2023-07-03T09:26:05.657Z</time>
      </trkpt>
      <trkpt lat="50.10985" lon="8.77912">
        <ele>145.105125</ele>
        <time>2023-07-03T09:26:07.649Z</time>
      </trkpt>
      <trkpt lat="50.1099" lon="8.77925">
        <ele>145.024697</ele>
        <time>2023-07-03T09:26:09.645Z</time>
      </trkpt>
      <trkpt lat="50.10996" lon="8.7794">
        <ele>144.935679</ele>
        <time>2023-07-03T09:26:11.656Z</time>
      </trkpt>
      <trkpt lat="50.11004" lon="8.77954">
        <ele>144.841524</ele>
        <time>2023-07-03T09:26:13.655Z</time>
      </trkpt>
      <trkpt lat="50.11011" lon="8.77967">
        <ele>144.756711</ele>
        <time>2023-07-03T09:26:15.658Z</time>
      </trkpt>
      <trkpt lat="50.11018" lon="8.77979">
        <ele>144.669928</ele>
        <time>2023-07-03T09:26:17.657Z</time>
      </trkpt>
      <trkpt lat="50.11025" lon="8.77993">
        <ele>144.580456</ele>
        <time>2023-07-03T09:26:19.653Z</time>
      </trkpt>
      <trkpt lat="50.11031" lon="8.78006">
        <ele>144.497923</ele>
        <time>2023-07-03T09:26:21.672Z</time>
      </trkpt>
      <trkpt lat="50.11036" lon="8.78021">
        <ele>144.410517</ele>
        <time>2023-07-03T09:26:23.653Z</time>
      </trkpt>
      <trkpt lat="50.11041" lon="8.78036">
        <ele>144.322846</ele>
        <time>2023-07-03T09:26:25.642Z</time>
      </trkpt>
      <trkpt lat="50.11046" lon="8.78051">
        <ele>144.237119</ele>
        <time>2023-07-03T09:26:27.639Z</time>
      </trkpt>
      <trkpt lat="50.11052" lon="8.78063">
        <ele>144.160052</ele>
        <time>2023-07-03T09:26:29.642Z</time>
      </trkpt>
      <trkpt lat="50.11059" lon="8.78071">
        <ele>144.117313</ele>
        <time>2023-07-03T09:26:31.652Z</time>
      </trkpt>
      <trkpt lat="50.11068" lon="8.78077">
        <ele>144.118528</ele>
        <time>2023-07-03T09:26:33.639Z</time>
      </trkpt>
      <trkpt lat="50.11076" lon="8.78082">
        <ele>144.119775</ele>
        <time>2023-07-03T09:26:35.646Z</time>
      </trkpt>
      <trkpt lat="50.11085" lon="8.78088">
        <ele>144.121078</ele>
        <time>2023-07-03T09:26:37.656Z</time>
      </trkpt>
      <trkpt lat="50.11095" lon="8.78094">
        <ele>144.122409</ele>
        <time>2023-07-03T09:26:39.652Z</time>
      </trkpt>
      <trkpt lat="50.11105" lon="8.781">
        <ele>144.123838</ele>
        <time>2023-07-03T09:26:41.667Z</time>
      </trkpt>
      <trkpt lat="50.11114" lon="8.78106">
        <ele>144.125179</ele>
        <time>2023-07-03T09:26:43.661Z</time>
      </trkpt>
      <trkpt lat="50.11123" lon="8.78112">
        <ele>144.126472</ele>
        <time>2023-07-03T09:26:45.669Z</time>
      </trkpt>
      <trkpt lat="50.11131" lon="8.78119">
        <ele>144.127706</ele>
        <time>2023-07-03T09:26:47.669Z</time>
      </trkpt>
      <trkpt lat="50.11141" lon="8.78125">
        <ele>144.129185</ele>
        <time>2023-07-03T09:26:49.670Z</time>
      </trkpt>
      <trkpt lat="50.11152" lon="8.78131">
        <ele>144.130684</ele>
        <time>2023-07-03T09:26:51.663Z</time>
      </trkpt>
      <trkpt lat="50.11161" lon="8.78136">
        <ele>144.131987</ele>
        <time>2023-07-03T09:26:53.657Z</time>
      </trkpt>
      <trkpt lat="50.11169" lon="8.78143">
        <ele>144.13322</ele>
        <time>2023-07-03T09:26:55.651Z</time>
      </trkpt>
      <trkpt lat="50.11178" lon="8.7815">
        <ele>144.134467</ele>
        <time>2023-07-03T09:26:57.664Z</time>
      </trkpt>
      <trkpt lat="50.11187" lon="8.78156">
        <ele>144.135791</ele>
        <time>2023-07-03T09:26:59.654Z</time>
      </trkpt>
      <trkpt lat="50.11199" lon="8.78165">
        <ele>144.137578</ele>
        <time>2023-07-03T09:27:02.672Z</time>
      </trkpt>
      <trkpt lat="50.11208" lon="8.7817">
        <ele>144.138847</ele>
        <time>2023-07-03T09:27:04.671Z</time>
      </trkpt>
      <trkpt lat="50.11217" lon="8.78175">
        <ele>144.140136</ele>
        <time>2023-07-03T09:27:06.654Z</time>
      </trkpt>
      <trkpt lat="50.11227" lon="8.7818">
        <ele>144.14449</ele>
        <time>2023-07-03T09:27:08.665Z</time>
      </trkpt>
      <trkpt lat="50.11236" lon="8.78186">
        <ele>144.151056</ele>
        <time>2023-07-03T09:27:10.660Z</time>
      </trkpt>
      <trkpt lat="50.11247" lon="8.78195">
        <ele>144.15956</ele>
        <time>2023-07-03T09:27:13.659Z</time>
      </trkpt>
      <trkpt lat="50.11258" lon="8.78207">
        <ele>144.168597</ele>
        <time>2023-07-03T09:27:16.656Z</time>
      </trkpt>
      <trkpt lat="50.11271" lon="8.78207">
        <ele>144.176918</ele>
        <time>2023-07-03T09:27:19.661Z</time>
      </trkpt>
      <trkpt lat="50.11281" lon="8.78203">
        <ele>144.183909</ele>
        <time>2023-07-03T09:27:21.651Z</time>
      </trkpt>
      <trkpt lat="50.11291" lon="8.78196">
        <ele>144.19101</ele>
        <time>2023-07-03T09:27:23.658Z</time>
      </trkpt>
      <trkpt lat="50.11302" lon="8.7819">
        <ele>144.198704</ele>
        <time>2023-07-03T09:27:25.657Z</time>
      </trkpt>
      <trkpt lat="50.11313" lon="8.78187">
        <ele>144.206094</ele>
        <time>2023-07-03T09:27:27.677Z</time>
      </trkpt>
      <trkpt lat="50.11322" lon="8.78186">
        <ele>144.212574</ele>
        <time>2023-07-03T09:27:29.664Z</time>
      </trkpt>
      <trkpt lat="50.11332" lon="8.78186">
        <ele>144.219097</ele>
        <time>2023-07-03T09:27:31.646Z</time>
      </trkpt>
      <trkpt lat="50.11343" lon="8.78184">
        <ele>144.226512</ele>
        <time>2023-07-03T09:27:35.664Z</time>
      </trkpt>
      <trkpt lat="50.11332" lon="8.78183">
        <ele>144.2344</ele>
        <time>2023-07-03T09:27:44.678Z</time>
      </trkpt>
      <trkpt lat="50.11322" lon="8.78184">
        <ele>144.240614</ele>
        <time>2023-07-03T09:27:47.662Z</time>
      </trkpt>
      <trkpt lat="50.11313" lon="8.78185">
        <ele>144.246811</ele>
        <time>2023-07-03T09:27:50.670Z</time>
      </trkpt>
      <trkpt lat="50.11303" lon="8.78188">
        <ele>144.253647</ele>
        <time>2023-07-03T09:27:53.657Z</time>
      </trkpt>
      <trkpt lat="50.11293" lon="8.78192">
        <ele>144.261074</ele>
        <time>2023-07-03T09:27:56.670Z</time>
      </trkpt>
      <trkpt lat="50.11283" lon="8.78198">
        <ele>144.274335</ele>
        <time>2023-07-03T09:27:59.648Z</time>
      </trkpt>
      <trkpt lat="50.11274" lon="8.78203">
        <ele>144.286969</ele>
        <time>2023-07-03T09:28:02.673Z</time>
      </trkpt>
      <trkpt lat="50.11262" lon="8.78207">
        <ele>144.30188</ele>
        <time>2023-07-03T09:28:06.668Z</time>
      </trkpt>
      <trkpt lat="50.11263" lon="8.78225">
        <ele>144.316226</ele>
        <time>2023-07-03T09:29:02.666Z</time>
      </trkpt>
      <trkpt lat="50.11269" lon="8.78236">
        <ele>144.328443</ele>
        <time>2023-07-03T09:29:13.640Z</time>
      </trkpt>
      <trkpt lat="50.11276" lon="8.78248">
        <ele>144.341518</ele>
        <time>2023-07-03T09:29:19.661Z</time>
      </trkpt>
      <trkpt lat="50.11284" lon="8.78256">
        <ele>144.354038</ele>
        <time>2023-07-03T09:29:23.649Z</time>
      </trkpt>
      <trkpt lat="50.11293" lon="8.78264">
        <ele>144.367408</ele>
        <time>2023-07-03T09:29:28.657Z</time>
      </trkpt>
      <trkpt lat="50.11302" lon="8.78267">
        <ele>144.379314</ele>
        <time>2023-07-03T09:29:32.671Z</time>
      </trkpt>
      <trkpt lat="50.11312" lon="8.78272">
        <ele>144.392638</ele>
        <time>2023-07-03T09:29:36.658Z</time>
      </trkpt>
      <trkpt lat="50.11322" lon="8.78276">
        <ele>144.405867</ele>
        <time>2023-07-03T09:29:40.659Z</time>
      </trkpt>
      <trkpt lat="50.1133" lon="8.78284">
        <ele>144.418567</ele>
        <time>2023-07-03T09:29:43.649Z</time>
      </trkpt>
      <trkpt lat="50.11336" lon="8.78295">
        <ele>144.430469</ele>
        <time>2023-07-03T09:29:46.652Z</time>
      </trkpt>
      <trkpt lat="50.1134" lon="8.78311">
        <ele>144.44487</ele>
        <time>2023-07-03T09:29:50.656Z</time>
      </trkpt>
      <trkpt lat="50.11343" lon="8.78327">
        <ele>144.457724</ele>
        <time>2023-07-03T09:29:53.660Z</time>
      </trkpt>
      <trkpt lat="50.11344" lon="8.78343">
        <ele>144.471033</ele>
        <time>2023-07-03T09:29:56.660Z</time>
      </trkpt>
      <trkpt lat="50.11342" lon="8.78359">
        <ele>144.484525</ele>
        <time>2023-07-03T09:29:59.668Z</time>
      </trkpt>
      <trkpt lat="50.1134" lon="8.78374">
        <ele>144.51484</ele>
        <time>2023-07-03T09:30:02.652Z</time>
      </trkpt>
      <trkpt lat="50.11337" lon="8.78392">
        <ele>144.572794</ele>
        <time>2023-07-03T09:30:05.663Z</time>
      </trkpt>
      <trkpt lat="50.11334" lon="8.78409">
        <ele>144.627974</ele>
        <time>2023-07-03T09:30:08.655Z</time>
      </trkpt>
      <trkpt lat="50.11331" lon="8.78425">
        <ele>144.682773</ele>
        <time>2023-07-03T09:30:11.666Z</time>
      </trkpt>
      <trkpt lat="50.11332" lon="8.78444">
        <ele>144.741303</ele>
        <time>2023-07-03T09:30:14.662Z</time>
      </trkpt>
      <trkpt lat="50.11332" lon="8.78461">
        <ele>144.797923</ele>
        <time>2023-07-03T09:30:17.660Z</time>
      </trkpt>
      <trkpt lat="50.11325" lon="8.78476">
        <ele>144.857784</ele>
        <time>2023-07-03T09:30:20.665Z</time>
      </trkpt>
      <trkpt lat="50.11314" lon="8.78486">
        <ele>144.919409</ele>
        <time>2023-07-03T09:30:23.646Z</time>
      </trkpt>
      <trkpt lat="50.11305" lon="8.78498">
        <ele>144.981789</ele>
        <time>2023-07-03T09:30:26.663Z</time>
      </trkpt>
      <trkpt lat="50.11304" lon="8.78513">
        <ele>145.027697</ele>
        <time>2023-07-03T09:30:28.649Z</time>
      </trkpt>
      <trkpt lat="50.11309" lon="8.78526">
        <ele>145.076668</ele>
        <time>2023-07-03T09:30:30.661Z</time>
      </trkpt>
      <trkpt lat="50.11318" lon="8.78541">
        <ele>145.141199</ele>
        <time>2023-07-03T09:30:33.659Z</time>
      </trkpt>
      <trkpt lat="50.11325" lon="8.78551">
        <ele>145.187251</ele>
        <time>2023-07-03T09:30:35.661Z</time>
      </trkpt>
      <trkpt lat="50.11332" lon="8.78559">
        <ele>145.233026</ele>
        <time>2023-07-03T09:30:37.660Z</time>
      </trkpt>
      <trkpt lat="50.11341" lon="8.78566">
        <ele>145.279943</ele>
        <time>2023-07-03T09:30:39.653Z</time>
      </trkpt>
      <trkpt lat="50.11353" lon="8.78575">
        <ele>145.348513</ele>
        <time>2023-07-03T09:30:42.658Z</time>
      </trkpt>
      <trkpt lat="50.11362" lon="8.78582">
        <ele>145.396808</ele>
        <time>2023-07-03T09:30:44.667Z</time>
      </trkpt>
      <trkpt lat="50.11371" lon="8.7859">
        <ele>145.447119</ele>
        <time>2023-07-03T09:30:46.653Z</time>
      </trkpt>
      <trkpt lat="50.11379" lon="8.78598">
        <ele>145.497273</ele>
        <time>2023-07-03T09:30:48.651Z</time>
      </trkpt>
      <trkpt lat="50.11388" lon="8.78606">
        <ele>145.547209</ele>
        <time>2023-07-03T09:30:50.657Z</time>
      </trkpt>
      <trkpt lat="50.11396" lon="8.78615">
        <ele>145.59624</ele>
        <time>2023-07-03T09:30:52.651Z</time>
      </trkpt>
      <trkpt lat="50.11404" lon="8.78623">
        <ele>145.641877</ele>
        <time>2023-07-03T09:30:54.645Z</time>
      </trkpt>
      <trkpt lat="50.11412" lon="8.78632">
        <ele>145.692491</ele>
        <time>2023-07-03T09:30:56.660Z</time>
      </trkpt>
      <trkpt lat="50.11421" lon="8.78639">
        <ele>145.743797</ele>
        <time>2023-07-03T09:30:58.660Z</time>
      </trkpt>
      <trkpt lat="50.1143" lon="8.78647">
        <ele>145.795694</ele>
        <time>2023-07-03T09:31:00.652Z</time>
      </trkpt>
      <trkpt lat="50.11439" lon="8.78656">
        <ele>145.848766</ele>
        <time>2023-07-03T09:31:02.676Z</time>
      </trkpt>
      <trkpt lat="50.11448" lon="8.78664">
        <ele>145.901327</ele>
        <time>2023-07-03T09:31:04.668Z</time>
      </trkpt>
      <trkpt lat="50.11458" lon="8.78673">
        <ele>145.955561</ele>
        <time>2023-07-03T09:31:06.651Z</time>
      </trkpt>
      <trkpt lat="50.11467" lon="8.78681">
        <ele>146.005103</ele>
        <time>2023-07-03T09:31:08.669Z</time>
      </trkpt>
      <trkpt lat="50.11475" lon="8.78689">
        <ele>146.05445</ele>
        <time>2023-07-03T09:31:10.650Z</time>
      </trkpt>
      <trkpt lat="50.11484" lon="8.78697">
        <ele>146.105566</ele>
        <time>2023-07-03T09:31:12.666Z</time>
      </trkpt>
      <trkpt lat="50.11492" lon="8.78706">
        <ele>146.156277</ele>
        <time>2023-07-03T09:31:14.671Z</time>
      </trkpt>
      <trkpt lat="50.11501" lon="8.78714">
        <ele>146.205984</ele>
        <time>2023-07-03T09:31:16.645Z</time>
      </trkpt>
      <trkpt lat="50.11509" lon="8.78722">
        <ele>146.252879</ele>
        <time>2023-07-03T09:31:18.660Z</time>
      </trkpt>
      <trkpt lat="50.1152" lon="8.78733">
        <ele>146.269405</ele>
        <time>2023-07-03T09:31:21.660Z</time>
      </trkpt>
      <trkpt lat="50.11529" lon="8.7874">
        <ele>146.260841</ele>
        <time>2023-07-03T09:31:23.675Z</time>
      </trkpt>
      <trkpt lat="50.11537" lon="8.78748">
        <ele>146.251645</ele>
        <time>2023-07-03T09:31:25.672Z</time>
      </trkpt>
      <trkpt lat="50.11546" lon="8.78756">
        <ele>146.242514</ele>
        <time>2023-07-03T09:31:27.678Z</time>
      </trkpt>
      <trkpt lat="50.11554" lon="8.78764">
        <ele>146.233735</ele>
        <time>2023-07-03T09:31:29.669Z</time>
      </trkpt>
      <trkpt lat="50.11558" lon="8.78781">
        <ele>146.223038</ele>
        <time>2023-07-03T09:31:32.650Z</time>
      </trkpt>
      <trkpt lat="50.11552" lon="8.78793">
        <ele>146.214181</ele>
        <time>2023-07-03T09:31:34.655Z</time>
      </trkpt>
      <trkpt lat="50.11546" lon="8.78806">
        <ele>146.205264</ele>
        <time>2023-07-03T09:31:36.675Z</time>
      </trkpt>
      <trkpt lat="50.11541" lon="8.78819">
        <ele>146.196537</ele>
        <time>2023-07-03T09:31:38.665Z</time>
      </trkpt>
      <trkpt lat="50.11536" lon="8.78832">
        <ele>146.187277</ele>
        <time>2023-07-03T09:31:40.636Z</time>
      </trkpt>
      <trkpt lat="50.11531" lon="8.78845">
        <ele>146.178788</ele>
        <time>2023-07-03T09:31:42.678Z</time>
      </trkpt>
      <trkpt lat="50.11526" lon="8.78864">
        <ele>146.166684</ele>
        <time>2023-07-03T09:31:45.632Z</time>
      </trkpt>
      <trkpt lat="50.11521" lon="8.78881">
        <ele>146.155743</ele>
        <time>2023-07-03T09:31:48.660Z</time>
      </trkpt>
      <trkpt lat="50.11518" lon="8.78894">
        <ele>146.147518</ele>
        <time>2023-07-03T09:31:50.665Z</time>
      </trkpt>
      <trkpt lat="50.11513" lon="8.78907">
        <ele>146.139014</ele>
        <time>2023-07-03T09:31:52.637Z</time>
      </trkpt>
      <trkpt lat="50.11508" lon="8.78919">
        <ele>146.13073</ele>
        <time>2023-07-03T09:31:54.687Z</time>
      </trkpt>
      <trkpt lat="50.11504" lon="8.78933">
        <ele>146.122113</ele>
        <time>2023-07-03T09:31:56.665Z</time>
      </trkpt>
      <trkpt lat="50.11497" lon="8.78948">
        <ele>146.156394</ele>
        <time>2023-07-03T09:31:59.664Z</time>
      </trkpt>
      <trkpt lat="50.11493" lon="8.7896">
        <ele>146.274182</ele>
        <time>2023-07-03T09:32:03.663Z</time>
      </trkpt>
      <trkpt lat="50.11488" lon="8.78974">
        <ele>146.404409</ele>
        <time>2023-07-03T09:32:14.657Z</time>
      </trkpt>
      <trkpt lat="50.11497" lon="8.78987">
        <ele>146.559573</ele>
        <time>2023-07-03T09:32:18.669Z</time>
      </trkpt>
      <trkpt lat="50.11507" lon="8.78995">
        <ele>146.701973</ele>
        <time>2023-07-03T09:32:21.673Z</time>
      </trkpt>
      <trkpt lat="50.11516" lon="8.79005">
        <ele>146.853733</ele>
        <time>2023-07-03T09:32:24.667Z</time>
      </trkpt>
      <trkpt lat="50.11526" lon="8.79014">
        <ele>147.000547</ele>
        <time>2023-07-03T09:32:27.672Z</time>
      </trkpt>
      <trkpt lat="50.11535" lon="8.79024">
        <ele>147.152671</ele>
        <time>2023-07-03T09:32:30.660Z</time>
      </trkpt>
      <trkpt lat="50.11545" lon="8.79034">
        <ele>147.298905</ele>
        <time>2023-07-03T09:32:33.663Z</time>
      </trkpt>
      <trkpt lat="50.11554" lon="8.79042">
        <ele>147.443746</ele>
        <time>2023-07-03T09:32:36.663Z</time>
      </trkpt>
      <trkpt lat="50.11562" lon="8.79053">
        <ele>147.576919</ele>
        <time>2023-07-03T09:32:39.669Z</time>
      </trkpt>
      <trkpt lat="50.11563" lon="8.79067">
        <ele>147.698429</ele>
        <time>2023-07-03T09:32:42.656Z</time>
      </trkpt>
      <trkpt lat="50.1156" lon="8.79083">
        <ele>147.840226</ele>
        <time>2023-07-03T09:32:45.649Z</time>
      </trkpt>
      <trkpt lat="50.11554" lon="8.791">
        <ele>147.999217</ele>
        <time>2023-07-03T09:32:48.656Z</time>
      </trkpt>
      <trkpt lat="50.11549" lon="8.79114">
        <ele>148.137052</ele>
        <time>2023-07-03T09:32:51.656Z</time>
      </trkpt>
      <trkpt lat="50.11544" lon="8.7913">
        <ele>148.282623</ele>
        <time>2023-07-03T09:32:54.661Z</time>
      </trkpt>
      <trkpt lat="50.11543" lon="8.79148">
        <ele>148.436917</ele>
        <time>2023-07-03T09:32:57.653Z</time>
      </trkpt>
      <trkpt lat="50.11546" lon="8.79163">
        <ele>148.425631</ele>
        <time>2023-07-03T09:32:59.650Z</time>
      </trkpt>
      <trkpt lat="50.11551" lon="8.79177">
        <ele>148.37345</ele>
        <time>2023-07-03T09:33:01.662Z</time>
      </trkpt>
      <trkpt lat="50.11554" lon="8.79191">
        <ele>148.320427</ele>
        <time>2023-07-03T09:33:03.662Z</time>
      </trkpt>
      <trkpt lat="50.11558" lon="8.79205">
        <ele>148.267355</ele>
        <time>2023-07-03T09:33:05.647Z</time>
      </trkpt>
      <trkpt lat="50.11561" lon="8.79221">
        <ele>148.211718</ele>
        <time>2023-07-03T09:33:07.659Z</time>
      </trkpt>
      <trkpt lat="50.11564" lon="8.79236">
        <ele>148.15704</ele>
        <time>2023-07-03T09:33:09.678Z</time>
      </trkpt>
      <trkpt lat="50.11568" lon="8.79251">
        <ele>148.101987</ele>
        <time>2023-07-03T09:33:11.645Z</time>
      </trkpt>
      <trkpt lat="50.11571" lon="8.79266">
        <ele>148.04749</ele>
        <time>2023-07-03T09:33:13.659Z</time>
      </trkpt>
      <trkpt lat="50.11575" lon="8.79282">
        <ele>147.990698</ele>
        <time>2023-07-03T09:33:15.655Z</time>
      </trkpt>
      <trkpt lat="50.11578" lon="8.79297">
        <ele>147.934102</ele>
        <time>2023-07-03T09:33:17.652Z</time>
      </trkpt>
      <trkpt lat="50.11581" lon="8.79312">
        <ele>147.879466</ele>
        <time>2023-07-03T09:33:19.645Z</time>
      </trkpt>
      <trkpt lat="50.11584" lon="8.79328">
        <ele>147.825713</ele>
        <time>2023-07-03T09:33:21.671Z</time>
      </trkpt>
      <trkpt lat="50.11587" lon="8.79343">
        <ele>147.768793</ele>
        <time>2023-07-03T09:33:23.664Z</time>
      </trkpt>
      <trkpt lat="50.11591" lon="8.79358">
        <ele>147.713348</ele>
        <time>2023-07-03T09:33:25.678Z</time>
      </trkpt>
      <trkpt lat="50.11595" lon="8.79373">
        <ele>147.659374</ele>
        <time>2023-07-03T09:33:27.659Z</time>
      </trkpt>
      <trkpt lat="50.11599" lon="8.79388">
        <ele>147.605717</ele>
        <time>2023-07-03T09:33:29.663Z</time>
      </trkpt>
      <trkpt lat="50.11602" lon="8.79402">
        <ele>147.553688</ele>
        <time>2023-07-03T09:33:31.661Z</time>
      </trkpt>
      <trkpt lat="50.11605" lon="8.79416">
        <ele>147.509879</ele>
        <time>2023-07-03T09:33:33.654Z</time>
      </trkpt>
      <trkpt lat="50.11609" lon="8.7943">
        <ele>147.580467</ele>
        <time>2023-07-03T09:33:35.657Z</time>
      </trkpt>
      <trkpt lat="50.11611" lon="8.79445">
        <ele>147.647484</ele>
        <time>2023-07-03T09:33:37.660Z</time>
      </trkpt>
      <trkpt lat="50.11614" lon="8.79459">
        <ele>147.715107</ele>
        <time>2023-07-03T09:33:39.681Z</time>
      </trkpt>
      <trkpt lat="50.11619" lon="8.79479">
        <ele>147.811688</ele>
        <time>2023-07-03T09:33:42.656Z</time>
      </trkpt>
      <trkpt lat="50.11622" lon="8.79494">
        <ele>147.878669</ele>
        <time>2023-07-03T09:33:44.663Z</time>
      </trkpt>
      <trkpt lat="50.11625" lon="8.79507">
        <ele>147.942907</ele>
        <time>2023-07-03T09:33:46.676Z</time>
      </trkpt>
      <trkpt lat="50.11636" lon="8.79515">
        <ele>148.025613</ele>
        <time>2023-07-03T09:33:49.659Z</time>
      </trkpt>
      <trkpt lat="50.11648" lon="8.79506">
        <ele>148.118064</ele>
        <time>2023-07-03T09:33:52.664Z</time>
      </trkpt>
      <trkpt lat="50.11657" lon="8.79503">
        <ele>148.181738</ele>
        <time>2023-07-03T09:33:54.658Z</time>
      </trkpt>
      <trkpt lat="50.11665" lon="8.79498">
        <ele>148.245901</ele>
        <time>2023-07-03T09:33:56.694Z</time>
      </trkpt>
      <trkpt lat="50.11678" lon="8.79492">
        <ele>148.340206</ele>
        <time>2023-07-03T09:33:59.664Z</time>
      </trkpt>
      <trkpt lat="50.1169" lon="8.79485">
        <ele>148.427436</ele>
        <time>2023-07-03T09:34:02.668Z</time>
      </trkpt>
      <trkpt lat="50.11701" lon="8.79478">
        <ele>148.51405</ele>
        <time>2023-07-03T09:34:05.650Z</time>
      </trkpt>
      <trkpt lat="50.11712" lon="8.79472">
        <ele>148.594889</ele>
        <time>2023-07-03T09:34:08.666Z</time>
      </trkpt>
      <trkpt lat="50.11724" lon="8.79464">
        <ele>148.680696</ele>
        <time>2023-07-03T09:34:11.642Z</time>
      </trkpt>
      <trkpt lat="50.11732" lon="8.79472">
        <ele>148.751584</ele>
        <time>2023-07-03T09:34:14.659Z</time>
      </trkpt>
      <trkpt lat="50.11736" lon="8.7949">
        <ele>148.708347</ele>
        <time>2023-07-03T09:34:17.641Z</time>
      </trkpt>
      <trkpt lat="50.1174" lon="8.79509">
        <ele>148.645738</ele>
        <time>2023-07-03T09:34:20.699Z</time>
      </trkpt>
      <trkpt lat="50.11744" lon="8.79527">
        <ele>148.587375</ele>
        <time>2023-07-03T09:34:23.652Z</time>
      </trkpt>
      <trkpt lat="50.11746" lon="8.79546">
        <ele>148.523597</ele>
        <time>2023-07-03T09:34:26.646Z</time>
      </trkpt>
      <trkpt lat="50.11749" lon="8.79561">
        <ele>148.475894</ele>
        <time>2023-07-03T09:34:28.653Z</time>
      </trkpt>
      <trkpt lat="50.11752" lon="8.79576">
        <ele>148.423791</ele>
        <time>2023-07-03T09:34:30.736Z</time>
      </trkpt>
      <trkpt lat="50.11756" lon="8.79591">
        <ele>148.373813</ele>
        <time>2023-07-03T09:34:32.666Z</time>
      </trkpt>
      <trkpt lat="50.11758" lon="8.79607">
        <ele>148.320211</ele>
        <time>2023-07-03T09:34:34.652Z</time>
      </trkpt>
      <trkpt lat="50.11761" lon="8.79622">
        <ele>148.272357</ele>
        <time>2023-07-03T09:34:36.657Z</time>
      </trkpt>
      <trkpt lat="50.11764" lon="8.79637">
        <ele>148.221626</ele>
        <time>2023-07-03T09:34:38.638Z</time>
      </trkpt>
      <trkpt lat="50.11767" lon="8.79653">
        <ele>148.168775</ele>
        <time>2023-07-03T09:34:40.652Z</time>
      </trkpt>
      <trkpt lat="50.1177" lon="8.79668">
        <ele>148.11865</ele>
        <time>2023-07-03T09:34:42.664Z</time>
      </trkpt>
      <trkpt lat="50.11773" lon="8.79683">
        <ele>148.067763</ele>
        <time>2023-07-03T09:34:44.664Z</time>
      </trkpt>
      <trkpt lat="50.11776" lon="8.79698">
        <ele>148.018542</ele>
        <time>2023-07-03T09:34:46.635Z</time>
      </trkpt>
      <trkpt lat="50.11779" lon="8.79712">
        <ele>147.970074</ele>
        <time>2023-07-03T09:34:48.656Z</time>
      </trkpt>
      <trkpt lat="50.11781" lon="8.79728">
        <ele>147.91865</ele>
        <time>2023-07-03T09:34:50.766Z</time>
      </trkpt>
      <trkpt lat="50.11784" lon="8.79743">
        <ele>147.870894</ele>
        <time>2023-07-03T09:34:52.657Z</time>
      </trkpt>
      <trkpt lat="50.11786" lon="8.79757">
        <ele>147.975096</ele>
        <time>2023-07-03T09:34:54.667Z</time>
      </trkpt>
      <trkpt lat="50.11789" lon="8.7977">
        <ele>148.075761</ele>
        <time>2023-07-03T09:34:56.658Z</time>
      </trkpt>
      <trkpt lat="50.11793" lon="8.79789">
        <ele>148.217698</ele>
        <time>2023-07-03T09:34:59.661Z</time>
      </trkpt>
      <trkpt lat="50.11797" lon="8.79807">
        <ele>148.355882</ele>
        <time>2023-07-03T09:35:02.661Z</time>
      </trkpt>
      <trkpt lat="50.11799" lon="8.79822">
        <ele>148.461007</ele>
        <time>2023-07-03T09:35:04.662Z</time>
      </trkpt>
      <trkpt lat="50.11802" lon="8.79836">
        <ele>148.56614</ele>
        <time>2023-07-03T09:35:06.682Z</time>
      </trkpt>
      <trkpt lat="50.11805" lon="8.7985">
        <ele>148.672275</ele>
        <time>2023-07-03T09:35:08.660Z</time>
      </trkpt>
      <trkpt lat="50.11807" lon="8.79864">
        <ele>148.775566</ele>
        <time>2023-07-03T09:35:10.644Z</time>
      </trkpt>
      <trkpt lat="50.1181" lon="8.79884">
        <ele>148.926892</ele>
        <time>2023-07-03T09:35:13.678Z</time>
      </trkpt>
      <trkpt lat="50.11814" lon="8.79898">
        <ele>149.029752</ele>
        <time>2023-07-03T09:35:15.654Z</time>
      </trkpt>
      <trkpt lat="50.11818" lon="8.79917">
        <ele>149.176462</ele>
        <time>2023-07-03T09:35:18.666Z</time>
      </trkpt>
      <trkpt lat="50.1182" lon="8.79938">
        <ele>149.332269</ele>
        <time>2023-07-03T09:35:21.638Z</time>
      </trkpt>
      <trkpt lat="50.11824" lon="8.79952">
        <ele>149.43705</ele>
        <time>2023-07-03T09:35:23.658Z</time>
      </trkpt>
      <trkpt lat="50.11826" lon="8.79967">
        <ele>149.547833</ele>
        <time>2023-07-03T09:35:25.658Z</time>
      </trkpt>
      <trkpt lat="50.11829" lon="8.79982">
        <ele>149.659095</ele>
        <time>2023-07-03T09:35:27.656Z</time>
      </trkpt>
      <trkpt lat="50.11831" lon="8.79997">
        <ele>149.771916</ele>
        <time>2023-07-03T09:35:29.656Z</time>
      </trkpt>
      <trkpt lat="50.11834" lon="8.80012">
        <ele>149.880455</ele>
        <time>2023-07-03T09:35:31.669Z</time>
      </trkpt>
      <trkpt lat="50.11837" lon="8.80027">
        <ele>149.860835</ele>
        <time>2023-07-03T09:35:33.672Z</time>
      </trkpt>
      <trkpt lat="50.11841" lon="8.80043">
        <ele>149.841215</ele>
        <time>2023-07-03T09:35:35.658Z</time>
      </trkpt>
      <trkpt lat="50.11844" lon="8.80059">
        <ele>149.820957</ele>
        <time>2023-07-03T09:35:37.655Z</time>
      </trkpt>
      <trkpt lat="50.11847" lon="8.80074">
        <ele>149.801569</ele>
        <time>2023-07-03T09:35:39.667Z</time>
      </trkpt>
      <trkpt lat="50.1185" lon="8.80089">
        <ele>149.782117</ele>
        <time>2023-07-03T09:35:41.659Z</time>
      </trkpt>
      <trkpt lat="50.11852" lon="8.80105">
        <ele>149.762463</ele>
        <time>2023-07-03T09:35:43.659Z</time>
      </trkpt>
      <trkpt lat="50.11855" lon="8.80121">
        <ele>149.742588</ele>
        <time>2023-07-03T09:35:45.660Z</time>
      </trkpt>
      <trkpt lat="50.11858" lon="8.80137">
        <ele>149.722625</ele>
        <time>2023-07-03T09:35:47.638Z</time>
      </trkpt>
      <trkpt lat="50.11861" lon="8.80153">
        <ele>149.702069</ele>
        <time>2023-07-03T09:35:49.657Z</time>
      </trkpt>
      <trkpt lat="50.11864" lon="8.80169">
        <ele>149.681641</ele>
        <time>2023-07-03T09:35:51.661Z</time>
      </trkpt>
      <trkpt lat="50.11867" lon="8.80186">
        <ele>149.661202</ele>
        <time>2023-07-03T09:35:53.664Z</time>
      </trkpt>
      <trkpt lat="50.1187" lon="8.80202">
        <ele>149.640977</ele>
        <time>2023-07-03T09:35:55.661Z</time>
      </trkpt>
      <trkpt lat="50.11873" lon="8.80218">
        <ele>149.62061</ele>
        <time>2023-07-03T09:35:57.653Z</time>
      </trkpt>
      <trkpt lat="50.11877" lon="8.80235">
        <ele>149.599726</ele>
        <time>2023-07-03T09:35:59.656Z</time>
      </trkpt>
      <trkpt lat="50.1188" lon="8.80251">
        <ele>149.579474</ele>
        <time>2023-07-03T09:36:01.664Z</time>
      </trkpt>
      <trkpt lat="50.11883" lon="8.80267">
        <ele>149.558931</ele>
        <time>2023-07-03T09:36:03.662Z</time>
      </trkpt>
      <trkpt lat="50.11886" lon="8.80283">
        <ele>149.535918</ele>
        <time>2023-07-03T09:36:05.649Z</time>
      </trkpt>
      <trkpt lat="50.1189" lon="8.803">
        <ele>149.502351</ele>
        <time>2023-07-03T09:36:07.654Z</time>
      </trkpt>
      <trkpt lat="50.11893" lon="8.80316">
        <ele>149.46912</ele>
        <time>2023-07-03T09:36:09.664Z</time>
      </trkpt>
      <trkpt lat="50.11896" lon="8.80333">
        <ele>149.435641</ele>
        <time>2023-07-03T09:36:11.657Z</time>
      </trkpt>
      <trkpt lat="50.11899" lon="8.8035">
        <ele>149.401214</ele>
        <time>2023-07-03T09:36:13.654Z</time>
      </trkpt>
      <trkpt lat="50.11902" lon="8.80368">
        <ele>149.365992</ele>
        <time>2023-07-03T09:36:15.658Z</time>
      </trkpt>
      <trkpt lat="50.11906" lon="8.80384">
        <ele>149.331964</ele>
        <time>2023-07-03T09:36:17.654Z</time>
      </trkpt>
      <trkpt lat="50.11909" lon="8.80401">
        <ele>149.297909</ele>
        <time>2023-07-03T09:36:19.656Z</time>
      </trkpt>
      <trkpt lat="50.11912" lon="8.80418">
        <ele>149.263895</ele>
        <time>2023-07-03T09:36:21.654Z</time>
      </trkpt>
      <trkpt lat="50.11915" lon="8.80435">
        <ele>149.229305</ele>
        <time>2023-07-03T09:36:23.652Z</time>
      </trkpt>
      <trkpt lat="50.11919" lon="8.80451">
        <ele>149.196566</ele>
        <time>2023-07-03T09:36:25.640Z</time>
      </trkpt>
      <trkpt lat="50.11922" lon="8.80467">
        <ele>149.164925</ele>
        <time>2023-07-03T09:36:27.678Z</time>
      </trkpt>
      <trkpt lat="50.11925" lon="8.80483">
        <ele>149.132555</ele>
        <time>2023-07-03T09:36:29.650Z</time>
      </trkpt>
      <trkpt lat="50.11928" lon="8.80499">
        <ele>149.100359</ele>
        <time>2023-07-03T09:36:31.676Z</time>
      </trkpt>
      <trkpt lat="50.1193" lon="8.80515">
        <ele>149.069415</ele>
        <time>2023-07-03T09:36:33.658Z</time>
      </trkpt>
      <trkpt lat="50.11933" lon="8.80531">
        <ele>149.037833</ele>
        <time>2023-07-03T09:36:35.655Z</time>
      </trkpt>
      <trkpt lat="50.11936" lon="8.80545">
        <ele>149.007547</ele>
        <time>2023-07-03T09:36:37.654Z</time>
      </trkpt>
      <trkpt lat="50.11939" lon="8.8056">
        <ele>149.027221</ele>
        <time>2023-07-03T09:36:39.659Z</time>
      </trkpt>
      <trkpt lat="50.11942" lon="8.80575">
        <ele>149.063715</ele>
        <time>2023-07-03T09:36:41.652Z</time>
      </trkpt>
      <trkpt lat="50.11946" lon="8.80591">
        <ele>149.101634</ele>
        <time>2023-07-03T09:36:43.646Z</time>
      </trkpt>
      <trkpt lat="50.11949" lon="8.80606">
        <ele>149.137727</ele>
        <time>2023-07-03T09:36:45.657Z</time>
      </trkpt>
      <trkpt lat="50.11953" lon="8.80621">
        <ele>149.174685</ele>
        <time>2023-07-03T09:36:47.685Z</time>
      </trkpt>
      <trkpt lat="50.11955" lon="8.80637">
        <ele>149.211529</ele>
        <time>2023-07-03T09:36:49.656Z</time>
      </trkpt>
      <trkpt lat="50.11956" lon="8.80651">
        <ele>149.244941</ele>
        <time>2023-07-03T09:36:51.658Z</time>
      </trkpt>
      <trkpt lat="50.11959" lon="8.80665">
        <ele>149.277949</ele>
        <time>2023-07-03T09:36:53.682Z</time>
      </trkpt>
      <trkpt lat="50.11961" lon="8.80683">
        <ele>149.321586</ele>
        <time>2023-07-03T09:36:56.660Z</time>
      </trkpt>
      <trkpt lat="50.11962" lon="8.807">
        <ele>149.359579</ele>
        <time>2023-07-03T09:37:00.655Z</time>
      </trkpt>
      <trkpt lat="50.11963" lon="8.80715">
        <ele>149.395601</ele>
        <time>2023-07-03T09:37:03.648Z</time>
      </trkpt>
      <trkpt lat="50.11964" lon="8.80732">
        <ele>149.433911</ele>
        <time>2023-07-03T09:37:06.659Z</time>
      </trkpt>
      <trkpt lat="50.11966" lon="8.80748">
        <ele>149.47263</ele>
        <time>2023-07-03T09:37:09.652Z</time>
      </trkpt>
      <trkpt lat="50.11968" lon="8.80767">
        <ele>149.514822</ele>
        <time>2023-07-03T09:37:12.672Z</time>
      </trkpt>
      <trkpt lat="50.1197" lon="8.80783">
        <ele>149.552379</ele>
        <time>2023-07-03T09:37:15.672Z</time>
      </trkpt>
      <trkpt lat="50.1197" lon="8.80801">
        <ele>149.595725</ele>
        <time>2023-07-03T09:37:19.660Z</time>
      </trkpt>
      <trkpt lat="50.1197" lon="8.80816">
        <ele>149.628877</ele>
        <time>2023-07-03T09:37:22.665Z</time>
      </trkpt>
      <trkpt lat="50.11969" lon="8.8083">
        <ele>149.725524</ele>
        <time>2023-07-03T09:37:25.652Z</time>
      </trkpt>
      <trkpt lat="50.11971" lon="8.80844">
        <ele>149.893169</ele>
        <time>2023-07-03T09:37:28.656Z</time>
      </trkpt>
      <trkpt lat="50.11972" lon="8.80859">
        <ele>150.069455</ele>
        <time>2023-07-03T09:37:31.655Z</time>
      </trkpt>
      <trkpt lat="50.11975" lon="8.80876">
        <ele>150.267252</ele>
        <time>2023-07-03T09:37:34.668Z</time>
      </trkpt>
      <trkpt lat="50.11978" lon="8.80891">
        <ele>150.46353</ele>
        <time>2023-07-03T09:37:37.656Z</time>
      </trkpt>
      <trkpt lat="50.11983" lon="8.80908">
        <ele>150.674607</ele>
        <time>2023-07-03T09:37:40.656Z</time>
      </trkpt>
      <trkpt lat="50.11986" lon="8.80927">
        <ele>150.896837</ele>
        <time>2023-07-03T09:37:43.657Z</time>
      </trkpt>
      <trkpt lat="50.11989" lon="8.80946">
        <ele>151.124034</ele>
        <time>2023-07-03T09:37:46.664Z</time>
      </trkpt>
      <trkpt lat="50.11991" lon="8.80965">
        <ele>151.357925</ele>
        <time>2023-07-03T09:37:49.801Z</time>
      </trkpt>
      <trkpt lat="50.11991" lon="8.80985">
        <ele>151.590589</ele>
        <time>2023-07-03T09:37:52.677Z</time>
      </trkpt>
      <trkpt lat="50.11994" lon="8.81005">
        <ele>151.823924</ele>
        <time>2023-07-03T09:37:55.660Z</time>
      </trkpt>
      <trkpt lat="50.11994" lon="8.81026">
        <ele>152.066879</ele>
        <time>2023-07-03T09:37:58.664Z</time>
      </trkpt>
      <trkpt lat="50.11995" lon="8.8104">
        <ele>152.237052</ele>
        <time>2023-07-03T09:38:00.669Z</time>
      </trkpt>
      <trkpt lat="50.11996" lon="8.81061">
        <ele>152.480586</ele>
        <time>2023-07-03T09:38:03.659Z</time>
      </trkpt>
      <trkpt lat="50.11997" lon="8.81076">
        <ele>152.658286</ele>
        <time>2023-07-03T09:38:05.630Z</time>
      </trkpt>
      <trkpt lat="50.11998" lon="8.8109">
        <ele>152.823819</ele>
        <time>2023-07-03T09:38:07.643Z</time>
      </trkpt>
      <trkpt lat="50.11998" lon="8.81105">
        <ele>152.95052</ele>
        <time>2023-07-03T09:38:09.658Z</time>
      </trkpt>
      <trkpt lat="50.12" lon="8.8112">
        <ele>153.022971</ele>
        <time>2023-07-03T09:38:11.647Z</time>
      </trkpt>
      <trkpt lat="50.12002" lon="8.81134">
        <ele>153.093031</ele>
        <time>2023-07-03T09:38:13.672Z</time>
      </trkpt>
      <trkpt lat="50.12004" lon="8.81149">
        <ele>153.167133</ele>
        <time>2023-07-03T09:38:15.664Z</time>
      </trkpt>
      <trkpt lat="50.12006" lon="8.81165">
        <ele>153.246093</ele>
        <time>2023-07-03T09:38:17.664Z</time>
      </trkpt>
      <trkpt lat="50.12007" lon="8.81182">
        <ele>153.329457</ele>
        <time>2023-07-03T09:38:19.652Z</time>
      </trkpt>
      <trkpt lat="50.12009" lon="8.81198">
        <ele>153.412589</ele>
        <time>2023-07-03T09:38:21.664Z</time>
      </trkpt>
      <trkpt lat="50.1201" lon="8.81214">
        <ele>153.491414</ele>
        <time>2023-07-03T09:38:23.651Z</time>
      </trkpt>
      <trkpt lat="50.12012" lon="8.81231">
        <ele>153.570492</ele>
        <time>2023-07-03T09:38:25.649Z</time>
      </trkpt>
      <trkpt lat="50.12012" lon="8.81247">
        <ele>153.650156</ele>
        <time>2023-07-03T09:38:27.653Z</time>
      </trkpt>
      <trkpt lat="50.12013" lon="8.81264">
        <ele>153.732936</ele>
        <time>2023-07-03T09:38:29.655Z</time>
      </trkpt>
      <trkpt lat="50.12015" lon="8.81281">
        <ele>153.817042</ele>
        <time>2023-07-03T09:38:31.656Z</time>
      </trkpt>
      <trkpt lat="50.12018" lon="8.81296">
        <ele>153.895517</ele>
        <time>2023-07-03T09:38:33.659Z</time>
      </trkpt>
      <trkpt lat="50.12019" lon="8.81312">
        <ele>153.97058</ele>
        <time>2023-07-03T09:38:35.657Z</time>
      </trkpt>
      <trkpt lat="50.12021" lon="8.81327">
        <ele>154.046969</ele>
        <time>2023-07-03T09:38:37.659Z</time>
      </trkpt>
      <trkpt lat="50.12022" lon="8.81343">
        <ele>154.125724</ele>
        <time>2023-07-03T09:38:39.654Z</time>
      </trkpt>
      <trkpt lat="50.12022" lon="8.8136">
        <ele>154.206221</ele>
        <time>2023-07-03T09:38:41.650Z</time>
      </trkpt>
      <trkpt lat="50.12024" lon="8.81377">
        <ele>154.287233</ele>
        <time>2023-07-03T09:38:43.658Z</time>
      </trkpt>
      <trkpt lat="50.12025" lon="8.81393">
        <ele>154.31087</ele>
        <time>2023-07-03T09:38:45.658Z</time>
      </trkpt>
      <trkpt lat="50.12028" lon="8.81409">
        <ele>154.335438</ele>
        <time>2023-07-03T09:38:47.673Z</time>
      </trkpt>
      <trkpt lat="50.12029" lon="8.81425">
        <ele>154.360068</ele>
        <time>2023-07-03T09:38:49.664Z</time>
      </trkpt>
      <trkpt lat="50.12031" lon="8.81441">
        <ele>154.383591</ele>
        <time>2023-07-03T09:38:51.656Z</time>
      </trkpt>
      <trkpt lat="50.12032" lon="8.81457">
        <ele>154.407374</ele>
        <time>2023-07-03T09:38:53.657Z</time>
      </trkpt>
      <trkpt lat="50.12033" lon="8.81474">
        <ele>154.432392</ele>
        <time>2023-07-03T09:38:55.657Z</time>
      </trkpt>
      <trkpt lat="50.12033" lon="8.8149">
        <ele>154.456545</ele>
        <time>2023-07-03T09:38:57.641Z</time>
      </trkpt>
      <trkpt lat="50.12035" lon="8.81507">
        <ele>154.481815</ele>
        <time>2023-07-03T09:38:59.640Z</time>
      </trkpt>
      <trkpt lat="50.12037" lon="8.81524">
        <ele>154.507125</ele>
        <time>2023-07-03T09:39:01.639Z</time>
      </trkpt>
      <trkpt lat="50.12039" lon="8.81541">
        <ele>154.532001</ele>
        <time>2023-07-03T09:39:03.652Z</time>
      </trkpt>
      <trkpt lat="50.1204" lon="8.81557">
        <ele>154.555196</ele>
        <time>2023-07-03T09:39:05.653Z</time>
      </trkpt>
      <trkpt lat="50.12042" lon="8.81572">
        <ele>154.578626</ele>
        <time>2023-07-03T09:39:07.656Z</time>
      </trkpt>
      <trkpt lat="50.12044" lon="8.81588">
        <ele>154.602841</ele>
        <time>2023-07-03T09:39:09.653Z</time>
      </trkpt>
      <trkpt lat="50.12045" lon="8.81605">
        <ele>154.62769</ele>
        <time>2023-07-03T09:39:11.654Z</time>
      </trkpt>
      <trkpt lat="50.12046" lon="8.81622">
        <ele>154.652415</ele>
        <time>2023-07-03T09:39:13.655Z</time>
      </trkpt>
      <trkpt lat="50.12047" lon="8.81639">
        <ele>154.677922</ele>
        <time>2023-07-03T09:39:15.652Z</time>
      </trkpt>
      <trkpt lat="50.12049" lon="8.81656">
        <ele>154.671086</ele>
        <time>2023-07-03T09:39:17.665Z</time>
      </trkpt>
      <trkpt lat="50.12051" lon="8.81674">
        <ele>154.513863</ele>
        <time>2023-07-03T09:39:19.638Z</time>
      </trkpt>
      <trkpt lat="50.12052" lon="8.81693">
        <ele>154.350786</ele>
        <time>2023-07-03T09:39:21.636Z</time>
      </trkpt>
      <trkpt lat="50.12053" lon="8.81712">
        <ele>154.186846</ele>
        <time>2023-07-03T09:39:23.670Z</time>
      </trkpt>
      <trkpt lat="50.12054" lon="8.81731">
        <ele>154.020756</ele>
        <time>2023-07-03T09:39:25.655Z</time>
      </trkpt>
      <trkpt lat="50.12056" lon="8.81749">
        <ele>153.85967</ele>
        <time>2023-07-03T09:39:27.672Z</time>
      </trkpt>
      <trkpt lat="50.12058" lon="8.81769">
        <ele>153.687237</ele>
        <time>2023-07-03T09:39:29.658Z</time>
      </trkpt>
      <trkpt lat="50.1206" lon="8.81788">
        <ele>153.522012</ele>
        <time>2023-07-03T09:39:31.667Z</time>
      </trkpt>
      <trkpt lat="50.12062" lon="8.81806">
        <ele>153.364327</ele>
        <time>2023-07-03T09:39:33.661Z</time>
      </trkpt>
      <trkpt lat="50.12064" lon="8.81822">
        <ele>153.214413</ele>
        <time>2023-07-03T09:39:35.671Z</time>
      </trkpt>
      <trkpt lat="50.12063" lon="8.81839">
        <ele>153.068409</ele>
        <time>2023-07-03T09:39:37.652Z</time>
      </trkpt>
      <trkpt lat="50.12065" lon="8.81856">
        <ele>152.919141</ele>
        <time>2023-07-03T09:39:39.667Z</time>
      </trkpt>
      <trkpt lat="50.12065" lon="8.81872">
        <ele>152.7792</ele>
        <time>2023-07-03T09:39:41.650Z</time>
      </trkpt>
      <trkpt lat="50.12066" lon="8.81888">
        <ele>152.640906</ele>
        <time>2023-07-03T09:39:43.672Z</time>
      </trkpt>
      <trkpt lat="50.12067" lon="8.81904">
        <ele>152.499923</ele>
        <time>2023-07-03T09:39:45.669Z</time>
      </trkpt>
      <trkpt lat="50.12069" lon="8.8192">
        <ele>152.366475</ele>
        <time>2023-07-03T09:39:47.671Z</time>
      </trkpt>
      <trkpt lat="50.12071" lon="8.81934">
        <ele>152.275048</ele>
        <time>2023-07-03T09:39:49.644Z</time>
      </trkpt>
      <trkpt lat="50.12075" lon="8.8195">
        <ele>152.338305</ele>
        <time>2023-07-03T09:39:52.672Z</time>
      </trkpt>
      <trkpt lat="50.12079" lon="8.81964">
        <ele>152.39815</ele>
        <time>2023-07-03T09:39:57.649Z</time>
      </trkpt>
      <trkpt lat="50.12075" lon="8.81977">
        <ele>152.452469</ele>
        <time>2023-07-03T09:40:05.667Z</time>
      </trkpt>
      <trkpt lat="50.12067" lon="8.81985">
        <ele>152.50885</ele>
        <time>2023-07-03T09:40:09.654Z</time>
      </trkpt>
      <trkpt lat="50.1206" lon="8.81999">
        <ele>152.573676</ele>
        <time>2023-07-03T09:40:13.648Z</time>
      </trkpt>
      <trkpt lat="50.12054" lon="8.82016">
        <ele>152.647287</ele>
        <time>2023-07-03T09:40:16.709Z</time>
      </trkpt>
      <trkpt lat="50.12052" lon="8.82037">
        <ele>152.723906</ele>
        <time>2023-07-03T09:40:19.657Z</time>
      </trkpt>
      <trkpt lat="50.12051" lon="8.82056">
        <ele>152.796062</ele>
        <time>2023-07-03T09:40:22.673Z</time>
      </trkpt>
      <trkpt lat="50.12049" lon="8.82074">
        <ele>152.865333</ele>
        <time>2023-07-03T09:40:25.663Z</time>
      </trkpt>
      <trkpt lat="50.12044" lon="8.82092">
        <ele>152.936913</ele>
        <time>2023-07-03T09:40:28.649Z</time>
      </trkpt>
      <trkpt lat="50.1204" lon="8.82109">
        <ele>153.004469</ele>
        <time>2023-07-03T09:40:31.659Z</time>
      </trkpt>
      <trkpt lat="50.12037" lon="8.82126">
        <ele>153.072676</ele>
        <time>2023-07-03T09:40:34.655Z</time>
      </trkpt>
      <trkpt lat="50.12032" lon="8.82142">
        <ele>153.137053</ele>
        <time>2023-07-03T09:40:37.668Z</time>
      </trkpt>
      <trkpt lat="50.12028" lon="8.82159">
        <ele>153.20286</ele>
        <time>2023-07-03T09:40:40.678Z</time>
      </trkpt>
      <trkpt lat="50.12025" lon="8.82177">
        <ele>153.272184</ele>
        <time>2023-07-03T09:40:43.678Z</time>
      </trkpt>
      <trkpt lat="50.12021" lon="8.82193">
        <ele>153.298311</ele>
        <time>2023-07-03T09:40:46.665Z</time>
      </trkpt>
      <trkpt lat="50.12017" lon="8.82212">
        <ele>153.261487</ele>
        <time>2023-07-03T09:40:49.636Z</time>
      </trkpt>
      <trkpt lat="50.12014" lon="8.82231">
        <ele>153.224207</ele>
        <time>2023-07-03T09:40:52.677Z</time>
      </trkpt>
      <trkpt lat="50.1201" lon="8.8225">
        <ele>153.186848</ele>
        <time>2023-07-03T09:40:55.647Z</time>
      </trkpt>
      <trkpt lat="50.12006" lon="8.82269">
        <ele>153.149186</ele>
        <time>2023-07-03T09:40:58.668Z</time>
      </trkpt>
      <trkpt lat="50.12003" lon="8.8229">
        <ele>153.109846</ele>
        <time>2023-07-03T09:41:01.646Z</time>
      </trkpt>
      <trkpt lat="50.12" lon="8.82308">
        <ele>153.073314</ele>
        <time>2023-07-03T09:41:04.659Z</time>
      </trkpt>
      <trkpt lat="50.11997" lon="8.82325">
        <ele>153.041917</ele>
        <time>2023-07-03T09:41:07.675Z</time>
      </trkpt>
      <trkpt lat="50.11995" lon="8.8234">
        <ele>153.011758</ele>
        <time>2023-07-03T09:41:10.651Z</time>
      </trkpt>
      <trkpt lat="50.11993" lon="8.82355">
        <ele>152.984669</ele>
        <time>2023-07-03T09:41:13.655Z</time>
      </trkpt>
      <trkpt lat="50.11991" lon="8.82371">
        <ele>152.95267</ele>
        <time>2023-07-03T09:41:17.654Z</time>
      </trkpt>
      <trkpt lat="50.11988" lon="8.82386">
        <ele>152.924312</ele>
        <time>2023-07-03T09:41:22.659Z</time>
      </trkpt>
      <trkpt lat="50.11984" lon="8.82401">
        <ele>152.894109</ele>
        <time>2023-07-03T09:41:39.644Z</time>
      </trkpt>
      <trkpt lat="50.11996" lon="8.8241">
        <ele>152.85627</ele>
        <time>2023-07-03T09:42:09.636Z</time>
      </trkpt>
      <trkpt lat="50.12009" lon="8.82411">
        <ele>152.817973</ele>
        <time>2023-07-03T09:42:13.656Z</time>
      </trkpt>
      <trkpt lat="50.12017" lon="8.82416">
        <ele>152.79141</ele>
        <time>2023-07-03T09:42:15.649Z</time>
      </trkpt>
      <trkpt lat="50.12028" lon="8.82425">
        <ele>152.752445</ele>
        <time>2023-07-03T09:42:18.704Z</time>
      </trkpt>
      <trkpt lat="50.1204" lon="8.82433">
        <ele>152.707614</ele>
        <time>2023-07-03T09:42:21.640Z</time>
      </trkpt>
      <trkpt lat="50.12049" lon="8.82438">
        <ele>152.677312</ele>
        <time>2023-07-03T09:42:23.654Z</time>
      </trkpt>
      <trkpt lat="50.12058" lon="8.82444">
        <ele>152.644019</ele>
        <time>2023-07-03T09:42:25.650Z</time>
      </trkpt>
      <trkpt lat="50.12068" lon="8.8245">
        <ele>152.611667</ele>
        <time>2023-07-03T09:42:27.656Z</time>
      </trkpt>
      <trkpt lat="50.12077" lon="8.82456">
        <ele>152.578779</ele>
        <time>2023-07-03T09:42:29.651Z</time>
      </trkpt>
      <trkpt lat="50.12086" lon="8.82461">
        <ele>152.54765</ele>
        <time>2023-07-03T09:42:31.662Z</time>
      </trkpt>
      <trkpt lat="50.12094" lon="8.82468">
        <ele>152.517544</ele>
        <time>2023-07-03T09:42:33.666Z</time>
      </trkpt>
      <trkpt lat="50.12102" lon="8.82474">
        <ele>152.486908</ele>
        <time>2023-07-03T09:42:35.671Z</time>
      </trkpt>
      <trkpt lat="50.12114" lon="8.82483">
        <ele>152.443777</ele>
        <time>2023-07-03T09:42:38.677Z</time>
      </trkpt>
      <trkpt lat="50.12118" lon="8.82501">
        <ele>152.402674</ele>
        <time>2023-07-03T09:42:41.650Z</time>
      </trkpt>
      <trkpt lat="50.12116" lon="8.82515">
        <ele>152.372247</ele>
        <time>2023-07-03T09:42:43.647Z</time>
      </trkpt>
      <trkpt lat="50.12114" lon="8.82531">
        <ele>152.340026</ele>
        <time>2023-07-03T09:42:45.653Z</time>
      </trkpt>
      <trkpt lat="50.12114" lon="8.82545">
        <ele>152.309645</ele>
        <time>2023-07-03T09:42:47.652Z</time>
      </trkpt>
      <trkpt lat="50.12114" lon="8.82559">
        <ele>152.279734</ele>
        <time>2023-07-03T09:42:49.672Z</time>
      </trkpt>
      <trkpt lat="50.12115" lon="8.82574">
        <ele>152.248674</ele>
        <time>2023-07-03T09:42:51.659Z</time>
      </trkpt>
      <trkpt lat="50.12115" lon="8.82589">
        <ele>152.216869</ele>
        <time>2023-07-03T09:42:53.657Z</time>
      </trkpt>
      <trkpt lat="50.12115" lon="8.82605">
        <ele>152.143644</ele>
        <time>2023-07-03T09:42:55.645Z</time>
      </trkpt>
      <trkpt lat="50.12115" lon="8.82622">
        <ele>151.992435</ele>
        <time>2023-07-03T09:42:57.674Z</time>
      </trkpt>
      <trkpt lat="50.12116" lon="8.82638">
        <ele>151.841805</ele>
        <time>2023-07-03T09:42:59.666Z</time>
      </trkpt>
      <trkpt lat="50.12116" lon="8.82656">
        <ele>151.685868</ele>
        <time>2023-07-03T09:43:01.646Z</time>
      </trkpt>
      <trkpt lat="50.12118" lon="8.82675">
        <ele>151.511681</ele>
        <time>2023-07-03T09:43:03.656Z</time>
      </trkpt>
      <trkpt lat="50.1212" lon="8.82694">
        <ele>151.340595</ele>
        <time>2023-07-03T09:43:05.662Z</time>
      </trkpt>
      <trkpt lat="50.12121" lon="8.82713">
        <ele>151.169907</ele>
        <time>2023-07-03T09:43:07.660Z</time>
      </trkpt>
      <trkpt lat="50.12122" lon="8.82732">
        <ele>150.996536</ele>
        <time>2023-07-03T09:43:09.655Z</time>
      </trkpt>
      <trkpt lat="50.12124" lon="8.82751">
        <ele>150.82079</ele>
        <time>2023-07-03T09:43:11.687Z</time>
      </trkpt>
      <trkpt lat="50.12126" lon="8.8277">
        <ele>150.647924</ele>
        <time>2023-07-03T09:43:13.659Z</time>
      </trkpt>
      <trkpt lat="50.1213" lon="8.82787">
        <ele>150.483949</ele>
        <time>2023-07-03T09:43:15.644Z</time>
      </trkpt>
      <trkpt lat="50.12136" lon="8.82803">
        <ele>150.313367</ele>
        <time>2023-07-03T09:43:17.665Z</time>
      </trkpt>
      <trkpt lat="50.12143" lon="8.82819">
        <ele>150.138166</ele>
        <time>2023-07-03T09:43:19.654Z</time>
      </trkpt>
      <trkpt lat="50.12152" lon="8.82835">
        <ele>149.954356</ele>
        <time>2023-07-03T09:43:21.654Z</time>
      </trkpt>
      <trkpt lat="50.1216" lon="8.82848">
        <ele>149.787846</ele>
        <time>2023-07-03T09:43:23.669Z</time>
      </trkpt>
      <trkpt lat="50.12169" lon="8.82861">
        <ele>149.64701</ele>
        <time>2023-07-03T09:43:25.642Z</time>
      </trkpt>
      <trkpt lat="50.12178" lon="8.82872">
        <ele>149.572805</ele>
        <time>2023-07-03T09:43:27.664Z</time>
      </trkpt>
      <trkpt lat="50.12187" lon="8.82883">
        <ele>149.497563</ele>
        <time>2023-07-03T09:43:29.647Z</time>
      </trkpt>
      <trkpt lat="50.12196" lon="8.82895">
        <ele>149.419708</ele>
        <time>2023-07-03T09:43:31.653Z</time>
      </trkpt>
      <trkpt lat="50.12204" lon="8.82907">
        <ele>149.344804</ele>
        <time>2023-07-03T09:43:33.676Z</time>
      </trkpt>
      <trkpt lat="50.12213" lon="8.82921">
        <ele>149.267059</ele>
        <time>2023-07-03T09:43:35.656Z</time>
      </trkpt>
      <trkpt lat="50.1222" lon="8.82936">
        <ele>149.188622</ele>
        <time>2023-07-03T09:43:37.662Z</time>
      </trkpt>
      <trkpt lat="50.12226" lon="8.82951">
        <ele>149.111701</ele>
        <time>2023-07-03T09:43:39.649Z</time>
      </trkpt>
      <trkpt lat="50.12231" lon="8.82968">
        <ele>149.033246</ele>
        <time>2023-07-03T09:43:41.648Z</time>
      </trkpt>
      <trkpt lat="50.12237" lon="8.82986">
        <ele>148.948893</ele>
        <time>2023-07-03T09:43:43.670Z</time>
      </trkpt>
      <trkpt lat="50.12241" lon="8.83005">
        <ele>148.867297</ele>
        <time>2023-07-03T09:43:45.672Z</time>
      </trkpt>
      <trkpt lat="50.12243" lon="8.83024">
        <ele>148.782913</ele>
        <time>2023-07-03T09:43:47.651Z</time>
      </trkpt>
      <trkpt lat="50.12245" lon="8.83044">
        <ele>148.700791</ele>
        <time>2023-07-03T09:43:49.642Z</time>
      </trkpt>
      <trkpt lat="50.12246" lon="8.83062">
        <ele>148.624746</ele>
        <time>2023-07-03T09:43:51.639Z</time>
      </trkpt>
      <trkpt lat="50.12246" lon="8.83081">
        <ele>148.546391</ele>
        <time>2023-07-03T09:43:53.678Z</time>
      </trkpt>
      <trkpt lat="50.12245" lon="8.831">
        <ele>148.513925</ele>
        <time>2023-07-03T09:43:55.671Z</time>
      </trkpt>
      <trkpt lat="50.12243" lon="8.83118">
        <ele>148.562148</ele>
        <time>2023-07-03T09:43:57.652Z</time>
      </trkpt>
      <trkpt lat="50.12241" lon="8.83135">
        <ele>148.608986</ele>
        <time>2023-07-03T09:43:59.652Z</time>
      </trkpt>
      <trkpt lat="50.12237" lon="8.83152">
        <ele>148.654836</ele>
        <time>2023-07-03T09:44:01.646Z</time>
      </trkpt>
      <trkpt lat="50.12233" lon="8.83168">
        <ele>148.701947</ele>
        <time>2023-07-03T09:44:03.636Z</time>
      </trkpt>
      <trkpt lat="50.12229" lon="8.83184">
        <ele>148.7467</ele>
        <time>2023-07-03T09:44:05.665Z</time>
      </trkpt>
      <trkpt lat="50.12224" lon="8.83199">
        <ele>148.79086</ele>
        <time>2023-07-03T09:44:07.649Z</time>
      </trkpt>
      <trkpt lat="50.12221" lon="8.83215">
        <ele>148.834878</ele>
        <time>2023-07-03T09:44:09.653Z</time>
      </trkpt>
      <trkpt lat="50.12219" lon="8.83229">
        <ele>148.873721</ele>
        <time>2023-07-03T09:44:11.649Z</time>
      </trkpt>
      <trkpt lat="50.12217" lon="8.83245">
        <ele>148.916881</ele>
        <time>2023-07-03T09:44:13.656Z</time>
      </trkpt>
      <trkpt lat="50.12217" lon="8.83261">
        <ele>148.95841</ele>
        <time>2023-07-03T09:44:15.651Z</time>
      </trkpt>
      <trkpt lat="50.12218" lon="8.83276">
        <ele>148.999922</ele>
        <time>2023-07-03T09:44:17.637Z</time>
      </trkpt>
      <trkpt lat="50.1222" lon="8.83291">
        <ele>149.040533</ele>
        <time>2023-07-03T09:44:19.714Z</time>
      </trkpt>
      <trkpt lat="50.12224" lon="8.83312">
        <ele>149.097231</ele>
        <time>2023-07-03T09:44:22.665Z</time>
      </trkpt>
      <trkpt lat="50.12226" lon="8.83328">
        <ele>149.138694</ele>
        <time>2023-07-03T09:44:24.658Z</time>
      </trkpt>
      <trkpt lat="50.12228" lon="8.83343">
        <ele>149.180871</ele>
        <time>2023-07-03T09:44:26.643Z</time>
      </trkpt>
      <trkpt lat="50.1223" lon="8.83359">
        <ele>149.223652</ele>
        <time>2023-07-03T09:44:28.683Z</time>
      </trkpt>
      <trkpt lat="50.12232" lon="8.83375">
        <ele>149.28765</ele>
        <time>2023-07-03T09:44:30.681Z</time>
      </trkpt>
      <trkpt lat="50.12234" lon="8.83392">
        <ele>149.361826</ele>
        <time>2023-07-03T09:44:32.653Z</time>
      </trkpt>
      <trkpt lat="50.12236" lon="8.83408">
        <ele>149.43372</ele>
        <time>2023-07-03T09:44:34.657Z</time>
      </trkpt>
      <trkpt lat="50.12238" lon="8.83423">
        <ele>149.502892</ele>
        <time>2023-07-03T09:44:36.652Z</time>
      </trkpt>
      <trkpt lat="50.1224" lon="8.83439">
        <ele>149.572625</ele>
        <time>2023-07-03T09:44:38.755Z</time>
      </trkpt>
      <trkpt lat="50.12242" lon="8.83455">
        <ele>149.644281</ele>
        <time>2023-07-03T09:44:40.660Z</time>
      </trkpt>
      <trkpt lat="50.12244" lon="8.8347">
        <ele>149.711492</ele>
        <time>2023-07-03T09:44:42.662Z</time>
      </trkpt>
      <trkpt lat="50.12246" lon="8.83486">
        <ele>149.782702</ele>
        <time>2023-07-03T09:44:44.658Z</time>
      </trkpt>
      <trkpt lat="50.12248" lon="8.83502">
        <ele>149.853058</ele>
        <time>2023-07-03T09:44:46.673Z</time>
      </trkpt>
      <trkpt lat="50.12247" lon="8.83517">
        <ele>149.923098</ele>
        <time>2023-07-03T09:44:48.667Z</time>
      </trkpt>
      <trkpt lat="50.1225" lon="8.83533">
        <ele>149.995694</ele>
        <time>2023-07-03T09:44:50.667Z</time>
      </trkpt>
      <trkpt lat="50.12252" lon="8.8355">
        <ele>150.069139</ele>
        <time>2023-07-03T09:44:52.653Z</time>
      </trkpt>
      <trkpt lat="50.12255" lon="8.83565">
        <ele>150.138579</ele>
        <time>2023-07-03T09:44:54.672Z</time>
      </trkpt>
      <trkpt lat="50.12257" lon="8.83581">
        <ele>150.209458</ele>
        <time>2023-07-03T09:44:56.651Z</time>
      </trkpt>
      <trkpt lat="50.12258" lon="8.83596">
        <ele>150.276713</ele>
        <time>2023-07-03T09:44:58.662Z</time>
      </trkpt>
      <trkpt lat="50.12259" lon="8.83611">
        <ele>150.34506</ele>
        <time>2023-07-03T09:45:00.658Z</time>
      </trkpt>
      <trkpt lat="50.12261" lon="8.83626">
        <ele>150.409889</ele>
        <time>2023-07-03T09:45:02.656Z</time>
      </trkpt>
      <trkpt lat="50.12263" lon="8.83644">
        <ele>150.473394</ele>
        <time>2023-07-03T09:45:05.652Z</time>
      </trkpt>
      <trkpt lat="50.12265" lon="8.8366">
        <ele>150.486052</ele>
        <time>2023-07-03T09:45:08.659Z</time>
      </trkpt>
      <trkpt lat="50.12267" lon="8.83677">
        <ele>150.499191</ele>
        <time>2023-07-03T09:45:11.654Z</time>
      </trkpt>
      <trkpt lat="50.1227" lon="8.83696">
        <ele>150.513798</ele>
        <time>2023-07-03T09:45:14.650Z</time>
      </trkpt>
      <trkpt lat="50.12272" lon="8.8371">
        <ele>150.524637</ele>
        <time>2023-07-03T09:45:16.689Z</time>
      </trkpt>
      <trkpt lat="50.12275" lon="8.83731">
        <ele>150.540885</ele>
        <time>2023-07-03T09:45:19.650Z</time>
      </trkpt>
      <trkpt lat="50.12276" lon="8.83745">
        <ele>150.551841</ele>
        <time>2023-07-03T09:45:21.647Z</time>
      </trkpt>
      <trkpt lat="50.12277" lon="8.83759">
        <ele>150.562696</ele>
        <time>2023-07-03T09:45:23.670Z</time>
      </trkpt>
      <trkpt lat="50.12279" lon="8.83779">
        <ele>150.578047</ele>
        <time>2023-07-03T09:45:26.658Z</time>
      </trkpt>
      <trkpt lat="50.12281" lon="8.83794">
        <ele>150.589898</ele>
        <time>2023-07-03T09:45:28.653Z</time>
      </trkpt>
      <trkpt lat="50.12282" lon="8.83808">
        <ele>150.600905</ele>
        <time>2023-07-03T09:45:30.669Z</time>
      </trkpt>
      <trkpt lat="50.12284" lon="8.83824">
        <ele>150.612549</ele>
        <time>2023-07-03T09:45:32.665Z</time>
      </trkpt>
      <trkpt lat="50.12286" lon="8.83838">
        <ele>150.623904</ele>
        <time>2023-07-03T09:45:34.669Z</time>
      </trkpt>
      <trkpt lat="50.12287" lon="8.83852">
        <ele>150.634972</ele>
        <time>2023-07-03T09:45:36.639Z</time>
      </trkpt>
      <trkpt lat="50.12288" lon="8.83866">
        <ele>150.64569</ele>
        <time>2023-07-03T09:45:38.654Z</time>
      </trkpt>
      <trkpt lat="50.12291" lon="8.83886">
        <ele>150.661363</ele>
        <time>2023-07-03T09:45:41.670Z</time>
      </trkpt>
      <trkpt lat="50.12297" lon="8.83898">
        <ele>150.673352</ele>
        <time>2023-07-03T09:45:45.637Z</time>
      </trkpt>
      <trkpt lat="50.12308" lon="8.83902">
        <ele>150.696549</ele>
        <time>2023-07-03T09:45:49.639Z</time>
      </trkpt>
      <trkpt lat="50.12318" lon="8.83897">
        <ele>150.764369</ele>
        <time>2023-07-03T09:45:52.663Z</time>
      </trkpt>
      <trkpt lat="50.12328" lon="8.83893">
        <ele>150.827572</ele>
        <time>2023-07-03T09:45:55.745Z</time>
      </trkpt>
      <trkpt lat="50.12338" lon="8.83889">
        <ele>150.892676</ele>
        <time>2023-07-03T09:45:58.668Z</time>
      </trkpt>
      <trkpt lat="50.1235" lon="8.83885">
        <ele>150.9693</ele>
        <time>2023-07-03T09:46:01.660Z</time>
      </trkpt>
      <trkpt lat="50.12362" lon="8.83891">
        <ele>151.046354</ele>
        <time>2023-07-03T09:46:04.655Z</time>
      </trkpt>
      <trkpt lat="50.12364" lon="8.83911">
        <ele>151.129503</ele>
        <time>2023-07-03T09:46:07.644Z</time>
      </trkpt>
      <trkpt lat="50.12363" lon="8.83926">
        <ele>151.18962</ele>
        <time>2023-07-03T09:46:09.666Z</time>
      </trkpt>
      <trkpt lat="50.12363" lon="8.83941">
        <ele>151.246951</ele>
        <time>2023-07-03T09:46:11.649Z</time>
      </trkpt>
      <trkpt lat="50.12365" lon="8.83955">
        <ele>151.304235</ele>
        <time>2023-07-03T09:46:13.651Z</time>
      </trkpt>
      <trkpt lat="50.12364" lon="8.8397">
        <ele>151.36397</ele>
        <time>2023-07-03T09:46:15.634Z</time>
      </trkpt>
      <trkpt lat="50.12365" lon="8.83985">
        <ele>151.422485</ele>
        <time>2023-07-03T09:46:17.664Z</time>
      </trkpt>
      <trkpt lat="50.12364" lon="8.84">
        <ele>151.482272</ele>
        <time>2023-07-03T09:46:19.655Z</time>
      </trkpt>
      <trkpt lat="50.12363" lon="8.84015">
        <ele>151.541842</ele>
        <time>2023-07-03T09:46:21.655Z</time>
      </trkpt>
      <trkpt lat="50.12363" lon="8.8403">
        <ele>151.604446</ele>
        <time>2023-07-03T09:46:23.646Z</time>
      </trkpt>
      <trkpt lat="50.12362" lon="8.84046">
        <ele>151.666552</ele>
        <time>2023-07-03T09:46:25.654Z</time>
      </trkpt>
      <trkpt lat="50.12362" lon="8.84062">
        <ele>151.729639</ele>
        <time>2023-07-03T09:46:27.655Z</time>
      </trkpt>
      <trkpt lat="50.12361" lon="8.84078">
        <ele>151.793003</ele>
        <time>2023-07-03T09:46:29.653Z</time>
      </trkpt>
      <trkpt lat="50.1236" lon="8.84094">
        <ele>151.802937</ele>
        <time>2023-07-03T09:46:31.648Z</time>
      </trkpt>
      <trkpt lat="50.12358" lon="8.84112">
        <ele>151.80601</ele>
        <time>2023-07-03T09:46:33.656Z</time>
      </trkpt>
      <trkpt lat="50.12357" lon="8.84129">
        <ele>151.809042</ele>
        <time>2023-07-03T09:46:35.675Z</time>
      </trkpt>
      <trkpt lat="50.12355" lon="8.84146">
        <ele>151.812008</ele>
        <time>2023-07-03T09:46:37.649Z</time>
      </trkpt>
      <trkpt lat="50.12353" lon="8.84163">
        <ele>151.814979</ele>
        <time>2023-07-03T09:46:39.668Z</time>
      </trkpt>
      <trkpt lat="50.12351" lon="8.84181">
        <ele>151.81803</ele>
        <time>2023-07-03T09:46:41.651Z</time>
      </trkpt>
      <trkpt lat="50.12349" lon="8.84198">
        <ele>151.821057</ele>
        <time>2023-07-03T09:46:43.674Z</time>
      </trkpt>
      <trkpt lat="50.12347" lon="8.84214">
        <ele>151.823949</ele>
        <time>2023-07-03T09:46:45.657Z</time>
      </trkpt>
      <trkpt lat="50.12345" lon="8.84231">
        <ele>151.826947</ele>
        <time>2023-07-03T09:46:47.655Z</time>
      </trkpt>
      <trkpt lat="50.12343" lon="8.84248">
        <ele>151.829811</ele>
        <time>2023-07-03T09:46:49.662Z</time>
      </trkpt>
      <trkpt lat="50.12341" lon="8.84264">
        <ele>151.832654</ele>
        <time>2023-07-03T09:46:51.655Z</time>
      </trkpt>
      <trkpt lat="50.1234" lon="8.8428">
        <ele>151.835492</ele>
        <time>2023-07-03T09:46:53.654Z</time>
      </trkpt>
      <trkpt lat="50.12338" lon="8.84297">
        <ele>151.838418</ele>
        <time>2023-07-03T09:46:55.653Z</time>
      </trkpt>
      <trkpt lat="50.12336" lon="8.84313">
        <ele>151.841213</ele>
        <time>2023-07-03T09:46:57.653Z</time>
      </trkpt>
      <trkpt lat="50.12334" lon="8.8433">
        <ele>151.8442</ele>
        <time>2023-07-03T09:46:59.659Z</time>
      </trkpt>
      <trkpt lat="50.12331" lon="8.84347">
        <ele>151.847249</ele>
        <time>2023-07-03T09:47:01.673Z</time>
      </trkpt>
      <trkpt lat="50.12329" lon="8.84363">
        <ele>151.85438</ele>
        <time>2023-07-03T09:47:03.676Z</time>
      </trkpt>
      <trkpt lat="50.12326" lon="8.8438">
        <ele>151.865895</ele>
        <time>2023-07-03T09:47:05.657Z</time>
      </trkpt>
      <trkpt lat="50.12324" lon="8.84396">
        <ele>151.876902</ele>
        <time>2023-07-03T09:47:07.664Z</time>
      </trkpt>
      <trkpt lat="50.12323" lon="8.84412">
        <ele>151.887799</ele>
        <time>2023-07-03T09:47:09.654Z</time>
      </trkpt>
      <trkpt lat="50.1232" lon="8.84427">
        <ele>151.898667</ele>
        <time>2023-07-03T09:47:11.644Z</time>
      </trkpt>
      <trkpt lat="50.12317" lon="8.84443">
        <ele>151.909913</ele>
        <time>2023-07-03T09:47:13.666Z</time>
      </trkpt>
      <trkpt lat="50.12313" lon="8.84457">
        <ele>151.920498</ele>
        <time>2023-07-03T09:47:15.678Z</time>
      </trkpt>
      <trkpt lat="50.12309" lon="8.84472">
        <ele>151.931201</ele>
        <time>2023-07-03T09:47:17.665Z</time>
      </trkpt>
      <trkpt lat="50.12306" lon="8.84488">
        <ele>151.942418</ele>
        <time>2023-07-03T09:47:19.654Z</time>
      </trkpt>
      <trkpt lat="50.12304" lon="8.84503">
        <ele>151.953268</ele>
        <time>2023-07-03T09:47:21.662Z</time>
      </trkpt>
      <trkpt lat="50.12301" lon="8.84517">
        <ele>151.963348</ele>
        <time>2023-07-03T09:47:23.657Z</time>
      </trkpt>
      <trkpt lat="50.12299" lon="8.84531">
        <ele>151.973212</ele>
        <time>2023-07-03T09:47:25.657Z</time>
      </trkpt>
      <trkpt lat="50.12296" lon="8.84544">
        <ele>151.982793</ele>
        <time>2023-07-03T09:47:27.660Z</time>
      </trkpt>
      <trkpt lat="50.12293" lon="8.84558">
        <ele>151.992714</ele>
        <time>2023-07-03T09:47:29.653Z</time>
      </trkpt>
      <trkpt lat="50.1229" lon="8.84573">
        <ele>152.003183</ele>
        <time>2023-07-03T09:47:31.665Z</time>
      </trkpt>
      <trkpt lat="50.12287" lon="8.84587">
        <ele>152.013231</ele>
        <time>2023-07-03T09:47:33.656Z</time>
      </trkpt>
      <trkpt lat="50.12285" lon="8.84601">
        <ele>152.023152</ele>
        <time>2023-07-03T09:47:35.648Z</time>
      </trkpt>
      <trkpt lat="50.12283" lon="8.84615">
        <ele>152.032738</ele>
        <time>2023-07-03T09:47:37.652Z</time>
      </trkpt>
      <trkpt lat="50.12281" lon="8.84629">
        <ele>152.05194</ele>
        <time>2023-07-03T09:47:39.649Z</time>
      </trkpt>
      <trkpt lat="50.12278" lon="8.84644">
        <ele>152.092743</ele>
        <time>2023-07-03T09:47:41.664Z</time>
      </trkpt>
      <trkpt lat="50.12276" lon="8.84658">
        <ele>152.131031</ele>
        <time>2023-07-03T09:47:43.654Z</time>
      </trkpt>
      <trkpt lat="50.12274" lon="8.84672">
        <ele>152.169379</ele>
        <time>2023-07-03T09:47:45.672Z</time>
      </trkpt>
      <trkpt lat="50.12272" lon="8.84685">
        <ele>152.207465</ele>
        <time>2023-07-03T09:47:47.656Z</time>
      </trkpt>
      <trkpt lat="50.12269" lon="8.84699">
        <ele>152.245494</ele>
        <time>2023-07-03T09:47:49.640Z</time>
      </trkpt>
      <trkpt lat="50.12269" lon="8.84714">
        <ele>152.285612</ele>
        <time>2023-07-03T09:47:51.651Z</time>
      </trkpt>
      <trkpt lat="50.12267" lon="8.84729">
        <ele>152.325087</ele>
        <time>2023-07-03T09:47:53.645Z</time>
      </trkpt>
      <trkpt lat="50.12266" lon="8.84744">
        <ele>152.366384</ele>
        <time>2023-07-03T09:47:55.664Z</time>
      </trkpt>
      <trkpt lat="50.12265" lon="8.84759">
        <ele>152.406556</ele>
        <time>2023-07-03T09:47:57.645Z</time>
      </trkpt>
      <trkpt lat="50.12264" lon="8.84774">
        <ele>152.448045</ele>
        <time>2023-07-03T09:47:59.650Z</time>
      </trkpt>
      <trkpt lat="50.12263" lon="8.8479">
        <ele>152.490815</ele>
        <time>2023-07-03T09:48:01.654Z</time>
      </trkpt>
      <trkpt lat="50.12262" lon="8.84805">
        <ele>152.532647</ele>
        <time>2023-07-03T09:48:03.662Z</time>
      </trkpt>
      <trkpt lat="50.12261" lon="8.84821">
        <ele>152.575444</ele>
        <time>2023-07-03T09:48:05.641Z</time>
      </trkpt>
      <trkpt lat="50.12261" lon="8.84837">
        <ele>152.618574</ele>
        <time>2023-07-03T09:48:07.656Z</time>
      </trkpt>
      <trkpt lat="50.1226" lon="8.84853">
        <ele>152.659661</ele>
        <time>2023-07-03T09:48:09.666Z</time>
      </trkpt>
      <trkpt lat="50.1226" lon="8.84869">
        <ele>152.70318</ele>
        <time>2023-07-03T09:48:11.660Z</time>
      </trkpt>
      <trkpt lat="50.12261" lon="8.84886">
        <ele>152.748095</ele>
        <time>2023-07-03T09:48:13.665Z</time>
      </trkpt>
      <trkpt lat="50.12262" lon="8.84901">
        <ele>152.789126</ele>
        <time>2023-07-03T09:48:15.642Z</time>
      </trkpt>
      <trkpt lat="50.12262" lon="8.84917">
        <ele>152.95939</ele>
        <time>2023-07-03T09:48:18.666Z</time>
      </trkpt>
      <trkpt lat="50.12262" lon="8.84943">
        <ele>153.250709</ele>
        <time>2023-07-03T09:48:42.655Z</time>
      </trkpt>
      <trkpt lat="50.12262" lon="8.84961">
        <ele>153.455761</ele>
        <time>2023-07-03T09:48:46.663Z</time>
      </trkpt>
      <trkpt lat="50.12263" lon="8.84979">
        <ele>153.653735</ele>
        <time>2023-07-03T09:48:49.656Z</time>
      </trkpt>
      <trkpt lat="50.12265" lon="8.84997">
        <ele>153.857114</ele>
        <time>2023-07-03T09:48:52.662Z</time>
      </trkpt>
      <trkpt lat="50.12266" lon="8.85014">
        <ele>154.054134</ele>
        <time>2023-07-03T09:48:55.658Z</time>
      </trkpt>
      <trkpt lat="50.12268" lon="8.8503">
        <ele>154.230916</ele>
        <time>2023-07-03T09:48:58.658Z</time>
      </trkpt>
      <trkpt lat="50.12269" lon="8.85044">
        <ele>154.390784</ele>
        <time>2023-07-03T09:49:01.653Z</time>
      </trkpt>
      <trkpt lat="50.12272" lon="8.85058">
        <ele>154.557812</ele>
        <time>2023-07-03T09:49:05.645Z</time>
      </trkpt>
      <trkpt lat="50.12273" lon="8.85081">
        <ele>154.817351</ele>
        <time>2023-07-03T09:52:17.664Z</time>
      </trkpt>
      <trkpt lat="50.12278" lon="8.85094">
        <ele>154.98206</ele>
        <time>2023-07-03T09:52:29.710Z</time>
      </trkpt>
      <trkpt lat="50.12278" lon="8.85111">
        <ele>155.17037</ele>
        <time>2023-07-03T09:52:33.652Z</time>
      </trkpt>
      <trkpt lat="50.12278" lon="8.85127">
        <ele>155.353013</ele>
        <time>2023-07-03T09:52:36.652Z</time>
      </trkpt>
      <trkpt lat="50.12278" lon="8.85147">
        <ele>155.57487</ele>
        <time>2023-07-03T09:52:39.653Z</time>
      </trkpt>
      <trkpt lat="50.12278" lon="8.85166">
        <ele>155.786636</ele>
        <time>2023-07-03T09:52:42.655Z</time>
      </trkpt>
      <trkpt lat="50.12277" lon="8.85185">
        <ele>155.923217</ele>
        <time>2023-07-03T09:52:45.632Z</time>
      </trkpt>
      <trkpt lat="50.12277" lon="8.85204">
        <ele>155.873007</ele>
        <time>2023-07-03T09:52:48.676Z</time>
      </trkpt>
      <trkpt lat="50.12277" lon="8.85219">
        <ele>155.836237</ele>
        <time>2023-07-03T09:52:50.656Z</time>
      </trkpt>
      <trkpt lat="50.12277" lon="8.85234">
        <ele>155.799181</ele>
        <time>2023-07-03T09:52:52.654Z</time>
      </trkpt>
      <trkpt lat="50.12276" lon="8.85253">
        <ele>155.748847</ele>
        <time>2023-07-03T09:52:55.655Z</time>
      </trkpt>
      <trkpt lat="50.12275" lon="8.85274">
        <ele>155.695924</ele>
        <time>2023-07-03T09:52:58.660Z</time>
      </trkpt>
      <trkpt lat="50.12274" lon="8.85288">
        <ele>155.660161</ele>
        <time>2023-07-03T09:53:00.660Z</time>
      </trkpt>
      <trkpt lat="50.12275" lon="8.85307">
        <ele>155.61167</ele>
        <time>2023-07-03T09:53:03.655Z</time>
      </trkpt>
      <trkpt lat="50.12275" lon="8.85328">
        <ele>155.559427</ele>
        <time>2023-07-03T09:53:06.682Z</time>
      </trkpt>
      <trkpt lat="50.12274" lon="8.85349">
        <ele>155.506923</ele>
        <time>2023-07-03T09:53:09.656Z</time>
      </trkpt>
      <trkpt lat="50.12274" lon="8.85363">
        <ele>155.470406</ele>
        <time>2023-07-03T09:53:11.638Z</time>
      </trkpt>
      <trkpt lat="50.12273" lon="8.85384">
        <ele>155.418207</ele>
        <time>2023-07-03T09:53:14.656Z</time>
      </trkpt>
      <trkpt lat="50.12273" lon="8.85398">
        <ele>155.380626</ele>
        <time>2023-07-03T09:53:16.646Z</time>
      </trkpt>
      <trkpt lat="50.12273" lon="8.85413">
        <ele>155.343096</ele>
        <time>2023-07-03T09:53:18.659Z</time>
      </trkpt>
      <trkpt lat="50.12272" lon="8.85428">
        <ele>155.305687</ele>
        <time>2023-07-03T09:53:20.661Z</time>
      </trkpt>
      <trkpt lat="50.12272" lon="8.85448">
        <ele>155.254971</ele>
        <time>2023-07-03T09:53:23.655Z</time>
      </trkpt>
      <trkpt lat="50.12272" lon="8.85462">
        <ele>155.235695</ele>
        <time>2023-07-03T09:53:25.789Z</time>
      </trkpt>
      <trkpt lat="50.12272" lon="8.85482">
        <ele>155.318532</ele>
        <time>2023-07-03T09:53:28.664Z</time>
      </trkpt>
      <trkpt lat="50.12271" lon="8.85501">
        <ele>155.396906</ele>
        <time>2023-07-03T09:53:31.656Z</time>
      </trkpt>
      <trkpt lat="50.12271" lon="8.85519">
        <ele>155.47081</ele>
        <time>2023-07-03T09:53:34.664Z</time>
      </trkpt>
      <trkpt lat="50.12282" lon="8.8553">
        <ele>155.556973</ele>
        <time>2023-07-03T09:53:38.655Z</time>
      </trkpt>
      <trkpt lat="50.12294" lon="8.8553">
        <ele>155.634502</ele>
        <time>2023-07-03T09:53:41.663Z</time>
      </trkpt>
      <trkpt lat="50.12306" lon="8.85528">
        <ele>155.715594</ele>
        <time>2023-07-03T09:53:44.679Z</time>
      </trkpt>
      <trkpt lat="50.12317" lon="8.85527">
        <ele>155.781642</ele>
        <time>2023-07-03T09:53:47.658Z</time>
      </trkpt>
      <trkpt lat="50.12327" lon="8.85528">
        <ele>155.846326</ele>
        <time>2023-07-03T09:54:00.659Z</time>
      </trkpt>
      <trkpt lat="50.12338" lon="8.85525">
        <ele>155.920175</ele>
        <time>2023-07-03T09:54:04.640Z</time>
      </trkpt>
      <trkpt lat="50.12349" lon="8.85529">
        <ele>155.992697</ele>
        <time>2023-07-03T09:54:06.655Z</time>
      </trkpt>
      <trkpt lat="50.12359" lon="8.85528">
        <ele>156.05538</ele>
        <time>2023-07-03T09:54:08.667Z</time>
      </trkpt>
      <trkpt lat="50.1237" lon="8.8553">
        <ele>156.127257</ele>
        <time>2023-07-03T09:54:10.672Z</time>
      </trkpt>
      <trkpt lat="50.12383" lon="8.85531">
        <ele>156.210821</ele>
        <time>2023-07-03T09:54:12.663Z</time>
      </trkpt>
      <trkpt lat="50.12395" lon="8.85533">
        <ele>156.293921</ele>
        <time>2023-07-03T09:54:14.658Z</time>
      </trkpt>
      <trkpt lat="50.12408" lon="8.85534">
        <ele>156.376029</ele>
        <time>2023-07-03T09:54:16.664Z</time>
      </trkpt>
      <trkpt lat="50.1242" lon="8.85534">
        <ele>156.032726</ele>
        <time>2023-07-03T09:54:18.660Z</time>
      </trkpt>
      <trkpt lat="50.12434" lon="8.85537">
        <ele>155.556516</ele>
        <time>2023-07-03T09:54:20.665Z</time>
      </trkpt>
      <trkpt lat="50.12448" lon="8.85539">
        <ele>155.066437</ele>
        <time>2023-07-03T09:54:22.664Z</time>
      </trkpt>
      <trkpt lat="50.12459" lon="8.8554">
        <ele>154.681561</ele>
        <time>2023-07-03T09:54:24.674Z</time>
      </trkpt>
      <trkpt lat="50.1247" lon="8.85543">
        <ele>154.310506</ele>
        <time>2023-07-03T09:54:26.649Z</time>
      </trkpt>
      <trkpt lat="50.1248" lon="8.85549">
        <ele>153.934233</ele>
        <time>2023-07-03T09:54:28.673Z</time>
      </trkpt>
      <trkpt lat="50.1249" lon="8.85555">
        <ele>153.589586</ele>
        <time>2023-07-03T09:54:30.655Z</time>
      </trkpt>
      <trkpt lat="50.12499" lon="8.8556">
        <ele>153.252128</ele>
        <time>2023-07-03T09:54:32.655Z</time>
      </trkpt>
      <trkpt lat="50.12509" lon="8.85568">
        <ele>152.87092</ele>
        <time>2023-07-03T09:54:35.661Z</time>
      </trkpt>
      <trkpt lat="50.12517" lon="8.85575">
        <ele>152.545023</ele>
        <time>2023-07-03T09:54:53.655Z</time>
      </trkpt>
      <trkpt lat="50.12526" lon="8.85582">
        <ele>152.187647</ele>
        <time>2023-07-03T09:54:57.657Z</time>
      </trkpt>
      <trkpt lat="50.12534" lon="8.85594">
        <ele>151.810168</ele>
        <time>2023-07-03T09:55:02.663Z</time>
      </trkpt>
      <trkpt lat="50.12544" lon="8.85596">
        <ele>151.475688</ele>
        <time>2023-07-03T09:55:05.644Z</time>
      </trkpt>
      <trkpt lat="50.12555" lon="8.85598">
        <ele>151.109158</ele>
        <time>2023-07-03T09:55:08.653Z</time>
      </trkpt>
      <trkpt lat="50.12564" lon="8.856">
        <ele>150.776683</ele>
        <time>2023-07-03T09:55:10.656Z</time>
      </trkpt>
      <trkpt lat="50.12574" lon="8.85603">
        <ele>150.451949</ele>
        <time>2023-07-03T09:55:12.664Z</time>
      </trkpt>
      <trkpt lat="50.12586" lon="8.85606">
        <ele>150.199367</ele>
        <time>2023-07-03T09:55:15.659Z</time>
      </trkpt>
      <trkpt lat="50.12596" lon="8.85611">
        <ele>150.172565</ele>
        <time>2023-07-03T09:55:18.649Z</time>
      </trkpt>
      <trkpt lat="50.12606" lon="8.85615">
        <ele>150.14652</ele>
        <time>2023-07-03T09:55:22.691Z</time>
      </trkpt>
      <trkpt lat="50.12616" lon="8.85619">
        <ele>150.120061</ele>
        <time>2023-07-03T09:55:26.644Z</time>
      </trkpt>
      <trkpt lat="50.12618" lon="8.85637">
        <ele>150.090995</ele>
        <time>2023-07-03T09:55:29.651Z</time>
      </trkpt>
      <trkpt lat="50.12617" lon="8.85651">
        <ele>150.068379</ele>
        <time>2023-07-03T09:55:31.647Z</time>
      </trkpt>
      <trkpt lat="50.12614" lon="8.85665">
        <ele>150.044921</ele>
        <time>2023-07-03T09:55:33.657Z</time>
      </trkpt>
      <trkpt lat="50.1261" lon="8.85679">
        <ele>150.01946</ele>
        <time>2023-07-03T09:55:35.676Z</time>
      </trkpt>
      <trkpt lat="50.12606" lon="8.85694">
        <ele>149.993409</ele>
        <time>2023-07-03T09:55:37.649Z</time>
      </trkpt>
      <trkpt lat="50.12602" lon="8.85709">
        <ele>149.967568</ele>
        <time>2023-07-03T09:55:39.654Z</time>
      </trkpt>
      <trkpt lat="50.12599" lon="8.85725">
        <ele>149.940193</ele>
        <time>2023-07-03T09:55:41.657Z</time>
      </trkpt>
      <trkpt lat="50.12594" lon="8.85741">
        <ele>149.913205</ele>
        <time>2023-07-03T09:55:43.667Z</time>
      </trkpt>
      <trkpt lat="50.1259" lon="8.85756">
        <ele>149.886015</ele>
        <time>2023-07-03T09:55:45.656Z</time>
      </trkpt>
      <trkpt lat="50.12586" lon="8.85773">
        <ele>149.857985</ele>
        <time>2023-07-03T09:55:47.650Z</time>
      </trkpt>
      <trkpt lat="50.12583" lon="8.85789">
        <ele>149.829861</ele>
        <time>2023-07-03T09:55:49.664Z</time>
      </trkpt>
      <trkpt lat="50.12579" lon="8.85803">
        <ele>149.806218</ele>
        <time>2023-07-03T09:55:51.679Z</time>
      </trkpt>
      <trkpt lat="50.12573" lon="8.85821">
        <ele>149.773164</ele>
        <time>2023-07-03T09:55:54.661Z</time>
      </trkpt>
      <trkpt lat="50.12569" lon="8.85839">
        <ele>149.733845</ele>
        <time>2023-07-03T09:55:57.666Z</time>
      </trkpt>
      <trkpt lat="50.12566" lon="8.85856">
        <ele>149.689786</ele>
        <time>2023-07-03T09:56:00.661Z</time>
      </trkpt>
      <trkpt lat="50.12563" lon="8.85872">
        <ele>149.647544</ele>
        <time>2023-07-03T09:56:03.654Z</time>
      </trkpt>
      <trkpt lat="50.12561" lon="8.85889">
        <ele>149.604184</ele>
        <time>2023-07-03T09:56:06.650Z</time>
      </trkpt>
      <trkpt lat="50.12558" lon="8.85906">
        <ele>149.561797</ele>
        <time>2023-07-03T09:56:09.658Z</time>
      </trkpt>
      <trkpt lat="50.12557" lon="8.85924">
        <ele>149.515051</ele>
        <time>2023-07-03T09:56:12.663Z</time>
      </trkpt>
      <trkpt lat="50.12553" lon="8.85945">
        <ele>149.462003</ele>
        <time>2023-07-03T09:56:15.657Z</time>
      </trkpt>
      <trkpt lat="50.12551" lon="8.85961">
        <ele>149.419699</ele>
        <time>2023-07-03T09:56:17.667Z</time>
      </trkpt>
      <trkpt lat="50.12548" lon="8.85978">
        <ele>149.376074</ele>
        <time>2023-07-03T09:56:19.657Z</time>
      </trkpt>
      <trkpt lat="50.12546" lon="8.85993">
        <ele>149.33771</ele>
        <time>2023-07-03T09:56:21.655Z</time>
      </trkpt>
      <trkpt lat="50.12544" lon="8.86008">
        <ele>149.300078</ele>
        <time>2023-07-03T09:56:23.659Z</time>
      </trkpt>
      <trkpt lat="50.12541" lon="8.86024">
        <ele>149.260266</ele>
        <time>2023-07-03T09:56:25.659Z</time>
      </trkpt>
      <trkpt lat="50.1254" lon="8.8604">
        <ele>149.218999</ele>
        <time>2023-07-03T09:56:27.656Z</time>
      </trkpt>
      <trkpt lat="50.12537" lon="8.86057">
        <ele>149.174501</ele>
        <time>2023-07-03T09:56:29.670Z</time>
      </trkpt>
      <trkpt lat="50.12535" lon="8.86075">
        <ele>149.13057</ele>
        <time>2023-07-03T09:56:31.657Z</time>
      </trkpt>
      <trkpt lat="50.12533" lon="8.86091">
        <ele>149.087615</ele>
        <time>2023-07-03T09:56:33.662Z</time>
      </trkpt>
      <trkpt lat="50.12531" lon="8.86108">
        <ele>149.071098</ele>
        <time>2023-07-03T09:56:35.674Z</time>
      </trkpt>
      <trkpt lat="50.12529" lon="8.86126">
        <ele>149.095219</ele>
        <time>2023-07-03T09:56:37.659Z</time>
      </trkpt>
      <trkpt lat="50.12527" lon="8.86142">
        <ele>149.118358</ele>
        <time>2023-07-03T09:56:39.661Z</time>
      </trkpt>
      <trkpt lat="50.12525" lon="8.8616">
        <ele>149.141843</ele>
        <time>2023-07-03T09:56:41.662Z</time>
      </trkpt>
      <trkpt lat="50.12523" lon="8.86177">
        <ele>149.165228</ele>
        <time>2023-07-03T09:56:43.658Z</time>
      </trkpt>
      <trkpt lat="50.12522" lon="8.86193">
        <ele>149.187527</ele>
        <time>2023-07-03T09:56:45.659Z</time>
      </trkpt>
      <trkpt lat="50.1252" lon="8.86209">
        <ele>149.20928</ele>
        <time>2023-07-03T09:56:47.659Z</time>
      </trkpt>
      <trkpt lat="50.12519" lon="8.86224">
        <ele>149.230136</ele>
        <time>2023-07-03T09:56:49.665Z</time>
      </trkpt>
      <trkpt lat="50.12517" lon="8.86239">
        <ele>149.250429</ele>
        <time>2023-07-03T09:56:51.656Z</time>
      </trkpt>
      <trkpt lat="50.12516" lon="8.86254">
        <ele>149.270989</ele>
        <time>2023-07-03T09:56:53.635Z</time>
      </trkpt>
      <trkpt lat="50.12515" lon="8.86269">
        <ele>149.291475</ele>
        <time>2023-07-03T09:56:55.648Z</time>
      </trkpt>
      <trkpt lat="50.12513" lon="8.86284">
        <ele>149.311406</ele>
        <time>2023-07-03T09:56:57.679Z</time>
      </trkpt>
      <trkpt lat="50.12512" lon="8.86299">
        <ele>149.331757</ele>
        <time>2023-07-03T09:56:59.659Z</time>
      </trkpt>
      <trkpt lat="50.12511" lon="8.86313">
        <ele>149.351096</ele>
        <time>2023-07-03T09:57:01.658Z</time>
      </trkpt>
      <trkpt lat="50.1251" lon="8.86328">
        <ele>149.371158</ele>
        <time>2023-07-03T09:57:03.657Z</time>
      </trkpt>
      <trkpt lat="50.1251" lon="8.86343">
        <ele>149.391857</ele>
        <time>2023-07-03T09:57:05.658Z</time>
      </trkpt>
      <trkpt lat="50.12508" lon="8.86359">
        <ele>149.412768</ele>
        <time>2023-07-03T09:57:07.665Z</time>
      </trkpt>
      <trkpt lat="50.12507" lon="8.86374">
        <ele>149.434193</ele>
        <time>2023-07-03T09:57:09.671Z</time>
      </trkpt>
      <trkpt lat="50.12506" lon="8.8639">
        <ele>149.430514</ele>
        <time>2023-07-03T09:57:11.658Z</time>
      </trkpt>
      <trkpt lat="50.12505" lon="8.86406">
        <ele>149.415329</ele>
        <time>2023-07-03T09:57:13.657Z</time>
      </trkpt>
      <trkpt lat="50.12504" lon="8.86422">
        <ele>149.400415</ele>
        <time>2023-07-03T09:57:15.667Z</time>
      </trkpt>
      <trkpt lat="50.12503" lon="8.86439">
        <ele>149.384122</ele>
        <time>2023-07-03T09:57:17.654Z</time>
      </trkpt>
      <trkpt lat="50.12502" lon="8.86455">
        <ele>149.368316</ele>
        <time>2023-07-03T09:57:19.658Z</time>
      </trkpt>
      <trkpt lat="50.12501" lon="8.86472">
        <ele>149.352292</ele>
        <time>2023-07-03T09:57:21.666Z</time>
      </trkpt>
      <trkpt lat="50.125" lon="8.86489">
        <ele>149.335937</ele>
        <time>2023-07-03T09:57:23.657Z</time>
      </trkpt>
      <trkpt lat="50.12499" lon="8.86507">
        <ele>149.319394</ele>
        <time>2023-07-03T09:57:25.675Z</time>
      </trkpt>
      <trkpt lat="50.12498" lon="8.86524">
        <ele>149.303559</ele>
        <time>2023-07-03T09:57:27.681Z</time>
      </trkpt>
      <trkpt lat="50.12497" lon="8.86541">
        <ele>149.287231</ele>
        <time>2023-07-03T09:57:29.660Z</time>
      </trkpt>
      <trkpt lat="50.12496" lon="8.86557">
        <ele>149.271455</ele>
        <time>2023-07-03T09:57:31.660Z</time>
      </trkpt>
      <trkpt lat="50.12495" lon="8.86574">
        <ele>149.25541</ele>
        <time>2023-07-03T09:57:33.674Z</time>
      </trkpt>
      <trkpt lat="50.12494" lon="8.86591">
        <ele>149.239493</ele>
        <time>2023-07-03T09:57:35.667Z</time>
      </trkpt>
      <trkpt lat="50.12492" lon="8.86607">
        <ele>149.223933</ele>
        <time>2023-07-03T09:57:37.659Z</time>
      </trkpt>
      <trkpt lat="50.12492" lon="8.86623">
        <ele>149.208579</ele>
        <time>2023-07-03T09:57:39.665Z</time>
      </trkpt>
      <trkpt lat="50.12491" lon="8.8664">
        <ele>149.192439</ele>
        <time>2023-07-03T09:57:41.646Z</time>
      </trkpt>
      <trkpt lat="50.1249" lon="8.86657">
        <ele>149.176804</ele>
        <time>2023-07-03T09:57:43.670Z</time>
      </trkpt>
      <trkpt lat="50.12489" lon="8.86674">
        <ele>149.197964</ele>
        <time>2023-07-03T09:57:45.667Z</time>
      </trkpt>
      <trkpt lat="50.12488" lon="8.86691">
        <ele>149.223291</ele>
        <time>2023-07-03T09:57:47.657Z</time>
      </trkpt>
      <trkpt lat="50.12486" lon="8.86708">
        <ele>149.249139</ele>
        <time>2023-07-03T09:57:49.660Z</time>
      </trkpt>
      <trkpt lat="50.12486" lon="8.86725">
        <ele>149.275129</ele>
        <time>2023-07-03T09:57:51.658Z</time>
      </trkpt>
      <trkpt lat="50.12485" lon="8.86743">
        <ele>149.301107</ele>
        <time>2023-07-03T09:57:53.643Z</time>
      </trkpt>
      <trkpt lat="50.12484" lon="8.8676">
        <ele>149.326877</ele>
        <time>2023-07-03T09:57:55.672Z</time>
      </trkpt>
      <trkpt lat="50.12483" lon="8.86777">
        <ele>149.352255</ele>
        <time>2023-07-03T09:57:57.663Z</time>
      </trkpt>
      <trkpt lat="50.12482" lon="8.86794">
        <ele>149.37721</ele>
        <time>2023-07-03T09:57:59.659Z</time>
      </trkpt>
      <trkpt lat="50.12482" lon="8.8681">
        <ele>149.400929</ele>
        <time>2023-07-03T09:58:01.646Z</time>
      </trkpt>
      <trkpt lat="50.12479" lon="8.86825">
        <ele>149.424221</ele>
        <time>2023-07-03T09:58:03.643Z</time>
      </trkpt>
      <trkpt lat="50.12472" lon="8.86837">
        <ele>149.446951</ele>
        <time>2023-07-03T09:58:05.643Z</time>
      </trkpt>
      <trkpt lat="50.12467" lon="8.86848">
        <ele>149.468498</ele>
        <time>2023-07-03T09:58:07.640Z</time>
      </trkpt>
      <trkpt lat="50.12462" lon="8.86868">
        <ele>149.49871</ele>
        <time>2023-07-03T09:58:10.650Z</time>
      </trkpt>
      <trkpt lat="50.12462" lon="8.86883">
        <ele>149.521728</ele>
        <time>2023-07-03T09:58:12.648Z</time>
      </trkpt>
      <trkpt lat="50.12462" lon="8.86898">
        <ele>149.543964</ele>
        <time>2023-07-03T09:58:14.656Z</time>
      </trkpt>
      <trkpt lat="50.12461" lon="8.86914">
        <ele>149.567605</ele>
        <time>2023-07-03T09:58:16.649Z</time>
      </trkpt>
      <trkpt lat="50.12461" lon="8.8693">
        <ele>149.591044</ele>
        <time>2023-07-03T09:58:18.671Z</time>
      </trkpt>
      <trkpt lat="50.1246" lon="8.86946">
        <ele>149.610023</ele>
        <time>2023-07-03T09:58:20.660Z</time>
      </trkpt>
      <trkpt lat="50.12459" lon="8.86962">
        <ele>149.629734</ele>
        <time>2023-07-03T09:58:22.674Z</time>
      </trkpt>
      <trkpt lat="50.12459" lon="8.86978">
        <ele>149.647969</ele>
        <time>2023-07-03T09:58:24.660Z</time>
      </trkpt>
      <trkpt lat="50.12459" lon="8.86992">
        <ele>149.665019</ele>
        <time>2023-07-03T09:58:26.660Z</time>
      </trkpt>
      <trkpt lat="50.1246" lon="8.87013">
        <ele>149.689682</ele>
        <time>2023-07-03T09:58:29.653Z</time>
      </trkpt>
      <trkpt lat="50.12463" lon="8.87028">
        <ele>149.707852</ele>
        <time>2023-07-03T09:58:31.655Z</time>
      </trkpt>
      <trkpt lat="50.12465" lon="8.87044">
        <ele>149.727386</ele>
        <time>2023-07-03T09:58:33.653Z</time>
      </trkpt>
      <trkpt lat="50.12466" lon="8.87062">
        <ele>149.748578</ele>
        <time>2023-07-03T09:58:35.657Z</time>
      </trkpt>
      <trkpt lat="50.12465" lon="8.87077">
        <ele>149.767072</ele>
        <time>2023-07-03T09:58:37.638Z</time>
      </trkpt>
      <trkpt lat="50.12464" lon="8.87092">
        <ele>149.784596</ele>
        <time>2023-07-03T09:58:39.637Z</time>
      </trkpt>
      <trkpt lat="50.12463" lon="8.87108">
        <ele>149.802964</ele>
        <time>2023-07-03T09:58:41.662Z</time>
      </trkpt>
      <trkpt lat="50.12462" lon="8.87125">
        <ele>149.823611</ele>
        <time>2023-07-03T09:58:43.653Z</time>
      </trkpt>
      <trkpt lat="50.1246" lon="8.87141">
        <ele>149.842707</ele>
        <time>2023-07-03T09:58:45.670Z</time>
      </trkpt>
      <trkpt lat="50.12459" lon="8.87157">
        <ele>149.862197</ele>
        <time>2023-07-03T09:58:47.656Z</time>
      </trkpt>
      <trkpt lat="50.12459" lon="8.87175">
        <ele>149.882722</ele>
        <time>2023-07-03T09:58:49.656Z</time>
      </trkpt>
      <trkpt lat="50.12457" lon="8.87191">
        <ele>149.902454</ele>
        <time>2023-07-03T09:58:51.680Z</time>
      </trkpt>
      <trkpt lat="50.12456" lon="8.87208">
        <ele>149.922047</ele>
        <time>2023-07-03T09:58:53.669Z</time>
      </trkpt>
      <trkpt lat="50.12455" lon="8.87223">
        <ele>149.929355</ele>
        <time>2023-07-03T09:58:55.656Z</time>
      </trkpt>
      <trkpt lat="50.12455" lon="8.87238">
        <ele>149.935463</ele>
        <time>2023-07-03T09:58:57.668Z</time>
      </trkpt>
      <trkpt lat="50.12454" lon="8.87257">
        <ele>149.943264</ele>
        <time>2023-07-03T09:59:00.663Z</time>
      </trkpt>
      <trkpt lat="50.12452" lon="8.87271">
        <ele>149.949357</ele>
        <time>2023-07-03T09:59:03.670Z</time>
      </trkpt>
      <trkpt lat="50.12452" lon="8.8729">
        <ele>149.957399</ele>
        <time>2023-07-03T09:59:06.649Z</time>
      </trkpt>
      <trkpt lat="50.12451" lon="8.87305">
        <ele>149.963437</ele>
        <time>2023-07-03T09:59:08.650Z</time>
      </trkpt>
      <trkpt lat="50.1245" lon="8.8732">
        <ele>149.969593</ele>
        <time>2023-07-03T09:59:10.649Z</time>
      </trkpt>
      <trkpt lat="50.12448" lon="8.87336">
        <ele>149.976288</ele>
        <time>2023-07-03T09:59:12.660Z</time>
      </trkpt>
      <trkpt lat="50.12448" lon="8.87352">
        <ele>149.982838</ele>
        <time>2023-07-03T09:59:14.665Z</time>
      </trkpt>
      <trkpt lat="50.12447" lon="8.87367">
        <ele>149.989172</ele>
        <time>2023-07-03T09:59:16.664Z</time>
      </trkpt>
      <trkpt lat="50.12446" lon="8.87382">
        <ele>149.995388</ele>
        <time>2023-07-03T09:59:18.688Z</time>
      </trkpt>
      <trkpt lat="50.12445" lon="8.87397">
        <ele>150.001615</ele>
        <time>2023-07-03T09:59:20.667Z</time>
      </trkpt>
      <trkpt lat="50.12444" lon="8.87413">
        <ele>150.008244</ele>
        <time>2023-07-03T09:59:22.686Z</time>
      </trkpt>
      <trkpt lat="50.12444" lon="8.87428">
        <ele>150.014502</ele>
        <time>2023-07-03T09:59:24.672Z</time>
      </trkpt>
      <trkpt lat="50.12442" lon="8.87442">
        <ele>150.020574</ele>
        <time>2023-07-03T09:59:26.666Z</time>
      </trkpt>
      <trkpt lat="50.12441" lon="8.87458">
        <ele>150.026956</ele>
        <time>2023-07-03T09:59:28.675Z</time>
      </trkpt>
      <trkpt lat="50.1244" lon="8.87474">
        <ele>150.03373</ele>
        <time>2023-07-03T09:59:30.659Z</time>
      </trkpt>
      <trkpt lat="50.1244" lon="8.87489">
        <ele>150.05075</ele>
        <time>2023-07-03T09:59:32.659Z</time>
      </trkpt>
      <trkpt lat="50.12438" lon="8.87506">
        <ele>150.162453</ele>
        <time>2023-07-03T09:59:34.658Z</time>
      </trkpt>
      <trkpt lat="50.12437" lon="8.87523">
        <ele>150.27794</ele>
        <time>2023-07-03T09:59:36.654Z</time>
      </trkpt>
      <trkpt lat="50.12435" lon="8.87539">
        <ele>150.391538</ele>
        <time>2023-07-03T09:59:38.667Z</time>
      </trkpt>
      <trkpt lat="50.12434" lon="8.87556">
        <ele>150.50567</ele>
        <time>2023-07-03T09:59:40.666Z</time>
      </trkpt>
      <trkpt lat="50.12434" lon="8.87572">
        <ele>150.616591</ele>
        <time>2023-07-03T09:59:42.664Z</time>
      </trkpt>
      <trkpt lat="50.12434" lon="8.87588">
        <ele>150.727512</ele>
        <time>2023-07-03T09:59:44.670Z</time>
      </trkpt>
      <trkpt lat="50.12434" lon="8.87604">
        <ele>150.837114</ele>
        <time>2023-07-03T09:59:46.655Z</time>
      </trkpt>
      <trkpt lat="50.12436" lon="8.87621">
        <ele>150.955589</ele>
        <time>2023-07-03T09:59:48.656Z</time>
      </trkpt>
      <trkpt lat="50.12438" lon="8.87639">
        <ele>151.074936</ele>
        <time>2023-07-03T09:59:50.683Z</time>
      </trkpt>
      <trkpt lat="50.12438" lon="8.87657">
        <ele>151.198324</ele>
        <time>2023-07-03T09:59:52.656Z</time>
      </trkpt>
      <trkpt lat="50.12437" lon="8.87675">
        <ele>151.320686</ele>
        <time>2023-07-03T09:59:54.667Z</time>
      </trkpt>
      <trkpt lat="50.12435" lon="8.87692">
        <ele>151.441127</ele>
        <time>2023-07-03T09:59:56.653Z</time>
      </trkpt>
      <trkpt lat="50.12433" lon="8.87711">
        <ele>151.568691</ele>
        <time>2023-07-03T09:59:58.678Z</time>
      </trkpt>
      <trkpt lat="50.12431" lon="8.8773">
        <ele>151.701054</ele>
        <time>2023-07-03T10:00:00.667Z</time>
      </trkpt>
      <trkpt lat="50.1243" lon="8.87748">
        <ele>151.822409</ele>
        <time>2023-07-03T10:00:02.652Z</time>
      </trkpt>
      <trkpt lat="50.12429" lon="8.87765">
        <ele>151.940031</ele>
        <time>2023-07-03T10:00:04.667Z</time>
      </trkpt>
      <trkpt lat="50.12427" lon="8.87779">
        <ele>151.962311</ele>
        <time>2023-07-03T10:00:07.659Z</time>
      </trkpt>
      <trkpt lat="50.12429" lon="8.87795">
        <ele>151.978288</ele>
        <time>2023-07-03T10:03:29.670Z</time>
      </trkpt>
      <trkpt lat="50.12428" lon="8.87811">
        <ele>151.994441</ele>
        <time>2023-07-03T10:03:34.654Z</time>
      </trkpt>
      <trkpt lat="50.12426" lon="8.87828">
        <ele>152.01261</ele>
        <time>2023-07-03T10:03:38.679Z</time>
      </trkpt>
      <trkpt lat="50.12425" lon="8.87844">
        <ele>152.028434</ele>
        <time>2023-07-03T10:03:41.660Z</time>
      </trkpt>
      <trkpt lat="50.12424" lon="8.87863">
        <ele>152.047863</ele>
        <time>2023-07-03T10:03:44.658Z</time>
      </trkpt>
      <trkpt lat="50.12423" lon="8.87883">
        <ele>152.068339</ele>
        <time>2023-07-03T10:03:47.666Z</time>
      </trkpt>
      <trkpt lat="50.12422" lon="8.87901">
        <ele>152.086811</ele>
        <time>2023-07-03T10:03:50.670Z</time>
      </trkpt>
      <trkpt lat="50.12421" lon="8.87921">
        <ele>152.107022</ele>
        <time>2023-07-03T10:03:53.658Z</time>
      </trkpt>
      <trkpt lat="50.1242" lon="8.87941">
        <ele>152.127499</ele>
        <time>2023-07-03T10:03:56.650Z</time>
      </trkpt>
      <trkpt lat="50.12419" lon="8.87961">
        <ele>152.148597</ele>
        <time>2023-07-03T10:03:59.660Z</time>
      </trkpt>
      <trkpt lat="50.12418" lon="8.87982">
        <ele>152.169748</ele>
        <time>2023-07-03T10:04:02.667Z</time>
      </trkpt>
      <trkpt lat="50.12417" lon="8.87997">
        <ele>152.184488</ele>
        <time>2023-07-03T10:04:04.653Z</time>
      </trkpt>
      <trkpt lat="50.12415" lon="8.88011">
        <ele>152.199233</ele>
        <time>2023-07-03T10:04:06.673Z</time>
      </trkpt>
      <trkpt lat="50.12413" lon="8.88025">
        <ele>152.213733</ele>
        <time>2023-07-03T10:04:08.664Z</time>
      </trkpt>
      <trkpt lat="50.12413" lon="8.88039">
        <ele>152.228024</ele>
        <time>2023-07-03T10:04:10.670Z</time>
      </trkpt>
      <trkpt lat="50.12411" lon="8.88053">
        <ele>152.23577</ele>
        <time>2023-07-03T10:04:12.664Z</time>
      </trkpt>
      <trkpt lat="50.12411" lon="8.88069">
        <ele>152.238783</ele>
        <time>2023-07-03T10:04:14.666Z</time>
      </trkpt>
      <trkpt lat="50.1241" lon="8.88083">
        <ele>152.241693</ele>
        <time>2023-07-03T10:04:16.664Z</time>
      </trkpt>
      <trkpt lat="50.12409" lon="8.88099">
        <ele>152.244716</ele>
        <time>2023-07-03T10:04:18.669Z</time>
      </trkpt>
      <trkpt lat="50.12408" lon="8.88114">
        <ele>152.247688</ele>
        <time>2023-07-03T10:04:20.661Z</time>
      </trkpt>
      <trkpt lat="50.12407" lon="8.88129">
        <ele>152.250703</ele>
        <time>2023-07-03T10:04:22.669Z</time>
      </trkpt>
      <trkpt lat="50.12407" lon="8.88144">
        <ele>152.253704</ele>
        <time>2023-07-03T10:04:24.669Z</time>
      </trkpt>
      <trkpt lat="50.12406" lon="8.88159">
        <ele>152.256555</ele>
        <time>2023-07-03T10:04:26.641Z</time>
      </trkpt>
      <trkpt lat="50.12405" lon="8.88174">
        <ele>152.259588</ele>
        <time>2023-07-03T10:04:28.676Z</time>
      </trkpt>
      <trkpt lat="50.12404" lon="8.88188">
        <ele>152.262393</ele>
        <time>2023-07-03T10:04:30.666Z</time>
      </trkpt>
      <trkpt lat="50.12402" lon="8.88204">
        <ele>152.265544</ele>
        <time>2023-07-03T10:04:32.680Z</time>
      </trkpt>
      <trkpt lat="50.12401" lon="8.8822">
        <ele>152.26875</ele>
        <time>2023-07-03T10:04:34.668Z</time>
      </trkpt>
      <trkpt lat="50.124" lon="8.88236">
        <ele>152.271788</ele>
        <time>2023-07-03T10:04:36.660Z</time>
      </trkpt>
      <trkpt lat="50.12399" lon="8.88252">
        <ele>152.274971</ele>
        <time>2023-07-03T10:04:38.681Z</time>
      </trkpt>
      <trkpt lat="50.12398" lon="8.88268">
        <ele>152.278216</ele>
        <time>2023-07-03T10:04:40.656Z</time>
      </trkpt>
      <trkpt lat="50.12398" lon="8.88285">
        <ele>152.281459</ele>
        <time>2023-07-03T10:04:42.669Z</time>
      </trkpt>
      <trkpt lat="50.12397" lon="8.88301">
        <ele>152.284734</ele>
        <time>2023-07-03T10:04:44.663Z</time>
      </trkpt>
      <trkpt lat="50.12396" lon="8.88319">
        <ele>152.288146</ele>
        <time>2023-07-03T10:04:46.657Z</time>
      </trkpt>
      <trkpt lat="50.12394" lon="8.88335">
        <ele>152.248885</ele>
        <time>2023-07-03T10:04:48.676Z</time>
      </trkpt>
      <trkpt lat="50.12393" lon="8.88352">
        <ele>152.192245</ele>
        <time>2023-07-03T10:04:50.668Z</time>
      </trkpt>
      <trkpt lat="50.12392" lon="8.88369">
        <ele>152.131512</ele>
        <time>2023-07-03T10:04:52.663Z</time>
      </trkpt>
      <trkpt lat="50.12391" lon="8.88387">
        <ele>152.07112</ele>
        <time>2023-07-03T10:04:54.661Z</time>
      </trkpt>
      <trkpt lat="50.1239" lon="8.88405">
        <ele>152.00951</ele>
        <time>2023-07-03T10:04:56.652Z</time>
      </trkpt>
      <trkpt lat="50.12389" lon="8.88422">
        <ele>151.951614</ele>
        <time>2023-07-03T10:04:58.670Z</time>
      </trkpt>
      <trkpt lat="50.12388" lon="8.88439">
        <ele>151.892818</ele>
        <time>2023-07-03T10:05:00.668Z</time>
      </trkpt>
      <trkpt lat="50.12387" lon="8.88455">
        <ele>151.835109</ele>
        <time>2023-07-03T10:05:02.658Z</time>
      </trkpt>
      <trkpt lat="50.12386" lon="8.88472">
        <ele>151.778598</ele>
        <time>2023-07-03T10:05:04.680Z</time>
      </trkpt>
      <trkpt lat="50.12384" lon="8.88488">
        <ele>151.722167</ele>
        <time>2023-07-03T10:05:06.665Z</time>
      </trkpt>
      <trkpt lat="50.12383" lon="8.88504">
        <ele>151.666755</ele>
        <time>2023-07-03T10:05:08.666Z</time>
      </trkpt>
      <trkpt lat="50.12382" lon="8.88521">
        <ele>151.607101</ele>
        <time>2023-07-03T10:05:10.650Z</time>
      </trkpt>
      <trkpt lat="50.12381" lon="8.88538">
        <ele>151.550392</ele>
        <time>2023-07-03T10:05:12.660Z</time>
      </trkpt>
      <trkpt lat="50.1238" lon="8.88555">
        <ele>151.491169</ele>
        <time>2023-07-03T10:05:14.657Z</time>
      </trkpt>
      <trkpt lat="50.12378" lon="8.88572">
        <ele>151.430925</ele>
        <time>2023-07-03T10:05:16.660Z</time>
      </trkpt>
      <trkpt lat="50.12377" lon="8.88589">
        <ele>151.372112</ele>
        <time>2023-07-03T10:05:18.667Z</time>
      </trkpt>
      <trkpt lat="50.12376" lon="8.88606">
        <ele>151.320512</ele>
        <time>2023-07-03T10:05:20.650Z</time>
      </trkpt>
      <trkpt lat="50.12375" lon="8.88624">
        <ele>151.293417</ele>
        <time>2023-07-03T10:05:22.663Z</time>
      </trkpt>
      <trkpt lat="50.12375" lon="8.88641">
        <ele>151.267102</ele>
        <time>2023-07-03T10:05:24.662Z</time>
      </trkpt>
      <trkpt lat="50.12375" lon="8.88658">
        <ele>151.239979</ele>
        <time>2023-07-03T10:05:26.655Z</time>
      </trkpt>
      <trkpt lat="50.12372" lon="8.88676">
        <ele>151.212532</ele>
        <time>2023-07-03T10:05:28.670Z</time>
      </trkpt>
      <trkpt lat="50.12371" lon="8.88693">
        <ele>151.185687</ele>
        <time>2023-07-03T10:05:30.663Z</time>
      </trkpt>
      <trkpt lat="50.12371" lon="8.88707">
        <ele>151.163199</ele>
        <time>2023-07-03T10:05:32.669Z</time>
      </trkpt>
      <trkpt lat="50.1237" lon="8.88723">
        <ele>151.139063</ele>
        <time>2023-07-03T10:05:34.680Z</time>
      </trkpt>
      <trkpt lat="50.12369" lon="8.88738">
        <ele>151.115537</ele>
        <time>2023-07-03T10:05:36.652Z</time>
      </trkpt>
      <trkpt lat="50.12369" lon="8.88754">
        <ele>151.091007</ele>
        <time>2023-07-03T10:05:38.666Z</time>
      </trkpt>
      <trkpt lat="50.12368" lon="8.8877">
        <ele>151.066564</ele>
        <time>2023-07-03T10:05:40.672Z</time>
      </trkpt>
      <trkpt lat="50.12367" lon="8.88785">
        <ele>151.043401</ele>
        <time>2023-07-03T10:05:42.680Z</time>
      </trkpt>
      <trkpt lat="50.12366" lon="8.888">
        <ele>151.018958</ele>
        <time>2023-07-03T10:05:44.664Z</time>
      </trkpt>
      <trkpt lat="50.12365" lon="8.88816">
        <ele>150.995093</ele>
        <time>2023-07-03T10:05:46.663Z</time>
      </trkpt>
      <trkpt lat="50.12365" lon="8.88831">
        <ele>150.971257</ele>
        <time>2023-07-03T10:05:48.672Z</time>
      </trkpt>
      <trkpt lat="50.12364" lon="8.88846">
        <ele>150.947247</ele>
        <time>2023-07-03T10:05:50.661Z</time>
      </trkpt>
      <trkpt lat="50.12364" lon="8.88863">
        <ele>150.922015</ele>
        <time>2023-07-03T10:05:52.660Z</time>
      </trkpt>
      <trkpt lat="50.12364" lon="8.88879">
        <ele>150.896323</ele>
        <time>2023-07-03T10:05:54.661Z</time>
      </trkpt>
      <trkpt lat="50.12365" lon="8.88896">
        <ele>150.82331</ele>
        <time>2023-07-03T10:05:56.655Z</time>
      </trkpt>
      <trkpt lat="50.12366" lon="8.88912">
        <ele>150.741937</ele>
        <time>2023-07-03T10:05:58.668Z</time>
      </trkpt>
      <trkpt lat="50.12369" lon="8.88927">
        <ele>150.661963</ele>
        <time>2023-07-03T10:06:00.657Z</time>
      </trkpt>
      <trkpt lat="50.12372" lon="8.88942">
        <ele>150.582698</ele>
        <time>2023-07-03T10:06:02.665Z</time>
      </trkpt>
      <trkpt lat="50.12375" lon="8.88958">
        <ele>150.504003</ele>
        <time>2023-07-03T10:06:04.669Z</time>
      </trkpt>
      <trkpt lat="50.12376" lon="8.88973">
        <ele>150.425002</ele>
        <time>2023-07-03T10:06:06.652Z</time>
      </trkpt>
      <trkpt lat="50.12377" lon="8.88989">
        <ele>150.343886</ele>
        <time>2023-07-03T10:06:08.659Z</time>
      </trkpt>
      <trkpt lat="50.12378" lon="8.89007">
        <ele>150.256633</ele>
        <time>2023-07-03T10:06:10.659Z</time>
      </trkpt>
      <trkpt lat="50.12379" lon="8.89023">
        <ele>150.178011</ele>
        <time>2023-07-03T10:06:12.662Z</time>
      </trkpt>
      <trkpt lat="50.12381" lon="8.89038">
        <ele>150.101582</ele>
        <time>2023-07-03T10:06:14.667Z</time>
      </trkpt>
      <trkpt lat="50.12382" lon="8.89054">
        <ele>150.019807</ele>
        <time>2023-07-03T10:06:16.665Z</time>
      </trkpt>
      <trkpt lat="50.12384" lon="8.8907">
        <ele>149.938736</ele>
        <time>2023-07-03T10:06:18.664Z</time>
      </trkpt>
      <trkpt lat="50.12387" lon="8.89086">
        <ele>149.85531</ele>
        <time>2023-07-03T10:06:20.660Z</time>
      </trkpt>
      <trkpt lat="50.12389" lon="8.89102">
        <ele>149.773812</ele>
        <time>2023-07-03T10:06:22.666Z</time>
      </trkpt>
      <trkpt lat="50.12393" lon="8.89118">
        <ele>149.690707</ele>
        <time>2023-07-03T10:06:24.679Z</time>
      </trkpt>
      <trkpt lat="50.12397" lon="8.89132">
        <ele>149.610752</ele>
        <time>2023-07-03T10:06:26.659Z</time>
      </trkpt>
      <trkpt lat="50.12401" lon="8.89147">
        <ele>149.529152</ele>
        <time>2023-07-03T10:06:28.681Z</time>
      </trkpt>
      <trkpt lat="50.12406" lon="8.89163">
        <ele>149.526227</ele>
        <time>2023-07-03T10:06:30.670Z</time>
      </trkpt>
      <trkpt lat="50.1241" lon="8.89178">
        <ele>149.575795</ele>
        <time>2023-07-03T10:06:32.659Z</time>
      </trkpt>
      <trkpt lat="50.12414" lon="8.89193">
        <ele>149.625638</ele>
        <time>2023-07-03T10:06:34.666Z</time>
      </trkpt>
      <trkpt lat="50.12417" lon="8.89208">
        <ele>149.673073</ele>
        <time>2023-07-03T10:06:36.662Z</time>
      </trkpt>
      <trkpt lat="50.1242" lon="8.89223">
        <ele>149.721451</ele>
        <time>2023-07-03T10:06:38.666Z</time>
      </trkpt>
      <trkpt lat="50.12424" lon="8.89238">
        <ele>149.770545</ele>
        <time>2023-07-03T10:06:40.679Z</time>
      </trkpt>
      <trkpt lat="50.12426" lon="8.89254">
        <ele>149.818299</ele>
        <time>2023-07-03T10:06:42.665Z</time>
      </trkpt>
      <trkpt lat="50.12428" lon="8.89268">
        <ele>149.864439</ele>
        <time>2023-07-03T10:06:44.662Z</time>
      </trkpt>
      <trkpt lat="50.12432" lon="8.89282">
        <ele>149.911183</ele>
        <time>2023-07-03T10:06:46.661Z</time>
      </trkpt>
      <trkpt lat="50.12441" lon="8.89288">
        <ele>149.9554</ele>
        <time>2023-07-03T10:06:48.653Z</time>
      </trkpt>
      <trkpt lat="50.1245" lon="8.89294">
        <ele>150.003855</ele>
        <time>2023-07-03T10:06:50.657Z</time>
      </trkpt>
      <trkpt lat="50.1246" lon="8.893">
        <ele>150.051786</ele>
        <time>2023-07-03T10:06:52.662Z</time>
      </trkpt>
      <trkpt lat="50.12468" lon="8.89308">
        <ele>150.099588</ele>
        <time>2023-07-03T10:06:54.676Z</time>
      </trkpt>
      <trkpt lat="50.12475" lon="8.89318">
        <ele>150.145816</ele>
        <time>2023-07-03T10:06:56.665Z</time>
      </trkpt>
      <trkpt lat="50.12483" lon="8.89329">
        <ele>150.194036</ele>
        <time>2023-07-03T10:06:58.659Z</time>
      </trkpt>
      <trkpt lat="50.1249" lon="8.89341">
        <ele>150.242307</ele>
        <time>2023-07-03T10:07:00.672Z</time>
      </trkpt>
      <trkpt lat="50.12496" lon="8.89353">
        <ele>150.289212</ele>
        <time>2023-07-03T10:07:02.662Z</time>
      </trkpt>
      <trkpt lat="50.12502" lon="8.89366">
        <ele>150.33932</ele>
        <time>2023-07-03T10:07:04.669Z</time>
      </trkpt>
      <trkpt lat="50.12508" lon="8.89379">
        <ele>150.408444</ele>
        <time>2023-07-03T10:07:06.653Z</time>
      </trkpt>
      <trkpt lat="50.12513" lon="8.89393">
        <ele>150.489805</ele>
        <time>2023-07-03T10:07:08.675Z</time>
      </trkpt>
      <trkpt lat="50.12519" lon="8.89408">
        <ele>150.57471</ele>
        <time>2023-07-03T10:07:10.662Z</time>
      </trkpt>
      <trkpt lat="50.12526" lon="8.89422">
        <ele>150.656066</ele>
        <time>2023-07-03T10:07:12.649Z</time>
      </trkpt>
      <trkpt lat="50.12532" lon="8.89436">
        <ele>150.736311</ele>
        <time>2023-07-03T10:07:14.668Z</time>
      </trkpt>
      <trkpt lat="50.12538" lon="8.89449">
        <ele>150.8128</ele>
        <time>2023-07-03T10:07:16.663Z</time>
      </trkpt>
      <trkpt lat="50.12544" lon="8.89461">
        <ele>150.889247</ele>
        <time>2023-07-03T10:07:18.685Z</time>
      </trkpt>
      <trkpt lat="50.1255" lon="8.89474">
        <ele>150.964621</ele>
        <time>2023-07-03T10:07:20.664Z</time>
      </trkpt>
      <trkpt lat="50.12557" lon="8.89486">
        <ele>151.042196</ele>
        <time>2023-07-03T10:07:22.660Z</time>
      </trkpt>
      <trkpt lat="50.12563" lon="8.89498">
        <ele>151.11839</ele>
        <time>2023-07-03T10:07:24.725Z</time>
      </trkpt>
      <trkpt lat="50.1257" lon="8.8951">
        <ele>151.195947</ele>
        <time>2023-07-03T10:07:26.656Z</time>
      </trkpt>
      <trkpt lat="50.12577" lon="8.89522">
        <ele>151.271937</ele>
        <time>2023-07-03T10:07:28.675Z</time>
      </trkpt>
      <trkpt lat="50.12583" lon="8.89533">
        <ele>151.343985</ele>
        <time>2023-07-03T10:07:30.677Z</time>
      </trkpt>
      <trkpt lat="50.12589" lon="8.89545">
        <ele>151.41327</ele>
        <time>2023-07-03T10:07:32.655Z</time>
      </trkpt>
      <trkpt lat="50.12595" lon="8.89556">
        <ele>151.483478</ele>
        <time>2023-07-03T10:07:34.653Z</time>
      </trkpt>
      <trkpt lat="50.12601" lon="8.89567">
        <ele>151.552245</ele>
        <time>2023-07-03T10:07:36.666Z</time>
      </trkpt>
      <trkpt lat="50.12606" lon="8.89579">
        <ele>151.620649</ele>
        <time>2023-07-03T10:07:38.676Z</time>
      </trkpt>
      <trkpt lat="50.12612" lon="8.89589">
        <ele>151.689155</ele>
        <time>2023-07-03T10:07:40.665Z</time>
      </trkpt>
      <trkpt lat="50.12618" lon="8.89601">
        <ele>151.611581</ele>
        <time>2023-07-03T10:07:42.666Z</time>
      </trkpt>
      <trkpt lat="50.12624" lon="8.89613">
        <ele>151.513467</ele>
        <time>2023-07-03T10:07:44.672Z</time>
      </trkpt>
      <trkpt lat="50.12629" lon="8.89624">
        <ele>151.419834</ele>
        <time>2023-07-03T10:07:46.692Z</time>
      </trkpt>
      <trkpt lat="50.12634" lon="8.89636">
        <ele>151.325127</ele>
        <time>2023-07-03T10:07:48.672Z</time>
      </trkpt>
      <trkpt lat="50.12639" lon="8.89649">
        <ele>151.231879</ele>
        <time>2023-07-03T10:07:50.669Z</time>
      </trkpt>
      <trkpt lat="50.12646" lon="8.89667">
        <ele>151.090149</ele>
        <time>2023-07-03T10:07:53.651Z</time>
      </trkpt>
      <trkpt lat="50.12651" lon="8.89679">
        <ele>150.995511</ele>
        <time>2023-07-03T10:07:55.658Z</time>
      </trkpt>
      <trkpt lat="50.12657" lon="8.8969">
        <ele>150.900403</ele>
        <time>2023-07-03T10:07:57.676Z</time>
      </trkpt>
      <trkpt lat="50.12664" lon="8.89699">
        <ele>150.804998</ele>
        <time>2023-07-03T10:07:59.657Z</time>
      </trkpt>
      <trkpt lat="50.12673" lon="8.89707">
        <ele>150.704215</ele>
        <time>2023-07-03T10:08:01.679Z</time>
      </trkpt>
      <trkpt lat="50.12682" lon="8.89716">
        <ele>150.591809</ele>
        <time>2023-07-03T10:08:03.659Z</time>
      </trkpt>
      <trkpt lat="50.1269" lon="8.89727">
        <ele>150.482123</ele>
        <time>2023-07-03T10:08:05.654Z</time>
      </trkpt>
      <trkpt lat="50.12697" lon="8.89739">
        <ele>150.37714</ele>
        <time>2023-07-03T10:08:07.655Z</time>
      </trkpt>
      <trkpt lat="50.12703" lon="8.89751">
        <ele>150.273969</ele>
        <time>2023-07-03T10:08:09.654Z</time>
      </trkpt>
      <trkpt lat="50.12709" lon="8.89766">
        <ele>150.158866</ele>
        <time>2023-07-03T10:08:11.667Z</time>
      </trkpt>
      <trkpt lat="50.12714" lon="8.8978">
        <ele>150.053687</ele>
        <time>2023-07-03T10:08:13.655Z</time>
      </trkpt>
      <trkpt lat="50.12719" lon="8.89794">
        <ele>149.948264</ele>
        <time>2023-07-03T10:08:15.656Z</time>
      </trkpt>
      <trkpt lat="50.12725" lon="8.89808">
        <ele>149.845851</ele>
        <time>2023-07-03T10:08:17.660Z</time>
      </trkpt>
      <trkpt lat="50.12731" lon="8.89822">
        <ele>149.796603</ele>
        <time>2023-07-03T10:08:19.655Z</time>
      </trkpt>
      <trkpt lat="50.12736" lon="8.89836">
        <ele>149.745525</ele>
        <time>2023-07-03T10:08:21.674Z</time>
      </trkpt>
      <trkpt lat="50.1274" lon="8.8985">
        <ele>149.699608</ele>
        <time>2023-07-03T10:08:23.658Z</time>
      </trkpt>
      <trkpt lat="50.12746" lon="8.89863">
        <ele>149.650587</ele>
        <time>2023-07-03T10:08:25.658Z</time>
      </trkpt>
      <trkpt lat="50.12751" lon="8.89877">
        <ele>149.601081</ele>
        <time>2023-07-03T10:08:27.656Z</time>
      </trkpt>
      <trkpt lat="50.12757" lon="8.89891">
        <ele>149.551846</ele>
        <time>2023-07-03T10:08:29.660Z</time>
      </trkpt>
      <trkpt lat="50.12762" lon="8.89904">
        <ele>149.503124</ele>
        <time>2023-07-03T10:08:31.660Z</time>
      </trkpt>
      <trkpt lat="50.12767" lon="8.89918">
        <ele>149.455072</ele>
        <time>2023-07-03T10:08:33.660Z</time>
      </trkpt>
      <trkpt lat="50.12772" lon="8.89933">
        <ele>149.404075</ele>
        <time>2023-07-03T10:08:35.637Z</time>
      </trkpt>
      <trkpt lat="50.12776" lon="8.89948">
        <ele>149.354731</ele>
        <time>2023-07-03T10:08:37.662Z</time>
      </trkpt>
      <trkpt lat="50.12781" lon="8.89961">
        <ele>149.308432</ele>
        <time>2023-07-03T10:08:39.659Z</time>
      </trkpt>
      <trkpt lat="50.12786" lon="8.89975">
        <ele>149.260114</ele>
        <time>2023-07-03T10:08:41.661Z</time>
      </trkpt>
      <trkpt lat="50.12791" lon="8.8999">
        <ele>149.209426</ele>
        <time>2023-07-03T10:08:43.656Z</time>
      </trkpt>
      <trkpt lat="50.12796" lon="8.90005">
        <ele>149.156574</ele>
        <time>2023-07-03T10:08:45.665Z</time>
      </trkpt>
      <trkpt lat="50.128" lon="8.9002">
        <ele>149.108386</ele>
        <time>2023-07-03T10:08:47.662Z</time>
      </trkpt>
      <trkpt lat="50.12804" lon="8.90034">
        <ele>149.061697</ele>
        <time>2023-07-03T10:08:49.659Z</time>
      </trkpt>
      <trkpt lat="50.12808" lon="8.90048">
        <ele>149.014687</ele>
        <time>2023-07-03T10:08:51.658Z</time>
      </trkpt>
      <trkpt lat="50.12812" lon="8.90062">
        <ele>148.886984</ele>
        <time>2023-07-03T10:08:53.676Z</time>
      </trkpt>
      <trkpt lat="50.12816" lon="8.90075">
        <ele>148.725498</ele>
        <time>2023-07-03T10:08:55.661Z</time>
      </trkpt>
      <trkpt lat="50.1282" lon="8.9009">
        <ele>148.555328</ele>
        <time>2023-07-03T10:08:57.661Z</time>
      </trkpt>
      <trkpt lat="50.12823" lon="8.90103">
        <ele>148.390234</ele>
        <time>2023-07-03T10:08:59.658Z</time>
      </trkpt>
      <trkpt lat="50.12827" lon="8.90117">
        <ele>148.228123</ele>
        <time>2023-07-03T10:09:01.664Z</time>
      </trkpt>
      <trkpt lat="50.1283" lon="8.90131">
        <ele>148.064587</ele>
        <time>2023-07-03T10:09:03.657Z</time>
      </trkpt>
      <trkpt lat="50.12834" lon="8.90151">
        <ele>147.834578</ele>
        <time>2023-07-03T10:09:06.651Z</time>
      </trkpt>
      <trkpt lat="50.12837" lon="8.90165">
        <ele>147.670231</ele>
        <time>2023-07-03T10:09:08.659Z</time>
      </trkpt>
      <trkpt lat="50.12838" lon="8.90183">
        <ele>147.480513</ele>
        <time>2023-07-03T10:09:11.647Z</time>
      </trkpt>
      <trkpt lat="50.12842" lon="8.90191">
        <ele>147.364836</ele>
        <time>2023-07-03T10:09:27.792Z</time>
      </trkpt>
      <trkpt lat="50.12847" lon="8.90184">
        <ele>147.23914</ele>
        <time>2023-07-03T10:09:55.767Z</time>
      </trkpt>
      <trkpt lat="50.12838" lon="8.90208">
        <ele>146.927106</ele>
        <time>2023-07-03T10:40:05.652Z</time>
      </trkpt>
      <trkpt lat="50.12844" lon="8.90222">
        <ele>146.749431</ele>
        <time>2023-07-03T10:40:10.655Z</time>
      </trkpt>
      <trkpt lat="50.12843" lon="8.90239">
        <ele>146.552485</ele>
        <time>2023-07-03T10:40:15.659Z</time>
      </trkpt>
      <trkpt lat="50.12841" lon="8.90257">
        <ele>146.357926</ele>
        <time>2023-07-03T10:40:19.649Z</time>
      </trkpt>
      <trkpt lat="50.12839" lon="8.90273">
        <ele>146.178371</ele>
        <time>2023-07-03T10:40:24.657Z</time>
      </trkpt>
      <trkpt lat="50.12837" lon="8.9029">
        <ele>145.99085</ele>
        <time>2023-07-03T10:40:29.655Z</time>
      </trkpt>
      <trkpt lat="50.12832" lon="8.90303">
        <ele>146.049877</ele>
        <time>2023-07-03T10:40:33.660Z</time>
      </trkpt>
      <trkpt lat="50.12823" lon="8.90314">
        <ele>146.318201</ele>
        <time>2023-07-03T10:40:37.663Z</time>
      </trkpt>
      <trkpt lat="50.12812" lon="8.90311">
        <ele>146.585942</ele>
        <time>2023-07-03T10:40:41.653Z</time>
      </trkpt>
      <trkpt lat="50.12802" lon="8.90303">
        <ele>146.875637</ele>
        <time>2023-07-03T10:40:45.650Z</time>
      </trkpt>
      <trkpt lat="50.12794" lon="8.90297">
        <ele>147.099977</ele>
        <time>2023-07-03T10:40:48.673Z</time>
      </trkpt>
      <trkpt lat="50.12785" lon="8.9029">
        <ele>147.347503</ele>
        <time>2023-07-03T10:40:51.637Z</time>
      </trkpt>
      <trkpt lat="50.12776" lon="8.90282">
        <ele>147.587182</ele>
        <time>2023-07-03T10:40:54.662Z</time>
      </trkpt>
      <trkpt lat="50.12768" lon="8.90275">
        <ele>147.818757</ele>
        <time>2023-07-03T10:40:57.673Z</time>
      </trkpt>
      <trkpt lat="50.12757" lon="8.9027">
        <ele>148.098508</ele>
        <time>2023-07-03T10:41:01.653Z</time>
      </trkpt>
      <trkpt lat="50.12748" lon="8.90268">
        <ele>148.333781</ele>
        <time>2023-07-03T10:41:04.674Z</time>
      </trkpt>
      <trkpt lat="50.12737" lon="8.9027">
        <ele>148.588526</ele>
        <time>2023-07-03T10:41:07.645Z</time>
      </trkpt>
      <trkpt lat="50.12733" lon="8.90283">
        <ele>148.830466</ele>
        <time>2023-07-03T10:41:10.648Z</time>
      </trkpt>
      <trkpt lat="50.12733" lon="8.903">
        <ele>149.091941</ele>
        <time>2023-07-03T10:41:13.653Z</time>
      </trkpt>
      <trkpt lat="50.12732" lon="8.90317">
        <ele>149.357911</ele>
        <time>2023-07-03T10:41:16.647Z</time>
      </trkpt>
      <trkpt lat="50.1273" lon="8.90336">
        <ele>149.663585</ele>
        <time>2023-07-03T10:41:19.656Z</time>
      </trkpt>
      <trkpt lat="50.12729" lon="8.90354">
        <ele>149.950797</ele>
        <time>2023-07-03T10:41:22.650Z</time>
      </trkpt>
      <trkpt lat="50.12728" lon="8.90374">
        <ele>150.255664</ele>
        <time>2023-07-03T10:41:25.653Z</time>
      </trkpt>
      <trkpt lat="50.12727" lon="8.90388">
        <ele>150.387207</ele>
        <time>2023-07-03T10:41:27.657Z</time>
      </trkpt>
      <trkpt lat="50.12723" lon="8.90407">
        <ele>150.496686</ele>
        <time>2023-07-03T10:41:30.649Z</time>
      </trkpt>
      <trkpt lat="50.1272" lon="8.90423">
        <ele>150.590557</ele>
        <time>2023-07-03T10:41:33.655Z</time>
      </trkpt>
      <trkpt lat="50.12714" lon="8.90438">
        <ele>150.690072</ele>
        <time>2023-07-03T10:41:36.664Z</time>
      </trkpt>
      <trkpt lat="50.12707" lon="8.90452">
        <ele>150.790273</ele>
        <time>2023-07-03T10:41:39.653Z</time>
      </trkpt>
      <trkpt lat="50.12702" lon="8.90468">
        <ele>150.888194</ele>
        <time>2023-07-03T10:41:42.679Z</time>
      </trkpt>
      <trkpt lat="50.12696" lon="8.90485">
        <ele>150.997791</ele>
        <time>2023-07-03T10:41:45.649Z</time>
      </trkpt>
      <trkpt lat="50.12687" lon="8.90501">
        <ele>151.111459</ele>
        <time>2023-07-03T10:41:48.657Z</time>
      </trkpt>
      <trkpt lat="50.1268" lon="8.90515">
        <ele>151.216788</ele>
        <time>2023-07-03T10:41:51.643Z</time>
      </trkpt>
      <trkpt lat="50.12671" lon="8.9053">
        <ele>151.33049</ele>
        <time>2023-07-03T10:41:54.657Z</time>
      </trkpt>
      <trkpt lat="50.12662" lon="8.90543">
        <ele>151.437317</ele>
        <time>2023-07-03T10:41:57.660Z</time>
      </trkpt>
      <trkpt lat="50.12651" lon="8.90554">
        <ele>151.549267</ele>
        <time>2023-07-03T10:42:00.657Z</time>
      </trkpt>
      <trkpt lat="50.12642" lon="8.90566">
        <ele>151.658568</ele>
        <time>2023-07-03T10:42:03.660Z</time>
      </trkpt>
      <trkpt lat="50.12631" lon="8.90579">
        <ele>151.77155</ele>
        <time>2023-07-03T10:42:06.640Z</time>
      </trkpt>
      <trkpt lat="50.12622" lon="8.90591">
        <ele>151.883173</ele>
        <time>2023-07-03T10:42:09.652Z</time>
      </trkpt>
      <trkpt lat="50.12611" lon="8.90604">
        <ele>151.886093</ele>
        <time>2023-07-03T10:42:12.645Z</time>
      </trkpt>
      <trkpt lat="50.12602" lon="8.90617">
        <ele>151.870414</ele>
        <time>2023-07-03T10:42:15.656Z</time>
      </trkpt>
      <trkpt lat="50.12591" lon="8.90628">
        <ele>151.854665</ele>
        <time>2023-07-03T10:42:18.652Z</time>
      </trkpt>
      <trkpt lat="50.12581" lon="8.9064">
        <ele>151.838186</ele>
        <time>2023-07-03T10:42:21.652Z</time>
      </trkpt>
      <trkpt lat="50.12573" lon="8.90655">
        <ele>151.822563</ele>
        <time>2023-07-03T10:42:24.655Z</time>
      </trkpt>
      <trkpt lat="50.12572" lon="8.9067">
        <ele>151.811142</ele>
        <time>2023-07-03T10:42:26.649Z</time>
      </trkpt>
      <trkpt lat="50.1257" lon="8.9069">
        <ele>151.794647</ele>
        <time>2023-07-03T10:42:29.658Z</time>
      </trkpt>
      <trkpt lat="50.12563" lon="8.907">
        <ele>151.783222</ele>
        <time>2023-07-03T10:42:31.640Z</time>
      </trkpt>
      <trkpt lat="50.12553" lon="8.90712">
        <ele>151.766862</ele>
        <time>2023-07-03T10:42:34.653Z</time>
      </trkpt>
      <trkpt lat="50.12543" lon="8.90726">
        <ele>151.750308</ele>
        <time>2023-07-03T10:42:37.641Z</time>
      </trkpt>
      <trkpt lat="50.12536" lon="8.90735">
        <ele>151.738183</ele>
        <time>2023-07-03T10:42:39.655Z</time>
      </trkpt>
      <trkpt lat="50.12529" lon="8.90745">
        <ele>151.726481</ele>
        <time>2023-07-03T10:42:41.650Z</time>
      </trkpt>
      <trkpt lat="50.12521" lon="8.90755">
        <ele>151.714526</ele>
        <time>2023-07-03T10:42:43.661Z</time>
      </trkpt>
      <trkpt lat="50.12515" lon="8.90765">
        <ele>151.702917</ele>
        <time>2023-07-03T10:42:45.661Z</time>
      </trkpt>
      <trkpt lat="50.12508" lon="8.90774">
        <ele>151.691631</ele>
        <time>2023-07-03T10:42:47.650Z</time>
      </trkpt>
      <trkpt lat="50.125" lon="8.90782">
        <ele>151.679888</ele>
        <time>2023-07-03T10:42:49.669Z</time>
      </trkpt>
      <trkpt lat="50.12488" lon="8.90791">
        <ele>151.712006</ele>
        <time>2023-07-03T10:42:52.638Z</time>
      </trkpt>
      <trkpt lat="50.12477" lon="8.90803">
        <ele>151.765387</ele>
        <time>2023-07-03T10:42:55.656Z</time>
      </trkpt>
      <trkpt lat="50.1247" lon="8.90812">
        <ele>151.802218</ele>
        <time>2023-07-03T10:42:57.669Z</time>
      </trkpt>
      <trkpt lat="50.12463" lon="8.90821">
        <ele>151.839359</ele>
        <time>2023-07-03T10:42:59.668Z</time>
      </trkpt>
      <trkpt lat="50.12452" lon="8.90834">
        <ele>151.89212</ele>
        <time>2023-07-03T10:43:02.649Z</time>
      </trkpt>
      <trkpt lat="50.12444" lon="8.90842">
        <ele>151.92841</ele>
        <time>2023-07-03T10:43:04.670Z</time>
      </trkpt>
      <trkpt lat="50.12437" lon="8.90849">
        <ele>151.96428</ele>
        <time>2023-07-03T10:43:06.649Z</time>
      </trkpt>
      <trkpt lat="50.12429" lon="8.90857">
        <ele>152.0001</ele>
        <time>2023-07-03T10:43:08.663Z</time>
      </trkpt>
      <trkpt lat="50.12421" lon="8.90866">
        <ele>152.038502</ele>
        <time>2023-07-03T10:43:10.660Z</time>
      </trkpt>
      <trkpt lat="50.12413" lon="8.90875">
        <ele>152.078512</ele>
        <time>2023-07-03T10:43:12.660Z</time>
      </trkpt>
      <trkpt lat="50.12408" lon="8.90889">
        <ele>152.119322</ele>
        <time>2023-07-03T10:43:14.649Z</time>
      </trkpt>
      <trkpt lat="50.12404" lon="8.90903">
        <ele>152.158523</ele>
        <time>2023-07-03T10:43:16.646Z</time>
      </trkpt>
      <trkpt lat="50.12398" lon="8.90914">
        <ele>152.195755</ele>
        <time>2023-07-03T10:43:18.654Z</time>
      </trkpt>
      <trkpt lat="50.1239" lon="8.90924">
        <ele>152.234146</ele>
        <time>2023-07-03T10:43:20.643Z</time>
      </trkpt>
      <trkpt lat="50.12383" lon="8.90934">
        <ele>152.272434</ele>
        <time>2023-07-03T10:43:22.666Z</time>
      </trkpt>
      <trkpt lat="50.12372" lon="8.90947">
        <ele>152.326617</ele>
        <time>2023-07-03T10:43:25.660Z</time>
      </trkpt>
      <trkpt lat="50.12365" lon="8.90957">
        <ele>152.36454</ele>
        <time>2023-07-03T10:43:27.647Z</time>
      </trkpt>
      <trkpt lat="50.12354" lon="8.9097">
        <ele>152.351006</ele>
        <time>2023-07-03T10:43:30.664Z</time>
      </trkpt>
      <trkpt lat="50.12344" lon="8.90982">
        <ele>152.293664</ele>
        <time>2023-07-03T10:43:33.671Z</time>
      </trkpt>
      <trkpt lat="50.12334" lon="8.90995">
        <ele>152.23561</ele>
        <time>2023-07-03T10:43:36.636Z</time>
      </trkpt>
      <trkpt lat="50.12324" lon="8.91006">
        <ele>152.180218</ele>
        <time>2023-07-03T10:43:39.670Z</time>
      </trkpt>
      <trkpt lat="50.12315" lon="8.91017">
        <ele>152.127141</ele>
        <time>2023-07-03T10:43:42.658Z</time>
      </trkpt>
      <trkpt lat="50.12308" lon="8.91027">
        <ele>152.083404</ele>
        <time>2023-07-03T10:43:45.655Z</time>
      </trkpt>
      <trkpt lat="50.12302" lon="8.91039">
        <ele>152.040348</ele>
        <time>2023-07-03T10:43:47.639Z</time>
      </trkpt>
      <trkpt lat="50.12293" lon="8.91047">
        <ele>151.992792</ele>
        <time>2023-07-03T10:43:49.638Z</time>
      </trkpt>
      <trkpt lat="50.12283" lon="8.91057">
        <ele>151.939361</ele>
        <time>2023-07-03T10:43:51.640Z</time>
      </trkpt>
      <trkpt lat="50.12273" lon="8.91069">
        <ele>151.884862</ele>
        <time>2023-07-03T10:43:54.656Z</time>
      </trkpt>
      <trkpt lat="50.12263" lon="8.91081">
        <ele>151.826795</ele>
        <time>2023-07-03T10:43:57.673Z</time>
      </trkpt>
      <trkpt lat="50.12256" lon="8.91089">
        <ele>151.785124</ele>
        <time>2023-07-03T10:43:59.653Z</time>
      </trkpt>
      <trkpt lat="50.12244" lon="8.911">
        <ele>151.725344</ele>
        <time>2023-07-03T10:44:02.643Z</time>
      </trkpt>
      <trkpt lat="50.12234" lon="8.91108">
        <ele>151.674894</ele>
        <time>2023-07-03T10:44:05.632Z</time>
      </trkpt>
      <trkpt lat="50.12226" lon="8.91112">
        <ele>151.633761</ele>
        <time>2023-07-03T10:44:08.667Z</time>
      </trkpt>
      <trkpt lat="50.12217" lon="8.91118">
        <ele>151.590437</ele>
        <time>2023-07-03T10:44:13.646Z</time>
      </trkpt>
      <trkpt lat="50.1221" lon="8.91129">
        <ele>151.605567</ele>
        <time>2023-07-03T10:44:39.652Z</time>
      </trkpt>
      <trkpt lat="50.12202" lon="8.91138">
        <ele>151.653549</ele>
        <time>2023-07-03T10:44:46.637Z</time>
      </trkpt>
      <trkpt lat="50.12193" lon="8.91146">
        <ele>151.701242</ele>
        <time>2023-07-03T10:44:50.646Z</time>
      </trkpt>
      <trkpt lat="50.12183" lon="8.91154">
        <ele>151.752327</ele>
        <time>2023-07-03T10:44:53.651Z</time>
      </trkpt>
      <trkpt lat="50.12174" lon="8.91163">
        <ele>151.806095</ele>
        <time>2023-07-03T10:44:56.639Z</time>
      </trkpt>
      <trkpt lat="50.12165" lon="8.91173">
        <ele>151.860204</ele>
        <time>2023-07-03T10:44:59.659Z</time>
      </trkpt>
      <trkpt lat="50.12154" lon="8.91184">
        <ele>151.920839</ele>
        <time>2023-07-03T10:45:02.642Z</time>
      </trkpt>
      <trkpt lat="50.12143" lon="8.91195">
        <ele>151.982608</ele>
        <time>2023-07-03T10:45:05.656Z</time>
      </trkpt>
      <trkpt lat="50.12135" lon="8.91202">
        <ele>152.027767</ele>
        <time>2023-07-03T10:45:07.663Z</time>
      </trkpt>
      <trkpt lat="50.12126" lon="8.91208">
        <ele>152.071409</ele>
        <time>2023-07-03T10:45:09.658Z</time>
      </trkpt>
      <trkpt lat="50.12118" lon="8.91215">
        <ele>152.115585</ele>
        <time>2023-07-03T10:45:11.642Z</time>
      </trkpt>
      <trkpt lat="50.1211" lon="8.91222">
        <ele>152.159911</ele>
        <time>2023-07-03T10:45:13.653Z</time>
      </trkpt>
      <trkpt lat="50.12101" lon="8.91229">
        <ele>152.20775</ele>
        <time>2023-07-03T10:45:15.654Z</time>
      </trkpt>
      <trkpt lat="50.12093" lon="8.91237">
        <ele>152.252121</ele>
        <time>2023-07-03T10:45:17.662Z</time>
      </trkpt>
      <trkpt lat="50.12085" lon="8.91244">
        <ele>152.296903</ele>
        <time>2023-07-03T10:45:19.653Z</time>
      </trkpt>
      <trkpt lat="50.12077" lon="8.91251">
        <ele>152.341064</ele>
        <time>2023-07-03T10:45:21.655Z</time>
      </trkpt>
      <trkpt lat="50.12069" lon="8.91258">
        <ele>152.385934</ele>
        <time>2023-07-03T10:45:23.649Z</time>
      </trkpt>
      <trkpt lat="50.1206" lon="8.91266">
        <ele>152.430417</ele>
        <time>2023-07-03T10:45:25.644Z</time>
      </trkpt>
      <trkpt lat="50.12052" lon="8.91273">
        <ele>152.346525</ele>
        <time>2023-07-03T10:45:27.660Z</time>
      </trkpt>
      <trkpt lat="50.12044" lon="8.9128">
        <ele>152.265254</ele>
        <time>2023-07-03T10:45:29.654Z</time>
      </trkpt>
      <trkpt lat="50.12035" lon="8.91286">
        <ele>152.178717</ele>
        <time>2023-07-03T10:45:31.653Z</time>
      </trkpt>
      <trkpt lat="50.12026" lon="8.91293">
        <ele>152.090095</ele>
        <time>2023-07-03T10:45:33.648Z</time>
      </trkpt>
      <trkpt lat="50.12018" lon="8.913">
        <ele>152.003849</ele>
        <time>2023-07-03T10:45:35.671Z</time>
      </trkpt>
      <trkpt lat="50.12009" lon="8.91307">
        <ele>151.919171</ele>
        <time>2023-07-03T10:45:37.659Z</time>
      </trkpt>
      <trkpt lat="50.12" lon="8.91313">
        <ele>151.828014</ele>
        <time>2023-07-03T10:45:39.665Z</time>
      </trkpt>
      <trkpt lat="50.1199" lon="8.91319">
        <ele>151.735292</ele>
        <time>2023-07-03T10:45:41.650Z</time>
      </trkpt>
      <trkpt lat="50.11981" lon="8.91326">
        <ele>151.640479</ele>
        <time>2023-07-03T10:45:43.652Z</time>
      </trkpt>
      <trkpt lat="50.11971" lon="8.91333">
        <ele>151.542771</ele>
        <time>2023-07-03T10:45:45.652Z</time>
      </trkpt>
      <trkpt lat="50.11961" lon="8.91339">
        <ele>151.450433</ele>
        <time>2023-07-03T10:45:47.648Z</time>
      </trkpt>
      <trkpt lat="50.11952" lon="8.91345">
        <ele>151.361958</ele>
        <time>2023-07-03T10:45:49.669Z</time>
      </trkpt>
      <trkpt lat="50.11943" lon="8.91352">
        <ele>151.26819</ele>
        <time>2023-07-03T10:45:51.650Z</time>
      </trkpt>
      <trkpt lat="50.11933" lon="8.91358">
        <ele>151.171063</ele>
        <time>2023-07-03T10:45:53.661Z</time>
      </trkpt>
      <trkpt lat="50.11923" lon="8.91365">
        <ele>151.075352</ele>
        <time>2023-07-03T10:45:55.652Z</time>
      </trkpt>
      <trkpt lat="50.11913" lon="8.91371">
        <ele>150.977431</ele>
        <time>2023-07-03T10:45:57.659Z</time>
      </trkpt>
      <trkpt lat="50.11902" lon="8.91378">
        <ele>150.874297</ele>
        <time>2023-07-03T10:45:59.656Z</time>
      </trkpt>
      <trkpt lat="50.11891" lon="8.91385">
        <ele>150.842949</ele>
        <time>2023-07-03T10:46:01.661Z</time>
      </trkpt>
      <trkpt lat="50.11881" lon="8.91391">
        <ele>150.879301</ele>
        <time>2023-07-03T10:46:03.659Z</time>
      </trkpt>
      <trkpt lat="50.11871" lon="8.91398">
        <ele>150.915202</ele>
        <time>2023-07-03T10:46:05.663Z</time>
      </trkpt>
      <trkpt lat="50.1186" lon="8.91404">
        <ele>150.952092</ele>
        <time>2023-07-03T10:46:07.672Z</time>
      </trkpt>
      <trkpt lat="50.1185" lon="8.91411">
        <ele>150.989448</ele>
        <time>2023-07-03T10:46:09.636Z</time>
      </trkpt>
      <trkpt lat="50.1184" lon="8.91417">
        <ele>151.025342</ele>
        <time>2023-07-03T10:46:11.646Z</time>
      </trkpt>
      <trkpt lat="50.11829" lon="8.91421">
        <ele>151.060979</ele>
        <time>2023-07-03T10:46:13.652Z</time>
      </trkpt>
      <trkpt lat="50.11819" lon="8.91426">
        <ele>151.09596</ele>
        <time>2023-07-03T10:46:15.676Z</time>
      </trkpt>
      <trkpt lat="50.11809" lon="8.91429">
        <ele>151.130597</ele>
        <time>2023-07-03T10:46:17.638Z</time>
      </trkpt>
      <trkpt lat="50.11798" lon="8.91433">
        <ele>151.165473</ele>
        <time>2023-07-03T10:46:19.670Z</time>
      </trkpt>
      <trkpt lat="50.11788" lon="8.91436">
        <ele>151.199724</ele>
        <time>2023-07-03T10:46:21.657Z</time>
      </trkpt>
      <trkpt lat="50.11778" lon="8.91439">
        <ele>151.234361</ele>
        <time>2023-07-03T10:46:23.653Z</time>
      </trkpt>
      <trkpt lat="50.11767" lon="8.91443">
        <ele>151.269458</ele>
        <time>2023-07-03T10:46:25.664Z</time>
      </trkpt>
      <trkpt lat="50.11757" lon="8.91448">
        <ele>151.305907</ele>
        <time>2023-07-03T10:46:27.664Z</time>
      </trkpt>
      <trkpt lat="50.11746" lon="8.91451">
        <ele>151.340821</ele>
        <time>2023-07-03T10:46:29.654Z</time>
      </trkpt>
      <trkpt lat="50.11737" lon="8.91454">
        <ele>151.372226</ele>
        <time>2023-07-03T10:46:31.660Z</time>
      </trkpt>
      <trkpt lat="50.11728" lon="8.91458">
        <ele>151.403155</ele>
        <time>2023-07-03T10:46:33.653Z</time>
      </trkpt>
      <trkpt lat="50.11719" lon="8.91462">
        <ele>151.432794</ele>
        <time>2023-07-03T10:46:35.652Z</time>
      </trkpt>
      <trkpt lat="50.1171" lon="8.91465">
        <ele>151.463652</ele>
        <time>2023-07-03T10:46:37.648Z</time>
      </trkpt>
      <trkpt lat="50.11701" lon="8.91469">
        <ele>151.493461</ele>
        <time>2023-07-03T10:46:39.672Z</time>
      </trkpt>
      <trkpt lat="50.11692" lon="8.91473">
        <ele>151.523821</ele>
        <time>2023-07-03T10:46:41.655Z</time>
      </trkpt>
      <trkpt lat="50.11683" lon="8.91477">
        <ele>151.553631</ele>
        <time>2023-07-03T10:46:43.650Z</time>
      </trkpt>
      <trkpt lat="50.11674" lon="8.91481">
        <ele>151.585854</ele>
        <time>2023-07-03T10:46:45.657Z</time>
      </trkpt>
      <trkpt lat="50.11665" lon="8.91485">
        <ele>151.61729</ele>
        <time>2023-07-03T10:46:47.650Z</time>
      </trkpt>
      <trkpt lat="50.11652" lon="8.91489">
        <ele>151.660274</ele>
        <time>2023-07-03T10:46:50.655Z</time>
      </trkpt>
      <trkpt lat="50.11638" lon="8.91495">
        <ele>151.706015</ele>
        <time>2023-07-03T10:46:53.659Z</time>
      </trkpt>
      <trkpt lat="50.11628" lon="8.91498">
        <ele>151.738764</ele>
        <time>2023-07-03T10:46:55.669Z</time>
      </trkpt>
      <trkpt lat="50.11618" lon="8.91501">
        <ele>151.771626</ele>
        <time>2023-07-03T10:46:57.654Z</time>
      </trkpt>
      <trkpt lat="50.11608" lon="8.91504">
        <ele>151.804848</ele>
        <time>2023-07-03T10:46:59.656Z</time>
      </trkpt>
      <trkpt lat="50.11599" lon="8.91508">
        <ele>151.836175</ele>
        <time>2023-07-03T10:47:01.666Z</time>
      </trkpt>
      <trkpt lat="50.1159" lon="8.91512">
        <ele>151.866983</ele>
        <time>2023-07-03T10:47:03.654Z</time>
      </trkpt>
      <trkpt lat="50.11581" lon="8.91516">
        <ele>151.898679</ele>
        <time>2023-07-03T10:47:05.650Z</time>
      </trkpt>
      <trkpt lat="50.11571" lon="8.91519">
        <ele>151.929183</ele>
        <time>2023-07-03T10:47:07.654Z</time>
      </trkpt>
      <trkpt lat="50.11562" lon="8.91521">
        <ele>151.959047</ele>
        <time>2023-07-03T10:47:09.665Z</time>
      </trkpt>
      <trkpt lat="50.11553" lon="8.91525">
        <ele>151.989222</ele>
        <time>2023-07-03T10:47:11.650Z</time>
      </trkpt>
      <trkpt lat="50.11544" lon="8.91528">
        <ele>151.990812</ele>
        <time>2023-07-03T10:47:13.648Z</time>
      </trkpt>
      <trkpt lat="50.11535" lon="8.91531">
        <ele>151.974697</ele>
        <time>2023-07-03T10:47:15.673Z</time>
      </trkpt>
      <trkpt lat="50.11526" lon="8.91534">
        <ele>151.958897</ele>
        <time>2023-07-03T10:47:17.681Z</time>
      </trkpt>
      <trkpt lat="50.11513" lon="8.91539">
        <ele>151.935656</ele>
        <time>2023-07-03T10:47:20.656Z</time>
      </trkpt>
      <trkpt lat="50.115" lon="8.91544">
        <ele>151.91251</ele>
        <time>2023-07-03T10:47:23.661Z</time>
      </trkpt>
      <trkpt lat="50.11491" lon="8.91547">
        <ele>151.895647</ele>
        <time>2023-07-03T10:47:25.648Z</time>
      </trkpt>
      <trkpt lat="50.11481" lon="8.9155">
        <ele>151.879266</ele>
        <time>2023-07-03T10:47:27.656Z</time>
      </trkpt>
      <trkpt lat="50.11472" lon="8.91553">
        <ele>151.862969</ele>
        <time>2023-07-03T10:47:29.652Z</time>
      </trkpt>
      <trkpt lat="50.11463" lon="8.91555">
        <ele>151.8473</ele>
        <time>2023-07-03T10:47:31.673Z</time>
      </trkpt>
      <trkpt lat="50.11453" lon="8.91558">
        <ele>151.830018</ele>
        <time>2023-07-03T10:47:33.673Z</time>
      </trkpt>
      <trkpt lat="50.11444" lon="8.91562">
        <ele>151.813147</ele>
        <time>2023-07-03T10:47:35.668Z</time>
      </trkpt>
      <trkpt lat="50.11435" lon="8.91566">
        <ele>151.797049</ele>
        <time>2023-07-03T10:47:37.649Z</time>
      </trkpt>
      <trkpt lat="50.11422" lon="8.9157">
        <ele>151.774154</ele>
        <time>2023-07-03T10:47:40.673Z</time>
      </trkpt>
      <trkpt lat="50.11413" lon="8.91572">
        <ele>151.758104</ele>
        <time>2023-07-03T10:47:42.665Z</time>
      </trkpt>
      <trkpt lat="50.11404" lon="8.91577">
        <ele>151.742025</ele>
        <time>2023-07-03T10:47:44.664Z</time>
      </trkpt>
      <trkpt lat="50.11395" lon="8.9158">
        <ele>151.725548</ele>
        <time>2023-07-03T10:47:46.666Z</time>
      </trkpt>
      <trkpt lat="50.11385" lon="8.91583">
        <ele>151.708223</ele>
        <time>2023-07-03T10:47:48.656Z</time>
      </trkpt>
      <trkpt lat="50.11375" lon="8.91586">
        <ele>151.69058</ele>
        <time>2023-07-03T10:47:50.655Z</time>
      </trkpt>
      <trkpt lat="50.11365" lon="8.91588">
        <ele>151.779287</ele>
        <time>2023-07-03T10:47:52.675Z</time>
      </trkpt>
      <trkpt lat="50.11355" lon="8.91588">
        <ele>151.877046</ele>
        <time>2023-07-03T10:47:54.643Z</time>
      </trkpt>
      <trkpt lat="50.11345" lon="8.9159">
        <ele>151.970632</ele>
        <time>2023-07-03T10:47:56.653Z</time>
      </trkpt>
      <trkpt lat="50.11336" lon="8.91592">
        <ele>152.060001</ele>
        <time>2023-07-03T10:47:58.671Z</time>
      </trkpt>
      <trkpt lat="50.11327" lon="8.91596">
        <ele>152.148036</ele>
        <time>2023-07-03T10:48:00.659Z</time>
      </trkpt>
      <trkpt lat="50.11314" lon="8.916">
        <ele>152.269725</ele>
        <time>2023-07-03T10:48:03.670Z</time>
      </trkpt>
      <trkpt lat="50.11302" lon="8.91603">
        <ele>152.389664</ele>
        <time>2023-07-03T10:48:06.656Z</time>
      </trkpt>
      <trkpt lat="50.11293" lon="8.91606">
        <ele>152.475286</ele>
        <time>2023-07-03T10:48:08.670Z</time>
      </trkpt>
      <trkpt lat="50.11284" lon="8.91609">
        <ele>152.562254</ele>
        <time>2023-07-03T10:48:10.657Z</time>
      </trkpt>
      <trkpt lat="50.11272" lon="8.91616">
        <ele>152.684814</ele>
        <time>2023-07-03T10:48:13.635Z</time>
      </trkpt>
      <trkpt lat="50.11263" lon="8.91623">
        <ele>152.776607</ele>
        <time>2023-07-03T10:48:15.652Z</time>
      </trkpt>
      <trkpt lat="50.11254" lon="8.91627">
        <ele>152.864132</ele>
        <time>2023-07-03T10:48:17.665Z</time>
      </trkpt>
      <trkpt lat="50.11245" lon="8.91631">
        <ele>152.951128</ele>
        <time>2023-07-03T10:48:19.674Z</time>
      </trkpt>
      <trkpt lat="50.11236" lon="8.91635">
        <ele>153.041006</ele>
        <time>2023-07-03T10:48:21.657Z</time>
      </trkpt>
      <trkpt lat="50.11223" lon="8.91635">
        <ele>153.167289</ele>
        <time>2023-07-03T10:48:24.663Z</time>
      </trkpt>
      <trkpt lat="50.11211" lon="8.91639">
        <ele>153.278495</ele>
        <time>2023-07-03T10:48:27.656Z</time>
      </trkpt>
      <trkpt lat="50.11199" lon="8.9164">
        <ele>153.392549</ele>
        <time>2023-07-03T10:48:30.642Z</time>
      </trkpt>
      <trkpt lat="50.11187" lon="8.91637">
        <ele>153.219375</ele>
        <time>2023-07-03T10:48:33.653Z</time>
      </trkpt>
      <trkpt lat="50.11177" lon="8.91639">
        <ele>153.061167</ele>
        <time>2023-07-03T10:48:35.649Z</time>
      </trkpt>
      <trkpt lat="50.11168" lon="8.91641">
        <ele>152.920109</ele>
        <time>2023-07-03T10:48:37.658Z</time>
      </trkpt>
      <trkpt lat="50.11158" lon="8.91645">
        <ele>152.774646</ele>
        <time>2023-07-03T10:48:39.650Z</time>
      </trkpt>
      <trkpt lat="50.11149" lon="8.9165">
        <ele>152.636354</ele>
        <time>2023-07-03T10:48:41.650Z</time>
      </trkpt>
      <trkpt lat="50.11139" lon="8.91652">
        <ele>152.481207</ele>
        <time>2023-07-03T10:48:43.674Z</time>
      </trkpt>
      <trkpt lat="50.11129" lon="8.91655">
        <ele>152.328313</ele>
        <time>2023-07-03T10:48:45.653Z</time>
      </trkpt>
      <trkpt lat="50.11119" lon="8.91657">
        <ele>152.16712</ele>
        <time>2023-07-03T10:48:47.651Z</time>
      </trkpt>
      <trkpt lat="50.11108" lon="8.91659">
        <ele>152.000933</ele>
        <time>2023-07-03T10:48:49.673Z</time>
      </trkpt>
      <trkpt lat="50.11096" lon="8.91661">
        <ele>151.824889</ele>
        <time>2023-07-03T10:48:51.657Z</time>
      </trkpt>
      <trkpt lat="50.11084" lon="8.91662">
        <ele>151.653244</ele>
        <time>2023-07-03T10:48:53.660Z</time>
      </trkpt>
      <trkpt lat="50.11073" lon="8.91664">
        <ele>151.482702</ele>
        <time>2023-07-03T10:48:55.641Z</time>
      </trkpt>
      <trkpt lat="50.11062" lon="8.91667">
        <ele>151.318522</ele>
        <time>2023-07-03T10:48:57.669Z</time>
      </trkpt>
      <trkpt lat="50.11052" lon="8.9167">
        <ele>151.161393</ele>
        <time>2023-07-03T10:48:59.666Z</time>
      </trkpt>
      <trkpt lat="50.11042" lon="8.91673">
        <ele>151.007724</ele>
        <time>2023-07-03T10:49:01.657Z</time>
      </trkpt>
      <trkpt lat="50.11032" lon="8.91675">
        <ele>150.851098</ele>
        <time>2023-07-03T10:49:03.648Z</time>
      </trkpt>
      <trkpt lat="50.11021" lon="8.91677">
        <ele>150.697309</ele>
        <time>2023-07-03T10:49:05.648Z</time>
      </trkpt>
      <trkpt lat="50.11011" lon="8.91677">
        <ele>150.649676</ele>
        <time>2023-07-03T10:49:07.646Z</time>
      </trkpt>
      <trkpt lat="50.11002" lon="8.91679">
        <ele>150.605136</ele>
        <time>2023-07-03T10:49:09.634Z</time>
      </trkpt>
      <trkpt lat="50.10991" lon="8.91679">
        <ele>150.556584</ele>
        <time>2023-07-03T10:49:11.648Z</time>
      </trkpt>
      <trkpt lat="50.1098" lon="8.9168">
        <ele>150.504115</ele>
        <time>2023-07-03T10:49:13.641Z</time>
      </trkpt>
      <trkpt lat="50.1097" lon="8.91682">
        <ele>150.453854</ele>
        <time>2023-07-03T10:49:15.654Z</time>
      </trkpt>
      <trkpt lat="50.1096" lon="8.91683">
        <ele>150.407988</ele>
        <time>2023-07-03T10:49:17.687Z</time>
      </trkpt>
      <trkpt lat="50.10951" lon="8.91684">
        <ele>150.364494</ele>
        <time>2023-07-03T10:49:19.656Z</time>
      </trkpt>
      <trkpt lat="50.10941" lon="8.91685">
        <ele>150.319121</ele>
        <time>2023-07-03T10:49:21.668Z</time>
      </trkpt>
      <trkpt lat="50.10927" lon="8.91688">
        <ele>150.25417</ele>
        <time>2023-07-03T10:49:24.669Z</time>
      </trkpt>
      <trkpt lat="50.10918" lon="8.91694">
        <ele>150.204038</ele>
        <time>2023-07-03T10:49:27.655Z</time>
      </trkpt>
      <trkpt lat="50.10911" lon="8.91704">
        <ele>150.158789</ele>
        <time>2023-07-03T10:49:30.648Z</time>
      </trkpt>
      <trkpt lat="50.10901" lon="8.91695">
        <ele>150.107831</ele>
        <time>2023-07-03T10:49:33.641Z</time>
      </trkpt>
      <trkpt lat="50.10891" lon="8.91685">
        <ele>150.050395</ele>
        <time>2023-07-03T10:49:36.638Z</time>
      </trkpt>
      <trkpt lat="50.10882" lon="8.91679">
        <ele>150.00394</ele>
        <time>2023-07-03T10:49:38.650Z</time>
      </trkpt>
      <trkpt lat="50.1087" lon="8.91677">
        <ele>149.945707</ele>
        <time>2023-07-03T10:49:41.634Z</time>
      </trkpt>
      <trkpt lat="50.10857" lon="8.91677">
        <ele>149.886773</ele>
        <time>2023-07-03T10:49:44.641Z</time>
      </trkpt>
      <trkpt lat="50.10845" lon="8.91679">
        <ele>149.924089</ele>
        <time>2023-07-03T10:49:47.651Z</time>
      </trkpt>
      <trkpt lat="50.10833" lon="8.91678">
        <ele>150.087027</ele>
        <time>2023-07-03T10:49:50.625Z</time>
      </trkpt>
      <trkpt lat="50.1082" lon="8.9168">
        <ele>150.274693</ele>
        <time>2023-07-03T10:49:53.649Z</time>
      </trkpt>
      <trkpt lat="50.10808" lon="8.91683">
        <ele>150.453002</ele>
        <time>2023-07-03T10:49:56.658Z</time>
      </trkpt>
      <trkpt lat="50.10796" lon="8.91685">
        <ele>150.630898</ele>
        <time>2023-07-03T10:49:59.653Z</time>
      </trkpt>
      <trkpt lat="50.10783" lon="8.91686">
        <ele>150.815721</ele>
        <time>2023-07-03T10:50:02.654Z</time>
      </trkpt>
      <trkpt lat="50.10774" lon="8.91688">
        <ele>150.946509</ele>
        <time>2023-07-03T10:50:04.651Z</time>
      </trkpt>
      <trkpt lat="50.1076" lon="8.91692">
        <ele>151.141655</ele>
        <time>2023-07-03T10:50:07.643Z</time>
      </trkpt>
      <trkpt lat="50.10752" lon="8.91696">
        <ele>151.270663</ele>
        <time>2023-07-03T10:50:09.649Z</time>
      </trkpt>
      <trkpt lat="50.10739" lon="8.91704">
        <ele>151.462123</ele>
        <time>2023-07-03T10:50:12.681Z</time>
      </trkpt>
      <trkpt lat="50.10727" lon="8.91711">
        <ele>151.648051</ele>
        <time>2023-07-03T10:50:15.662Z</time>
      </trkpt>
      <trkpt lat="50.10715" lon="8.91718">
        <ele>151.825223</ele>
        <time>2023-07-03T10:50:18.659Z</time>
      </trkpt>
      <trkpt lat="50.10704" lon="8.91724">
        <ele>151.996476</ele>
        <time>2023-07-03T10:50:21.653Z</time>
      </trkpt>
      <trkpt lat="50.10692" lon="8.91731">
        <ele>152.173404</ele>
        <time>2023-07-03T10:50:24.644Z</time>
      </trkpt>
      <trkpt lat="50.10682" lon="8.91741">
        <ele>152.350716</ele>
        <time>2023-07-03T10:50:27.665Z</time>
      </trkpt>
      <trkpt lat="50.1067" lon="8.91752">
        <ele>152.499361</ele>
        <time>2023-07-03T10:50:30.668Z</time>
      </trkpt>
      <trkpt lat="50.10661" lon="8.91766">
        <ele>152.620874</ele>
        <time>2023-07-03T10:50:33.640Z</time>
      </trkpt>
      <trkpt lat="50.10652" lon="8.91779">
        <ele>152.734538</ele>
        <time>2023-07-03T10:50:36.651Z</time>
      </trkpt>
      <trkpt lat="50.10644" lon="8.91792">
        <ele>152.844823</ele>
        <time>2023-07-03T10:50:39.666Z</time>
      </trkpt>
      <trkpt lat="50.10636" lon="8.91802">
        <ele>152.940384</ele>
        <time>2023-07-03T10:50:42.661Z</time>
      </trkpt>
      <trkpt lat="50.10631" lon="8.91814">
        <ele>153.028764</ele>
        <time>2023-07-03T10:50:45.645Z</time>
      </trkpt>
      <trkpt lat="50.10622" lon="8.91821">
        <ele>153.11816</ele>
        <time>2023-07-03T10:50:50.646Z</time>
      </trkpt>
      <trkpt lat="50.10617" lon="8.91805">
        <ele>153.223205</ele>
        <time>2023-07-03T10:50:54.655Z</time>
      </trkpt>
      <trkpt lat="50.10611" lon="8.91789">
        <ele>153.334309</ele>
        <time>2023-07-03T10:50:58.668Z</time>
      </trkpt>
      <trkpt lat="50.10603" lon="8.9178">
        <ele>153.423316</ele>
        <time>2023-07-03T10:51:01.642Z</time>
      </trkpt>
      <trkpt lat="50.10595" lon="8.91767">
        <ele>153.535359</ele>
        <time>2023-07-03T10:51:05.633Z</time>
      </trkpt>
      <trkpt lat="50.10587" lon="8.91759">
        <ele>153.624097</ele>
        <time>2023-07-03T10:51:08.654Z</time>
      </trkpt>
      <trkpt lat="50.10577" lon="8.91755">
        <ele>153.716969</ele>
        <time>2023-07-03T10:51:11.635Z</time>
      </trkpt>
      <trkpt lat="50.10568" lon="8.91756">
        <ele>153.807054</ele>
        <time>2023-07-03T10:51:14.649Z</time>
      </trkpt>
      <trkpt lat="50.1056" lon="8.91764">
        <ele>153.894716</ele>
        <time>2023-07-03T10:51:17.664Z</time>
      </trkpt>
      <trkpt lat="50.10552" lon="8.91772">
        <ele>153.982973</ele>
        <time>2023-07-03T10:51:20.624Z</time>
      </trkpt>
      <trkpt lat="50.1054" lon="8.91776">
        <ele>154.092544</ele>
        <time>2023-07-03T10:51:24.650Z</time>
      </trkpt>
      <trkpt lat="50.1053" lon="8.91772">
        <ele>154.197616</ele>
        <time>2023-07-03T10:51:29.669Z</time>
      </trkpt>
      <trkpt lat="50.10521" lon="8.91782">
        <ele>154.306446</ele>
        <time>2023-07-03T10:51:33.645Z</time>
      </trkpt>
      <trkpt lat="50.10516" lon="8.91796">
        <ele>154.41364</ele>
        <time>2023-07-03T10:51:36.649Z</time>
      </trkpt>
      <trkpt lat="50.10509" lon="8.91809">
        <ele>154.522832</ele>
        <time>2023-07-03T10:51:39.645Z</time>
      </trkpt>
      <trkpt lat="50.105" lon="8.91825">
        <ele>154.66169</ele>
        <time>2023-07-03T10:51:42.652Z</time>
      </trkpt>
      <trkpt lat="50.10493" lon="8.91833">
        <ele>154.7524</ele>
        <time>2023-07-03T10:51:44.656Z</time>
      </trkpt>
      <trkpt lat="50.10482" lon="8.91845">
        <ele>154.882401</ele>
        <time>2023-07-03T10:51:47.652Z</time>
      </trkpt>
      <trkpt lat="50.10475" lon="8.91854">
        <ele>154.98023</ele>
        <time>2023-07-03T10:51:49.651Z</time>
      </trkpt>
      <trkpt lat="50.10467" lon="8.91864">
        <ele>155.08124</ele>
        <time>2023-07-03T10:51:51.657Z</time>
      </trkpt>
      <trkpt lat="50.10458" lon="8.91872">
        <ele>155.185702</ele>
        <time>2023-07-03T10:51:53.626Z</time>
      </trkpt>
      <trkpt lat="50.1045" lon="8.91883">
        <ele>155.293893</ele>
        <time>2023-07-03T10:51:55.654Z</time>
      </trkpt>
      <trkpt lat="50.10442" lon="8.91893">
        <ele>155.396607</ele>
        <time>2023-07-03T10:51:57.643Z</time>
      </trkpt>
      <trkpt lat="50.10435" lon="8.91903">
        <ele>155.495324</ele>
        <time>2023-07-03T10:51:59.652Z</time>
      </trkpt>
      <trkpt lat="50.10428" lon="8.91913">
        <ele>155.594845</ele>
        <time>2023-07-03T10:52:01.649Z</time>
      </trkpt>
      <trkpt lat="50.10421" lon="8.91923">
        <ele>155.690526</ele>
        <time>2023-07-03T10:52:03.652Z</time>
      </trkpt>
      <trkpt lat="50.10413" lon="8.91934">
        <ele>155.788709</ele>
        <time>2023-07-03T10:52:05.650Z</time>
      </trkpt>
      <trkpt lat="50.10407" lon="8.91945">
        <ele>155.888914</ele>
        <time>2023-07-03T10:52:07.649Z</time>
      </trkpt>
      <trkpt lat="50.10397" lon="8.91959">
        <ele>155.874928</ele>
        <time>2023-07-03T10:52:10.658Z</time>
      </trkpt>
      <trkpt lat="50.10387" lon="8.91974">
        <ele>155.813514</ele>
        <time>2023-07-03T10:52:13.649Z</time>
      </trkpt>
      <trkpt lat="50.10378" lon="8.91988">
        <ele>155.754933</ele>
        <time>2023-07-03T10:52:16.646Z</time>
      </trkpt>
      <trkpt lat="50.10369" lon="8.92002">
        <ele>155.695907</ele>
        <time>2023-07-03T10:52:19.658Z</time>
      </trkpt>
      <trkpt lat="50.10361" lon="8.9202">
        <ele>155.635029</ele>
        <time>2023-07-03T10:52:22.660Z</time>
      </trkpt>
      <trkpt lat="50.10355" lon="8.92031">
        <ele>155.593663</ele>
        <time>2023-07-03T10:52:24.656Z</time>
      </trkpt>
      <trkpt lat="50.10352" lon="8.92044">
        <ele>155.552198</ele>
        <time>2023-07-03T10:52:26.643Z</time>
      </trkpt>
      <trkpt lat="50.10347" lon="8.92056">
        <ele>155.510622</ele>
        <time>2023-07-03T10:52:28.659Z</time>
      </trkpt>
      <trkpt lat="50.1034" lon="8.92073">
        <ele>155.453195</ele>
        <time>2023-07-03T10:52:31.644Z</time>
      </trkpt>
      <trkpt lat="50.10333" lon="8.92091">
        <ele>155.391139</ele>
        <time>2023-07-03T10:52:34.651Z</time>
      </trkpt>
      <trkpt lat="50.10327" lon="8.92103">
        <ele>155.348095</ele>
        <time>2023-07-03T10:52:36.632Z</time>
      </trkpt>
      <trkpt lat="50.1032" lon="8.92121">
        <ele>155.28773</ele>
        <time>2023-07-03T10:52:39.648Z</time>
      </trkpt>
      <trkpt lat="50.10313" lon="8.9213">
        <ele>155.246606</ele>
        <time>2023-07-03T10:52:41.658Z</time>
      </trkpt>
      <trkpt lat="50.10307" lon="8.92141">
        <ele>155.204839</ele>
        <time>2023-07-03T10:52:43.655Z</time>
      </trkpt>
      <trkpt lat="50.10301" lon="8.92152">
        <ele>155.161085</ele>
        <time>2023-07-03T10:52:45.647Z</time>
      </trkpt>
      <trkpt lat="50.10292" lon="8.92168">
        <ele>155.102858</ele>
        <time>2023-07-03T10:52:48.666Z</time>
      </trkpt>
      <trkpt lat="50.10284" lon="8.92183">
        <ele>155.063102</ele>
        <time>2023-07-03T10:52:51.655Z</time>
      </trkpt>
      <trkpt lat="50.10278" lon="8.92194">
        <ele>155.034698</ele>
        <time>2023-07-03T10:52:53.651Z</time>
      </trkpt>
      <trkpt lat="50.10269" lon="8.92209">
        <ele>154.992607</ele>
        <time>2023-07-03T10:52:56.662Z</time>
      </trkpt>
      <trkpt lat="50.10262" lon="8.92225">
        <ele>154.952806</ele>
        <time>2023-07-03T10:52:59.661Z</time>
      </trkpt>
      <trkpt lat="50.10254" lon="8.9224">
        <ele>154.914308</ele>
        <time>2023-07-03T10:53:02.657Z</time>
      </trkpt>
      <trkpt lat="50.10247" lon="8.92255">
        <ele>154.874747</ele>
        <time>2023-07-03T10:53:05.652Z</time>
      </trkpt>
      <trkpt lat="50.10238" lon="8.92271">
        <ele>154.833993</ele>
        <time>2023-07-03T10:53:08.661Z</time>
      </trkpt>
      <trkpt lat="50.1023" lon="8.92287">
        <ele>154.790759</ele>
        <time>2023-07-03T10:53:11.653Z</time>
      </trkpt>
      <trkpt lat="50.10224" lon="8.92298">
        <ele>154.762422</ele>
        <time>2023-07-03T10:53:13.644Z</time>
      </trkpt>
      <trkpt lat="50.10216" lon="8.92313">
        <ele>154.723497</ele>
        <time>2023-07-03T10:53:16.656Z</time>
      </trkpt>
      <trkpt lat="50.10207" lon="8.92328">
        <ele>154.681518</ele>
        <time>2023-07-03T10:53:19.643Z</time>
      </trkpt>
      <trkpt lat="50.10199" lon="8.92342">
        <ele>154.644064</ele>
        <time>2023-07-03T10:53:22.659Z</time>
      </trkpt>
      <trkpt lat="50.10194" lon="8.92353">
        <ele>154.615324</ele>
        <time>2023-07-03T10:53:24.643Z</time>
      </trkpt>
      <trkpt lat="50.10184" lon="8.92368">
        <ele>154.57298</ele>
        <time>2023-07-03T10:53:27.656Z</time>
      </trkpt>
      <trkpt lat="50.10176" lon="8.92384">
        <ele>154.61062</ele>
        <time>2023-07-03T10:53:30.665Z</time>
      </trkpt>
      <trkpt lat="50.10167" lon="8.924">
        <ele>154.986943</ele>
        <time>2023-07-03T10:53:33.649Z</time>
      </trkpt>
      <trkpt lat="50.10161" lon="8.9241">
        <ele>155.243148</ele>
        <time>2023-07-03T10:53:35.652Z</time>
      </trkpt>
      <trkpt lat="50.10155" lon="8.9242">
        <ele>155.499572</ele>
        <time>2023-07-03T10:53:37.667Z</time>
      </trkpt>
      <trkpt lat="50.10147" lon="8.92436">
        <ele>155.853742</ele>
        <time>2023-07-03T10:53:40.647Z</time>
      </trkpt>
      <trkpt lat="50.1014" lon="8.92452">
        <ele>156.213003</ele>
        <time>2023-07-03T10:53:43.640Z</time>
      </trkpt>
      <trkpt lat="50.10133" lon="8.92465">
        <ele>156.516724</ele>
        <time>2023-07-03T10:53:46.662Z</time>
      </trkpt>
      <trkpt lat="50.10125" lon="8.92475">
        <ele>156.799123</ele>
        <time>2023-07-03T10:53:49.657Z</time>
      </trkpt>
      <trkpt lat="50.10117" lon="8.92484">
        <ele>157.09406</ele>
        <time>2023-07-03T10:53:53.653Z</time>
      </trkpt>
      <trkpt lat="50.10113" lon="8.92501">
        <ele>157.41472</ele>
        <time>2023-07-03T10:53:59.650Z</time>
      </trkpt>
      <trkpt lat="50.10112" lon="8.92519">
        <ele>157.743331</ele>
        <time>2023-07-03T10:54:02.639Z</time>
      </trkpt>
      <trkpt lat="50.10118" lon="8.92537">
        <ele>158.113573</ele>
        <time>2023-07-03T10:54:05.652Z</time>
      </trkpt>
      <trkpt lat="50.10125" lon="8.92554">
        <ele>158.481545</ele>
        <time>2023-07-03T10:54:08.659Z</time>
      </trkpt>
      <trkpt lat="50.10132" lon="8.92571">
        <ele>158.838882</ele>
        <time>2023-07-03T10:54:11.655Z</time>
      </trkpt>
      <trkpt lat="50.10138" lon="8.92588">
        <ele>159.201125</ele>
        <time>2023-07-03T10:54:14.656Z</time>
      </trkpt>
      <trkpt lat="50.10143" lon="8.92601">
        <ele>159.4732</ele>
        <time>2023-07-03T10:54:16.658Z</time>
      </trkpt>
      <trkpt lat="50.10146" lon="8.92616">
        <ele>159.618986</ele>
        <time>2023-07-03T10:54:18.661Z</time>
      </trkpt>
      <trkpt lat="50.10149" lon="8.9263">
        <ele>159.604401</ele>
        <time>2023-07-03T10:54:20.655Z</time>
      </trkpt>
      <trkpt lat="50.10154" lon="8.92649">
        <ele>159.585218</ele>
        <time>2023-07-03T10:54:23.649Z</time>
      </trkpt>
      <trkpt lat="50.10158" lon="8.92667">
        <ele>159.566845</ele>
        <time>2023-07-03T10:54:26.650Z</time>
      </trkpt>
      <trkpt lat="50.10161" lon="8.92686">
        <ele>159.547662</ele>
        <time>2023-07-03T10:54:29.650Z</time>
      </trkpt>
      <trkpt lat="50.10163" lon="8.92701">
        <ele>159.533138</ele>
        <time>2023-07-03T10:54:31.647Z</time>
      </trkpt>
      <trkpt lat="50.10164" lon="8.92717">
        <ele>159.517732</ele>
        <time>2023-07-03T10:54:33.655Z</time>
      </trkpt>
      <trkpt lat="50.10165" lon="8.92731">
        <ele>159.503978</ele>
        <time>2023-07-03T10:54:35.660Z</time>
      </trkpt>
      <trkpt lat="50.10167" lon="8.92752">
        <ele>159.4834</ele>
        <time>2023-07-03T10:54:38.649Z</time>
      </trkpt>
      <trkpt lat="50.10169" lon="8.92768">
        <ele>159.468411</ele>
        <time>2023-07-03T10:54:40.654Z</time>
      </trkpt>
      <trkpt lat="50.10171" lon="8.92783">
        <ele>159.453726</ele>
        <time>2023-07-03T10:54:42.667Z</time>
      </trkpt>
      <trkpt lat="50.10172" lon="8.92798">
        <ele>159.438874</ele>
        <time>2023-07-03T10:54:44.640Z</time>
      </trkpt>
      <trkpt lat="50.10173" lon="8.92814">
        <ele>159.422972</ele>
        <time>2023-07-03T10:54:46.647Z</time>
      </trkpt>
      <trkpt lat="50.10174" lon="8.9283">
        <ele>159.407375</ele>
        <time>2023-07-03T10:54:48.655Z</time>
      </trkpt>
      <trkpt lat="50.10176" lon="8.92847">
        <ele>159.390862</ele>
        <time>2023-07-03T10:54:50.654Z</time>
      </trkpt>
      <trkpt lat="50.10177" lon="8.92864">
        <ele>159.374626</ele>
        <time>2023-07-03T10:54:52.670Z</time>
      </trkpt>
      <trkpt lat="50.10178" lon="8.92881">
        <ele>159.358038</ele>
        <time>2023-07-03T10:54:54.672Z</time>
      </trkpt>
      <trkpt lat="50.10181" lon="8.92898">
        <ele>159.35316</ele>
        <time>2023-07-03T10:54:56.643Z</time>
      </trkpt>
      <trkpt lat="50.10182" lon="8.92914">
        <ele>159.349972</ele>
        <time>2023-07-03T10:54:58.664Z</time>
      </trkpt>
      <trkpt lat="50.10183" lon="8.92932">
        <ele>159.346713</ele>
        <time>2023-07-03T10:55:00.656Z</time>
      </trkpt>
      <trkpt lat="50.10186" lon="8.92949">
        <ele>159.343441</ele>
        <time>2023-07-03T10:55:02.664Z</time>
      </trkpt>
      <trkpt lat="50.10188" lon="8.92966">
        <ele>159.340181</ele>
        <time>2023-07-03T10:55:04.658Z</time>
      </trkpt>
      <trkpt lat="50.1019" lon="8.92983">
        <ele>159.336992</ele>
        <time>2023-07-03T10:55:06.654Z</time>
      </trkpt>
      <trkpt lat="50.10189" lon="8.93">
        <ele>159.333846</ele>
        <time>2023-07-03T10:55:08.648Z</time>
      </trkpt>
      <trkpt lat="50.1019" lon="8.93015">
        <ele>159.330869</ele>
        <time>2023-07-03T10:55:10.664Z</time>
      </trkpt>
      <trkpt lat="50.1019" lon="8.93032">
        <ele>159.327841</ele>
        <time>2023-07-03T10:55:12.657Z</time>
      </trkpt>
      <trkpt lat="50.1019" lon="8.93048">
        <ele>159.324811</ele>
        <time>2023-07-03T10:55:14.650Z</time>
      </trkpt>
      <trkpt lat="50.1019" lon="8.93063">
        <ele>159.321952</ele>
        <time>2023-07-03T10:55:16.649Z</time>
      </trkpt>
      <trkpt lat="50.10191" lon="8.93079">
        <ele>159.319073</ele>
        <time>2023-07-03T10:55:18.669Z</time>
      </trkpt>
      <trkpt lat="50.10189" lon="8.93094">
        <ele>159.316133</ele>
        <time>2023-07-03T10:55:20.663Z</time>
      </trkpt>
      <trkpt lat="50.10188" lon="8.9311">
        <ele>159.313205</ele>
        <time>2023-07-03T10:55:22.655Z</time>
      </trkpt>
      <trkpt lat="50.10187" lon="8.93124">
        <ele>159.310557</ele>
        <time>2023-07-03T10:55:24.652Z</time>
      </trkpt>
      <trkpt lat="50.10185" lon="8.93141">
        <ele>159.307358</ele>
        <time>2023-07-03T10:55:26.658Z</time>
      </trkpt>
      <trkpt lat="50.10183" lon="8.93155">
        <ele>159.304571</ele>
        <time>2023-07-03T10:55:28.656Z</time>
      </trkpt>
      <trkpt lat="50.10182" lon="8.93171">
        <ele>159.259183</ele>
        <time>2023-07-03T10:55:30.663Z</time>
      </trkpt>
      <trkpt lat="50.10181" lon="8.93187">
        <ele>159.189688</ele>
        <time>2023-07-03T10:55:32.638Z</time>
      </trkpt>
      <trkpt lat="50.10178" lon="8.93201">
        <ele>159.124561</ele>
        <time>2023-07-03T10:55:34.668Z</time>
      </trkpt>
      <trkpt lat="50.10176" lon="8.9322">
        <ele>159.038092</ele>
        <time>2023-07-03T10:55:37.647Z</time>
      </trkpt>
      <trkpt lat="50.10175" lon="8.93235">
        <ele>158.96894</ele>
        <time>2023-07-03T10:55:39.664Z</time>
      </trkpt>
      <trkpt lat="50.1017" lon="8.93255">
        <ele>158.874138</ele>
        <time>2023-07-03T10:55:42.660Z</time>
      </trkpt>
      <trkpt lat="50.10168" lon="8.9327">
        <ele>158.80857</ele>
        <time>2023-07-03T10:55:44.649Z</time>
      </trkpt>
      <trkpt lat="50.10168" lon="8.93284">
        <ele>158.744581</ele>
        <time>2023-07-03T10:55:46.662Z</time>
      </trkpt>
      <trkpt lat="50.10167" lon="8.93299">
        <ele>158.680592</ele>
        <time>2023-07-03T10:55:48.653Z</time>
      </trkpt>
      <trkpt lat="50.10167" lon="8.93314">
        <ele>158.614212</ele>
        <time>2023-07-03T10:55:50.654Z</time>
      </trkpt>
      <trkpt lat="50.10165" lon="8.93328">
        <ele>158.547581</ele>
        <time>2023-07-03T10:55:52.665Z</time>
      </trkpt>
      <trkpt lat="50.10164" lon="8.93348">
        <ele>158.458777</ele>
        <time>2023-07-03T10:55:55.654Z</time>
      </trkpt>
      <trkpt lat="50.10162" lon="8.93369">
        <ele>158.367536</ele>
        <time>2023-07-03T10:55:58.655Z</time>
      </trkpt>
      <trkpt lat="50.10162" lon="8.93389">
        <ele>158.279147</ele>
        <time>2023-07-03T10:56:01.664Z</time>
      </trkpt>
      <trkpt lat="50.10161" lon="8.93407">
        <ele>158.198107</ele>
        <time>2023-07-03T10:56:04.662Z</time>
      </trkpt>
      <trkpt lat="50.10159" lon="8.93424">
        <ele>158.122897</ele>
        <time>2023-07-03T10:56:07.661Z</time>
      </trkpt>
      <trkpt lat="50.10158" lon="8.93439">
        <ele>158.045021</ele>
        <time>2023-07-03T10:56:10.661Z</time>
      </trkpt>
      <trkpt lat="50.10151" lon="8.93449">
        <ele>157.908392</ele>
        <time>2023-07-03T10:56:13.660Z</time>
      </trkpt>
      <trkpt lat="50.10141" lon="8.93451">
        <ele>157.755032</ele>
        <time>2023-07-03T10:56:16.657Z</time>
      </trkpt>
      <trkpt lat="50.10131" lon="8.93452">
        <ele>157.603092</ele>
        <time>2023-07-03T10:56:19.650Z</time>
      </trkpt>
      <trkpt lat="50.1012" lon="8.9345">
        <ele>157.434188</ele>
        <time>2023-07-03T10:56:23.654Z</time>
      </trkpt>
      <trkpt lat="50.10119" lon="8.93464">
        <ele>157.299085</ele>
        <time>2023-07-03T10:56:30.657Z</time>
      </trkpt>
      <trkpt lat="50.10127" lon="8.93471">
        <ele>157.164221</ele>
        <time>2023-07-03T10:56:33.669Z</time>
      </trkpt>
      <trkpt lat="50.10125" lon="8.93491">
        <ele>156.974853</ele>
        <time>2023-07-03T10:56:36.642Z</time>
      </trkpt>
      <trkpt lat="50.10121" lon="8.9351">
        <ele>156.783334</ele>
        <time>2023-07-03T10:56:39.667Z</time>
      </trkpt>
      <trkpt lat="50.10117" lon="8.93524">
        <ele>156.634398</ele>
        <time>2023-07-03T10:56:41.653Z</time>
      </trkpt>
      <trkpt lat="50.10114" lon="8.93539">
        <ele>156.480205</ele>
        <time>2023-07-03T10:56:43.640Z</time>
      </trkpt>
      <trkpt lat="50.10111" lon="8.93556">
        <ele>156.316005</ele>
        <time>2023-07-03T10:56:45.662Z</time>
      </trkpt>
      <trkpt lat="50.10108" lon="8.93572">
        <ele>156.15311</ele>
        <time>2023-07-03T10:56:47.660Z</time>
      </trkpt>
      <trkpt lat="50.10105" lon="8.93588">
        <ele>155.993461</ele>
        <time>2023-07-03T10:56:49.668Z</time>
      </trkpt>
      <trkpt lat="50.101" lon="8.93605">
        <ele>155.824205</ele>
        <time>2023-07-03T10:56:51.675Z</time>
      </trkpt>
      <trkpt lat="50.10097" lon="8.93622">
        <ele>155.652272</ele>
        <time>2023-07-03T10:56:53.656Z</time>
      </trkpt>
      <trkpt lat="50.10093" lon="8.93639">
        <ele>155.479386</ele>
        <time>2023-07-03T10:56:55.654Z</time>
      </trkpt>
      <trkpt lat="50.1009" lon="8.93655">
        <ele>155.323598</ele>
        <time>2023-07-03T10:56:57.634Z</time>
      </trkpt>
      <trkpt lat="50.10088" lon="8.93674">
        <ele>155.174967</ele>
        <time>2023-07-03T10:56:59.653Z</time>
      </trkpt>
      <trkpt lat="50.10088" lon="8.93692">
        <ele>155.027253</ele>
        <time>2023-07-03T10:57:01.664Z</time>
      </trkpt>
      <trkpt lat="50.10087" lon="8.9371">
        <ele>154.888907</ele>
        <time>2023-07-03T10:57:03.674Z</time>
      </trkpt>
      <trkpt lat="50.10086" lon="8.93727">
        <ele>154.751249</ele>
        <time>2023-07-03T10:57:05.661Z</time>
      </trkpt>
      <trkpt lat="50.10084" lon="8.93742">
        <ele>154.625757</ele>
        <time>2023-07-03T10:57:07.655Z</time>
      </trkpt>
      <trkpt lat="50.10082" lon="8.93759">
        <ele>154.487428</ele>
        <time>2023-07-03T10:57:09.653Z</time>
      </trkpt>
      <trkpt lat="50.1008" lon="8.93776">
        <ele>154.352801</ele>
        <time>2023-07-03T10:57:11.654Z</time>
      </trkpt>
      <trkpt lat="50.10077" lon="8.93794">
        <ele>154.21066</ele>
        <time>2023-07-03T10:57:13.655Z</time>
      </trkpt>
      <trkpt lat="50.10074" lon="8.9381">
        <ele>154.077791</ele>
        <time>2023-07-03T10:57:15.650Z</time>
      </trkpt>
      <trkpt lat="50.10071" lon="8.93824">
        <ele>153.957282</ele>
        <time>2023-07-03T10:57:17.651Z</time>
      </trkpt>
      <trkpt lat="50.10068" lon="8.93839">
        <ele>153.827395</ele>
        <time>2023-07-03T10:57:19.675Z</time>
      </trkpt>
      <trkpt lat="50.10064" lon="8.93854">
        <ele>153.696126</ele>
        <time>2023-07-03T10:57:21.648Z</time>
      </trkpt>
      <trkpt lat="50.10057" lon="8.93867">
        <ele>153.566893</ele>
        <time>2023-07-03T10:57:23.644Z</time>
      </trkpt>
      <trkpt lat="50.10052" lon="8.9388">
        <ele>153.442628</ele>
        <time>2023-07-03T10:57:25.652Z</time>
      </trkpt>
      <trkpt lat="50.10046" lon="8.93892">
        <ele>153.320724</ele>
        <time>2023-07-03T10:57:27.657Z</time>
      </trkpt>
      <trkpt lat="50.1004" lon="8.93903">
        <ele>153.203184</ele>
        <time>2023-07-03T10:57:29.672Z</time>
      </trkpt>
      <trkpt lat="50.10034" lon="8.93914">
        <ele>153.120864</ele>
        <time>2023-07-03T10:57:31.651Z</time>
      </trkpt>
      <trkpt lat="50.10025" lon="8.9393">
        <ele>153.049185</ele>
        <time>2023-07-03T10:57:34.640Z</time>
      </trkpt>
      <trkpt lat="50.10019" lon="8.93943">
        <ele>152.995485</ele>
        <time>2023-07-03T10:57:36.648Z</time>
      </trkpt>
      <trkpt lat="50.10012" lon="8.93954">
        <ele>152.941098</ele>
        <time>2023-07-03T10:57:38.640Z</time>
      </trkpt>
      <trkpt lat="50.10006" lon="8.93966">
        <ele>152.886663</ele>
        <time>2023-07-03T10:57:40.662Z</time>
      </trkpt>
      <trkpt lat="50.09999" lon="8.93978">
        <ele>152.832022</ele>
        <time>2023-07-03T10:57:42.653Z</time>
      </trkpt>
      <trkpt lat="50.0999" lon="8.93988">
        <ele>152.773613</ele>
        <time>2023-07-03T10:57:44.652Z</time>
      </trkpt>
      <trkpt lat="50.09982" lon="8.93999">
        <ele>152.714569</ele>
        <time>2023-07-03T10:57:46.642Z</time>
      </trkpt>
      <trkpt lat="50.09974" lon="8.9401">
        <ele>152.656576</ele>
        <time>2023-07-03T10:57:48.661Z</time>
      </trkpt>
      <trkpt lat="50.09965" lon="8.9402">
        <ele>152.599668</ele>
        <time>2023-07-03T10:57:50.652Z</time>
      </trkpt>
      <trkpt lat="50.09957" lon="8.94031">
        <ele>152.542277</ele>
        <time>2023-07-03T10:57:52.655Z</time>
      </trkpt>
      <trkpt lat="50.09949" lon="8.94042">
        <ele>152.481303</ele>
        <time>2023-07-03T10:57:54.656Z</time>
      </trkpt>
      <trkpt lat="50.09938" lon="8.94051">
        <ele>152.417586</ele>
        <time>2023-07-03T10:57:56.628Z</time>
      </trkpt>
      <trkpt lat="50.09926" lon="8.94054">
        <ele>152.353564</ele>
        <time>2023-07-03T10:57:58.648Z</time>
      </trkpt>
      <trkpt lat="50.09915" lon="8.94054">
        <ele>152.293795</ele>
        <time>2023-07-03T10:58:00.659Z</time>
      </trkpt>
      <trkpt lat="50.09905" lon="8.94052">
        <ele>152.235725</ele>
        <time>2023-07-03T10:58:02.648Z</time>
      </trkpt>
      <trkpt lat="50.09895" lon="8.9405">
        <ele>152.181561</ele>
        <time>2023-07-03T10:58:04.657Z</time>
      </trkpt>
      <trkpt lat="50.09885" lon="8.94049">
        <ele>152.167233</ele>
        <time>2023-07-03T10:58:06.627Z</time>
      </trkpt>
      <trkpt lat="50.09875" lon="8.94046">
        <ele>152.157429</ele>
        <time>2023-07-03T10:58:08.659Z</time>
      </trkpt>
      <trkpt lat="50.09864" lon="8.94044">
        <ele>152.146936</ele>
        <time>2023-07-03T10:58:10.670Z</time>
      </trkpt>
      <trkpt lat="50.09854" lon="8.94043">
        <ele>152.13716</ele>
        <time>2023-07-03T10:58:12.663Z</time>
      </trkpt>
      <trkpt lat="50.09845" lon="8.9404">
        <ele>152.12755</ele>
        <time>2023-07-03T10:58:14.663Z</time>
      </trkpt>
      <trkpt lat="50.09835" lon="8.94038">
        <ele>152.117942</ele>
        <time>2023-07-03T10:58:16.654Z</time>
      </trkpt>
      <trkpt lat="50.09825" lon="8.94038">
        <ele>152.108409</ele>
        <time>2023-07-03T10:58:18.656Z</time>
      </trkpt>
      <trkpt lat="50.09814" lon="8.9404">
        <ele>152.097649</ele>
        <time>2023-07-03T10:58:20.661Z</time>
      </trkpt>
      <trkpt lat="50.09802" lon="8.94043">
        <ele>152.085608</ele>
        <time>2023-07-03T10:58:22.664Z</time>
      </trkpt>
      <trkpt lat="50.0979" lon="8.94045">
        <ele>152.073831</ele>
        <time>2023-07-03T10:58:24.660Z</time>
      </trkpt>
      <trkpt lat="50.09779" lon="8.94047">
        <ele>152.062459</ele>
        <time>2023-07-03T10:58:26.642Z</time>
      </trkpt>
      <trkpt lat="50.09768" lon="8.94049">
        <ele>152.051289</ele>
        <time>2023-07-03T10:58:28.656Z</time>
      </trkpt>
      <trkpt lat="50.09756" lon="8.94051">
        <ele>152.039886</ele>
        <time>2023-07-03T10:58:30.653Z</time>
      </trkpt>
      <trkpt lat="50.09745" lon="8.94053">
        <ele>152.029113</ele>
        <time>2023-07-03T10:58:32.656Z</time>
      </trkpt>
      <trkpt lat="50.09735" lon="8.94055">
        <ele>152.01879</ele>
        <time>2023-07-03T10:58:34.656Z</time>
      </trkpt>
      <trkpt lat="50.09724" lon="8.94058">
        <ele>152.008341</ele>
        <time>2023-07-03T10:58:36.650Z</time>
      </trkpt>
      <trkpt lat="50.09714" lon="8.94059">
        <ele>152.005186</ele>
        <time>2023-07-03T10:58:38.664Z</time>
      </trkpt>
      <trkpt lat="50.09703" lon="8.94062">
        <ele>152.04861</ele>
        <time>2023-07-03T10:58:40.658Z</time>
      </trkpt>
      <trkpt lat="50.09694" lon="8.94064">
        <ele>152.089841</ele>
        <time>2023-07-03T10:58:42.663Z</time>
      </trkpt>
      <trkpt lat="50.09683" lon="8.94066">
        <ele>152.132002</ele>
        <time>2023-07-03T10:58:44.653Z</time>
      </trkpt>
      <trkpt lat="50.09674" lon="8.94067">
        <ele>152.171314</ele>
        <time>2023-07-03T10:58:46.650Z</time>
      </trkpt>
      <trkpt lat="50.09664" lon="8.94069">
        <ele>152.21108</ele>
        <time>2023-07-03T10:58:48.656Z</time>
      </trkpt>
      <trkpt lat="50.09655" lon="8.94071">
        <ele>152.251048</ele>
        <time>2023-07-03T10:58:50.657Z</time>
      </trkpt>
      <trkpt lat="50.09645" lon="8.94072">
        <ele>152.290016</ele>
        <time>2023-07-03T10:58:52.658Z</time>
      </trkpt>
      <trkpt lat="50.09636" lon="8.94074">
        <ele>152.328722</ele>
        <time>2023-07-03T10:58:54.665Z</time>
      </trkpt>
      <trkpt lat="50.09627" lon="8.94076">
        <ele>152.367805</ele>
        <time>2023-07-03T10:58:56.652Z</time>
      </trkpt>
      <trkpt lat="50.09617" lon="8.94078">
        <ele>152.408558</ele>
        <time>2023-07-03T10:58:58.656Z</time>
      </trkpt>
      <trkpt lat="50.09606" lon="8.9408">
        <ele>152.453207</ele>
        <time>2023-07-03T10:59:00.656Z</time>
      </trkpt>
      <trkpt lat="50.09596" lon="8.94082">
        <ele>152.496074</ele>
        <time>2023-07-03T10:59:02.650Z</time>
      </trkpt>
      <trkpt lat="50.09585" lon="8.94085">
        <ele>152.54008</ele>
        <time>2023-07-03T10:59:04.667Z</time>
      </trkpt>
      <trkpt lat="50.09576" lon="8.94089">
        <ele>152.580506</ele>
        <time>2023-07-03T10:59:06.651Z</time>
      </trkpt>
      <trkpt lat="50.09567" lon="8.94092">
        <ele>152.619</ele>
        <time>2023-07-03T10:59:08.647Z</time>
      </trkpt>
      <trkpt lat="50.09558" lon="8.94095">
        <ele>152.658018</ele>
        <time>2023-07-03T10:59:10.669Z</time>
      </trkpt>
      <trkpt lat="50.09548" lon="8.94098">
        <ele>152.698126</ele>
        <time>2023-07-03T10:59:12.659Z</time>
      </trkpt>
      <trkpt lat="50.09539" lon="8.94102">
        <ele>152.737832</ele>
        <time>2023-07-03T10:59:14.646Z</time>
      </trkpt>
      <trkpt lat="50.09529" lon="8.94103">
        <ele>152.729308</ele>
        <time>2023-07-03T10:59:16.646Z</time>
      </trkpt>
      <trkpt lat="50.09519" lon="8.94105">
        <ele>152.715208</ele>
        <time>2023-07-03T10:59:18.652Z</time>
      </trkpt>
      <trkpt lat="50.0951" lon="8.94108">
        <ele>152.701093</ele>
        <time>2023-07-03T10:59:20.629Z</time>
      </trkpt>
      <trkpt lat="50.095" lon="8.94111">
        <ele>152.686617</ele>
        <time>2023-07-03T10:59:22.659Z</time>
      </trkpt>
      <trkpt lat="50.0949" lon="8.94114">
        <ele>152.671823</ele>
        <time>2023-07-03T10:59:24.661Z</time>
      </trkpt>
      <trkpt lat="50.0948" lon="8.94116">
        <ele>152.657424</ele>
        <time>2023-07-03T10:59:26.638Z</time>
      </trkpt>
      <trkpt lat="50.0947" lon="8.94119">
        <ele>152.642507</ele>
        <time>2023-07-03T10:59:28.658Z</time>
      </trkpt>
      <trkpt lat="50.0946" lon="8.94122">
        <ele>152.628136</ele>
        <time>2023-07-03T10:59:30.658Z</time>
      </trkpt>
      <trkpt lat="50.0945" lon="8.94125">
        <ele>152.613676</ele>
        <time>2023-07-03T10:59:32.652Z</time>
      </trkpt>
      <trkpt lat="50.0944" lon="8.94128">
        <ele>152.598837</ele>
        <time>2023-07-03T10:59:34.658Z</time>
      </trkpt>
      <trkpt lat="50.0943" lon="8.9413">
        <ele>152.584466</ele>
        <time>2023-07-03T10:59:36.647Z</time>
      </trkpt>
      <trkpt lat="50.0942" lon="8.94131">
        <ele>152.570045</ele>
        <time>2023-07-03T10:59:38.660Z</time>
      </trkpt>
      <trkpt lat="50.0941" lon="8.94133">
        <ele>152.555544</ele>
        <time>2023-07-03T10:59:40.658Z</time>
      </trkpt>
      <trkpt lat="50.094" lon="8.94136">
        <ele>152.541257</ele>
        <time>2023-07-03T10:59:42.655Z</time>
      </trkpt>
      <trkpt lat="50.0939" lon="8.94137">
        <ele>152.526963</ele>
        <time>2023-07-03T10:59:44.656Z</time>
      </trkpt>
      <trkpt lat="50.0938" lon="8.94141">
        <ele>152.512414</ele>
        <time>2023-07-03T10:59:46.657Z</time>
      </trkpt>
      <trkpt lat="50.09371" lon="8.94142">
        <ele>152.498803</ele>
        <time>2023-07-03T10:59:48.665Z</time>
      </trkpt>
      <trkpt lat="50.09358" lon="8.94145">
        <ele>152.490955</ele>
        <time>2023-07-03T10:59:51.652Z</time>
      </trkpt>
      <trkpt lat="50.09346" lon="8.94144">
        <ele>152.529982</ele>
        <time>2023-07-03T10:59:54.660Z</time>
      </trkpt>
      <trkpt lat="50.09334" lon="8.94146">
        <ele>152.57014</ele>
        <time>2023-07-03T10:59:57.663Z</time>
      </trkpt>
      <trkpt lat="50.09322" lon="8.94147">
        <ele>152.610567</ele>
        <time>2023-07-03T11:00:00.661Z</time>
      </trkpt>
      <trkpt lat="50.09309" lon="8.94149">
        <ele>152.653051</ele>
        <time>2023-07-03T11:00:03.651Z</time>
      </trkpt>
      <trkpt lat="50.093" lon="8.9415">
        <ele>152.68458</ele>
        <time>2023-07-03T11:00:05.657Z</time>
      </trkpt>
      <trkpt lat="50.09291" lon="8.94151">
        <ele>152.714718</ele>
        <time>2023-07-03T11:00:07.652Z</time>
      </trkpt>
      <trkpt lat="50.09278" lon="8.94155">
        <ele>152.757943</ele>
        <time>2023-07-03T11:00:10.659Z</time>
      </trkpt>
      <trkpt lat="50.09269" lon="8.94157">
        <ele>152.788424</ele>
        <time>2023-07-03T11:00:12.656Z</time>
      </trkpt>
      <trkpt lat="50.09256" lon="8.9416">
        <ele>152.833594</ele>
        <time>2023-07-03T11:00:15.661Z</time>
      </trkpt>
      <trkpt lat="50.09247" lon="8.94163">
        <ele>152.864442</ele>
        <time>2023-07-03T11:00:17.649Z</time>
      </trkpt>
      <trkpt lat="50.09233" lon="8.94166">
        <ele>152.909052</ele>
        <time>2023-07-03T11:00:20.654Z</time>
      </trkpt>
      <trkpt lat="50.09224" lon="8.94168">
        <ele>152.938976</ele>
        <time>2023-07-03T11:00:22.656Z</time>
      </trkpt>
      <trkpt lat="50.09215" lon="8.9417">
        <ele>152.96959</ele>
        <time>2023-07-03T11:00:24.651Z</time>
      </trkpt>
      <trkpt lat="50.09202" lon="8.94174">
        <ele>153.013943</ele>
        <time>2023-07-03T11:00:27.657Z</time>
      </trkpt>
      <trkpt lat="50.09193" lon="8.94175">
        <ele>153.045496</ele>
        <time>2023-07-03T11:00:29.652Z</time>
      </trkpt>
      <trkpt lat="50.09183" lon="8.94177">
        <ele>153.07782</ele>
        <time>2023-07-03T11:00:31.652Z</time>
      </trkpt>
      <trkpt lat="50.09174" lon="8.94179">
        <ele>153.101908</ele>
        <time>2023-07-03T11:00:33.633Z</time>
      </trkpt>
      <trkpt lat="50.09164" lon="8.94181">
        <ele>153.124808</ele>
        <time>2023-07-03T11:00:35.664Z</time>
      </trkpt>
      <trkpt lat="50.09155" lon="8.94183">
        <ele>153.147232</ele>
        <time>2023-07-03T11:00:37.652Z</time>
      </trkpt>
      <trkpt lat="50.09146" lon="8.94185">
        <ele>153.169764</ele>
        <time>2023-07-03T11:00:39.662Z</time>
      </trkpt>
      <trkpt lat="50.09136" lon="8.94187">
        <ele>153.193006</ele>
        <time>2023-07-03T11:00:41.632Z</time>
      </trkpt>
      <trkpt lat="50.09127" lon="8.94189">
        <ele>153.21545</ele>
        <time>2023-07-03T11:00:43.648Z</time>
      </trkpt>
      <trkpt lat="50.09118" lon="8.9419">
        <ele>153.237793</ele>
        <time>2023-07-03T11:00:45.662Z</time>
      </trkpt>
      <trkpt lat="50.09104" lon="8.94192">
        <ele>153.269712</ele>
        <time>2023-07-03T11:00:48.646Z</time>
      </trkpt>
      <trkpt lat="50.09091" lon="8.94194">
        <ele>153.30051</ele>
        <time>2023-07-03T11:00:51.660Z</time>
      </trkpt>
      <trkpt lat="50.09079" lon="8.94196">
        <ele>153.330271</ele>
        <time>2023-07-03T11:00:54.653Z</time>
      </trkpt>
      <trkpt lat="50.09066" lon="8.94198">
        <ele>153.36061</ele>
        <time>2023-07-03T11:00:57.652Z</time>
      </trkpt>
      <trkpt lat="50.09054" lon="8.942">
        <ele>153.390272</ele>
        <time>2023-07-03T11:01:00.657Z</time>
      </trkpt>
      <trkpt lat="50.09042" lon="8.94202">
        <ele>153.419556</ele>
        <time>2023-07-03T11:01:03.652Z</time>
      </trkpt>
      <trkpt lat="50.0903" lon="8.94204">
        <ele>153.448656</ele>
        <time>2023-07-03T11:01:06.657Z</time>
      </trkpt>
      <trkpt lat="50.09018" lon="8.94206">
        <ele>153.477368</ele>
        <time>2023-07-03T11:01:09.673Z</time>
      </trkpt>
      <trkpt lat="50.09005" lon="8.94207">
        <ele>153.50855</ele>
        <time>2023-07-03T11:01:12.660Z</time>
      </trkpt>
      <trkpt lat="50.08992" lon="8.94209">
        <ele>153.495645</ele>
        <time>2023-07-03T11:01:15.654Z</time>
      </trkpt>
      <trkpt lat="50.08979" lon="8.94211">
        <ele>153.475725</ele>
        <time>2023-07-03T11:01:18.658Z</time>
      </trkpt>
      <trkpt lat="50.08967" lon="8.94213">
        <ele>153.455861</ele>
        <time>2023-07-03T11:01:21.650Z</time>
      </trkpt>
      <trkpt lat="50.08954" lon="8.94215">
        <ele>153.43599</ele>
        <time>2023-07-03T11:01:24.656Z</time>
      </trkpt>
      <trkpt lat="50.08942" lon="8.94217">
        <ele>153.41581</ele>
        <time>2023-07-03T11:01:27.646Z</time>
      </trkpt>
      <trkpt lat="50.08929" lon="8.9422">
        <ele>153.395855</ele>
        <time>2023-07-03T11:01:30.665Z</time>
      </trkpt>
      <trkpt lat="50.0892" lon="8.94222">
        <ele>153.381151</ele>
        <time>2023-07-03T11:01:32.653Z</time>
      </trkpt>
      <trkpt lat="50.08911" lon="8.94223">
        <ele>153.366641</ele>
        <time>2023-07-03T11:01:34.656Z</time>
      </trkpt>
      <trkpt lat="50.08902" lon="8.94226">
        <ele>153.352035</ele>
        <time>2023-07-03T11:01:36.653Z</time>
      </trkpt>
      <trkpt lat="50.08893" lon="8.94227">
        <ele>153.337211</ele>
        <time>2023-07-03T11:01:38.656Z</time>
      </trkpt>
      <trkpt lat="50.08882" lon="8.94229">
        <ele>153.321154</ele>
        <time>2023-07-03T11:01:40.665Z</time>
      </trkpt>
      <trkpt lat="50.08872" lon="8.9423">
        <ele>153.305236</ele>
        <time>2023-07-03T11:01:42.662Z</time>
      </trkpt>
      <trkpt lat="50.08863" lon="8.9423">
        <ele>153.290973</ele>
        <time>2023-07-03T11:01:44.653Z</time>
      </trkpt>
      <trkpt lat="50.0885" lon="8.94232">
        <ele>153.270334</ele>
        <time>2023-07-03T11:01:47.648Z</time>
      </trkpt>
      <trkpt lat="50.08837" lon="8.94234">
        <ele>153.249096</ele>
        <time>2023-07-03T11:01:50.661Z</time>
      </trkpt>
      <trkpt lat="50.08828" lon="8.94235">
        <ele>153.234036</ele>
        <time>2023-07-03T11:01:52.655Z</time>
      </trkpt>
      <trkpt lat="50.08818" lon="8.94236">
        <ele>153.206112</ele>
        <time>2023-07-03T11:01:54.654Z</time>
      </trkpt>
      <trkpt lat="50.08806" lon="8.94237">
        <ele>153.166991</ele>
        <time>2023-07-03T11:01:56.651Z</time>
      </trkpt>
      <trkpt lat="50.08795" lon="8.94237">
        <ele>153.127596</ele>
        <time>2023-07-03T11:01:58.667Z</time>
      </trkpt>
      <trkpt lat="50.08784" lon="8.94237">
        <ele>153.08922</ele>
        <time>2023-07-03T11:02:00.663Z</time>
      </trkpt>
      <trkpt lat="50.08773" lon="8.94236">
        <ele>153.052232</ele>
        <time>2023-07-03T11:02:02.664Z</time>
      </trkpt>
      <trkpt lat="50.08762" lon="8.94235">
        <ele>153.015111</ele>
        <time>2023-07-03T11:02:04.654Z</time>
      </trkpt>
      <trkpt lat="50.08752" lon="8.94233">
        <ele>152.980112</ele>
        <time>2023-07-03T11:02:06.640Z</time>
      </trkpt>
      <trkpt lat="50.08743" lon="8.94232">
        <ele>152.946163</ele>
        <time>2023-07-03T11:02:08.660Z</time>
      </trkpt>
      <trkpt lat="50.08733" lon="8.94232">
        <ele>152.91398</ele>
        <time>2023-07-03T11:02:10.662Z</time>
      </trkpt>
      <trkpt lat="50.08724" lon="8.94232">
        <ele>152.880809</ele>
        <time>2023-07-03T11:02:12.656Z</time>
      </trkpt>
      <trkpt lat="50.08715" lon="8.9423">
        <ele>152.849457</ele>
        <time>2023-07-03T11:02:14.652Z</time>
      </trkpt>
      <trkpt lat="50.08705" lon="8.94229">
        <ele>152.816571</ele>
        <time>2023-07-03T11:02:16.633Z</time>
      </trkpt>
      <trkpt lat="50.08695" lon="8.9423">
        <ele>152.781271</ele>
        <time>2023-07-03T11:02:18.659Z</time>
      </trkpt>
      <trkpt lat="50.08684" lon="8.94231">
        <ele>152.744858</ele>
        <time>2023-07-03T11:02:20.660Z</time>
      </trkpt>
      <trkpt lat="50.08674" lon="8.94232">
        <ele>152.707488</ele>
        <time>2023-07-03T11:02:22.655Z</time>
      </trkpt>
      <trkpt lat="50.08663" lon="8.94233">
        <ele>152.670782</ele>
        <time>2023-07-03T11:02:24.658Z</time>
      </trkpt>
      <trkpt lat="50.08653" lon="8.94234">
        <ele>152.635799</ele>
        <time>2023-07-03T11:02:26.658Z</time>
      </trkpt>
      <trkpt lat="50.08643" lon="8.94236">
        <ele>152.608422</ele>
        <time>2023-07-03T11:02:28.650Z</time>
      </trkpt>
      <trkpt lat="50.08633" lon="8.94238">
        <ele>152.619612</ele>
        <time>2023-07-03T11:02:30.664Z</time>
      </trkpt>
      <trkpt lat="50.08623" lon="8.94239">
        <ele>152.630881</ele>
        <time>2023-07-03T11:02:32.661Z</time>
      </trkpt>
      <trkpt lat="50.08613" lon="8.9424">
        <ele>152.641498</ele>
        <time>2023-07-03T11:02:34.671Z</time>
      </trkpt>
      <trkpt lat="50.08601" lon="8.94242">
        <ele>152.655344</ele>
        <time>2023-07-03T11:02:37.664Z</time>
      </trkpt>
      <trkpt lat="50.08588" lon="8.94242">
        <ele>152.669912</ele>
        <time>2023-07-03T11:02:40.655Z</time>
      </trkpt>
      <trkpt lat="50.08574" lon="8.94243">
        <ele>152.684482</ele>
        <time>2023-07-03T11:02:43.651Z</time>
      </trkpt>
      <trkpt lat="50.08562" lon="8.94243">
        <ele>152.698491</ele>
        <time>2023-07-03T11:02:46.649Z</time>
      </trkpt>
      <trkpt lat="50.08549" lon="8.9424">
        <ele>152.71285</ele>
        <time>2023-07-03T11:02:49.647Z</time>
      </trkpt>
      <trkpt lat="50.08538" lon="8.94231">
        <ele>152.726499</ele>
        <time>2023-07-03T11:02:52.654Z</time>
      </trkpt>
      <trkpt lat="50.0853" lon="8.94222">
        <ele>152.73681</ele>
        <time>2023-07-03T11:02:54.640Z</time>
      </trkpt>
      <trkpt lat="50.08521" lon="8.94208">
        <ele>152.751292</ele>
        <time>2023-07-03T11:02:57.656Z</time>
      </trkpt>
      <trkpt lat="50.08512" lon="8.94195">
        <ele>152.765013</ele>
        <time>2023-07-03T11:03:00.662Z</time>
      </trkpt>
      <trkpt lat="50.08502" lon="8.94183">
        <ele>152.778806</ele>
        <time>2023-07-03T11:03:03.658Z</time>
      </trkpt>
      <trkpt lat="50.08492" lon="8.9417">
        <ele>152.792944</ele>
        <time>2023-07-03T11:03:06.631Z</time>
      </trkpt>
      <trkpt lat="50.08483" lon="8.94162">
        <ele>152.804757</ele>
        <time>2023-07-03T11:03:09.656Z</time>
      </trkpt>
      <trkpt lat="50.08473" lon="8.94159">
        <ele>152.847399</ele>
        <time>2023-07-03T11:03:12.661Z</time>
      </trkpt>
      <trkpt lat="50.08462" lon="8.94161">
        <ele>152.900336</ele>
        <time>2023-07-03T11:03:15.640Z</time>
      </trkpt>
      <trkpt lat="50.08449" lon="8.94167">
        <ele>152.960206</ele>
        <time>2023-07-03T11:03:18.639Z</time>
      </trkpt>
      <trkpt lat="50.0844" lon="8.9417">
        <ele>153.001409</ele>
        <time>2023-07-03T11:03:20.651Z</time>
      </trkpt>
      <trkpt lat="50.08428" lon="8.94177">
        <ele>153.060278</ele>
        <time>2023-07-03T11:03:23.651Z</time>
      </trkpt>
      <trkpt lat="50.08414" lon="8.94182">
        <ele>153.121762</ele>
        <time>2023-07-03T11:03:26.633Z</time>
      </trkpt>
      <trkpt lat="50.08406" lon="8.94186">
        <ele>153.162453</ele>
        <time>2023-07-03T11:03:28.651Z</time>
      </trkpt>
      <trkpt lat="50.08393" lon="8.94193">
        <ele>153.222687</ele>
        <time>2023-07-03T11:03:31.658Z</time>
      </trkpt>
      <trkpt lat="50.08381" lon="8.94199">
        <ele>153.282161</ele>
        <time>2023-07-03T11:03:34.651Z</time>
      </trkpt>
      <trkpt lat="50.08368" lon="8.94207">
        <ele>153.343252</ele>
        <time>2023-07-03T11:03:37.665Z</time>
      </trkpt>
      <trkpt lat="50.08355" lon="8.94212">
        <ele>153.402686</ele>
        <time>2023-07-03T11:03:40.671Z</time>
      </trkpt>
      <trkpt lat="50.08342" lon="8.94218">
        <ele>153.463711</ele>
        <time>2023-07-03T11:03:43.653Z</time>
      </trkpt>
      <trkpt lat="50.0833" lon="8.94224">
        <ele>153.524651</ele>
        <time>2023-07-03T11:03:46.644Z</time>
      </trkpt>
      <trkpt lat="50.08317" lon="8.94231">
        <ele>153.583521</ele>
        <time>2023-07-03T11:03:49.660Z</time>
      </trkpt>
      <trkpt lat="50.08306" lon="8.94239">
        <ele>153.632081</ele>
        <time>2023-07-03T11:03:52.657Z</time>
      </trkpt>
      <trkpt lat="50.08294" lon="8.94249">
        <ele>153.66697</ele>
        <time>2023-07-03T11:03:55.657Z</time>
      </trkpt>
      <trkpt lat="50.08286" lon="8.94255">
        <ele>153.691313</ele>
        <time>2023-07-03T11:03:57.652Z</time>
      </trkpt>
      <trkpt lat="50.08274" lon="8.94265">
        <ele>153.72747</ele>
        <time>2023-07-03T11:04:00.660Z</time>
      </trkpt>
      <trkpt lat="50.08266" lon="8.94271">
        <ele>153.75285</ele>
        <time>2023-07-03T11:04:02.655Z</time>
      </trkpt>
      <trkpt lat="50.08257" lon="8.94277">
        <ele>153.777303</ele>
        <time>2023-07-03T11:04:04.654Z</time>
      </trkpt>
      <trkpt lat="50.08249" lon="8.94285">
        <ele>153.803318</ele>
        <time>2023-07-03T11:04:06.642Z</time>
      </trkpt>
      <trkpt lat="50.0824" lon="8.94292">
        <ele>153.830761</ele>
        <time>2023-07-03T11:04:08.655Z</time>
      </trkpt>
      <trkpt lat="50.08231" lon="8.94298">
        <ele>153.856372</ele>
        <time>2023-07-03T11:04:10.660Z</time>
      </trkpt>
      <trkpt lat="50.08223" lon="8.94307">
        <ele>153.882939</ele>
        <time>2023-07-03T11:04:12.664Z</time>
      </trkpt>
      <trkpt lat="50.08214" lon="8.94315">
        <ele>153.91085</ele>
        <time>2023-07-03T11:04:14.644Z</time>
      </trkpt>
      <trkpt lat="50.08205" lon="8.94323">
        <ele>153.938689</ele>
        <time>2023-07-03T11:04:16.647Z</time>
      </trkpt>
      <trkpt lat="50.08195" lon="8.94331">
        <ele>153.967013</ele>
        <time>2023-07-03T11:04:18.648Z</time>
      </trkpt>
      <trkpt lat="50.08187" lon="8.94341">
        <ele>153.996514</ele>
        <time>2023-07-03T11:04:20.647Z</time>
      </trkpt>
      <trkpt lat="50.08177" lon="8.94351">
        <ele>154.027315</ele>
        <time>2023-07-03T11:04:22.653Z</time>
      </trkpt>
      <trkpt lat="50.08168" lon="8.9436">
        <ele>154.057069</ele>
        <time>2023-07-03T11:04:24.659Z</time>
      </trkpt>
      <trkpt lat="50.08158" lon="8.94369">
        <ele>154.087369</ele>
        <time>2023-07-03T11:04:26.653Z</time>
      </trkpt>
      <trkpt lat="50.08148" lon="8.94378">
        <ele>154.156556</ele>
        <time>2023-07-03T11:04:28.667Z</time>
      </trkpt>
      <trkpt lat="50.08139" lon="8.94387">
        <ele>154.24902</ele>
        <time>2023-07-03T11:04:30.658Z</time>
      </trkpt>
      <trkpt lat="50.08131" lon="8.94397">
        <ele>154.336069</ele>
        <time>2023-07-03T11:04:32.663Z</time>
      </trkpt>
      <trkpt lat="50.08123" lon="8.94406">
        <ele>154.421059</ele>
        <time>2023-07-03T11:04:34.666Z</time>
      </trkpt>
      <trkpt lat="50.08116" lon="8.94414">
        <ele>154.505103</ele>
        <time>2023-07-03T11:04:36.657Z</time>
      </trkpt>
      <trkpt lat="50.08108" lon="8.94424">
        <ele>154.588373</ele>
        <time>2023-07-03T11:04:38.652Z</time>
      </trkpt>
      <trkpt lat="50.081" lon="8.94432">
        <ele>154.676624</ele>
        <time>2023-07-03T11:04:40.653Z</time>
      </trkpt>
      <trkpt lat="50.08092" lon="8.94442">
        <ele>154.760584</ele>
        <time>2023-07-03T11:04:42.649Z</time>
      </trkpt>
      <trkpt lat="50.08084" lon="8.94452">
        <ele>154.848338</ele>
        <time>2023-07-03T11:04:44.653Z</time>
      </trkpt>
      <trkpt lat="50.08076" lon="8.94462">
        <ele>154.940663</ele>
        <time>2023-07-03T11:04:46.649Z</time>
      </trkpt>
      <trkpt lat="50.08068" lon="8.94475">
        <ele>155.036901</ele>
        <time>2023-07-03T11:04:48.663Z</time>
      </trkpt>
      <trkpt lat="50.0806" lon="8.94485">
        <ele>155.128406</ele>
        <time>2023-07-03T11:04:50.641Z</time>
      </trkpt>
      <trkpt lat="50.08052" lon="8.94497">
        <ele>155.224493</ele>
        <time>2023-07-03T11:04:52.652Z</time>
      </trkpt>
      <trkpt lat="50.08044" lon="8.94509">
        <ele>155.320195</ele>
        <time>2023-07-03T11:04:54.654Z</time>
      </trkpt>
      <trkpt lat="50.08035" lon="8.94519">
        <ele>155.41548</ele>
        <time>2023-07-03T11:04:56.653Z</time>
      </trkpt>
      <trkpt lat="50.08028" lon="8.9453">
        <ele>155.503076</ele>
        <time>2023-07-03T11:04:58.653Z</time>
      </trkpt>
      <trkpt lat="50.08021" lon="8.9454">
        <ele>155.588634</ele>
        <time>2023-07-03T11:05:00.663Z</time>
      </trkpt>
      <trkpt lat="50.08014" lon="8.94551">
        <ele>155.664678</ele>
        <time>2023-07-03T11:05:02.652Z</time>
      </trkpt>
      <trkpt lat="50.08008" lon="8.94562">
        <ele>155.675624</ele>
        <time>2023-07-03T11:05:04.670Z</time>
      </trkpt>
      <trkpt lat="50.08001" lon="8.94571">
        <ele>155.686514</ele>
        <time>2023-07-03T11:05:06.646Z</time>
      </trkpt>
      <trkpt lat="50.07991" lon="8.94585">
        <ele>155.702023</ele>
        <time>2023-07-03T11:05:09.652Z</time>
      </trkpt>
      <trkpt lat="50.07982" lon="8.94597">
        <ele>155.716942</ele>
        <time>2023-07-03T11:05:12.643Z</time>
      </trkpt>
      <trkpt lat="50.07974" lon="8.94609">
        <ele>155.730042</ele>
        <time>2023-07-03T11:05:15.654Z</time>
      </trkpt>
      <trkpt lat="50.07967" lon="8.94622">
        <ele>155.743254</ele>
        <time>2023-07-03T11:05:18.664Z</time>
      </trkpt>
      <trkpt lat="50.07959" lon="8.94633">
        <ele>155.756319</ele>
        <time>2023-07-03T11:05:21.648Z</time>
      </trkpt>
      <trkpt lat="50.07951" lon="8.94642">
        <ele>155.768061</ele>
        <time>2023-07-03T11:05:24.652Z</time>
      </trkpt>
      <trkpt lat="50.07943" lon="8.94655">
        <ele>155.781803</ele>
        <time>2023-07-03T11:05:28.655Z</time>
      </trkpt>
      <trkpt lat="50.07937" lon="8.94667">
        <ele>155.79307</ele>
        <time>2023-07-03T11:05:31.655Z</time>
      </trkpt>
      <trkpt lat="50.07931" lon="8.94679">
        <ele>155.804682</ele>
        <time>2023-07-03T11:05:34.662Z</time>
      </trkpt>
      <trkpt lat="50.07925" lon="8.94692">
        <ele>155.817316</ele>
        <time>2023-07-03T11:05:37.655Z</time>
      </trkpt>
      <trkpt lat="50.07918" lon="8.94704">
        <ele>155.829816</ele>
        <time>2023-07-03T11:05:40.662Z</time>
      </trkpt>
      <trkpt lat="50.07913" lon="8.94717">
        <ele>155.841941</ele>
        <time>2023-07-03T11:05:43.665Z</time>
      </trkpt>
      <trkpt lat="50.07908" lon="8.94731">
        <ele>155.853444</ele>
        <time>2023-07-03T11:05:46.647Z</time>
      </trkpt>
      <trkpt lat="50.07903" lon="8.94745">
        <ele>155.866172</ele>
        <time>2023-07-03T11:05:50.667Z</time>
      </trkpt>
      <trkpt lat="50.07899" lon="8.94758">
        <ele>155.877139</ele>
        <time>2023-07-03T11:05:54.660Z</time>
      </trkpt>
      <trkpt lat="50.07897" lon="8.94773">
        <ele>155.815426</ele>
        <time>2023-07-03T11:05:57.652Z</time>
      </trkpt>
      <trkpt lat="50.07896" lon="8.94787">
        <ele>155.744424</ele>
        <time>2023-07-03T11:05:59.639Z</time>
      </trkpt>
      <trkpt lat="50.07892" lon="8.94805">
        <ele>155.653221</ele>
        <time>2023-07-03T11:06:01.643Z</time>
      </trkpt>
      <trkpt lat="50.07886" lon="8.94822">
        <ele>155.558923</ele>
        <time>2023-07-03T11:06:03.650Z</time>
      </trkpt>
      <trkpt lat="50.07882" lon="8.94837">
        <ele>155.473236</ele>
        <time>2023-07-03T11:06:05.659Z</time>
      </trkpt>
      <trkpt lat="50.07877" lon="8.94853">
        <ele>155.389209</ele>
        <time>2023-07-03T11:06:08.663Z</time>
      </trkpt>
      <trkpt lat="50.07874" lon="8.9487">
        <ele>155.304656</ele>
        <time>2023-07-03T11:06:12.677Z</time>
      </trkpt>
      <trkpt lat="50.07867" lon="8.94884">
        <ele>155.21413</ele>
        <time>2023-07-03T11:06:15.651Z</time>
      </trkpt>
      <trkpt lat="50.07863" lon="8.94903">
        <ele>155.114999</ele>
        <time>2023-07-03T11:06:18.649Z</time>
      </trkpt>
      <trkpt lat="50.07859" lon="8.94921">
        <ele>155.022337</ele>
        <time>2023-07-03T11:06:21.656Z</time>
      </trkpt>
      <trkpt lat="50.07855" lon="8.94937">
        <ele>154.937389</ele>
        <time>2023-07-03T11:06:24.629Z</time>
      </trkpt>
      <trkpt lat="50.07852" lon="8.94952">
        <ele>154.861477</ele>
        <time>2023-07-03T11:06:27.661Z</time>
      </trkpt>
      <trkpt lat="50.07848" lon="8.94968">
        <ele>154.775684</ele>
        <time>2023-07-03T11:06:30.659Z</time>
      </trkpt>
      <trkpt lat="50.07846" lon="8.94987">
        <ele>154.683537</ele>
        <time>2023-07-03T11:06:33.647Z</time>
      </trkpt>
      <trkpt lat="50.07844" lon="8.95001">
        <ele>154.612139</ele>
        <time>2023-07-03T11:06:35.672Z</time>
      </trkpt>
      <trkpt lat="50.07842" lon="8.95015">
        <ele>154.541313</ele>
        <time>2023-07-03T11:06:37.665Z</time>
      </trkpt>
      <trkpt lat="50.07837" lon="8.95033">
        <ele>154.553292</ele>
        <time>2023-07-03T11:06:40.668Z</time>
      </trkpt>
      <trkpt lat="50.07835" lon="8.95053">
        <ele>154.644447</ele>
        <time>2023-07-03T11:06:43.654Z</time>
      </trkpt>
      <trkpt lat="50.07833" lon="8.95071">
        <ele>154.727939</ele>
        <time>2023-07-03T11:06:46.648Z</time>
      </trkpt>
      <trkpt lat="50.07831" lon="8.95087">
        <ele>154.80337</ele>
        <time>2023-07-03T11:06:49.661Z</time>
      </trkpt>
      <trkpt lat="50.07829" lon="8.95106">
        <ele>154.887782</ele>
        <time>2023-07-03T11:06:52.654Z</time>
      </trkpt>
      <trkpt lat="50.07824" lon="8.95125">
        <ele>154.980759</ele>
        <time>2023-07-03T11:06:55.639Z</time>
      </trkpt>
      <trkpt lat="50.07818" lon="8.95139">
        <ele>155.059113</ele>
        <time>2023-07-03T11:06:58.655Z</time>
      </trkpt>
      <trkpt lat="50.07811" lon="8.95152">
        <ele>155.135474</ele>
        <time>2023-07-03T11:07:01.646Z</time>
      </trkpt>
      <trkpt lat="50.0781" lon="8.95168">
        <ele>155.208344</ele>
        <time>2023-07-03T11:07:04.655Z</time>
      </trkpt>
      <trkpt lat="50.0781" lon="8.95184">
        <ele>155.280554</ele>
        <time>2023-07-03T11:07:07.674Z</time>
      </trkpt>
      <trkpt lat="50.0781" lon="8.95199">
        <ele>155.346851</ele>
        <time>2023-07-03T11:07:10.651Z</time>
      </trkpt>
      <trkpt lat="50.0781" lon="8.95215">
        <ele>155.418597</ele>
        <time>2023-07-03T11:07:13.657Z</time>
      </trkpt>
      <trkpt lat="50.0781" lon="8.95233">
        <ele>155.5031</ele>
        <time>2023-07-03T11:07:16.646Z</time>
      </trkpt>
      <trkpt lat="50.07808" lon="8.95248">
        <ele>155.571052</ele>
        <time>2023-07-03T11:07:18.652Z</time>
      </trkpt>
      <trkpt lat="50.07806" lon="8.95265">
        <ele>155.647975</ele>
        <time>2023-07-03T11:07:20.660Z</time>
      </trkpt>
      <trkpt lat="50.07805" lon="8.95281">
        <ele>155.721656</ele>
        <time>2023-07-03T11:07:22.660Z</time>
      </trkpt>
      <trkpt lat="50.07805" lon="8.95296">
        <ele>155.768684</ele>
        <time>2023-07-03T11:07:24.655Z</time>
      </trkpt>
      <trkpt lat="50.07805" lon="8.95311">
        <ele>155.753049</ele>
        <time>2023-07-03T11:07:26.650Z</time>
      </trkpt>
      <trkpt lat="50.07803" lon="8.95326">
        <ele>155.737585</ele>
        <time>2023-07-03T11:07:28.664Z</time>
      </trkpt>
      <trkpt lat="50.07802" lon="8.95346">
        <ele>155.716118</ele>
        <time>2023-07-03T11:07:31.656Z</time>
      </trkpt>
      <trkpt lat="50.07801" lon="8.95362">
        <ele>155.7003</ele>
        <time>2023-07-03T11:07:33.663Z</time>
      </trkpt>
      <trkpt lat="50.07801" lon="8.95377">
        <ele>155.68379</ele>
        <time>2023-07-03T11:07:35.656Z</time>
      </trkpt>
      <trkpt lat="50.078" lon="8.95392">
        <ele>155.668621</ele>
        <time>2023-07-03T11:07:37.651Z</time>
      </trkpt>
      <trkpt lat="50.078" lon="8.95406">
        <ele>155.653913</ele>
        <time>2023-07-03T11:07:39.652Z</time>
      </trkpt>
      <trkpt lat="50.07799" lon="8.9542">
        <ele>155.639308</ele>
        <time>2023-07-03T11:07:41.655Z</time>
      </trkpt>
      <trkpt lat="50.07799" lon="8.95435">
        <ele>155.624473</ele>
        <time>2023-07-03T11:07:43.658Z</time>
      </trkpt>
      <trkpt lat="50.07798" lon="8.95449">
        <ele>155.609328</ele>
        <time>2023-07-03T11:07:45.653Z</time>
      </trkpt>
      <trkpt lat="50.07797" lon="8.95464">
        <ele>155.593563</ele>
        <time>2023-07-03T11:07:47.663Z</time>
      </trkpt>
      <trkpt lat="50.07797" lon="8.95479">
        <ele>155.578342</ele>
        <time>2023-07-03T11:07:49.654Z</time>
      </trkpt>
      <trkpt lat="50.07797" lon="8.95494">
        <ele>155.563014</ele>
        <time>2023-07-03T11:07:51.655Z</time>
      </trkpt>
      <trkpt lat="50.07797" lon="8.95509">
        <ele>155.547671</ele>
        <time>2023-07-03T11:07:53.652Z</time>
      </trkpt>
      <trkpt lat="50.07797" lon="8.95524">
        <ele>155.531623</ele>
        <time>2023-07-03T11:07:55.646Z</time>
      </trkpt>
      <trkpt lat="50.07796" lon="8.9554">
        <ele>155.515305</ele>
        <time>2023-07-03T11:07:57.651Z</time>
      </trkpt>
      <trkpt lat="50.07796" lon="8.95556">
        <ele>155.498325</ele>
        <time>2023-07-03T11:07:59.651Z</time>
      </trkpt>
      <trkpt lat="50.07796" lon="8.95572">
        <ele>155.482533</ele>
        <time>2023-07-03T11:08:01.660Z</time>
      </trkpt>
      <trkpt lat="50.07796" lon="8.95587">
        <ele>155.485903</ele>
        <time>2023-07-03T11:08:03.674Z</time>
      </trkpt>
      <trkpt lat="50.07796" lon="8.95601">
        <ele>155.489228</ele>
        <time>2023-07-03T11:08:05.649Z</time>
      </trkpt>
      <trkpt lat="50.07796" lon="8.95617">
        <ele>155.49276</ele>
        <time>2023-07-03T11:08:07.662Z</time>
      </trkpt>
      <trkpt lat="50.07796" lon="8.95632">
        <ele>155.496406</ele>
        <time>2023-07-03T11:08:09.650Z</time>
      </trkpt>
      <trkpt lat="50.07797" lon="8.95649">
        <ele>155.500233</ele>
        <time>2023-07-03T11:08:11.657Z</time>
      </trkpt>
      <trkpt lat="50.07797" lon="8.95665">
        <ele>155.50388</ele>
        <time>2023-07-03T11:08:13.648Z</time>
      </trkpt>
      <trkpt lat="50.07798" lon="8.95681">
        <ele>155.50755</ele>
        <time>2023-07-03T11:08:15.651Z</time>
      </trkpt>
      <trkpt lat="50.07797" lon="8.95698">
        <ele>155.51143</ele>
        <time>2023-07-03T11:08:17.647Z</time>
      </trkpt>
      <trkpt lat="50.07798" lon="8.95715">
        <ele>155.515367</ele>
        <time>2023-07-03T11:08:19.651Z</time>
      </trkpt>
      <trkpt lat="50.07799" lon="8.95732">
        <ele>155.51922</ele>
        <time>2023-07-03T11:08:21.649Z</time>
      </trkpt>
      <trkpt lat="50.07801" lon="8.95748">
        <ele>155.522987</ele>
        <time>2023-07-03T11:08:23.676Z</time>
      </trkpt>
      <trkpt lat="50.07802" lon="8.95764">
        <ele>155.526728</ele>
        <time>2023-07-03T11:08:25.646Z</time>
      </trkpt>
      <trkpt lat="50.07803" lon="8.95782">
        <ele>155.53076</ele>
        <time>2023-07-03T11:08:27.652Z</time>
      </trkpt>
      <trkpt lat="50.07804" lon="8.95799">
        <ele>155.534872</ele>
        <time>2023-07-03T11:08:29.652Z</time>
      </trkpt>
      <trkpt lat="50.07805" lon="8.95816">
        <ele>155.538621</ele>
        <time>2023-07-03T11:08:31.678Z</time>
      </trkpt>
      <trkpt lat="50.07806" lon="8.95831">
        <ele>155.542235</ele>
        <time>2023-07-03T11:08:33.647Z</time>
      </trkpt>
      <trkpt lat="50.07806" lon="8.95848">
        <ele>155.546025</ele>
        <time>2023-07-03T11:08:35.650Z</time>
      </trkpt>
      <trkpt lat="50.07807" lon="8.95866">
        <ele>155.619676</ele>
        <time>2023-07-03T11:08:37.651Z</time>
      </trkpt>
      <trkpt lat="50.07809" lon="8.95883">
        <ele>155.703637</ele>
        <time>2023-07-03T11:08:39.652Z</time>
      </trkpt>
      <trkpt lat="50.07809" lon="8.95898">
        <ele>155.77539</ele>
        <time>2023-07-03T11:08:41.658Z</time>
      </trkpt>
      <trkpt lat="50.07809" lon="8.95914">
        <ele>155.853473</ele>
        <time>2023-07-03T11:08:43.660Z</time>
      </trkpt>
      <trkpt lat="50.07809" lon="8.95931">
        <ele>155.935977</ele>
        <time>2023-07-03T11:08:45.665Z</time>
      </trkpt>
      <trkpt lat="50.07809" lon="8.95946">
        <ele>156.009181</ele>
        <time>2023-07-03T11:08:47.633Z</time>
      </trkpt>
      <trkpt lat="50.07809" lon="8.9596">
        <ele>156.080922</ele>
        <time>2023-07-03T11:08:49.637Z</time>
      </trkpt>
      <trkpt lat="50.07809" lon="8.95975">
        <ele>156.152206</ele>
        <time>2023-07-03T11:08:51.654Z</time>
      </trkpt>
      <trkpt lat="50.07809" lon="8.9599">
        <ele>156.227862</ele>
        <time>2023-07-03T11:08:53.651Z</time>
      </trkpt>
      <trkpt lat="50.07809" lon="8.96005">
        <ele>156.300102</ele>
        <time>2023-07-03T11:08:55.654Z</time>
      </trkpt>
      <trkpt lat="50.0781" lon="8.96026">
        <ele>156.40195</ele>
        <time>2023-07-03T11:08:58.652Z</time>
      </trkpt>
      <trkpt lat="50.07811" lon="8.96041">
        <ele>156.475403</ele>
        <time>2023-07-03T11:09:00.667Z</time>
      </trkpt>
      <trkpt lat="50.0781" lon="8.96063">
        <ele>156.581397</ele>
        <time>2023-07-03T11:09:03.654Z</time>
      </trkpt>
      <trkpt lat="50.07812" lon="8.96083">
        <ele>156.680334</ele>
        <time>2023-07-03T11:09:06.650Z</time>
      </trkpt>
      <trkpt lat="50.07814" lon="8.96104">
        <ele>156.783534</ele>
        <time>2023-07-03T11:09:09.634Z</time>
      </trkpt>
      <trkpt lat="50.07815" lon="8.96119">
        <ele>156.856816</ele>
        <time>2023-07-03T11:09:11.639Z</time>
      </trkpt>
      <trkpt lat="50.07816" lon="8.96134">
        <ele>156.902549</ele>
        <time>2023-07-03T11:09:13.656Z</time>
      </trkpt>
      <trkpt lat="50.07817" lon="8.96149">
        <ele>156.84795</ele>
        <time>2023-07-03T11:09:15.648Z</time>
      </trkpt>
      <trkpt lat="50.07817" lon="8.96163">
        <ele>156.796652</ele>
        <time>2023-07-03T11:09:17.655Z</time>
      </trkpt>
      <trkpt lat="50.07818" lon="8.96177">
        <ele>156.746464</ele>
        <time>2023-07-03T11:09:19.649Z</time>
      </trkpt>
      <trkpt lat="50.0782" lon="8.96198">
        <ele>156.673164</ele>
        <time>2023-07-03T11:09:22.662Z</time>
      </trkpt>
      <trkpt lat="50.0782" lon="8.96212">
        <ele>156.621987</ele>
        <time>2023-07-03T11:09:24.652Z</time>
      </trkpt>
      <trkpt lat="50.0782" lon="8.96226">
        <ele>156.570468</ele>
        <time>2023-07-03T11:09:26.653Z</time>
      </trkpt>
      <trkpt lat="50.07821" lon="8.96246">
        <ele>156.500326</ele>
        <time>2023-07-03T11:09:29.649Z</time>
      </trkpt>
      <trkpt lat="50.0782" lon="8.96266">
        <ele>156.426924</ele>
        <time>2023-07-03T11:09:32.657Z</time>
      </trkpt>
      <trkpt lat="50.07819" lon="8.96286">
        <ele>156.356737</ele>
        <time>2023-07-03T11:09:35.655Z</time>
      </trkpt>
      <trkpt lat="50.07819" lon="8.963">
        <ele>156.304861</ele>
        <time>2023-07-03T11:09:37.666Z</time>
      </trkpt>
      <trkpt lat="50.07819" lon="8.96321">
        <ele>156.232963</ele>
        <time>2023-07-03T11:09:40.641Z</time>
      </trkpt>
      <trkpt lat="50.07819" lon="8.96336">
        <ele>156.178166</ele>
        <time>2023-07-03T11:09:42.658Z</time>
      </trkpt>
      <trkpt lat="50.07818" lon="8.96351">
        <ele>156.125575</ele>
        <time>2023-07-03T11:09:44.654Z</time>
      </trkpt>
      <trkpt lat="50.07819" lon="8.96365">
        <ele>156.073602</ele>
        <time>2023-07-03T11:09:46.647Z</time>
      </trkpt>
      <trkpt lat="50.0782" lon="8.96386">
        <ele>155.999485</ele>
        <time>2023-07-03T11:09:49.656Z</time>
      </trkpt>
      <trkpt lat="50.0782" lon="8.964">
        <ele>155.947189</ele>
        <time>2023-07-03T11:09:51.662Z</time>
      </trkpt>
      <trkpt lat="50.07819" lon="8.96414">
        <ele>155.903223</ele>
        <time>2023-07-03T11:09:53.651Z</time>
      </trkpt>
      <trkpt lat="50.07819" lon="8.96429">
        <ele>155.872824</ele>
        <time>2023-07-03T11:09:55.656Z</time>
      </trkpt>
      <trkpt lat="50.07818" lon="8.96449">
        <ele>155.832054</ele>
        <time>2023-07-03T11:09:58.679Z</time>
      </trkpt>
      <trkpt lat="50.07817" lon="8.96471">
        <ele>155.787614</ele>
        <time>2023-07-03T11:10:01.676Z</time>
      </trkpt>
      <trkpt lat="50.07818" lon="8.96491">
        <ele>155.746092</ele>
        <time>2023-07-03T11:10:04.660Z</time>
      </trkpt>
      <trkpt lat="50.07821" lon="8.96511">
        <ele>155.703432</ele>
        <time>2023-07-03T11:10:07.643Z</time>
      </trkpt>
      <trkpt lat="50.0782" lon="8.96526">
        <ele>155.671843</ele>
        <time>2023-07-03T11:10:09.636Z</time>
      </trkpt>
      <trkpt lat="50.07819" lon="8.96541">
        <ele>155.64148</ele>
        <time>2023-07-03T11:10:11.638Z</time>
      </trkpt>
      <trkpt lat="50.07819" lon="8.96556">
        <ele>155.61045</ele>
        <time>2023-07-03T11:10:13.623Z</time>
      </trkpt>
      <trkpt lat="50.07818" lon="8.96571">
        <ele>155.58046</ele>
        <time>2023-07-03T11:10:15.651Z</time>
      </trkpt>
      <trkpt lat="50.07815" lon="8.96591">
        <ele>155.537211</ele>
        <time>2023-07-03T11:10:18.652Z</time>
      </trkpt>
      <trkpt lat="50.07815" lon="8.96606">
        <ele>155.506155</ele>
        <time>2023-07-03T11:10:20.656Z</time>
      </trkpt>
      <trkpt lat="50.07814" lon="8.96621">
        <ele>155.476329</ele>
        <time>2023-07-03T11:10:22.651Z</time>
      </trkpt>
      <trkpt lat="50.07814" lon="8.96635">
        <ele>155.44705</ele>
        <time>2023-07-03T11:10:24.658Z</time>
      </trkpt>
      <trkpt lat="50.07814" lon="8.96649">
        <ele>155.417635</ele>
        <time>2023-07-03T11:10:26.648Z</time>
      </trkpt>
      <trkpt lat="50.07817" lon="8.96664">
        <ele>155.386994</ele>
        <time>2023-07-03T11:10:28.645Z</time>
      </trkpt>
      <trkpt lat="50.07819" lon="8.96679">
        <ele>155.354317</ele>
        <time>2023-07-03T11:10:30.641Z</time>
      </trkpt>
      <trkpt lat="50.0782" lon="8.96696">
        <ele>155.326375</ele>
        <time>2023-07-03T11:10:32.648Z</time>
      </trkpt>
      <trkpt lat="50.0782" lon="8.96712">
        <ele>155.304909</ele>
        <time>2023-07-03T11:10:34.646Z</time>
      </trkpt>
      <trkpt lat="50.07819" lon="8.96729">
        <ele>155.283911</ele>
        <time>2023-07-03T11:10:36.648Z</time>
      </trkpt>
      <trkpt lat="50.07818" lon="8.96744">
        <ele>155.263664</ele>
        <time>2023-07-03T11:10:38.642Z</time>
      </trkpt>
      <trkpt lat="50.07815" lon="8.96759">
        <ele>155.243794</ele>
        <time>2023-07-03T11:10:40.659Z</time>
      </trkpt>
      <trkpt lat="50.07814" lon="8.96774">
        <ele>155.224974</ele>
        <time>2023-07-03T11:10:42.668Z</time>
      </trkpt>
      <trkpt lat="50.07813" lon="8.96789">
        <ele>155.205718</ele>
        <time>2023-07-03T11:10:44.653Z</time>
      </trkpt>
      <trkpt lat="50.07812" lon="8.96804">
        <ele>155.185385</ele>
        <time>2023-07-03T11:10:46.643Z</time>
      </trkpt>
      <trkpt lat="50.07812" lon="8.96819">
        <ele>155.166104</ele>
        <time>2023-07-03T11:10:48.651Z</time>
      </trkpt>
      <trkpt lat="50.07812" lon="8.96834">
        <ele>155.14708</ele>
        <time>2023-07-03T11:10:50.619Z</time>
      </trkpt>
      <trkpt lat="50.07812" lon="8.96849">
        <ele>155.127902</ele>
        <time>2023-07-03T11:10:52.655Z</time>
      </trkpt>
      <trkpt lat="50.07813" lon="8.96865">
        <ele>155.106798</ele>
        <time>2023-07-03T11:10:54.653Z</time>
      </trkpt>
      <trkpt lat="50.07814" lon="8.9688">
        <ele>155.087723</ele>
        <time>2023-07-03T11:10:56.650Z</time>
      </trkpt>
      <trkpt lat="50.07814" lon="8.96895">
        <ele>155.068562</ele>
        <time>2023-07-03T11:10:58.663Z</time>
      </trkpt>
      <trkpt lat="50.07814" lon="8.9691">
        <ele>155.049915</ele>
        <time>2023-07-03T11:11:00.656Z</time>
      </trkpt>
      <trkpt lat="50.07813" lon="8.96925">
        <ele>155.029508</ele>
        <time>2023-07-03T11:11:02.652Z</time>
      </trkpt>
      <trkpt lat="50.07813" lon="8.96942">
        <ele>155.007642</ele>
        <time>2023-07-03T11:11:04.654Z</time>
      </trkpt>
      <trkpt lat="50.07815" lon="8.96959">
        <ele>154.98584</ele>
        <time>2023-07-03T11:11:06.653Z</time>
      </trkpt>
      <trkpt lat="50.07816" lon="8.96976">
        <ele>154.96131</ele>
        <time>2023-07-03T11:11:08.652Z</time>
      </trkpt>
      <trkpt lat="50.07816" lon="8.96992">
        <ele>154.934631</ele>
        <time>2023-07-03T11:11:10.651Z</time>
      </trkpt>
      <trkpt lat="50.07818" lon="8.97007">
        <ele>154.907873</ele>
        <time>2023-07-03T11:11:12.654Z</time>
      </trkpt>
      <trkpt lat="50.0782" lon="8.97023">
        <ele>154.881533</ele>
        <time>2023-07-03T11:11:14.735Z</time>
      </trkpt>
      <trkpt lat="50.07821" lon="8.9704">
        <ele>154.8532</ele>
        <time>2023-07-03T11:11:16.656Z</time>
      </trkpt>
      <trkpt lat="50.07822" lon="8.97056">
        <ele>154.826519</ele>
        <time>2023-07-03T11:11:18.668Z</time>
      </trkpt>
      <trkpt lat="50.07824" lon="8.97072">
        <ele>154.798614</ele>
        <time>2023-07-03T11:11:20.670Z</time>
      </trkpt>
      <trkpt lat="50.07825" lon="8.97089">
        <ele>154.770776</ele>
        <time>2023-07-03T11:11:22.653Z</time>
      </trkpt>
      <trkpt lat="50.07827" lon="8.97106">
        <ele>154.742052</ele>
        <time>2023-07-03T11:11:24.653Z</time>
      </trkpt>
      <trkpt lat="50.07829" lon="8.97121">
        <ele>154.716452</ele>
        <time>2023-07-03T11:11:26.649Z</time>
      </trkpt>
      <trkpt lat="50.0783" lon="8.97137">
        <ele>154.689441</ele>
        <time>2023-07-03T11:11:28.653Z</time>
      </trkpt>
      <trkpt lat="50.0783" lon="8.97153">
        <ele>154.66326</ele>
        <time>2023-07-03T11:11:30.659Z</time>
      </trkpt>
      <trkpt lat="50.07832" lon="8.97169">
        <ele>154.63691</ele>
        <time>2023-07-03T11:11:32.661Z</time>
      </trkpt>
      <trkpt lat="50.07833" lon="8.97186">
        <ele>154.608847</ele>
        <time>2023-07-03T11:11:34.647Z</time>
      </trkpt>
      <trkpt lat="50.07834" lon="8.97202">
        <ele>154.581272</ele>
        <time>2023-07-03T11:11:36.650Z</time>
      </trkpt>
      <trkpt lat="50.07834" lon="8.97218">
        <ele>154.553967</ele>
        <time>2023-07-03T11:11:38.655Z</time>
      </trkpt>
      <trkpt lat="50.07834" lon="8.97235">
        <ele>154.525669</ele>
        <time>2023-07-03T11:11:40.666Z</time>
      </trkpt>
      <trkpt lat="50.07835" lon="8.97252">
        <ele>154.501276</ele>
        <time>2023-07-03T11:11:42.658Z</time>
      </trkpt>
      <trkpt lat="50.07839" lon="8.97268">
        <ele>154.481819</ele>
        <time>2023-07-03T11:11:44.646Z</time>
      </trkpt>
      <trkpt lat="50.07842" lon="8.97285">
        <ele>154.461536</ele>
        <time>2023-07-03T11:11:46.656Z</time>
      </trkpt>
      <trkpt lat="50.07841" lon="8.97302">
        <ele>154.442157</ele>
        <time>2023-07-03T11:11:48.650Z</time>
      </trkpt>
      <trkpt lat="50.0784" lon="8.97318">
        <ele>154.423093</ele>
        <time>2023-07-03T11:11:50.673Z</time>
      </trkpt>
      <trkpt lat="50.0784" lon="8.97335">
        <ele>154.40408</ele>
        <time>2023-07-03T11:11:52.656Z</time>
      </trkpt>
      <trkpt lat="50.07839" lon="8.97351">
        <ele>154.385622</ele>
        <time>2023-07-03T11:11:54.658Z</time>
      </trkpt>
      <trkpt lat="50.07839" lon="8.97367">
        <ele>154.367028</ele>
        <time>2023-07-03T11:11:56.647Z</time>
      </trkpt>
      <trkpt lat="50.07838" lon="8.97383">
        <ele>154.347701</ele>
        <time>2023-07-03T11:11:58.683Z</time>
      </trkpt>
      <trkpt lat="50.07837" lon="8.974">
        <ele>154.328489</ele>
        <time>2023-07-03T11:12:00.647Z</time>
      </trkpt>
      <trkpt lat="50.07835" lon="8.97417">
        <ele>154.308863</ele>
        <time>2023-07-03T11:12:02.655Z</time>
      </trkpt>
      <trkpt lat="50.07833" lon="8.97433">
        <ele>154.290402</ele>
        <time>2023-07-03T11:12:04.647Z</time>
      </trkpt>
      <trkpt lat="50.07832" lon="8.97448">
        <ele>154.272108</ele>
        <time>2023-07-03T11:12:06.645Z</time>
      </trkpt>
      <trkpt lat="50.0783" lon="8.97463">
        <ele>154.25498</ele>
        <time>2023-07-03T11:12:08.661Z</time>
      </trkpt>
      <trkpt lat="50.07828" lon="8.97478">
        <ele>154.237586</ele>
        <time>2023-07-03T11:12:10.655Z</time>
      </trkpt>
      <trkpt lat="50.07826" lon="8.97492">
        <ele>154.220711</ele>
        <time>2023-07-03T11:12:12.654Z</time>
      </trkpt>
      <trkpt lat="50.07824" lon="8.97506">
        <ele>154.204368</ele>
        <time>2023-07-03T11:12:14.663Z</time>
      </trkpt>
      <trkpt lat="50.07819" lon="8.97525">
        <ele>154.16748</ele>
        <time>2023-07-03T11:12:17.657Z</time>
      </trkpt>
      <trkpt lat="50.07816" lon="8.97539">
        <ele>154.107397</ele>
        <time>2023-07-03T11:12:19.650Z</time>
      </trkpt>
      <trkpt lat="50.07813" lon="8.97552">
        <ele>154.047313</ele>
        <time>2023-07-03T11:12:21.662Z</time>
      </trkpt>
      <trkpt lat="50.07809" lon="8.97567">
        <ele>153.983816</ele>
        <time>2023-07-03T11:12:23.655Z</time>
      </trkpt>
      <trkpt lat="50.07805" lon="8.97581">
        <ele>153.917724</ele>
        <time>2023-07-03T11:12:25.653Z</time>
      </trkpt>
      <trkpt lat="50.07802" lon="8.97595">
        <ele>153.857194</ele>
        <time>2023-07-03T11:12:27.657Z</time>
      </trkpt>
      <trkpt lat="50.07798" lon="8.97609">
        <ele>153.798034</ele>
        <time>2023-07-03T11:12:29.654Z</time>
      </trkpt>
      <trkpt lat="50.07795" lon="8.97622">
        <ele>153.739639</ele>
        <time>2023-07-03T11:12:31.658Z</time>
      </trkpt>
      <trkpt lat="50.07792" lon="8.97636">
        <ele>153.679327</ele>
        <time>2023-07-03T11:12:33.649Z</time>
      </trkpt>
      <trkpt lat="50.07788" lon="8.9765">
        <ele>153.619373</ele>
        <time>2023-07-03T11:12:35.672Z</time>
      </trkpt>
      <trkpt lat="50.07785" lon="8.97664">
        <ele>153.559866</ele>
        <time>2023-07-03T11:12:37.665Z</time>
      </trkpt>
      <trkpt lat="50.07782" lon="8.97678">
        <ele>153.496261</ele>
        <time>2023-07-03T11:12:39.651Z</time>
      </trkpt>
      <trkpt lat="50.07779" lon="8.97693">
        <ele>153.430519</ele>
        <time>2023-07-03T11:12:41.668Z</time>
      </trkpt>
      <trkpt lat="50.07775" lon="8.97708">
        <ele>153.365112</ele>
        <time>2023-07-03T11:12:43.670Z</time>
      </trkpt>
      <trkpt lat="50.07771" lon="8.97724">
        <ele>153.29894</ele>
        <time>2023-07-03T11:12:45.648Z</time>
      </trkpt>
      <trkpt lat="50.07768" lon="8.97737">
        <ele>153.23961</ele>
        <time>2023-07-03T11:12:47.650Z</time>
      </trkpt>
      <trkpt lat="50.07765" lon="8.97751">
        <ele>153.18099</ele>
        <time>2023-07-03T11:12:49.648Z</time>
      </trkpt>
      <trkpt lat="50.07761" lon="8.97764">
        <ele>153.119151</ele>
        <time>2023-07-03T11:12:51.653Z</time>
      </trkpt>
      <trkpt lat="50.07756" lon="8.97777">
        <ele>153.060654</ele>
        <time>2023-07-03T11:12:53.651Z</time>
      </trkpt>
      <trkpt lat="50.07751" lon="8.97789">
        <ele>153.069199</ele>
        <time>2023-07-03T11:12:55.651Z</time>
      </trkpt>
      <trkpt lat="50.07747" lon="8.97803">
        <ele>153.109209</ele>
        <time>2023-07-03T11:12:57.648Z</time>
      </trkpt>
      <trkpt lat="50.07742" lon="8.97817">
        <ele>153.152455</ele>
        <time>2023-07-03T11:12:59.671Z</time>
      </trkpt>
      <trkpt lat="50.07738" lon="8.97832">
        <ele>153.196679</ele>
        <time>2023-07-03T11:13:01.653Z</time>
      </trkpt>
      <trkpt lat="50.07734" lon="8.97847">
        <ele>153.240488</ele>
        <time>2023-07-03T11:13:03.674Z</time>
      </trkpt>
      <trkpt lat="50.07729" lon="8.9786">
        <ele>153.280663</ele>
        <time>2023-07-03T11:13:05.662Z</time>
      </trkpt>
      <trkpt lat="50.07725" lon="8.97874">
        <ele>153.320537</ele>
        <time>2023-07-03T11:13:07.652Z</time>
      </trkpt>
      <trkpt lat="50.0772" lon="8.97886">
        <ele>153.360011</ele>
        <time>2023-07-03T11:13:09.650Z</time>
      </trkpt>
      <trkpt lat="50.07714" lon="8.97897">
        <ele>153.398387</ele>
        <time>2023-07-03T11:13:11.654Z</time>
      </trkpt>
      <trkpt lat="50.07708" lon="8.97915">
        <ele>153.451159</ele>
        <time>2023-07-03T11:13:14.648Z</time>
      </trkpt>
      <trkpt lat="50.07704" lon="8.97927">
        <ele>153.489292</ele>
        <time>2023-07-03T11:13:16.660Z</time>
      </trkpt>
      <trkpt lat="50.07697" lon="8.97944">
        <ele>153.54161</ele>
        <time>2023-07-03T11:13:19.673Z</time>
      </trkpt>
      <trkpt lat="50.07692" lon="8.97959">
        <ele>153.587585</ele>
        <time>2023-07-03T11:13:22.670Z</time>
      </trkpt>
      <trkpt lat="50.07687" lon="8.97975">
        <ele>153.635706</ele>
        <time>2023-07-03T11:13:25.660Z</time>
      </trkpt>
      <trkpt lat="50.07682" lon="8.9799">
        <ele>153.680586</ele>
        <time>2023-07-03T11:13:28.659Z</time>
      </trkpt>
      <trkpt lat="50.07677" lon="8.98006">
        <ele>153.728285</ele>
        <time>2023-07-03T11:13:31.667Z</time>
      </trkpt>
      <trkpt lat="50.07673" lon="8.98024">
        <ele>153.779068</ele>
        <time>2023-07-03T11:13:34.657Z</time>
      </trkpt>
      <trkpt lat="50.07669" lon="8.98037">
        <ele>153.835634</ele>
        <time>2023-07-03T11:13:36.645Z</time>
      </trkpt>
      <trkpt lat="50.07665" lon="8.98056">
        <ele>153.926319</ele>
        <time>2023-07-03T11:13:39.658Z</time>
      </trkpt>
      <trkpt lat="50.07659" lon="8.98074">
        <ele>154.015614</ele>
        <time>2023-07-03T11:13:42.654Z</time>
      </trkpt>
      <trkpt lat="50.07656" lon="8.98087">
        <ele>154.080165</ele>
        <time>2023-07-03T11:13:44.647Z</time>
      </trkpt>
      <trkpt lat="50.07651" lon="8.98106">
        <ele>154.175335</ele>
        <time>2023-07-03T11:13:47.651Z</time>
      </trkpt>
      <trkpt lat="50.07648" lon="8.9812">
        <ele>154.241666</ele>
        <time>2023-07-03T11:13:49.646Z</time>
      </trkpt>
      <trkpt lat="50.07644" lon="8.98134">
        <ele>154.308523</ele>
        <time>2023-07-03T11:13:51.658Z</time>
      </trkpt>
      <trkpt lat="50.07639" lon="8.98153">
        <ele>154.404908</ele>
        <time>2023-07-03T11:13:54.664Z</time>
      </trkpt>
      <trkpt lat="50.07636" lon="8.98167">
        <ele>154.46946</ele>
        <time>2023-07-03T11:13:56.638Z</time>
      </trkpt>
      <trkpt lat="50.07633" lon="8.9818">
        <ele>154.535676</ele>
        <time>2023-07-03T11:13:58.659Z</time>
      </trkpt>
      <trkpt lat="50.07629" lon="8.98194">
        <ele>154.603372</ele>
        <time>2023-07-03T11:14:00.663Z</time>
      </trkpt>
      <trkpt lat="50.07625" lon="8.98207">
        <ele>154.670567</ele>
        <time>2023-07-03T11:14:02.656Z</time>
      </trkpt>
      <trkpt lat="50.07621" lon="8.98221">
        <ele>154.73902</ele>
        <time>2023-07-03T11:14:04.661Z</time>
      </trkpt>
      <trkpt lat="50.07618" lon="8.98235">
        <ele>154.807227</ele>
        <time>2023-07-03T11:14:06.661Z</time>
      </trkpt>
      <trkpt lat="50.07614" lon="8.98249">
        <ele>154.872712</ele>
        <time>2023-07-03T11:14:08.660Z</time>
      </trkpt>
      <trkpt lat="50.07611" lon="8.98262">
        <ele>154.93957</ele>
        <time>2023-07-03T11:14:10.662Z</time>
      </trkpt>
      <trkpt lat="50.07607" lon="8.98276">
        <ele>155.0088</ele>
        <time>2023-07-03T11:14:12.667Z</time>
      </trkpt>
      <trkpt lat="50.07603" lon="8.9829">
        <ele>155.059973</ele>
        <time>2023-07-03T11:14:14.671Z</time>
      </trkpt>
      <trkpt lat="50.07599" lon="8.98304">
        <ele>155.028847</ele>
        <time>2023-07-03T11:14:16.649Z</time>
      </trkpt>
      <trkpt lat="50.07595" lon="8.98317">
        <ele>154.999766</ele>
        <time>2023-07-03T11:14:18.667Z</time>
      </trkpt>
      <trkpt lat="50.0759" lon="8.9833">
        <ele>154.968557</ele>
        <time>2023-07-03T11:14:20.650Z</time>
      </trkpt>
      <trkpt lat="50.07586" lon="8.98344">
        <ele>154.937651</ele>
        <time>2023-07-03T11:14:22.655Z</time>
      </trkpt>
      <trkpt lat="50.07581" lon="8.98358">
        <ele>154.905465</ele>
        <time>2023-07-03T11:14:24.652Z</time>
      </trkpt>
      <trkpt lat="50.07577" lon="8.98372">
        <ele>154.872686</ele>
        <time>2023-07-03T11:14:26.662Z</time>
      </trkpt>
      <trkpt lat="50.07571" lon="8.98386">
        <ele>154.839435</ele>
        <time>2023-07-03T11:14:28.631Z</time>
      </trkpt>
      <trkpt lat="50.07566" lon="8.984">
        <ele>154.806475</ele>
        <time>2023-07-03T11:14:30.654Z</time>
      </trkpt>
      <trkpt lat="50.07561" lon="8.98412">
        <ele>154.775848</ele>
        <time>2023-07-03T11:14:32.670Z</time>
      </trkpt>
      <trkpt lat="50.07554" lon="8.9843">
        <ele>154.732942</ele>
        <time>2023-07-03T11:14:35.654Z</time>
      </trkpt>
      <trkpt lat="50.07549" lon="8.98442">
        <ele>154.70284</ele>
        <time>2023-07-03T11:14:37.653Z</time>
      </trkpt>
      <trkpt lat="50.07545" lon="8.98455">
        <ele>154.67359</ele>
        <time>2023-07-03T11:14:39.667Z</time>
      </trkpt>
      <trkpt lat="50.0754" lon="8.98467">
        <ele>154.643823</ele>
        <time>2023-07-03T11:14:41.655Z</time>
      </trkpt>
      <trkpt lat="50.07535" lon="8.98479">
        <ele>154.61458</ele>
        <time>2023-07-03T11:14:43.655Z</time>
      </trkpt>
      <trkpt lat="50.0753" lon="8.9849">
        <ele>154.585676</ele>
        <time>2023-07-03T11:14:45.648Z</time>
      </trkpt>
      <trkpt lat="50.07523" lon="8.98509">
        <ele>154.542224</ele>
        <time>2023-07-03T11:14:48.634Z</time>
      </trkpt>
      <trkpt lat="50.07517" lon="8.98522">
        <ele>154.509505</ele>
        <time>2023-07-03T11:14:50.653Z</time>
      </trkpt>
      <trkpt lat="50.07513" lon="8.98535">
        <ele>154.484498</ele>
        <time>2023-07-03T11:14:52.653Z</time>
      </trkpt>
      <trkpt lat="50.07507" lon="8.98549">
        <ele>154.469248</ele>
        <time>2023-07-03T11:14:54.662Z</time>
      </trkpt>
      <trkpt lat="50.07501" lon="8.98562">
        <ele>154.454396</ele>
        <time>2023-07-03T11:14:56.652Z</time>
      </trkpt>
      <trkpt lat="50.07494" lon="8.98574">
        <ele>154.439198</ele>
        <time>2023-07-03T11:14:58.659Z</time>
      </trkpt>
      <trkpt lat="50.07488" lon="8.98586">
        <ele>154.424608</ele>
        <time>2023-07-03T11:15:00.661Z</time>
      </trkpt>
      <trkpt lat="50.07481" lon="8.98598">
        <ele>154.409648</ele>
        <time>2023-07-03T11:15:02.662Z</time>
      </trkpt>
      <trkpt lat="50.07475" lon="8.9861">
        <ele>154.394854</ele>
        <time>2023-07-03T11:15:04.670Z</time>
      </trkpt>
      <trkpt lat="50.07468" lon="8.98621">
        <ele>154.380703</ele>
        <time>2023-07-03T11:15:06.643Z</time>
      </trkpt>
      <trkpt lat="50.07461" lon="8.98632">
        <ele>154.367019</ele>
        <time>2023-07-03T11:15:08.653Z</time>
      </trkpt>
      <trkpt lat="50.07452" lon="8.98645">
        <ele>154.348361</ele>
        <time>2023-07-03T11:15:11.660Z</time>
      </trkpt>
      <trkpt lat="50.07445" lon="8.9866">
        <ele>154.330961</ele>
        <time>2023-07-03T11:15:14.659Z</time>
      </trkpt>
      <trkpt lat="50.07436" lon="8.98672">
        <ele>154.314057</ele>
        <time>2023-07-03T11:15:17.657Z</time>
      </trkpt>
      <trkpt lat="50.07427" lon="8.98684">
        <ele>154.296762</ele>
        <time>2023-07-03T11:15:20.637Z</time>
      </trkpt>
      <trkpt lat="50.07419" lon="8.98696">
        <ele>154.280049</ele>
        <time>2023-07-03T11:15:23.652Z</time>
      </trkpt>
      <trkpt lat="50.0741" lon="8.98707">
        <ele>154.263563</ele>
        <time>2023-07-03T11:15:26.658Z</time>
      </trkpt>
      <trkpt lat="50.07401" lon="8.98719">
        <ele>154.246307</ele>
        <time>2023-07-03T11:15:29.649Z</time>
      </trkpt>
      <trkpt lat="50.07392" lon="8.98731">
        <ele>154.228941</ele>
        <time>2023-07-03T11:15:32.655Z</time>
      </trkpt>
      <trkpt lat="50.07382" lon="8.98744">
        <ele>154.24264</ele>
        <time>2023-07-03T11:15:35.657Z</time>
      </trkpt>
      <trkpt lat="50.07372" lon="8.98758">
        <ele>154.261248</ele>
        <time>2023-07-03T11:15:38.676Z</time>
      </trkpt>
      <trkpt lat="50.07365" lon="8.98766">
        <ele>154.273682</ele>
        <time>2023-07-03T11:15:40.652Z</time>
      </trkpt>
      <trkpt lat="50.07357" lon="8.98775">
        <ele>154.287002</ele>
        <time>2023-07-03T11:15:42.659Z</time>
      </trkpt>
      <trkpt lat="50.07347" lon="8.98787">
        <ele>154.305355</ele>
        <time>2023-07-03T11:15:45.660Z</time>
      </trkpt>
      <trkpt lat="50.0734" lon="8.98797">
        <ele>154.318562</ele>
        <time>2023-07-03T11:15:47.636Z</time>
      </trkpt>
      <trkpt lat="50.07332" lon="8.98806">
        <ele>154.331598</ele>
        <time>2023-07-03T11:15:49.669Z</time>
      </trkpt>
      <trkpt lat="50.07325" lon="8.98815">
        <ele>154.344308</ele>
        <time>2023-07-03T11:15:51.661Z</time>
      </trkpt>
      <trkpt lat="50.07315" lon="8.98827">
        <ele>154.362443</ele>
        <time>2023-07-03T11:15:54.653Z</time>
      </trkpt>
      <trkpt lat="50.07303" lon="8.98838">
        <ele>154.381088</ele>
        <time>2023-07-03T11:15:57.659Z</time>
      </trkpt>
      <trkpt lat="50.07296" lon="8.98846">
        <ele>154.393651</ele>
        <time>2023-07-03T11:15:59.652Z</time>
      </trkpt>
      <trkpt lat="50.07285" lon="8.98857">
        <ele>154.411452</ele>
        <time>2023-07-03T11:16:02.670Z</time>
      </trkpt>
      <trkpt lat="50.07274" lon="8.98866">
        <ele>154.428059</ele>
        <time>2023-07-03T11:16:05.653Z</time>
      </trkpt>
      <trkpt lat="50.07264" lon="8.98875">
        <ele>154.444441</ele>
        <time>2023-07-03T11:16:08.658Z</time>
      </trkpt>
      <trkpt lat="50.07254" lon="8.98883">
        <ele>154.460134</ele>
        <time>2023-07-03T11:16:11.630Z</time>
      </trkpt>
      <trkpt lat="50.07245" lon="8.98893">
        <ele>154.47614</ele>
        <time>2023-07-03T11:16:14.652Z</time>
      </trkpt>
      <trkpt lat="50.07233" lon="8.989">
        <ele>154.557721</ele>
        <time>2023-07-03T11:16:17.651Z</time>
      </trkpt>
      <trkpt lat="50.07222" lon="8.9891">
        <ele>154.645871</ele>
        <time>2023-07-03T11:16:20.648Z</time>
      </trkpt>
      <trkpt lat="50.07211" lon="8.98921">
        <ele>154.734193</ele>
        <time>2023-07-03T11:16:23.654Z</time>
      </trkpt>
      <trkpt lat="50.072" lon="8.9893">
        <ele>154.820248</ele>
        <time>2023-07-03T11:16:26.659Z</time>
      </trkpt>
      <trkpt lat="50.07188" lon="8.98939">
        <ele>154.907933</ele>
        <time>2023-07-03T11:16:29.649Z</time>
      </trkpt>
      <trkpt lat="50.07177" lon="8.98947">
        <ele>154.993935</ele>
        <time>2023-07-03T11:16:32.648Z</time>
      </trkpt>
      <trkpt lat="50.07165" lon="8.98956">
        <ele>155.082894</ele>
        <time>2023-07-03T11:16:35.651Z</time>
      </trkpt>
      <trkpt lat="50.07153" lon="8.98963">
        <ele>155.170069</ele>
        <time>2023-07-03T11:16:38.652Z</time>
      </trkpt>
      <trkpt lat="50.07141" lon="8.98971">
        <ele>155.260801</ele>
        <time>2023-07-03T11:16:41.653Z</time>
      </trkpt>
      <trkpt lat="50.07129" lon="8.98979">
        <ele>155.349257</ele>
        <time>2023-07-03T11:16:44.634Z</time>
      </trkpt>
      <trkpt lat="50.07117" lon="8.98985">
        <ele>155.438092</ele>
        <time>2023-07-03T11:16:47.658Z</time>
      </trkpt>
      <trkpt lat="50.07105" lon="8.98993">
        <ele>155.526084</ele>
        <time>2023-07-03T11:16:50.657Z</time>
      </trkpt>
      <trkpt lat="50.07096" lon="8.98998">
        <ele>155.587489</ele>
        <time>2023-07-03T11:16:52.655Z</time>
      </trkpt>
      <trkpt lat="50.07088" lon="8.99002">
        <ele>155.649686</ele>
        <time>2023-07-03T11:16:54.652Z</time>
      </trkpt>
      <trkpt lat="50.07079" lon="8.99007">
        <ele>155.701846</ele>
        <time>2023-07-03T11:16:56.651Z</time>
      </trkpt>
      <trkpt lat="50.07067" lon="8.99014">
        <ele>155.664039</ele>
        <time>2023-07-03T11:16:59.657Z</time>
      </trkpt>
      <trkpt lat="50.07055" lon="8.99018">
        <ele>155.627884</ele>
        <time>2023-07-03T11:17:02.632Z</time>
      </trkpt>
      <trkpt lat="50.07043" lon="8.99023">
        <ele>155.594255</ele>
        <time>2023-07-03T11:17:05.654Z</time>
      </trkpt>
      <trkpt lat="50.07032" lon="8.99026">
        <ele>155.560708</ele>
        <time>2023-07-03T11:17:08.653Z</time>
      </trkpt>
      <trkpt lat="50.0702" lon="8.99031">
        <ele>155.525396</ele>
        <time>2023-07-03T11:17:11.643Z</time>
      </trkpt>
      <trkpt lat="50.07008" lon="8.99035">
        <ele>155.489241</ele>
        <time>2023-07-03T11:17:14.659Z</time>
      </trkpt>
      <trkpt lat="50.06995" lon="8.99037">
        <ele>155.453572</ele>
        <time>2023-07-03T11:17:17.649Z</time>
      </trkpt>
      <trkpt lat="50.06983" lon="8.99038">
        <ele>155.417425</ele>
        <time>2023-07-03T11:17:20.650Z</time>
      </trkpt>
      <trkpt lat="50.06971" lon="8.9904">
        <ele>155.383786</ele>
        <time>2023-07-03T11:17:23.667Z</time>
      </trkpt>
      <trkpt lat="50.0696" lon="8.9904">
        <ele>155.351127</ele>
        <time>2023-07-03T11:17:26.639Z</time>
      </trkpt>
      <trkpt lat="50.06948" lon="8.99041">
        <ele>155.315575</ele>
        <time>2023-07-03T11:17:29.659Z</time>
      </trkpt>
      <trkpt lat="50.06936" lon="8.99042">
        <ele>155.282331</ele>
        <time>2023-07-03T11:17:32.651Z</time>
      </trkpt>
      <trkpt lat="50.06925" lon="8.99042">
        <ele>155.249705</ele>
        <time>2023-07-03T11:17:35.659Z</time>
      </trkpt>
      <trkpt lat="50.06914" lon="8.99042">
        <ele>155.217941</ele>
        <time>2023-07-03T11:17:38.657Z</time>
      </trkpt>
      <trkpt lat="50.06904" lon="8.9904">
        <ele>155.188055</ele>
        <time>2023-07-03T11:17:41.652Z</time>
      </trkpt>
      <trkpt lat="50.06894" lon="8.9904">
        <ele>155.188073</ele>
        <time>2023-07-03T11:17:44.653Z</time>
      </trkpt>
      <trkpt lat="50.06883" lon="8.99039">
        <ele>155.190856</ele>
        <time>2023-07-03T11:17:47.652Z</time>
      </trkpt>
      <trkpt lat="50.06873" lon="8.99037">
        <ele>155.193631</ele>
        <time>2023-07-03T11:17:50.658Z</time>
      </trkpt>
      <trkpt lat="50.06863" lon="8.99035">
        <ele>155.196485</ele>
        <time>2023-07-03T11:17:53.650Z</time>
      </trkpt>
      <trkpt lat="50.06853" lon="8.99034">
        <ele>155.199216</ele>
        <time>2023-07-03T11:17:56.647Z</time>
      </trkpt>
      <trkpt lat="50.06843" lon="8.99031">
        <ele>155.201964</ele>
        <time>2023-07-03T11:17:59.641Z</time>
      </trkpt>
      <trkpt lat="50.06832" lon="8.99029">
        <ele>155.204736</ele>
        <time>2023-07-03T11:18:02.652Z</time>
      </trkpt>
      <trkpt lat="50.06822" lon="8.99025">
        <ele>155.207585</ele>
        <time>2023-07-03T11:18:05.639Z</time>
      </trkpt>
      <trkpt lat="50.06812" lon="8.99022">
        <ele>155.210344</ele>
        <time>2023-07-03T11:18:08.661Z</time>
      </trkpt>
      <trkpt lat="50.06802" lon="8.99019">
        <ele>155.213205</ele>
        <time>2023-07-03T11:18:11.647Z</time>
      </trkpt>
      <trkpt lat="50.06791" lon="8.99015">
        <ele>155.216136</ele>
        <time>2023-07-03T11:18:14.643Z</time>
      </trkpt>
      <trkpt lat="50.06781" lon="8.99011">
        <ele>155.218936</ele>
        <time>2023-07-03T11:18:17.666Z</time>
      </trkpt>
      <trkpt lat="50.06772" lon="8.99006">
        <ele>155.221533</ele>
        <time>2023-07-03T11:18:20.649Z</time>
      </trkpt>
      <trkpt lat="50.06762" lon="8.99002">
        <ele>155.224298</ele>
        <time>2023-07-03T11:18:23.648Z</time>
      </trkpt>
      <trkpt lat="50.06752" lon="8.98998">
        <ele>155.227029</ele>
        <time>2023-07-03T11:18:26.642Z</time>
      </trkpt>
      <trkpt lat="50.06742" lon="8.98992">
        <ele>155.230101</ele>
        <time>2023-07-03T11:18:29.646Z</time>
      </trkpt>
      <trkpt lat="50.06731" lon="8.98985">
        <ele>155.233226</ele>
        <time>2023-07-03T11:18:32.658Z</time>
      </trkpt>
      <trkpt lat="50.06721" lon="8.98978">
        <ele>155.211815</ele>
        <time>2023-07-03T11:18:35.648Z</time>
      </trkpt>
      <trkpt lat="50.06711" lon="8.98971">
        <ele>155.178668</ele>
        <time>2023-07-03T11:18:38.660Z</time>
      </trkpt>
      <trkpt lat="50.06701" lon="8.98965">
        <ele>155.145842</ele>
        <time>2023-07-03T11:18:41.651Z</time>
      </trkpt>
      <trkpt lat="50.06691" lon="8.98958">
        <ele>155.109741</ele>
        <time>2023-07-03T11:18:44.657Z</time>
      </trkpt>
      <trkpt lat="50.0668" lon="8.98951">
        <ele>155.074548</ele>
        <time>2023-07-03T11:18:47.647Z</time>
      </trkpt>
      <trkpt lat="50.0667" lon="8.98944">
        <ele>155.04056</ele>
        <time>2023-07-03T11:18:50.644Z</time>
      </trkpt>
      <trkpt lat="50.0666" lon="8.98938">
        <ele>155.006751</ele>
        <time>2023-07-03T11:18:53.655Z</time>
      </trkpt>
      <trkpt lat="50.0665" lon="8.98931">
        <ele>154.974285</ele>
        <time>2023-07-03T11:18:56.652Z</time>
      </trkpt>
      <trkpt lat="50.0664" lon="8.98924">
        <ele>154.941249</ele>
        <time>2023-07-03T11:18:59.688Z</time>
      </trkpt>
      <trkpt lat="50.06631" lon="8.98918">
        <ele>154.910944</ele>
        <time>2023-07-03T11:19:02.660Z</time>
      </trkpt>
      <trkpt lat="50.06621" lon="8.98912">
        <ele>154.877925</ele>
        <time>2023-07-03T11:19:06.670Z</time>
      </trkpt>
      <trkpt lat="50.06613" lon="8.98905">
        <ele>154.848259</ele>
        <time>2023-07-03T11:19:09.658Z</time>
      </trkpt>
      <trkpt lat="50.06603" lon="8.98898">
        <ele>154.815137</ele>
        <time>2023-07-03T11:19:12.666Z</time>
      </trkpt>
      <trkpt lat="50.06592" lon="8.98891">
        <ele>154.779322</ele>
        <time>2023-07-03T11:19:15.669Z</time>
      </trkpt>
      <trkpt lat="50.06581" lon="8.98885">
        <ele>154.744297</ele>
        <time>2023-07-03T11:19:18.657Z</time>
      </trkpt>
      <trkpt lat="50.06571" lon="8.98878">
        <ele>154.710488</ele>
        <time>2023-07-03T11:19:21.645Z</time>
      </trkpt>
      <trkpt lat="50.0656" lon="8.98871">
        <ele>154.68255</ele>
        <time>2023-07-03T11:19:24.650Z</time>
      </trkpt>
      <trkpt lat="50.06549" lon="8.98863">
        <ele>154.688787</ele>
        <time>2023-07-03T11:19:27.633Z</time>
      </trkpt>
      <trkpt lat="50.06538" lon="8.98856">
        <ele>154.694898</ele>
        <time>2023-07-03T11:19:30.680Z</time>
      </trkpt>
      <trkpt lat="50.06526" lon="8.98849">
        <ele>154.701128</ele>
        <time>2023-07-03T11:19:33.640Z</time>
      </trkpt>
      <trkpt lat="50.06515" lon="8.98841">
        <ele>154.707489</ele>
        <time>2023-07-03T11:19:36.657Z</time>
      </trkpt>
      <trkpt lat="50.06505" lon="8.98832">
        <ele>154.713618</ele>
        <time>2023-07-03T11:19:39.667Z</time>
      </trkpt>
      <trkpt lat="50.06493" lon="8.98824">
        <ele>154.720006</ele>
        <time>2023-07-03T11:19:42.655Z</time>
      </trkpt>
      <trkpt lat="50.06482" lon="8.98817">
        <ele>154.726057</ele>
        <time>2023-07-03T11:19:45.646Z</time>
      </trkpt>
      <trkpt lat="50.06471" lon="8.98809">
        <ele>154.732188</ele>
        <time>2023-07-03T11:19:48.666Z</time>
      </trkpt>
      <trkpt lat="50.0646" lon="8.98801">
        <ele>154.738382</ele>
        <time>2023-07-03T11:19:51.642Z</time>
      </trkpt>
      <trkpt lat="50.06449" lon="8.98793">
        <ele>154.74461</ele>
        <time>2023-07-03T11:19:54.652Z</time>
      </trkpt>
      <trkpt lat="50.06438" lon="8.98784">
        <ele>154.751102</ele>
        <time>2023-07-03T11:19:57.654Z</time>
      </trkpt>
      <trkpt lat="50.06427" lon="8.98775">
        <ele>154.757459</ele>
        <time>2023-07-03T11:20:00.632Z</time>
      </trkpt>
      <trkpt lat="50.06416" lon="8.98765">
        <ele>154.763881</ele>
        <time>2023-07-03T11:20:03.649Z</time>
      </trkpt>
      <trkpt lat="50.06405" lon="8.98756">
        <ele>154.770226</ele>
        <time>2023-07-03T11:20:06.650Z</time>
      </trkpt>
      <trkpt lat="50.06394" lon="8.98746">
        <ele>154.804776</ele>
        <time>2023-07-03T11:20:09.647Z</time>
      </trkpt>
      <trkpt lat="50.06383" lon="8.98736">
        <ele>154.856806</ele>
        <time>2023-07-03T11:20:12.656Z</time>
      </trkpt>
      <trkpt lat="50.06372" lon="8.98726">
        <ele>154.911046</ele>
        <time>2023-07-03T11:20:15.683Z</time>
      </trkpt>
      <trkpt lat="50.06361" lon="8.98717">
        <ele>154.963653</ele>
        <time>2023-07-03T11:20:18.657Z</time>
      </trkpt>
      <trkpt lat="50.06351" lon="8.98707">
        <ele>155.015231</ele>
        <time>2023-07-03T11:20:21.653Z</time>
      </trkpt>
      <trkpt lat="50.0634" lon="8.98698">
        <ele>155.067094</ele>
        <time>2023-07-03T11:20:24.658Z</time>
      </trkpt>
      <trkpt lat="50.06329" lon="8.98689">
        <ele>155.120824</ele>
        <time>2023-07-03T11:20:27.646Z</time>
      </trkpt>
      <trkpt lat="50.06318" lon="8.98679">
        <ele>155.173189</ele>
        <time>2023-07-03T11:20:30.652Z</time>
      </trkpt>
      <trkpt lat="50.06308" lon="8.9867">
        <ele>155.224627</ele>
        <time>2023-07-03T11:20:33.653Z</time>
      </trkpt>
      <trkpt lat="50.06297" lon="8.98661">
        <ele>155.27823</ele>
        <time>2023-07-03T11:20:36.652Z</time>
      </trkpt>
      <trkpt lat="50.06286" lon="8.9865">
        <ele>155.331031</ele>
        <time>2023-07-03T11:20:39.659Z</time>
      </trkpt>
      <trkpt lat="50.06276" lon="8.98641">
        <ele>155.381918</ele>
        <time>2023-07-03T11:20:42.649Z</time>
      </trkpt>
      <trkpt lat="50.06266" lon="8.98631">
        <ele>155.431984</ele>
        <time>2023-07-03T11:20:45.643Z</time>
      </trkpt>
      <trkpt lat="50.06255" lon="8.98622">
        <ele>155.48429</ele>
        <time>2023-07-03T11:20:48.639Z</time>
      </trkpt>
      <trkpt lat="50.06245" lon="8.98612">
        <ele>155.532844</ele>
        <time>2023-07-03T11:20:51.658Z</time>
      </trkpt>
      <trkpt lat="50.06235" lon="8.98602">
        <ele>155.58724</ele>
        <time>2023-07-03T11:20:54.665Z</time>
      </trkpt>
      <trkpt lat="50.06224" lon="8.98593">
        <ele>155.640144</ele>
        <time>2023-07-03T11:20:57.653Z</time>
      </trkpt>
      <trkpt lat="50.06214" lon="8.98583">
        <ele>155.691826</ele>
        <time>2023-07-03T11:21:00.667Z</time>
      </trkpt>
      <trkpt lat="50.06203" lon="8.98574">
        <ele>155.742996</ele>
        <time>2023-07-03T11:21:03.645Z</time>
      </trkpt>
      <trkpt lat="50.06193" lon="8.98565">
        <ele>155.794345</ele>
        <time>2023-07-03T11:21:06.654Z</time>
      </trkpt>
      <trkpt lat="50.06182" lon="8.98557">
        <ele>155.845955</ele>
        <time>2023-07-03T11:21:09.643Z</time>
      </trkpt>
      <trkpt lat="50.06172" lon="8.98548">
        <ele>155.894521</ele>
        <time>2023-07-03T11:21:12.661Z</time>
      </trkpt>
      <trkpt lat="50.06163" lon="8.98541">
        <ele>155.939354</ele>
        <time>2023-07-03T11:21:15.655Z</time>
      </trkpt>
      <trkpt lat="50.06154" lon="8.98534">
        <ele>155.982694</ele>
        <time>2023-07-03T11:21:18.651Z</time>
      </trkpt>
      <trkpt lat="50.06145" lon="8.98527">
        <ele>156.027024</ele>
        <time>2023-07-03T11:21:21.651Z</time>
      </trkpt>
      <trkpt lat="50.06135" lon="8.98519">
        <ele>156.075818</ele>
        <time>2023-07-03T11:21:24.656Z</time>
      </trkpt>
      <trkpt lat="50.06125" lon="8.98512">
        <ele>156.123383</ele>
        <time>2023-07-03T11:21:27.651Z</time>
      </trkpt>
      <trkpt lat="50.06115" lon="8.98504">
        <ele>156.170772</ele>
        <time>2023-07-03T11:21:30.654Z</time>
      </trkpt>
      <trkpt lat="50.06105" lon="8.98496">
        <ele>156.218338</ele>
        <time>2023-07-03T11:21:33.645Z</time>
      </trkpt>
      <trkpt lat="50.06095" lon="8.98488">
        <ele>156.266768</ele>
        <time>2023-07-03T11:21:36.660Z</time>
      </trkpt>
      <trkpt lat="50.06085" lon="8.98481">
        <ele>156.308266</ele>
        <time>2023-07-03T11:21:39.647Z</time>
      </trkpt>
      <trkpt lat="50.06075" lon="8.98473">
        <ele>156.237114</ele>
        <time>2023-07-03T11:21:42.662Z</time>
      </trkpt>
      <trkpt lat="50.06064" lon="8.98465">
        <ele>156.163426</ele>
        <time>2023-07-03T11:21:45.643Z</time>
      </trkpt>
      <trkpt lat="50.06053" lon="8.98457">
        <ele>156.089175</ele>
        <time>2023-07-03T11:21:48.651Z</time>
      </trkpt>
      <trkpt lat="50.06043" lon="8.98449">
        <ele>156.019399</ele>
        <time>2023-07-03T11:21:51.664Z</time>
      </trkpt>
      <trkpt lat="50.06033" lon="8.98442">
        <ele>155.951273</ele>
        <time>2023-07-03T11:21:54.655Z</time>
      </trkpt>
      <trkpt lat="50.06023" lon="8.98434">
        <ele>155.878822</ele>
        <time>2023-07-03T11:21:57.651Z</time>
      </trkpt>
      <trkpt lat="50.06012" lon="8.98428">
        <ele>155.805466</ele>
        <time>2023-07-03T11:22:00.654Z</time>
      </trkpt>
      <trkpt lat="50.06001" lon="8.9842">
        <ele>155.731311</ele>
        <time>2023-07-03T11:22:03.654Z</time>
      </trkpt>
      <trkpt lat="50.0599" lon="8.98413">
        <ele>155.656331</ele>
        <time>2023-07-03T11:22:06.642Z</time>
      </trkpt>
      <trkpt lat="50.05979" lon="8.98405">
        <ele>155.583546</ele>
        <time>2023-07-03T11:22:09.656Z</time>
      </trkpt>
      <trkpt lat="50.05968" lon="8.98398">
        <ele>155.510751</ele>
        <time>2023-07-03T11:22:12.658Z</time>
      </trkpt>
      <trkpt lat="50.05958" lon="8.98391">
        <ele>155.440139</ele>
        <time>2023-07-03T11:22:15.654Z</time>
      </trkpt>
      <trkpt lat="50.05947" lon="8.98385">
        <ele>155.365314</ele>
        <time>2023-07-03T11:22:18.646Z</time>
      </trkpt>
      <trkpt lat="50.05936" lon="8.98377">
        <ele>155.290667</ele>
        <time>2023-07-03T11:22:21.650Z</time>
      </trkpt>
      <trkpt lat="50.05924" lon="8.9837">
        <ele>155.211947</ele>
        <time>2023-07-03T11:22:24.656Z</time>
      </trkpt>
      <trkpt lat="50.05912" lon="8.98363">
        <ele>155.111688</ele>
        <time>2023-07-03T11:22:27.667Z</time>
      </trkpt>
      <trkpt lat="50.05902" lon="8.98355">
        <ele>155.007931</ele>
        <time>2023-07-03T11:22:30.661Z</time>
      </trkpt>
      <trkpt lat="50.05889" lon="8.98349">
        <ele>154.897355</ele>
        <time>2023-07-03T11:22:33.633Z</time>
      </trkpt>
      <trkpt lat="50.05881" lon="8.98344">
        <ele>154.818089</ele>
        <time>2023-07-03T11:22:35.651Z</time>
      </trkpt>
      <trkpt lat="50.05872" lon="8.98338">
        <ele>154.736608</ele>
        <time>2023-07-03T11:22:37.648Z</time>
      </trkpt>
      <trkpt lat="50.05864" lon="8.98332">
        <ele>154.658532</ele>
        <time>2023-07-03T11:22:39.656Z</time>
      </trkpt>
      <trkpt lat="50.05852" lon="8.98324">
        <ele>154.547329</ele>
        <time>2023-07-03T11:22:42.653Z</time>
      </trkpt>
      <trkpt lat="50.05842" lon="8.98318">
        <ele>154.452754</ele>
        <time>2023-07-03T11:22:45.660Z</time>
      </trkpt>
      <trkpt lat="50.05832" lon="8.9831">
        <ele>154.352765</ele>
        <time>2023-07-03T11:22:48.658Z</time>
      </trkpt>
      <trkpt lat="50.0582" lon="8.98304">
        <ele>154.246679</ele>
        <time>2023-07-03T11:22:51.652Z</time>
      </trkpt>
      <trkpt lat="50.05808" lon="8.98297">
        <ele>154.138388</ele>
        <time>2023-07-03T11:22:54.656Z</time>
      </trkpt>
      <trkpt lat="50.05797" lon="8.9829">
        <ele>154.031513</ele>
        <time>2023-07-03T11:22:57.666Z</time>
      </trkpt>
      <trkpt lat="50.05787" lon="8.98283">
        <ele>153.938976</ele>
        <time>2023-07-03T11:23:00.654Z</time>
      </trkpt>
      <trkpt lat="50.05778" lon="8.98275">
        <ele>153.846256</ele>
        <time>2023-07-03T11:23:03.655Z</time>
      </trkpt>
      <trkpt lat="50.05768" lon="8.98266">
        <ele>153.751891</ele>
        <time>2023-07-03T11:23:06.668Z</time>
      </trkpt>
      <trkpt lat="50.05759" lon="8.98258">
        <ele>153.659436</ele>
        <time>2023-07-03T11:23:09.650Z</time>
      </trkpt>
      <trkpt lat="50.05749" lon="8.98249">
        <ele>153.556418</ele>
        <time>2023-07-03T11:23:12.666Z</time>
      </trkpt>
      <trkpt lat="50.0574" lon="8.98241">
        <ele>153.457643</ele>
        <time>2023-07-03T11:23:15.644Z</time>
      </trkpt>
      <trkpt lat="50.05731" lon="8.98231">
        <ele>153.349978</ele>
        <time>2023-07-03T11:23:18.670Z</time>
      </trkpt>
      <trkpt lat="50.05722" lon="8.98221">
        <ele>153.247094</ele>
        <time>2023-07-03T11:23:21.653Z</time>
      </trkpt>
      <trkpt lat="50.05713" lon="8.9821">
        <ele>153.138794</ele>
        <time>2023-07-03T11:23:24.658Z</time>
      </trkpt>
      <trkpt lat="50.05704" lon="8.982">
        <ele>153.039382</ele>
        <time>2023-07-03T11:23:27.651Z</time>
      </trkpt>
      <trkpt lat="50.05696" lon="8.9819">
        <ele>152.938775</ele>
        <time>2023-07-03T11:23:30.669Z</time>
      </trkpt>
      <trkpt lat="50.05686" lon="8.9818">
        <ele>152.836146</ele>
        <time>2023-07-03T11:23:33.648Z</time>
      </trkpt>
      <trkpt lat="50.05677" lon="8.98171">
        <ele>152.733516</ele>
        <time>2023-07-03T11:23:36.653Z</time>
      </trkpt>
      <trkpt lat="50.05668" lon="8.98162">
        <ele>152.629065</ele>
        <time>2023-07-03T11:23:39.660Z</time>
      </trkpt>
      <trkpt lat="50.05657" lon="8.98149">
        <ele>152.505293</ele>
        <time>2023-07-03T11:23:42.645Z</time>
      </trkpt>
      <trkpt lat="50.05651" lon="8.98138">
        <ele>152.419958</ele>
        <time>2023-07-03T11:23:44.648Z</time>
      </trkpt>
      <trkpt lat="50.05642" lon="8.98124">
        <ele>152.299676</ele>
        <time>2023-07-03T11:23:47.649Z</time>
      </trkpt>
      <trkpt lat="50.05631" lon="8.98113">
        <ele>152.175394</ele>
        <time>2023-07-03T11:23:50.630Z</time>
      </trkpt>
      <trkpt lat="50.05623" lon="8.98104">
        <ele>152.086606</ele>
        <time>2023-07-03T11:23:52.651Z</time>
      </trkpt>
      <trkpt lat="50.05616" lon="8.98094">
        <ele>151.998105</ele>
        <time>2023-07-03T11:23:54.655Z</time>
      </trkpt>
      <trkpt lat="50.05609" lon="8.98083">
        <ele>151.981273</ele>
        <time>2023-07-03T11:23:56.656Z</time>
      </trkpt>
      <trkpt lat="50.05602" lon="8.98071">
        <ele>152.02539</ele>
        <time>2023-07-03T11:23:58.664Z</time>
      </trkpt>
      <trkpt lat="50.05597" lon="8.98058">
        <ele>152.067389</ele>
        <time>2023-07-03T11:24:00.649Z</time>
      </trkpt>
      <trkpt lat="50.05592" lon="8.98046">
        <ele>152.107563</ele>
        <time>2023-07-03T11:24:02.656Z</time>
      </trkpt>
      <trkpt lat="50.05586" lon="8.98028">
        <ele>152.162733</ele>
        <time>2023-07-03T11:24:05.652Z</time>
      </trkpt>
      <trkpt lat="50.05579" lon="8.98011">
        <ele>152.218716</ele>
        <time>2023-07-03T11:24:08.652Z</time>
      </trkpt>
      <trkpt lat="50.05572" lon="8.97993">
        <ele>152.272727</ele>
        <time>2023-07-03T11:24:11.642Z</time>
      </trkpt>
      <trkpt lat="50.05567" lon="8.97977">
        <ele>152.322643</ele>
        <time>2023-07-03T11:24:14.645Z</time>
      </trkpt>
      <trkpt lat="50.0556" lon="8.97961">
        <ele>152.375863</ele>
        <time>2023-07-03T11:24:17.653Z</time>
      </trkpt>
      <trkpt lat="50.05553" lon="8.97945">
        <ele>152.428626</ele>
        <time>2023-07-03T11:24:20.702Z</time>
      </trkpt>
      <trkpt lat="50.05546" lon="8.97928">
        <ele>152.481161</ele>
        <time>2023-07-03T11:24:23.646Z</time>
      </trkpt>
      <trkpt lat="50.05539" lon="8.97914">
        <ele>152.533037</ele>
        <time>2023-07-03T11:24:26.646Z</time>
      </trkpt>
      <trkpt lat="50.0553" lon="8.97899">
        <ele>152.586562</ele>
        <time>2023-07-03T11:24:29.648Z</time>
      </trkpt>
      <trkpt lat="50.05523" lon="8.97885">
        <ele>152.636275</ele>
        <time>2023-07-03T11:24:32.656Z</time>
      </trkpt>
      <trkpt lat="50.05515" lon="8.97871">
        <ele>152.686736</ele>
        <time>2023-07-03T11:24:35.653Z</time>
      </trkpt>
      <trkpt lat="50.05508" lon="8.97857">
        <ele>152.719842</ele>
        <time>2023-07-03T11:24:38.645Z</time>
      </trkpt>
      <trkpt lat="50.05501" lon="8.97845">
        <ele>152.717059</ele>
        <time>2023-07-03T11:24:41.662Z</time>
      </trkpt>
      <trkpt lat="50.05494" lon="8.97832">
        <ele>152.7141</ele>
        <time>2023-07-03T11:24:44.662Z</time>
      </trkpt>
      <trkpt lat="50.05488" lon="8.9782">
        <ele>152.711395</ele>
        <time>2023-07-03T11:24:47.655Z</time>
      </trkpt>
      <trkpt lat="50.05482" lon="8.9781">
        <ele>152.708946</ele>
        <time>2023-07-03T11:24:50.662Z</time>
      </trkpt>
      <trkpt lat="50.05476" lon="8.97799">
        <ele>152.706436</ele>
        <time>2023-07-03T11:24:54.677Z</time>
      </trkpt>
      <trkpt lat="50.0547" lon="8.97788">
        <ele>152.703907</ele>
        <time>2023-07-03T11:25:01.651Z</time>
      </trkpt>
      <trkpt lat="50.05471" lon="8.97787">
        <ele>152.703447</ele>
        <time>2023-07-03T11:25:11.160Z</time>
      </trkpt>
      <trkpt lat="50.05457" lon="8.97795">
        <ele>152.69944</ele>
        <time>2023-07-03T11:32:17.660Z</time>
      </trkpt>
      <trkpt lat="50.05448" lon="8.97794">
        <ele>152.696918</ele>
        <time>2023-07-03T11:32:19.660Z</time>
      </trkpt>
      <trkpt lat="50.05441" lon="8.97784">
        <ele>152.69442</ele>
        <time>2023-07-03T11:32:21.641Z</time>
      </trkpt>
      <trkpt lat="50.05435" lon="8.97774">
        <ele>152.691874</ele>
        <time>2023-07-03T11:32:23.627Z</time>
      </trkpt>
      <trkpt lat="50.05427" lon="8.97762">
        <ele>152.688871</ele>
        <time>2023-07-03T11:32:26.663Z</time>
      </trkpt>
      <trkpt lat="50.05417" lon="8.9775">
        <ele>152.685605</ele>
        <time>2023-07-03T11:32:29.664Z</time>
      </trkpt>
      <trkpt lat="50.05409" lon="8.97741">
        <ele>152.68303</ele>
        <time>2023-07-03T11:32:31.663Z</time>
      </trkpt>
      <trkpt lat="50.05402" lon="8.97733">
        <ele>152.68055</ele>
        <time>2023-07-03T11:32:33.667Z</time>
      </trkpt>
      <trkpt lat="50.05394" lon="8.97725">
        <ele>152.678007</ele>
        <time>2023-07-03T11:32:35.672Z</time>
      </trkpt>
      <trkpt lat="50.05385" lon="8.97719">
        <ele>152.675454</ele>
        <time>2023-07-03T11:32:37.663Z</time>
      </trkpt>
      <trkpt lat="50.05375" lon="8.97708">
        <ele>152.671431</ele>
        <time>2023-07-03T11:32:40.680Z</time>
      </trkpt>
      <trkpt lat="50.05364" lon="8.97699">
        <ele>152.616744</ele>
        <time>2023-07-03T11:32:43.662Z</time>
      </trkpt>
      <trkpt lat="50.05354" lon="8.97688">
        <ele>152.559595</ele>
        <time>2023-07-03T11:32:46.658Z</time>
      </trkpt>
      <trkpt lat="50.05343" lon="8.97677">
        <ele>152.501334</ele>
        <time>2023-07-03T11:32:49.671Z</time>
      </trkpt>
      <trkpt lat="50.05331" lon="8.97666">
        <ele>152.440816</ele>
        <time>2023-07-03T11:32:52.654Z</time>
      </trkpt>
      <trkpt lat="50.05323" lon="8.97659">
        <ele>152.396789</ele>
        <time>2023-07-03T11:32:54.668Z</time>
      </trkpt>
      <trkpt lat="50.05315" lon="8.97652">
        <ele>152.354252</ele>
        <time>2023-07-03T11:32:56.654Z</time>
      </trkpt>
      <trkpt lat="50.05305" lon="8.97645">
        <ele>152.308314</ele>
        <time>2023-07-03T11:32:58.659Z</time>
      </trkpt>
      <trkpt lat="50.05297" lon="8.97638">
        <ele>152.264446</ele>
        <time>2023-07-03T11:33:00.669Z</time>
      </trkpt>
      <trkpt lat="50.05288" lon="8.97632">
        <ele>152.220707</ele>
        <time>2023-07-03T11:33:02.661Z</time>
      </trkpt>
      <trkpt lat="50.0528" lon="8.97625">
        <ele>152.177892</ele>
        <time>2023-07-03T11:33:04.680Z</time>
      </trkpt>
      <trkpt lat="50.0527" lon="8.97618">
        <ele>152.132244</ele>
        <time>2023-07-03T11:33:06.663Z</time>
      </trkpt>
      <trkpt lat="50.05261" lon="8.9761">
        <ele>152.085789</ele>
        <time>2023-07-03T11:33:08.679Z</time>
      </trkpt>
      <trkpt lat="50.05253" lon="8.97603">
        <ele>152.040992</ele>
        <time>2023-07-03T11:33:10.665Z</time>
      </trkpt>
      <trkpt lat="50.05244" lon="8.97595">
        <ele>151.995249</ele>
        <time>2023-07-03T11:33:12.684Z</time>
      </trkpt>
      <trkpt lat="50.05235" lon="8.97587">
        <ele>151.948692</ele>
        <time>2023-07-03T11:33:14.670Z</time>
      </trkpt>
      <trkpt lat="50.05226" lon="8.97581">
        <ele>151.905984</ele>
        <time>2023-07-03T11:33:16.660Z</time>
      </trkpt>
      <trkpt lat="50.05217" lon="8.97575">
        <ele>151.862325</ele>
        <time>2023-07-03T11:33:18.662Z</time>
      </trkpt>
      <trkpt lat="50.05207" lon="8.9757">
        <ele>151.901254</ele>
        <time>2023-07-03T11:33:20.666Z</time>
      </trkpt>
      <trkpt lat="50.05197" lon="8.97566">
        <ele>151.937865</ele>
        <time>2023-07-03T11:33:22.667Z</time>
      </trkpt>
      <trkpt lat="50.05188" lon="8.97563">
        <ele>151.973994</ele>
        <time>2023-07-03T11:33:24.669Z</time>
      </trkpt>
      <trkpt lat="50.05178" lon="8.97559">
        <ele>152.011761</ele>
        <time>2023-07-03T11:33:26.650Z</time>
      </trkpt>
      <trkpt lat="50.05168" lon="8.97556">
        <ele>152.048387</ele>
        <time>2023-07-03T11:33:28.654Z</time>
      </trkpt>
      <trkpt lat="50.05159" lon="8.97553">
        <ele>152.084723</ele>
        <time>2023-07-03T11:33:30.673Z</time>
      </trkpt>
      <trkpt lat="50.05149" lon="8.97551">
        <ele>152.120755</ele>
        <time>2023-07-03T11:33:32.669Z</time>
      </trkpt>
      <trkpt lat="50.0514" lon="8.97549">
        <ele>152.155382</ele>
        <time>2023-07-03T11:33:34.668Z</time>
      </trkpt>
      <trkpt lat="50.05131" lon="8.97545">
        <ele>152.19123</ele>
        <time>2023-07-03T11:33:36.660Z</time>
      </trkpt>
      <trkpt lat="50.05117" lon="8.97541">
        <ele>152.241813</ele>
        <time>2023-07-03T11:33:39.636Z</time>
      </trkpt>
      <trkpt lat="50.05108" lon="8.97537">
        <ele>152.278966</ele>
        <time>2023-07-03T11:33:41.663Z</time>
      </trkpt>
      <trkpt lat="50.05098" lon="8.97533">
        <ele>152.315515</ele>
        <time>2023-07-03T11:33:43.661Z</time>
      </trkpt>
      <trkpt lat="50.05088" lon="8.9753">
        <ele>152.352038</ele>
        <time>2023-07-03T11:33:45.666Z</time>
      </trkpt>
      <trkpt lat="50.05079" lon="8.97528">
        <ele>152.38807</ele>
        <time>2023-07-03T11:33:47.659Z</time>
      </trkpt>
      <trkpt lat="50.05068" lon="8.97528">
        <ele>152.427133</ele>
        <time>2023-07-03T11:33:49.661Z</time>
      </trkpt>
      <trkpt lat="50.05058" lon="8.97529">
        <ele>152.464734</ele>
        <time>2023-07-03T11:33:51.662Z</time>
      </trkpt>
      <trkpt lat="50.05048" lon="8.97528">
        <ele>152.503443</ele>
        <time>2023-07-03T11:33:53.664Z</time>
      </trkpt>
      <trkpt lat="50.05038" lon="8.97526">
        <ele>152.574493</ele>
        <time>2023-07-03T11:33:55.676Z</time>
      </trkpt>
      <trkpt lat="50.05028" lon="8.97525">
        <ele>152.723539</ele>
        <time>2023-07-03T11:33:57.660Z</time>
      </trkpt>
      <trkpt lat="50.05018" lon="8.97525">
        <ele>152.872586</ele>
        <time>2023-07-03T11:33:59.653Z</time>
      </trkpt>
      <trkpt lat="50.05008" lon="8.97526">
        <ele>153.030785</ele>
        <time>2023-07-03T11:34:01.657Z</time>
      </trkpt>
      <trkpt lat="50.04997" lon="8.97527">
        <ele>153.195704</ele>
        <time>2023-07-03T11:34:03.645Z</time>
      </trkpt>
      <trkpt lat="50.04986" lon="8.97528">
        <ele>153.355527</ele>
        <time>2023-07-03T11:34:05.666Z</time>
      </trkpt>
      <trkpt lat="50.04976" lon="8.9753">
        <ele>153.518748</ele>
        <time>2023-07-03T11:34:07.664Z</time>
      </trkpt>
      <trkpt lat="50.04965" lon="8.9753">
        <ele>153.688953</ele>
        <time>2023-07-03T11:34:09.671Z</time>
      </trkpt>
      <trkpt lat="50.04954" lon="8.97532">
        <ele>153.849442</ele>
        <time>2023-07-03T11:34:11.663Z</time>
      </trkpt>
      <trkpt lat="50.04944" lon="8.97533">
        <ele>154.009328</ele>
        <time>2023-07-03T11:34:13.665Z</time>
      </trkpt>
      <trkpt lat="50.04933" lon="8.97534">
        <ele>154.167842</ele>
        <time>2023-07-03T11:34:15.666Z</time>
      </trkpt>
      <trkpt lat="50.04922" lon="8.97537">
        <ele>154.331947</ele>
        <time>2023-07-03T11:34:17.668Z</time>
      </trkpt>
      <trkpt lat="50.04911" lon="8.9754">
        <ele>154.501959</ele>
        <time>2023-07-03T11:34:19.664Z</time>
      </trkpt>
      <trkpt lat="50.049" lon="8.97542">
        <ele>154.670851</ele>
        <time>2023-07-03T11:34:21.664Z</time>
      </trkpt>
      <trkpt lat="50.04889" lon="8.97545">
        <ele>154.839473</ele>
        <time>2023-07-03T11:34:23.664Z</time>
      </trkpt>
      <trkpt lat="50.04879" lon="8.97547">
        <ele>155.005359</ele>
        <time>2023-07-03T11:34:25.664Z</time>
      </trkpt>
      <trkpt lat="50.04868" lon="8.97549">
        <ele>155.161674</ele>
        <time>2023-07-03T11:34:27.642Z</time>
      </trkpt>
      <trkpt lat="50.04859" lon="8.97551">
        <ele>155.235776</ele>
        <time>2023-07-03T11:34:29.669Z</time>
      </trkpt>
      <trkpt lat="50.04849" lon="8.97553">
        <ele>155.152018</ele>
        <time>2023-07-03T11:34:31.670Z</time>
      </trkpt>
      <trkpt lat="50.04839" lon="8.97557">
        <ele>155.066684</ele>
        <time>2023-07-03T11:34:33.661Z</time>
      </trkpt>
      <trkpt lat="50.04828" lon="8.9756">
        <ele>154.981296</ele>
        <time>2023-07-03T11:34:35.669Z</time>
      </trkpt>
      <trkpt lat="50.04819" lon="8.97562">
        <ele>154.898296</ele>
        <time>2023-07-03T11:34:37.665Z</time>
      </trkpt>
      <trkpt lat="50.04809" lon="8.97564">
        <ele>154.816719</ele>
        <time>2023-07-03T11:34:39.661Z</time>
      </trkpt>
      <trkpt lat="50.048" lon="8.97566">
        <ele>154.738429</ele>
        <time>2023-07-03T11:34:41.668Z</time>
      </trkpt>
      <trkpt lat="50.0479" lon="8.97569">
        <ele>154.659053</ele>
        <time>2023-07-03T11:34:43.672Z</time>
      </trkpt>
      <trkpt lat="50.04781" lon="8.97572">
        <ele>154.580399</ele>
        <time>2023-07-03T11:34:45.663Z</time>
      </trkpt>
      <trkpt lat="50.04772" lon="8.97574">
        <ele>154.504656</ele>
        <time>2023-07-03T11:34:47.668Z</time>
      </trkpt>
      <trkpt lat="50.04763" lon="8.97577">
        <ele>154.426002</ele>
        <time>2023-07-03T11:34:49.660Z</time>
      </trkpt>
      <trkpt lat="50.04753" lon="8.9758">
        <ele>154.343674</ele>
        <time>2023-07-03T11:34:51.671Z</time>
      </trkpt>
      <trkpt lat="50.04743" lon="8.97582">
        <ele>154.262391</ele>
        <time>2023-07-03T11:34:53.676Z</time>
      </trkpt>
      <trkpt lat="50.04734" lon="8.97584">
        <ele>154.183583</ele>
        <time>2023-07-03T11:34:55.663Z</time>
      </trkpt>
      <trkpt lat="50.04725" lon="8.97587">
        <ele>154.1059</ele>
        <time>2023-07-03T11:34:57.667Z</time>
      </trkpt>
      <trkpt lat="50.04712" lon="8.97591">
        <ele>153.995061</ele>
        <time>2023-07-03T11:35:00.670Z</time>
      </trkpt>
      <trkpt lat="50.04702" lon="8.97597">
        <ele>153.912133</ele>
        <time>2023-07-03T11:35:02.672Z</time>
      </trkpt>
      <trkpt lat="50.04693" lon="8.97602">
        <ele>153.830028</ele>
        <time>2023-07-03T11:35:04.674Z</time>
      </trkpt>
      <trkpt lat="50.04684" lon="8.97607">
        <ele>153.77521</ele>
        <time>2023-07-03T11:35:06.664Z</time>
      </trkpt>
      <trkpt lat="50.04675" lon="8.97612">
        <ele>153.809497</ele>
        <time>2023-07-03T11:35:08.663Z</time>
      </trkpt>
      <trkpt lat="50.04666" lon="8.97615">
        <ele>153.84169</ele>
        <time>2023-07-03T11:35:10.651Z</time>
      </trkpt>
      <trkpt lat="50.04657" lon="8.97617">
        <ele>153.873398</ele>
        <time>2023-07-03T11:35:12.679Z</time>
      </trkpt>
      <trkpt lat="50.04648" lon="8.97621">
        <ele>153.906458</ele>
        <time>2023-07-03T11:35:14.680Z</time>
      </trkpt>
      <trkpt lat="50.04639" lon="8.97626">
        <ele>153.938845</ele>
        <time>2023-07-03T11:35:16.676Z</time>
      </trkpt>
      <trkpt lat="50.0463" lon="8.9763">
        <ele>153.970829</ele>
        <time>2023-07-03T11:35:18.670Z</time>
      </trkpt>
      <trkpt lat="50.04622" lon="8.97634">
        <ele>154.003755</ele>
        <time>2023-07-03T11:35:20.672Z</time>
      </trkpt>
      <trkpt lat="50.04613" lon="8.97641">
        <ele>154.037294</ele>
        <time>2023-07-03T11:35:22.662Z</time>
      </trkpt>
      <trkpt lat="50.04605" lon="8.97648">
        <ele>154.071523</ele>
        <time>2023-07-03T11:35:24.672Z</time>
      </trkpt>
      <trkpt lat="50.04596" lon="8.97656">
        <ele>154.106297</ele>
        <time>2023-07-03T11:35:26.661Z</time>
      </trkpt>
      <trkpt lat="50.04587" lon="8.97662">
        <ele>154.13923</ele>
        <time>2023-07-03T11:35:28.667Z</time>
      </trkpt>
      <trkpt lat="50.04578" lon="8.97666">
        <ele>154.174909</ele>
        <time>2023-07-03T11:35:30.657Z</time>
      </trkpt>
      <trkpt lat="50.04569" lon="8.97672">
        <ele>154.207797</ele>
        <time>2023-07-03T11:35:32.667Z</time>
      </trkpt>
      <trkpt lat="50.04561" lon="8.97679">
        <ele>154.240904</ele>
        <time>2023-07-03T11:35:34.672Z</time>
      </trkpt>
      <trkpt lat="50.04553" lon="8.97686">
        <ele>154.273646</ele>
        <time>2023-07-03T11:35:36.669Z</time>
      </trkpt>
      <trkpt lat="50.04541" lon="8.97696">
        <ele>154.320809</ele>
        <time>2023-07-03T11:35:39.685Z</time>
      </trkpt>
      <trkpt lat="50.04533" lon="8.97704">
        <ele>154.354739</ele>
        <time>2023-07-03T11:35:41.673Z</time>
      </trkpt>
      <trkpt lat="50.04525" lon="8.97711">
        <ele>154.387536</ele>
        <time>2023-07-03T11:35:43.665Z</time>
      </trkpt>
      <trkpt lat="50.04513" lon="8.97721">
        <ele>154.532075</ele>
        <time>2023-07-03T11:35:46.666Z</time>
      </trkpt>
      <trkpt lat="50.04505" lon="8.9773">
        <ele>154.652339</ele>
        <time>2023-07-03T11:35:48.667Z</time>
      </trkpt>
      <trkpt lat="50.04497" lon="8.97737">
        <ele>154.775368</ele>
        <time>2023-07-03T11:35:50.718Z</time>
      </trkpt>
      <trkpt lat="50.04487" lon="8.97748">
        <ele>154.944073</ele>
        <time>2023-07-03T11:35:53.660Z</time>
      </trkpt>
      <trkpt lat="50.04478" lon="8.97761">
        <ele>155.112847</ele>
        <time>2023-07-03T11:35:56.649Z</time>
      </trkpt>
      <trkpt lat="50.04468" lon="8.97772">
        <ele>155.272671</ele>
        <time>2023-07-03T11:35:59.674Z</time>
      </trkpt>
      <trkpt lat="50.04457" lon="8.97782">
        <ele>155.443023</ele>
        <time>2023-07-03T11:36:02.654Z</time>
      </trkpt>
      <trkpt lat="50.04447" lon="8.97791">
        <ele>155.602413</ele>
        <time>2023-07-03T11:36:05.684Z</time>
      </trkpt>
      <trkpt lat="50.04438" lon="8.97801">
        <ele>155.748169</ele>
        <time>2023-07-03T11:36:08.642Z</time>
      </trkpt>
      <trkpt lat="50.0443" lon="8.9781">
        <ele>155.878054</ele>
        <time>2023-07-03T11:36:11.669Z</time>
      </trkpt>
      <trkpt lat="50.04421" lon="8.97819">
        <ele>156.012591</ele>
        <time>2023-07-03T11:36:14.688Z</time>
      </trkpt>
      <trkpt lat="50.04413" lon="8.97827">
        <ele>156.145512</ele>
        <time>2023-07-03T11:36:17.645Z</time>
      </trkpt>
      <trkpt lat="50.04405" lon="8.97834">
        <ele>156.276046</ele>
        <time>2023-07-03T11:36:20.695Z</time>
      </trkpt>
      <trkpt lat="50.04394" lon="8.97842">
        <ele>156.430036</ele>
        <time>2023-07-03T11:36:24.687Z</time>
      </trkpt>
      <trkpt lat="50.04385" lon="8.97847">
        <ele>156.556452</ele>
        <time>2023-07-03T11:36:29.659Z</time>
      </trkpt>
      <trkpt lat="50.04375" lon="8.97847">
        <ele>156.696808</ele>
        <time>2023-07-03T11:36:35.651Z</time>
      </trkpt>
      <trkpt lat="50.04365" lon="8.97842">
        <ele>156.820795</ele>
        <time>2023-07-03T11:36:40.665Z</time>
      </trkpt>
      <trkpt lat="50.04358" lon="8.97834">
        <ele>156.908977</ele>
        <time>2023-07-03T11:36:44.668Z</time>
      </trkpt>
      <trkpt lat="50.0435" lon="8.97826">
        <ele>156.99558</ele>
        <time>2023-07-03T11:36:48.621Z</time>
      </trkpt>
      <trkpt lat="50.04341" lon="8.9782">
        <ele>157.092129</ele>
        <time>2023-07-03T11:36:52.678Z</time>
      </trkpt>
      <trkpt lat="50.04333" lon="8.97813">
        <ele>157.180915</ele>
        <time>2023-07-03T11:36:56.672Z</time>
      </trkpt>
      <trkpt lat="50.04324" lon="8.97805">
        <ele>157.273686</ele>
        <time>2023-07-03T11:37:00.688Z</time>
      </trkpt>
      <trkpt lat="50.04317" lon="8.97796">
        <ele>157.365768</ele>
        <time>2023-07-03T11:37:04.678Z</time>
      </trkpt>
      <trkpt lat="50.04308" lon="8.97785">
        <ele>157.47407</ele>
        <time>2023-07-03T11:37:09.670Z</time>
      </trkpt>
      <trkpt lat="50.043" lon="8.97777">
        <ele>157.562153</ele>
        <time>2023-07-03T11:37:13.679Z</time>
      </trkpt>
      <trkpt lat="50.04295" lon="8.97762">
        <ele>157.669424</ele>
        <time>2023-07-03T11:37:17.672Z</time>
      </trkpt>
      <trkpt lat="50.04295" lon="8.97743">
        <ele>157.784457</ele>
        <time>2023-07-03T11:37:21.663Z</time>
      </trkpt>
      <trkpt lat="50.04296" lon="8.97729">
        <ele>157.871754</ele>
        <time>2023-07-03T11:37:24.676Z</time>
      </trkpt>
      <trkpt lat="50.04294" lon="8.97712">
        <ele>157.976004</ele>
        <time>2023-07-03T11:37:28.685Z</time>
      </trkpt>
      <trkpt lat="50.04288" lon="8.977">
        <ele>158.069855</ele>
        <time>2023-07-03T11:37:32.667Z</time>
      </trkpt>
      <trkpt lat="50.0428" lon="8.97689">
        <ele>158.172564</ele>
        <time>2023-07-03T11:37:36.681Z</time>
      </trkpt>
      <trkpt lat="50.04273" lon="8.97679">
        <ele>158.262649</ele>
        <time>2023-07-03T11:37:41.673Z</time>
      </trkpt>
      <trkpt lat="50.04264" lon="8.9767">
        <ele>158.362612</ele>
        <time>2023-07-03T11:37:49.672Z</time>
      </trkpt>
      <trkpt lat="50.04264" lon="8.97664">
        <ele>158.400367</ele>
        <time>2023-07-03T11:38:19.192Z</time>
      </trkpt>
      <trkpt lat="50.04227" lon="8.9784">
        <ele>154.711316</ele>
        <time>2023-07-03T12:32:49.642Z</time>
      </trkpt>
      <trkpt lat="50.04236" lon="8.97847">
        <ele>154.351592</ele>
        <time>2023-07-03T12:32:54.659Z</time>
      </trkpt>
      <trkpt lat="50.04245" lon="8.97845">
        <ele>154.029051</ele>
        <time>2023-07-03T12:32:58.666Z</time>
      </trkpt>
      <trkpt lat="50.04246" lon="8.9783">
        <ele>153.677913</ele>
        <time>2023-07-03T12:33:02.661Z</time>
      </trkpt>
      <trkpt lat="50.04249" lon="8.97814">
        <ele>153.296491</ele>
        <time>2023-07-03T12:33:06.676Z</time>
      </trkpt>
      <trkpt lat="50.04251" lon="8.97796">
        <ele>152.882819</ele>
        <time>2023-07-03T12:33:10.666Z</time>
      </trkpt>
      <trkpt lat="50.04254" lon="8.97779">
        <ele>152.480981</ele>
        <time>2023-07-03T12:33:13.672Z</time>
      </trkpt>
      <trkpt lat="50.04256" lon="8.97765">
        <ele>152.146952</ele>
        <time>2023-07-03T12:33:15.662Z</time>
      </trkpt>
      <trkpt lat="50.04259" lon="8.97751">
        <ele>152.054866</ele>
        <time>2023-07-03T12:33:17.670Z</time>
      </trkpt>
      <trkpt lat="50.04261" lon="8.97737">
        <ele>151.990042</ele>
        <time>2023-07-03T12:33:19.680Z</time>
      </trkpt>
      <trkpt lat="50.04266" lon="8.97718">
        <ele>151.898402</ele>
        <time>2023-07-03T12:33:22.677Z</time>
      </trkpt>
      <trkpt lat="50.0427" lon="8.97701">
        <ele>151.818707</ele>
        <time>2023-07-03T12:33:25.664Z</time>
      </trkpt>
      <trkpt lat="50.0427" lon="8.97687">
        <ele>151.755472</ele>
        <time>2023-07-03T12:33:31.659Z</time>
      </trkpt>
      <trkpt lat="50.04278" lon="8.97692">
        <ele>151.693569</ele>
        <time>2023-07-03T12:33:39.658Z</time>
      </trkpt>
      <trkpt lat="50.04286" lon="8.97701">
        <ele>151.625281</ele>
        <time>2023-07-03T12:33:44.673Z</time>
      </trkpt>
      <trkpt lat="50.04289" lon="8.97715">
        <ele>151.562451</ele>
        <time>2023-07-03T12:33:48.664Z</time>
      </trkpt>
      <trkpt lat="50.04289" lon="8.97732">
        <ele>151.486019</ele>
        <time>2023-07-03T12:33:52.670Z</time>
      </trkpt>
      <trkpt lat="50.04288" lon="8.97749">
        <ele>151.407341</ele>
        <time>2023-07-03T12:33:56.667Z</time>
      </trkpt>
      <trkpt lat="50.04287" lon="8.97765">
        <ele>151.335761</ele>
        <time>2023-07-03T12:34:00.670Z</time>
      </trkpt>
      <trkpt lat="50.04289" lon="8.9778">
        <ele>151.268991</ele>
        <time>2023-07-03T12:34:06.659Z</time>
      </trkpt>
      <trkpt lat="50.04298" lon="8.97783">
        <ele>151.205214</ele>
        <time>2023-07-03T12:34:13.654Z</time>
      </trkpt>
      <trkpt lat="50.04306" lon="8.97792">
        <ele>151.1387</ele>
        <time>2023-07-03T12:34:17.666Z</time>
      </trkpt>
      <trkpt lat="50.04315" lon="8.97799">
        <ele>151.068074</ele>
        <time>2023-07-03T12:34:21.664Z</time>
      </trkpt>
      <trkpt lat="50.04326" lon="8.9781">
        <ele>150.982225</ele>
        <time>2023-07-03T12:34:25.662Z</time>
      </trkpt>
      <trkpt lat="50.04335" lon="8.97819">
        <ele>150.904692</ele>
        <time>2023-07-03T12:34:28.677Z</time>
      </trkpt>
      <trkpt lat="50.04346" lon="8.97827">
        <ele>150.823307</ele>
        <time>2023-07-03T12:34:31.673Z</time>
      </trkpt>
      <trkpt lat="50.04357" lon="8.97837">
        <ele>150.742169</ele>
        <time>2023-07-03T12:34:34.662Z</time>
      </trkpt>
      <trkpt lat="50.04367" lon="8.97844">
        <ele>150.66571</ele>
        <time>2023-07-03T12:34:38.653Z</time>
      </trkpt>
      <trkpt lat="50.0437" lon="8.97859">
        <ele>150.601068</ele>
        <time>2023-07-03T12:34:42.667Z</time>
      </trkpt>
      <trkpt lat="50.04365" lon="8.97873">
        <ele>150.535159</ele>
        <time>2023-07-03T12:34:45.710Z</time>
      </trkpt>
      <trkpt lat="50.04358" lon="8.97883">
        <ele>150.471411</ele>
        <time>2023-07-03T12:34:48.649Z</time>
      </trkpt>
      <trkpt lat="50.04352" lon="8.97893">
        <ele>150.411196</ele>
        <time>2023-07-03T12:34:51.645Z</time>
      </trkpt>
      <trkpt lat="50.04346" lon="8.97905">
        <ele>150.345922</ele>
        <time>2023-07-03T12:34:54.657Z</time>
      </trkpt>
      <trkpt lat="50.0434" lon="8.97918">
        <ele>150.279303</ele>
        <time>2023-07-03T12:34:57.759Z</time>
      </trkpt>
      <trkpt lat="50.04333" lon="8.97932">
        <ele>150.204349</ele>
        <time>2023-07-03T12:35:00.667Z</time>
      </trkpt>
      <trkpt lat="50.04325" lon="8.97946">
        <ele>150.127496</ele>
        <time>2023-07-03T12:35:03.642Z</time>
      </trkpt>
      <trkpt lat="50.04318" lon="8.97956">
        <ele>150.060922</ele>
        <time>2023-07-03T12:35:06.651Z</time>
      </trkpt>
      <trkpt lat="50.04311" lon="8.97965">
        <ele>149.999891</ele>
        <time>2023-07-03T12:35:10.663Z</time>
      </trkpt>
      <trkpt lat="50.04305" lon="8.97983">
        <ele>149.91421</ele>
        <time>2023-07-03T12:35:32.654Z</time>
      </trkpt>
      <trkpt lat="50.04297" lon="8.97993">
        <ele>149.847137</ele>
        <time>2023-07-03T12:35:37.670Z</time>
      </trkpt>
      <trkpt lat="50.04291" lon="8.98004">
        <ele>149.786298</ele>
        <time>2023-07-03T12:35:41.654Z</time>
      </trkpt>
      <trkpt lat="50.04285" lon="8.98017">
        <ele>149.717005</ele>
        <time>2023-07-03T12:35:47.652Z</time>
      </trkpt>
      <trkpt lat="50.0428" lon="8.9803">
        <ele>149.691783</ele>
        <time>2023-07-03T12:35:51.656Z</time>
      </trkpt>
      <trkpt lat="50.04273" lon="8.98045">
        <ele>149.726702</ele>
        <time>2023-07-03T12:35:55.665Z</time>
      </trkpt>
      <trkpt lat="50.04267" lon="8.98056">
        <ele>149.754732</ele>
        <time>2023-07-03T12:35:58.660Z</time>
      </trkpt>
      <trkpt lat="50.04261" lon="8.9807">
        <ele>149.785702</ele>
        <time>2023-07-03T12:36:01.670Z</time>
      </trkpt>
      <trkpt lat="50.04255" lon="8.98086">
        <ele>149.821962</ele>
        <time>2023-07-03T12:36:04.667Z</time>
      </trkpt>
      <trkpt lat="50.04248" lon="8.98101">
        <ele>149.856789</ele>
        <time>2023-07-03T12:36:07.667Z</time>
      </trkpt>
      <trkpt lat="50.04242" lon="8.98115">
        <ele>149.890365</ele>
        <time>2023-07-03T12:36:10.662Z</time>
      </trkpt>
      <trkpt lat="50.04236" lon="8.98131">
        <ele>149.924873</ele>
        <time>2023-07-03T12:36:13.669Z</time>
      </trkpt>
      <trkpt lat="50.0423" lon="8.98144">
        <ele>149.953915</ele>
        <time>2023-07-03T12:36:16.654Z</time>
      </trkpt>
      <trkpt lat="50.04225" lon="8.98157">
        <ele>149.984086</ele>
        <time>2023-07-03T12:36:19.682Z</time>
      </trkpt>
      <trkpt lat="50.04217" lon="8.98171">
        <ele>150.019004</ele>
        <time>2023-07-03T12:36:22.680Z</time>
      </trkpt>
      <trkpt lat="50.04212" lon="8.98187">
        <ele>150.054058</ele>
        <time>2023-07-03T12:36:25.672Z</time>
      </trkpt>
      <trkpt lat="50.04206" lon="8.98204">
        <ele>150.089879</ele>
        <time>2023-07-03T12:36:28.657Z</time>
      </trkpt>
      <trkpt lat="50.04203" lon="8.98219">
        <ele>150.120803</ele>
        <time>2023-07-03T12:36:31.636Z</time>
      </trkpt>
      <trkpt lat="50.04197" lon="8.98235">
        <ele>150.154529</ele>
        <time>2023-07-03T12:36:34.665Z</time>
      </trkpt>
      <trkpt lat="50.04191" lon="8.98247">
        <ele>150.183889</ele>
        <time>2023-07-03T12:36:37.665Z</time>
      </trkpt>
      <trkpt lat="50.04186" lon="8.98261">
        <ele>150.213416</ele>
        <time>2023-07-03T12:36:40.667Z</time>
      </trkpt>
      <trkpt lat="50.04181" lon="8.98275">
        <ele>150.327913</ele>
        <time>2023-07-03T12:36:43.666Z</time>
      </trkpt>
      <trkpt lat="50.04175" lon="8.9829">
        <ele>150.453452</ele>
        <time>2023-07-03T12:36:46.661Z</time>
      </trkpt>
      <trkpt lat="50.04167" lon="8.98307">
        <ele>150.595359</ele>
        <time>2023-07-03T12:36:49.670Z</time>
      </trkpt>
      <trkpt lat="50.04159" lon="8.98321">
        <ele>150.726083</ele>
        <time>2023-07-03T12:36:52.655Z</time>
      </trkpt>
      <trkpt lat="50.04155" lon="8.98335">
        <ele>150.833923</ele>
        <time>2023-07-03T12:36:55.648Z</time>
      </trkpt>
      <trkpt lat="50.04152" lon="8.98351">
        <ele>150.950266</ele>
        <time>2023-07-03T12:36:58.665Z</time>
      </trkpt>
      <trkpt lat="50.04148" lon="8.98365">
        <ele>151.056599</ele>
        <time>2023-07-03T12:37:01.670Z</time>
      </trkpt>
      <trkpt lat="50.04144" lon="8.98381">
        <ele>151.176177</ele>
        <time>2023-07-03T12:37:04.664Z</time>
      </trkpt>
      <trkpt lat="50.04139" lon="8.98399">
        <ele>151.318982</ele>
        <time>2023-07-03T12:37:07.665Z</time>
      </trkpt>
      <trkpt lat="50.04134" lon="8.98416">
        <ele>151.446752</ele>
        <time>2023-07-03T12:37:10.676Z</time>
      </trkpt>
      <trkpt lat="50.04131" lon="8.98433">
        <ele>151.572023</ele>
        <time>2023-07-03T12:37:13.665Z</time>
      </trkpt>
      <trkpt lat="50.04126" lon="8.9845">
        <ele>151.700901</ele>
        <time>2023-07-03T12:37:16.658Z</time>
      </trkpt>
      <trkpt lat="50.04122" lon="8.98466">
        <ele>151.823124</ele>
        <time>2023-07-03T12:37:19.665Z</time>
      </trkpt>
      <trkpt lat="50.04118" lon="8.98482">
        <ele>151.943823</ele>
        <time>2023-07-03T12:37:22.648Z</time>
      </trkpt>
      <trkpt lat="50.04113" lon="8.98497">
        <ele>152.059383</ele>
        <time>2023-07-03T12:37:25.652Z</time>
      </trkpt>
      <trkpt lat="50.04112" lon="8.98513">
        <ele>152.171843</ele>
        <time>2023-07-03T12:37:28.668Z</time>
      </trkpt>
      <trkpt lat="50.04109" lon="8.98529">
        <ele>152.240822</ele>
        <time>2023-07-03T12:37:31.664Z</time>
      </trkpt>
      <trkpt lat="50.04106" lon="8.98547">
        <ele>152.321233</ele>
        <time>2023-07-03T12:37:34.691Z</time>
      </trkpt>
      <trkpt lat="50.04102" lon="8.98565">
        <ele>152.406043</ele>
        <time>2023-07-03T12:37:37.668Z</time>
      </trkpt>
      <trkpt lat="50.041" lon="8.98585">
        <ele>152.491539</ele>
        <time>2023-07-03T12:37:40.677Z</time>
      </trkpt>
      <trkpt lat="50.04098" lon="8.98604">
        <ele>152.575683</ele>
        <time>2023-07-03T12:37:43.668Z</time>
      </trkpt>
      <trkpt lat="50.04094" lon="8.98623">
        <ele>152.662637</ele>
        <time>2023-07-03T12:37:46.645Z</time>
      </trkpt>
      <trkpt lat="50.04092" lon="8.98643">
        <ele>152.748491</ele>
        <time>2023-07-03T12:37:49.666Z</time>
      </trkpt>
      <trkpt lat="50.04089" lon="8.98662">
        <ele>152.833919</ele>
        <time>2023-07-03T12:37:52.659Z</time>
      </trkpt>
      <trkpt lat="50.04088" lon="8.9868">
        <ele>152.913873</ele>
        <time>2023-07-03T12:37:55.667Z</time>
      </trkpt>
      <trkpt lat="50.04086" lon="8.987">
        <ele>152.99778</ele>
        <time>2023-07-03T12:37:58.666Z</time>
      </trkpt>
      <trkpt lat="50.04084" lon="8.98714">
        <ele>153.059283</ele>
        <time>2023-07-03T12:38:00.674Z</time>
      </trkpt>
      <trkpt lat="50.04084" lon="8.98729">
        <ele>153.124607</ele>
        <time>2023-07-03T12:38:02.664Z</time>
      </trkpt>
      <trkpt lat="50.04083" lon="8.98744">
        <ele>153.192765</ele>
        <time>2023-07-03T12:38:04.680Z</time>
      </trkpt>
      <trkpt lat="50.04083" lon="8.9876">
        <ele>153.25941</ele>
        <time>2023-07-03T12:38:06.655Z</time>
      </trkpt>
      <trkpt lat="50.04082" lon="8.98775">
        <ele>153.325691</ele>
        <time>2023-07-03T12:38:08.660Z</time>
      </trkpt>
      <trkpt lat="50.04082" lon="8.9879">
        <ele>153.366559</ele>
        <time>2023-07-03T12:38:10.667Z</time>
      </trkpt>
      <trkpt lat="50.04083" lon="8.98805">
        <ele>153.206203</ele>
        <time>2023-07-03T12:38:12.657Z</time>
      </trkpt>
      <trkpt lat="50.04085" lon="8.98825">
        <ele>152.981668</ele>
        <time>2023-07-03T12:38:15.686Z</time>
      </trkpt>
      <trkpt lat="50.04085" lon="8.98843">
        <ele>152.780859</ele>
        <time>2023-07-03T12:38:17.652Z</time>
      </trkpt>
      <trkpt lat="50.04085" lon="8.98863">
        <ele>152.56798</ele>
        <time>2023-07-03T12:38:19.664Z</time>
      </trkpt>
      <trkpt lat="50.04084" lon="8.98883">
        <ele>152.346767</ele>
        <time>2023-07-03T12:38:21.661Z</time>
      </trkpt>
      <trkpt lat="50.04085" lon="8.98901">
        <ele>152.142495</ele>
        <time>2023-07-03T12:38:23.680Z</time>
      </trkpt>
      <trkpt lat="50.04087" lon="8.98922">
        <ele>151.910104</ele>
        <time>2023-07-03T12:38:25.666Z</time>
      </trkpt>
      <trkpt lat="50.04088" lon="8.98941">
        <ele>151.704983</ele>
        <time>2023-07-03T12:38:27.662Z</time>
      </trkpt>
      <trkpt lat="50.04089" lon="8.9896">
        <ele>151.499444</ele>
        <time>2023-07-03T12:38:29.670Z</time>
      </trkpt>
      <trkpt lat="50.0409" lon="8.98977">
        <ele>151.301964</ele>
        <time>2023-07-03T12:38:31.677Z</time>
      </trkpt>
      <trkpt lat="50.04092" lon="8.98995">
        <ele>151.10397</ele>
        <time>2023-07-03T12:38:33.666Z</time>
      </trkpt>
      <trkpt lat="50.04094" lon="8.99013">
        <ele>150.9095</ele>
        <time>2023-07-03T12:38:35.661Z</time>
      </trkpt>
      <trkpt lat="50.04096" lon="8.99028">
        <ele>150.736752</ele>
        <time>2023-07-03T12:38:37.672Z</time>
      </trkpt>
      <trkpt lat="50.04097" lon="8.99044">
        <ele>150.567349</ele>
        <time>2023-07-03T12:38:39.667Z</time>
      </trkpt>
      <trkpt lat="50.04095" lon="8.99058">
        <ele>150.400988</ele>
        <time>2023-07-03T12:38:41.653Z</time>
      </trkpt>
      <trkpt lat="50.04096" lon="8.99074">
        <ele>150.327764</ele>
        <time>2023-07-03T12:38:43.664Z</time>
      </trkpt>
      <trkpt lat="50.04099" lon="8.99088">
        <ele>150.363624</ele>
        <time>2023-07-03T12:38:45.652Z</time>
      </trkpt>
      <trkpt lat="50.04102" lon="8.99101">
        <ele>150.396567</ele>
        <time>2023-07-03T12:38:47.656Z</time>
      </trkpt>
      <trkpt lat="50.04104" lon="8.99122">
        <ele>150.445348</ele>
        <time>2023-07-03T12:38:50.672Z</time>
      </trkpt>
      <trkpt lat="50.04107" lon="8.99136">
        <ele>150.480521</ele>
        <time>2023-07-03T12:38:52.663Z</time>
      </trkpt>
      <trkpt lat="50.0411" lon="8.99151">
        <ele>150.516726</ele>
        <time>2023-07-03T12:38:54.665Z</time>
      </trkpt>
      <trkpt lat="50.0411" lon="8.99165">
        <ele>150.550532</ele>
        <time>2023-07-03T12:38:56.657Z</time>
      </trkpt>
      <trkpt lat="50.04106" lon="8.99179">
        <ele>150.58485</ele>
        <time>2023-07-03T12:38:58.659Z</time>
      </trkpt>
      <trkpt lat="50.04102" lon="8.99193">
        <ele>150.620931</ele>
        <time>2023-07-03T12:39:00.654Z</time>
      </trkpt>
      <trkpt lat="50.04099" lon="8.99207">
        <ele>150.655689</ele>
        <time>2023-07-03T12:39:02.670Z</time>
      </trkpt>
      <trkpt lat="50.04097" lon="8.99221">
        <ele>150.689107</ele>
        <time>2023-07-03T12:39:04.651Z</time>
      </trkpt>
      <trkpt lat="50.041" lon="8.99235">
        <ele>150.72314</ele>
        <time>2023-07-03T12:39:06.668Z</time>
      </trkpt>
      <trkpt lat="50.04103" lon="8.99248">
        <ele>150.756062</ele>
        <time>2023-07-03T12:39:08.645Z</time>
      </trkpt>
      <trkpt lat="50.04107" lon="8.99261">
        <ele>150.78934</ele>
        <time>2023-07-03T12:39:10.656Z</time>
      </trkpt>
      <trkpt lat="50.0411" lon="8.99275">
        <ele>150.824415</ele>
        <time>2023-07-03T12:39:12.668Z</time>
      </trkpt>
      <trkpt lat="50.04114" lon="8.99288">
        <ele>150.858281</ele>
        <time>2023-07-03T12:39:14.680Z</time>
      </trkpt>
      <trkpt lat="50.04117" lon="8.99302">
        <ele>150.891669</ele>
        <time>2023-07-03T12:39:16.646Z</time>
      </trkpt>
      <trkpt lat="50.0412" lon="8.99315">
        <ele>150.92568</ele>
        <time>2023-07-03T12:39:18.669Z</time>
      </trkpt>
      <trkpt lat="50.04123" lon="8.9933">
        <ele>150.961419</ele>
        <time>2023-07-03T12:39:20.666Z</time>
      </trkpt>
      <trkpt lat="50.04127" lon="8.99344">
        <ele>151.117485</ele>
        <time>2023-07-03T12:39:22.675Z</time>
      </trkpt>
      <trkpt lat="50.0413" lon="8.99359">
        <ele>151.304291</ele>
        <time>2023-07-03T12:39:24.666Z</time>
      </trkpt>
      <trkpt lat="50.04134" lon="8.99373">
        <ele>151.487789</ele>
        <time>2023-07-03T12:39:26.660Z</time>
      </trkpt>
      <trkpt lat="50.04137" lon="8.99387">
        <ele>151.666325</ele>
        <time>2023-07-03T12:39:28.661Z</time>
      </trkpt>
      <trkpt lat="50.04141" lon="8.99401">
        <ele>151.846613</ele>
        <time>2023-07-03T12:39:30.666Z</time>
      </trkpt>
      <trkpt lat="50.04145" lon="8.99414">
        <ele>152.015481</ele>
        <time>2023-07-03T12:39:32.660Z</time>
      </trkpt>
      <trkpt lat="50.04148" lon="8.99428">
        <ele>152.188744</ele>
        <time>2023-07-03T12:39:34.674Z</time>
      </trkpt>
      <trkpt lat="50.04152" lon="8.99447">
        <ele>152.429833</ele>
        <time>2023-07-03T12:39:37.673Z</time>
      </trkpt>
      <trkpt lat="50.04157" lon="8.99465">
        <ele>152.665011</ele>
        <time>2023-07-03T12:39:40.675Z</time>
      </trkpt>
      <trkpt lat="50.04161" lon="8.99484">
        <ele>152.902567</ele>
        <time>2023-07-03T12:39:43.678Z</time>
      </trkpt>
      <trkpt lat="50.04166" lon="8.99502">
        <ele>153.143448</ele>
        <time>2023-07-03T12:39:46.660Z</time>
      </trkpt>
      <trkpt lat="50.04171" lon="8.99521">
        <ele>153.381867</ele>
        <time>2023-07-03T12:39:49.664Z</time>
      </trkpt>
      <trkpt lat="50.04175" lon="8.99533">
        <ele>153.551011</ele>
        <time>2023-07-03T12:39:51.660Z</time>
      </trkpt>
      <trkpt lat="50.0418" lon="8.99546">
        <ele>153.72194</ele>
        <time>2023-07-03T12:39:53.663Z</time>
      </trkpt>
      <trkpt lat="50.04184" lon="8.99559">
        <ele>153.889854</ele>
        <time>2023-07-03T12:39:55.671Z</time>
      </trkpt>
      <trkpt lat="50.04188" lon="8.99572">
        <ele>154.065338</ele>
        <time>2023-07-03T12:39:57.672Z</time>
      </trkpt>
      <trkpt lat="50.04192" lon="8.99585">
        <ele>154.242123</ele>
        <time>2023-07-03T12:39:59.657Z</time>
      </trkpt>
      <trkpt lat="50.04196" lon="8.99599">
        <ele>154.304465</ele>
        <time>2023-07-03T12:40:01.680Z</time>
      </trkpt>
      <trkpt lat="50.042" lon="8.99613">
        <ele>154.297414</ele>
        <time>2023-07-03T12:40:03.660Z</time>
      </trkpt>
      <trkpt lat="50.04204" lon="8.99627">
        <ele>154.290077</ele>
        <time>2023-07-03T12:40:05.680Z</time>
      </trkpt>
      <trkpt lat="50.04208" lon="8.99641">
        <ele>154.283078</ele>
        <time>2023-07-03T12:40:07.672Z</time>
      </trkpt>
      <trkpt lat="50.04213" lon="8.99656">
        <ele>154.275507</ele>
        <time>2023-07-03T12:40:09.665Z</time>
      </trkpt>
      <trkpt lat="50.04217" lon="8.9967">
        <ele>154.268175</ele>
        <time>2023-07-03T12:40:11.671Z</time>
      </trkpt>
      <trkpt lat="50.04222" lon="8.99685">
        <ele>154.260686</ele>
        <time>2023-07-03T12:40:13.667Z</time>
      </trkpt>
      <trkpt lat="50.04226" lon="8.99699">
        <ele>154.253271</ele>
        <time>2023-07-03T12:40:15.663Z</time>
      </trkpt>
      <trkpt lat="50.04231" lon="8.99713">
        <ele>154.245866</ele>
        <time>2023-07-03T12:40:17.656Z</time>
      </trkpt>
      <trkpt lat="50.04237" lon="8.99728">
        <ele>154.237838</ele>
        <time>2023-07-03T12:40:19.672Z</time>
      </trkpt>
      <trkpt lat="50.04242" lon="8.99743">
        <ele>154.229992</ele>
        <time>2023-07-03T12:40:21.676Z</time>
      </trkpt>
      <trkpt lat="50.04245" lon="8.99759">
        <ele>154.222121</ele>
        <time>2023-07-03T12:40:23.673Z</time>
      </trkpt>
      <trkpt lat="50.04249" lon="8.99774">
        <ele>154.214585</ele>
        <time>2023-07-03T12:40:25.693Z</time>
      </trkpt>
      <trkpt lat="50.04254" lon="8.99789">
        <ele>154.2068</ele>
        <time>2023-07-03T12:40:27.667Z</time>
      </trkpt>
      <trkpt lat="50.04259" lon="8.99804">
        <ele>154.198826</ele>
        <time>2023-07-03T12:40:29.666Z</time>
      </trkpt>
      <trkpt lat="50.04264" lon="8.9982">
        <ele>154.191064</ele>
        <time>2023-07-03T12:40:31.678Z</time>
      </trkpt>
      <trkpt lat="50.04269" lon="8.99834">
        <ele>154.183484</ele>
        <time>2023-07-03T12:40:33.683Z</time>
      </trkpt>
      <trkpt lat="50.04273" lon="8.99849">
        <ele>154.170832</ele>
        <time>2023-07-03T12:40:35.664Z</time>
      </trkpt>
      <trkpt lat="50.04277" lon="8.99865">
        <ele>154.152524</ele>
        <time>2023-07-03T12:40:37.673Z</time>
      </trkpt>
      <trkpt lat="50.04282" lon="8.99879">
        <ele>154.134428</ele>
        <time>2023-07-03T12:40:39.665Z</time>
      </trkpt>
      <trkpt lat="50.04287" lon="8.99894">
        <ele>154.11637</ele>
        <time>2023-07-03T12:40:41.670Z</time>
      </trkpt>
      <trkpt lat="50.04292" lon="8.99908">
        <ele>154.09862</ele>
        <time>2023-07-03T12:40:43.661Z</time>
      </trkpt>
      <trkpt lat="50.04297" lon="8.99922">
        <ele>154.08051</ele>
        <time>2023-07-03T12:40:45.668Z</time>
      </trkpt>
      <trkpt lat="50.04302" lon="8.99937">
        <ele>154.062237</ele>
        <time>2023-07-03T12:40:47.667Z</time>
      </trkpt>
      <trkpt lat="50.04307" lon="8.99951">
        <ele>154.044294</ele>
        <time>2023-07-03T12:40:49.668Z</time>
      </trkpt>
      <trkpt lat="50.04311" lon="8.99966">
        <ele>154.026247</ele>
        <time>2023-07-03T12:40:51.669Z</time>
      </trkpt>
      <trkpt lat="50.04315" lon="8.99981">
        <ele>154.008144</ele>
        <time>2023-07-03T12:40:53.698Z</time>
      </trkpt>
      <trkpt lat="50.04319" lon="8.99996">
        <ele>153.990514</ele>
        <time>2023-07-03T12:40:55.663Z</time>
      </trkpt>
      <trkpt lat="50.04323" lon="9.00012">
        <ele>153.971462</ele>
        <time>2023-07-03T12:40:57.668Z</time>
      </trkpt>
      <trkpt lat="50.04327" lon="9.00027">
        <ele>153.95373</ele>
        <time>2023-07-03T12:40:59.665Z</time>
      </trkpt>
      <trkpt lat="50.04331" lon="9.00043">
        <ele>153.93561</ele>
        <time>2023-07-03T12:41:01.664Z</time>
      </trkpt>
      <trkpt lat="50.04335" lon="9.00059">
        <ele>153.916495</ele>
        <time>2023-07-03T12:41:03.654Z</time>
      </trkpt>
      <trkpt lat="50.04339" lon="9.00075">
        <ele>153.897368</ele>
        <time>2023-07-03T12:41:05.667Z</time>
      </trkpt>
      <trkpt lat="50.04343" lon="9.00091">
        <ele>153.878355</ele>
        <time>2023-07-03T12:41:07.664Z</time>
      </trkpt>
      <trkpt lat="50.04347" lon="9.00107">
        <ele>153.864538</ele>
        <time>2023-07-03T12:41:09.666Z</time>
      </trkpt>
      <trkpt lat="50.04351" lon="9.00123">
        <ele>153.854493</ele>
        <time>2023-07-03T12:41:11.671Z</time>
      </trkpt>
      <trkpt lat="50.04354" lon="9.0014">
        <ele>153.844333</ele>
        <time>2023-07-03T12:41:13.661Z</time>
      </trkpt>
      <trkpt lat="50.04358" lon="9.00155">
        <ele>153.834447</ele>
        <time>2023-07-03T12:41:15.668Z</time>
      </trkpt>
      <trkpt lat="50.04362" lon="9.00172">
        <ele>153.824357</ele>
        <time>2023-07-03T12:41:17.663Z</time>
      </trkpt>
      <trkpt lat="50.04366" lon="9.00188">
        <ele>153.814253</ele>
        <time>2023-07-03T12:41:19.679Z</time>
      </trkpt>
      <trkpt lat="50.0437" lon="9.00204">
        <ele>153.804484</ele>
        <time>2023-07-03T12:41:21.668Z</time>
      </trkpt>
      <trkpt lat="50.04374" lon="9.0022">
        <ele>153.794165</ele>
        <time>2023-07-03T12:41:23.671Z</time>
      </trkpt>
      <trkpt lat="50.04377" lon="9.00237">
        <ele>153.783924</ele>
        <time>2023-07-03T12:41:25.667Z</time>
      </trkpt>
      <trkpt lat="50.04382" lon="9.00253">
        <ele>153.773876</ele>
        <time>2023-07-03T12:41:27.662Z</time>
      </trkpt>
      <trkpt lat="50.04386" lon="9.00269">
        <ele>153.763709</ele>
        <time>2023-07-03T12:41:29.646Z</time>
      </trkpt>
      <trkpt lat="50.04389" lon="9.00284">
        <ele>153.754138</ele>
        <time>2023-07-03T12:41:31.665Z</time>
      </trkpt>
      <trkpt lat="50.04392" lon="9.003">
        <ele>153.744254</ele>
        <time>2023-07-03T12:41:33.656Z</time>
      </trkpt>
      <trkpt lat="50.04395" lon="9.00315">
        <ele>153.73514</ele>
        <time>2023-07-03T12:41:35.665Z</time>
      </trkpt>
      <trkpt lat="50.04398" lon="9.00331">
        <ele>153.725874</ele>
        <time>2023-07-03T12:41:37.668Z</time>
      </trkpt>
      <trkpt lat="50.04401" lon="9.00346">
        <ele>153.716441</ele>
        <time>2023-07-03T12:41:39.672Z</time>
      </trkpt>
      <trkpt lat="50.04404" lon="9.00361">
        <ele>153.707449</ele>
        <time>2023-07-03T12:41:41.679Z</time>
      </trkpt>
      <trkpt lat="50.04407" lon="9.00377">
        <ele>153.697128</ele>
        <time>2023-07-03T12:41:43.667Z</time>
      </trkpt>
      <trkpt lat="50.04411" lon="9.00392">
        <ele>153.686645</ele>
        <time>2023-07-03T12:41:45.682Z</time>
      </trkpt>
      <trkpt lat="50.04415" lon="9.00408">
        <ele>153.676292</ele>
        <time>2023-07-03T12:41:47.672Z</time>
      </trkpt>
      <trkpt lat="50.04418" lon="9.00423">
        <ele>153.666527</ele>
        <time>2023-07-03T12:41:49.669Z</time>
      </trkpt>
      <trkpt lat="50.04422" lon="9.00438">
        <ele>153.657059</ele>
        <time>2023-07-03T12:41:51.679Z</time>
      </trkpt>
      <trkpt lat="50.04425" lon="9.00453">
        <ele>153.646986</ele>
        <time>2023-07-03T12:41:53.672Z</time>
      </trkpt>
      <trkpt lat="50.04429" lon="9.00468">
        <ele>153.636914</ele>
        <time>2023-07-03T12:41:55.668Z</time>
      </trkpt>
      <trkpt lat="50.04432" lon="9.00484">
        <ele>153.626595</ele>
        <time>2023-07-03T12:41:57.654Z</time>
      </trkpt>
      <trkpt lat="50.04435" lon="9.00499">
        <ele>153.616566</ele>
        <time>2023-07-03T12:41:59.668Z</time>
      </trkpt>
      <trkpt lat="50.04439" lon="9.00516">
        <ele>153.605863</ele>
        <time>2023-07-03T12:42:01.669Z</time>
      </trkpt>
      <trkpt lat="50.04442" lon="9.00531">
        <ele>153.596043</ele>
        <time>2023-07-03T12:42:03.667Z</time>
      </trkpt>
      <trkpt lat="50.04445" lon="9.00548">
        <ele>153.585486</ele>
        <time>2023-07-03T12:42:05.665Z</time>
      </trkpt>
      <trkpt lat="50.04446" lon="9.00564">
        <ele>153.575289</ele>
        <time>2023-07-03T12:42:07.665Z</time>
      </trkpt>
      <trkpt lat="50.04448" lon="9.00581">
        <ele>153.56474</ele>
        <time>2023-07-03T12:42:09.665Z</time>
      </trkpt>
      <trkpt lat="50.0445" lon="9.00596">
        <ele>153.55505</ele>
        <time>2023-07-03T12:42:11.667Z</time>
      </trkpt>
      <trkpt lat="50.04453" lon="9.00612">
        <ele>153.545204</ele>
        <time>2023-07-03T12:42:13.669Z</time>
      </trkpt>
      <trkpt lat="50.04455" lon="9.00627">
        <ele>153.535371</ele>
        <time>2023-07-03T12:42:15.662Z</time>
      </trkpt>
      <trkpt lat="50.04458" lon="9.00643">
        <ele>153.560295</ele>
        <time>2023-07-03T12:42:17.663Z</time>
      </trkpt>
      <trkpt lat="50.04461" lon="9.00658">
        <ele>153.590147</ele>
        <time>2023-07-03T12:42:19.677Z</time>
      </trkpt>
      <trkpt lat="50.04463" lon="9.00673">
        <ele>153.619467</ele>
        <time>2023-07-03T12:42:21.675Z</time>
      </trkpt>
      <trkpt lat="50.04465" lon="9.00689">
        <ele>153.648524</ele>
        <time>2023-07-03T12:42:23.672Z</time>
      </trkpt>
      <trkpt lat="50.04467" lon="9.00704">
        <ele>153.677881</ele>
        <time>2023-07-03T12:42:25.672Z</time>
      </trkpt>
      <trkpt lat="50.04468" lon="9.0072">
        <ele>153.707995</ele>
        <time>2023-07-03T12:42:27.668Z</time>
      </trkpt>
      <trkpt lat="50.04469" lon="9.00736">
        <ele>153.738461</ele>
        <time>2023-07-03T12:42:29.665Z</time>
      </trkpt>
      <trkpt lat="50.0447" lon="9.00752">
        <ele>153.768179</ele>
        <time>2023-07-03T12:42:31.667Z</time>
      </trkpt>
      <trkpt lat="50.0447" lon="9.00768">
        <ele>153.798424</ele>
        <time>2023-07-03T12:42:33.666Z</time>
      </trkpt>
      <trkpt lat="50.0447" lon="9.00784">
        <ele>153.829219</ele>
        <time>2023-07-03T12:42:35.679Z</time>
      </trkpt>
      <trkpt lat="50.0447" lon="9.008">
        <ele>153.859254</ele>
        <time>2023-07-03T12:42:37.682Z</time>
      </trkpt>
      <trkpt lat="50.0447" lon="9.00816">
        <ele>153.889102</ele>
        <time>2023-07-03T12:42:39.670Z</time>
      </trkpt>
      <trkpt lat="50.04472" lon="9.00832">
        <ele>153.919483</ele>
        <time>2023-07-03T12:42:41.670Z</time>
      </trkpt>
      <trkpt lat="50.04472" lon="9.00848">
        <ele>153.949506</ele>
        <time>2023-07-03T12:42:43.666Z</time>
      </trkpt>
      <trkpt lat="50.04472" lon="9.00864">
        <ele>153.978592</ele>
        <time>2023-07-03T12:42:45.684Z</time>
      </trkpt>
      <trkpt lat="50.04473" lon="9.00879">
        <ele>154.007022</ele>
        <time>2023-07-03T12:42:47.669Z</time>
      </trkpt>
      <trkpt lat="50.04473" lon="9.00895">
        <ele>154.037046</ele>
        <time>2023-07-03T12:42:49.664Z</time>
      </trkpt>
      <trkpt lat="50.04473" lon="9.00911">
        <ele>154.05538</ele>
        <time>2023-07-03T12:42:51.672Z</time>
      </trkpt>
      <trkpt lat="50.04473" lon="9.00927">
        <ele>154.038109</ele>
        <time>2023-07-03T12:42:53.681Z</time>
      </trkpt>
      <trkpt lat="50.04474" lon="9.00943">
        <ele>154.020656</ele>
        <time>2023-07-03T12:42:55.664Z</time>
      </trkpt>
      <trkpt lat="50.04474" lon="9.0096">
        <ele>154.002459</ele>
        <time>2023-07-03T12:42:57.671Z</time>
      </trkpt>
      <trkpt lat="50.04474" lon="9.00977">
        <ele>153.98447</ele>
        <time>2023-07-03T12:42:59.668Z</time>
      </trkpt>
      <trkpt lat="50.04475" lon="9.00994">
        <ele>153.967021</ele>
        <time>2023-07-03T12:43:01.679Z</time>
      </trkpt>
      <trkpt lat="50.04475" lon="9.0101">
        <ele>153.949147</ele>
        <time>2023-07-03T12:43:03.663Z</time>
      </trkpt>
      <trkpt lat="50.04475" lon="9.01027">
        <ele>153.931588</ele>
        <time>2023-07-03T12:43:05.671Z</time>
      </trkpt>
      <trkpt lat="50.04474" lon="9.01044">
        <ele>153.913032</ele>
        <time>2023-07-03T12:43:07.657Z</time>
      </trkpt>
      <trkpt lat="50.04474" lon="9.01061">
        <ele>153.89516</ele>
        <time>2023-07-03T12:43:09.662Z</time>
      </trkpt>
      <trkpt lat="50.04474" lon="9.01078">
        <ele>153.877482</ele>
        <time>2023-07-03T12:43:11.663Z</time>
      </trkpt>
      <trkpt lat="50.04473" lon="9.01094">
        <ele>153.860336</ele>
        <time>2023-07-03T12:43:13.674Z</time>
      </trkpt>
      <trkpt lat="50.04471" lon="9.0111">
        <ele>153.842756</ele>
        <time>2023-07-03T12:43:15.678Z</time>
      </trkpt>
      <trkpt lat="50.0447" lon="9.01126">
        <ele>153.826015</ele>
        <time>2023-07-03T12:43:17.685Z</time>
      </trkpt>
      <trkpt lat="50.04469" lon="9.01142">
        <ele>153.808965</ele>
        <time>2023-07-03T12:43:19.624Z</time>
      </trkpt>
      <trkpt lat="50.04468" lon="9.01158">
        <ele>153.791986</ele>
        <time>2023-07-03T12:43:21.672Z</time>
      </trkpt>
      <trkpt lat="50.04468" lon="9.01173">
        <ele>153.775158</ele>
        <time>2023-07-03T12:43:23.659Z</time>
      </trkpt>
      <trkpt lat="50.04466" lon="9.01189">
        <ele>153.763295</ele>
        <time>2023-07-03T12:43:25.657Z</time>
      </trkpt>
      <trkpt lat="50.04465" lon="9.01204">
        <ele>153.77414</ele>
        <time>2023-07-03T12:43:27.662Z</time>
      </trkpt>
      <trkpt lat="50.04464" lon="9.0122">
        <ele>153.785014</ele>
        <time>2023-07-03T12:43:29.662Z</time>
      </trkpt>
      <trkpt lat="50.04463" lon="9.01235">
        <ele>153.79589</ele>
        <time>2023-07-03T12:43:31.654Z</time>
      </trkpt>
      <trkpt lat="50.04461" lon="9.01251">
        <ele>153.807245</ele>
        <time>2023-07-03T12:43:33.669Z</time>
      </trkpt>
      <trkpt lat="50.04459" lon="9.01266">
        <ele>153.817872</ele>
        <time>2023-07-03T12:43:35.668Z</time>
      </trkpt>
      <trkpt lat="50.04457" lon="9.01282">
        <ele>153.82916</ele>
        <time>2023-07-03T12:43:37.675Z</time>
      </trkpt>
      <trkpt lat="50.04456" lon="9.01298">
        <ele>153.839846</ele>
        <time>2023-07-03T12:43:39.675Z</time>
      </trkpt>
      <trkpt lat="50.04454" lon="9.01314">
        <ele>153.851165</ele>
        <time>2023-07-03T12:43:41.681Z</time>
      </trkpt>
      <trkpt lat="50.04452" lon="9.0133">
        <ele>153.862365</ele>
        <time>2023-07-03T12:43:43.666Z</time>
      </trkpt>
      <trkpt lat="50.0445" lon="9.01345">
        <ele>153.873381</ele>
        <time>2023-07-03T12:43:45.650Z</time>
      </trkpt>
      <trkpt lat="50.04448" lon="9.0136">
        <ele>153.884076</ele>
        <time>2023-07-03T12:43:47.667Z</time>
      </trkpt>
      <trkpt lat="50.04446" lon="9.01376">
        <ele>153.894848</ele>
        <time>2023-07-03T12:43:49.665Z</time>
      </trkpt>
      <trkpt lat="50.04445" lon="9.01391">
        <ele>153.905932</ele>
        <time>2023-07-03T12:43:51.666Z</time>
      </trkpt>
      <trkpt lat="50.04443" lon="9.01407">
        <ele>153.917165</ele>
        <time>2023-07-03T12:43:53.666Z</time>
      </trkpt>
      <trkpt lat="50.04441" lon="9.01423">
        <ele>153.928211</ele>
        <time>2023-07-03T12:43:55.665Z</time>
      </trkpt>
      <trkpt lat="50.04439" lon="9.01439">
        <ele>153.939972</ele>
        <time>2023-07-03T12:43:57.667Z</time>
      </trkpt>
      <trkpt lat="50.04436" lon="9.01455">
        <ele>153.951219</ele>
        <time>2023-07-03T12:43:59.674Z</time>
      </trkpt>
      <trkpt lat="50.04433" lon="9.01471">
        <ele>153.959714</ele>
        <time>2023-07-03T12:44:01.654Z</time>
      </trkpt>
      <trkpt lat="50.04431" lon="9.01488">
        <ele>153.966318</ele>
        <time>2023-07-03T12:44:03.667Z</time>
      </trkpt>
      <trkpt lat="50.04428" lon="9.01505">
        <ele>153.972869</ele>
        <time>2023-07-03T12:44:05.667Z</time>
      </trkpt>
      <trkpt lat="50.04425" lon="9.01521">
        <ele>153.979146</ele>
        <time>2023-07-03T12:44:07.673Z</time>
      </trkpt>
      <trkpt lat="50.04423" lon="9.01536">
        <ele>153.985326</ele>
        <time>2023-07-03T12:44:09.664Z</time>
      </trkpt>
      <trkpt lat="50.0442" lon="9.01551">
        <ele>153.991309</ele>
        <time>2023-07-03T12:44:11.672Z</time>
      </trkpt>
      <trkpt lat="50.04418" lon="9.01566">
        <ele>153.997318</ele>
        <time>2023-07-03T12:44:13.660Z</time>
      </trkpt>
      <trkpt lat="50.04415" lon="9.01581">
        <ele>154.003009</ele>
        <time>2023-07-03T12:44:15.667Z</time>
      </trkpt>
      <trkpt lat="50.04412" lon="9.01595">
        <ele>154.008828</ele>
        <time>2023-07-03T12:44:17.660Z</time>
      </trkpt>
      <trkpt lat="50.04409" lon="9.0161">
        <ele>154.014608</ele>
        <time>2023-07-03T12:44:19.662Z</time>
      </trkpt>
      <trkpt lat="50.04406" lon="9.01624">
        <ele>154.020351</ele>
        <time>2023-07-03T12:44:21.667Z</time>
      </trkpt>
      <trkpt lat="50.04404" lon="9.01638">
        <ele>154.025811</ele>
        <time>2023-07-03T12:44:23.667Z</time>
      </trkpt>
      <trkpt lat="50.04401" lon="9.01651">
        <ele>154.031315</ele>
        <time>2023-07-03T12:44:25.664Z</time>
      </trkpt>
      <trkpt lat="50.04398" lon="9.01665">
        <ele>154.037004</ele>
        <time>2023-07-03T12:44:27.673Z</time>
      </trkpt>
      <trkpt lat="50.04395" lon="9.0168">
        <ele>154.043057</ele>
        <time>2023-07-03T12:44:29.666Z</time>
      </trkpt>
      <trkpt lat="50.04392" lon="9.01695">
        <ele>154.0488</ele>
        <time>2023-07-03T12:44:31.672Z</time>
      </trkpt>
      <trkpt lat="50.04388" lon="9.01709">
        <ele>154.054784</ele>
        <time>2023-07-03T12:44:33.670Z</time>
      </trkpt>
      <trkpt lat="50.04385" lon="9.01724">
        <ele>154.060781</ele>
        <time>2023-07-03T12:44:35.662Z</time>
      </trkpt>
      <trkpt lat="50.04381" lon="9.01738">
        <ele>154.084939</ele>
        <time>2023-07-03T12:44:37.668Z</time>
      </trkpt>
      <trkpt lat="50.04377" lon="9.01752">
        <ele>154.121532</ele>
        <time>2023-07-03T12:44:39.662Z</time>
      </trkpt>
      <trkpt lat="50.04375" lon="9.01767">
        <ele>154.15929</ele>
        <time>2023-07-03T12:44:41.665Z</time>
      </trkpt>
      <trkpt lat="50.04372" lon="9.01782">
        <ele>154.196194</ele>
        <time>2023-07-03T12:44:43.663Z</time>
      </trkpt>
      <trkpt lat="50.04369" lon="9.01796">
        <ele>154.232022</ele>
        <time>2023-07-03T12:44:45.668Z</time>
      </trkpt>
      <trkpt lat="50.04365" lon="9.01811">
        <ele>154.269461</ele>
        <time>2023-07-03T12:44:47.655Z</time>
      </trkpt>
      <trkpt lat="50.04362" lon="9.01825">
        <ele>154.306632</ele>
        <time>2023-07-03T12:44:49.667Z</time>
      </trkpt>
      <trkpt lat="50.04359" lon="9.0184">
        <ele>154.344296</ele>
        <time>2023-07-03T12:44:51.673Z</time>
      </trkpt>
      <trkpt lat="50.04356" lon="9.01854">
        <ele>154.379865</ele>
        <time>2023-07-03T12:44:53.668Z</time>
      </trkpt>
      <trkpt lat="50.04352" lon="9.01868">
        <ele>154.41668</ele>
        <time>2023-07-03T12:44:55.660Z</time>
      </trkpt>
      <trkpt lat="50.04349" lon="9.01883">
        <ele>154.453764</ele>
        <time>2023-07-03T12:44:57.687Z</time>
      </trkpt>
      <trkpt lat="50.04345" lon="9.01897">
        <ele>154.490398</ele>
        <time>2023-07-03T12:44:59.655Z</time>
      </trkpt>
      <trkpt lat="50.04342" lon="9.01912">
        <ele>154.528552</ele>
        <time>2023-07-03T12:45:01.682Z</time>
      </trkpt>
      <trkpt lat="50.04338" lon="9.01927">
        <ele>154.567119</ele>
        <time>2023-07-03T12:45:03.654Z</time>
      </trkpt>
      <trkpt lat="50.04335" lon="9.01943">
        <ele>154.606166</ele>
        <time>2023-07-03T12:45:05.673Z</time>
      </trkpt>
      <trkpt lat="50.04332" lon="9.01958">
        <ele>154.644994</ele>
        <time>2023-07-03T12:45:07.664Z</time>
      </trkpt>
      <trkpt lat="50.04328" lon="9.01973">
        <ele>154.683787</ele>
        <time>2023-07-03T12:45:09.662Z</time>
      </trkpt>
      <trkpt lat="50.04325" lon="9.01988">
        <ele>154.722444</ele>
        <time>2023-07-03T12:45:11.658Z</time>
      </trkpt>
      <trkpt lat="50.04322" lon="9.02003">
        <ele>154.699011</ele>
        <time>2023-07-03T12:45:13.675Z</time>
      </trkpt>
      <trkpt lat="50.04318" lon="9.02018">
        <ele>154.64241</ele>
        <time>2023-07-03T12:45:15.671Z</time>
      </trkpt>
      <trkpt lat="50.04315" lon="9.02033">
        <ele>154.586471</ele>
        <time>2023-07-03T12:45:17.663Z</time>
      </trkpt>
      <trkpt lat="50.04312" lon="9.02047">
        <ele>154.532453</ele>
        <time>2023-07-03T12:45:19.662Z</time>
      </trkpt>
      <trkpt lat="50.04309" lon="9.02061">
        <ele>154.478737</ele>
        <time>2023-07-03T12:45:21.664Z</time>
      </trkpt>
      <trkpt lat="50.04307" lon="9.02075">
        <ele>154.428272</ele>
        <time>2023-07-03T12:45:23.676Z</time>
      </trkpt>
      <trkpt lat="50.04303" lon="9.02093">
        <ele>154.360168</ele>
        <time>2023-07-03T12:45:26.664Z</time>
      </trkpt>
      <trkpt lat="50.04298" lon="9.02111">
        <ele>154.288883</ele>
        <time>2023-07-03T12:45:29.684Z</time>
      </trkpt>
      <trkpt lat="50.04295" lon="9.02124">
        <ele>154.238229</ele>
        <time>2023-07-03T12:45:31.659Z</time>
      </trkpt>
      <trkpt lat="50.0429" lon="9.02143">
        <ele>154.166514</ele>
        <time>2023-07-03T12:45:34.653Z</time>
      </trkpt>
      <trkpt lat="50.04285" lon="9.02161">
        <ele>154.093815</ele>
        <time>2023-07-03T12:45:37.671Z</time>
      </trkpt>
      <trkpt lat="50.0428" lon="9.0218">
        <ele>154.020851</ele>
        <time>2023-07-03T12:45:40.664Z</time>
      </trkpt>
      <trkpt lat="50.04277" lon="9.02194">
        <ele>153.96887</ele>
        <time>2023-07-03T12:45:42.677Z</time>
      </trkpt>
      <trkpt lat="50.04272" lon="9.02214">
        <ele>153.893582</ele>
        <time>2023-07-03T12:45:45.667Z</time>
      </trkpt>
      <trkpt lat="50.04269" lon="9.02227">
        <ele>153.842266</ele>
        <time>2023-07-03T12:45:47.654Z</time>
      </trkpt>
      <trkpt lat="50.04265" lon="9.0224">
        <ele>153.790294</ele>
        <time>2023-07-03T12:45:49.672Z</time>
      </trkpt>
      <trkpt lat="50.04261" lon="9.02252">
        <ele>153.739143</ele>
        <time>2023-07-03T12:45:51.663Z</time>
      </trkpt>
      <trkpt lat="50.04256" lon="9.02266">
        <ele>153.73228</ele>
        <time>2023-07-03T12:45:53.669Z</time>
      </trkpt>
      <trkpt lat="50.04252" lon="9.02279">
        <ele>153.735324</ele>
        <time>2023-07-03T12:45:55.664Z</time>
      </trkpt>
      <trkpt lat="50.04248" lon="9.02292">
        <ele>153.738573</ele>
        <time>2023-07-03T12:45:57.668Z</time>
      </trkpt>
      <trkpt lat="50.04244" lon="9.02305">
        <ele>153.741656</ele>
        <time>2023-07-03T12:45:59.655Z</time>
      </trkpt>
      <trkpt lat="50.04239" lon="9.02317">
        <ele>153.744732</ele>
        <time>2023-07-03T12:46:01.679Z</time>
      </trkpt>
      <trkpt lat="50.04235" lon="9.0233">
        <ele>153.747967</ele>
        <time>2023-07-03T12:46:03.669Z</time>
      </trkpt>
      <trkpt lat="50.04231" lon="9.02344">
        <ele>153.751153</ele>
        <time>2023-07-03T12:46:05.671Z</time>
      </trkpt>
      <trkpt lat="50.04226" lon="9.02357">
        <ele>153.754354</ele>
        <time>2023-07-03T12:46:07.671Z</time>
      </trkpt>
      <trkpt lat="50.04222" lon="9.02369">
        <ele>153.757398</ele>
        <time>2023-07-03T12:46:09.674Z</time>
      </trkpt>
      <trkpt lat="50.04218" lon="9.02383">
        <ele>153.760623</ele>
        <time>2023-07-03T12:46:11.667Z</time>
      </trkpt>
      <trkpt lat="50.04214" lon="9.02396">
        <ele>153.763897</ele>
        <time>2023-07-03T12:46:13.663Z</time>
      </trkpt>
      <trkpt lat="50.04209" lon="9.0241">
        <ele>153.767348</ele>
        <time>2023-07-03T12:46:15.662Z</time>
      </trkpt>
      <trkpt lat="50.04204" lon="9.02423">
        <ele>153.770678</ele>
        <time>2023-07-03T12:46:17.673Z</time>
      </trkpt>
      <trkpt lat="50.04198" lon="9.02435">
        <ele>153.773964</ele>
        <time>2023-07-03T12:46:19.657Z</time>
      </trkpt>
      <trkpt lat="50.04191" lon="9.02448">
        <ele>153.777397</ele>
        <time>2023-07-03T12:46:21.670Z</time>
      </trkpt>
      <trkpt lat="50.04185" lon="9.0246">
        <ele>153.780771</ele>
        <time>2023-07-03T12:46:23.645Z</time>
      </trkpt>
      <trkpt lat="50.04179" lon="9.02471">
        <ele>153.784063</ele>
        <time>2023-07-03T12:46:25.668Z</time>
      </trkpt>
      <trkpt lat="50.04172" lon="9.02483">
        <ele>153.787323</ele>
        <time>2023-07-03T12:46:27.670Z</time>
      </trkpt>
      <trkpt lat="50.04166" lon="9.02495">
        <ele>153.791726</ele>
        <time>2023-07-03T12:46:29.658Z</time>
      </trkpt>
      <trkpt lat="50.0416" lon="9.02507">
        <ele>153.800004</ele>
        <time>2023-07-03T12:46:31.665Z</time>
      </trkpt>
      <trkpt lat="50.04154" lon="9.02519">
        <ele>153.808261</ele>
        <time>2023-07-03T12:46:33.669Z</time>
      </trkpt>
      <trkpt lat="50.04148" lon="9.0253">
        <ele>153.816313</ele>
        <time>2023-07-03T12:46:35.678Z</time>
      </trkpt>
      <trkpt lat="50.04141" lon="9.02542">
        <ele>153.824724</ele>
        <time>2023-07-03T12:46:37.668Z</time>
      </trkpt>
      <trkpt lat="50.04135" lon="9.02554">
        <ele>153.833123</ele>
        <time>2023-07-03T12:46:39.673Z</time>
      </trkpt>
      <trkpt lat="50.0413" lon="9.02565">
        <ele>153.841132</ele>
        <time>2023-07-03T12:46:41.669Z</time>
      </trkpt>
      <trkpt lat="50.04123" lon="9.02577">
        <ele>153.849602</ele>
        <time>2023-07-03T12:46:43.662Z</time>
      </trkpt>
      <trkpt lat="50.04117" lon="9.02589">
        <ele>153.858212</ele>
        <time>2023-07-03T12:46:45.671Z</time>
      </trkpt>
      <trkpt lat="50.04111" lon="9.02601">
        <ele>153.866639</ele>
        <time>2023-07-03T12:46:47.671Z</time>
      </trkpt>
      <trkpt lat="50.04105" lon="9.02613">
        <ele>153.874939</ele>
        <time>2023-07-03T12:46:49.664Z</time>
      </trkpt>
      <trkpt lat="50.04099" lon="9.02625">
        <ele>153.883251</ele>
        <time>2023-07-03T12:46:51.664Z</time>
      </trkpt>
      <trkpt lat="50.04093" lon="9.02636">
        <ele>153.891509</ele>
        <time>2023-07-03T12:46:53.661Z</time>
      </trkpt>
      <trkpt lat="50.04086" lon="9.02648">
        <ele>153.899975</ele>
        <time>2023-07-03T12:46:55.667Z</time>
      </trkpt>
      <trkpt lat="50.0408" lon="9.02659">
        <ele>153.90822</ele>
        <time>2023-07-03T12:46:57.667Z</time>
      </trkpt>
      <trkpt lat="50.04074" lon="9.02671">
        <ele>153.91668</ele>
        <time>2023-07-03T12:46:59.637Z</time>
      </trkpt>
      <trkpt lat="50.04067" lon="9.02683">
        <ele>153.925162</ele>
        <time>2023-07-03T12:47:01.672Z</time>
      </trkpt>
      <trkpt lat="50.04061" lon="9.02696">
        <ele>153.933688</ele>
        <time>2023-07-03T12:47:03.662Z</time>
      </trkpt>
      <trkpt lat="50.04055" lon="9.02708">
        <ele>153.942513</ele>
        <time>2023-07-03T12:47:05.668Z</time>
      </trkpt>
      <trkpt lat="50.04049" lon="9.0272">
        <ele>153.902692</ele>
        <time>2023-07-03T12:47:07.672Z</time>
      </trkpt>
      <trkpt lat="50.04043" lon="9.02733">
        <ele>153.849168</ele>
        <time>2023-07-03T12:47:09.671Z</time>
      </trkpt>
      <trkpt lat="50.04037" lon="9.02745">
        <ele>153.801987</ele>
        <time>2023-07-03T12:47:11.666Z</time>
      </trkpt>
      <trkpt lat="50.04031" lon="9.02757">
        <ele>153.750206</ele>
        <time>2023-07-03T12:47:13.679Z</time>
      </trkpt>
      <trkpt lat="50.04025" lon="9.02769">
        <ele>153.699226</ele>
        <time>2023-07-03T12:47:15.667Z</time>
      </trkpt>
      <trkpt lat="50.04018" lon="9.0278">
        <ele>153.650349</ele>
        <time>2023-07-03T12:47:17.668Z</time>
      </trkpt>
      <trkpt lat="50.04012" lon="9.02791">
        <ele>153.599958</ele>
        <time>2023-07-03T12:47:19.665Z</time>
      </trkpt>
      <trkpt lat="50.04005" lon="9.02802">
        <ele>153.55246</ele>
        <time>2023-07-03T12:47:21.671Z</time>
      </trkpt>
      <trkpt lat="50.03999" lon="9.02813">
        <ele>153.503397</ele>
        <time>2023-07-03T12:47:23.666Z</time>
      </trkpt>
      <trkpt lat="50.0399" lon="9.02829">
        <ele>153.431914</ele>
        <time>2023-07-03T12:47:26.658Z</time>
      </trkpt>
      <trkpt lat="50.03983" lon="9.0284">
        <ele>153.381275</ele>
        <time>2023-07-03T12:47:28.681Z</time>
      </trkpt>
      <trkpt lat="50.03976" lon="9.02851">
        <ele>153.331477</ele>
        <time>2023-07-03T12:47:30.662Z</time>
      </trkpt>
      <trkpt lat="50.03968" lon="9.02861">
        <ele>153.278866</ele>
        <time>2023-07-03T12:47:32.671Z</time>
      </trkpt>
      <trkpt lat="50.0396" lon="9.0287">
        <ele>153.227608</ele>
        <time>2023-07-03T12:47:34.674Z</time>
      </trkpt>
      <trkpt lat="50.03952" lon="9.02878">
        <ele>153.1777</ele>
        <time>2023-07-03T12:47:36.653Z</time>
      </trkpt>
      <trkpt lat="50.03944" lon="9.02888">
        <ele>153.125486</ele>
        <time>2023-07-03T12:47:38.664Z</time>
      </trkpt>
      <trkpt lat="50.03936" lon="9.02898">
        <ele>153.071877</ele>
        <time>2023-07-03T12:47:40.675Z</time>
      </trkpt>
      <trkpt lat="50.03927" lon="9.02907">
        <ele>153.018479</ele>
        <time>2023-07-03T12:47:42.664Z</time>
      </trkpt>
      <trkpt lat="50.03919" lon="9.02915">
        <ele>153.035117</ele>
        <time>2023-07-03T12:47:44.669Z</time>
      </trkpt>
      <trkpt lat="50.0391" lon="9.02922">
        <ele>153.052084</ele>
        <time>2023-07-03T12:47:46.661Z</time>
      </trkpt>
      <trkpt lat="50.03901" lon="9.02929">
        <ele>153.068298</ele>
        <time>2023-07-03T12:47:48.688Z</time>
      </trkpt>
      <trkpt lat="50.03893" lon="9.02937">
        <ele>153.084511</ele>
        <time>2023-07-03T12:47:50.684Z</time>
      </trkpt>
      <trkpt lat="50.03885" lon="9.02943">
        <ele>153.099736</ele>
        <time>2023-07-03T12:47:52.667Z</time>
      </trkpt>
      <trkpt lat="50.03877" lon="9.02951">
        <ele>153.115801</ele>
        <time>2023-07-03T12:47:54.674Z</time>
      </trkpt>
      <trkpt lat="50.03869" lon="9.02957">
        <ele>153.130969</ele>
        <time>2023-07-03T12:47:56.652Z</time>
      </trkpt>
      <trkpt lat="50.03857" lon="9.02965">
        <ele>153.152207</ele>
        <time>2023-07-03T12:47:59.665Z</time>
      </trkpt>
      <trkpt lat="50.03845" lon="9.02972">
        <ele>153.173433</ele>
        <time>2023-07-03T12:48:02.657Z</time>
      </trkpt>
      <trkpt lat="50.03833" lon="9.02978">
        <ele>153.194329</ele>
        <time>2023-07-03T12:48:05.669Z</time>
      </trkpt>
      <trkpt lat="50.03821" lon="9.02984">
        <ele>153.216253</ele>
        <time>2023-07-03T12:48:08.672Z</time>
      </trkpt>
      <trkpt lat="50.03808" lon="9.02991">
        <ele>153.238757</ele>
        <time>2023-07-03T12:48:11.671Z</time>
      </trkpt>
      <trkpt lat="50.03796" lon="9.02998">
        <ele>153.26104</ele>
        <time>2023-07-03T12:48:14.675Z</time>
      </trkpt>
      <trkpt lat="50.03783" lon="9.03003">
        <ele>153.283308</ele>
        <time>2023-07-03T12:48:17.660Z</time>
      </trkpt>
      <trkpt lat="50.03774" lon="9.03006">
        <ele>153.298735</ele>
        <time>2023-07-03T12:48:19.669Z</time>
      </trkpt>
      <trkpt lat="50.03762" lon="9.0301">
        <ele>153.320416</ele>
        <time>2023-07-03T12:48:22.675Z</time>
      </trkpt>
      <trkpt lat="50.03749" lon="9.03014">
        <ele>153.389494</ele>
        <time>2023-07-03T12:48:25.729Z</time>
      </trkpt>
      <trkpt lat="50.03737" lon="9.03019">
        <ele>153.455483</ele>
        <time>2023-07-03T12:48:28.671Z</time>
      </trkpt>
      <trkpt lat="50.03725" lon="9.03023">
        <ele>153.521445</ele>
        <time>2023-07-03T12:48:31.672Z</time>
      </trkpt>
      <trkpt lat="50.03713" lon="9.03026">
        <ele>153.584649</ele>
        <time>2023-07-03T12:48:34.664Z</time>
      </trkpt>
      <trkpt lat="50.03702" lon="9.03029">
        <ele>153.648658</ele>
        <time>2023-07-03T12:48:37.650Z</time>
      </trkpt>
      <trkpt lat="50.03689" lon="9.03031">
        <ele>153.715167</ele>
        <time>2023-07-03T12:48:40.662Z</time>
      </trkpt>
      <trkpt lat="50.03677" lon="9.03032">
        <ele>153.780359</ele>
        <time>2023-07-03T12:48:43.669Z</time>
      </trkpt>
      <trkpt lat="50.03665" lon="9.03035">
        <ele>153.844902</ele>
        <time>2023-07-03T12:48:46.663Z</time>
      </trkpt>
      <trkpt lat="50.03654" lon="9.03037">
        <ele>153.908246</ele>
        <time>2023-07-03T12:48:49.672Z</time>
      </trkpt>
      <trkpt lat="50.03641" lon="9.03039">
        <ele>153.974115</ele>
        <time>2023-07-03T12:48:52.669Z</time>
      </trkpt>
      <trkpt lat="50.0363" lon="9.0304">
        <ele>154.037276</ele>
        <time>2023-07-03T12:48:55.678Z</time>
      </trkpt>
      <trkpt lat="50.03617" lon="9.03043">
        <ele>154.105687</ele>
        <time>2023-07-03T12:48:58.660Z</time>
      </trkpt>
      <trkpt lat="50.03604" lon="9.03046">
        <ele>154.174252</ele>
        <time>2023-07-03T12:49:01.674Z</time>
      </trkpt>
      <trkpt lat="50.03592" lon="9.03048">
        <ele>154.241224</ele>
        <time>2023-07-03T12:49:04.664Z</time>
      </trkpt>
      <trkpt lat="50.0358" lon="9.03049">
        <ele>154.329924</ele>
        <time>2023-07-03T12:49:07.680Z</time>
      </trkpt>
      <trkpt lat="50.03569" lon="9.03049">
        <ele>154.473606</ele>
        <time>2023-07-03T12:49:10.656Z</time>
      </trkpt>
      <trkpt lat="50.03559" lon="9.03049">
        <ele>154.603184</ele>
        <time>2023-07-03T12:49:13.672Z</time>
      </trkpt>
      <trkpt lat="50.03548" lon="9.03049">
        <ele>154.745602</ele>
        <time>2023-07-03T12:49:17.667Z</time>
      </trkpt>
      <trkpt lat="50.03542" lon="9.03061">
        <ele>154.866494</ele>
        <time>2023-07-03T12:49:22.664Z</time>
      </trkpt>
      <trkpt lat="50.03551" lon="9.03062">
        <ele>154.98493</ele>
        <time>2023-07-03T12:49:26.663Z</time>
      </trkpt>
      <trkpt lat="50.03562" lon="9.03061">
        <ele>155.115947</ele>
        <time>2023-07-03T12:49:30.664Z</time>
      </trkpt>
      <trkpt lat="50.03573" lon="9.03062">
        <ele>155.261099</ele>
        <time>2023-07-03T12:49:34.677Z</time>
      </trkpt>
      <trkpt lat="50.03584" lon="9.03063">
        <ele>155.406145</ele>
        <time>2023-07-03T12:49:38.664Z</time>
      </trkpt>
      <trkpt lat="50.03592" lon="9.0307">
        <ele>155.524593</ele>
        <time>2023-07-03T12:49:42.651Z</time>
      </trkpt>
      <trkpt lat="50.0359" lon="9.03087">
        <ele>155.666561</ele>
        <time>2023-07-03T12:49:46.657Z</time>
      </trkpt>
      <trkpt lat="50.0359" lon="9.03105">
        <ele>155.814506</ele>
        <time>2023-07-03T12:49:50.683Z</time>
      </trkpt>
      <trkpt lat="50.03588" lon="9.03122">
        <ele>155.956391</ele>
        <time>2023-07-03T12:49:54.679Z</time>
      </trkpt>
      <trkpt lat="50.03588" lon="9.0314">
        <ele>156.105731</ele>
        <time>2023-07-03T12:49:58.669Z</time>
      </trkpt>
      <trkpt lat="50.03587" lon="9.03156">
        <ele>156.236769</ele>
        <time>2023-07-03T12:50:02.672Z</time>
      </trkpt>
      <trkpt lat="50.03587" lon="9.03173">
        <ele>156.381791</ele>
        <time>2023-07-03T12:50:07.656Z</time>
      </trkpt>
      <trkpt lat="50.03587" lon="9.0319">
        <ele>156.521068</ele>
        <time>2023-07-03T12:50:12.668Z</time>
      </trkpt>
      <trkpt lat="50.03586" lon="9.03197">
        <ele>156.579891</ele>
        <time>2023-07-03T12:50:24.742Z</time>
      </trkpt>
      <trkpt lat="50.03586" lon="9.03212">
        <ele>156.505177</ele>
        <time>2023-07-03T12:51:22.660Z</time>
      </trkpt>
      <trkpt lat="50.03585" lon="9.03227">
        <ele>156.397075</ele>
        <time>2023-07-03T12:51:26.660Z</time>
      </trkpt>
      <trkpt lat="50.03584" lon="9.03245">
        <ele>156.265407</ele>
        <time>2023-07-03T12:51:30.661Z</time>
      </trkpt>
      <trkpt lat="50.03585" lon="9.03261">
        <ele>156.151367</ele>
        <time>2023-07-03T12:51:33.675Z</time>
      </trkpt>
      <trkpt lat="50.03583" lon="9.03275">
        <ele>156.052345</ele>
        <time>2023-07-03T12:51:35.668Z</time>
      </trkpt>
      <trkpt lat="50.03581" lon="9.03289">
        <ele>155.949941</ele>
        <time>2023-07-03T12:51:37.648Z</time>
      </trkpt>
      <trkpt lat="50.0358" lon="9.03306">
        <ele>155.833161</ele>
        <time>2023-07-03T12:51:39.673Z</time>
      </trkpt>
      <trkpt lat="50.03579" lon="9.03321">
        <ele>155.721867</ele>
        <time>2023-07-03T12:51:41.677Z</time>
      </trkpt>
      <trkpt lat="50.03577" lon="9.03339">
        <ele>155.599204</ele>
        <time>2023-07-03T12:51:43.671Z</time>
      </trkpt>
      <trkpt lat="50.03576" lon="9.03357">
        <ele>155.46554</ele>
        <time>2023-07-03T12:51:45.659Z</time>
      </trkpt>
      <trkpt lat="50.03574" lon="9.03377">
        <ele>155.323649</ele>
        <time>2023-07-03T12:51:47.688Z</time>
      </trkpt>
      <trkpt lat="50.03574" lon="9.03398">
        <ele>155.179316</ele>
        <time>2023-07-03T12:51:49.649Z</time>
      </trkpt>
      <trkpt lat="50.03575" lon="9.03417">
        <ele>155.042937</ele>
        <time>2023-07-03T12:51:51.681Z</time>
      </trkpt>
      <trkpt lat="50.03579" lon="9.03434">
        <ele>154.914503</ele>
        <time>2023-07-03T12:51:53.657Z</time>
      </trkpt>
      <trkpt lat="50.03581" lon="9.0345">
        <ele>154.803494</ele>
        <time>2023-07-03T12:51:55.660Z</time>
      </trkpt>
      <trkpt lat="50.03572" lon="9.03461">
        <ele>154.671345</ele>
        <time>2023-07-03T12:51:58.656Z</time>
      </trkpt>
      <trkpt lat="50.03562" lon="9.03461">
        <ele>154.5884</ele>
        <time>2023-07-03T12:52:00.652Z</time>
      </trkpt>
      <trkpt lat="50.03548" lon="9.03464">
        <ele>154.510559</ele>
        <time>2023-07-03T12:52:03.668Z</time>
      </trkpt>
      <trkpt lat="50.03539" lon="9.03467">
        <ele>154.45773</ele>
        <time>2023-07-03T12:52:05.665Z</time>
      </trkpt>
      <trkpt lat="50.0353" lon="9.03469">
        <ele>154.404571</ele>
        <time>2023-07-03T12:52:07.651Z</time>
      </trkpt>
      <trkpt lat="50.03521" lon="9.03472">
        <ele>154.349745</ele>
        <time>2023-07-03T12:52:09.670Z</time>
      </trkpt>
      <trkpt lat="50.03511" lon="9.03475">
        <ele>154.296725</ele>
        <time>2023-07-03T12:52:11.662Z</time>
      </trkpt>
      <trkpt lat="50.03501" lon="9.03478">
        <ele>154.239867</ele>
        <time>2023-07-03T12:52:13.661Z</time>
      </trkpt>
      <trkpt lat="50.03492" lon="9.03481">
        <ele>154.187665</ele>
        <time>2023-07-03T12:52:15.651Z</time>
      </trkpt>
      <trkpt lat="50.0348" lon="9.03487">
        <ele>154.11571</ele>
        <time>2023-07-03T12:52:18.650Z</time>
      </trkpt>
      <trkpt lat="50.03469" lon="9.03496">
        <ele>154.044477</ele>
        <time>2023-07-03T12:52:21.646Z</time>
      </trkpt>
      <trkpt lat="50.03459" lon="9.03505">
        <ele>153.978435</ele>
        <time>2023-07-03T12:52:24.641Z</time>
      </trkpt>
      <trkpt lat="50.03448" lon="9.03511">
        <ele>153.912728</ele>
        <time>2023-07-03T12:52:27.676Z</time>
      </trkpt>
      <trkpt lat="50.03436" lon="9.03516">
        <ele>153.84244</ele>
        <time>2023-07-03T12:52:30.651Z</time>
      </trkpt>
      <trkpt lat="50.03427" lon="9.03518">
        <ele>153.790901</ele>
        <time>2023-07-03T12:52:32.664Z</time>
      </trkpt>
      <trkpt lat="50.03418" lon="9.0352">
        <ele>153.738802</ele>
        <time>2023-07-03T12:52:34.658Z</time>
      </trkpt>
      <trkpt lat="50.03405" lon="9.03522">
        <ele>153.663761</ele>
        <time>2023-07-03T12:52:37.669Z</time>
      </trkpt>
      <trkpt lat="50.03396" lon="9.03522">
        <ele>153.612162</ele>
        <time>2023-07-03T12:52:39.676Z</time>
      </trkpt>
      <trkpt lat="50.03387" lon="9.03522">
        <ele>153.620585</ele>
        <time>2023-07-03T12:52:41.657Z</time>
      </trkpt>
      <trkpt lat="50.03377" lon="9.03523">
        <ele>153.660204</ele>
        <time>2023-07-03T12:52:43.663Z</time>
      </trkpt>
      <trkpt lat="50.03368" lon="9.03524">
        <ele>153.701196</ele>
        <time>2023-07-03T12:52:45.669Z</time>
      </trkpt>
      <trkpt lat="50.03358" lon="9.03523">
        <ele>153.743387</ele>
        <time>2023-07-03T12:52:47.670Z</time>
      </trkpt>
      <trkpt lat="50.03348" lon="9.03523">
        <ele>153.78344</ele>
        <time>2023-07-03T12:52:49.667Z</time>
      </trkpt>
      <trkpt lat="50.03335" lon="9.03521">
        <ele>153.841039</ele>
        <time>2023-07-03T12:52:52.663Z</time>
      </trkpt>
      <trkpt lat="50.03325" lon="9.03519">
        <ele>153.882707</ele>
        <time>2023-07-03T12:52:54.671Z</time>
      </trkpt>
      <trkpt lat="50.03316" lon="9.03518">
        <ele>153.921598</ele>
        <time>2023-07-03T12:52:56.661Z</time>
      </trkpt>
      <trkpt lat="50.03307" lon="9.03516">
        <ele>153.960735</ele>
        <time>2023-07-03T12:52:58.675Z</time>
      </trkpt>
      <trkpt lat="50.03297" lon="9.03514">
        <ele>154.00244</ele>
        <time>2023-07-03T12:53:00.644Z</time>
      </trkpt>
      <trkpt lat="50.03288" lon="9.03513">
        <ele>154.042652</ele>
        <time>2023-07-03T12:53:02.668Z</time>
      </trkpt>
      <trkpt lat="50.03279" lon="9.03512">
        <ele>154.082332</ele>
        <time>2023-07-03T12:53:04.675Z</time>
      </trkpt>
      <trkpt lat="50.03265" lon="9.03511">
        <ele>154.139932</ele>
        <time>2023-07-03T12:53:07.671Z</time>
      </trkpt>
      <trkpt lat="50.03256" lon="9.03509">
        <ele>154.178539</ele>
        <time>2023-07-03T12:53:09.670Z</time>
      </trkpt>
      <trkpt lat="50.03247" lon="9.03507">
        <ele>154.217538</ele>
        <time>2023-07-03T12:53:11.660Z</time>
      </trkpt>
      <trkpt lat="50.03238" lon="9.03507">
        <ele>154.257165</ele>
        <time>2023-07-03T12:53:13.665Z</time>
      </trkpt>
      <trkpt lat="50.03228" lon="9.03506">
        <ele>154.297271</ele>
        <time>2023-07-03T12:53:15.659Z</time>
      </trkpt>
      <trkpt lat="50.03219" lon="9.03505">
        <ele>154.337771</ele>
        <time>2023-07-03T12:53:17.666Z</time>
      </trkpt>
      <trkpt lat="50.0321" lon="9.03503">
        <ele>154.36648</ele>
        <time>2023-07-03T12:53:19.665Z</time>
      </trkpt>
      <trkpt lat="50.032" lon="9.03502">
        <ele>154.379871</ele>
        <time>2023-07-03T12:53:21.657Z</time>
      </trkpt>
      <trkpt lat="50.0319" lon="9.03502">
        <ele>154.393515</ele>
        <time>2023-07-03T12:53:23.659Z</time>
      </trkpt>
      <trkpt lat="50.03181" lon="9.03501">
        <ele>154.40647</ele>
        <time>2023-07-03T12:53:25.668Z</time>
      </trkpt>
      <trkpt lat="50.03171" lon="9.03501">
        <ele>154.419702</ele>
        <time>2023-07-03T12:53:27.664Z</time>
      </trkpt>
      <trkpt lat="50.03162" lon="9.035">
        <ele>154.432944</ele>
        <time>2023-07-03T12:53:29.669Z</time>
      </trkpt>
      <trkpt lat="50.03152" lon="9.03499">
        <ele>154.44632</ele>
        <time>2023-07-03T12:53:31.673Z</time>
      </trkpt>
      <trkpt lat="50.03143" lon="9.03499">
        <ele>154.459695</ele>
        <time>2023-07-03T12:53:33.656Z</time>
      </trkpt>
      <trkpt lat="50.03133" lon="9.03498">
        <ele>154.472783</ele>
        <time>2023-07-03T12:53:35.675Z</time>
      </trkpt>
      <trkpt lat="50.03124" lon="9.03497">
        <ele>154.486163</ele>
        <time>2023-07-03T12:53:37.666Z</time>
      </trkpt>
      <trkpt lat="50.03115" lon="9.03498">
        <ele>154.498867</ele>
        <time>2023-07-03T12:53:39.672Z</time>
      </trkpt>
      <trkpt lat="50.03105" lon="9.03498">
        <ele>154.511532</ele>
        <time>2023-07-03T12:53:41.653Z</time>
      </trkpt>
      <trkpt lat="50.03096" lon="9.03499">
        <ele>154.524344</ele>
        <time>2023-07-03T12:53:43.656Z</time>
      </trkpt>
      <trkpt lat="50.03083" lon="9.035">
        <ele>154.542475</ele>
        <time>2023-07-03T12:53:46.654Z</time>
      </trkpt>
      <trkpt lat="50.03071" lon="9.035">
        <ele>154.559876</ele>
        <time>2023-07-03T12:53:49.671Z</time>
      </trkpt>
      <trkpt lat="50.03058" lon="9.035">
        <ele>154.576995</ele>
        <time>2023-07-03T12:53:52.668Z</time>
      </trkpt>
      <trkpt lat="50.03046" lon="9.035">
        <ele>154.594114</ele>
        <time>2023-07-03T12:53:55.680Z</time>
      </trkpt>
      <trkpt lat="50.03034" lon="9.03499">
        <ele>154.610856</ele>
        <time>2023-07-03T12:53:58.671Z</time>
      </trkpt>
      <trkpt lat="50.03022" lon="9.03497">
        <ele>154.623071</ele>
        <time>2023-07-03T12:54:01.666Z</time>
      </trkpt>
      <trkpt lat="50.0301" lon="9.03497">
        <ele>154.63444</ele>
        <time>2023-07-03T12:54:04.676Z</time>
      </trkpt>
      <trkpt lat="50.02999" lon="9.03496">
        <ele>154.645512</ele>
        <time>2023-07-03T12:54:07.665Z</time>
      </trkpt>
      <trkpt lat="50.02987" lon="9.03495">
        <ele>154.656804</ele>
        <time>2023-07-03T12:54:10.673Z</time>
      </trkpt>
      <trkpt lat="50.02975" lon="9.03493">
        <ele>154.668335</ele>
        <time>2023-07-03T12:54:13.667Z</time>
      </trkpt>
      <trkpt lat="50.02963" lon="9.03491">
        <ele>154.680116</ele>
        <time>2023-07-03T12:54:16.657Z</time>
      </trkpt>
      <trkpt lat="50.02951" lon="9.03489">
        <ele>154.692176</ele>
        <time>2023-07-03T12:54:19.675Z</time>
      </trkpt>
      <trkpt lat="50.02939" lon="9.03485">
        <ele>154.704114</ele>
        <time>2023-07-03T12:54:22.669Z</time>
      </trkpt>
      <trkpt lat="50.02927" lon="9.03481">
        <ele>154.716219</ele>
        <time>2023-07-03T12:54:25.662Z</time>
      </trkpt>
      <trkpt lat="50.02915" lon="9.03477">
        <ele>154.727935</ele>
        <time>2023-07-03T12:54:28.655Z</time>
      </trkpt>
      <trkpt lat="50.02903" lon="9.03473">
        <ele>154.739579</ele>
        <time>2023-07-03T12:54:31.666Z</time>
      </trkpt>
      <trkpt lat="50.02891" lon="9.03468">
        <ele>154.75163</ele>
        <time>2023-07-03T12:54:34.674Z</time>
      </trkpt>
      <trkpt lat="50.02879" lon="9.03464">
        <ele>154.763964</ele>
        <time>2023-07-03T12:54:37.668Z</time>
      </trkpt>
      <trkpt lat="50.02868" lon="9.03459">
        <ele>154.775056</ele>
        <time>2023-07-03T12:54:40.671Z</time>
      </trkpt>
      <trkpt lat="50.02856" lon="9.03456">
        <ele>154.785709</ele>
        <time>2023-07-03T12:54:43.672Z</time>
      </trkpt>
      <trkpt lat="50.02846" lon="9.03451">
        <ele>154.761881</ele>
        <time>2023-07-03T12:54:46.654Z</time>
      </trkpt>
      <trkpt lat="50.02835" lon="9.03447">
        <ele>154.736635</ele>
        <time>2023-07-03T12:54:49.666Z</time>
      </trkpt>
      <trkpt lat="50.02825" lon="9.03443">
        <ele>154.712861</ele>
        <time>2023-07-03T12:54:52.674Z</time>
      </trkpt>
      <trkpt lat="50.02814" lon="9.03438">
        <ele>154.687074</ele>
        <time>2023-07-03T12:54:55.681Z</time>
      </trkpt>
      <trkpt lat="50.02804" lon="9.03432">
        <ele>154.662251</ele>
        <time>2023-07-03T12:54:58.668Z</time>
      </trkpt>
      <trkpt lat="50.02794" lon="9.03426">
        <ele>154.637419</ele>
        <time>2023-07-03T12:55:01.681Z</time>
      </trkpt>
      <trkpt lat="50.02783" lon="9.03417">
        <ele>154.609758</ele>
        <time>2023-07-03T12:55:04.652Z</time>
      </trkpt>
      <trkpt lat="50.02772" lon="9.0341">
        <ele>154.583268</ele>
        <time>2023-07-03T12:55:07.667Z</time>
      </trkpt>
      <trkpt lat="50.02761" lon="9.03404">
        <ele>154.558287</ele>
        <time>2023-07-03T12:55:10.670Z</time>
      </trkpt>
      <trkpt lat="50.02751" lon="9.03396">
        <ele>154.532133</ele>
        <time>2023-07-03T12:55:13.676Z</time>
      </trkpt>
      <trkpt lat="50.0274" lon="9.03389">
        <ele>154.505097</ele>
        <time>2023-07-03T12:55:16.657Z</time>
      </trkpt>
      <trkpt lat="50.02729" lon="9.03381">
        <ele>154.478639</ele>
        <time>2023-07-03T12:55:19.669Z</time>
      </trkpt>
      <trkpt lat="50.02719" lon="9.03373">
        <ele>154.452365</ele>
        <time>2023-07-03T12:55:22.671Z</time>
      </trkpt>
      <trkpt lat="50.02708" lon="9.03366">
        <ele>154.42703</ele>
        <time>2023-07-03T12:55:25.669Z</time>
      </trkpt>
      <trkpt lat="50.02698" lon="9.0336">
        <ele>154.402632</ele>
        <time>2023-07-03T12:55:28.668Z</time>
      </trkpt>
      <trkpt lat="50.02687" lon="9.03356">
        <ele>154.381629</ele>
        <time>2023-07-03T12:55:31.665Z</time>
      </trkpt>
      <trkpt lat="50.02676" lon="9.03355">
        <ele>154.385043</ele>
        <time>2023-07-03T12:55:34.668Z</time>
      </trkpt>
      <trkpt lat="50.02665" lon="9.0335">
        <ele>154.388684</ele>
        <time>2023-07-03T12:55:37.653Z</time>
      </trkpt>
      <trkpt lat="50.02653" lon="9.03347">
        <ele>154.392418</ele>
        <time>2023-07-03T12:55:40.651Z</time>
      </trkpt>
      <trkpt lat="50.02641" lon="9.03346">
        <ele>154.39621</ele>
        <time>2023-07-03T12:55:43.691Z</time>
      </trkpt>
      <trkpt lat="50.02629" lon="9.03346">
        <ele>154.399939</ele>
        <time>2023-07-03T12:55:46.664Z</time>
      </trkpt>
      <trkpt lat="50.02617" lon="9.03346">
        <ele>154.40376</ele>
        <time>2023-07-03T12:55:49.655Z</time>
      </trkpt>
      <trkpt lat="50.02605" lon="9.03346">
        <ele>154.40755</ele>
        <time>2023-07-03T12:55:52.668Z</time>
      </trkpt>
      <trkpt lat="50.02593" lon="9.03347">
        <ele>154.411511</ele>
        <time>2023-07-03T12:55:55.665Z</time>
      </trkpt>
      <trkpt lat="50.0258" lon="9.03346">
        <ele>154.415338</ele>
        <time>2023-07-03T12:55:58.662Z</time>
      </trkpt>
      <trkpt lat="50.02567" lon="9.03348">
        <ele>154.419393</ele>
        <time>2023-07-03T12:56:01.652Z</time>
      </trkpt>
      <trkpt lat="50.02555" lon="9.03349">
        <ele>154.423375</ele>
        <time>2023-07-03T12:56:04.665Z</time>
      </trkpt>
      <trkpt lat="50.02542" lon="9.0335">
        <ele>154.427293</ele>
        <time>2023-07-03T12:56:07.667Z</time>
      </trkpt>
      <trkpt lat="50.0253" lon="9.03352">
        <ele>154.431196</ele>
        <time>2023-07-03T12:56:10.646Z</time>
      </trkpt>
      <trkpt lat="50.02516" lon="9.03353">
        <ele>154.435424</ele>
        <time>2023-07-03T12:56:13.662Z</time>
      </trkpt>
      <trkpt lat="50.02503" lon="9.03354">
        <ele>154.466499</ele>
        <time>2023-07-03T12:56:16.662Z</time>
      </trkpt>
      <trkpt lat="50.0249" lon="9.03356">
        <ele>154.519682</ele>
        <time>2023-07-03T12:56:19.675Z</time>
      </trkpt>
      <trkpt lat="50.02478" lon="9.03358">
        <ele>154.573747</ele>
        <time>2023-07-03T12:56:22.669Z</time>
      </trkpt>
      <trkpt lat="50.02465" lon="9.03359">
        <ele>154.625161</ele>
        <time>2023-07-03T12:56:25.661Z</time>
      </trkpt>
      <trkpt lat="50.02453" lon="9.03361">
        <ele>154.675023</ele>
        <time>2023-07-03T12:56:28.662Z</time>
      </trkpt>
      <trkpt lat="50.0244" lon="9.03363">
        <ele>154.730387</ele>
        <time>2023-07-03T12:56:31.669Z</time>
      </trkpt>
      <trkpt lat="50.02428" lon="9.03367">
        <ele>154.783307</ele>
        <time>2023-07-03T12:56:34.678Z</time>
      </trkpt>
      <trkpt lat="50.02416" lon="9.03371">
        <ele>154.834895</ele>
        <time>2023-07-03T12:56:37.667Z</time>
      </trkpt>
      <trkpt lat="50.02404" lon="9.03374">
        <ele>154.884893</ele>
        <time>2023-07-03T12:56:40.668Z</time>
      </trkpt>
      <trkpt lat="50.02392" lon="9.03376">
        <ele>154.933214</ele>
        <time>2023-07-03T12:56:43.669Z</time>
      </trkpt>
      <trkpt lat="50.0238" lon="9.03379">
        <ele>154.983121</ele>
        <time>2023-07-03T12:56:46.667Z</time>
      </trkpt>
      <trkpt lat="50.02368" lon="9.03382">
        <ele>155.034755</ele>
        <time>2023-07-03T12:56:49.648Z</time>
      </trkpt>
      <trkpt lat="50.02355" lon="9.03384">
        <ele>155.088108</ele>
        <time>2023-07-03T12:56:52.663Z</time>
      </trkpt>
      <trkpt lat="50.02343" lon="9.03387">
        <ele>155.141226</ele>
        <time>2023-07-03T12:56:55.671Z</time>
      </trkpt>
      <trkpt lat="50.0233" lon="9.03389">
        <ele>155.193495</ele>
        <time>2023-07-03T12:56:58.675Z</time>
      </trkpt>
      <trkpt lat="50.02317" lon="9.03391">
        <ele>155.240252</ele>
        <time>2023-07-03T12:57:01.663Z</time>
      </trkpt>
      <trkpt lat="50.02304" lon="9.03394">
        <ele>155.28602</ele>
        <time>2023-07-03T12:57:04.677Z</time>
      </trkpt>
      <trkpt lat="50.02292" lon="9.03396">
        <ele>155.332263</ele>
        <time>2023-07-03T12:57:07.668Z</time>
      </trkpt>
      <trkpt lat="50.02283" lon="9.03397">
        <ele>155.36487</ele>
        <time>2023-07-03T12:57:09.675Z</time>
      </trkpt>
      <trkpt lat="50.02269" lon="9.03399">
        <ele>155.412295</ele>
        <time>2023-07-03T12:57:12.678Z</time>
      </trkpt>
      <trkpt lat="50.02256" lon="9.03402">
        <ele>155.460761</ele>
        <time>2023-07-03T12:57:15.673Z</time>
      </trkpt>
      <trkpt lat="50.02247" lon="9.03405">
        <ele>155.493819</ele>
        <time>2023-07-03T12:57:17.675Z</time>
      </trkpt>
      <trkpt lat="50.02237" lon="9.03407">
        <ele>155.527936</ele>
        <time>2023-07-03T12:57:19.671Z</time>
      </trkpt>
      <trkpt lat="50.02225" lon="9.03411">
        <ele>155.574863</ele>
        <time>2023-07-03T12:57:22.653Z</time>
      </trkpt>
      <trkpt lat="50.02216" lon="9.03414">
        <ele>155.607441</ele>
        <time>2023-07-03T12:57:24.678Z</time>
      </trkpt>
      <trkpt lat="50.02207" lon="9.03417">
        <ele>155.640172</ele>
        <time>2023-07-03T12:57:26.661Z</time>
      </trkpt>
      <trkpt lat="50.02198" lon="9.03422">
        <ele>155.672631</ele>
        <time>2023-07-03T12:57:28.674Z</time>
      </trkpt>
      <trkpt lat="50.02186" lon="9.03429">
        <ele>155.720641</ele>
        <time>2023-07-03T12:57:31.680Z</time>
      </trkpt>
      <trkpt lat="50.02177" lon="9.03435">
        <ele>155.75361</ele>
        <time>2023-07-03T12:57:33.661Z</time>
      </trkpt>
      <trkpt lat="50.02166" lon="9.03444">
        <ele>155.799381</ele>
        <time>2023-07-03T12:57:36.661Z</time>
      </trkpt>
      <trkpt lat="50.02153" lon="9.03451">
        <ele>155.81702</ele>
        <time>2023-07-03T12:57:39.672Z</time>
      </trkpt>
      <trkpt lat="50.02141" lon="9.0346">
        <ele>155.774513</ele>
        <time>2023-07-03T12:57:42.656Z</time>
      </trkpt>
      <trkpt lat="50.02129" lon="9.03468">
        <ele>155.732312</ele>
        <time>2023-07-03T12:57:45.661Z</time>
      </trkpt>
      <trkpt lat="50.02117" lon="9.03477">
        <ele>155.690612</ele>
        <time>2023-07-03T12:57:48.665Z</time>
      </trkpt>
      <trkpt lat="50.02109" lon="9.03482">
        <ele>155.661628</ele>
        <time>2023-07-03T12:57:50.752Z</time>
      </trkpt>
      <trkpt lat="50.02097" lon="9.03491">
        <ele>155.619586</ele>
        <time>2023-07-03T12:57:53.665Z</time>
      </trkpt>
      <trkpt lat="50.02085" lon="9.03499">
        <ele>155.578295</ele>
        <time>2023-07-03T12:57:56.704Z</time>
      </trkpt>
      <trkpt lat="50.02077" lon="9.03505">
        <ele>155.548278</ele>
        <time>2023-07-03T12:57:58.731Z</time>
      </trkpt>
      <trkpt lat="50.02069" lon="9.0351">
        <ele>155.51956</ele>
        <time>2023-07-03T12:58:00.933Z</time>
      </trkpt>
      <trkpt lat="50.02056" lon="9.0352">
        <ele>155.475921</ele>
        <time>2023-07-03T12:58:03.838Z</time>
      </trkpt>
      <trkpt lat="50.02044" lon="9.03529">
        <ele>155.432962</ele>
        <time>2023-07-03T12:58:06.731Z</time>
      </trkpt>
      <trkpt lat="50.02036" lon="9.03536">
        <ele>155.402774</ele>
        <time>2023-07-03T12:58:08.778Z</time>
      </trkpt>
      <trkpt lat="50.02028" lon="9.03543">
        <ele>155.374049</ele>
        <time>2023-07-03T12:58:10.732Z</time>
      </trkpt>
      <trkpt lat="50.0202" lon="9.0355">
        <ele>155.345001</ele>
        <time>2023-07-03T12:58:12.698Z</time>
      </trkpt>
      <trkpt lat="50.02009" lon="9.0356">
        <ele>155.302674</ele>
        <time>2023-07-03T12:58:15.777Z</time>
      </trkpt>
      <trkpt lat="50.01997" lon="9.03569">
        <ele>155.26038</ele>
        <time>2023-07-03T12:58:18.656Z</time>
      </trkpt>
      <trkpt lat="50.01986" lon="9.03581">
        <ele>155.3267</ele>
        <time>2023-07-03T12:58:21.753Z</time>
      </trkpt>
      <trkpt lat="50.01979" lon="9.0359">
        <ele>155.379856</ele>
        <time>2023-07-03T12:58:23.790Z</time>
      </trkpt>
      <trkpt lat="50.01971" lon="9.03598">
        <ele>155.433868</ele>
        <time>2023-07-03T12:58:25.665Z</time>
      </trkpt>
      <trkpt lat="50.01964" lon="9.03607">
        <ele>155.486567</ele>
        <time>2023-07-03T12:58:27.659Z</time>
      </trkpt>
      <trkpt lat="50.01957" lon="9.03615">
        <ele>155.539503</ele>
        <time>2023-07-03T12:58:29.661Z</time>
      </trkpt>
      <trkpt lat="50.0195" lon="9.03625">
        <ele>155.592919</ele>
        <time>2023-07-03T12:58:31.649Z</time>
      </trkpt>
      <trkpt lat="50.01939" lon="9.03637">
        <ele>155.671807</ele>
        <time>2023-07-03T12:58:34.655Z</time>
      </trkpt>
      <trkpt lat="50.01928" lon="9.03648">
        <ele>155.747053</ele>
        <time>2023-07-03T12:58:37.659Z</time>
      </trkpt>
      <trkpt lat="50.01917" lon="9.03659">
        <ele>155.826338</ele>
        <time>2023-07-03T12:58:40.669Z</time>
      </trkpt>
      <trkpt lat="50.01909" lon="9.03666">
        <ele>155.879765</ele>
        <time>2023-07-03T12:58:42.656Z</time>
      </trkpt>
      <trkpt lat="50.01901" lon="9.03672">
        <ele>155.932629</ele>
        <time>2023-07-03T12:58:44.669Z</time>
      </trkpt>
      <trkpt lat="50.01888" lon="9.03679">
        <ele>156.012049</ele>
        <time>2023-07-03T12:58:47.712Z</time>
      </trkpt>
      <trkpt lat="50.01879" lon="9.03684">
        <ele>156.065508</ele>
        <time>2023-07-03T12:58:49.641Z</time>
      </trkpt>
      <trkpt lat="50.0187" lon="9.03688">
        <ele>156.119975</ele>
        <time>2023-07-03T12:58:51.657Z</time>
      </trkpt>
      <trkpt lat="50.01861" lon="9.03692">
        <ele>156.175223</ele>
        <time>2023-07-03T12:58:53.668Z</time>
      </trkpt>
      <trkpt lat="50.01853" lon="9.03696">
        <ele>156.228246</ele>
        <time>2023-07-03T12:58:55.654Z</time>
      </trkpt>
      <trkpt lat="50.01843" lon="9.037">
        <ele>156.284053</ele>
        <time>2023-07-03T12:58:57.673Z</time>
      </trkpt>
      <trkpt lat="50.01835" lon="9.03706">
        <ele>156.303192</ele>
        <time>2023-07-03T12:58:59.653Z</time>
      </trkpt>
      <trkpt lat="50.01826" lon="9.03712">
        <ele>156.292521</ele>
        <time>2023-07-03T12:59:01.650Z</time>
      </trkpt>
      <trkpt lat="50.01818" lon="9.03718">
        <ele>156.282102</ele>
        <time>2023-07-03T12:59:03.655Z</time>
      </trkpt>
      <trkpt lat="50.0181" lon="9.03725">
        <ele>156.271374</ele>
        <time>2023-07-03T12:59:05.663Z</time>
      </trkpt>
      <trkpt lat="50.01802" lon="9.03731">
        <ele>156.260777</ele>
        <time>2023-07-03T12:59:07.671Z</time>
      </trkpt>
      <trkpt lat="50.0179" lon="9.0374">
        <ele>156.245528</ele>
        <time>2023-07-03T12:59:10.670Z</time>
      </trkpt>
      <trkpt lat="50.01778" lon="9.03748">
        <ele>156.230256</ele>
        <time>2023-07-03T12:59:13.650Z</time>
      </trkpt>
      <trkpt lat="50.01766" lon="9.03757">
        <ele>156.215169</ele>
        <time>2023-07-03T12:59:16.653Z</time>
      </trkpt>
      <trkpt lat="50.01758" lon="9.03763">
        <ele>156.204445</ele>
        <time>2023-07-03T12:59:18.670Z</time>
      </trkpt>
      <trkpt lat="50.01746" lon="9.03773">
        <ele>156.18937</ele>
        <time>2023-07-03T12:59:21.660Z</time>
      </trkpt>
      <trkpt lat="50.01738" lon="9.03779">
        <ele>156.178918</ele>
        <time>2023-07-03T12:59:23.648Z</time>
      </trkpt>
      <trkpt lat="50.01726" lon="9.03788">
        <ele>156.163484</ele>
        <time>2023-07-03T12:59:26.658Z</time>
      </trkpt>
      <trkpt lat="50.01714" lon="9.03795">
        <ele>156.148077</ele>
        <time>2023-07-03T12:59:29.658Z</time>
      </trkpt>
      <trkpt lat="50.01702" lon="9.03803">
        <ele>156.132961</ele>
        <time>2023-07-03T12:59:32.668Z</time>
      </trkpt>
      <trkpt lat="50.01689" lon="9.03811">
        <ele>156.117573</ele>
        <time>2023-07-03T12:59:35.651Z</time>
      </trkpt>
      <trkpt lat="50.01677" lon="9.0382">
        <ele>156.101884</ele>
        <time>2023-07-03T12:59:38.686Z</time>
      </trkpt>
      <trkpt lat="50.01665" lon="9.03827">
        <ele>156.126757</ele>
        <time>2023-07-03T12:59:41.658Z</time>
      </trkpt>
      <trkpt lat="50.01652" lon="9.03835">
        <ele>156.154192</ele>
        <time>2023-07-03T12:59:44.669Z</time>
      </trkpt>
      <trkpt lat="50.01644" lon="9.03841">
        <ele>156.173386</ele>
        <time>2023-07-03T12:59:46.673Z</time>
      </trkpt>
      <trkpt lat="50.01635" lon="9.03846">
        <ele>156.193353</ele>
        <time>2023-07-03T12:59:48.665Z</time>
      </trkpt>
      <trkpt lat="50.01626" lon="9.03851">
        <ele>156.212461</ele>
        <time>2023-07-03T12:59:50.647Z</time>
      </trkpt>
      <trkpt lat="50.01618" lon="9.03857">
        <ele>156.231674</ele>
        <time>2023-07-03T12:59:52.664Z</time>
      </trkpt>
      <trkpt lat="50.01609" lon="9.03862">
        <ele>156.25082</ele>
        <time>2023-07-03T12:59:54.699Z</time>
      </trkpt>
      <trkpt lat="50.01601" lon="9.03868">
        <ele>156.269496</ele>
        <time>2023-07-03T12:59:56.678Z</time>
      </trkpt>
      <trkpt lat="50.01592" lon="9.03873">
        <ele>156.288062</ele>
        <time>2023-07-03T12:59:58.668Z</time>
      </trkpt>
      <trkpt lat="50.01581" lon="9.03881">
        <ele>156.314045</ele>
        <time>2023-07-03T13:00:01.652Z</time>
      </trkpt>
      <trkpt lat="50.01568" lon="9.03888">
        <ele>156.341269</ele>
        <time>2023-07-03T13:00:04.654Z</time>
      </trkpt>
      <trkpt lat="50.01556" lon="9.03893">
        <ele>156.368682</ele>
        <time>2023-07-03T13:00:07.663Z</time>
      </trkpt>
      <trkpt lat="50.01548" lon="9.03903">
        <ele>156.388972</ele>
        <time>2023-07-03T13:00:09.674Z</time>
      </trkpt>
      <trkpt lat="50.01539" lon="9.03909">
        <ele>156.40886</ele>
        <time>2023-07-03T13:00:11.642Z</time>
      </trkpt>
      <trkpt lat="50.0153" lon="9.03914">
        <ele>156.427673</ele>
        <time>2023-07-03T13:00:13.656Z</time>
      </trkpt>
      <trkpt lat="50.01519" lon="9.03924">
        <ele>156.454979</ele>
        <time>2023-07-03T13:00:16.654Z</time>
      </trkpt>
      <trkpt lat="50.01507" lon="9.03932">
        <ele>156.485063</ele>
        <time>2023-07-03T13:00:19.676Z</time>
      </trkpt>
      <trkpt lat="50.01495" lon="9.03942">
        <ele>156.519826</ele>
        <time>2023-07-03T13:00:22.667Z</time>
      </trkpt>
      <trkpt lat="50.01484" lon="9.03952">
        <ele>156.554002</ele>
        <time>2023-07-03T13:00:25.662Z</time>
      </trkpt>
      <trkpt lat="50.01472" lon="9.03962">
        <ele>156.589221</ele>
        <time>2023-07-03T13:00:28.661Z</time>
      </trkpt>
      <trkpt lat="50.01461" lon="9.03972">
        <ele>156.624357</ele>
        <time>2023-07-03T13:00:31.656Z</time>
      </trkpt>
      <trkpt lat="50.01449" lon="9.03983">
        <ele>156.65969</ele>
        <time>2023-07-03T13:00:34.652Z</time>
      </trkpt>
      <trkpt lat="50.01437" lon="9.03993">
        <ele>156.695123</ele>
        <time>2023-07-03T13:00:37.646Z</time>
      </trkpt>
      <trkpt lat="50.01429" lon="9.04">
        <ele>156.719438</ele>
        <time>2023-07-03T13:00:39.653Z</time>
      </trkpt>
      <trkpt lat="50.01418" lon="9.04011">
        <ele>156.754201</ele>
        <time>2023-07-03T13:00:42.647Z</time>
      </trkpt>
      <trkpt lat="50.01407" lon="9.0402">
        <ele>156.788002</ele>
        <time>2023-07-03T13:00:45.651Z</time>
      </trkpt>
      <trkpt lat="50.01395" lon="9.0403">
        <ele>156.822679</ele>
        <time>2023-07-03T13:00:48.651Z</time>
      </trkpt>
      <trkpt lat="50.01383" lon="9.04041">
        <ele>156.858754</ele>
        <time>2023-07-03T13:00:51.649Z</time>
      </trkpt>
      <trkpt lat="50.01372" lon="9.04052">
        <ele>156.893186</ele>
        <time>2023-07-03T13:00:54.658Z</time>
      </trkpt>
      <trkpt lat="50.01361" lon="9.04062">
        <ele>156.927613</ele>
        <time>2023-07-03T13:00:57.661Z</time>
      </trkpt>
      <trkpt lat="50.0135" lon="9.04072">
        <ele>156.95907</ele>
        <time>2023-07-03T13:01:00.660Z</time>
      </trkpt>
      <trkpt lat="50.01338" lon="9.04082">
        <ele>156.986944</ele>
        <time>2023-07-03T13:01:03.671Z</time>
      </trkpt>
      <trkpt lat="50.01327" lon="9.04092">
        <ele>157.015662</ele>
        <time>2023-07-03T13:01:06.645Z</time>
      </trkpt>
      <trkpt lat="50.01315" lon="9.04101">
        <ele>157.043153</ele>
        <time>2023-07-03T13:01:09.658Z</time>
      </trkpt>
      <trkpt lat="50.01304" lon="9.0411">
        <ele>157.07026</ele>
        <time>2023-07-03T13:01:12.672Z</time>
      </trkpt>
      <trkpt lat="50.01293" lon="9.0412">
        <ele>157.098722</ele>
        <time>2023-07-03T13:01:15.668Z</time>
      </trkpt>
      <trkpt lat="50.01284" lon="9.04125">
        <ele>157.118475</ele>
        <time>2023-07-03T13:01:17.668Z</time>
      </trkpt>
      <trkpt lat="50.01276" lon="9.04133">
        <ele>157.139162</ele>
        <time>2023-07-03T13:01:19.677Z</time>
      </trkpt>
      <trkpt lat="50.01265" lon="9.04144">
        <ele>157.167709</ele>
        <time>2023-07-03T13:01:22.662Z</time>
      </trkpt>
      <trkpt lat="50.01254" lon="9.04155">
        <ele>157.196366</ele>
        <time>2023-07-03T13:01:25.653Z</time>
      </trkpt>
      <trkpt lat="50.01243" lon="9.04165">
        <ele>157.223229</ele>
        <time>2023-07-03T13:01:28.678Z</time>
      </trkpt>
      <trkpt lat="50.01232" lon="9.04175">
        <ele>157.250788</ele>
        <time>2023-07-03T13:01:31.657Z</time>
      </trkpt>
      <trkpt lat="50.01221" lon="9.04184">
        <ele>157.278213</ele>
        <time>2023-07-03T13:01:34.668Z</time>
      </trkpt>
      <trkpt lat="50.01211" lon="9.04193">
        <ele>157.303351</ele>
        <time>2023-07-03T13:01:37.678Z</time>
      </trkpt>
      <trkpt lat="50.012" lon="9.04203">
        <ele>157.330326</ele>
        <time>2023-07-03T13:01:40.658Z</time>
      </trkpt>
      <trkpt lat="50.01189" lon="9.04212">
        <ele>157.316463</ele>
        <time>2023-07-03T13:01:43.660Z</time>
      </trkpt>
      <trkpt lat="50.01177" lon="9.04219">
        <ele>157.294742</ele>
        <time>2023-07-03T13:01:46.644Z</time>
      </trkpt>
      <trkpt lat="50.01164" lon="9.04226">
        <ele>157.272455</ele>
        <time>2023-07-03T13:01:49.673Z</time>
      </trkpt>
      <trkpt lat="50.01153" lon="9.04232">
        <ele>157.251392</ele>
        <time>2023-07-03T13:01:52.672Z</time>
      </trkpt>
      <trkpt lat="50.01141" lon="9.0424">
        <ele>157.230387</ele>
        <time>2023-07-03T13:01:55.666Z</time>
      </trkpt>
      <trkpt lat="50.0113" lon="9.04249">
        <ele>157.20875</ele>
        <time>2023-07-03T13:01:58.663Z</time>
      </trkpt>
      <trkpt lat="50.01118" lon="9.04257">
        <ele>157.186467</ele>
        <time>2023-07-03T13:02:01.673Z</time>
      </trkpt>
      <trkpt lat="50.01106" lon="9.04267">
        <ele>157.164982</ele>
        <time>2023-07-03T13:02:04.665Z</time>
      </trkpt>
      <trkpt lat="50.01095" lon="9.04276">
        <ele>157.1429</ele>
        <time>2023-07-03T13:02:07.675Z</time>
      </trkpt>
      <trkpt lat="50.01084" lon="9.04285">
        <ele>157.121317</ele>
        <time>2023-07-03T13:02:10.667Z</time>
      </trkpt>
      <trkpt lat="50.01072" lon="9.04295">
        <ele>157.099222</ele>
        <time>2023-07-03T13:02:13.651Z</time>
      </trkpt>
      <trkpt lat="50.01062" lon="9.04305">
        <ele>157.078982</ele>
        <time>2023-07-03T13:02:16.659Z</time>
      </trkpt>
      <trkpt lat="50.01052" lon="9.04316">
        <ele>157.058474</ele>
        <time>2023-07-03T13:02:19.656Z</time>
      </trkpt>
      <trkpt lat="50.01041" lon="9.04326">
        <ele>157.037259</ele>
        <time>2023-07-03T13:02:22.671Z</time>
      </trkpt>
      <trkpt lat="50.01032" lon="9.04337">
        <ele>157.100625</ele>
        <time>2023-07-03T13:02:25.660Z</time>
      </trkpt>
      <trkpt lat="50.01021" lon="9.0435">
        <ele>157.214143</ele>
        <time>2023-07-03T13:02:28.658Z</time>
      </trkpt>
      <trkpt lat="50.01012" lon="9.04363">
        <ele>157.327623</ele>
        <time>2023-07-03T13:02:31.675Z</time>
      </trkpt>
      <trkpt lat="50.01003" lon="9.04376">
        <ele>157.436233</ele>
        <time>2023-07-03T13:02:34.665Z</time>
      </trkpt>
      <trkpt lat="50.00994" lon="9.0439">
        <ele>157.549088</ele>
        <time>2023-07-03T13:02:37.671Z</time>
      </trkpt>
      <trkpt lat="50.00985" lon="9.04405">
        <ele>157.658529</ele>
        <time>2023-07-03T13:02:40.668Z</time>
      </trkpt>
      <trkpt lat="50.00977" lon="9.04419">
        <ele>157.767721</ele>
        <time>2023-07-03T13:02:43.670Z</time>
      </trkpt>
      <trkpt lat="50.00968" lon="9.04434">
        <ele>157.882785</ele>
        <time>2023-07-03T13:02:46.645Z</time>
      </trkpt>
      <trkpt lat="50.0096" lon="9.0445">
        <ele>157.997924</ele>
        <time>2023-07-03T13:02:49.638Z</time>
      </trkpt>
      <trkpt lat="50.00951" lon="9.04465">
        <ele>158.110485</ele>
        <time>2023-07-03T13:02:52.667Z</time>
      </trkpt>
      <trkpt lat="50.00943" lon="9.04481">
        <ele>158.226082</ele>
        <time>2023-07-03T13:02:55.658Z</time>
      </trkpt>
      <trkpt lat="50.00935" lon="9.04497">
        <ele>158.3385</ele>
        <time>2023-07-03T13:02:58.654Z</time>
      </trkpt>
      <trkpt lat="50.00927" lon="9.04512">
        <ele>158.448029</ele>
        <time>2023-07-03T13:03:01.665Z</time>
      </trkpt>
      <trkpt lat="50.00921" lon="9.04528">
        <ele>158.554712</ele>
        <time>2023-07-03T13:03:04.672Z</time>
      </trkpt>
      <trkpt lat="50.00915" lon="9.04544">
        <ele>158.678731</ele>
        <time>2023-07-03T13:03:07.669Z</time>
      </trkpt>
      <trkpt lat="50.00909" lon="9.04561">
        <ele>158.823991</ele>
        <time>2023-07-03T13:03:10.677Z</time>
      </trkpt>
      <trkpt lat="50.00904" lon="9.04577">
        <ele>158.96133</ele>
        <time>2023-07-03T13:03:13.661Z</time>
      </trkpt>
      <trkpt lat="50.00899" lon="9.04593">
        <ele>159.094712</ele>
        <time>2023-07-03T13:03:16.656Z</time>
      </trkpt>
      <trkpt lat="50.00894" lon="9.04609">
        <ele>159.228944</ele>
        <time>2023-07-03T13:03:19.673Z</time>
      </trkpt>
      <trkpt lat="50.0089" lon="9.04624">
        <ele>159.359742</ele>
        <time>2023-07-03T13:03:22.670Z</time>
      </trkpt>
      <trkpt lat="50.00886" lon="9.0464">
        <ele>159.489129</ele>
        <time>2023-07-03T13:03:25.659Z</time>
      </trkpt>
      <trkpt lat="50.00882" lon="9.04655">
        <ele>159.616428</ele>
        <time>2023-07-03T13:03:28.653Z</time>
      </trkpt>
      <trkpt lat="50.00878" lon="9.04671">
        <ele>159.748224</ele>
        <time>2023-07-03T13:03:31.659Z</time>
      </trkpt>
      <trkpt lat="50.00873" lon="9.04687">
        <ele>159.88164</ele>
        <time>2023-07-03T13:03:34.685Z</time>
      </trkpt>
      <trkpt lat="50.00869" lon="9.04703">
        <ele>160.014147</ele>
        <time>2023-07-03T13:03:37.659Z</time>
      </trkpt>
      <trkpt lat="50.00865" lon="9.04719">
        <ele>160.147098</ele>
        <time>2023-07-03T13:03:40.671Z</time>
      </trkpt>
      <trkpt lat="50.0086" lon="9.04736">
        <ele>160.283601</ele>
        <time>2023-07-03T13:03:43.664Z</time>
      </trkpt>
      <trkpt lat="50.00856" lon="9.04751">
        <ele>160.415134</ele>
        <time>2023-07-03T13:03:46.654Z</time>
      </trkpt>
      <trkpt lat="50.00852" lon="9.04768">
        <ele>160.55066</ele>
        <time>2023-07-03T13:03:49.662Z</time>
      </trkpt>
      <trkpt lat="50.00848" lon="9.04783">
        <ele>160.677752</ele>
        <time>2023-07-03T13:03:52.663Z</time>
      </trkpt>
      <trkpt lat="50.00843" lon="9.04799">
        <ele>160.73453</ele>
        <time>2023-07-03T13:03:55.675Z</time>
      </trkpt>
      <trkpt lat="50.00839" lon="9.04816">
        <ele>160.702076</ele>
        <time>2023-07-03T13:03:58.660Z</time>
      </trkpt>
      <trkpt lat="50.00835" lon="9.04833">
        <ele>160.668724</ele>
        <time>2023-07-03T13:04:01.661Z</time>
      </trkpt>
      <trkpt lat="50.0083" lon="9.0485">
        <ele>160.634891</ele>
        <time>2023-07-03T13:04:04.655Z</time>
      </trkpt>
      <trkpt lat="50.00826" lon="9.04869">
        <ele>160.59904</ele>
        <time>2023-07-03T13:04:07.666Z</time>
      </trkpt>
      <trkpt lat="50.00819" lon="9.04884">
        <ele>160.565064</ele>
        <time>2023-07-03T13:04:10.674Z</time>
      </trkpt>
      <trkpt lat="50.00814" lon="9.04902">
        <ele>160.530617</ele>
        <time>2023-07-03T13:04:13.669Z</time>
      </trkpt>
      <trkpt lat="50.0081" lon="9.04914">
        <ele>160.505118</ele>
        <time>2023-07-03T13:04:15.667Z</time>
      </trkpt>
      <trkpt lat="50.00804" lon="9.04932">
        <ele>160.468714</ele>
        <time>2023-07-03T13:04:18.671Z</time>
      </trkpt>
      <trkpt lat="50.00797" lon="9.04949">
        <ele>160.430898</ele>
        <time>2023-07-03T13:04:21.662Z</time>
      </trkpt>
      <trkpt lat="50.00791" lon="9.04961">
        <ele>160.405084</ele>
        <time>2023-07-03T13:04:23.666Z</time>
      </trkpt>
      <trkpt lat="50.00786" lon="9.04972">
        <ele>160.379697</ele>
        <time>2023-07-03T13:04:25.661Z</time>
      </trkpt>
      <trkpt lat="50.0078" lon="9.04982">
        <ele>160.353954</ele>
        <time>2023-07-03T13:04:27.640Z</time>
      </trkpt>
      <trkpt lat="50.00774" lon="9.04994">
        <ele>160.327415</ele>
        <time>2023-07-03T13:04:29.668Z</time>
      </trkpt>
      <trkpt lat="50.00769" lon="9.05006">
        <ele>160.300898</ele>
        <time>2023-07-03T13:04:31.667Z</time>
      </trkpt>
      <trkpt lat="50.00763" lon="9.05018">
        <ele>160.272947</ele>
        <time>2023-07-03T13:04:33.664Z</time>
      </trkpt>
      <trkpt lat="50.00756" lon="9.05029">
        <ele>160.245509</ele>
        <time>2023-07-03T13:04:35.659Z</time>
      </trkpt>
      <trkpt lat="50.00748" lon="9.05045">
        <ele>160.24163</ele>
        <time>2023-07-03T13:04:38.654Z</time>
      </trkpt>
      <trkpt lat="50.00742" lon="9.05056">
        <ele>160.242733</ele>
        <time>2023-07-03T13:04:40.670Z</time>
      </trkpt>
      <trkpt lat="50.00736" lon="9.05068">
        <ele>160.243841</ele>
        <time>2023-07-03T13:04:42.649Z</time>
      </trkpt>
      <trkpt lat="50.0073" lon="9.05079">
        <ele>160.244904</ele>
        <time>2023-07-03T13:04:44.668Z</time>
      </trkpt>
      <trkpt lat="50.00724" lon="9.05091">
        <ele>160.246011</ele>
        <time>2023-07-03T13:04:46.654Z</time>
      </trkpt>
      <trkpt lat="50.00719" lon="9.05102">
        <ele>160.247096</ele>
        <time>2023-07-03T13:04:48.664Z</time>
      </trkpt>
      <trkpt lat="50.00713" lon="9.05113">
        <ele>160.248165</ele>
        <time>2023-07-03T13:04:50.633Z</time>
      </trkpt>
      <trkpt lat="50.00707" lon="9.05124">
        <ele>160.249227</ele>
        <time>2023-07-03T13:04:52.674Z</time>
      </trkpt>
      <trkpt lat="50.00699" lon="9.0514">
        <ele>160.250781</ele>
        <time>2023-07-03T13:04:55.665Z</time>
      </trkpt>
      <trkpt lat="50.00692" lon="9.05155">
        <ele>160.252225</ele>
        <time>2023-07-03T13:04:58.671Z</time>
      </trkpt>
      <trkpt lat="50.00684" lon="9.05171">
        <ele>160.253729</ele>
        <time>2023-07-03T13:05:01.659Z</time>
      </trkpt>
      <trkpt lat="50.00676" lon="9.05187">
        <ele>160.255289</ele>
        <time>2023-07-03T13:05:04.726Z</time>
      </trkpt>
      <trkpt lat="50.00668" lon="9.05203">
        <ele>160.256783</ele>
        <time>2023-07-03T13:05:07.680Z</time>
      </trkpt>
      <trkpt lat="50.00661" lon="9.05219">
        <ele>160.2583</ele>
        <time>2023-07-03T13:05:10.674Z</time>
      </trkpt>
      <trkpt lat="50.00654" lon="9.05235">
        <ele>160.259726</ele>
        <time>2023-07-03T13:05:13.657Z</time>
      </trkpt>
      <trkpt lat="50.00646" lon="9.05249">
        <ele>160.261131</ele>
        <time>2023-07-03T13:05:16.652Z</time>
      </trkpt>
      <trkpt lat="50.0064" lon="9.05265">
        <ele>160.189551</ele>
        <time>2023-07-03T13:05:19.619Z</time>
      </trkpt>
      <trkpt lat="50.00633" lon="9.05279">
        <ele>160.097597</ele>
        <time>2023-07-03T13:05:22.642Z</time>
      </trkpt>
      <trkpt lat="50.00626" lon="9.05293">
        <ele>160.007772</ele>
        <time>2023-07-03T13:05:25.660Z</time>
      </trkpt>
      <trkpt lat="50.00619" lon="9.05307">
        <ele>159.917104</ele>
        <time>2023-07-03T13:05:28.687Z</time>
      </trkpt>
      <trkpt lat="50.00613" lon="9.05322">
        <ele>159.826902</ele>
        <time>2023-07-03T13:05:31.654Z</time>
      </trkpt>
      <trkpt lat="50.00607" lon="9.05336">
        <ele>159.737602</ele>
        <time>2023-07-03T13:05:34.668Z</time>
      </trkpt>
      <trkpt lat="50.006" lon="9.0535">
        <ele>159.649603</ele>
        <time>2023-07-03T13:05:37.649Z</time>
      </trkpt>
      <trkpt lat="50.0059" lon="9.05352">
        <ele>159.573194</ele>
        <time>2023-07-03T13:05:40.642Z</time>
      </trkpt>
      <trkpt lat="50.00581" lon="9.0534">
        <ele>159.482054</ele>
        <time>2023-07-03T13:05:43.652Z</time>
      </trkpt>
      <trkpt lat="50.00572" lon="9.05327">
        <ele>159.384087</ele>
        <time>2023-07-03T13:05:46.769Z</time>
      </trkpt>
      <trkpt lat="50.00563" lon="9.05315">
        <ele>159.288499</ele>
        <time>2023-07-03T13:05:49.679Z</time>
      </trkpt>
      <trkpt lat="50.00554" lon="9.05303">
        <ele>159.193057</ele>
        <time>2023-07-03T13:05:52.661Z</time>
      </trkpt>
      <trkpt lat="50.00544" lon="9.05291">
        <ele>159.095395</ele>
        <time>2023-07-03T13:05:55.647Z</time>
      </trkpt>
      <trkpt lat="50.00536" lon="9.05282">
        <ele>159.016762</ele>
        <time>2023-07-03T13:05:59.639Z</time>
      </trkpt>
      <trkpt lat="50.00529" lon="9.05272">
        <ele>158.944318</ele>
        <time>2023-07-03T13:06:03.650Z</time>
      </trkpt>
      <trkpt lat="50.00519" lon="9.0528">
        <ele>158.851371</ele>
        <time>2023-07-03T13:06:07.648Z</time>
      </trkpt>
      <trkpt lat="50.00512" lon="9.05292">
        <ele>158.714527</ele>
        <time>2023-07-03T13:06:09.660Z</time>
      </trkpt>
      <trkpt lat="50.00504" lon="9.05303">
        <ele>158.553214</ele>
        <time>2023-07-03T13:06:11.653Z</time>
      </trkpt>
      <trkpt lat="50.00495" lon="9.05315">
        <ele>158.390675</ele>
        <time>2023-07-03T13:06:13.673Z</time>
      </trkpt>
      <trkpt lat="50.00488" lon="9.05327">
        <ele>158.236133</ele>
        <time>2023-07-03T13:06:15.673Z</time>
      </trkpt>
      <trkpt lat="50.00483" lon="9.05339">
        <ele>158.097368</ele>
        <time>2023-07-03T13:06:17.666Z</time>
      </trkpt>
      <trkpt lat="50.00477" lon="9.05352">
        <ele>157.94668</ele>
        <time>2023-07-03T13:06:19.662Z</time>
      </trkpt>
      <trkpt lat="50.00471" lon="9.05365">
        <ele>157.800462</ele>
        <time>2023-07-03T13:06:21.660Z</time>
      </trkpt>
      <trkpt lat="50.00465" lon="9.05377">
        <ele>157.655597</ele>
        <time>2023-07-03T13:06:23.656Z</time>
      </trkpt>
      <trkpt lat="50.00459" lon="9.05388">
        <ele>157.522116</ele>
        <time>2023-07-03T13:06:25.662Z</time>
      </trkpt>
      <trkpt lat="50.00453" lon="9.054">
        <ele>157.384288</ele>
        <time>2023-07-03T13:06:27.673Z</time>
      </trkpt>
      <trkpt lat="50.00447" lon="9.05411">
        <ele>157.245983</ele>
        <time>2023-07-03T13:06:29.661Z</time>
      </trkpt>
      <trkpt lat="50.00439" lon="9.05426">
        <ele>157.058554</ele>
        <time>2023-07-03T13:06:32.661Z</time>
      </trkpt>
      <trkpt lat="50.0043" lon="9.05442">
        <ele>156.865425</ele>
        <time>2023-07-03T13:06:35.671Z</time>
      </trkpt>
      <trkpt lat="50.00422" lon="9.05457">
        <ele>156.679843</ele>
        <time>2023-07-03T13:06:38.670Z</time>
      </trkpt>
      <trkpt lat="50.00414" lon="9.05473">
        <ele>156.489113</ele>
        <time>2023-07-03T13:06:41.670Z</time>
      </trkpt>
      <trkpt lat="50.00408" lon="9.05484">
        <ele>156.357691</ele>
        <time>2023-07-03T13:06:43.673Z</time>
      </trkpt>
      <trkpt lat="50.004" lon="9.055">
        <ele>156.219132</ele>
        <time>2023-07-03T13:06:46.654Z</time>
      </trkpt>
      <trkpt lat="50.00392" lon="9.05514">
        <ele>156.22539</ele>
        <time>2023-07-03T13:06:49.661Z</time>
      </trkpt>
      <trkpt lat="50.00383" lon="9.05529">
        <ele>156.232194</ele>
        <time>2023-07-03T13:06:52.667Z</time>
      </trkpt>
      <trkpt lat="50.00375" lon="9.05544">
        <ele>156.238363</ele>
        <time>2023-07-03T13:06:55.659Z</time>
      </trkpt>
      <trkpt lat="50.00366" lon="9.05556">
        <ele>156.244121</ele>
        <time>2023-07-03T13:06:58.671Z</time>
      </trkpt>
      <trkpt lat="50.0036" lon="9.05568">
        <ele>156.24919</ele>
        <time>2023-07-03T13:07:01.657Z</time>
      </trkpt>
      <trkpt lat="50.00354" lon="9.05579">
        <ele>156.253831</ele>
        <time>2023-07-03T13:07:04.670Z</time>
      </trkpt>
      <trkpt lat="50.00348" lon="9.05591">
        <ele>156.258983</ele>
        <time>2023-07-03T13:07:08.676Z</time>
      </trkpt>
      <trkpt lat="50.00341" lon="9.05601">
        <ele>156.263763</ele>
        <time>2023-07-03T13:07:12.668Z</time>
      </trkpt>
      <trkpt lat="50.00336" lon="9.05606">
        <ele>156.266593</ele>
        <time>2023-07-03T13:07:30.798Z</time>
      </trkpt>
      <trkpt lat="50.00324" lon="9.05625">
        <ele>156.275564</ele>
        <time>2023-07-03T13:13:47.662Z</time>
      </trkpt>
      <trkpt lat="50.00318" lon="9.05637">
        <ele>156.280385</ele>
        <time>2023-07-03T13:13:50.668Z</time>
      </trkpt>
      <trkpt lat="50.00311" lon="9.05649">
        <ele>156.285595</ele>
        <time>2023-07-03T13:13:53.671Z</time>
      </trkpt>
      <trkpt lat="50.00304" lon="9.05661">
        <ele>156.290915</ele>
        <time>2023-07-03T13:13:56.661Z</time>
      </trkpt>
      <trkpt lat="50.00296" lon="9.05674">
        <ele>156.296754</ele>
        <time>2023-07-03T13:13:59.650Z</time>
      </trkpt>
      <trkpt lat="50.00288" lon="9.05685">
        <ele>156.302428</ele>
        <time>2023-07-03T13:14:02.858Z</time>
      </trkpt>
      <trkpt lat="50.00278" lon="9.05695">
        <ele>156.308358</ele>
        <time>2023-07-03T13:14:05.637Z</time>
      </trkpt>
      <trkpt lat="50.00265" lon="9.05702">
        <ele>156.335874</ele>
        <time>2023-07-03T13:14:08.674Z</time>
      </trkpt>
      <trkpt lat="50.00256" lon="9.05711">
        <ele>156.360393</ele>
        <time>2023-07-03T13:14:11.668Z</time>
      </trkpt>
      <trkpt lat="50.00248" lon="9.05724">
        <ele>156.385555</ele>
        <time>2023-07-03T13:14:14.656Z</time>
      </trkpt>
      <trkpt lat="50.00239" lon="9.05736">
        <ele>156.410911</ele>
        <time>2023-07-03T13:14:17.642Z</time>
      </trkpt>
      <trkpt lat="50.0023" lon="9.05747">
        <ele>156.436084</ele>
        <time>2023-07-03T13:14:20.662Z</time>
      </trkpt>
      <trkpt lat="50.00221" lon="9.05759">
        <ele>156.461411</ele>
        <time>2023-07-03T13:14:23.662Z</time>
      </trkpt>
      <trkpt lat="50.00212" lon="9.0577">
        <ele>156.486562</ele>
        <time>2023-07-03T13:14:26.647Z</time>
      </trkpt>
      <trkpt lat="50.00203" lon="9.05783">
        <ele>156.513174</ele>
        <time>2023-07-03T13:14:29.662Z</time>
      </trkpt>
      <trkpt lat="50.00195" lon="9.05795">
        <ele>156.537944</ele>
        <time>2023-07-03T13:14:32.676Z</time>
      </trkpt>
      <trkpt lat="50.00187" lon="9.0581">
        <ele>156.564408</ele>
        <time>2023-07-03T13:14:35.665Z</time>
      </trkpt>
      <trkpt lat="50.00179" lon="9.05823">
        <ele>156.589368</ele>
        <time>2023-07-03T13:14:38.669Z</time>
      </trkpt>
      <trkpt lat="50.00171" lon="9.05837">
        <ele>156.615304</ele>
        <time>2023-07-03T13:14:41.664Z</time>
      </trkpt>
      <trkpt lat="50.00163" lon="9.05849">
        <ele>156.640776</ele>
        <time>2023-07-03T13:14:44.669Z</time>
      </trkpt>
      <trkpt lat="50.00154" lon="9.05859">
        <ele>156.664569</ele>
        <time>2023-07-03T13:14:47.670Z</time>
      </trkpt>
      <trkpt lat="50.00145" lon="9.05868">
        <ele>156.688096</ele>
        <time>2023-07-03T13:14:50.675Z</time>
      </trkpt>
      <trkpt lat="50.00135" lon="9.05873">
        <ele>156.684194</ele>
        <time>2023-07-03T13:14:53.653Z</time>
      </trkpt>
      <trkpt lat="50.00126" lon="9.0588">
        <ele>156.649669</ele>
        <time>2023-07-03T13:14:56.663Z</time>
      </trkpt>
      <trkpt lat="50.00115" lon="9.05886">
        <ele>156.612308</ele>
        <time>2023-07-03T13:14:59.661Z</time>
      </trkpt>
      <trkpt lat="50.00103" lon="9.05891">
        <ele>156.571186</ele>
        <time>2023-07-03T13:15:02.668Z</time>
      </trkpt>
      <trkpt lat="50.00091" lon="9.05897">
        <ele>156.530279</ele>
        <time>2023-07-03T13:15:05.663Z</time>
      </trkpt>
      <trkpt lat="50.0008" lon="9.05904">
        <ele>156.488753</ele>
        <time>2023-07-03T13:15:08.673Z</time>
      </trkpt>
      <trkpt lat="50.00069" lon="9.05913">
        <ele>156.447856</ele>
        <time>2023-07-03T13:15:11.665Z</time>
      </trkpt>
      <trkpt lat="50.00058" lon="9.05922">
        <ele>156.406471</ele>
        <time>2023-07-03T13:15:14.661Z</time>
      </trkpt>
      <trkpt lat="50.00047" lon="9.05933">
        <ele>156.365209</ele>
        <time>2023-07-03T13:15:17.670Z</time>
      </trkpt>
      <trkpt lat="50.00036" lon="9.05943">
        <ele>156.323503</ele>
        <time>2023-07-03T13:15:20.672Z</time>
      </trkpt>
      <trkpt lat="50.00025" lon="9.05952">
        <ele>156.281726</ele>
        <time>2023-07-03T13:15:23.676Z</time>
      </trkpt>
      <trkpt lat="50.00015" lon="9.05963">
        <ele>156.240972</ele>
        <time>2023-07-03T13:15:26.658Z</time>
      </trkpt>
      <trkpt lat="50.00005" lon="9.05974">
        <ele>156.200458</ele>
        <time>2023-07-03T13:15:29.668Z</time>
      </trkpt>
      <trkpt lat="49.99995" lon="9.05983">
        <ele>156.161876</ele>
        <time>2023-07-03T13:15:32.673Z</time>
      </trkpt>
      <trkpt lat="49.99985" lon="9.05993">
        <ele>156.122463</ele>
        <time>2023-07-03T13:15:35.673Z</time>
      </trkpt>
      <trkpt lat="49.99974" lon="9.06003">
        <ele>156.131778</ele>
        <time>2023-07-03T13:15:38.671Z</time>
      </trkpt>
      <trkpt lat="49.99964" lon="9.06013">
        <ele>156.179595</ele>
        <time>2023-07-03T13:15:41.666Z</time>
      </trkpt>
      <trkpt lat="49.99953" lon="9.06023">
        <ele>156.227411</ele>
        <time>2023-07-03T13:15:44.676Z</time>
      </trkpt>
      <trkpt lat="49.99943" lon="9.06033">
        <ele>156.2745</ele>
        <time>2023-07-03T13:15:47.659Z</time>
      </trkpt>
      <trkpt lat="49.99934" lon="9.06044">
        <ele>156.319861</ele>
        <time>2023-07-03T13:15:50.656Z</time>
      </trkpt>
      <trkpt lat="49.99924" lon="9.06055">
        <ele>156.365205</ele>
        <time>2023-07-03T13:15:53.663Z</time>
      </trkpt>
      <trkpt lat="49.99917" lon="9.06069">
        <ele>156.407939</ele>
        <time>2023-07-03T13:15:56.652Z</time>
      </trkpt>
      <trkpt lat="49.99909" lon="9.06081">
        <ele>156.451543</ele>
        <time>2023-07-03T13:15:59.659Z</time>
      </trkpt>
      <trkpt lat="49.99899" lon="9.06089">
        <ele>156.496873</ele>
        <time>2023-07-03T13:16:02.659Z</time>
      </trkpt>
      <trkpt lat="49.99889" lon="9.06096">
        <ele>156.539241</ele>
        <time>2023-07-03T13:16:05.667Z</time>
      </trkpt>
      <trkpt lat="49.99877" lon="9.06101">
        <ele>156.587859</ele>
        <time>2023-07-03T13:16:08.669Z</time>
      </trkpt>
      <trkpt lat="49.99865" lon="9.06107">
        <ele>156.636916</ele>
        <time>2023-07-03T13:16:11.662Z</time>
      </trkpt>
      <trkpt lat="49.99854" lon="9.06114">
        <ele>156.682166</ele>
        <time>2023-07-03T13:16:14.655Z</time>
      </trkpt>
      <trkpt lat="49.99843" lon="9.06124">
        <ele>156.730503</ele>
        <time>2023-07-03T13:16:17.672Z</time>
      </trkpt>
      <trkpt lat="49.99833" lon="9.06133">
        <ele>156.776972</ele>
        <time>2023-07-03T13:16:20.671Z</time>
      </trkpt>
      <trkpt lat="49.99822" lon="9.06141">
        <ele>156.809683</ele>
        <time>2023-07-03T13:16:23.673Z</time>
      </trkpt>
      <trkpt lat="49.99811" lon="9.0615">
        <ele>156.829134</ele>
        <time>2023-07-03T13:16:26.652Z</time>
      </trkpt>
      <trkpt lat="49.99801" lon="9.0616">
        <ele>156.848247</ele>
        <time>2023-07-03T13:16:29.669Z</time>
      </trkpt>
      <trkpt lat="49.99792" lon="9.06172">
        <ele>156.867362</ele>
        <time>2023-07-03T13:16:32.662Z</time>
      </trkpt>
      <trkpt lat="49.99784" lon="9.06185">
        <ele>156.886154</ele>
        <time>2023-07-03T13:16:35.649Z</time>
      </trkpt>
      <trkpt lat="49.99774" lon="9.06196">
        <ele>156.905597</ele>
        <time>2023-07-03T13:16:38.672Z</time>
      </trkpt>
      <trkpt lat="49.99763" lon="9.06205">
        <ele>156.92527</ele>
        <time>2023-07-03T13:16:41.675Z</time>
      </trkpt>
      <trkpt lat="49.99752" lon="9.06215">
        <ele>156.94514</ele>
        <time>2023-07-03T13:16:44.670Z</time>
      </trkpt>
      <trkpt lat="49.99742" lon="9.06225">
        <ele>156.96474</ele>
        <time>2023-07-03T13:16:47.664Z</time>
      </trkpt>
      <trkpt lat="49.99731" lon="9.06234">
        <ele>156.983813</ele>
        <time>2023-07-03T13:16:50.680Z</time>
      </trkpt>
      <trkpt lat="49.9972" lon="9.06243">
        <ele>157.003403</ele>
        <time>2023-07-03T13:16:53.665Z</time>
      </trkpt>
      <trkpt lat="49.9971" lon="9.06251">
        <ele>157.022653</ele>
        <time>2023-07-03T13:16:56.665Z</time>
      </trkpt>
      <trkpt lat="49.99699" lon="9.0626">
        <ele>157.041009</ele>
        <time>2023-07-03T13:16:59.649Z</time>
      </trkpt>
      <trkpt lat="49.9969" lon="9.06268">
        <ele>157.059136</ele>
        <time>2023-07-03T13:17:02.669Z</time>
      </trkpt>
      <trkpt lat="49.9968" lon="9.06277">
        <ele>157.077089</ele>
        <time>2023-07-03T13:17:05.679Z</time>
      </trkpt>
      <trkpt lat="49.99671" lon="9.06285">
        <ele>157.106769</ele>
        <time>2023-07-03T13:17:08.676Z</time>
      </trkpt>
      <trkpt lat="49.9966" lon="9.06294">
        <ele>157.167438</ele>
        <time>2023-07-03T13:17:12.671Z</time>
      </trkpt>
      <trkpt lat="49.99652" lon="9.06302">
        <ele>157.218679</ele>
        <time>2023-07-03T13:17:15.666Z</time>
      </trkpt>
      <trkpt lat="49.99644" lon="9.0631">
        <ele>157.267763</ele>
        <time>2023-07-03T13:17:18.665Z</time>
      </trkpt>
      <trkpt lat="49.99635" lon="9.06319">
        <ele>157.31828</ele>
        <time>2023-07-03T13:17:21.676Z</time>
      </trkpt>
      <trkpt lat="49.99627" lon="9.06328">
        <ele>157.369948</ele>
        <time>2023-07-03T13:17:24.679Z</time>
      </trkpt>
      <trkpt lat="49.99618" lon="9.06335">
        <ele>157.420546</ele>
        <time>2023-07-03T13:17:27.669Z</time>
      </trkpt>
      <trkpt lat="49.99609" lon="9.06343">
        <ele>157.474571</ele>
        <time>2023-07-03T13:17:30.679Z</time>
      </trkpt>
      <trkpt lat="49.99599" lon="9.0635">
        <ele>157.529213</ele>
        <time>2023-07-03T13:17:33.667Z</time>
      </trkpt>
      <trkpt lat="49.9959" lon="9.06359">
        <ele>157.583981</ele>
        <time>2023-07-03T13:17:36.662Z</time>
      </trkpt>
      <trkpt lat="49.9958" lon="9.06368">
        <ele>157.639869</ele>
        <time>2023-07-03T13:17:39.658Z</time>
      </trkpt>
      <trkpt lat="49.99571" lon="9.06378">
        <ele>157.698516</ele>
        <time>2023-07-03T13:17:42.669Z</time>
      </trkpt>
      <trkpt lat="49.99558" lon="9.06382">
        <ele>157.76241</ele>
        <time>2023-07-03T13:17:45.658Z</time>
      </trkpt>
      <trkpt lat="49.99549" lon="9.06386">
        <ele>157.809043</ele>
        <time>2023-07-03T13:17:47.675Z</time>
      </trkpt>
      <trkpt lat="49.9954" lon="9.06389">
        <ele>157.857576</ele>
        <time>2023-07-03T13:17:49.667Z</time>
      </trkpt>
      <trkpt lat="49.99531" lon="9.06393">
        <ele>157.905763</ele>
        <time>2023-07-03T13:17:51.669Z</time>
      </trkpt>
      <trkpt lat="49.99522" lon="9.06396">
        <ele>157.954033</ele>
        <time>2023-07-03T13:17:53.670Z</time>
      </trkpt>
      <trkpt lat="49.99513" lon="9.064">
        <ele>158.008323</ele>
        <time>2023-07-03T13:17:55.678Z</time>
      </trkpt>
      <trkpt lat="49.99503" lon="9.06405">
        <ele>158.184761</ele>
        <time>2023-07-03T13:17:57.674Z</time>
      </trkpt>
      <trkpt lat="49.99495" lon="9.0641">
        <ele>158.350041</ele>
        <time>2023-07-03T13:17:59.660Z</time>
      </trkpt>
      <trkpt lat="49.99486" lon="9.06413">
        <ele>158.520998</ele>
        <time>2023-07-03T13:18:01.678Z</time>
      </trkpt>
      <trkpt lat="49.99477" lon="9.06417">
        <ele>158.685239</ele>
        <time>2023-07-03T13:18:03.670Z</time>
      </trkpt>
      <trkpt lat="49.99464" lon="9.06423">
        <ele>158.922592</ele>
        <time>2023-07-03T13:18:06.657Z</time>
      </trkpt>
      <trkpt lat="49.99452" lon="9.06428">
        <ele>159.150359</ele>
        <time>2023-07-03T13:18:09.665Z</time>
      </trkpt>
      <trkpt lat="49.99441" lon="9.06433">
        <ele>159.357917</ele>
        <time>2023-07-03T13:18:12.671Z</time>
      </trkpt>
      <trkpt lat="49.9943" lon="9.06439">
        <ele>159.565995</ele>
        <time>2023-07-03T13:18:15.664Z</time>
      </trkpt>
      <trkpt lat="49.99419" lon="9.06446">
        <ele>159.795617</ele>
        <time>2023-07-03T13:18:18.671Z</time>
      </trkpt>
      <trkpt lat="49.99407" lon="9.06449">
        <ele>160.013149</ele>
        <time>2023-07-03T13:18:21.666Z</time>
      </trkpt>
      <trkpt lat="49.99395" lon="9.06452">
        <ele>160.223332</ele>
        <time>2023-07-03T13:18:24.667Z</time>
      </trkpt>
      <trkpt lat="49.99384" lon="9.06455">
        <ele>160.436692</ele>
        <time>2023-07-03T13:18:27.662Z</time>
      </trkpt>
      <trkpt lat="49.99372" lon="9.06459">
        <ele>160.655612</ele>
        <time>2023-07-03T13:18:30.684Z</time>
      </trkpt>
      <trkpt lat="49.9936" lon="9.06461">
        <ele>160.880681</ele>
        <time>2023-07-03T13:18:33.683Z</time>
      </trkpt>
      <trkpt lat="49.99348" lon="9.06465">
        <ele>161.098546</ele>
        <time>2023-07-03T13:18:36.660Z</time>
      </trkpt>
      <trkpt lat="49.99335" lon="9.06469">
        <ele>161.194637</ele>
        <time>2023-07-03T13:18:39.673Z</time>
      </trkpt>
      <trkpt lat="49.99323" lon="9.06472">
        <ele>160.953577</ele>
        <time>2023-07-03T13:18:42.671Z</time>
      </trkpt>
      <trkpt lat="49.99313" lon="9.06476">
        <ele>160.739247</ele>
        <time>2023-07-03T13:18:45.672Z</time>
      </trkpt>
      <trkpt lat="49.99303" lon="9.0648">
        <ele>160.539991</ele>
        <time>2023-07-03T13:18:48.660Z</time>
      </trkpt>
      <trkpt lat="49.99293" lon="9.06485">
        <ele>160.337158</ele>
        <time>2023-07-03T13:18:51.661Z</time>
      </trkpt>
      <trkpt lat="49.99284" lon="9.06493">
        <ele>160.139955</ele>
        <time>2023-07-03T13:18:54.656Z</time>
      </trkpt>
      <trkpt lat="49.99275" lon="9.06503">
        <ele>159.935524</ele>
        <time>2023-07-03T13:18:57.667Z</time>
      </trkpt>
      <trkpt lat="49.99267" lon="9.06511">
        <ele>159.738989</ele>
        <time>2023-07-03T13:19:00.651Z</time>
      </trkpt>
      <trkpt lat="49.99256" lon="9.06514">
        <ele>159.529874</ele>
        <time>2023-07-03T13:19:03.667Z</time>
      </trkpt>
      <trkpt lat="49.99248" lon="9.06507">
        <ele>159.342118</ele>
        <time>2023-07-03T13:19:07.649Z</time>
      </trkpt>
      <trkpt lat="49.99238" lon="9.06504">
        <ele>159.147048</ele>
        <time>2023-07-03T13:19:12.723Z</time>
      </trkpt>
      <trkpt lat="49.99227" lon="9.06505">
        <ele>158.938565</ele>
        <time>2023-07-03T13:19:17.678Z</time>
      </trkpt>
      <trkpt lat="49.99218" lon="9.06507">
        <ele>158.752717</ele>
        <time>2023-07-03T13:19:23.656Z</time>
      </trkpt>
      <trkpt lat="49.99209" lon="9.0651">
        <ele>158.577622</ele>
        <time>2023-07-03T13:19:31.656Z</time>
      </trkpt>
      <trkpt lat="49.99199" lon="9.06511">
        <ele>158.383065</ele>
        <time>2023-07-03T13:19:37.654Z</time>
      </trkpt>
      <trkpt lat="49.99188" lon="9.06513">
        <ele>158.16527</ele>
        <time>2023-07-03T13:19:42.653Z</time>
      </trkpt>
      <trkpt lat="49.99177" lon="9.06516">
        <ele>157.95501</ele>
        <time>2023-07-03T13:19:46.656Z</time>
      </trkpt>
      <trkpt lat="49.99167" lon="9.0652">
        <ele>157.766787</ele>
        <time>2023-07-03T13:19:50.655Z</time>
      </trkpt>
      <trkpt lat="49.99157" lon="9.06522">
        <ele>157.786075</ele>
        <time>2023-07-03T13:19:54.689Z</time>
      </trkpt>
      <trkpt lat="49.99148" lon="9.06524">
        <ele>157.804571</ele>
        <time>2023-07-03T13:19:58.672Z</time>
      </trkpt>
      <trkpt lat="49.99139" lon="9.06527">
        <ele>157.824537</ele>
        <time>2023-07-03T13:20:02.676Z</time>
      </trkpt>
      <trkpt lat="49.99128" lon="9.0653">
        <ele>157.845492</ele>
        <time>2023-07-03T13:20:05.666Z</time>
      </trkpt>
      <trkpt lat="49.99116" lon="9.06533">
        <ele>157.870292</ele>
        <time>2023-07-03T13:20:08.649Z</time>
      </trkpt>
      <trkpt lat="49.99104" lon="9.06535">
        <ele>157.89533</ele>
        <time>2023-07-03T13:20:11.656Z</time>
      </trkpt>
      <trkpt lat="49.99092" lon="9.06538">
        <ele>157.919997</ele>
        <time>2023-07-03T13:20:14.670Z</time>
      </trkpt>
      <trkpt lat="49.99079" lon="9.06543">
        <ele>157.946382</ele>
        <time>2023-07-03T13:20:17.655Z</time>
      </trkpt>
      <trkpt lat="49.99066" lon="9.06548">
        <ele>157.97352</ele>
        <time>2023-07-03T13:20:20.668Z</time>
      </trkpt>
      <trkpt lat="49.99055" lon="9.0655">
        <ele>157.994299</ele>
        <time>2023-07-03T13:20:22.668Z</time>
      </trkpt>
      <trkpt lat="49.99043" lon="9.06553">
        <ele>158.018444</ele>
        <time>2023-07-03T13:20:25.654Z</time>
      </trkpt>
      <trkpt lat="49.99032" lon="9.06554">
        <ele>158.042353</ele>
        <time>2023-07-03T13:20:28.663Z</time>
      </trkpt>
      <trkpt lat="49.9902" lon="9.06558">
        <ele>158.066255</ele>
        <time>2023-07-03T13:20:31.657Z</time>
      </trkpt>
      <trkpt lat="49.99008" lon="9.06561">
        <ele>158.09042</ele>
        <time>2023-07-03T13:20:34.667Z</time>
      </trkpt>
      <trkpt lat="49.98995" lon="9.06563">
        <ele>158.115936</ele>
        <time>2023-07-03T13:20:37.680Z</time>
      </trkpt>
      <trkpt lat="49.98987" lon="9.06566">
        <ele>158.119802</ele>
        <time>2023-07-03T13:20:39.668Z</time>
      </trkpt>
      <trkpt lat="49.98973" lon="9.06569">
        <ele>158.100074</ele>
        <time>2023-07-03T13:20:42.660Z</time>
      </trkpt>
      <trkpt lat="49.98964" lon="9.06571">
        <ele>158.086286</ele>
        <time>2023-07-03T13:20:44.673Z</time>
      </trkpt>
      <trkpt lat="49.98954" lon="9.06574">
        <ele>158.07244</ele>
        <time>2023-07-03T13:20:46.646Z</time>
      </trkpt>
      <trkpt lat="49.98945" lon="9.06576">
        <ele>158.059226</ele>
        <time>2023-07-03T13:20:48.642Z</time>
      </trkpt>
      <trkpt lat="49.98935" lon="9.06579">
        <ele>158.044633</ele>
        <time>2023-07-03T13:20:50.677Z</time>
      </trkpt>
      <trkpt lat="49.98926" lon="9.06582">
        <ele>158.030451</ele>
        <time>2023-07-03T13:20:52.682Z</time>
      </trkpt>
      <trkpt lat="49.98916" lon="9.06585">
        <ele>158.016034</ele>
        <time>2023-07-03T13:20:54.668Z</time>
      </trkpt>
      <trkpt lat="49.98907" lon="9.06587">
        <ele>158.002416</ele>
        <time>2023-07-03T13:20:56.658Z</time>
      </trkpt>
      <trkpt lat="49.98897" lon="9.06589">
        <ele>157.988456</ele>
        <time>2023-07-03T13:20:58.666Z</time>
      </trkpt>
      <trkpt lat="49.98888" lon="9.06592">
        <ele>157.974737</ele>
        <time>2023-07-03T13:21:00.675Z</time>
      </trkpt>
      <trkpt lat="49.98879" lon="9.06594">
        <ele>157.960698</ele>
        <time>2023-07-03T13:21:02.662Z</time>
      </trkpt>
      <trkpt lat="49.98869" lon="9.06597">
        <ele>157.946565</ele>
        <time>2023-07-03T13:21:04.676Z</time>
      </trkpt>
      <trkpt lat="49.98859" lon="9.066">
        <ele>157.932081</ele>
        <time>2023-07-03T13:21:06.656Z</time>
      </trkpt>
      <trkpt lat="49.9885" lon="9.06603">
        <ele>157.918025</ele>
        <time>2023-07-03T13:21:08.681Z</time>
      </trkpt>
      <trkpt lat="49.9884" lon="9.06605">
        <ele>157.904237</ele>
        <time>2023-07-03T13:21:10.675Z</time>
      </trkpt>
      <trkpt lat="49.98831" lon="9.06608">
        <ele>157.890358</ele>
        <time>2023-07-03T13:21:12.684Z</time>
      </trkpt>
      <trkpt lat="49.98822" lon="9.06608">
        <ele>157.877282</ele>
        <time>2023-07-03T13:21:14.660Z</time>
      </trkpt>
      <trkpt lat="49.98809" lon="9.06601">
        <ele>157.783209</ele>
        <time>2023-07-03T13:21:17.661Z</time>
      </trkpt>
      <trkpt lat="49.98796" lon="9.066">
        <ele>157.591322</ele>
        <time>2023-07-03T13:21:19.663Z</time>
      </trkpt>
      <trkpt lat="49.98783" lon="9.06601">
        <ele>157.397982</ele>
        <time>2023-07-03T13:21:21.648Z</time>
      </trkpt>
      <trkpt lat="49.98771" lon="9.06601">
        <ele>157.200038</ele>
        <time>2023-07-03T13:21:23.671Z</time>
      </trkpt>
      <trkpt lat="49.98758" lon="9.06601">
        <ele>157.009754</ele>
        <time>2023-07-03T13:21:25.673Z</time>
      </trkpt>
      <trkpt lat="49.98746" lon="9.06602">
        <ele>156.816361</ele>
        <time>2023-07-03T13:21:27.669Z</time>
      </trkpt>
      <trkpt lat="49.98733" lon="9.06602">
        <ele>156.630608</ele>
        <time>2023-07-03T13:21:29.671Z</time>
      </trkpt>
      <trkpt lat="49.98722" lon="9.06602">
        <ele>156.44955</ele>
        <time>2023-07-03T13:21:31.672Z</time>
      </trkpt>
      <trkpt lat="49.9871" lon="9.06603">
        <ele>156.265402</ele>
        <time>2023-07-03T13:21:33.678Z</time>
      </trkpt>
      <trkpt lat="49.98698" lon="9.06602">
        <ele>156.087413</ele>
        <time>2023-07-03T13:21:35.663Z</time>
      </trkpt>
      <trkpt lat="49.98686" lon="9.06602">
        <ele>155.906315</ele>
        <time>2023-07-03T13:21:37.675Z</time>
      </trkpt>
      <trkpt lat="49.98674" lon="9.06602">
        <ele>155.723725</ele>
        <time>2023-07-03T13:21:39.662Z</time>
      </trkpt>
      <trkpt lat="49.98663" lon="9.06602">
        <ele>155.545728</ele>
        <time>2023-07-03T13:21:41.671Z</time>
      </trkpt>
      <trkpt lat="49.98652" lon="9.06602">
        <ele>155.376844</ele>
        <time>2023-07-03T13:21:43.675Z</time>
      </trkpt>
      <trkpt lat="49.98641" lon="9.06601">
        <ele>155.207879</ele>
        <time>2023-07-03T13:21:45.670Z</time>
      </trkpt>
      <trkpt lat="49.9863" lon="9.06601">
        <ele>155.112058</ele>
        <time>2023-07-03T13:21:47.664Z</time>
      </trkpt>
      <trkpt lat="49.9862" lon="9.06601">
        <ele>155.129971</ele>
        <time>2023-07-03T13:21:49.661Z</time>
      </trkpt>
      <trkpt lat="49.98609" lon="9.06601">
        <ele>155.148748</ele>
        <time>2023-07-03T13:21:51.664Z</time>
      </trkpt>
      <trkpt lat="49.98599" lon="9.06601">
        <ele>155.16631</ele>
        <time>2023-07-03T13:21:53.666Z</time>
      </trkpt>
      <trkpt lat="49.98588" lon="9.06601">
        <ele>155.184221</ele>
        <time>2023-07-03T13:21:55.670Z</time>
      </trkpt>
      <trkpt lat="49.98579" lon="9.066">
        <ele>155.200956</ele>
        <time>2023-07-03T13:21:57.666Z</time>
      </trkpt>
      <trkpt lat="49.98569" lon="9.066">
        <ele>155.217822</ele>
        <time>2023-07-03T13:21:59.674Z</time>
      </trkpt>
      <trkpt lat="49.98559" lon="9.06599">
        <ele>155.23504</ele>
        <time>2023-07-03T13:22:01.672Z</time>
      </trkpt>
      <trkpt lat="49.9855" lon="9.06599">
        <ele>155.251383</ele>
        <time>2023-07-03T13:22:03.658Z</time>
      </trkpt>
      <trkpt lat="49.9854" lon="9.066">
        <ele>155.267931</ele>
        <time>2023-07-03T13:22:05.671Z</time>
      </trkpt>
      <trkpt lat="49.98531" lon="9.06599">
        <ele>155.284131</ele>
        <time>2023-07-03T13:22:07.679Z</time>
      </trkpt>
      <trkpt lat="49.98517" lon="9.066">
        <ele>155.307612</ele>
        <time>2023-07-03T13:22:10.634Z</time>
      </trkpt>
      <trkpt lat="49.98508" lon="9.066">
        <ele>155.323781</ele>
        <time>2023-07-03T13:22:12.678Z</time>
      </trkpt>
      <trkpt lat="49.98499" lon="9.066">
        <ele>155.340481</ele>
        <time>2023-07-03T13:22:14.655Z</time>
      </trkpt>
      <trkpt lat="49.9849" lon="9.06601">
        <ele>155.356168</ele>
        <time>2023-07-03T13:22:16.657Z</time>
      </trkpt>
      <trkpt lat="49.98481" lon="9.06603">
        <ele>155.37193</ele>
        <time>2023-07-03T13:22:18.679Z</time>
      </trkpt>
      <trkpt lat="49.98471" lon="9.06604">
        <ele>155.387945</ele>
        <time>2023-07-03T13:22:20.684Z</time>
      </trkpt>
      <trkpt lat="49.98462" lon="9.06606">
        <ele>155.403751</ele>
        <time>2023-07-03T13:22:22.668Z</time>
      </trkpt>
      <trkpt lat="49.98453" lon="9.06606">
        <ele>155.429388</ele>
        <time>2023-07-03T13:22:24.675Z</time>
      </trkpt>
      <trkpt lat="49.9844" lon="9.06608">
        <ele>155.52132</ele>
        <time>2023-07-03T13:22:27.672Z</time>
      </trkpt>
      <trkpt lat="49.98431" lon="9.0661">
        <ele>155.585492</ele>
        <time>2023-07-03T13:22:29.674Z</time>
      </trkpt>
      <trkpt lat="49.98422" lon="9.06613">
        <ele>155.648043</ele>
        <time>2023-07-03T13:22:31.671Z</time>
      </trkpt>
      <trkpt lat="49.98413" lon="9.06616">
        <ele>155.71454</ele>
        <time>2023-07-03T13:22:33.664Z</time>
      </trkpt>
      <trkpt lat="49.98404" lon="9.06618">
        <ele>155.777318</ele>
        <time>2023-07-03T13:22:35.668Z</time>
      </trkpt>
      <trkpt lat="49.98391" lon="9.06622">
        <ele>155.871148</ele>
        <time>2023-07-03T13:22:38.668Z</time>
      </trkpt>
      <trkpt lat="49.98382" lon="9.06626">
        <ele>155.936681</ele>
        <time>2023-07-03T13:22:40.675Z</time>
      </trkpt>
      <trkpt lat="49.98368" lon="9.06631">
        <ele>156.032479</ele>
        <time>2023-07-03T13:22:43.665Z</time>
      </trkpt>
      <trkpt lat="49.98359" lon="9.06635">
        <ele>156.099736</ele>
        <time>2023-07-03T13:22:45.669Z</time>
      </trkpt>
      <trkpt lat="49.9835" lon="9.06639">
        <ele>156.163126</ele>
        <time>2023-07-03T13:22:47.659Z</time>
      </trkpt>
      <trkpt lat="49.98342" lon="9.06644">
        <ele>156.227317</ele>
        <time>2023-07-03T13:22:49.667Z</time>
      </trkpt>
      <trkpt lat="49.98332" lon="9.06649">
        <ele>156.295547</ele>
        <time>2023-07-03T13:22:51.666Z</time>
      </trkpt>
      <trkpt lat="49.9832" lon="9.06657">
        <ele>156.387134</ele>
        <time>2023-07-03T13:22:54.674Z</time>
      </trkpt>
      <trkpt lat="49.98312" lon="9.06662">
        <ele>156.453533</ele>
        <time>2023-07-03T13:22:56.666Z</time>
      </trkpt>
      <trkpt lat="49.98303" lon="9.06668">
        <ele>156.520274</ele>
        <time>2023-07-03T13:22:58.672Z</time>
      </trkpt>
      <trkpt lat="49.98294" lon="9.06674">
        <ele>156.587545</ele>
        <time>2023-07-03T13:23:00.670Z</time>
      </trkpt>
      <trkpt lat="49.98285" lon="9.06679">
        <ele>156.653778</ele>
        <time>2023-07-03T13:23:02.659Z</time>
      </trkpt>
      <trkpt lat="49.98277" lon="9.06686">
        <ele>156.665755</ele>
        <time>2023-07-03T13:23:04.666Z</time>
      </trkpt>
      <trkpt lat="49.98269" lon="9.06692">
        <ele>156.649384</ele>
        <time>2023-07-03T13:23:06.662Z</time>
      </trkpt>
      <trkpt lat="49.98257" lon="9.06702">
        <ele>156.62475</ele>
        <time>2023-07-03T13:23:09.674Z</time>
      </trkpt>
      <trkpt lat="49.98249" lon="9.06709">
        <ele>156.608161</ele>
        <time>2023-07-03T13:23:11.660Z</time>
      </trkpt>
      <trkpt lat="49.98241" lon="9.06716">
        <ele>156.591739</ele>
        <time>2023-07-03T13:23:13.677Z</time>
      </trkpt>
      <trkpt lat="49.98233" lon="9.06723">
        <ele>156.575093</ele>
        <time>2023-07-03T13:23:15.679Z</time>
      </trkpt>
      <trkpt lat="49.98225" lon="9.0673">
        <ele>156.558186</ele>
        <time>2023-07-03T13:23:17.681Z</time>
      </trkpt>
      <trkpt lat="49.98217" lon="9.06737">
        <ele>156.541424</ele>
        <time>2023-07-03T13:23:19.684Z</time>
      </trkpt>
      <trkpt lat="49.98209" lon="9.06746">
        <ele>156.524242</ele>
        <time>2023-07-03T13:23:21.672Z</time>
      </trkpt>
      <trkpt lat="49.98201" lon="9.06754">
        <ele>156.506802</ele>
        <time>2023-07-03T13:23:23.689Z</time>
      </trkpt>
      <trkpt lat="49.98193" lon="9.06762">
        <ele>156.489895</ele>
        <time>2023-07-03T13:23:25.679Z</time>
      </trkpt>
      <trkpt lat="49.98185" lon="9.0677">
        <ele>156.472887</ele>
        <time>2023-07-03T13:23:27.664Z</time>
      </trkpt>
      <trkpt lat="49.98178" lon="9.06778">
        <ele>156.455615</ele>
        <time>2023-07-03T13:23:29.681Z</time>
      </trkpt>
      <trkpt lat="49.9817" lon="9.06787">
        <ele>156.438355</ele>
        <time>2023-07-03T13:23:31.665Z</time>
      </trkpt>
      <trkpt lat="49.98162" lon="9.06796">
        <ele>156.420958</ele>
        <time>2023-07-03T13:23:33.668Z</time>
      </trkpt>
      <trkpt lat="49.98154" lon="9.06805">
        <ele>156.402269</ele>
        <time>2023-07-03T13:23:35.661Z</time>
      </trkpt>
      <trkpt lat="49.98147" lon="9.06815">
        <ele>156.385284</ele>
        <time>2023-07-03T13:23:37.693Z</time>
      </trkpt>
      <trkpt lat="49.9814" lon="9.06824">
        <ele>156.368888</ele>
        <time>2023-07-03T13:23:39.673Z</time>
      </trkpt>
      <trkpt lat="49.98132" lon="9.06833">
        <ele>156.351565</ele>
        <time>2023-07-03T13:23:41.648Z</time>
      </trkpt>
      <trkpt lat="49.98125" lon="9.06842">
        <ele>156.444439</ele>
        <time>2023-07-03T13:23:43.666Z</time>
      </trkpt>
      <trkpt lat="49.98118" lon="9.06851">
        <ele>156.543301</ele>
        <time>2023-07-03T13:23:45.672Z</time>
      </trkpt>
      <trkpt lat="49.98108" lon="9.06866">
        <ele>156.68877</ele>
        <time>2023-07-03T13:23:48.671Z</time>
      </trkpt>
      <trkpt lat="49.98101" lon="9.06875">
        <ele>156.785272</ele>
        <time>2023-07-03T13:23:50.665Z</time>
      </trkpt>
      <trkpt lat="49.98091" lon="9.06889">
        <ele>156.925772</ele>
        <time>2023-07-03T13:23:53.676Z</time>
      </trkpt>
      <trkpt lat="49.98083" lon="9.06902">
        <ele>157.052814</ele>
        <time>2023-07-03T13:23:56.657Z</time>
      </trkpt>
      <trkpt lat="49.98075" lon="9.06915">
        <ele>157.167629</ele>
        <time>2023-07-03T13:23:59.670Z</time>
      </trkpt>
      <trkpt lat="49.98068" lon="9.06926">
        <ele>157.27328</ele>
        <time>2023-07-03T13:24:02.682Z</time>
      </trkpt>
      <trkpt lat="49.98061" lon="9.06936">
        <ele>157.375359</ele>
        <time>2023-07-03T13:24:05.655Z</time>
      </trkpt>
      <trkpt lat="49.98055" lon="9.06947">
        <ele>157.474506</ele>
        <time>2023-07-03T13:24:08.668Z</time>
      </trkpt>
      <trkpt lat="49.98047" lon="9.06961">
        <ele>157.597933</ele>
        <time>2023-07-03T13:24:12.671Z</time>
      </trkpt>
      <trkpt lat="49.98042" lon="9.06972">
        <ele>157.694828</ele>
        <time>2023-07-03T13:24:15.667Z</time>
      </trkpt>
      <trkpt lat="49.98044" lon="9.06986">
        <ele>157.796307</ele>
        <time>2023-07-03T13:24:18.660Z</time>
      </trkpt>
      <trkpt lat="49.98048" lon="9.07003">
        <ele>157.919431</ele>
        <time>2023-07-03T13:24:22.663Z</time>
      </trkpt>
      <trkpt lat="49.98054" lon="9.07014">
        <ele>158.018726</ele>
        <time>2023-07-03T13:24:25.661Z</time>
      </trkpt>
      <trkpt lat="49.98061" lon="9.07024">
        <ele>158.120805</ele>
        <time>2023-07-03T13:24:28.673Z</time>
      </trkpt>
      <trkpt lat="49.98068" lon="9.07034">
        <ele>158.216998</ele>
        <time>2023-07-03T13:24:31.659Z</time>
      </trkpt>
      <trkpt lat="49.98076" lon="9.07047">
        <ele>158.59952</ele>
        <time>2023-07-03T13:24:35.657Z</time>
      </trkpt>
      <trkpt lat="49.98084" lon="9.07056">
        <ele>159.003735</ele>
        <time>2023-07-03T13:24:39.662Z</time>
      </trkpt>
      <trkpt lat="49.98093" lon="9.07052">
        <ele>159.410769</ele>
        <time>2023-07-03T13:24:43.660Z</time>
      </trkpt>
      <trkpt lat="49.981" lon="9.07041">
        <ele>159.842294</ele>
        <time>2023-07-03T13:24:47.668Z</time>
      </trkpt>
      <trkpt lat="49.98105" lon="9.07026">
        <ele>160.308048</ele>
        <time>2023-07-03T13:24:52.677Z</time>
      </trkpt>
      <trkpt lat="49.98101" lon="9.07013">
        <ele>160.701376</ele>
        <time>2023-07-03T13:24:56.656Z</time>
      </trkpt>
      <trkpt lat="49.98093" lon="9.07007">
        <ele>161.108323</ele>
        <time>2023-07-03T13:25:06.651Z</time>
      </trkpt>
      <trkpt lat="49.98084" lon="9.06999">
        <ele>161.525579</ele>
        <time>2023-07-03T13:25:16.675Z</time>
      </trkpt>
      <trkpt lat="49.98076" lon="9.06993">
        <ele>161.923172</ele>
        <time>2023-07-03T13:25:26.658Z</time>
      </trkpt>
      <trkpt lat="49.98068" lon="9.06985">
        <ele>162.34076</ele>
        <time>2023-07-03T13:25:38.650Z</time>
      </trkpt>
      <trkpt lat="49.9806" lon="9.06972">
        <ele>162.844396</ele>
        <time>2023-07-03T13:25:58.663Z</time>
      </trkpt>
      <trkpt lat="49.98052" lon="9.06959">
        <ele>163.321371</ele>
        <time>2023-07-03T13:26:03.660Z</time>
      </trkpt>
      <trkpt lat="49.98045" lon="9.06947">
        <ele>163.778362</ele>
        <time>2023-07-03T13:26:08.671Z</time>
      </trkpt>
      <trkpt lat="49.98038" lon="9.06938">
        <ele>164.178139</ele>
        <time>2023-07-03T13:26:11.659Z</time>
      </trkpt>
      <trkpt lat="49.98029" lon="9.06925">
        <ele>164.684505</ele>
        <time>2023-07-03T13:26:14.665Z</time>
      </trkpt>
      <trkpt lat="49.98022" lon="9.06915">
        <ele>165.07615</ele>
        <time>2023-07-03T13:26:16.662Z</time>
      </trkpt>
      <trkpt lat="49.98015" lon="9.06902">
        <ele>165.571961</ele>
        <time>2023-07-03T13:26:19.672Z</time>
      </trkpt>
      <trkpt lat="49.98007" lon="9.0689">
        <ele>165.936906</ele>
        <time>2023-07-03T13:26:22.666Z</time>
      </trkpt>
      <trkpt lat="49.98" lon="9.0688">
        <ele>165.828101</ele>
        <time>2023-07-03T13:26:24.675Z</time>
      </trkpt>
      <trkpt lat="49.97991" lon="9.06865">
        <ele>165.679275</ele>
        <time>2023-07-03T13:26:27.666Z</time>
      </trkpt>
      <trkpt lat="49.97985" lon="9.06855">
        <ele>165.574201</ele>
        <time>2023-07-03T13:26:29.669Z</time>
      </trkpt>
      <trkpt lat="49.97976" lon="9.06843">
        <ele>165.436129</ele>
        <time>2023-07-03T13:26:32.669Z</time>
      </trkpt>
      <trkpt lat="49.97969" lon="9.06831">
        <ele>165.320656</ele>
        <time>2023-07-03T13:26:35.663Z</time>
      </trkpt>
      <trkpt lat="49.97962" lon="9.0682">
        <ele>165.202776</ele>
        <time>2023-07-03T13:26:38.661Z</time>
      </trkpt>
      <trkpt lat="49.97954" lon="9.06808">
        <ele>165.079018</ele>
        <time>2023-07-03T13:26:41.667Z</time>
      </trkpt>
      <trkpt lat="49.97947" lon="9.06796">
        <ele>164.958959</ele>
        <time>2023-07-03T13:26:44.663Z</time>
      </trkpt>
      <trkpt lat="49.9794" lon="9.06783">
        <ele>164.829614</ele>
        <time>2023-07-03T13:26:48.673Z</time>
      </trkpt>
      <trkpt lat="49.97932" lon="9.0677">
        <ele>164.699968</ele>
        <time>2023-07-03T13:26:52.679Z</time>
      </trkpt>
      <trkpt lat="49.97925" lon="9.06759">
        <ele>164.585825</ele>
        <time>2023-07-03T13:26:56.645Z</time>
      </trkpt>
      <trkpt lat="49.97919" lon="9.06749">
        <ele>164.48019</ele>
        <time>2023-07-03T13:27:00.674Z</time>
      </trkpt>
      <trkpt lat="49.97913" lon="9.06737">
        <ele>164.373885</ele>
        <time>2023-07-03T13:27:10.648Z</time>
      </trkpt>
      <trkpt lat="49.97907" lon="9.06727">
        <ele>164.269997</ele>
        <time>2023-07-03T13:27:18.662Z</time>
      </trkpt>
      <trkpt lat="49.97901" lon="9.06716">
        <ele>164.164034</ele>
        <time>2023-07-03T13:27:22.680Z</time>
      </trkpt>
      <trkpt lat="49.97894" lon="9.06702">
        <ele>164.028439</ele>
        <time>2023-07-03T13:27:26.671Z</time>
      </trkpt>
      <trkpt lat="49.97887" lon="9.0669">
        <ele>163.911789</ele>
        <time>2023-07-03T13:27:29.678Z</time>
      </trkpt>
      <trkpt lat="49.9788" lon="9.06677">
        <ele>163.844106</ele>
        <time>2023-07-03T13:27:32.660Z</time>
      </trkpt>
      <trkpt lat="49.97874" lon="9.06667">
        <ele>163.800573</ele>
        <time>2023-07-03T13:27:35.653Z</time>
      </trkpt>
      <trkpt lat="49.97866" lon="9.06656">
        <ele>163.750412</ele>
        <time>2023-07-03T13:27:39.649Z</time>
      </trkpt>
      <trkpt lat="49.97858" lon="9.06645">
        <ele>163.698698</ele>
        <time>2023-07-03T13:27:43.661Z</time>
      </trkpt>
      <trkpt lat="49.97851" lon="9.06633">
        <ele>163.648209</ele>
        <time>2023-07-03T13:27:47.657Z</time>
      </trkpt>
      <trkpt lat="49.97843" lon="9.06621">
        <ele>163.59473</ele>
        <time>2023-07-03T13:27:51.660Z</time>
      </trkpt>
      <trkpt lat="49.97836" lon="9.0661">
        <ele>163.545244</ele>
        <time>2023-07-03T13:27:54.666Z</time>
      </trkpt>
      <trkpt lat="49.97828" lon="9.06598">
        <ele>163.493189</ele>
        <time>2023-07-03T13:27:57.673Z</time>
      </trkpt>
      <trkpt lat="49.97821" lon="9.06584">
        <ele>163.438073</ele>
        <time>2023-07-03T13:28:00.672Z</time>
      </trkpt>
      <trkpt lat="49.97813" lon="9.06572">
        <ele>163.384559</ele>
        <time>2023-07-03T13:28:03.653Z</time>
      </trkpt>
      <trkpt lat="49.97806" lon="9.0656">
        <ele>163.332607</ele>
        <time>2023-07-03T13:28:06.672Z</time>
      </trkpt>
      <trkpt lat="49.978" lon="9.06549">
        <ele>163.288115</ele>
        <time>2023-07-03T13:28:09.662Z</time>
      </trkpt>
      <trkpt lat="49.97794" lon="9.06537">
        <ele>163.24053</ele>
        <time>2023-07-03T13:28:13.670Z</time>
      </trkpt>
      <trkpt lat="49.97779" lon="9.06527">
        <ele>163.160073</ele>
        <time>2023-07-03T13:28:34.678Z</time>
      </trkpt>
      <trkpt lat="49.9777" lon="9.06533">
        <ele>163.112946</ele>
        <time>2023-07-03T13:28:37.668Z</time>
      </trkpt>
      <trkpt lat="49.97761" lon="9.0654">
        <ele>163.064988</ele>
        <time>2023-07-03T13:28:40.691Z</time>
      </trkpt>
      <trkpt lat="49.97752" lon="9.06547">
        <ele>163.021475</ele>
        <time>2023-07-03T13:28:43.664Z</time>
      </trkpt>
      <trkpt lat="49.9774" lon="9.06557">
        <ele>163.122583</ele>
        <time>2023-07-03T13:28:46.661Z</time>
      </trkpt>
      <trkpt lat="49.97729" lon="9.06566">
        <ele>163.222772</ele>
        <time>2023-07-03T13:28:49.658Z</time>
      </trkpt>
      <trkpt lat="49.97717" lon="9.06576">
        <ele>163.324333</ele>
        <time>2023-07-03T13:28:52.668Z</time>
      </trkpt>
      <trkpt lat="49.97706" lon="9.06584">
        <ele>163.418348</ele>
        <time>2023-07-03T13:28:55.663Z</time>
      </trkpt>
      <trkpt lat="49.97695" lon="9.06592">
        <ele>163.513277</ele>
        <time>2023-07-03T13:28:58.666Z</time>
      </trkpt>
      <trkpt lat="49.97684" lon="9.066">
        <ele>163.607346</ele>
        <time>2023-07-03T13:29:01.664Z</time>
      </trkpt>
      <trkpt lat="49.97676" lon="9.06606">
        <ele>163.67776</ele>
        <time>2023-07-03T13:29:03.664Z</time>
      </trkpt>
      <trkpt lat="49.97664" lon="9.06618">
        <ele>163.786557</ele>
        <time>2023-07-03T13:29:06.654Z</time>
      </trkpt>
      <trkpt lat="49.97654" lon="9.06627">
        <ele>163.879431</ele>
        <time>2023-07-03T13:29:09.655Z</time>
      </trkpt>
      <trkpt lat="49.97642" lon="9.06635">
        <ele>163.975711</ele>
        <time>2023-07-03T13:29:12.663Z</time>
      </trkpt>
      <trkpt lat="49.97631" lon="9.06643">
        <ele>164.067252</ele>
        <time>2023-07-03T13:29:15.666Z</time>
      </trkpt>
      <trkpt lat="49.9762" lon="9.0665">
        <ele>164.161608</ele>
        <time>2023-07-03T13:29:18.665Z</time>
      </trkpt>
      <trkpt lat="49.9761" lon="9.06659">
        <ele>164.252646</ele>
        <time>2023-07-03T13:29:21.664Z</time>
      </trkpt>
      <trkpt lat="49.97599" lon="9.06668">
        <ele>164.3462</ele>
        <time>2023-07-03T13:29:24.664Z</time>
      </trkpt>
      <trkpt lat="49.9759" lon="9.06677">
        <ele>164.430512</ele>
        <time>2023-07-03T13:29:27.670Z</time>
      </trkpt>
      <trkpt lat="49.97579" lon="9.06685">
        <ele>164.509428</ele>
        <time>2023-07-03T13:29:30.674Z</time>
      </trkpt>
      <trkpt lat="49.97569" lon="9.06693">
        <ele>164.584591</ele>
        <time>2023-07-03T13:29:33.658Z</time>
      </trkpt>
      <trkpt lat="49.97558" lon="9.06702">
        <ele>164.66669</ele>
        <time>2023-07-03T13:29:36.655Z</time>
      </trkpt>
      <trkpt lat="49.97551" lon="9.0671">
        <ele>164.728093</ele>
        <time>2023-07-03T13:29:38.667Z</time>
      </trkpt>
      <trkpt lat="49.97539" lon="9.06719">
        <ele>164.815363</ele>
        <time>2023-07-03T13:29:41.655Z</time>
      </trkpt>
      <trkpt lat="49.97529" lon="9.06726">
        <ele>164.887884</ele>
        <time>2023-07-03T13:29:44.666Z</time>
      </trkpt>
      <trkpt lat="49.9752" lon="9.06735">
        <ele>164.963628</ele>
        <time>2023-07-03T13:29:47.659Z</time>
      </trkpt>
      <trkpt lat="49.97508" lon="9.06743">
        <ele>165.052634</ele>
        <time>2023-07-03T13:29:50.651Z</time>
      </trkpt>
      <trkpt lat="49.97497" lon="9.06753">
        <ele>165.138158</ele>
        <time>2023-07-03T13:29:53.670Z</time>
      </trkpt>
      <trkpt lat="49.97487" lon="9.06762">
        <ele>165.214707</ele>
        <time>2023-07-03T13:29:56.665Z</time>
      </trkpt>
      <trkpt lat="49.97477" lon="9.06768">
        <ele>165.28197</ele>
        <time>2023-07-03T13:29:59.663Z</time>
      </trkpt>
      <trkpt lat="49.97466" lon="9.06776">
        <ele>165.366416</ele>
        <time>2023-07-03T13:30:02.667Z</time>
      </trkpt>
      <trkpt lat="49.97454" lon="9.06784">
        <ele>165.450688</ele>
        <time>2023-07-03T13:30:05.664Z</time>
      </trkpt>
      <trkpt lat="49.97443" lon="9.06794">
        <ele>165.539032</ele>
        <time>2023-07-03T13:30:08.672Z</time>
      </trkpt>
      <trkpt lat="49.97432" lon="9.06803">
        <ele>165.61216</ele>
        <time>2023-07-03T13:30:11.668Z</time>
      </trkpt>
      <trkpt lat="49.9742" lon="9.06812">
        <ele>165.511476</ele>
        <time>2023-07-03T13:30:14.673Z</time>
      </trkpt>
      <trkpt lat="49.97409" lon="9.0682">
        <ele>165.419951</ele>
        <time>2023-07-03T13:30:17.670Z</time>
      </trkpt>
      <trkpt lat="49.97397" lon="9.06829">
        <ele>165.319488</ele>
        <time>2023-07-03T13:30:20.669Z</time>
      </trkpt>
      <trkpt lat="49.97385" lon="9.06839">
        <ele>165.218344</ele>
        <time>2023-07-03T13:30:23.670Z</time>
      </trkpt>
      <trkpt lat="49.97377" lon="9.06845">
        <ele>165.149416</ele>
        <time>2023-07-03T13:30:25.679Z</time>
      </trkpt>
      <trkpt lat="49.97369" lon="9.06851">
        <ele>165.078688</ele>
        <time>2023-07-03T13:30:27.670Z</time>
      </trkpt>
      <trkpt lat="49.97361" lon="9.06858">
        <ele>165.007728</ele>
        <time>2023-07-03T13:30:29.681Z</time>
      </trkpt>
      <trkpt lat="49.97349" lon="9.06867">
        <ele>164.906752</ele>
        <time>2023-07-03T13:30:32.677Z</time>
      </trkpt>
      <trkpt lat="49.97338" lon="9.06876">
        <ele>164.810577</ele>
        <time>2023-07-03T13:30:35.666Z</time>
      </trkpt>
      <trkpt lat="49.97327" lon="9.06885">
        <ele>164.722285</ele>
        <time>2023-07-03T13:30:38.668Z</time>
      </trkpt>
      <trkpt lat="49.97316" lon="9.06893">
        <ele>164.62675</ele>
        <time>2023-07-03T13:30:41.663Z</time>
      </trkpt>
      <trkpt lat="49.97305" lon="9.06902">
        <ele>164.53393</ele>
        <time>2023-07-03T13:30:44.667Z</time>
      </trkpt>
      <trkpt lat="49.97295" lon="9.0691">
        <ele>164.444962</ele>
        <time>2023-07-03T13:30:47.664Z</time>
      </trkpt>
      <trkpt lat="49.97284" lon="9.06919">
        <ele>164.351034</ele>
        <time>2023-07-03T13:30:50.678Z</time>
      </trkpt>
      <trkpt lat="49.97273" lon="9.06929">
        <ele>164.254184</ele>
        <time>2023-07-03T13:30:53.666Z</time>
      </trkpt>
      <trkpt lat="49.97261" lon="9.06938">
        <ele>164.211829</ele>
        <time>2023-07-03T13:30:56.656Z</time>
      </trkpt>
      <trkpt lat="49.9725" lon="9.06948">
        <ele>164.170971</ele>
        <time>2023-07-03T13:30:59.676Z</time>
      </trkpt>
      <trkpt lat="49.97239" lon="9.06956">
        <ele>164.131492</ele>
        <time>2023-07-03T13:31:02.674Z</time>
      </trkpt>
      <trkpt lat="49.97227" lon="9.06965">
        <ele>164.092622</ele>
        <time>2023-07-03T13:31:05.661Z</time>
      </trkpt>
      <trkpt lat="49.97217" lon="9.06975">
        <ele>164.054118</ele>
        <time>2023-07-03T13:31:08.626Z</time>
      </trkpt>
      <trkpt lat="49.97209" lon="9.06982">
        <ele>164.024591</ele>
        <time>2023-07-03T13:31:10.661Z</time>
      </trkpt>
      <trkpt lat="49.97198" lon="9.06989">
        <ele>163.986583</ele>
        <time>2023-07-03T13:31:13.663Z</time>
      </trkpt>
      <trkpt lat="49.97187" lon="9.06998">
        <ele>163.949929</ele>
        <time>2023-07-03T13:31:16.671Z</time>
      </trkpt>
      <trkpt lat="49.97177" lon="9.07004">
        <ele>163.916261</ele>
        <time>2023-07-03T13:31:19.662Z</time>
      </trkpt>
      <trkpt lat="49.97168" lon="9.07009">
        <ele>163.886095</ele>
        <time>2023-07-03T13:31:22.670Z</time>
      </trkpt>
      <trkpt lat="49.97157" lon="9.07014">
        <ele>163.851099</ele>
        <time>2023-07-03T13:31:26.664Z</time>
      </trkpt>
      <trkpt lat="49.97149" lon="9.07021">
        <ele>163.820739</ele>
        <time>2023-07-03T13:31:30.667Z</time>
      </trkpt>
      <trkpt lat="49.9714" lon="9.07029">
        <ele>163.789632</ele>
        <time>2023-07-03T13:31:37.650Z</time>
      </trkpt>
      <trkpt lat="49.97132" lon="9.07036">
        <ele>163.761156</ele>
        <time>2023-07-03T13:31:42.652Z</time>
      </trkpt>
      <trkpt lat="49.97123" lon="9.07045">
        <ele>163.725565</ele>
        <time>2023-07-03T13:31:46.655Z</time>
      </trkpt>
      <trkpt lat="49.97114" lon="9.07052">
        <ele>163.696783</ele>
        <time>2023-07-03T13:31:49.674Z</time>
      </trkpt>
      <trkpt lat="49.97104" lon="9.0706">
        <ele>163.676066</ele>
        <time>2023-07-03T13:31:52.666Z</time>
      </trkpt>
      <trkpt lat="49.97095" lon="9.07068">
        <ele>163.661574</ele>
        <time>2023-07-03T13:31:55.671Z</time>
      </trkpt>
      <trkpt lat="49.97084" lon="9.07075">
        <ele>163.645965</ele>
        <time>2023-07-03T13:31:58.676Z</time>
      </trkpt>
      <trkpt lat="49.97073" lon="9.07082">
        <ele>163.630359</ele>
        <time>2023-07-03T13:32:01.667Z</time>
      </trkpt>
      <trkpt lat="49.97063" lon="9.0709">
        <ele>163.614758</ele>
        <time>2023-07-03T13:32:04.657Z</time>
      </trkpt>
      <trkpt lat="49.97052" lon="9.07098">
        <ele>163.598356</ele>
        <time>2023-07-03T13:32:07.677Z</time>
      </trkpt>
      <trkpt lat="49.97042" lon="9.07106">
        <ele>163.582755</ele>
        <time>2023-07-03T13:32:10.681Z</time>
      </trkpt>
      <trkpt lat="49.97032" lon="9.07115">
        <ele>163.567435</ele>
        <time>2023-07-03T13:32:13.669Z</time>
      </trkpt>
      <trkpt lat="49.97022" lon="9.07123">
        <ele>163.552271</ele>
        <time>2023-07-03T13:32:16.663Z</time>
      </trkpt>
      <trkpt lat="49.97011" lon="9.07131">
        <ele>163.536137</ele>
        <time>2023-07-03T13:32:19.674Z</time>
      </trkpt>
      <trkpt lat="49.97" lon="9.07139">
        <ele>163.519894</ele>
        <time>2023-07-03T13:32:22.673Z</time>
      </trkpt>
      <trkpt lat="49.96989" lon="9.07148">
        <ele>163.50334</ele>
        <time>2023-07-03T13:32:25.672Z</time>
      </trkpt>
      <trkpt lat="49.96978" lon="9.07157">
        <ele>163.48599</ele>
        <time>2023-07-03T13:32:28.665Z</time>
      </trkpt>
      <trkpt lat="49.96966" lon="9.07165">
        <ele>163.469296</ele>
        <time>2023-07-03T13:32:31.656Z</time>
      </trkpt>
      <trkpt lat="49.96955" lon="9.07174">
        <ele>163.452384</ele>
        <time>2023-07-03T13:32:34.661Z</time>
      </trkpt>
      <trkpt lat="49.96944" lon="9.07183">
        <ele>163.464242</ele>
        <time>2023-07-03T13:32:37.657Z</time>
      </trkpt>
      <trkpt lat="49.96933" lon="9.07192">
        <ele>163.496713</ele>
        <time>2023-07-03T13:32:40.677Z</time>
      </trkpt>
      <trkpt lat="49.96922" lon="9.07201">
        <ele>163.528522</ele>
        <time>2023-07-03T13:32:43.666Z</time>
      </trkpt>
      <trkpt lat="49.9691" lon="9.07209">
        <ele>163.561646</ele>
        <time>2023-07-03T13:32:46.663Z</time>
      </trkpt>
      <trkpt lat="49.96898" lon="9.07217">
        <ele>163.594172</ele>
        <time>2023-07-03T13:32:49.665Z</time>
      </trkpt>
      <trkpt lat="49.96886" lon="9.07227">
        <ele>163.628303</ele>
        <time>2023-07-03T13:32:52.664Z</time>
      </trkpt>
      <trkpt lat="49.96874" lon="9.07237">
        <ele>163.66175</ele>
        <time>2023-07-03T13:32:55.658Z</time>
      </trkpt>
      <trkpt lat="49.96863" lon="9.07246">
        <ele>163.693772</ele>
        <time>2023-07-03T13:32:58.668Z</time>
      </trkpt>
      <trkpt lat="49.96853" lon="9.07255">
        <ele>163.724382</ele>
        <time>2023-07-03T13:33:01.723Z</time>
      </trkpt>
      <trkpt lat="49.96844" lon="9.07265">
        <ele>163.752571</ele>
        <time>2023-07-03T13:33:04.663Z</time>
      </trkpt>
      <trkpt lat="49.96834" lon="9.07274">
        <ele>163.781533</ele>
        <time>2023-07-03T13:33:07.675Z</time>
      </trkpt>
      <trkpt lat="49.96825" lon="9.07281">
        <ele>163.807334</ele>
        <time>2023-07-03T13:33:10.669Z</time>
      </trkpt>
      <trkpt lat="49.96816" lon="9.07289">
        <ele>163.833502</ele>
        <time>2023-07-03T13:33:13.677Z</time>
      </trkpt>
      <trkpt lat="49.96806" lon="9.07295">
        <ele>163.86152</ele>
        <time>2023-07-03T13:33:16.661Z</time>
      </trkpt>
      <trkpt lat="49.96796" lon="9.07302">
        <ele>163.888812</ele>
        <time>2023-07-03T13:33:19.674Z</time>
      </trkpt>
      <trkpt lat="49.96786" lon="9.07311">
        <ele>163.96157</ele>
        <time>2023-07-03T13:33:22.661Z</time>
      </trkpt>
      <trkpt lat="49.96775" lon="9.07318">
        <ele>164.079716</ele>
        <time>2023-07-03T13:33:25.698Z</time>
      </trkpt>
      <trkpt lat="49.96766" lon="9.07326">
        <ele>164.186144</ele>
        <time>2023-07-03T13:33:28.678Z</time>
      </trkpt>
      <trkpt lat="49.96756" lon="9.07334">
        <ele>164.291944</ele>
        <time>2023-07-03T13:33:31.672Z</time>
      </trkpt>
      <trkpt lat="49.96747" lon="9.07341">
        <ele>164.395401</ele>
        <time>2023-07-03T13:33:34.664Z</time>
      </trkpt>
      <trkpt lat="49.96737" lon="9.07346">
        <ele>164.500024</ele>
        <time>2023-07-03T13:33:37.679Z</time>
      </trkpt>
      <trkpt lat="49.96728" lon="9.07354">
        <ele>164.602895</ele>
        <time>2023-07-03T13:33:40.674Z</time>
      </trkpt>
      <trkpt lat="49.9672" lon="9.07362">
        <ele>164.696413</ele>
        <time>2023-07-03T13:33:43.687Z</time>
      </trkpt>
      <trkpt lat="49.96712" lon="9.0737">
        <ele>164.792979</ele>
        <time>2023-07-03T13:33:46.650Z</time>
      </trkpt>
      <trkpt lat="49.96703" lon="9.07377">
        <ele>164.891159</ele>
        <time>2023-07-03T13:33:49.647Z</time>
      </trkpt>
      <trkpt lat="49.96692" lon="9.07385">
        <ele>165.005752</ele>
        <time>2023-07-03T13:33:53.671Z</time>
      </trkpt>
      <trkpt lat="49.96682" lon="9.07393">
        <ele>165.118886</ele>
        <time>2023-07-03T13:33:57.670Z</time>
      </trkpt>
      <trkpt lat="49.96674" lon="9.07401">
        <ele>165.213954</ele>
        <time>2023-07-03T13:34:00.661Z</time>
      </trkpt>
      <trkpt lat="49.96666" lon="9.07408">
        <ele>165.305986</ele>
        <time>2023-07-03T13:34:03.681Z</time>
      </trkpt>
      <trkpt lat="49.96657" lon="9.07415">
        <ele>165.40741</ele>
        <time>2023-07-03T13:34:06.656Z</time>
      </trkpt>
      <trkpt lat="49.96647" lon="9.07421">
        <ele>165.51448</ele>
        <time>2023-07-03T13:34:09.668Z</time>
      </trkpt>
      <trkpt lat="49.96638" lon="9.07428">
        <ele>165.615307</ele>
        <time>2023-07-03T13:34:12.666Z</time>
      </trkpt>
      <trkpt lat="49.96628" lon="9.07434">
        <ele>165.704209</ele>
        <time>2023-07-03T13:34:15.658Z</time>
      </trkpt>
      <trkpt lat="49.96619" lon="9.07442">
        <ele>165.774705</ele>
        <time>2023-07-03T13:34:18.668Z</time>
      </trkpt>
      <trkpt lat="49.9661" lon="9.07448">
        <ele>165.837502</ele>
        <time>2023-07-03T13:34:21.657Z</time>
      </trkpt>
      <trkpt lat="49.96601" lon="9.07457">
        <ele>165.905271</ele>
        <time>2023-07-03T13:34:24.651Z</time>
      </trkpt>
      <trkpt lat="49.9659" lon="9.07465">
        <ele>165.98294</ele>
        <time>2023-07-03T13:34:27.649Z</time>
      </trkpt>
      <trkpt lat="49.9658" lon="9.07474">
        <ele>166.057006</ele>
        <time>2023-07-03T13:34:30.659Z</time>
      </trkpt>
      <trkpt lat="49.9657" lon="9.07481">
        <ele>166.130579</ele>
        <time>2023-07-03T13:34:33.658Z</time>
      </trkpt>
      <trkpt lat="49.96562" lon="9.07488">
        <ele>166.19163</ele>
        <time>2023-07-03T13:34:36.655Z</time>
      </trkpt>
      <trkpt lat="49.96553" lon="9.07496">
        <ele>166.260225</ele>
        <time>2023-07-03T13:34:40.674Z</time>
      </trkpt>
      <trkpt lat="49.96543" lon="9.07504">
        <ele>166.329759</ele>
        <time>2023-07-03T13:34:44.677Z</time>
      </trkpt>
      <trkpt lat="49.96533" lon="9.07512">
        <ele>166.40506</ele>
        <time>2023-07-03T13:34:48.665Z</time>
      </trkpt>
      <trkpt lat="49.96523" lon="9.07519">
        <ele>166.478973</ele>
        <time>2023-07-03T13:34:52.667Z</time>
      </trkpt>
      <trkpt lat="49.96514" lon="9.07527">
        <ele>166.5418</ele>
        <time>2023-07-03T13:34:55.669Z</time>
      </trkpt>
      <trkpt lat="49.96506" lon="9.07533">
        <ele>166.602088</ele>
        <time>2023-07-03T13:34:58.656Z</time>
      </trkpt>
      <trkpt lat="49.96498" lon="9.0754">
        <ele>166.662598</ele>
        <time>2023-07-03T13:35:01.663Z</time>
      </trkpt>
      <trkpt lat="49.96489" lon="9.07548">
        <ele>166.730581</ele>
        <time>2023-07-03T13:35:04.664Z</time>
      </trkpt>
      <trkpt lat="49.96478" lon="9.07556">
        <ele>166.806274</ele>
        <time>2023-07-03T13:35:07.660Z</time>
      </trkpt>
      <trkpt lat="49.96467" lon="9.07564">
        <ele>166.820297</ele>
        <time>2023-07-03T13:35:10.654Z</time>
      </trkpt>
      <trkpt lat="49.96457" lon="9.07573">
        <ele>166.735642</ele>
        <time>2023-07-03T13:35:13.675Z</time>
      </trkpt>
      <trkpt lat="49.96446" lon="9.07581">
        <ele>166.652061</ele>
        <time>2023-07-03T13:35:16.657Z</time>
      </trkpt>
      <trkpt lat="49.96435" lon="9.0759">
        <ele>166.565293</ele>
        <time>2023-07-03T13:35:19.666Z</time>
      </trkpt>
      <trkpt lat="49.96426" lon="9.07598">
        <ele>166.488743</ele>
        <time>2023-07-03T13:35:22.667Z</time>
      </trkpt>
      <trkpt lat="49.96416" lon="9.07606">
        <ele>166.409321</ele>
        <time>2023-07-03T13:35:25.653Z</time>
      </trkpt>
      <trkpt lat="49.96405" lon="9.07612">
        <ele>166.330011</ele>
        <time>2023-07-03T13:35:28.681Z</time>
      </trkpt>
      <trkpt lat="49.96394" lon="9.07621">
        <ele>166.240745</ele>
        <time>2023-07-03T13:35:31.685Z</time>
      </trkpt>
      <trkpt lat="49.96383" lon="9.07629">
        <ele>166.153636</ele>
        <time>2023-07-03T13:35:34.667Z</time>
      </trkpt>
      <trkpt lat="49.96371" lon="9.07637">
        <ele>166.063139</ele>
        <time>2023-07-03T13:35:37.650Z</time>
      </trkpt>
      <trkpt lat="49.9636" lon="9.07647">
        <ele>165.974465</ele>
        <time>2023-07-03T13:35:40.672Z</time>
      </trkpt>
      <trkpt lat="49.9635" lon="9.07657">
        <ele>165.886687</ele>
        <time>2023-07-03T13:35:43.666Z</time>
      </trkpt>
      <trkpt lat="49.96341" lon="9.07664">
        <ele>165.820196</ele>
        <time>2023-07-03T13:35:45.660Z</time>
      </trkpt>
      <trkpt lat="49.96333" lon="9.07671">
        <ele>165.751848</ele>
        <time>2023-07-03T13:35:47.669Z</time>
      </trkpt>
      <trkpt lat="49.96322" lon="9.07678">
        <ele>165.667043</ele>
        <time>2023-07-03T13:35:50.667Z</time>
      </trkpt>
      <trkpt lat="49.9631" lon="9.07688">
        <ele>165.59119</ele>
        <time>2023-07-03T13:35:53.670Z</time>
      </trkpt>
      <trkpt lat="49.96298" lon="9.07698">
        <ele>165.646253</ele>
        <time>2023-07-03T13:35:56.649Z</time>
      </trkpt>
      <trkpt lat="49.96286" lon="9.07707">
        <ele>165.701815</ele>
        <time>2023-07-03T13:35:59.670Z</time>
      </trkpt>
      <trkpt lat="49.96278" lon="9.07714">
        <ele>165.740369</ele>
        <time>2023-07-03T13:36:01.667Z</time>
      </trkpt>
      <trkpt lat="49.96266" lon="9.07724">
        <ele>165.797048</ele>
        <time>2023-07-03T13:36:04.669Z</time>
      </trkpt>
      <trkpt lat="49.96255" lon="9.07732">
        <ele>165.849307</ele>
        <time>2023-07-03T13:36:07.676Z</time>
      </trkpt>
      <trkpt lat="49.96244" lon="9.07741">
        <ele>165.90263</ele>
        <time>2023-07-03T13:36:10.677Z</time>
      </trkpt>
      <trkpt lat="49.96232" lon="9.07751">
        <ele>165.958816</ele>
        <time>2023-07-03T13:36:13.669Z</time>
      </trkpt>
      <trkpt lat="49.9622" lon="9.0776">
        <ele>166.015128</ele>
        <time>2023-07-03T13:36:16.651Z</time>
      </trkpt>
      <trkpt lat="49.96207" lon="9.0777">
        <ele>166.074178</ele>
        <time>2023-07-03T13:36:19.672Z</time>
      </trkpt>
      <trkpt lat="49.96199" lon="9.07777">
        <ele>166.112733</ele>
        <time>2023-07-03T13:36:21.680Z</time>
      </trkpt>
      <trkpt lat="49.96188" lon="9.07784">
        <ele>166.165495</ele>
        <time>2023-07-03T13:36:24.667Z</time>
      </trkpt>
      <trkpt lat="49.96177" lon="9.07795">
        <ele>166.219648</ele>
        <time>2023-07-03T13:36:27.651Z</time>
      </trkpt>
      <trkpt lat="49.96166" lon="9.07802">
        <ele>166.270156</ele>
        <time>2023-07-03T13:36:30.668Z</time>
      </trkpt>
      <trkpt lat="49.96154" lon="9.07811">
        <ele>166.324889</ele>
        <time>2023-07-03T13:36:33.674Z</time>
      </trkpt>
      <trkpt lat="49.96143" lon="9.07821">
        <ele>166.318758</ele>
        <time>2023-07-03T13:36:36.653Z</time>
      </trkpt>
      <trkpt lat="49.96131" lon="9.0783">
        <ele>166.289254</ele>
        <time>2023-07-03T13:36:39.668Z</time>
      </trkpt>
      <trkpt lat="49.96119" lon="9.07837">
        <ele>166.262449</ele>
        <time>2023-07-03T13:36:42.679Z</time>
      </trkpt>
      <trkpt lat="49.96108" lon="9.07847">
        <ele>166.233857</ele>
        <time>2023-07-03T13:36:45.672Z</time>
      </trkpt>
      <trkpt lat="49.96096" lon="9.07856">
        <ele>166.204878</ele>
        <time>2023-07-03T13:36:48.658Z</time>
      </trkpt>
      <trkpt lat="49.96088" lon="9.07862">
        <ele>166.184371</ele>
        <time>2023-07-03T13:36:50.669Z</time>
      </trkpt>
      <trkpt lat="49.96077" lon="9.0787">
        <ele>166.158424</ele>
        <time>2023-07-03T13:36:53.666Z</time>
      </trkpt>
      <trkpt lat="49.96067" lon="9.07877">
        <ele>166.13423</ele>
        <time>2023-07-03T13:36:56.673Z</time>
      </trkpt>
      <trkpt lat="49.96055" lon="9.0788">
        <ele>166.107607</ele>
        <time>2023-07-03T13:36:59.661Z</time>
      </trkpt>
      <trkpt lat="49.96044" lon="9.07881">
        <ele>166.083844</ele>
        <time>2023-07-03T13:37:02.671Z</time>
      </trkpt>
      <trkpt lat="49.96034" lon="9.07886">
        <ele>166.061086</ele>
        <time>2023-07-03T13:37:05.656Z</time>
      </trkpt>
      <trkpt lat="49.96023" lon="9.07889">
        <ele>166.036407</ele>
        <time>2023-07-03T13:37:09.652Z</time>
      </trkpt>
      <trkpt lat="49.96013" lon="9.07881">
        <ele>166.011642</ele>
        <time>2023-07-03T13:37:13.687Z</time>
      </trkpt>
      <trkpt lat="49.96003" lon="9.07882">
        <ele>165.990138</ele>
        <time>2023-07-03T13:37:17.678Z</time>
      </trkpt>
      <trkpt lat="49.95998" lon="9.07869">
        <ele>165.969601</ele>
        <time>2023-07-03T13:37:21.660Z</time>
      </trkpt>
      <trkpt lat="49.95994" lon="9.07854">
        <ele>165.946242</ele>
        <time>2023-07-03T13:37:25.673Z</time>
      </trkpt>
      <trkpt lat="49.95991" lon="9.0784">
        <ele>165.942617</ele>
        <time>2023-07-03T13:37:31.656Z</time>
      </trkpt>
      <trkpt lat="49.95982" lon="9.07836">
        <ele>165.939845</ele>
        <time>2023-07-03T13:37:35.661Z</time>
      </trkpt>
      <trkpt lat="49.95973" lon="9.07839">
        <ele>165.937177</ele>
        <time>2023-07-03T13:37:38.661Z</time>
      </trkpt>
      <trkpt lat="49.95963" lon="9.07845">
        <ele>165.93414</ele>
        <time>2023-07-03T13:37:41.652Z</time>
      </trkpt>
      <trkpt lat="49.95953" lon="9.07852">
        <ele>165.930708</ele>
        <time>2023-07-03T13:37:44.652Z</time>
      </trkpt>
      <trkpt lat="49.95941" lon="9.07859">
        <ele>165.92714</ele>
        <time>2023-07-03T13:37:47.664Z</time>
      </trkpt>
      <trkpt lat="49.9593" lon="9.07866">
        <ele>165.923647</ele>
        <time>2023-07-03T13:37:50.661Z</time>
      </trkpt>
      <trkpt lat="49.9592" lon="9.07872">
        <ele>165.920258</ele>
        <time>2023-07-03T13:37:53.672Z</time>
      </trkpt>
      <trkpt lat="49.95909" lon="9.07874">
        <ele>165.917134</ele>
        <time>2023-07-03T13:37:56.650Z</time>
      </trkpt>
      <trkpt lat="49.95901" lon="9.07862">
        <ele>165.913742</ele>
        <time>2023-07-03T13:37:59.663Z</time>
      </trkpt>
      <trkpt lat="49.95898" lon="9.07843">
        <ele>165.910159</ele>
        <time>2023-07-03T13:38:02.659Z</time>
      </trkpt>
      <trkpt lat="49.95895" lon="9.07827">
        <ele>165.906875</ele>
        <time>2023-07-03T13:38:05.676Z</time>
      </trkpt>
      <trkpt lat="49.95892" lon="9.07811">
        <ele>165.903646</ele>
        <time>2023-07-03T13:38:08.664Z</time>
      </trkpt>
      <trkpt lat="49.95889" lon="9.07795">
        <ele>165.900534</ele>
        <time>2023-07-03T13:38:11.678Z</time>
      </trkpt>
      <trkpt lat="49.95886" lon="9.07779">
        <ele>165.897404</ele>
        <time>2023-07-03T13:38:14.667Z</time>
      </trkpt>
      <trkpt lat="49.95884" lon="9.07763">
        <ele>165.89426</ele>
        <time>2023-07-03T13:38:17.671Z</time>
      </trkpt>
      <trkpt lat="49.95881" lon="9.07747">
        <ele>165.892144</ele>
        <time>2023-07-03T13:38:20.670Z</time>
      </trkpt>
      <trkpt lat="49.95879" lon="9.07732">
        <ele>165.892144</ele>
        <time>2023-07-03T13:38:23.664Z</time>
      </trkpt>
      <trkpt lat="49.95877" lon="9.07718">
        <ele>165.892144</ele>
        <time>2023-07-03T13:38:26.669Z</time>
      </trkpt>
      <trkpt lat="49.95876" lon="9.07704">
        <ele>165.892144</ele>
        <time>2023-07-03T13:38:29.732Z</time>
      </trkpt>
      <trkpt lat="49.95875" lon="9.0769">
        <ele>165.892144</ele>
        <time>2023-07-03T13:38:32.675Z</time>
      </trkpt>
      <trkpt lat="49.95873" lon="9.07674">
        <ele>165.892144</ele>
        <time>2023-07-03T13:38:35.673Z</time>
      </trkpt>
      <trkpt lat="49.95872" lon="9.07658">
        <ele>165.892144</ele>
        <time>2023-07-03T13:38:38.668Z</time>
      </trkpt>
      <trkpt lat="49.9587" lon="9.07643">
        <ele>165.892144</ele>
        <time>2023-07-03T13:38:41.676Z</time>
      </trkpt>
      <trkpt lat="49.95869" lon="9.07628">
        <ele>165.892144</ele>
        <time>2023-07-03T13:38:44.665Z</time>
      </trkpt>
      <trkpt lat="49.95867" lon="9.07612">
        <ele>165.892144</ele>
        <time>2023-07-03T13:38:47.675Z</time>
      </trkpt>
      <trkpt lat="49.95865" lon="9.07596">
        <ele>165.892144</ele>
        <time>2023-07-03T13:38:50.665Z</time>
      </trkpt>
      <trkpt lat="49.95864" lon="9.07579">
        <ele>165.892144</ele>
        <time>2023-07-03T13:38:53.672Z</time>
      </trkpt>
      <trkpt lat="49.95865" lon="9.07564">
        <ele>165.892144</ele>
        <time>2023-07-03T13:38:56.669Z</time>
      </trkpt>
      <trkpt lat="49.95873" lon="9.07556">
        <ele>165.892144</ele>
        <time>2023-07-03T13:38:59.874Z</time>
      </trkpt>
      <trkpt lat="49.95883" lon="9.0755">
        <ele>165.892144</ele>
        <time>2023-07-03T13:39:02.644Z</time>
      </trkpt>
      <trkpt lat="49.95893" lon="9.07545">
        <ele>165.892144</ele>
        <time>2023-07-03T13:39:05.660Z</time>
      </trkpt>
      <trkpt lat="49.95903" lon="9.07541">
        <ele>165.892144</ele>
        <time>2023-07-03T13:39:08.662Z</time>
      </trkpt>
      <trkpt lat="49.95912" lon="9.07532">
        <ele>165.892144</ele>
        <time>2023-07-03T13:39:11.667Z</time>
      </trkpt>
      <trkpt lat="49.95918" lon="9.07519">
        <ele>165.892144</ele>
        <time>2023-07-03T13:39:15.649Z</time>
      </trkpt>
      <trkpt lat="49.95918" lon="9.07505">
        <ele>165.892144</ele>
        <time>2023-07-03T13:39:22.653Z</time>
      </trkpt>
    </trkseg>
  </trk>
</gpx>